<?xml version="1.0" encoding="UTF-8" standalone="no" ?>
<gpx xmlns="http://www.topografix.com/GPX/1/1" xmlns:xsi="http://www.w3.org/2001/XMLSchema-instance" xsi:schemaLocation="http://www.topografix.com/GPX/1/1 http://www.topografix.com/GPX/1/1/gpx.xsd" version="1.1" creator="VisuGPX - https://www.visugpx.com">
  <metadata>
    <name>2015-06-11 Du Pinet au Granier en \&quot;dromadaire\&quot; !</name>
    <desc><![CDATA[Pilier ouest du Pinet, traversée au col de Belle Ombres, Arches du \"Dromadaire\", Cuvée des Ours, Granier, Balme à Collomb]]></desc>
  </metadata>
  <trk>
    <name><![CDATA[2015-06-11 Pinet Dromadaire Granier]]></name>
    <trkseg>
      <trkpt lat="45.44158" lon="5.90592">
        <ele>1096</ele>
        <time>2015-06-11T06:12:42Z</time>
      </trkpt>
      <trkpt lat="45.44162" lon="5.90592">
        <ele>1096</ele>
        <time>2015-06-11T06:12:47Z</time>
      </trkpt>
      <trkpt lat="45.44158" lon="5.90578">
        <ele>1104.066333855</ele>
        <time>2015-06-11T06:12:52Z</time>
      </trkpt>
      <trkpt lat="45.44156" lon="5.90576">
        <ele>1104.066333855</ele>
        <time>2015-06-11T06:12:58Z</time>
      </trkpt>
      <trkpt lat="45.44155" lon="5.90577">
        <ele>1104.066333855</ele>
        <time>2015-06-11T06:13:03Z</time>
      </trkpt>
      <trkpt lat="45.44155" lon="5.90577">
        <ele>1104.066333855</ele>
        <time>2015-06-11T06:13:08Z</time>
      </trkpt>
      <trkpt lat="45.44155" lon="5.90577">
        <ele>1104.066333855</ele>
        <time>2015-06-11T06:13:13Z</time>
      </trkpt>
      <trkpt lat="45.44155" lon="5.90577">
        <ele>1104.066333855</ele>
        <time>2015-06-11T06:13:18Z</time>
      </trkpt>
      <trkpt lat="45.44152" lon="5.90579">
        <ele>1104.066333855</ele>
        <time>2015-06-11T06:13:23Z</time>
      </trkpt>
      <trkpt lat="45.44146" lon="5.90579">
        <ele>1114.104810119</ele>
        <time>2015-06-11T06:13:27Z</time>
      </trkpt>
      <trkpt lat="45.44137" lon="5.90583">
        <ele>1114.104810119</ele>
        <time>2015-06-11T06:13:32Z</time>
      </trkpt>
      <trkpt lat="45.44134" lon="5.90583">
        <ele>1121.867732724</ele>
        <time>2015-06-11T06:13:39Z</time>
      </trkpt>
      <trkpt lat="45.44125" lon="5.90591">
        <ele>1126.912654206</ele>
        <time>2015-06-11T06:13:44Z</time>
      </trkpt>
      <trkpt lat="45.44125" lon="5.90592">
        <ele>1126.912654206</ele>
        <time>2015-06-11T06:13:49Z</time>
      </trkpt>
      <trkpt lat="45.44121" lon="5.90597">
        <ele>1126.912654206</ele>
        <time>2015-06-11T06:13:54Z</time>
      </trkpt>
      <trkpt lat="45.44119" lon="5.90597">
        <ele>1126.912654206</ele>
        <time>2015-06-11T06:13:59Z</time>
      </trkpt>
      <trkpt lat="45.44113" lon="5.90604">
        <ele>1132.928349056</ele>
        <time>2015-06-11T06:14:03Z</time>
      </trkpt>
      <trkpt lat="45.44112" lon="5.90606">
        <ele>1132.928349056</ele>
        <time>2015-06-11T06:14:09Z</time>
      </trkpt>
      <trkpt lat="45.44104" lon="5.90616">
        <ele>1137.717888871</ele>
        <time>2015-06-11T06:14:14Z</time>
      </trkpt>
      <trkpt lat="45.44102" lon="5.90621">
        <ele>1137.717888871</ele>
        <time>2015-06-11T06:14:19Z</time>
      </trkpt>
      <trkpt lat="45.44101" lon="5.9063">
        <ele>1142.449984526</ele>
        <time>2015-06-11T06:14:24Z</time>
      </trkpt>
      <trkpt lat="45.44098" lon="5.90635">
        <ele>1142.449984526</ele>
        <time>2015-06-11T06:14:28Z</time>
      </trkpt>
      <trkpt lat="45.44101" lon="5.90641">
        <ele>1146.714663596</ele>
        <time>2015-06-11T06:14:34Z</time>
      </trkpt>
      <trkpt lat="45.44098" lon="5.90644">
        <ele>1146.714663596</ele>
        <time>2015-06-11T06:14:39Z</time>
      </trkpt>
      <trkpt lat="45.44098" lon="5.90641">
        <ele>1146.714663596</ele>
        <time>2015-06-11T06:14:44Z</time>
      </trkpt>
      <trkpt lat="45.441" lon="5.90647">
        <ele>1150.239042367</ele>
        <time>2015-06-11T06:14:49Z</time>
      </trkpt>
      <trkpt lat="45.441" lon="5.90648">
        <ele>1150.239042367</ele>
        <time>2015-06-11T06:14:54Z</time>
      </trkpt>
      <trkpt lat="45.44093" lon="5.90658">
        <ele>1152.671842085</ele>
        <time>2015-06-11T06:14:58Z</time>
      </trkpt>
      <trkpt lat="45.44097" lon="5.90673">
        <ele>1154.743448969</ele>
        <time>2015-06-11T06:15:04Z</time>
      </trkpt>
      <trkpt lat="45.44094" lon="5.90683">
        <ele>1154.743448969</ele>
        <time>2015-06-11T06:15:09Z</time>
      </trkpt>
      <trkpt lat="45.44094" lon="5.90695">
        <ele>1156.499079333</ele>
        <time>2015-06-11T06:15:14Z</time>
      </trkpt>
      <trkpt lat="45.44091" lon="5.90706">
        <ele>1156.499079333</ele>
        <time>2015-06-11T06:15:19Z</time>
      </trkpt>
      <trkpt lat="45.44088" lon="5.90718">
        <ele>1157.343308061</ele>
        <time>2015-06-11T06:15:24Z</time>
      </trkpt>
      <trkpt lat="45.44084" lon="5.90725">
        <ele>1157.343308061</ele>
        <time>2015-06-11T06:15:29Z</time>
      </trkpt>
      <trkpt lat="45.44078" lon="5.90734">
        <ele>1157.91848779</ele>
        <time>2015-06-11T06:15:34Z</time>
      </trkpt>
      <trkpt lat="45.44077" lon="5.9074">
        <ele>1157.91848779</ele>
        <time>2015-06-11T06:15:39Z</time>
      </trkpt>
      <trkpt lat="45.44073" lon="5.90749">
        <ele>1158.151152301</ele>
        <time>2015-06-11T06:15:44Z</time>
      </trkpt>
      <trkpt lat="45.44072" lon="5.90751">
        <ele>1158.151152301</ele>
        <time>2015-06-11T06:15:49Z</time>
      </trkpt>
      <trkpt lat="45.4407" lon="5.90753">
        <ele>1158.151152301</ele>
        <time>2015-06-11T06:15:54Z</time>
      </trkpt>
      <trkpt lat="45.4407" lon="5.90753">
        <ele>1158.151152301</ele>
        <time>2015-06-11T06:15:59Z</time>
      </trkpt>
      <trkpt lat="45.44072" lon="5.9076">
        <ele>1158.138656606</ele>
        <time>2015-06-11T06:16:04Z</time>
      </trkpt>
      <trkpt lat="45.44075" lon="5.90768">
        <ele>1158.138656606</ele>
        <time>2015-06-11T06:16:09Z</time>
      </trkpt>
      <trkpt lat="45.44077" lon="5.90777">
        <ele>1158.289234986</ele>
        <time>2015-06-11T06:16:14Z</time>
      </trkpt>
      <trkpt lat="45.44079" lon="5.90788">
        <ele>1158.289234986</ele>
        <time>2015-06-11T06:16:19Z</time>
      </trkpt>
      <trkpt lat="45.44085" lon="5.90797">
        <ele>1158.146045411</ele>
        <time>2015-06-11T06:16:24Z</time>
      </trkpt>
      <trkpt lat="45.44088" lon="5.90803">
        <ele>1158.146045411</ele>
        <time>2015-06-11T06:16:29Z</time>
      </trkpt>
      <trkpt lat="45.44092" lon="5.90809">
        <ele>1157.778822495</ele>
        <time>2015-06-11T06:16:33Z</time>
      </trkpt>
      <trkpt lat="45.44094" lon="5.9082">
        <ele>1157.778822495</ele>
        <time>2015-06-11T06:16:38Z</time>
      </trkpt>
      <trkpt lat="45.44096" lon="5.90827">
        <ele>1157.399734481</ele>
        <time>2015-06-11T06:16:44Z</time>
      </trkpt>
      <trkpt lat="45.44098" lon="5.90837">
        <ele>1157.399734481</ele>
        <time>2015-06-11T06:16:49Z</time>
      </trkpt>
      <trkpt lat="45.44099" lon="5.90845">
        <ele>1157.650556107</ele>
        <time>2015-06-11T06:16:54Z</time>
      </trkpt>
      <trkpt lat="45.44096" lon="5.90855">
        <ele>1157.650556107</ele>
        <time>2015-06-11T06:16:59Z</time>
      </trkpt>
      <trkpt lat="45.44091" lon="5.90861">
        <ele>1158.168645853</ele>
        <time>2015-06-11T06:17:04Z</time>
      </trkpt>
      <trkpt lat="45.44091" lon="5.90868">
        <ele>1158.168645853</ele>
        <time>2015-06-11T06:17:09Z</time>
      </trkpt>
      <trkpt lat="45.44087" lon="5.90876">
        <ele>1158.183059057</ele>
        <time>2015-06-11T06:17:14Z</time>
      </trkpt>
      <trkpt lat="45.44083" lon="5.90883">
        <ele>1158.183059057</ele>
        <time>2015-06-11T06:17:19Z</time>
      </trkpt>
      <trkpt lat="45.44083" lon="5.90891">
        <ele>1158.051769616</ele>
        <time>2015-06-11T06:17:24Z</time>
      </trkpt>
      <trkpt lat="45.4408" lon="5.90899">
        <ele>1158.051769616</ele>
        <time>2015-06-11T06:17:29Z</time>
      </trkpt>
      <trkpt lat="45.44078" lon="5.90908">
        <ele>1157.211387714</ele>
        <time>2015-06-11T06:17:34Z</time>
      </trkpt>
      <trkpt lat="45.44078" lon="5.90915">
        <ele>1157.211387714</ele>
        <time>2015-06-11T06:17:39Z</time>
      </trkpt>
      <trkpt lat="45.44074" lon="5.90923">
        <ele>1156.314265632</ele>
        <time>2015-06-11T06:17:44Z</time>
      </trkpt>
      <trkpt lat="45.44073" lon="5.90929">
        <ele>1156.314265632</ele>
        <time>2015-06-11T06:17:49Z</time>
      </trkpt>
      <trkpt lat="45.4407" lon="5.90934">
        <ele>1155.650941225</ele>
        <time>2015-06-11T06:17:54Z</time>
      </trkpt>
      <trkpt lat="45.44061" lon="5.90939">
        <ele>1155.650941225</ele>
        <time>2015-06-11T06:17:59Z</time>
      </trkpt>
      <trkpt lat="45.44054" lon="5.9094">
        <ele>1155.479720611</ele>
        <time>2015-06-11T06:18:04Z</time>
      </trkpt>
      <trkpt lat="45.44046" lon="5.90943">
        <ele>1155.479720611</ele>
        <time>2015-06-11T06:18:09Z</time>
      </trkpt>
      <trkpt lat="45.44036" lon="5.90948">
        <ele>1155.332855024</ele>
        <time>2015-06-11T06:18:14Z</time>
      </trkpt>
      <trkpt lat="45.44029" lon="5.90943">
        <ele>1155.332855024</ele>
        <time>2015-06-11T06:18:19Z</time>
      </trkpt>
      <trkpt lat="45.44024" lon="5.90936">
        <ele>1155.06671044</ele>
        <time>2015-06-11T06:18:24Z</time>
      </trkpt>
      <trkpt lat="45.44014" lon="5.90942">
        <ele>1154.689291691</ele>
        <time>2015-06-11T06:18:29Z</time>
      </trkpt>
      <trkpt lat="45.44005" lon="5.9094">
        <ele>1154.346834872</ele>
        <time>2015-06-11T06:18:34Z</time>
      </trkpt>
      <trkpt lat="45.44004" lon="5.9093">
        <ele>1154.346834872</ele>
        <time>2015-06-11T06:18:39Z</time>
      </trkpt>
      <trkpt lat="45.44003" lon="5.90926">
        <ele>1154.175407839</ele>
        <time>2015-06-11T06:18:43Z</time>
      </trkpt>
      <trkpt lat="45.43995" lon="5.90932">
        <ele>1154.175407839</ele>
        <time>2015-06-11T06:18:48Z</time>
      </trkpt>
      <trkpt lat="45.43993" lon="5.90925">
        <ele>1154.164109287</ele>
        <time>2015-06-11T06:18:52Z</time>
      </trkpt>
      <trkpt lat="45.43989" lon="5.90925">
        <ele>1154.164109287</ele>
        <time>2015-06-11T06:18:57Z</time>
      </trkpt>
      <trkpt lat="45.43983" lon="5.90927">
        <ele>1154.30436597</ele>
        <time>2015-06-11T06:19:04Z</time>
      </trkpt>
      <trkpt lat="45.43979" lon="5.90933">
        <ele>1154.30436597</ele>
        <time>2015-06-11T06:19:08Z</time>
      </trkpt>
      <trkpt lat="45.43973" lon="5.90934">
        <ele>1154.729623252</ele>
        <time>2015-06-11T06:19:13Z</time>
      </trkpt>
      <trkpt lat="45.43968" lon="5.9094">
        <ele>1154.729623252</ele>
        <time>2015-06-11T06:19:18Z</time>
      </trkpt>
      <trkpt lat="45.4396" lon="5.90939">
        <ele>1155.285027155</ele>
        <time>2015-06-11T06:19:23Z</time>
      </trkpt>
      <trkpt lat="45.43955" lon="5.90941">
        <ele>1155.285027155</ele>
        <time>2015-06-11T06:19:28Z</time>
      </trkpt>
      <trkpt lat="45.43951" lon="5.9094">
        <ele>1155.285027155</ele>
        <time>2015-06-11T06:19:32Z</time>
      </trkpt>
      <trkpt lat="45.43941" lon="5.90939">
        <ele>1155.399244431</ele>
        <time>2015-06-11T06:19:38Z</time>
      </trkpt>
      <trkpt lat="45.43938" lon="5.90936">
        <ele>1155.399244431</ele>
        <time>2015-06-11T06:19:43Z</time>
      </trkpt>
      <trkpt lat="45.43929" lon="5.90933">
        <ele>1155.530586798</ele>
        <time>2015-06-11T06:19:48Z</time>
      </trkpt>
      <trkpt lat="45.43926" lon="5.90933">
        <ele>1155.530586798</ele>
        <time>2015-06-11T06:19:53Z</time>
      </trkpt>
      <trkpt lat="45.43922" lon="5.90925">
        <ele>1155.539908845</ele>
        <time>2015-06-11T06:19:58Z</time>
      </trkpt>
      <trkpt lat="45.4392" lon="5.90916">
        <ele>1155.539908845</ele>
        <time>2015-06-11T06:20:03Z</time>
      </trkpt>
      <trkpt lat="45.43915" lon="5.90915">
        <ele>1155.729873265</ele>
        <time>2015-06-11T06:20:09Z</time>
      </trkpt>
      <trkpt lat="45.43914" lon="5.9091">
        <ele>1155.729873265</ele>
        <time>2015-06-11T06:20:13Z</time>
      </trkpt>
      <trkpt lat="45.43909" lon="5.90906">
        <ele>1156.533161406</ele>
        <time>2015-06-11T06:20:18Z</time>
      </trkpt>
      <trkpt lat="45.43905" lon="5.90901">
        <ele>1156.533161406</ele>
        <time>2015-06-11T06:20:23Z</time>
      </trkpt>
      <trkpt lat="45.43894" lon="5.909">
        <ele>1158.064118853</ele>
        <time>2015-06-11T06:20:28Z</time>
      </trkpt>
      <trkpt lat="45.4389" lon="5.90886">
        <ele>1159.83685137</ele>
        <time>2015-06-11T06:20:33Z</time>
      </trkpt>
      <trkpt lat="45.43891" lon="5.90874">
        <ele>1159.83685137</ele>
        <time>2015-06-11T06:20:38Z</time>
      </trkpt>
      <trkpt lat="45.43892" lon="5.90861">
        <ele>1161.093621348</ele>
        <time>2015-06-11T06:20:43Z</time>
      </trkpt>
      <trkpt lat="45.4389" lon="5.90849">
        <ele>1161.093621348</ele>
        <time>2015-06-11T06:20:48Z</time>
      </trkpt>
      <trkpt lat="45.4389" lon="5.90839">
        <ele>1162.314611352</ele>
        <time>2015-06-11T06:20:53Z</time>
      </trkpt>
      <trkpt lat="45.43886" lon="5.90829">
        <ele>1162.314611352</ele>
        <time>2015-06-11T06:20:58Z</time>
      </trkpt>
      <trkpt lat="45.43888" lon="5.90818">
        <ele>1163.203793243</ele>
        <time>2015-06-11T06:21:03Z</time>
      </trkpt>
      <trkpt lat="45.43889" lon="5.90809">
        <ele>1163.203793243</ele>
        <time>2015-06-11T06:21:08Z</time>
      </trkpt>
      <trkpt lat="45.43884" lon="5.90801">
        <ele>1164.235812046</ele>
        <time>2015-06-11T06:21:13Z</time>
      </trkpt>
      <trkpt lat="45.43885" lon="5.90793">
        <ele>1164.235812046</ele>
        <time>2015-06-11T06:21:18Z</time>
      </trkpt>
      <trkpt lat="45.43884" lon="5.90786">
        <ele>1164.950906273</ele>
        <time>2015-06-11T06:21:23Z</time>
      </trkpt>
      <trkpt lat="45.43883" lon="5.90778">
        <ele>1164.950906273</ele>
        <time>2015-06-11T06:21:28Z</time>
      </trkpt>
      <trkpt lat="45.4388" lon="5.90771">
        <ele>1165.524998797</ele>
        <time>2015-06-11T06:21:33Z</time>
      </trkpt>
      <trkpt lat="45.43878" lon="5.90761">
        <ele>1165.524998797</ele>
        <time>2015-06-11T06:21:38Z</time>
      </trkpt>
      <trkpt lat="45.43879" lon="5.90753">
        <ele>1165.971502527</ele>
        <time>2015-06-11T06:21:43Z</time>
      </trkpt>
      <trkpt lat="45.43878" lon="5.90744">
        <ele>1165.971502527</ele>
        <time>2015-06-11T06:21:48Z</time>
      </trkpt>
      <trkpt lat="45.43878" lon="5.90738">
        <ele>1166.3033967</ele>
        <time>2015-06-11T06:21:53Z</time>
      </trkpt>
      <trkpt lat="45.43879" lon="5.9073">
        <ele>1166.3033967</ele>
        <time>2015-06-11T06:21:58Z</time>
      </trkpt>
      <trkpt lat="45.4388" lon="5.90721">
        <ele>1166.98599711</ele>
        <time>2015-06-11T06:22:03Z</time>
      </trkpt>
      <trkpt lat="45.43882" lon="5.90713">
        <ele>1166.98599711</ele>
        <time>2015-06-11T06:22:08Z</time>
      </trkpt>
      <trkpt lat="45.43889" lon="5.90701">
        <ele>1167.239838851</ele>
        <time>2015-06-11T06:22:13Z</time>
      </trkpt>
      <trkpt lat="45.43894" lon="5.90692">
        <ele>1167.239838851</ele>
        <time>2015-06-11T06:22:18Z</time>
      </trkpt>
      <trkpt lat="45.439" lon="5.90681">
        <ele>1167.705085342</ele>
        <time>2015-06-11T06:22:23Z</time>
      </trkpt>
      <trkpt lat="45.43907" lon="5.90673">
        <ele>1167.705085342</ele>
        <time>2015-06-11T06:22:28Z</time>
      </trkpt>
      <trkpt lat="45.43908" lon="5.90664">
        <ele>1168.96959656</ele>
        <time>2015-06-11T06:22:32Z</time>
      </trkpt>
      <trkpt lat="45.43917" lon="5.90662">
        <ele>1168.96959656</ele>
        <time>2015-06-11T06:22:39Z</time>
      </trkpt>
      <trkpt lat="45.43919" lon="5.90659">
        <ele>1170.66827205</ele>
        <time>2015-06-11T06:22:43Z</time>
      </trkpt>
      <trkpt lat="45.43916" lon="5.90649">
        <ele>1170.66827205</ele>
        <time>2015-06-11T06:22:48Z</time>
      </trkpt>
      <trkpt lat="45.43915" lon="5.90643">
        <ele>1172.314241924</ele>
        <time>2015-06-11T06:22:53Z</time>
      </trkpt>
      <trkpt lat="45.43914" lon="5.90636">
        <ele>1172.314241924</ele>
        <time>2015-06-11T06:22:58Z</time>
      </trkpt>
      <trkpt lat="45.43915" lon="5.90628">
        <ele>1173.61094752</ele>
        <time>2015-06-11T06:23:03Z</time>
      </trkpt>
      <trkpt lat="45.43913" lon="5.90615">
        <ele>1174.437217903</ele>
        <time>2015-06-11T06:23:08Z</time>
      </trkpt>
      <trkpt lat="45.43912" lon="5.90608">
        <ele>1174.437217903</ele>
        <time>2015-06-11T06:23:13Z</time>
      </trkpt>
      <trkpt lat="45.43912" lon="5.90602">
        <ele>1174.087879432</ele>
        <time>2015-06-11T06:23:18Z</time>
      </trkpt>
      <trkpt lat="45.43911" lon="5.90592">
        <ele>1174.087879432</ele>
        <time>2015-06-11T06:23:23Z</time>
      </trkpt>
      <trkpt lat="45.43912" lon="5.9058">
        <ele>1173.703518153</ele>
        <time>2015-06-11T06:23:28Z</time>
      </trkpt>
      <trkpt lat="45.43911" lon="5.90568">
        <ele>1173.703518153</ele>
        <time>2015-06-11T06:23:33Z</time>
      </trkpt>
      <trkpt lat="45.43908" lon="5.90565">
        <ele>1173.735849019</ele>
        <time>2015-06-11T06:23:38Z</time>
      </trkpt>
      <trkpt lat="45.43907" lon="5.90556">
        <ele>1173.735849019</ele>
        <time>2015-06-11T06:23:43Z</time>
      </trkpt>
      <trkpt lat="45.43909" lon="5.90546">
        <ele>1174.449478115</ele>
        <time>2015-06-11T06:23:48Z</time>
      </trkpt>
      <trkpt lat="45.43907" lon="5.90537">
        <ele>1174.449478115</ele>
        <time>2015-06-11T06:23:53Z</time>
      </trkpt>
      <trkpt lat="45.43908" lon="5.90526">
        <ele>1175.347615409</ele>
        <time>2015-06-11T06:23:58Z</time>
      </trkpt>
      <trkpt lat="45.43907" lon="5.90517">
        <ele>1175.347615409</ele>
        <time>2015-06-11T06:24:03Z</time>
      </trkpt>
      <trkpt lat="45.43907" lon="5.90507">
        <ele>1175.97447751</ele>
        <time>2015-06-11T06:24:08Z</time>
      </trkpt>
      <trkpt lat="45.43907" lon="5.90495">
        <ele>1175.97447751</ele>
        <time>2015-06-11T06:24:13Z</time>
      </trkpt>
      <trkpt lat="45.43907" lon="5.90485">
        <ele>1177.087060571</ele>
        <time>2015-06-11T06:24:18Z</time>
      </trkpt>
      <trkpt lat="45.43904" lon="5.9048">
        <ele>1177.087060571</ele>
        <time>2015-06-11T06:24:23Z</time>
      </trkpt>
      <trkpt lat="45.43903" lon="5.90473">
        <ele>1177.91392473</ele>
        <time>2015-06-11T06:24:28Z</time>
      </trkpt>
      <trkpt lat="45.43904" lon="5.90464">
        <ele>1177.91392473</ele>
        <time>2015-06-11T06:24:33Z</time>
      </trkpt>
      <trkpt lat="45.43905" lon="5.90453">
        <ele>1178.916977815</ele>
        <time>2015-06-11T06:24:38Z</time>
      </trkpt>
      <trkpt lat="45.43905" lon="5.90444">
        <ele>1178.916977815</ele>
        <time>2015-06-11T06:24:43Z</time>
      </trkpt>
      <trkpt lat="45.43903" lon="5.90432">
        <ele>1180.082336326</ele>
        <time>2015-06-11T06:24:48Z</time>
      </trkpt>
      <trkpt lat="45.43901" lon="5.90424">
        <ele>1180.082336326</ele>
        <time>2015-06-11T06:24:53Z</time>
      </trkpt>
      <trkpt lat="45.43901" lon="5.90414">
        <ele>1181.396853457</ele>
        <time>2015-06-11T06:24:58Z</time>
      </trkpt>
      <trkpt lat="45.43898" lon="5.90404">
        <ele>1181.396853457</ele>
        <time>2015-06-11T06:25:03Z</time>
      </trkpt>
      <trkpt lat="45.43898" lon="5.90396">
        <ele>1182.702656134</ele>
        <time>2015-06-11T06:25:08Z</time>
      </trkpt>
      <trkpt lat="45.43897" lon="5.90386">
        <ele>1182.702656134</ele>
        <time>2015-06-11T06:25:13Z</time>
      </trkpt>
      <trkpt lat="45.43895" lon="5.90382">
        <ele>1184.144855494</ele>
        <time>2015-06-11T06:25:18Z</time>
      </trkpt>
      <trkpt lat="45.43894" lon="5.90382">
        <ele>1184.144855494</ele>
        <time>2015-06-11T06:25:23Z</time>
      </trkpt>
      <trkpt lat="45.43895" lon="5.90383">
        <ele>1184.144855494</ele>
        <time>2015-06-11T06:25:28Z</time>
      </trkpt>
      <trkpt lat="45.43897" lon="5.90382">
        <ele>1184.144855494</ele>
        <time>2015-06-11T06:25:33Z</time>
      </trkpt>
      <trkpt lat="45.43894" lon="5.90382">
        <ele>1184.144855494</ele>
        <time>2015-06-11T06:25:38Z</time>
      </trkpt>
      <trkpt lat="45.43894" lon="5.90383">
        <ele>1184.144855494</ele>
        <time>2015-06-11T06:25:43Z</time>
      </trkpt>
      <trkpt lat="45.43894" lon="5.90383">
        <ele>1184.144855494</ele>
        <time>2015-06-11T06:25:47Z</time>
      </trkpt>
      <trkpt lat="45.43894" lon="5.90383">
        <ele>1184.144855494</ele>
        <time>2015-06-11T06:25:53Z</time>
      </trkpt>
      <trkpt lat="45.43894" lon="5.90383">
        <ele>1184.144855494</ele>
        <time>2015-06-11T06:25:58Z</time>
      </trkpt>
      <trkpt lat="45.43894" lon="5.90383">
        <ele>1184.144855494</ele>
        <time>2015-06-11T06:26:03Z</time>
      </trkpt>
      <trkpt lat="45.43894" lon="5.90383">
        <ele>1184.144855494</ele>
        <time>2015-06-11T06:26:08Z</time>
      </trkpt>
      <trkpt lat="45.43894" lon="5.90383">
        <ele>1184.144855494</ele>
        <time>2015-06-11T06:26:13Z</time>
      </trkpt>
      <trkpt lat="45.43894" lon="5.90383">
        <ele>1184.144855494</ele>
        <time>2015-06-11T06:26:18Z</time>
      </trkpt>
      <trkpt lat="45.43894" lon="5.90383">
        <ele>1184.144855494</ele>
        <time>2015-06-11T06:26:23Z</time>
      </trkpt>
      <trkpt lat="45.43894" lon="5.90383">
        <ele>1184.144855494</ele>
        <time>2015-06-11T06:26:28Z</time>
      </trkpt>
      <trkpt lat="45.43894" lon="5.90383">
        <ele>1184.144855494</ele>
        <time>2015-06-11T06:26:33Z</time>
      </trkpt>
      <trkpt lat="45.43894" lon="5.90383">
        <ele>1184.144855494</ele>
        <time>2015-06-11T06:26:38Z</time>
      </trkpt>
      <trkpt lat="45.43894" lon="5.90383">
        <ele>1184.144855494</ele>
        <time>2015-06-11T06:26:43Z</time>
      </trkpt>
      <trkpt lat="45.43894" lon="5.90383">
        <ele>1184.144855494</ele>
        <time>2015-06-11T06:26:48Z</time>
      </trkpt>
      <trkpt lat="45.43894" lon="5.90383">
        <ele>1184.144855494</ele>
        <time>2015-06-11T06:26:53Z</time>
      </trkpt>
      <trkpt lat="45.43894" lon="5.90383">
        <ele>1184.144855494</ele>
        <time>2015-06-11T06:26:58Z</time>
      </trkpt>
      <trkpt lat="45.43894" lon="5.90383">
        <ele>1184.144855494</ele>
        <time>2015-06-11T06:27:03Z</time>
      </trkpt>
      <trkpt lat="45.43894" lon="5.90383">
        <ele>1184.144855494</ele>
        <time>2015-06-11T06:27:08Z</time>
      </trkpt>
      <trkpt lat="45.43894" lon="5.90383">
        <ele>1184.144855494</ele>
        <time>2015-06-11T06:27:13Z</time>
      </trkpt>
      <trkpt lat="45.43894" lon="5.90383">
        <ele>1184.144855494</ele>
        <time>2015-06-11T06:27:18Z</time>
      </trkpt>
      <trkpt lat="45.43894" lon="5.90383">
        <ele>1184.144855494</ele>
        <time>2015-06-11T06:27:23Z</time>
      </trkpt>
      <trkpt lat="45.43894" lon="5.90383">
        <ele>1184.144855494</ele>
        <time>2015-06-11T06:27:28Z</time>
      </trkpt>
      <trkpt lat="45.43894" lon="5.90383">
        <ele>1184.144855494</ele>
        <time>2015-06-11T06:27:33Z</time>
      </trkpt>
      <trkpt lat="45.43894" lon="5.90382">
        <ele>1184.144855494</ele>
        <time>2015-06-11T06:27:38Z</time>
      </trkpt>
      <trkpt lat="45.43894" lon="5.90382">
        <ele>1184.144855494</ele>
        <time>2015-06-11T06:27:43Z</time>
      </trkpt>
      <trkpt lat="45.43893" lon="5.90372">
        <ele>1185.711729843</ele>
        <time>2015-06-11T06:27:48Z</time>
      </trkpt>
      <trkpt lat="45.43893" lon="5.90362">
        <ele>1185.711729843</ele>
        <time>2015-06-11T06:27:53Z</time>
      </trkpt>
      <trkpt lat="45.43893" lon="5.90353">
        <ele>1187.537043059</ele>
        <time>2015-06-11T06:27:58Z</time>
      </trkpt>
      <trkpt lat="45.43896" lon="5.90341">
        <ele>1187.537043059</ele>
        <time>2015-06-11T06:28:03Z</time>
      </trkpt>
      <trkpt lat="45.4389" lon="5.90333">
        <ele>1189.743554064</ele>
        <time>2015-06-11T06:28:08Z</time>
      </trkpt>
      <trkpt lat="45.43885" lon="5.90326">
        <ele>1189.743554064</ele>
        <time>2015-06-11T06:28:13Z</time>
      </trkpt>
      <trkpt lat="45.43882" lon="5.90322">
        <ele>1191.431365228</ele>
        <time>2015-06-11T06:28:18Z</time>
      </trkpt>
      <trkpt lat="45.43878" lon="5.90317">
        <ele>1191.431365228</ele>
        <time>2015-06-11T06:28:23Z</time>
      </trkpt>
      <trkpt lat="45.43878" lon="5.90318">
        <ele>1191.431365228</ele>
        <time>2015-06-11T06:28:28Z</time>
      </trkpt>
      <trkpt lat="45.43874" lon="5.90323">
        <ele>1192.782292599</ele>
        <time>2015-06-11T06:28:32Z</time>
      </trkpt>
      <trkpt lat="45.43876" lon="5.90329">
        <ele>1192.782292599</ele>
        <time>2015-06-11T06:28:37Z</time>
      </trkpt>
      <trkpt lat="45.43873" lon="5.90334">
        <ele>1193.820604682</ele>
        <time>2015-06-11T06:28:44Z</time>
      </trkpt>
      <trkpt lat="45.43866" lon="5.90335">
        <ele>1193.820604682</ele>
        <time>2015-06-11T06:28:48Z</time>
      </trkpt>
      <trkpt lat="45.43862" lon="5.90338">
        <ele>1195.579946359</ele>
        <time>2015-06-11T06:28:54Z</time>
      </trkpt>
      <trkpt lat="45.43856" lon="5.90338">
        <ele>1195.579946359</ele>
        <time>2015-06-11T06:28:59Z</time>
      </trkpt>
      <trkpt lat="45.4385" lon="5.90342">
        <ele>1196.561261133</ele>
        <time>2015-06-11T06:29:04Z</time>
      </trkpt>
      <trkpt lat="45.43845" lon="5.90339">
        <ele>1196.561261133</ele>
        <time>2015-06-11T06:29:08Z</time>
      </trkpt>
      <trkpt lat="45.43839" lon="5.90342">
        <ele>1197.543624068</ele>
        <time>2015-06-11T06:29:12Z</time>
      </trkpt>
      <trkpt lat="45.43832" lon="5.9034">
        <ele>1197.543624068</ele>
        <time>2015-06-11T06:29:17Z</time>
      </trkpt>
      <trkpt lat="45.43829" lon="5.90331">
        <ele>1198.382607525</ele>
        <time>2015-06-11T06:29:23Z</time>
      </trkpt>
      <trkpt lat="45.43824" lon="5.90328">
        <ele>1198.382607525</ele>
        <time>2015-06-11T06:29:29Z</time>
      </trkpt>
      <trkpt lat="45.43816" lon="5.90322">
        <ele>1199.377506667</ele>
        <time>2015-06-11T06:29:34Z</time>
      </trkpt>
      <trkpt lat="45.43809" lon="5.90314">
        <ele>1199.377506667</ele>
        <time>2015-06-11T06:29:39Z</time>
      </trkpt>
      <trkpt lat="45.43809" lon="5.9031">
        <ele>1200.084113738</ele>
        <time>2015-06-11T06:29:43Z</time>
      </trkpt>
      <trkpt lat="45.43808" lon="5.90303">
        <ele>1200.084113738</ele>
        <time>2015-06-11T06:29:49Z</time>
      </trkpt>
      <trkpt lat="45.43806" lon="5.90302">
        <ele>1200.084113738</ele>
        <time>2015-06-11T06:29:54Z</time>
      </trkpt>
      <trkpt lat="45.43802" lon="5.90292">
        <ele>1201.101068042</ele>
        <time>2015-06-11T06:29:59Z</time>
      </trkpt>
      <trkpt lat="45.43806" lon="5.90286">
        <ele>1201.101068042</ele>
        <time>2015-06-11T06:30:03Z</time>
      </trkpt>
      <trkpt lat="45.43806" lon="5.90282">
        <ele>1201.101068042</ele>
        <time>2015-06-11T06:30:07Z</time>
      </trkpt>
      <trkpt lat="45.43805" lon="5.90279">
        <ele>1203.270411186</ele>
        <time>2015-06-11T06:30:12Z</time>
      </trkpt>
      <trkpt lat="45.43805" lon="5.90279">
        <ele>1203.270411186</ele>
        <time>2015-06-11T06:30:17Z</time>
      </trkpt>
      <trkpt lat="45.43805" lon="5.90278">
        <ele>1203.270411186</ele>
        <time>2015-06-11T06:30:22Z</time>
      </trkpt>
      <trkpt lat="45.43805" lon="5.90282">
        <ele>1203.270411186</ele>
        <time>2015-06-11T06:30:28Z</time>
      </trkpt>
      <trkpt lat="45.43803" lon="5.90275">
        <ele>1203.270411186</ele>
        <time>2015-06-11T06:30:34Z</time>
      </trkpt>
      <trkpt lat="45.43809" lon="5.90262">
        <ele>1205.927368183</ele>
        <time>2015-06-11T06:30:39Z</time>
      </trkpt>
      <trkpt lat="45.43807" lon="5.90247">
        <ele>1208.166347424</ele>
        <time>2015-06-11T06:30:44Z</time>
      </trkpt>
      <trkpt lat="45.43815" lon="5.9024">
        <ele>1210.591268776</ele>
        <time>2015-06-11T06:30:49Z</time>
      </trkpt>
      <trkpt lat="45.43823" lon="5.90235">
        <ele>1210.591268776</ele>
        <time>2015-06-11T06:30:54Z</time>
      </trkpt>
      <trkpt lat="45.43828" lon="5.90231">
        <ele>1212.896091134</ele>
        <time>2015-06-11T06:30:58Z</time>
      </trkpt>
      <trkpt lat="45.4383" lon="5.90222">
        <ele>1212.896091134</ele>
        <time>2015-06-11T06:31:04Z</time>
      </trkpt>
      <trkpt lat="45.43834" lon="5.90216">
        <ele>1214.797588559</ele>
        <time>2015-06-11T06:31:09Z</time>
      </trkpt>
      <trkpt lat="45.43836" lon="5.90209">
        <ele>1214.797588559</ele>
        <time>2015-06-11T06:31:14Z</time>
      </trkpt>
      <trkpt lat="45.43832" lon="5.90204">
        <ele>1216.17868968</ele>
        <time>2015-06-11T06:31:19Z</time>
      </trkpt>
      <trkpt lat="45.43822" lon="5.90202">
        <ele>1217.220865632</ele>
        <time>2015-06-11T06:31:24Z</time>
      </trkpt>
      <trkpt lat="45.43816" lon="5.90196">
        <ele>1217.220865632</ele>
        <time>2015-06-11T06:31:29Z</time>
      </trkpt>
      <trkpt lat="45.43813" lon="5.90189">
        <ele>1217.804845048</ele>
        <time>2015-06-11T06:31:34Z</time>
      </trkpt>
      <trkpt lat="45.43813" lon="5.9018">
        <ele>1217.804845048</ele>
        <time>2015-06-11T06:31:39Z</time>
      </trkpt>
      <trkpt lat="45.43818" lon="5.90173">
        <ele>1217.821457301</ele>
        <time>2015-06-11T06:31:43Z</time>
      </trkpt>
      <trkpt lat="45.43817" lon="5.90163">
        <ele>1217.821457301</ele>
        <time>2015-06-11T06:31:49Z</time>
      </trkpt>
      <trkpt lat="45.43816" lon="5.90152">
        <ele>1217.892386043</ele>
        <time>2015-06-11T06:31:54Z</time>
      </trkpt>
      <trkpt lat="45.43818" lon="5.90143">
        <ele>1217.892386043</ele>
        <time>2015-06-11T06:31:59Z</time>
      </trkpt>
      <trkpt lat="45.43812" lon="5.90134">
        <ele>1218.160838661</ele>
        <time>2015-06-11T06:32:04Z</time>
      </trkpt>
      <trkpt lat="45.43812" lon="5.90127">
        <ele>1218.160838661</ele>
        <time>2015-06-11T06:32:09Z</time>
      </trkpt>
      <trkpt lat="45.43811" lon="5.90119">
        <ele>1218.614720285</ele>
        <time>2015-06-11T06:32:14Z</time>
      </trkpt>
      <trkpt lat="45.43812" lon="5.90111">
        <ele>1218.614720285</ele>
        <time>2015-06-11T06:32:19Z</time>
      </trkpt>
      <trkpt lat="45.4381" lon="5.90102">
        <ele>1219.386550766</ele>
        <time>2015-06-11T06:32:24Z</time>
      </trkpt>
      <trkpt lat="45.43809" lon="5.90097">
        <ele>1219.386550766</ele>
        <time>2015-06-11T06:32:27Z</time>
      </trkpt>
      <trkpt lat="45.43808" lon="5.90089">
        <ele>1220.165477808</ele>
        <time>2015-06-11T06:32:33Z</time>
      </trkpt>
      <trkpt lat="45.4381" lon="5.90079">
        <ele>1220.165477808</ele>
        <time>2015-06-11T06:32:39Z</time>
      </trkpt>
      <trkpt lat="45.43807" lon="5.90072">
        <ele>1221.528937249</ele>
        <time>2015-06-11T06:32:44Z</time>
      </trkpt>
      <trkpt lat="45.43806" lon="5.90063">
        <ele>1221.528937249</ele>
        <time>2015-06-11T06:32:49Z</time>
      </trkpt>
      <trkpt lat="45.438" lon="5.90058">
        <ele>1222.856316589</ele>
        <time>2015-06-11T06:32:54Z</time>
      </trkpt>
      <trkpt lat="45.43797" lon="5.90051">
        <ele>1222.856316589</ele>
        <time>2015-06-11T06:32:59Z</time>
      </trkpt>
      <trkpt lat="45.43794" lon="5.90044">
        <ele>1223.572777023</ele>
        <time>2015-06-11T06:33:04Z</time>
      </trkpt>
      <trkpt lat="45.43791" lon="5.90034">
        <ele>1223.572777023</ele>
        <time>2015-06-11T06:33:09Z</time>
      </trkpt>
      <trkpt lat="45.43789" lon="5.90023">
        <ele>1224.734051337</ele>
        <time>2015-06-11T06:33:14Z</time>
      </trkpt>
      <trkpt lat="45.43788" lon="5.90014">
        <ele>1224.734051337</ele>
        <time>2015-06-11T06:33:19Z</time>
      </trkpt>
      <trkpt lat="45.43786" lon="5.90007">
        <ele>1225.874639071</ele>
        <time>2015-06-11T06:33:24Z</time>
      </trkpt>
      <trkpt lat="45.43784" lon="5.89998">
        <ele>1225.874639071</ele>
        <time>2015-06-11T06:33:29Z</time>
      </trkpt>
      <trkpt lat="45.43779" lon="5.89988">
        <ele>1228.00555399</ele>
        <time>2015-06-11T06:33:34Z</time>
      </trkpt>
      <trkpt lat="45.43777" lon="5.89982">
        <ele>1228.00555399</ele>
        <time>2015-06-11T06:33:37Z</time>
      </trkpt>
      <trkpt lat="45.43776" lon="5.89978">
        <ele>1228.00555399</ele>
        <time>2015-06-11T06:33:43Z</time>
      </trkpt>
      <trkpt lat="45.43777" lon="5.89978">
        <ele>1228.00555399</ele>
        <time>2015-06-11T06:33:49Z</time>
      </trkpt>
      <trkpt lat="45.43772" lon="5.89987">
        <ele>1230.618445311</ele>
        <time>2015-06-11T06:33:54Z</time>
      </trkpt>
      <trkpt lat="45.43772" lon="5.89995">
        <ele>1230.618445311</ele>
        <time>2015-06-11T06:33:59Z</time>
      </trkpt>
      <trkpt lat="45.43777" lon="5.90003">
        <ele>1233.385272199</ele>
        <time>2015-06-11T06:34:04Z</time>
      </trkpt>
      <trkpt lat="45.43782" lon="5.9001">
        <ele>1233.385272199</ele>
        <time>2015-06-11T06:34:09Z</time>
      </trkpt>
      <trkpt lat="45.43783" lon="5.90019">
        <ele>1236.29014464</ele>
        <time>2015-06-11T06:34:13Z</time>
      </trkpt>
      <trkpt lat="45.43783" lon="5.90028">
        <ele>1236.29014464</ele>
        <time>2015-06-11T06:34:19Z</time>
      </trkpt>
      <trkpt lat="45.43778" lon="5.90037">
        <ele>1239.029614378</ele>
        <time>2015-06-11T06:34:24Z</time>
      </trkpt>
      <trkpt lat="45.43778" lon="5.90045">
        <ele>1239.029614378</ele>
        <time>2015-06-11T06:34:28Z</time>
      </trkpt>
      <trkpt lat="45.43777" lon="5.90052">
        <ele>1241.323098286</ele>
        <time>2015-06-11T06:34:34Z</time>
      </trkpt>
      <trkpt lat="45.43774" lon="5.90055">
        <ele>1241.323098286</ele>
        <time>2015-06-11T06:34:39Z</time>
      </trkpt>
      <trkpt lat="45.43765" lon="5.90056">
        <ele>1243.632853161</ele>
        <time>2015-06-11T06:34:44Z</time>
      </trkpt>
      <trkpt lat="45.43759" lon="5.9006">
        <ele>1243.632853161</ele>
        <time>2015-06-11T06:34:49Z</time>
      </trkpt>
      <trkpt lat="45.43753" lon="5.90064">
        <ele>1246.098764918</ele>
        <time>2015-06-11T06:34:54Z</time>
      </trkpt>
      <trkpt lat="45.43748" lon="5.90071">
        <ele>1246.098764918</ele>
        <time>2015-06-11T06:34:59Z</time>
      </trkpt>
      <trkpt lat="45.43747" lon="5.90077">
        <ele>1248.417564766</ele>
        <time>2015-06-11T06:35:04Z</time>
      </trkpt>
      <trkpt lat="45.43747" lon="5.90089">
        <ele>1248.417564766</ele>
        <time>2015-06-11T06:35:09Z</time>
      </trkpt>
      <trkpt lat="45.43748" lon="5.90099">
        <ele>1250.452950978</ele>
        <time>2015-06-11T06:35:14Z</time>
      </trkpt>
      <trkpt lat="45.43744" lon="5.90104">
        <ele>1250.452950978</ele>
        <time>2015-06-11T06:35:19Z</time>
      </trkpt>
      <trkpt lat="45.43739" lon="5.90109">
        <ele>1251.791223774</ele>
        <time>2015-06-11T06:35:24Z</time>
      </trkpt>
      <trkpt lat="45.43737" lon="5.90115">
        <ele>1251.791223774</ele>
        <time>2015-06-11T06:35:27Z</time>
      </trkpt>
      <trkpt lat="45.43731" lon="5.90123">
        <ele>1253.925008602</ele>
        <time>2015-06-11T06:35:33Z</time>
      </trkpt>
      <trkpt lat="45.43729" lon="5.90131">
        <ele>1253.925008602</ele>
        <time>2015-06-11T06:35:39Z</time>
      </trkpt>
      <trkpt lat="45.43727" lon="5.90137">
        <ele>1255.496301732</ele>
        <time>2015-06-11T06:35:44Z</time>
      </trkpt>
      <trkpt lat="45.43725" lon="5.90148">
        <ele>1255.496301732</ele>
        <time>2015-06-11T06:35:49Z</time>
      </trkpt>
      <trkpt lat="45.43727" lon="5.90159">
        <ele>1257.12240724</ele>
        <time>2015-06-11T06:35:54Z</time>
      </trkpt>
      <trkpt lat="45.43729" lon="5.90169">
        <ele>1257.12240724</ele>
        <time>2015-06-11T06:35:59Z</time>
      </trkpt>
      <trkpt lat="45.43727" lon="5.90176">
        <ele>1258.942734809</ele>
        <time>2015-06-11T06:36:04Z</time>
      </trkpt>
      <trkpt lat="45.43725" lon="5.90183">
        <ele>1258.942734809</ele>
        <time>2015-06-11T06:36:09Z</time>
      </trkpt>
      <trkpt lat="45.43725" lon="5.90193">
        <ele>1260.941835851</ele>
        <time>2015-06-11T06:36:14Z</time>
      </trkpt>
      <trkpt lat="45.43721" lon="5.90201">
        <ele>1260.941835851</ele>
        <time>2015-06-11T06:36:19Z</time>
      </trkpt>
      <trkpt lat="45.43723" lon="5.9021">
        <ele>1262.672593045</ele>
        <time>2015-06-11T06:36:24Z</time>
      </trkpt>
      <trkpt lat="45.43722" lon="5.90221">
        <ele>1262.672593045</ele>
        <time>2015-06-11T06:36:29Z</time>
      </trkpt>
      <trkpt lat="45.43723" lon="5.90232">
        <ele>1263.577457651</ele>
        <time>2015-06-11T06:36:34Z</time>
      </trkpt>
      <trkpt lat="45.43728" lon="5.90242">
        <ele>1263.577457651</ele>
        <time>2015-06-11T06:36:39Z</time>
      </trkpt>
      <trkpt lat="45.43729" lon="5.90249">
        <ele>1264.439303665</ele>
        <time>2015-06-11T06:36:44Z</time>
      </trkpt>
      <trkpt lat="45.43725" lon="5.90258">
        <ele>1264.439303665</ele>
        <time>2015-06-11T06:36:49Z</time>
      </trkpt>
      <trkpt lat="45.43717" lon="5.90271">
        <ele>1264.974804494</ele>
        <time>2015-06-11T06:36:54Z</time>
      </trkpt>
      <trkpt lat="45.43714" lon="5.90279">
        <ele>1264.974804494</ele>
        <time>2015-06-11T06:36:59Z</time>
      </trkpt>
      <trkpt lat="45.43709" lon="5.90286">
        <ele>1265.3547587</ele>
        <time>2015-06-11T06:37:04Z</time>
      </trkpt>
      <trkpt lat="45.43705" lon="5.90293">
        <ele>1265.3547587</ele>
        <time>2015-06-11T06:37:08Z</time>
      </trkpt>
      <trkpt lat="45.43705" lon="5.90299">
        <ele>1266.026106471</ele>
        <time>2015-06-11T06:37:14Z</time>
      </trkpt>
      <trkpt lat="45.43707" lon="5.90309">
        <ele>1266.026106471</ele>
        <time>2015-06-11T06:37:19Z</time>
      </trkpt>
      <trkpt lat="45.43708" lon="5.90318">
        <ele>1266.825695299</ele>
        <time>2015-06-11T06:37:24Z</time>
      </trkpt>
      <trkpt lat="45.43708" lon="5.90329">
        <ele>1266.825695299</ele>
        <time>2015-06-11T06:37:29Z</time>
      </trkpt>
      <trkpt lat="45.43711" lon="5.90336">
        <ele>1266.881447933</ele>
        <time>2015-06-11T06:37:34Z</time>
      </trkpt>
      <trkpt lat="45.43713" lon="5.90344">
        <ele>1266.881447933</ele>
        <time>2015-06-11T06:37:39Z</time>
      </trkpt>
      <trkpt lat="45.43715" lon="5.90351">
        <ele>1266.828572295</ele>
        <time>2015-06-11T06:37:43Z</time>
      </trkpt>
      <trkpt lat="45.43719" lon="5.90359">
        <ele>1266.828572295</ele>
        <time>2015-06-11T06:37:49Z</time>
      </trkpt>
      <trkpt lat="45.43717" lon="5.90368">
        <ele>1266.391226276</ele>
        <time>2015-06-11T06:37:53Z</time>
      </trkpt>
      <trkpt lat="45.43719" lon="5.90376">
        <ele>1266.391226276</ele>
        <time>2015-06-11T06:37:58Z</time>
      </trkpt>
      <trkpt lat="45.43718" lon="5.90388">
        <ele>1265.45899842</ele>
        <time>2015-06-11T06:38:04Z</time>
      </trkpt>
      <trkpt lat="45.43716" lon="5.904">
        <ele>1265.45899842</ele>
        <time>2015-06-11T06:38:09Z</time>
      </trkpt>
      <trkpt lat="45.43719" lon="5.90407">
        <ele>1264.36327412</ele>
        <time>2015-06-11T06:38:14Z</time>
      </trkpt>
      <trkpt lat="45.43714" lon="5.90416">
        <ele>1264.36327412</ele>
        <time>2015-06-11T06:38:19Z</time>
      </trkpt>
      <trkpt lat="45.43716" lon="5.90425">
        <ele>1263.267386494</ele>
        <time>2015-06-11T06:38:24Z</time>
      </trkpt>
      <trkpt lat="45.43713" lon="5.90428">
        <ele>1263.267386494</ele>
        <time>2015-06-11T06:38:27Z</time>
      </trkpt>
      <trkpt lat="45.43717" lon="5.9043">
        <ele>1263.267386494</ele>
        <time>2015-06-11T06:38:34Z</time>
      </trkpt>
      <trkpt lat="45.43714" lon="5.90432">
        <ele>1262.178487172</ele>
        <time>2015-06-11T06:38:39Z</time>
      </trkpt>
      <trkpt lat="45.4371" lon="5.90433">
        <ele>1262.178487172</ele>
        <time>2015-06-11T06:38:44Z</time>
      </trkpt>
      <trkpt lat="45.4371" lon="5.90433">
        <ele>1262.178487172</ele>
        <time>2015-06-11T06:38:49Z</time>
      </trkpt>
      <trkpt lat="45.43707" lon="5.90436">
        <ele>1262.178487172</ele>
        <time>2015-06-11T06:38:54Z</time>
      </trkpt>
      <trkpt lat="45.43705" lon="5.90437">
        <ele>1261.967776485</ele>
        <time>2015-06-11T06:38:59Z</time>
      </trkpt>
      <trkpt lat="45.437" lon="5.9044">
        <ele>1261.967776485</ele>
        <time>2015-06-11T06:39:04Z</time>
      </trkpt>
      <trkpt lat="45.43702" lon="5.90446">
        <ele>1261.566424486</ele>
        <time>2015-06-11T06:39:09Z</time>
      </trkpt>
      <trkpt lat="45.437" lon="5.9045">
        <ele>1261.566424486</ele>
        <time>2015-06-11T06:39:14Z</time>
      </trkpt>
      <trkpt lat="45.43695" lon="5.9045">
        <ele>1261.566424486</ele>
        <time>2015-06-11T06:39:19Z</time>
      </trkpt>
      <trkpt lat="45.4369" lon="5.9045">
        <ele>1260.993334254</ele>
        <time>2015-06-11T06:39:24Z</time>
      </trkpt>
      <trkpt lat="45.43687" lon="5.90454">
        <ele>1260.993334254</ele>
        <time>2015-06-11T06:39:28Z</time>
      </trkpt>
      <trkpt lat="45.43683" lon="5.90452">
        <ele>1260.993334254</ele>
        <time>2015-06-11T06:39:34Z</time>
      </trkpt>
      <trkpt lat="45.4368" lon="5.90453">
        <ele>1261.275185598</ele>
        <time>2015-06-11T06:39:39Z</time>
      </trkpt>
      <trkpt lat="45.43674" lon="5.90455">
        <ele>1261.275185598</ele>
        <time>2015-06-11T06:39:44Z</time>
      </trkpt>
      <trkpt lat="45.43676" lon="5.90455">
        <ele>1261.275185598</ele>
        <time>2015-06-11T06:39:49Z</time>
      </trkpt>
      <trkpt lat="45.43674" lon="5.90457">
        <ele>1262.351928367</ele>
        <time>2015-06-11T06:39:54Z</time>
      </trkpt>
      <trkpt lat="45.43675" lon="5.90457">
        <ele>1262.351928367</ele>
        <time>2015-06-11T06:39:59Z</time>
      </trkpt>
      <trkpt lat="45.43667" lon="5.90457">
        <ele>1262.351928367</ele>
        <time>2015-06-11T06:40:04Z</time>
      </trkpt>
      <trkpt lat="45.43661" lon="5.90451">
        <ele>1263.877348093</ele>
        <time>2015-06-11T06:40:09Z</time>
      </trkpt>
      <trkpt lat="45.43658" lon="5.90454">
        <ele>1263.877348093</ele>
        <time>2015-06-11T06:40:13Z</time>
      </trkpt>
      <trkpt lat="45.43654" lon="5.9045">
        <ele>1263.877348093</ele>
        <time>2015-06-11T06:40:19Z</time>
      </trkpt>
      <trkpt lat="45.43652" lon="5.90444">
        <ele>1265.961636736</ele>
        <time>2015-06-11T06:40:24Z</time>
      </trkpt>
      <trkpt lat="45.4365" lon="5.90438">
        <ele>1265.961636736</ele>
        <time>2015-06-11T06:40:29Z</time>
      </trkpt>
      <trkpt lat="45.43648" lon="5.9043">
        <ele>1268.128765497</ele>
        <time>2015-06-11T06:40:34Z</time>
      </trkpt>
      <trkpt lat="45.43645" lon="5.90428">
        <ele>1268.128765497</ele>
        <time>2015-06-11T06:40:39Z</time>
      </trkpt>
      <trkpt lat="45.43643" lon="5.90422">
        <ele>1268.128765497</ele>
        <time>2015-06-11T06:40:44Z</time>
      </trkpt>
      <trkpt lat="45.43639" lon="5.90421">
        <ele>1270.657930037</ele>
        <time>2015-06-11T06:40:49Z</time>
      </trkpt>
      <trkpt lat="45.43633" lon="5.90419">
        <ele>1270.657930037</ele>
        <time>2015-06-11T06:40:54Z</time>
      </trkpt>
      <trkpt lat="45.43628" lon="5.90414">
        <ele>1273.518501844</ele>
        <time>2015-06-11T06:40:59Z</time>
      </trkpt>
      <trkpt lat="45.43628" lon="5.90414">
        <ele>1273.518501844</ele>
        <time>2015-06-11T06:41:04Z</time>
      </trkpt>
      <trkpt lat="45.43627" lon="5.90416">
        <ele>1273.518501844</ele>
        <time>2015-06-11T06:41:09Z</time>
      </trkpt>
      <trkpt lat="45.43626" lon="5.90417">
        <ele>1273.518501844</ele>
        <time>2015-06-11T06:41:14Z</time>
      </trkpt>
      <trkpt lat="45.43626" lon="5.90417">
        <ele>1273.518501844</ele>
        <time>2015-06-11T06:41:19Z</time>
      </trkpt>
      <trkpt lat="45.43626" lon="5.90417">
        <ele>1273.518501844</ele>
        <time>2015-06-11T06:41:24Z</time>
      </trkpt>
      <trkpt lat="45.43626" lon="5.90417">
        <ele>1273.518501844</ele>
        <time>2015-06-11T06:41:28Z</time>
      </trkpt>
      <trkpt lat="45.43626" lon="5.90417">
        <ele>1273.518501844</ele>
        <time>2015-06-11T06:41:33Z</time>
      </trkpt>
      <trkpt lat="45.43626" lon="5.90417">
        <ele>1273.518501844</ele>
        <time>2015-06-11T06:41:37Z</time>
      </trkpt>
      <trkpt lat="45.43626" lon="5.90417">
        <ele>1273.518501844</ele>
        <time>2015-06-11T06:41:43Z</time>
      </trkpt>
      <trkpt lat="45.43626" lon="5.90417">
        <ele>1273.518501844</ele>
        <time>2015-06-11T06:41:47Z</time>
      </trkpt>
      <trkpt lat="45.43626" lon="5.90417">
        <ele>1273.518501844</ele>
        <time>2015-06-11T06:41:53Z</time>
      </trkpt>
      <trkpt lat="45.43626" lon="5.90417">
        <ele>1273.518501844</ele>
        <time>2015-06-11T06:41:58Z</time>
      </trkpt>
      <trkpt lat="45.43626" lon="5.90417">
        <ele>1273.518501844</ele>
        <time>2015-06-11T06:42:03Z</time>
      </trkpt>
      <trkpt lat="45.43626" lon="5.90417">
        <ele>1273.518501844</ele>
        <time>2015-06-11T06:42:08Z</time>
      </trkpt>
      <trkpt lat="45.43624" lon="5.90413">
        <ele>1273.518501844</ele>
        <time>2015-06-11T06:42:14Z</time>
      </trkpt>
      <trkpt lat="45.43624" lon="5.90405">
        <ele>1276.681121006</ele>
        <time>2015-06-11T06:42:19Z</time>
      </trkpt>
      <trkpt lat="45.43623" lon="5.90404">
        <ele>1276.681121006</ele>
        <time>2015-06-11T06:42:24Z</time>
      </trkpt>
      <trkpt lat="45.43623" lon="5.90402">
        <ele>1276.681121006</ele>
        <time>2015-06-11T06:42:29Z</time>
      </trkpt>
      <trkpt lat="45.43622" lon="5.90399">
        <ele>1276.681121006</ele>
        <time>2015-06-11T06:42:34Z</time>
      </trkpt>
      <trkpt lat="45.43624" lon="5.90393">
        <ele>1278.964783956</ele>
        <time>2015-06-11T06:42:39Z</time>
      </trkpt>
      <trkpt lat="45.43629" lon="5.90378">
        <ele>1281.727645995</ele>
        <time>2015-06-11T06:42:44Z</time>
      </trkpt>
      <trkpt lat="45.43629" lon="5.90371">
        <ele>1281.727645995</ele>
        <time>2015-06-11T06:42:49Z</time>
      </trkpt>
      <trkpt lat="45.4363" lon="5.90362">
        <ele>1284.065022196</ele>
        <time>2015-06-11T06:42:54Z</time>
      </trkpt>
      <trkpt lat="45.43626" lon="5.90353">
        <ele>1284.065022196</ele>
        <time>2015-06-11T06:42:59Z</time>
      </trkpt>
      <trkpt lat="45.43626" lon="5.90348">
        <ele>1285.428120955</ele>
        <time>2015-06-11T06:43:04Z</time>
      </trkpt>
      <trkpt lat="45.43621" lon="5.9034">
        <ele>1285.428120955</ele>
        <time>2015-06-11T06:43:08Z</time>
      </trkpt>
      <trkpt lat="45.43622" lon="5.90329">
        <ele>1286.608246981</ele>
        <time>2015-06-11T06:43:14Z</time>
      </trkpt>
      <trkpt lat="45.43619" lon="5.90324">
        <ele>1286.608246981</ele>
        <time>2015-06-11T06:43:19Z</time>
      </trkpt>
      <trkpt lat="45.43619" lon="5.90318">
        <ele>1286.608246981</ele>
        <time>2015-06-11T06:43:24Z</time>
      </trkpt>
      <trkpt lat="45.43619" lon="5.90312">
        <ele>1286.897963274</ele>
        <time>2015-06-11T06:43:29Z</time>
      </trkpt>
      <trkpt lat="45.43618" lon="5.90309">
        <ele>1286.897963274</ele>
        <time>2015-06-11T06:43:34Z</time>
      </trkpt>
      <trkpt lat="45.43617" lon="5.9031">
        <ele>1286.897963274</ele>
        <time>2015-06-11T06:43:38Z</time>
      </trkpt>
      <trkpt lat="45.43618" lon="5.90303">
        <ele>1286.897963274</ele>
        <time>2015-06-11T06:43:44Z</time>
      </trkpt>
      <trkpt lat="45.43619" lon="5.90299">
        <ele>1287.661918136</ele>
        <time>2015-06-11T06:43:49Z</time>
      </trkpt>
      <trkpt lat="45.4362" lon="5.90292">
        <ele>1287.661918136</ele>
        <time>2015-06-11T06:43:54Z</time>
      </trkpt>
      <trkpt lat="45.4362" lon="5.90286">
        <ele>1287.661918136</ele>
        <time>2015-06-11T06:43:59Z</time>
      </trkpt>
      <trkpt lat="45.4362" lon="5.90277">
        <ele>1289.58673751</ele>
        <time>2015-06-11T06:44:04Z</time>
      </trkpt>
      <trkpt lat="45.4362" lon="5.90269">
        <ele>1289.58673751</ele>
        <time>2015-06-11T06:44:09Z</time>
      </trkpt>
      <trkpt lat="45.43621" lon="5.90262">
        <ele>1291.864228483</ele>
        <time>2015-06-11T06:44:14Z</time>
      </trkpt>
      <trkpt lat="45.43623" lon="5.90256">
        <ele>1291.864228483</ele>
        <time>2015-06-11T06:44:19Z</time>
      </trkpt>
      <trkpt lat="45.43623" lon="5.90248">
        <ele>1293.312261055</ele>
        <time>2015-06-11T06:44:24Z</time>
      </trkpt>
      <trkpt lat="45.43623" lon="5.90242">
        <ele>1293.312261055</ele>
        <time>2015-06-11T06:44:29Z</time>
      </trkpt>
      <trkpt lat="45.43623" lon="5.90236">
        <ele>1293.312261055</ele>
        <time>2015-06-11T06:44:34Z</time>
      </trkpt>
      <trkpt lat="45.43622" lon="5.9023">
        <ele>1295.143711364</ele>
        <time>2015-06-11T06:44:39Z</time>
      </trkpt>
      <trkpt lat="45.43621" lon="5.90222">
        <ele>1295.143711364</ele>
        <time>2015-06-11T06:44:44Z</time>
      </trkpt>
      <trkpt lat="45.43617" lon="5.90218">
        <ele>1297.184285927</ele>
        <time>2015-06-11T06:44:49Z</time>
      </trkpt>
      <trkpt lat="45.43612" lon="5.90214">
        <ele>1297.184285927</ele>
        <time>2015-06-11T06:44:54Z</time>
      </trkpt>
      <trkpt lat="45.4361" lon="5.90212">
        <ele>1297.184285927</ele>
        <time>2015-06-11T06:44:58Z</time>
      </trkpt>
      <trkpt lat="45.43609" lon="5.90208">
        <ele>1299.416054104</ele>
        <time>2015-06-11T06:45:02Z</time>
      </trkpt>
      <trkpt lat="45.4361" lon="5.90199">
        <ele>1299.416054104</ele>
        <time>2015-06-11T06:45:08Z</time>
      </trkpt>
      <trkpt lat="45.43607" lon="5.90194">
        <ele>1301.389564758</ele>
        <time>2015-06-11T06:45:12Z</time>
      </trkpt>
      <trkpt lat="45.43608" lon="5.90184">
        <ele>1301.389564758</ele>
        <time>2015-06-11T06:45:17Z</time>
      </trkpt>
      <trkpt lat="45.43601" lon="5.90181">
        <ele>1302.833262643</ele>
        <time>2015-06-11T06:45:24Z</time>
      </trkpt>
      <trkpt lat="45.43598" lon="5.90176">
        <ele>1302.833262643</ele>
        <time>2015-06-11T06:45:29Z</time>
      </trkpt>
      <trkpt lat="45.43597" lon="5.90167">
        <ele>1304.505857676</ele>
        <time>2015-06-11T06:45:34Z</time>
      </trkpt>
      <trkpt lat="45.43595" lon="5.9016">
        <ele>1304.505857676</ele>
        <time>2015-06-11T06:45:39Z</time>
      </trkpt>
      <trkpt lat="45.43596" lon="5.90152">
        <ele>1306.100940246</ele>
        <time>2015-06-11T06:45:44Z</time>
      </trkpt>
      <trkpt lat="45.43597" lon="5.90145">
        <ele>1306.100940246</ele>
        <time>2015-06-11T06:45:49Z</time>
      </trkpt>
      <trkpt lat="45.436" lon="5.90136">
        <ele>1308.343658741</ele>
        <time>2015-06-11T06:45:54Z</time>
      </trkpt>
      <trkpt lat="45.43601" lon="5.90129">
        <ele>1308.343658741</ele>
        <time>2015-06-11T06:45:59Z</time>
      </trkpt>
      <trkpt lat="45.43598" lon="5.90122">
        <ele>1310.75122721</ele>
        <time>2015-06-11T06:46:04Z</time>
      </trkpt>
      <trkpt lat="45.43597" lon="5.90116">
        <ele>1310.75122721</ele>
        <time>2015-06-11T06:46:09Z</time>
      </trkpt>
      <trkpt lat="45.43596" lon="5.90107">
        <ele>1313.308251835</ele>
        <time>2015-06-11T06:46:14Z</time>
      </trkpt>
      <trkpt lat="45.43593" lon="5.90102">
        <ele>1313.308251835</ele>
        <time>2015-06-11T06:46:19Z</time>
      </trkpt>
      <trkpt lat="45.43594" lon="5.90093">
        <ele>1316.144219986</ele>
        <time>2015-06-11T06:46:24Z</time>
      </trkpt>
      <trkpt lat="45.43593" lon="5.90085">
        <ele>1316.144219986</ele>
        <time>2015-06-11T06:46:29Z</time>
      </trkpt>
      <trkpt lat="45.43592" lon="5.90077">
        <ele>1319.090165949</ele>
        <time>2015-06-11T06:46:34Z</time>
      </trkpt>
      <trkpt lat="45.43586" lon="5.90073">
        <ele>1319.090165949</ele>
        <time>2015-06-11T06:46:39Z</time>
      </trkpt>
      <trkpt lat="45.43584" lon="5.90067">
        <ele>1321.412853377</ele>
        <time>2015-06-11T06:46:44Z</time>
      </trkpt>
      <trkpt lat="45.43583" lon="5.90059">
        <ele>1321.412853377</ele>
        <time>2015-06-11T06:46:49Z</time>
      </trkpt>
      <trkpt lat="45.43582" lon="5.90054">
        <ele>1323.29940342</ele>
        <time>2015-06-11T06:46:52Z</time>
      </trkpt>
      <trkpt lat="45.43579" lon="5.90049">
        <ele>1323.29940342</ele>
        <time>2015-06-11T06:46:59Z</time>
      </trkpt>
      <trkpt lat="45.43575" lon="5.90048">
        <ele>1323.29940342</ele>
        <time>2015-06-11T06:47:04Z</time>
      </trkpt>
      <trkpt lat="45.43574" lon="5.9005">
        <ele>1325.356828239</ele>
        <time>2015-06-11T06:47:09Z</time>
      </trkpt>
      <trkpt lat="45.43573" lon="5.90049">
        <ele>1325.356828239</ele>
        <time>2015-06-11T06:47:14Z</time>
      </trkpt>
      <trkpt lat="45.43573" lon="5.90048">
        <ele>1325.356828239</ele>
        <time>2015-06-11T06:47:19Z</time>
      </trkpt>
      <trkpt lat="45.43571" lon="5.90045">
        <ele>1325.356828239</ele>
        <time>2015-06-11T06:47:24Z</time>
      </trkpt>
      <trkpt lat="45.43566" lon="5.90033">
        <ele>1327.138370393</ele>
        <time>2015-06-11T06:47:29Z</time>
      </trkpt>
      <trkpt lat="45.43562" lon="5.90023">
        <ele>1327.138370393</ele>
        <time>2015-06-11T06:47:34Z</time>
      </trkpt>
      <trkpt lat="45.43558" lon="5.90017">
        <ele>1328.951500967</ele>
        <time>2015-06-11T06:47:39Z</time>
      </trkpt>
      <trkpt lat="45.43554" lon="5.90006">
        <ele>1328.951500967</ele>
        <time>2015-06-11T06:47:44Z</time>
      </trkpt>
      <trkpt lat="45.43553" lon="5.89998">
        <ele>1330.648758627</ele>
        <time>2015-06-11T06:47:49Z</time>
      </trkpt>
      <trkpt lat="45.43551" lon="5.89991">
        <ele>1330.648758627</ele>
        <time>2015-06-11T06:47:54Z</time>
      </trkpt>
      <trkpt lat="45.43551" lon="5.8998">
        <ele>1332.814470599</ele>
        <time>2015-06-11T06:47:59Z</time>
      </trkpt>
      <trkpt lat="45.4355" lon="5.89973">
        <ele>1332.814470599</ele>
        <time>2015-06-11T06:48:03Z</time>
      </trkpt>
      <trkpt lat="45.43549" lon="5.89966">
        <ele>1335.268242656</ele>
        <time>2015-06-11T06:48:09Z</time>
      </trkpt>
      <trkpt lat="45.43548" lon="5.89959">
        <ele>1335.268242656</ele>
        <time>2015-06-11T06:48:14Z</time>
      </trkpt>
      <trkpt lat="45.43545" lon="5.89953">
        <ele>1337.265751493</ele>
        <time>2015-06-11T06:48:19Z</time>
      </trkpt>
      <trkpt lat="45.43546" lon="5.89948">
        <ele>1337.265751493</ele>
        <time>2015-06-11T06:48:24Z</time>
      </trkpt>
      <trkpt lat="45.43547" lon="5.89942">
        <ele>1337.265751493</ele>
        <time>2015-06-11T06:48:28Z</time>
      </trkpt>
      <trkpt lat="45.43548" lon="5.89936">
        <ele>1339.271592549</ele>
        <time>2015-06-11T06:48:33Z</time>
      </trkpt>
      <trkpt lat="45.43544" lon="5.89928">
        <ele>1339.271592549</ele>
        <time>2015-06-11T06:48:39Z</time>
      </trkpt>
      <trkpt lat="45.43541" lon="5.89921">
        <ele>1340.851611945</ele>
        <time>2015-06-11T06:48:44Z</time>
      </trkpt>
      <trkpt lat="45.43539" lon="5.89912">
        <ele>1340.851611945</ele>
        <time>2015-06-11T06:48:49Z</time>
      </trkpt>
      <trkpt lat="45.43534" lon="5.89908">
        <ele>1342.325366717</ele>
        <time>2015-06-11T06:48:54Z</time>
      </trkpt>
      <trkpt lat="45.43531" lon="5.89902">
        <ele>1342.325366717</ele>
        <time>2015-06-11T06:48:59Z</time>
      </trkpt>
      <trkpt lat="45.43529" lon="5.89897">
        <ele>1342.325366717</ele>
        <time>2015-06-11T06:49:04Z</time>
      </trkpt>
      <trkpt lat="45.43527" lon="5.89894">
        <ele>1344.421635669</ele>
        <time>2015-06-11T06:49:09Z</time>
      </trkpt>
      <trkpt lat="45.43524" lon="5.89891">
        <ele>1344.421635669</ele>
        <time>2015-06-11T06:49:14Z</time>
      </trkpt>
      <trkpt lat="45.4352" lon="5.89886">
        <ele>1344.421635669</ele>
        <time>2015-06-11T06:49:19Z</time>
      </trkpt>
      <trkpt lat="45.43517" lon="5.8988">
        <ele>1346.372864433</ele>
        <time>2015-06-11T06:49:24Z</time>
      </trkpt>
      <trkpt lat="45.43515" lon="5.89879">
        <ele>1346.372864433</ele>
        <time>2015-06-11T06:49:29Z</time>
      </trkpt>
      <trkpt lat="45.43511" lon="5.89879">
        <ele>1346.372864433</ele>
        <time>2015-06-11T06:49:34Z</time>
      </trkpt>
      <trkpt lat="45.43503" lon="5.89873">
        <ele>1348.188903143</ele>
        <time>2015-06-11T06:49:39Z</time>
      </trkpt>
      <trkpt lat="45.43498" lon="5.89864">
        <ele>1348.188903143</ele>
        <time>2015-06-11T06:49:44Z</time>
      </trkpt>
      <trkpt lat="45.43498" lon="5.8986">
        <ele>1349.735200661</ele>
        <time>2015-06-11T06:49:47Z</time>
      </trkpt>
      <trkpt lat="45.43498" lon="5.89859">
        <ele>1349.735200661</ele>
        <time>2015-06-11T06:49:52Z</time>
      </trkpt>
      <trkpt lat="45.43499" lon="5.89859">
        <ele>1349.735200661</ele>
        <time>2015-06-11T06:49:57Z</time>
      </trkpt>
      <trkpt lat="45.43498" lon="5.89857">
        <ele>1349.735200661</ele>
        <time>2015-06-11T06:50:03Z</time>
      </trkpt>
      <trkpt lat="45.43492" lon="5.89857">
        <ele>1350.599674022</ele>
        <time>2015-06-11T06:50:08Z</time>
      </trkpt>
      <trkpt lat="45.43488" lon="5.89855">
        <ele>1350.599674022</ele>
        <time>2015-06-11T06:50:13Z</time>
      </trkpt>
      <trkpt lat="45.43483" lon="5.89851">
        <ele>1350.690689232</ele>
        <time>2015-06-11T06:50:18Z</time>
      </trkpt>
      <trkpt lat="45.4348" lon="5.89844">
        <ele>1350.690689232</ele>
        <time>2015-06-11T06:50:23Z</time>
      </trkpt>
      <trkpt lat="45.43475" lon="5.89838">
        <ele>1351.654882199</ele>
        <time>2015-06-11T06:50:28Z</time>
      </trkpt>
      <trkpt lat="45.4347" lon="5.89841">
        <ele>1351.654882199</ele>
        <time>2015-06-11T06:50:33Z</time>
      </trkpt>
      <trkpt lat="45.43468" lon="5.89828">
        <ele>1352.853833616</ele>
        <time>2015-06-11T06:50:38Z</time>
      </trkpt>
      <trkpt lat="45.43467" lon="5.89821">
        <ele>1352.853833616</ele>
        <time>2015-06-11T06:50:43Z</time>
      </trkpt>
      <trkpt lat="45.43461" lon="5.89815">
        <ele>1354.560046238</ele>
        <time>2015-06-11T06:50:48Z</time>
      </trkpt>
      <trkpt lat="45.43457" lon="5.89813">
        <ele>1354.560046238</ele>
        <time>2015-06-11T06:50:53Z</time>
      </trkpt>
      <trkpt lat="45.43456" lon="5.89803">
        <ele>1356.592257731</ele>
        <time>2015-06-11T06:50:58Z</time>
      </trkpt>
      <trkpt lat="45.43452" lon="5.898">
        <ele>1356.592257731</ele>
        <time>2015-06-11T06:51:03Z</time>
      </trkpt>
      <trkpt lat="45.43448" lon="5.89799">
        <ele>1356.592257731</ele>
        <time>2015-06-11T06:51:08Z</time>
      </trkpt>
      <trkpt lat="45.43444" lon="5.89797">
        <ele>1357.772833844</ele>
        <time>2015-06-11T06:51:13Z</time>
      </trkpt>
      <trkpt lat="45.43439" lon="5.89794">
        <ele>1357.772833844</ele>
        <time>2015-06-11T06:51:18Z</time>
      </trkpt>
      <trkpt lat="45.43433" lon="5.8979">
        <ele>1358.886487667</ele>
        <time>2015-06-11T06:51:23Z</time>
      </trkpt>
      <trkpt lat="45.43429" lon="5.89791">
        <ele>1358.886487667</ele>
        <time>2015-06-11T06:51:28Z</time>
      </trkpt>
      <trkpt lat="45.43426" lon="5.89794">
        <ele>1358.886487667</ele>
        <time>2015-06-11T06:51:33Z</time>
      </trkpt>
      <trkpt lat="45.43423" lon="5.89786">
        <ele>1360.372254143</ele>
        <time>2015-06-11T06:51:38Z</time>
      </trkpt>
      <trkpt lat="45.43418" lon="5.89786">
        <ele>1360.372254143</ele>
        <time>2015-06-11T06:51:43Z</time>
      </trkpt>
      <trkpt lat="45.43409" lon="5.89783">
        <ele>1361.771203582</ele>
        <time>2015-06-11T06:51:48Z</time>
      </trkpt>
      <trkpt lat="45.43403" lon="5.89784">
        <ele>1361.771203582</ele>
        <time>2015-06-11T06:51:53Z</time>
      </trkpt>
      <trkpt lat="45.43395" lon="5.8978">
        <ele>1362.802467792</ele>
        <time>2015-06-11T06:51:58Z</time>
      </trkpt>
      <trkpt lat="45.43392" lon="5.89782">
        <ele>1362.802467792</ele>
        <time>2015-06-11T06:52:03Z</time>
      </trkpt>
      <trkpt lat="45.43385" lon="5.89783">
        <ele>1364.93616961</ele>
        <time>2015-06-11T06:52:08Z</time>
      </trkpt>
      <trkpt lat="45.4338" lon="5.89775">
        <ele>1364.93616961</ele>
        <time>2015-06-11T06:52:13Z</time>
      </trkpt>
      <trkpt lat="45.43375" lon="5.89766">
        <ele>1367.51377921</ele>
        <time>2015-06-11T06:52:18Z</time>
      </trkpt>
      <trkpt lat="45.43366" lon="5.89768">
        <ele>1369.779779172</ele>
        <time>2015-06-11T06:52:23Z</time>
      </trkpt>
      <trkpt lat="45.43363" lon="5.89762">
        <ele>1369.779779172</ele>
        <time>2015-06-11T06:52:28Z</time>
      </trkpt>
      <trkpt lat="45.43357" lon="5.89757">
        <ele>1371.467356257</ele>
        <time>2015-06-11T06:52:33Z</time>
      </trkpt>
      <trkpt lat="45.43359" lon="5.89753">
        <ele>1371.467356257</ele>
        <time>2015-06-11T06:52:38Z</time>
      </trkpt>
      <trkpt lat="45.43356" lon="5.89743">
        <ele>1372.76325264</ele>
        <time>2015-06-11T06:52:43Z</time>
      </trkpt>
      <trkpt lat="45.43351" lon="5.89742">
        <ele>1372.76325264</ele>
        <time>2015-06-11T06:52:48Z</time>
      </trkpt>
      <trkpt lat="45.4334" lon="5.89744">
        <ele>1373.697479274</ele>
        <time>2015-06-11T06:52:53Z</time>
      </trkpt>
      <trkpt lat="45.43338" lon="5.89735">
        <ele>1373.697479274</ele>
        <time>2015-06-11T06:52:58Z</time>
      </trkpt>
      <trkpt lat="45.43333" lon="5.8973">
        <ele>1375.163521936</ele>
        <time>2015-06-11T06:53:03Z</time>
      </trkpt>
      <trkpt lat="45.43331" lon="5.89726">
        <ele>1375.163521936</ele>
        <time>2015-06-11T06:53:08Z</time>
      </trkpt>
      <trkpt lat="45.43326" lon="5.89724">
        <ele>1376.114286828</ele>
        <time>2015-06-11T06:53:13Z</time>
      </trkpt>
      <trkpt lat="45.4332" lon="5.89721">
        <ele>1376.114286828</ele>
        <time>2015-06-11T06:53:18Z</time>
      </trkpt>
      <trkpt lat="45.43315" lon="5.89727">
        <ele>1376.878034039</ele>
        <time>2015-06-11T06:53:23Z</time>
      </trkpt>
      <trkpt lat="45.4331" lon="5.89727">
        <ele>1376.878034039</ele>
        <time>2015-06-11T06:53:28Z</time>
      </trkpt>
      <trkpt lat="45.43304" lon="5.89722">
        <ele>1377.903529171</ele>
        <time>2015-06-11T06:53:33Z</time>
      </trkpt>
      <trkpt lat="45.43299" lon="5.89721">
        <ele>1377.903529171</ele>
        <time>2015-06-11T06:53:38Z</time>
      </trkpt>
      <trkpt lat="45.4329" lon="5.89723">
        <ele>1378.741148597</ele>
        <time>2015-06-11T06:53:43Z</time>
      </trkpt>
      <trkpt lat="45.43286" lon="5.89724">
        <ele>1378.741148597</ele>
        <time>2015-06-11T06:53:48Z</time>
      </trkpt>
      <trkpt lat="45.4328" lon="5.89723">
        <ele>1379.118908293</ele>
        <time>2015-06-11T06:53:53Z</time>
      </trkpt>
      <trkpt lat="45.43274" lon="5.89725">
        <ele>1379.118908293</ele>
        <time>2015-06-11T06:53:58Z</time>
      </trkpt>
      <trkpt lat="45.43271" lon="5.89718">
        <ele>1379.794838807</ele>
        <time>2015-06-11T06:54:03Z</time>
      </trkpt>
      <trkpt lat="45.43268" lon="5.89713">
        <ele>1379.794838807</ele>
        <time>2015-06-11T06:54:08Z</time>
      </trkpt>
      <trkpt lat="45.43263" lon="5.89714">
        <ele>1379.794838807</ele>
        <time>2015-06-11T06:54:13Z</time>
      </trkpt>
      <trkpt lat="45.43255" lon="5.89709">
        <ele>1380.461631709</ele>
        <time>2015-06-11T06:54:18Z</time>
      </trkpt>
      <trkpt lat="45.43253" lon="5.8971">
        <ele>1380.461631709</ele>
        <time>2015-06-11T06:54:23Z</time>
      </trkpt>
      <trkpt lat="45.43251" lon="5.89705">
        <ele>1380.461631709</ele>
        <time>2015-06-11T06:54:28Z</time>
      </trkpt>
      <trkpt lat="45.43242" lon="5.89704">
        <ele>1380.402198606</ele>
        <time>2015-06-11T06:54:33Z</time>
      </trkpt>
      <trkpt lat="45.43233" lon="5.89708">
        <ele>1379.818777282</ele>
        <time>2015-06-11T06:54:38Z</time>
      </trkpt>
      <trkpt lat="45.43226" lon="5.89708">
        <ele>1379.818777282</ele>
        <time>2015-06-11T06:54:43Z</time>
      </trkpt>
      <trkpt lat="45.43223" lon="5.89709">
        <ele>1379.476599725</ele>
        <time>2015-06-11T06:54:48Z</time>
      </trkpt>
      <trkpt lat="45.4322" lon="5.89702">
        <ele>1379.476599725</ele>
        <time>2015-06-11T06:54:53Z</time>
      </trkpt>
      <trkpt lat="45.43215" lon="5.89698">
        <ele>1379.939823308</ele>
        <time>2015-06-11T06:54:58Z</time>
      </trkpt>
      <trkpt lat="45.43208" lon="5.89696">
        <ele>1379.939823308</ele>
        <time>2015-06-11T06:55:03Z</time>
      </trkpt>
      <trkpt lat="45.43204" lon="5.89691">
        <ele>1380.575932593</ele>
        <time>2015-06-11T06:55:08Z</time>
      </trkpt>
      <trkpt lat="45.43201" lon="5.8969">
        <ele>1380.575932593</ele>
        <time>2015-06-11T06:55:13Z</time>
      </trkpt>
      <trkpt lat="45.432" lon="5.89691">
        <ele>1380.575932593</ele>
        <time>2015-06-11T06:55:18Z</time>
      </trkpt>
      <trkpt lat="45.43201" lon="5.89689">
        <ele>1380.575932593</ele>
        <time>2015-06-11T06:55:23Z</time>
      </trkpt>
      <trkpt lat="45.43202" lon="5.89688">
        <ele>1380.575932593</ele>
        <time>2015-06-11T06:55:28Z</time>
      </trkpt>
      <trkpt lat="45.43202" lon="5.89688">
        <ele>1380.575932593</ele>
        <time>2015-06-11T06:55:33Z</time>
      </trkpt>
      <trkpt lat="45.43202" lon="5.89688">
        <ele>1380.575932593</ele>
        <time>2015-06-11T06:55:38Z</time>
      </trkpt>
      <trkpt lat="45.43202" lon="5.89688">
        <ele>1380.575932593</ele>
        <time>2015-06-11T06:55:43Z</time>
      </trkpt>
      <trkpt lat="45.43202" lon="5.89688">
        <ele>1380.575932593</ele>
        <time>2015-06-11T06:55:48Z</time>
      </trkpt>
      <trkpt lat="45.432" lon="5.89683">
        <ele>1380.94241515</ele>
        <time>2015-06-11T06:55:53Z</time>
      </trkpt>
      <trkpt lat="45.43197" lon="5.89684">
        <ele>1380.94241515</ele>
        <time>2015-06-11T06:55:58Z</time>
      </trkpt>
      <trkpt lat="45.43196" lon="5.89686">
        <ele>1380.94241515</ele>
        <time>2015-06-11T06:56:03Z</time>
      </trkpt>
      <trkpt lat="45.43196" lon="5.89686">
        <ele>1380.94241515</ele>
        <time>2015-06-11T06:56:08Z</time>
      </trkpt>
      <trkpt lat="45.43197" lon="5.89686">
        <ele>1380.94241515</ele>
        <time>2015-06-11T06:56:13Z</time>
      </trkpt>
      <trkpt lat="45.43197" lon="5.89685">
        <ele>1380.94241515</ele>
        <time>2015-06-11T06:56:17Z</time>
      </trkpt>
      <trkpt lat="45.43196" lon="5.89685">
        <ele>1380.94241515</ele>
        <time>2015-06-11T06:56:22Z</time>
      </trkpt>
      <trkpt lat="45.43196" lon="5.89685">
        <ele>1380.94241515</ele>
        <time>2015-06-11T06:56:27Z</time>
      </trkpt>
      <trkpt lat="45.43196" lon="5.89685">
        <ele>1380.94241515</ele>
        <time>2015-06-11T06:56:32Z</time>
      </trkpt>
      <trkpt lat="45.43196" lon="5.89685">
        <ele>1380.94241515</ele>
        <time>2015-06-11T06:56:37Z</time>
      </trkpt>
      <trkpt lat="45.43197" lon="5.89687">
        <ele>1380.94241515</ele>
        <time>2015-06-11T06:56:42Z</time>
      </trkpt>
      <trkpt lat="45.43196" lon="5.89687">
        <ele>1381.062263862</ele>
        <time>2015-06-11T06:56:47Z</time>
      </trkpt>
      <trkpt lat="45.43195" lon="5.89687">
        <ele>1381.062263862</ele>
        <time>2015-06-11T06:56:52Z</time>
      </trkpt>
      <trkpt lat="45.43195" lon="5.89687">
        <ele>1381.062263862</ele>
        <time>2015-06-11T06:56:58Z</time>
      </trkpt>
      <trkpt lat="45.43196" lon="5.89684">
        <ele>1381.062263862</ele>
        <time>2015-06-11T06:57:02Z</time>
      </trkpt>
      <trkpt lat="45.43196" lon="5.89683">
        <ele>1381.062263862</ele>
        <time>2015-06-11T06:57:07Z</time>
      </trkpt>
      <trkpt lat="45.43196" lon="5.8968">
        <ele>1381.062263862</ele>
        <time>2015-06-11T06:57:12Z</time>
      </trkpt>
      <trkpt lat="45.43196" lon="5.89678">
        <ele>1381.062263862</ele>
        <time>2015-06-11T06:57:17Z</time>
      </trkpt>
      <trkpt lat="45.43195" lon="5.89685">
        <ele>1382.686717036</ele>
        <time>2015-06-11T06:57:22Z</time>
      </trkpt>
      <trkpt lat="45.43196" lon="5.89682">
        <ele>1382.686717036</ele>
        <time>2015-06-11T06:57:27Z</time>
      </trkpt>
      <trkpt lat="45.43196" lon="5.89682">
        <ele>1382.686717036</ele>
        <time>2015-06-11T06:57:34Z</time>
      </trkpt>
      <trkpt lat="45.43196" lon="5.89682">
        <ele>1382.686717036</ele>
        <time>2015-06-11T06:57:37Z</time>
      </trkpt>
      <trkpt lat="45.43197" lon="5.89682">
        <ele>1382.686717036</ele>
        <time>2015-06-11T06:57:43Z</time>
      </trkpt>
      <trkpt lat="45.43197" lon="5.89682">
        <ele>1382.686717036</ele>
        <time>2015-06-11T06:57:47Z</time>
      </trkpt>
      <trkpt lat="45.43197" lon="5.89682">
        <ele>1382.686717036</ele>
        <time>2015-06-11T06:57:53Z</time>
      </trkpt>
      <trkpt lat="45.43197" lon="5.89682">
        <ele>1382.686717036</ele>
        <time>2015-06-11T06:57:58Z</time>
      </trkpt>
      <trkpt lat="45.43197" lon="5.89682">
        <ele>1382.686717036</ele>
        <time>2015-06-11T06:58:03Z</time>
      </trkpt>
      <trkpt lat="45.43197" lon="5.89682">
        <ele>1382.686717036</ele>
        <time>2015-06-11T06:58:09Z</time>
      </trkpt>
      <trkpt lat="45.43197" lon="5.89682">
        <ele>1382.686717036</ele>
        <time>2015-06-11T06:58:13Z</time>
      </trkpt>
      <trkpt lat="45.43197" lon="5.89682">
        <ele>1382.686717036</ele>
        <time>2015-06-11T06:58:19Z</time>
      </trkpt>
      <trkpt lat="45.43197" lon="5.89682">
        <ele>1382.686717036</ele>
        <time>2015-06-11T06:58:24Z</time>
      </trkpt>
      <trkpt lat="45.43197" lon="5.89682">
        <ele>1382.686717036</ele>
        <time>2015-06-11T06:58:28Z</time>
      </trkpt>
      <trkpt lat="45.43199" lon="5.89682">
        <ele>1382.686717036</ele>
        <time>2015-06-11T06:58:33Z</time>
      </trkpt>
      <trkpt lat="45.432" lon="5.89683">
        <ele>1382.686717036</ele>
        <time>2015-06-11T06:58:39Z</time>
      </trkpt>
      <trkpt lat="45.43201" lon="5.89683">
        <ele>1382.686717036</ele>
        <time>2015-06-11T06:58:44Z</time>
      </trkpt>
      <trkpt lat="45.43201" lon="5.89682">
        <ele>1382.686717036</ele>
        <time>2015-06-11T06:58:49Z</time>
      </trkpt>
      <trkpt lat="45.43201" lon="5.89683">
        <ele>1382.686717036</ele>
        <time>2015-06-11T06:58:54Z</time>
      </trkpt>
      <trkpt lat="45.43201" lon="5.89682">
        <ele>1382.686717036</ele>
        <time>2015-06-11T06:58:59Z</time>
      </trkpt>
      <trkpt lat="45.43201" lon="5.89682">
        <ele>1382.686717036</ele>
        <time>2015-06-11T06:59:03Z</time>
      </trkpt>
      <trkpt lat="45.43201" lon="5.89682">
        <ele>1382.686717036</ele>
        <time>2015-06-11T06:59:09Z</time>
      </trkpt>
      <trkpt lat="45.43201" lon="5.89682">
        <ele>1382.686717036</ele>
        <time>2015-06-11T06:59:14Z</time>
      </trkpt>
      <trkpt lat="45.43201" lon="5.89682">
        <ele>1382.686717036</ele>
        <time>2015-06-11T06:59:18Z</time>
      </trkpt>
      <trkpt lat="45.43201" lon="5.89682">
        <ele>1382.686717036</ele>
        <time>2015-06-11T06:59:24Z</time>
      </trkpt>
      <trkpt lat="45.43201" lon="5.89682">
        <ele>1382.686717036</ele>
        <time>2015-06-11T06:59:29Z</time>
      </trkpt>
      <trkpt lat="45.43198" lon="5.89685">
        <ele>1383.975388304</ele>
        <time>2015-06-11T06:59:34Z</time>
      </trkpt>
      <trkpt lat="45.43191" lon="5.89693">
        <ele>1383.975388304</ele>
        <time>2015-06-11T06:59:39Z</time>
      </trkpt>
      <trkpt lat="45.4319" lon="5.89695">
        <ele>1384.809161155</ele>
        <time>2015-06-11T06:59:44Z</time>
      </trkpt>
      <trkpt lat="45.43189" lon="5.89698">
        <ele>1384.809161155</ele>
        <time>2015-06-11T06:59:48Z</time>
      </trkpt>
      <trkpt lat="45.43189" lon="5.89698">
        <ele>1384.809161155</ele>
        <time>2015-06-11T06:59:53Z</time>
      </trkpt>
      <trkpt lat="45.43189" lon="5.89698">
        <ele>1384.809161155</ele>
        <time>2015-06-11T06:59:59Z</time>
      </trkpt>
      <trkpt lat="45.43189" lon="5.89698">
        <ele>1384.809161155</ele>
        <time>2015-06-11T07:00:03Z</time>
      </trkpt>
      <trkpt lat="45.43189" lon="5.89698">
        <ele>1384.809161155</ele>
        <time>2015-06-11T07:00:09Z</time>
      </trkpt>
      <trkpt lat="45.43189" lon="5.89698">
        <ele>1384.809161155</ele>
        <time>2015-06-11T07:00:14Z</time>
      </trkpt>
      <trkpt lat="45.43189" lon="5.89697">
        <ele>1384.809161155</ele>
        <time>2015-06-11T07:00:18Z</time>
      </trkpt>
      <trkpt lat="45.43189" lon="5.89697">
        <ele>1384.809161155</ele>
        <time>2015-06-11T07:00:24Z</time>
      </trkpt>
      <trkpt lat="45.43189" lon="5.89697">
        <ele>1384.809161155</ele>
        <time>2015-06-11T07:00:29Z</time>
      </trkpt>
      <trkpt lat="45.43189" lon="5.89697">
        <ele>1384.809161155</ele>
        <time>2015-06-11T07:00:33Z</time>
      </trkpt>
      <trkpt lat="45.43189" lon="5.89697">
        <ele>1384.809161155</ele>
        <time>2015-06-11T07:00:39Z</time>
      </trkpt>
      <trkpt lat="45.43189" lon="5.89698">
        <ele>1384.809161155</ele>
        <time>2015-06-11T07:00:44Z</time>
      </trkpt>
      <trkpt lat="45.43189" lon="5.89702">
        <ele>1384.809161155</ele>
        <time>2015-06-11T07:00:49Z</time>
      </trkpt>
      <trkpt lat="45.43187" lon="5.89714">
        <ele>1385.511193419</ele>
        <time>2015-06-11T07:00:53Z</time>
      </trkpt>
      <trkpt lat="45.43186" lon="5.8972">
        <ele>1385.511193419</ele>
        <time>2015-06-11T07:00:58Z</time>
      </trkpt>
      <trkpt lat="45.43185" lon="5.89721">
        <ele>1385.511193419</ele>
        <time>2015-06-11T07:01:02Z</time>
      </trkpt>
      <trkpt lat="45.43186" lon="5.89721">
        <ele>1385.511193419</ele>
        <time>2015-06-11T07:01:08Z</time>
      </trkpt>
      <trkpt lat="45.43185" lon="5.89721">
        <ele>1385.511193419</ele>
        <time>2015-06-11T07:01:12Z</time>
      </trkpt>
      <trkpt lat="45.43186" lon="5.89721">
        <ele>1385.511193419</ele>
        <time>2015-06-11T07:01:18Z</time>
      </trkpt>
      <trkpt lat="45.43186" lon="5.89721">
        <ele>1385.511193419</ele>
        <time>2015-06-11T07:01:23Z</time>
      </trkpt>
      <trkpt lat="45.43185" lon="5.89721">
        <ele>1385.511193419</ele>
        <time>2015-06-11T07:01:29Z</time>
      </trkpt>
      <trkpt lat="45.43185" lon="5.89721">
        <ele>1385.511193419</ele>
        <time>2015-06-11T07:01:34Z</time>
      </trkpt>
      <trkpt lat="45.43185" lon="5.89722">
        <ele>1385.511193419</ele>
        <time>2015-06-11T07:01:38Z</time>
      </trkpt>
      <trkpt lat="45.43184" lon="5.89726">
        <ele>1386.38119178</ele>
        <time>2015-06-11T07:01:44Z</time>
      </trkpt>
      <trkpt lat="45.43185" lon="5.89729">
        <ele>1386.38119178</ele>
        <time>2015-06-11T07:01:49Z</time>
      </trkpt>
      <trkpt lat="45.43185" lon="5.89733">
        <ele>1386.38119178</ele>
        <time>2015-06-11T07:01:53Z</time>
      </trkpt>
      <trkpt lat="45.43185" lon="5.89734">
        <ele>1386.38119178</ele>
        <time>2015-06-11T07:01:59Z</time>
      </trkpt>
      <trkpt lat="45.43185" lon="5.89734">
        <ele>1386.38119178</ele>
        <time>2015-06-11T07:02:04Z</time>
      </trkpt>
      <trkpt lat="45.43185" lon="5.89734">
        <ele>1386.38119178</ele>
        <time>2015-06-11T07:02:09Z</time>
      </trkpt>
      <trkpt lat="45.43185" lon="5.89734">
        <ele>1386.38119178</ele>
        <time>2015-06-11T07:02:13Z</time>
      </trkpt>
      <trkpt lat="45.43185" lon="5.89734">
        <ele>1386.38119178</ele>
        <time>2015-06-11T07:02:19Z</time>
      </trkpt>
      <trkpt lat="45.43185" lon="5.89734">
        <ele>1386.38119178</ele>
        <time>2015-06-11T07:02:24Z</time>
      </trkpt>
      <trkpt lat="45.43185" lon="5.89734">
        <ele>1386.38119178</ele>
        <time>2015-06-11T07:02:29Z</time>
      </trkpt>
      <trkpt lat="45.43178" lon="5.89743">
        <ele>1387.696296834</ele>
        <time>2015-06-11T07:02:33Z</time>
      </trkpt>
      <trkpt lat="45.43176" lon="5.89743">
        <ele>1387.696296834</ele>
        <time>2015-06-11T07:02:38Z</time>
      </trkpt>
      <trkpt lat="45.43176" lon="5.89745">
        <ele>1387.696296834</ele>
        <time>2015-06-11T07:02:44Z</time>
      </trkpt>
      <trkpt lat="45.43175" lon="5.89745">
        <ele>1387.696296834</ele>
        <time>2015-06-11T07:02:49Z</time>
      </trkpt>
      <trkpt lat="45.43172" lon="5.89746">
        <ele>1387.696296834</ele>
        <time>2015-06-11T07:02:53Z</time>
      </trkpt>
      <trkpt lat="45.4317" lon="5.89751">
        <ele>1389.567856301</ele>
        <time>2015-06-11T07:02:58Z</time>
      </trkpt>
      <trkpt lat="45.43171" lon="5.89754">
        <ele>1389.567856301</ele>
        <time>2015-06-11T07:03:04Z</time>
      </trkpt>
      <trkpt lat="45.43168" lon="5.89755">
        <ele>1389.567856301</ele>
        <time>2015-06-11T07:03:09Z</time>
      </trkpt>
      <trkpt lat="45.43167" lon="5.89754">
        <ele>1389.567856301</ele>
        <time>2015-06-11T07:03:14Z</time>
      </trkpt>
      <trkpt lat="45.43167" lon="5.89754">
        <ele>1389.567856301</ele>
        <time>2015-06-11T07:03:19Z</time>
      </trkpt>
      <trkpt lat="45.43167" lon="5.89754">
        <ele>1389.567856301</ele>
        <time>2015-06-11T07:03:24Z</time>
      </trkpt>
      <trkpt lat="45.43166" lon="5.89756">
        <ele>1392.962078407</ele>
        <time>2015-06-11T07:03:28Z</time>
      </trkpt>
      <trkpt lat="45.43165" lon="5.89756">
        <ele>1392.962078407</ele>
        <time>2015-06-11T07:03:34Z</time>
      </trkpt>
      <trkpt lat="45.43165" lon="5.89755">
        <ele>1392.962078407</ele>
        <time>2015-06-11T07:03:39Z</time>
      </trkpt>
      <trkpt lat="45.43165" lon="5.89758">
        <ele>1392.962078407</ele>
        <time>2015-06-11T07:03:44Z</time>
      </trkpt>
      <trkpt lat="45.43165" lon="5.89758">
        <ele>1392.962078407</ele>
        <time>2015-06-11T07:03:49Z</time>
      </trkpt>
      <trkpt lat="45.43165" lon="5.89758">
        <ele>1392.962078407</ele>
        <time>2015-06-11T07:03:54Z</time>
      </trkpt>
      <trkpt lat="45.43165" lon="5.89758">
        <ele>1392.962078407</ele>
        <time>2015-06-11T07:03:59Z</time>
      </trkpt>
      <trkpt lat="45.43165" lon="5.89758">
        <ele>1392.962078407</ele>
        <time>2015-06-11T07:04:04Z</time>
      </trkpt>
      <trkpt lat="45.43165" lon="5.89758">
        <ele>1392.962078407</ele>
        <time>2015-06-11T07:04:08Z</time>
      </trkpt>
      <trkpt lat="45.43165" lon="5.89758">
        <ele>1392.962078407</ele>
        <time>2015-06-11T07:04:14Z</time>
      </trkpt>
      <trkpt lat="45.43164" lon="5.8976">
        <ele>1392.962078407</ele>
        <time>2015-06-11T07:04:18Z</time>
      </trkpt>
      <trkpt lat="45.43163" lon="5.89763">
        <ele>1392.962078407</ele>
        <time>2015-06-11T07:04:22Z</time>
      </trkpt>
      <trkpt lat="45.43162" lon="5.89763">
        <ele>1397.616982048</ele>
        <time>2015-06-11T07:04:28Z</time>
      </trkpt>
      <trkpt lat="45.43163" lon="5.89765">
        <ele>1397.616982048</ele>
        <time>2015-06-11T07:04:34Z</time>
      </trkpt>
      <trkpt lat="45.43162" lon="5.89765">
        <ele>1397.616982048</ele>
        <time>2015-06-11T07:04:37Z</time>
      </trkpt>
      <trkpt lat="45.43162" lon="5.89766">
        <ele>1397.616982048</ele>
        <time>2015-06-11T07:04:43Z</time>
      </trkpt>
      <trkpt lat="45.43165" lon="5.89773">
        <ele>1397.616982048</ele>
        <time>2015-06-11T07:04:47Z</time>
      </trkpt>
      <trkpt lat="45.43167" lon="5.89774">
        <ele>1401.989262282</ele>
        <time>2015-06-11T07:04:54Z</time>
      </trkpt>
      <trkpt lat="45.43167" lon="5.89776">
        <ele>1401.989262282</ele>
        <time>2015-06-11T07:04:58Z</time>
      </trkpt>
      <trkpt lat="45.43167" lon="5.89775">
        <ele>1401.989262282</ele>
        <time>2015-06-11T07:05:04Z</time>
      </trkpt>
      <trkpt lat="45.43167" lon="5.89775">
        <ele>1401.989262282</ele>
        <time>2015-06-11T07:05:09Z</time>
      </trkpt>
      <trkpt lat="45.43168" lon="5.89775">
        <ele>1401.989262282</ele>
        <time>2015-06-11T07:05:14Z</time>
      </trkpt>
      <trkpt lat="45.43167" lon="5.89778">
        <ele>1401.989262282</ele>
        <time>2015-06-11T07:05:19Z</time>
      </trkpt>
      <trkpt lat="45.43167" lon="5.89778">
        <ele>1401.989262282</ele>
        <time>2015-06-11T07:05:24Z</time>
      </trkpt>
      <trkpt lat="45.43168" lon="5.8978">
        <ele>1401.989262282</ele>
        <time>2015-06-11T07:05:29Z</time>
      </trkpt>
      <trkpt lat="45.43169" lon="5.89782">
        <ele>1401.989262282</ele>
        <time>2015-06-11T07:05:33Z</time>
      </trkpt>
      <trkpt lat="45.4317" lon="5.89783">
        <ele>1407.531995208</ele>
        <time>2015-06-11T07:05:39Z</time>
      </trkpt>
      <trkpt lat="45.43171" lon="5.89783">
        <ele>1407.531995208</ele>
        <time>2015-06-11T07:05:43Z</time>
      </trkpt>
      <trkpt lat="45.4317" lon="5.89783">
        <ele>1407.531995208</ele>
        <time>2015-06-11T07:05:49Z</time>
      </trkpt>
      <trkpt lat="45.43171" lon="5.89785">
        <ele>1407.531995208</ele>
        <time>2015-06-11T07:05:54Z</time>
      </trkpt>
      <trkpt lat="45.43171" lon="5.89785">
        <ele>1407.531995208</ele>
        <time>2015-06-11T07:05:59Z</time>
      </trkpt>
      <trkpt lat="45.43171" lon="5.89787">
        <ele>1407.531995208</ele>
        <time>2015-06-11T07:06:03Z</time>
      </trkpt>
      <trkpt lat="45.43171" lon="5.89787">
        <ele>1407.531995208</ele>
        <time>2015-06-11T07:06:09Z</time>
      </trkpt>
      <trkpt lat="45.43171" lon="5.89788">
        <ele>1407.531995208</ele>
        <time>2015-06-11T07:06:13Z</time>
      </trkpt>
      <trkpt lat="45.43171" lon="5.8979">
        <ele>1407.531995208</ele>
        <time>2015-06-11T07:06:19Z</time>
      </trkpt>
      <trkpt lat="45.43172" lon="5.89794">
        <ele>1412.994254626</ele>
        <time>2015-06-11T07:06:24Z</time>
      </trkpt>
      <trkpt lat="45.43172" lon="5.89801">
        <ele>1412.994254626</ele>
        <time>2015-06-11T07:06:29Z</time>
      </trkpt>
      <trkpt lat="45.4317" lon="5.89804">
        <ele>1412.994254626</ele>
        <time>2015-06-11T07:06:33Z</time>
      </trkpt>
      <trkpt lat="45.4317" lon="5.89804">
        <ele>1412.994254626</ele>
        <time>2015-06-11T07:06:37Z</time>
      </trkpt>
      <trkpt lat="45.4317" lon="5.89804">
        <ele>1412.994254626</ele>
        <time>2015-06-11T07:06:42Z</time>
      </trkpt>
      <trkpt lat="45.4317" lon="5.89804">
        <ele>1412.994254626</ele>
        <time>2015-06-11T07:06:48Z</time>
      </trkpt>
      <trkpt lat="45.43169" lon="5.89804">
        <ele>1412.994254626</ele>
        <time>2015-06-11T07:06:54Z</time>
      </trkpt>
      <trkpt lat="45.43169" lon="5.89805">
        <ele>1418.226065312</ele>
        <time>2015-06-11T07:06:59Z</time>
      </trkpt>
      <trkpt lat="45.43169" lon="5.89805">
        <ele>1418.226065312</ele>
        <time>2015-06-11T07:07:04Z</time>
      </trkpt>
      <trkpt lat="45.43169" lon="5.89805">
        <ele>1418.226065312</ele>
        <time>2015-06-11T07:07:09Z</time>
      </trkpt>
      <trkpt lat="45.43169" lon="5.89805">
        <ele>1418.226065312</ele>
        <time>2015-06-11T07:07:14Z</time>
      </trkpt>
      <trkpt lat="45.43169" lon="5.89805">
        <ele>1418.226065312</ele>
        <time>2015-06-11T07:07:18Z</time>
      </trkpt>
      <trkpt lat="45.43169" lon="5.89805">
        <ele>1418.226065312</ele>
        <time>2015-06-11T07:07:24Z</time>
      </trkpt>
      <trkpt lat="45.43169" lon="5.89805">
        <ele>1418.226065312</ele>
        <time>2015-06-11T07:07:29Z</time>
      </trkpt>
      <trkpt lat="45.43169" lon="5.89805">
        <ele>1418.226065312</ele>
        <time>2015-06-11T07:07:34Z</time>
      </trkpt>
      <trkpt lat="45.43169" lon="5.89805">
        <ele>1418.226065312</ele>
        <time>2015-06-11T07:07:39Z</time>
      </trkpt>
      <trkpt lat="45.43169" lon="5.89805">
        <ele>1418.226065312</ele>
        <time>2015-06-11T07:07:43Z</time>
      </trkpt>
      <trkpt lat="45.43169" lon="5.89805">
        <ele>1418.226065312</ele>
        <time>2015-06-11T07:07:48Z</time>
      </trkpt>
      <trkpt lat="45.43169" lon="5.89805">
        <ele>1418.226065312</ele>
        <time>2015-06-11T07:07:53Z</time>
      </trkpt>
      <trkpt lat="45.43169" lon="5.89805">
        <ele>1418.226065312</ele>
        <time>2015-06-11T07:07:58Z</time>
      </trkpt>
      <trkpt lat="45.43169" lon="5.89805">
        <ele>1418.226065312</ele>
        <time>2015-06-11T07:08:02Z</time>
      </trkpt>
      <trkpt lat="45.43169" lon="5.89805">
        <ele>1418.226065312</ele>
        <time>2015-06-11T07:08:08Z</time>
      </trkpt>
      <trkpt lat="45.43169" lon="5.89805">
        <ele>1418.226065312</ele>
        <time>2015-06-11T07:08:13Z</time>
      </trkpt>
      <trkpt lat="45.43169" lon="5.89805">
        <ele>1418.226065312</ele>
        <time>2015-06-11T07:08:17Z</time>
      </trkpt>
      <trkpt lat="45.43169" lon="5.89805">
        <ele>1418.226065312</ele>
        <time>2015-06-11T07:08:23Z</time>
      </trkpt>
      <trkpt lat="45.43169" lon="5.89805">
        <ele>1418.226065312</ele>
        <time>2015-06-11T07:08:29Z</time>
      </trkpt>
      <trkpt lat="45.4317" lon="5.89805">
        <ele>1418.226065312</ele>
        <time>2015-06-11T07:08:34Z</time>
      </trkpt>
      <trkpt lat="45.4317" lon="5.89805">
        <ele>1418.226065312</ele>
        <time>2015-06-11T07:08:38Z</time>
      </trkpt>
      <trkpt lat="45.4317" lon="5.89805">
        <ele>1418.226065312</ele>
        <time>2015-06-11T07:08:44Z</time>
      </trkpt>
      <trkpt lat="45.4317" lon="5.89805">
        <ele>1418.226065312</ele>
        <time>2015-06-11T07:08:48Z</time>
      </trkpt>
      <trkpt lat="45.4317" lon="5.89805">
        <ele>1418.226065312</ele>
        <time>2015-06-11T07:08:54Z</time>
      </trkpt>
      <trkpt lat="45.4317" lon="5.89805">
        <ele>1418.226065312</ele>
        <time>2015-06-11T07:08:59Z</time>
      </trkpt>
      <trkpt lat="45.4317" lon="5.89805">
        <ele>1418.226065312</ele>
        <time>2015-06-11T07:09:04Z</time>
      </trkpt>
      <trkpt lat="45.4317" lon="5.89805">
        <ele>1418.226065312</ele>
        <time>2015-06-11T07:09:09Z</time>
      </trkpt>
      <trkpt lat="45.4317" lon="5.89805">
        <ele>1418.226065312</ele>
        <time>2015-06-11T07:09:14Z</time>
      </trkpt>
      <trkpt lat="45.4317" lon="5.89805">
        <ele>1418.226065312</ele>
        <time>2015-06-11T07:09:19Z</time>
      </trkpt>
      <trkpt lat="45.4317" lon="5.89805">
        <ele>1418.226065312</ele>
        <time>2015-06-11T07:09:23Z</time>
      </trkpt>
      <trkpt lat="45.4317" lon="5.89805">
        <ele>1418.226065312</ele>
        <time>2015-06-11T07:09:28Z</time>
      </trkpt>
      <trkpt lat="45.4317" lon="5.89805">
        <ele>1418.226065312</ele>
        <time>2015-06-11T07:09:33Z</time>
      </trkpt>
      <trkpt lat="45.4317" lon="5.89805">
        <ele>1418.226065312</ele>
        <time>2015-06-11T07:09:39Z</time>
      </trkpt>
      <trkpt lat="45.4317" lon="5.89805">
        <ele>1418.226065312</ele>
        <time>2015-06-11T07:09:44Z</time>
      </trkpt>
      <trkpt lat="45.43169" lon="5.89805">
        <ele>1418.226065312</ele>
        <time>2015-06-11T07:09:48Z</time>
      </trkpt>
      <trkpt lat="45.43166" lon="5.89816">
        <ele>1423.377421983</ele>
        <time>2015-06-11T07:09:54Z</time>
      </trkpt>
      <trkpt lat="45.43161" lon="5.89828">
        <ele>1428.299415481</ele>
        <time>2015-06-11T07:09:59Z</time>
      </trkpt>
      <trkpt lat="45.43159" lon="5.89834">
        <ele>1428.299415481</ele>
        <time>2015-06-11T07:10:04Z</time>
      </trkpt>
      <trkpt lat="45.4316" lon="5.89833">
        <ele>1428.299415481</ele>
        <time>2015-06-11T07:10:09Z</time>
      </trkpt>
      <trkpt lat="45.4316" lon="5.89834">
        <ele>1428.299415481</ele>
        <time>2015-06-11T07:10:13Z</time>
      </trkpt>
      <trkpt lat="45.4316" lon="5.89834">
        <ele>1428.299415481</ele>
        <time>2015-06-11T07:10:19Z</time>
      </trkpt>
      <trkpt lat="45.4316" lon="5.89834">
        <ele>1428.299415481</ele>
        <time>2015-06-11T07:10:24Z</time>
      </trkpt>
      <trkpt lat="45.4316" lon="5.89834">
        <ele>1428.299415481</ele>
        <time>2015-06-11T07:10:28Z</time>
      </trkpt>
      <trkpt lat="45.43159" lon="5.89834">
        <ele>1428.299415481</ele>
        <time>2015-06-11T07:10:34Z</time>
      </trkpt>
      <trkpt lat="45.43159" lon="5.89834">
        <ele>1428.299415481</ele>
        <time>2015-06-11T07:10:39Z</time>
      </trkpt>
      <trkpt lat="45.4316" lon="5.89834">
        <ele>1428.299415481</ele>
        <time>2015-06-11T07:10:44Z</time>
      </trkpt>
      <trkpt lat="45.4316" lon="5.89835">
        <ele>1428.299415481</ele>
        <time>2015-06-11T07:10:49Z</time>
      </trkpt>
      <trkpt lat="45.4316" lon="5.89835">
        <ele>1428.299415481</ele>
        <time>2015-06-11T07:10:53Z</time>
      </trkpt>
      <trkpt lat="45.4316" lon="5.89835">
        <ele>1428.299415481</ele>
        <time>2015-06-11T07:10:59Z</time>
      </trkpt>
      <trkpt lat="45.4316" lon="5.89835">
        <ele>1428.299415481</ele>
        <time>2015-06-11T07:11:04Z</time>
      </trkpt>
      <trkpt lat="45.43158" lon="5.8984">
        <ele>1433.287187562</ele>
        <time>2015-06-11T07:11:08Z</time>
      </trkpt>
      <trkpt lat="45.4316" lon="5.89844">
        <ele>1433.287187562</ele>
        <time>2015-06-11T07:11:14Z</time>
      </trkpt>
      <trkpt lat="45.4316" lon="5.89847">
        <ele>1433.287187562</ele>
        <time>2015-06-11T07:11:18Z</time>
      </trkpt>
      <trkpt lat="45.4316" lon="5.89847">
        <ele>1433.287187562</ele>
        <time>2015-06-11T07:11:22Z</time>
      </trkpt>
      <trkpt lat="45.43165" lon="5.89856">
        <ele>1438.181836864</ele>
        <time>2015-06-11T07:11:28Z</time>
      </trkpt>
      <trkpt lat="45.43164" lon="5.89862">
        <ele>1438.181836864</ele>
        <time>2015-06-11T07:11:33Z</time>
      </trkpt>
      <trkpt lat="45.43164" lon="5.89862">
        <ele>1438.181836864</ele>
        <time>2015-06-11T07:11:38Z</time>
      </trkpt>
      <trkpt lat="45.43164" lon="5.89862">
        <ele>1438.181836864</ele>
        <time>2015-06-11T07:11:43Z</time>
      </trkpt>
      <trkpt lat="45.43164" lon="5.89862">
        <ele>1438.181836864</ele>
        <time>2015-06-11T07:11:47Z</time>
      </trkpt>
      <trkpt lat="45.43164" lon="5.89862">
        <ele>1438.181836864</ele>
        <time>2015-06-11T07:11:54Z</time>
      </trkpt>
      <trkpt lat="45.43164" lon="5.89862">
        <ele>1438.181836864</ele>
        <time>2015-06-11T07:11:59Z</time>
      </trkpt>
      <trkpt lat="45.43164" lon="5.89862">
        <ele>1438.181836864</ele>
        <time>2015-06-11T07:12:04Z</time>
      </trkpt>
      <trkpt lat="45.43164" lon="5.89862">
        <ele>1438.181836864</ele>
        <time>2015-06-11T07:12:09Z</time>
      </trkpt>
      <trkpt lat="45.43164" lon="5.89862">
        <ele>1438.181836864</ele>
        <time>2015-06-11T07:12:13Z</time>
      </trkpt>
      <trkpt lat="45.43164" lon="5.89862">
        <ele>1438.181836864</ele>
        <time>2015-06-11T07:12:18Z</time>
      </trkpt>
      <trkpt lat="45.43159" lon="5.89867">
        <ele>1444.13357233</ele>
        <time>2015-06-11T07:12:24Z</time>
      </trkpt>
      <trkpt lat="45.43164" lon="5.8987">
        <ele>1444.13357233</ele>
        <time>2015-06-11T07:12:29Z</time>
      </trkpt>
      <trkpt lat="45.43166" lon="5.89882">
        <ele>1450.908339341</ele>
        <time>2015-06-11T07:12:34Z</time>
      </trkpt>
      <trkpt lat="45.43165" lon="5.89885">
        <ele>1450.908339341</ele>
        <time>2015-06-11T07:12:39Z</time>
      </trkpt>
      <trkpt lat="45.43163" lon="5.89886">
        <ele>1450.908339341</ele>
        <time>2015-06-11T07:12:44Z</time>
      </trkpt>
      <trkpt lat="45.4316" lon="5.89889">
        <ele>1450.908339341</ele>
        <time>2015-06-11T07:12:49Z</time>
      </trkpt>
      <trkpt lat="45.4316" lon="5.8989">
        <ele>1458.43129785</ele>
        <time>2015-06-11T07:12:54Z</time>
      </trkpt>
      <trkpt lat="45.4316" lon="5.8989">
        <ele>1458.43129785</ele>
        <time>2015-06-11T07:12:57Z</time>
      </trkpt>
      <trkpt lat="45.4316" lon="5.8989">
        <ele>1458.43129785</ele>
        <time>2015-06-11T07:13:02Z</time>
      </trkpt>
      <trkpt lat="45.4316" lon="5.8989">
        <ele>1458.43129785</ele>
        <time>2015-06-11T07:13:08Z</time>
      </trkpt>
      <trkpt lat="45.4316" lon="5.8989">
        <ele>1458.43129785</ele>
        <time>2015-06-11T07:13:14Z</time>
      </trkpt>
      <trkpt lat="45.4316" lon="5.8989">
        <ele>1458.43129785</ele>
        <time>2015-06-11T07:13:19Z</time>
      </trkpt>
      <trkpt lat="45.4316" lon="5.8989">
        <ele>1458.43129785</ele>
        <time>2015-06-11T07:13:24Z</time>
      </trkpt>
      <trkpt lat="45.4316" lon="5.8989">
        <ele>1458.43129785</ele>
        <time>2015-06-11T07:13:28Z</time>
      </trkpt>
      <trkpt lat="45.4316" lon="5.8989">
        <ele>1458.43129785</ele>
        <time>2015-06-11T07:13:32Z</time>
      </trkpt>
      <trkpt lat="45.4316" lon="5.8989">
        <ele>1458.43129785</ele>
        <time>2015-06-11T07:13:38Z</time>
      </trkpt>
      <trkpt lat="45.4316" lon="5.8989">
        <ele>1458.43129785</ele>
        <time>2015-06-11T07:13:44Z</time>
      </trkpt>
      <trkpt lat="45.43155" lon="5.89892">
        <ele>1458.43129785</ele>
        <time>2015-06-11T07:13:49Z</time>
      </trkpt>
      <trkpt lat="45.43153" lon="5.89899">
        <ele>1465.190137276</ele>
        <time>2015-06-11T07:13:54Z</time>
      </trkpt>
      <trkpt lat="45.43155" lon="5.89901">
        <ele>1465.190137276</ele>
        <time>2015-06-11T07:13:59Z</time>
      </trkpt>
      <trkpt lat="45.43155" lon="5.89902">
        <ele>1465.190137276</ele>
        <time>2015-06-11T07:14:04Z</time>
      </trkpt>
      <trkpt lat="45.43154" lon="5.89903">
        <ele>1465.190137276</ele>
        <time>2015-06-11T07:14:09Z</time>
      </trkpt>
      <trkpt lat="45.43154" lon="5.89903">
        <ele>1465.190137276</ele>
        <time>2015-06-11T07:14:13Z</time>
      </trkpt>
      <trkpt lat="45.43155" lon="5.89903">
        <ele>1465.190137276</ele>
        <time>2015-06-11T07:14:18Z</time>
      </trkpt>
      <trkpt lat="45.43155" lon="5.89903">
        <ele>1465.190137276</ele>
        <time>2015-06-11T07:14:24Z</time>
      </trkpt>
      <trkpt lat="45.43155" lon="5.89903">
        <ele>1465.190137276</ele>
        <time>2015-06-11T07:14:29Z</time>
      </trkpt>
      <trkpt lat="45.43155" lon="5.89903">
        <ele>1465.190137276</ele>
        <time>2015-06-11T07:14:33Z</time>
      </trkpt>
      <trkpt lat="45.43155" lon="5.89903">
        <ele>1465.190137276</ele>
        <time>2015-06-11T07:14:39Z</time>
      </trkpt>
      <trkpt lat="45.43155" lon="5.89903">
        <ele>1465.190137276</ele>
        <time>2015-06-11T07:14:44Z</time>
      </trkpt>
      <trkpt lat="45.43153" lon="5.89915">
        <ele>1472.524164308</ele>
        <time>2015-06-11T07:14:48Z</time>
      </trkpt>
      <trkpt lat="45.43151" lon="5.89921">
        <ele>1472.524164308</ele>
        <time>2015-06-11T07:14:53Z</time>
      </trkpt>
      <trkpt lat="45.43149" lon="5.89929">
        <ele>1478.502532048</ele>
        <time>2015-06-11T07:14:59Z</time>
      </trkpt>
      <trkpt lat="45.43146" lon="5.89928">
        <ele>1478.502532048</ele>
        <time>2015-06-11T07:15:02Z</time>
      </trkpt>
      <trkpt lat="45.43146" lon="5.8993">
        <ele>1478.502532048</ele>
        <time>2015-06-11T07:15:07Z</time>
      </trkpt>
      <trkpt lat="45.43145" lon="5.8993">
        <ele>1478.502532048</ele>
        <time>2015-06-11T07:15:13Z</time>
      </trkpt>
      <trkpt lat="45.43145" lon="5.8993">
        <ele>1478.502532048</ele>
        <time>2015-06-11T07:15:18Z</time>
      </trkpt>
      <trkpt lat="45.43145" lon="5.8993">
        <ele>1478.502532048</ele>
        <time>2015-06-11T07:15:22Z</time>
      </trkpt>
      <trkpt lat="45.43145" lon="5.8993">
        <ele>1478.502532048</ele>
        <time>2015-06-11T07:15:27Z</time>
      </trkpt>
      <trkpt lat="45.43145" lon="5.8993">
        <ele>1478.502532048</ele>
        <time>2015-06-11T07:15:34Z</time>
      </trkpt>
      <trkpt lat="45.43145" lon="5.8993">
        <ele>1478.502532048</ele>
        <time>2015-06-11T07:15:39Z</time>
      </trkpt>
      <trkpt lat="45.43145" lon="5.8993">
        <ele>1478.502532048</ele>
        <time>2015-06-11T07:15:44Z</time>
      </trkpt>
      <trkpt lat="45.43145" lon="5.8993">
        <ele>1478.502532048</ele>
        <time>2015-06-11T07:15:49Z</time>
      </trkpt>
      <trkpt lat="45.43145" lon="5.8993">
        <ele>1478.502532048</ele>
        <time>2015-06-11T07:15:54Z</time>
      </trkpt>
      <trkpt lat="45.43145" lon="5.8993">
        <ele>1478.502532048</ele>
        <time>2015-06-11T07:15:58Z</time>
      </trkpt>
      <trkpt lat="45.43145" lon="5.8993">
        <ele>1478.502532048</ele>
        <time>2015-06-11T07:16:02Z</time>
      </trkpt>
      <trkpt lat="45.43145" lon="5.8993">
        <ele>1478.502532048</ele>
        <time>2015-06-11T07:16:09Z</time>
      </trkpt>
      <trkpt lat="45.43145" lon="5.8993">
        <ele>1478.502532048</ele>
        <time>2015-06-11T07:16:14Z</time>
      </trkpt>
      <trkpt lat="45.43145" lon="5.8993">
        <ele>1478.502532048</ele>
        <time>2015-06-11T07:16:19Z</time>
      </trkpt>
      <trkpt lat="45.43145" lon="5.8993">
        <ele>1478.502532048</ele>
        <time>2015-06-11T07:16:24Z</time>
      </trkpt>
      <trkpt lat="45.43145" lon="5.8993">
        <ele>1478.502532048</ele>
        <time>2015-06-11T07:16:29Z</time>
      </trkpt>
      <trkpt lat="45.43144" lon="5.89936">
        <ele>1485.087235981</ele>
        <time>2015-06-11T07:16:34Z</time>
      </trkpt>
      <trkpt lat="45.43143" lon="5.8994">
        <ele>1485.087235981</ele>
        <time>2015-06-11T07:16:38Z</time>
      </trkpt>
      <trkpt lat="45.43141" lon="5.89944">
        <ele>1485.087235981</ele>
        <time>2015-06-11T07:16:44Z</time>
      </trkpt>
      <trkpt lat="45.43141" lon="5.89944">
        <ele>1485.087235981</ele>
        <time>2015-06-11T07:16:49Z</time>
      </trkpt>
      <trkpt lat="45.43141" lon="5.89944">
        <ele>1485.087235981</ele>
        <time>2015-06-11T07:16:54Z</time>
      </trkpt>
      <trkpt lat="45.43141" lon="5.89944">
        <ele>1485.087235981</ele>
        <time>2015-06-11T07:16:59Z</time>
      </trkpt>
      <trkpt lat="45.43141" lon="5.89944">
        <ele>1485.087235981</ele>
        <time>2015-06-11T07:17:03Z</time>
      </trkpt>
      <trkpt lat="45.43141" lon="5.89944">
        <ele>1485.087235981</ele>
        <time>2015-06-11T07:17:09Z</time>
      </trkpt>
      <trkpt lat="45.43141" lon="5.89951">
        <ele>1492.221324815</ele>
        <time>2015-06-11T07:17:14Z</time>
      </trkpt>
      <trkpt lat="45.43141" lon="5.89953">
        <ele>1492.221324815</ele>
        <time>2015-06-11T07:17:19Z</time>
      </trkpt>
      <trkpt lat="45.43141" lon="5.8996">
        <ele>1492.221324815</ele>
        <time>2015-06-11T07:17:24Z</time>
      </trkpt>
      <trkpt lat="45.43141" lon="5.89961">
        <ele>1492.221324815</ele>
        <time>2015-06-11T07:17:29Z</time>
      </trkpt>
      <trkpt lat="45.43141" lon="5.89964">
        <ele>1499.130274028</ele>
        <time>2015-06-11T07:17:33Z</time>
      </trkpt>
      <trkpt lat="45.43139" lon="5.89966">
        <ele>1499.130274028</ele>
        <time>2015-06-11T07:17:39Z</time>
      </trkpt>
      <trkpt lat="45.43137" lon="5.89969">
        <ele>1499.130274028</ele>
        <time>2015-06-11T07:17:44Z</time>
      </trkpt>
      <trkpt lat="45.43135" lon="5.89973">
        <ele>1506.538551433</ele>
        <time>2015-06-11T07:17:49Z</time>
      </trkpt>
      <trkpt lat="45.43135" lon="5.89981">
        <ele>1506.538551433</ele>
        <time>2015-06-11T07:17:54Z</time>
      </trkpt>
      <trkpt lat="45.43135" lon="5.89982">
        <ele>1506.538551433</ele>
        <time>2015-06-11T07:17:59Z</time>
      </trkpt>
      <trkpt lat="45.43134" lon="5.89984">
        <ele>1506.538551433</ele>
        <time>2015-06-11T07:18:02Z</time>
      </trkpt>
      <trkpt lat="45.43134" lon="5.89984">
        <ele>1506.538551433</ele>
        <time>2015-06-11T07:18:09Z</time>
      </trkpt>
      <trkpt lat="45.43134" lon="5.89984">
        <ele>1506.538551433</ele>
        <time>2015-06-11T07:18:14Z</time>
      </trkpt>
      <trkpt lat="45.43134" lon="5.89984">
        <ele>1506.538551433</ele>
        <time>2015-06-11T07:18:19Z</time>
      </trkpt>
      <trkpt lat="45.43134" lon="5.89984">
        <ele>1506.538551433</ele>
        <time>2015-06-11T07:18:24Z</time>
      </trkpt>
      <trkpt lat="45.43134" lon="5.89984">
        <ele>1506.538551433</ele>
        <time>2015-06-11T07:18:29Z</time>
      </trkpt>
      <trkpt lat="45.43134" lon="5.89984">
        <ele>1506.538551433</ele>
        <time>2015-06-11T07:18:34Z</time>
      </trkpt>
      <trkpt lat="45.43134" lon="5.89984">
        <ele>1506.538551433</ele>
        <time>2015-06-11T07:18:37Z</time>
      </trkpt>
      <trkpt lat="45.43134" lon="5.89987">
        <ele>1513.819370153</ele>
        <time>2015-06-11T07:18:43Z</time>
      </trkpt>
      <trkpt lat="45.43138" lon="5.89992">
        <ele>1513.819370153</ele>
        <time>2015-06-11T07:18:47Z</time>
      </trkpt>
      <trkpt lat="45.43134" lon="5.89997">
        <ele>1521.257388827</ele>
        <time>2015-06-11T07:18:53Z</time>
      </trkpt>
      <trkpt lat="45.43134" lon="5.89997">
        <ele>1521.257388827</ele>
        <time>2015-06-11T07:18:58Z</time>
      </trkpt>
      <trkpt lat="45.43134" lon="5.89997">
        <ele>1521.257388827</ele>
        <time>2015-06-11T07:19:02Z</time>
      </trkpt>
      <trkpt lat="45.43134" lon="5.89997">
        <ele>1521.257388827</ele>
        <time>2015-06-11T07:19:09Z</time>
      </trkpt>
      <trkpt lat="45.43134" lon="5.89997">
        <ele>1521.257388827</ele>
        <time>2015-06-11T07:19:12Z</time>
      </trkpt>
      <trkpt lat="45.43134" lon="5.89997">
        <ele>1521.257388827</ele>
        <time>2015-06-11T07:19:18Z</time>
      </trkpt>
      <trkpt lat="45.43134" lon="5.89997">
        <ele>1521.257388827</ele>
        <time>2015-06-11T07:19:22Z</time>
      </trkpt>
      <trkpt lat="45.43134" lon="5.89997">
        <ele>1521.257388827</ele>
        <time>2015-06-11T07:19:27Z</time>
      </trkpt>
      <trkpt lat="45.43134" lon="5.89997">
        <ele>1521.257388827</ele>
        <time>2015-06-11T07:19:32Z</time>
      </trkpt>
      <trkpt lat="45.43134" lon="5.89997">
        <ele>1521.257388827</ele>
        <time>2015-06-11T07:19:37Z</time>
      </trkpt>
      <trkpt lat="45.43134" lon="5.89997">
        <ele>1521.257388827</ele>
        <time>2015-06-11T07:19:42Z</time>
      </trkpt>
      <trkpt lat="45.43134" lon="5.89997">
        <ele>1521.257388827</ele>
        <time>2015-06-11T07:19:47Z</time>
      </trkpt>
      <trkpt lat="45.43134" lon="5.89997">
        <ele>1521.257388827</ele>
        <time>2015-06-11T07:19:52Z</time>
      </trkpt>
      <trkpt lat="45.43132" lon="5.90002">
        <ele>1521.257388827</ele>
        <time>2015-06-11T07:19:57Z</time>
      </trkpt>
      <trkpt lat="45.4313" lon="5.90009">
        <ele>1529.116303093</ele>
        <time>2015-06-11T07:20:02Z</time>
      </trkpt>
      <trkpt lat="45.4313" lon="5.90013">
        <ele>1529.116303093</ele>
        <time>2015-06-11T07:20:07Z</time>
      </trkpt>
      <trkpt lat="45.43129" lon="5.90015">
        <ele>1529.116303093</ele>
        <time>2015-06-11T07:20:12Z</time>
      </trkpt>
      <trkpt lat="45.43129" lon="5.90015">
        <ele>1529.116303093</ele>
        <time>2015-06-11T07:20:17Z</time>
      </trkpt>
      <trkpt lat="45.43129" lon="5.90015">
        <ele>1529.116303093</ele>
        <time>2015-06-11T07:20:22Z</time>
      </trkpt>
      <trkpt lat="45.43129" lon="5.90016">
        <ele>1529.116303093</ele>
        <time>2015-06-11T07:20:27Z</time>
      </trkpt>
      <trkpt lat="45.43132" lon="5.90017">
        <ele>1529.116303093</ele>
        <time>2015-06-11T07:20:32Z</time>
      </trkpt>
      <trkpt lat="45.43132" lon="5.9002">
        <ele>1536.630877556</ele>
        <time>2015-06-11T07:20:37Z</time>
      </trkpt>
      <trkpt lat="45.43132" lon="5.90021">
        <ele>1536.630877556</ele>
        <time>2015-06-11T07:20:42Z</time>
      </trkpt>
      <trkpt lat="45.43132" lon="5.90021">
        <ele>1536.630877556</ele>
        <time>2015-06-11T07:20:47Z</time>
      </trkpt>
      <trkpt lat="45.43132" lon="5.90022">
        <ele>1536.630877556</ele>
        <time>2015-06-11T07:20:52Z</time>
      </trkpt>
      <trkpt lat="45.43132" lon="5.90022">
        <ele>1536.630877556</ele>
        <time>2015-06-11T07:20:57Z</time>
      </trkpt>
      <trkpt lat="45.4313" lon="5.90029">
        <ele>1536.630877556</ele>
        <time>2015-06-11T07:21:02Z</time>
      </trkpt>
      <trkpt lat="45.4313" lon="5.90034">
        <ele>1544.534576265</ele>
        <time>2015-06-11T07:21:07Z</time>
      </trkpt>
      <trkpt lat="45.43129" lon="5.90034">
        <ele>1544.534576265</ele>
        <time>2015-06-11T07:21:12Z</time>
      </trkpt>
      <trkpt lat="45.43129" lon="5.90035">
        <ele>1544.534576265</ele>
        <time>2015-06-11T07:21:17Z</time>
      </trkpt>
      <trkpt lat="45.43129" lon="5.90035">
        <ele>1544.534576265</ele>
        <time>2015-06-11T07:21:23Z</time>
      </trkpt>
      <trkpt lat="45.43129" lon="5.90035">
        <ele>1544.534576265</ele>
        <time>2015-06-11T07:21:27Z</time>
      </trkpt>
      <trkpt lat="45.43129" lon="5.90035">
        <ele>1544.534576265</ele>
        <time>2015-06-11T07:21:33Z</time>
      </trkpt>
      <trkpt lat="45.43127" lon="5.90038">
        <ele>1544.534576265</ele>
        <time>2015-06-11T07:21:37Z</time>
      </trkpt>
      <trkpt lat="45.43124" lon="5.90042">
        <ele>1544.534576265</ele>
        <time>2015-06-11T07:21:43Z</time>
      </trkpt>
      <trkpt lat="45.4312" lon="5.90044">
        <ele>1551.776972838</ele>
        <time>2015-06-11T07:21:48Z</time>
      </trkpt>
      <trkpt lat="45.43114" lon="5.90048">
        <ele>1551.776972838</ele>
        <time>2015-06-11T07:21:52Z</time>
      </trkpt>
      <trkpt lat="45.43114" lon="5.90049">
        <ele>1551.776972838</ele>
        <time>2015-06-11T07:21:58Z</time>
      </trkpt>
      <trkpt lat="45.43115" lon="5.90049">
        <ele>1551.776972838</ele>
        <time>2015-06-11T07:22:04Z</time>
      </trkpt>
      <trkpt lat="45.43114" lon="5.90049">
        <ele>1551.776972838</ele>
        <time>2015-06-11T07:22:09Z</time>
      </trkpt>
      <trkpt lat="45.43114" lon="5.90049">
        <ele>1551.776972838</ele>
        <time>2015-06-11T07:22:13Z</time>
      </trkpt>
      <trkpt lat="45.43114" lon="5.90049">
        <ele>1551.776972838</ele>
        <time>2015-06-11T07:22:19Z</time>
      </trkpt>
      <trkpt lat="45.43114" lon="5.90049">
        <ele>1558.82819115</ele>
        <time>2015-06-11T07:22:24Z</time>
      </trkpt>
      <trkpt lat="45.43114" lon="5.90049">
        <ele>1558.82819115</ele>
        <time>2015-06-11T07:22:29Z</time>
      </trkpt>
      <trkpt lat="45.43108" lon="5.90057">
        <ele>1558.82819115</ele>
        <time>2015-06-11T07:22:34Z</time>
      </trkpt>
      <trkpt lat="45.43106" lon="5.90057">
        <ele>1565.260109734</ele>
        <time>2015-06-11T07:22:39Z</time>
      </trkpt>
      <trkpt lat="45.43106" lon="5.90058">
        <ele>1565.260109734</ele>
        <time>2015-06-11T07:22:44Z</time>
      </trkpt>
      <trkpt lat="45.43106" lon="5.90059">
        <ele>1565.260109734</ele>
        <time>2015-06-11T07:22:49Z</time>
      </trkpt>
      <trkpt lat="45.43106" lon="5.90059">
        <ele>1565.260109734</ele>
        <time>2015-06-11T07:22:54Z</time>
      </trkpt>
      <trkpt lat="45.43106" lon="5.90059">
        <ele>1565.260109734</ele>
        <time>2015-06-11T07:22:59Z</time>
      </trkpt>
      <trkpt lat="45.43106" lon="5.90059">
        <ele>1565.260109734</ele>
        <time>2015-06-11T07:23:04Z</time>
      </trkpt>
      <trkpt lat="45.43106" lon="5.90058">
        <ele>1565.260109734</ele>
        <time>2015-06-11T07:23:09Z</time>
      </trkpt>
      <trkpt lat="45.43106" lon="5.90058">
        <ele>1565.260109734</ele>
        <time>2015-06-11T07:23:14Z</time>
      </trkpt>
      <trkpt lat="45.43106" lon="5.90058">
        <ele>1565.260109734</ele>
        <time>2015-06-11T07:23:18Z</time>
      </trkpt>
      <trkpt lat="45.43106" lon="5.90059">
        <ele>1565.260109734</ele>
        <time>2015-06-11T07:23:24Z</time>
      </trkpt>
      <trkpt lat="45.43106" lon="5.90059">
        <ele>1565.260109734</ele>
        <time>2015-06-11T07:23:29Z</time>
      </trkpt>
      <trkpt lat="45.43106" lon="5.90058">
        <ele>1565.260109734</ele>
        <time>2015-06-11T07:23:34Z</time>
      </trkpt>
      <trkpt lat="45.43106" lon="5.90058">
        <ele>1565.260109734</ele>
        <time>2015-06-11T07:23:39Z</time>
      </trkpt>
      <trkpt lat="45.43101" lon="5.90061">
        <ele>1565.260109734</ele>
        <time>2015-06-11T07:23:44Z</time>
      </trkpt>
      <trkpt lat="45.43093" lon="5.90059">
        <ele>1571.398767037</ele>
        <time>2015-06-11T07:23:48Z</time>
      </trkpt>
      <trkpt lat="45.43089" lon="5.9006">
        <ele>1571.398767037</ele>
        <time>2015-06-11T07:23:52Z</time>
      </trkpt>
      <trkpt lat="45.43085" lon="5.9006">
        <ele>1571.398767037</ele>
        <time>2015-06-11T07:23:57Z</time>
      </trkpt>
      <trkpt lat="45.43084" lon="5.9006">
        <ele>1571.398767037</ele>
        <time>2015-06-11T07:24:03Z</time>
      </trkpt>
      <trkpt lat="45.43084" lon="5.90061">
        <ele>1571.398767037</ele>
        <time>2015-06-11T07:24:07Z</time>
      </trkpt>
      <trkpt lat="45.43084" lon="5.9006">
        <ele>1577.403372245</ele>
        <time>2015-06-11T07:24:13Z</time>
      </trkpt>
      <trkpt lat="45.43084" lon="5.9006">
        <ele>1577.403372245</ele>
        <time>2015-06-11T07:24:19Z</time>
      </trkpt>
      <trkpt lat="45.43084" lon="5.9006">
        <ele>1577.403372245</ele>
        <time>2015-06-11T07:24:24Z</time>
      </trkpt>
      <trkpt lat="45.43084" lon="5.9006">
        <ele>1577.403372245</ele>
        <time>2015-06-11T07:24:28Z</time>
      </trkpt>
      <trkpt lat="45.43084" lon="5.9006">
        <ele>1577.403372245</ele>
        <time>2015-06-11T07:24:33Z</time>
      </trkpt>
      <trkpt lat="45.43083" lon="5.9006">
        <ele>1577.403372245</ele>
        <time>2015-06-11T07:24:39Z</time>
      </trkpt>
      <trkpt lat="45.43083" lon="5.90066">
        <ele>1577.403372245</ele>
        <time>2015-06-11T07:24:43Z</time>
      </trkpt>
      <trkpt lat="45.43082" lon="5.9007">
        <ele>1577.403372245</ele>
        <time>2015-06-11T07:24:49Z</time>
      </trkpt>
      <trkpt lat="45.43082" lon="5.90071">
        <ele>1577.403372245</ele>
        <time>2015-06-11T07:24:53Z</time>
      </trkpt>
      <trkpt lat="45.43082" lon="5.90072">
        <ele>1577.403372245</ele>
        <time>2015-06-11T07:24:59Z</time>
      </trkpt>
      <trkpt lat="45.43082" lon="5.90072">
        <ele>1577.403372245</ele>
        <time>2015-06-11T07:25:04Z</time>
      </trkpt>
      <trkpt lat="45.43082" lon="5.90072">
        <ele>1577.403372245</ele>
        <time>2015-06-11T07:25:09Z</time>
      </trkpt>
      <trkpt lat="45.43082" lon="5.90072">
        <ele>1577.403372245</ele>
        <time>2015-06-11T07:25:14Z</time>
      </trkpt>
      <trkpt lat="45.43081" lon="5.90073">
        <ele>1582.845769026</ele>
        <time>2015-06-11T07:25:19Z</time>
      </trkpt>
      <trkpt lat="45.43077" lon="5.90079">
        <ele>1582.845769026</ele>
        <time>2015-06-11T07:25:24Z</time>
      </trkpt>
      <trkpt lat="45.43077" lon="5.90082">
        <ele>1582.845769026</ele>
        <time>2015-06-11T07:25:29Z</time>
      </trkpt>
      <trkpt lat="45.43078" lon="5.90083">
        <ele>1582.845769026</ele>
        <time>2015-06-11T07:25:34Z</time>
      </trkpt>
      <trkpt lat="45.43076" lon="5.90081">
        <ele>1587.907658722</ele>
        <time>2015-06-11T07:25:39Z</time>
      </trkpt>
      <trkpt lat="45.43076" lon="5.90082">
        <ele>1587.907658722</ele>
        <time>2015-06-11T07:25:44Z</time>
      </trkpt>
      <trkpt lat="45.43076" lon="5.90083">
        <ele>1587.907658722</ele>
        <time>2015-06-11T07:25:49Z</time>
      </trkpt>
      <trkpt lat="45.43074" lon="5.90087">
        <ele>1587.907658722</ele>
        <time>2015-06-11T07:25:54Z</time>
      </trkpt>
      <trkpt lat="45.43074" lon="5.90088">
        <ele>1587.907658722</ele>
        <time>2015-06-11T07:25:58Z</time>
      </trkpt>
      <trkpt lat="45.43075" lon="5.90087">
        <ele>1587.907658722</ele>
        <time>2015-06-11T07:26:03Z</time>
      </trkpt>
      <trkpt lat="45.43075" lon="5.90089">
        <ele>1587.907658722</ele>
        <time>2015-06-11T07:26:08Z</time>
      </trkpt>
      <trkpt lat="45.43074" lon="5.90091">
        <ele>1587.907658722</ele>
        <time>2015-06-11T07:26:14Z</time>
      </trkpt>
      <trkpt lat="45.43074" lon="5.90093">
        <ele>1593.479385749</ele>
        <time>2015-06-11T07:26:18Z</time>
      </trkpt>
      <trkpt lat="45.43074" lon="5.90093">
        <ele>1593.479385749</ele>
        <time>2015-06-11T07:26:24Z</time>
      </trkpt>
      <trkpt lat="45.43074" lon="5.90093">
        <ele>1593.479385749</ele>
        <time>2015-06-11T07:26:29Z</time>
      </trkpt>
      <trkpt lat="45.43073" lon="5.90093">
        <ele>1593.479385749</ele>
        <time>2015-06-11T07:26:34Z</time>
      </trkpt>
      <trkpt lat="45.43073" lon="5.90093">
        <ele>1593.479385749</ele>
        <time>2015-06-11T07:26:39Z</time>
      </trkpt>
      <trkpt lat="45.43073" lon="5.90093">
        <ele>1593.479385749</ele>
        <time>2015-06-11T07:26:44Z</time>
      </trkpt>
      <trkpt lat="45.43073" lon="5.90093">
        <ele>1593.479385749</ele>
        <time>2015-06-11T07:26:49Z</time>
      </trkpt>
      <trkpt lat="45.43073" lon="5.90093">
        <ele>1593.479385749</ele>
        <time>2015-06-11T07:26:53Z</time>
      </trkpt>
      <trkpt lat="45.43074" lon="5.90097">
        <ele>1593.479385749</ele>
        <time>2015-06-11T07:26:59Z</time>
      </trkpt>
      <trkpt lat="45.43071" lon="5.90105">
        <ele>1599.087809606</ele>
        <time>2015-06-11T07:27:04Z</time>
      </trkpt>
      <trkpt lat="45.43071" lon="5.90108">
        <ele>1599.087809606</ele>
        <time>2015-06-11T07:27:09Z</time>
      </trkpt>
      <trkpt lat="45.43071" lon="5.90109">
        <ele>1599.087809606</ele>
        <time>2015-06-11T07:27:14Z</time>
      </trkpt>
      <trkpt lat="45.4307" lon="5.90109">
        <ele>1599.087809606</ele>
        <time>2015-06-11T07:27:19Z</time>
      </trkpt>
      <trkpt lat="45.43065" lon="5.90107">
        <ele>1604.438886587</ele>
        <time>2015-06-11T07:27:24Z</time>
      </trkpt>
      <trkpt lat="45.43062" lon="5.90108">
        <ele>1604.438886587</ele>
        <time>2015-06-11T07:27:28Z</time>
      </trkpt>
      <trkpt lat="45.43061" lon="5.90109">
        <ele>1604.438886587</ele>
        <time>2015-06-11T07:27:33Z</time>
      </trkpt>
      <trkpt lat="45.43061" lon="5.90109">
        <ele>1604.438886587</ele>
        <time>2015-06-11T07:27:39Z</time>
      </trkpt>
      <trkpt lat="45.43061" lon="5.9011">
        <ele>1604.438886587</ele>
        <time>2015-06-11T07:27:44Z</time>
      </trkpt>
      <trkpt lat="45.43062" lon="5.9011">
        <ele>1604.438886587</ele>
        <time>2015-06-11T07:27:49Z</time>
      </trkpt>
      <trkpt lat="45.43062" lon="5.9011">
        <ele>1604.438886587</ele>
        <time>2015-06-11T07:27:54Z</time>
      </trkpt>
      <trkpt lat="45.43062" lon="5.9011">
        <ele>1604.438886587</ele>
        <time>2015-06-11T07:27:59Z</time>
      </trkpt>
      <trkpt lat="45.43062" lon="5.9011">
        <ele>1604.438886587</ele>
        <time>2015-06-11T07:28:04Z</time>
      </trkpt>
      <trkpt lat="45.43062" lon="5.9011">
        <ele>1604.438886587</ele>
        <time>2015-06-11T07:28:09Z</time>
      </trkpt>
      <trkpt lat="45.43061" lon="5.90112">
        <ele>1604.438886587</ele>
        <time>2015-06-11T07:28:14Z</time>
      </trkpt>
      <trkpt lat="45.43059" lon="5.90115">
        <ele>1609.837654433</ele>
        <time>2015-06-11T07:28:19Z</time>
      </trkpt>
      <trkpt lat="45.4306" lon="5.90117">
        <ele>1609.837654433</ele>
        <time>2015-06-11T07:28:24Z</time>
      </trkpt>
      <trkpt lat="45.4306" lon="5.90117">
        <ele>1609.837654433</ele>
        <time>2015-06-11T07:28:29Z</time>
      </trkpt>
      <trkpt lat="45.4306" lon="5.90117">
        <ele>1609.837654433</ele>
        <time>2015-06-11T07:28:34Z</time>
      </trkpt>
      <trkpt lat="45.4306" lon="5.90117">
        <ele>1609.837654433</ele>
        <time>2015-06-11T07:28:38Z</time>
      </trkpt>
      <trkpt lat="45.43059" lon="5.90119">
        <ele>1609.837654433</ele>
        <time>2015-06-11T07:28:44Z</time>
      </trkpt>
      <trkpt lat="45.43057" lon="5.90125">
        <ele>1609.837654433</ele>
        <time>2015-06-11T07:28:49Z</time>
      </trkpt>
      <trkpt lat="45.43055" lon="5.90129">
        <ele>1615.134573393</ele>
        <time>2015-06-11T07:28:54Z</time>
      </trkpt>
      <trkpt lat="45.43054" lon="5.90132">
        <ele>1615.134573393</ele>
        <time>2015-06-11T07:28:59Z</time>
      </trkpt>
      <trkpt lat="45.43053" lon="5.90134">
        <ele>1615.134573393</ele>
        <time>2015-06-11T07:29:04Z</time>
      </trkpt>
      <trkpt lat="45.43053" lon="5.90134">
        <ele>1615.134573393</ele>
        <time>2015-06-11T07:29:09Z</time>
      </trkpt>
      <trkpt lat="45.43053" lon="5.90134">
        <ele>1615.134573393</ele>
        <time>2015-06-11T07:29:14Z</time>
      </trkpt>
      <trkpt lat="45.43053" lon="5.90138">
        <ele>1615.134573393</ele>
        <time>2015-06-11T07:29:19Z</time>
      </trkpt>
      <trkpt lat="45.43055" lon="5.90142">
        <ele>1620.479877639</ele>
        <time>2015-06-11T07:29:22Z</time>
      </trkpt>
      <trkpt lat="45.43052" lon="5.90145">
        <ele>1620.479877639</ele>
        <time>2015-06-11T07:29:28Z</time>
      </trkpt>
      <trkpt lat="45.43053" lon="5.90146">
        <ele>1620.479877639</ele>
        <time>2015-06-11T07:29:32Z</time>
      </trkpt>
      <trkpt lat="45.43053" lon="5.90146">
        <ele>1620.479877639</ele>
        <time>2015-06-11T07:29:39Z</time>
      </trkpt>
      <trkpt lat="45.4305" lon="5.90149">
        <ele>1625.580559468</ele>
        <time>2015-06-11T07:29:44Z</time>
      </trkpt>
      <trkpt lat="45.43053" lon="5.9015">
        <ele>1625.580559468</ele>
        <time>2015-06-11T07:29:49Z</time>
      </trkpt>
      <trkpt lat="45.43053" lon="5.90151">
        <ele>1625.580559468</ele>
        <time>2015-06-11T07:29:52Z</time>
      </trkpt>
      <trkpt lat="45.43053" lon="5.90151">
        <ele>1625.580559468</ele>
        <time>2015-06-11T07:29:57Z</time>
      </trkpt>
      <trkpt lat="45.43054" lon="5.90151">
        <ele>1625.580559468</ele>
        <time>2015-06-11T07:30:03Z</time>
      </trkpt>
      <trkpt lat="45.43054" lon="5.90151">
        <ele>1625.580559468</ele>
        <time>2015-06-11T07:30:08Z</time>
      </trkpt>
      <trkpt lat="45.43054" lon="5.90151">
        <ele>1625.580559468</ele>
        <time>2015-06-11T07:30:13Z</time>
      </trkpt>
      <trkpt lat="45.43054" lon="5.90151">
        <ele>1625.580559468</ele>
        <time>2015-06-11T07:30:18Z</time>
      </trkpt>
      <trkpt lat="45.43054" lon="5.90151">
        <ele>1625.580559468</ele>
        <time>2015-06-11T07:30:23Z</time>
      </trkpt>
      <trkpt lat="45.43054" lon="5.90151">
        <ele>1625.580559468</ele>
        <time>2015-06-11T07:30:28Z</time>
      </trkpt>
      <trkpt lat="45.43054" lon="5.90151">
        <ele>1625.580559468</ele>
        <time>2015-06-11T07:30:33Z</time>
      </trkpt>
      <trkpt lat="45.43054" lon="5.90151">
        <ele>1625.580559468</ele>
        <time>2015-06-11T07:30:38Z</time>
      </trkpt>
      <trkpt lat="45.43053" lon="5.90151">
        <ele>1625.580559468</ele>
        <time>2015-06-11T07:30:43Z</time>
      </trkpt>
      <trkpt lat="45.43053" lon="5.90151">
        <ele>1625.580559468</ele>
        <time>2015-06-11T07:30:48Z</time>
      </trkpt>
      <trkpt lat="45.43054" lon="5.90153">
        <ele>1625.580559468</ele>
        <time>2015-06-11T07:30:53Z</time>
      </trkpt>
      <trkpt lat="45.43054" lon="5.90154">
        <ele>1625.580559468</ele>
        <time>2015-06-11T07:30:58Z</time>
      </trkpt>
      <trkpt lat="45.43052" lon="5.90155">
        <ele>1625.580559468</ele>
        <time>2015-06-11T07:31:03Z</time>
      </trkpt>
      <trkpt lat="45.43052" lon="5.90155">
        <ele>1630.742512698</ele>
        <time>2015-06-11T07:31:08Z</time>
      </trkpt>
      <trkpt lat="45.43052" lon="5.90156">
        <ele>1630.742512698</ele>
        <time>2015-06-11T07:31:13Z</time>
      </trkpt>
      <trkpt lat="45.43052" lon="5.90156">
        <ele>1630.742512698</ele>
        <time>2015-06-11T07:31:18Z</time>
      </trkpt>
      <trkpt lat="45.43052" lon="5.90156">
        <ele>1630.742512698</ele>
        <time>2015-06-11T07:31:23Z</time>
      </trkpt>
      <trkpt lat="45.43052" lon="5.90156">
        <ele>1630.742512698</ele>
        <time>2015-06-11T07:31:28Z</time>
      </trkpt>
      <trkpt lat="45.43052" lon="5.90156">
        <ele>1630.742512698</ele>
        <time>2015-06-11T07:31:33Z</time>
      </trkpt>
      <trkpt lat="45.43052" lon="5.90156">
        <ele>1630.742512698</ele>
        <time>2015-06-11T07:31:38Z</time>
      </trkpt>
      <trkpt lat="45.43049" lon="5.90162">
        <ele>1630.742512698</ele>
        <time>2015-06-11T07:31:43Z</time>
      </trkpt>
      <trkpt lat="45.43054" lon="5.90166">
        <ele>1635.384550068</ele>
        <time>2015-06-11T07:31:48Z</time>
      </trkpt>
      <trkpt lat="45.43054" lon="5.90169">
        <ele>1635.384550068</ele>
        <time>2015-06-11T07:31:53Z</time>
      </trkpt>
      <trkpt lat="45.43054" lon="5.90167">
        <ele>1635.384550068</ele>
        <time>2015-06-11T07:31:58Z</time>
      </trkpt>
      <trkpt lat="45.43053" lon="5.9017">
        <ele>1635.384550068</ele>
        <time>2015-06-11T07:32:03Z</time>
      </trkpt>
      <trkpt lat="45.43052" lon="5.90172">
        <ele>1635.384550068</ele>
        <time>2015-06-11T07:32:08Z</time>
      </trkpt>
      <trkpt lat="45.4305" lon="5.90173">
        <ele>1640.699182093</ele>
        <time>2015-06-11T07:32:13Z</time>
      </trkpt>
      <trkpt lat="45.4305" lon="5.90171">
        <ele>1640.699182093</ele>
        <time>2015-06-11T07:32:18Z</time>
      </trkpt>
      <trkpt lat="45.4305" lon="5.90171">
        <ele>1640.699182093</ele>
        <time>2015-06-11T07:32:23Z</time>
      </trkpt>
      <trkpt lat="45.4305" lon="5.90171">
        <ele>1640.699182093</ele>
        <time>2015-06-11T07:32:28Z</time>
      </trkpt>
      <trkpt lat="45.43049" lon="5.90172">
        <ele>1640.699182093</ele>
        <time>2015-06-11T07:32:33Z</time>
      </trkpt>
      <trkpt lat="45.43048" lon="5.90173">
        <ele>1640.699182093</ele>
        <time>2015-06-11T07:32:38Z</time>
      </trkpt>
      <trkpt lat="45.43049" lon="5.90173">
        <ele>1640.699182093</ele>
        <time>2015-06-11T07:32:43Z</time>
      </trkpt>
      <trkpt lat="45.43049" lon="5.90173">
        <ele>1640.699182093</ele>
        <time>2015-06-11T07:32:47Z</time>
      </trkpt>
      <trkpt lat="45.43048" lon="5.90174">
        <ele>1640.699182093</ele>
        <time>2015-06-11T07:32:53Z</time>
      </trkpt>
      <trkpt lat="45.43048" lon="5.90174">
        <ele>1640.699182093</ele>
        <time>2015-06-11T07:32:58Z</time>
      </trkpt>
      <trkpt lat="45.43048" lon="5.90174">
        <ele>1640.699182093</ele>
        <time>2015-06-11T07:33:03Z</time>
      </trkpt>
      <trkpt lat="45.43049" lon="5.90176">
        <ele>1640.699182093</ele>
        <time>2015-06-11T07:33:08Z</time>
      </trkpt>
      <trkpt lat="45.43048" lon="5.90177">
        <ele>1640.699182093</ele>
        <time>2015-06-11T07:33:13Z</time>
      </trkpt>
      <trkpt lat="45.43047" lon="5.90178">
        <ele>1640.699182093</ele>
        <time>2015-06-11T07:33:18Z</time>
      </trkpt>
      <trkpt lat="45.43047" lon="5.90178">
        <ele>1645.916180864</ele>
        <time>2015-06-11T07:33:23Z</time>
      </trkpt>
      <trkpt lat="45.4305" lon="5.90181">
        <ele>1645.916180864</ele>
        <time>2015-06-11T07:33:28Z</time>
      </trkpt>
      <trkpt lat="45.4305" lon="5.90186">
        <ele>1645.916180864</ele>
        <time>2015-06-11T07:33:33Z</time>
      </trkpt>
      <trkpt lat="45.43052" lon="5.90186">
        <ele>1645.916180864</ele>
        <time>2015-06-11T07:33:38Z</time>
      </trkpt>
      <trkpt lat="45.4305" lon="5.9019">
        <ele>1649.745904564</ele>
        <time>2015-06-11T07:33:43Z</time>
      </trkpt>
      <trkpt lat="45.4305" lon="5.90192">
        <ele>1649.745904564</ele>
        <time>2015-06-11T07:33:48Z</time>
      </trkpt>
      <trkpt lat="45.4305" lon="5.90193">
        <ele>1649.745904564</ele>
        <time>2015-06-11T07:33:53Z</time>
      </trkpt>
      <trkpt lat="45.43051" lon="5.90192">
        <ele>1649.745904564</ele>
        <time>2015-06-11T07:33:58Z</time>
      </trkpt>
      <trkpt lat="45.43051" lon="5.90192">
        <ele>1649.745904564</ele>
        <time>2015-06-11T07:34:03Z</time>
      </trkpt>
      <trkpt lat="45.43051" lon="5.90195">
        <ele>1649.745904564</ele>
        <time>2015-06-11T07:34:08Z</time>
      </trkpt>
      <trkpt lat="45.4305" lon="5.902">
        <ele>1649.745904564</ele>
        <time>2015-06-11T07:34:13Z</time>
      </trkpt>
      <trkpt lat="45.43051" lon="5.90202">
        <ele>1653.015052286</ele>
        <time>2015-06-11T07:34:18Z</time>
      </trkpt>
      <trkpt lat="45.4305" lon="5.90203">
        <ele>1653.015052286</ele>
        <time>2015-06-11T07:34:23Z</time>
      </trkpt>
      <trkpt lat="45.4305" lon="5.90204">
        <ele>1653.015052286</ele>
        <time>2015-06-11T07:34:28Z</time>
      </trkpt>
      <trkpt lat="45.4305" lon="5.90204">
        <ele>1653.015052286</ele>
        <time>2015-06-11T07:34:33Z</time>
      </trkpt>
      <trkpt lat="45.43047" lon="5.90207">
        <ele>1653.015052286</ele>
        <time>2015-06-11T07:34:38Z</time>
      </trkpt>
      <trkpt lat="45.43047" lon="5.9021">
        <ele>1653.015052286</ele>
        <time>2015-06-11T07:34:43Z</time>
      </trkpt>
      <trkpt lat="45.43045" lon="5.90211">
        <ele>1656.058967817</ele>
        <time>2015-06-11T07:34:48Z</time>
      </trkpt>
      <trkpt lat="45.43046" lon="5.90213">
        <ele>1656.058967817</ele>
        <time>2015-06-11T07:34:53Z</time>
      </trkpt>
      <trkpt lat="45.43045" lon="5.90215">
        <ele>1656.058967817</ele>
        <time>2015-06-11T07:34:58Z</time>
      </trkpt>
      <trkpt lat="45.43047" lon="5.90218">
        <ele>1656.058967817</ele>
        <time>2015-06-11T07:35:03Z</time>
      </trkpt>
      <trkpt lat="45.43047" lon="5.90218">
        <ele>1656.058967817</ele>
        <time>2015-06-11T07:35:08Z</time>
      </trkpt>
      <trkpt lat="45.43046" lon="5.90219">
        <ele>1656.058967817</ele>
        <time>2015-06-11T07:35:13Z</time>
      </trkpt>
      <trkpt lat="45.43044" lon="5.90221">
        <ele>1660.197881981</ele>
        <time>2015-06-11T07:35:18Z</time>
      </trkpt>
      <trkpt lat="45.43044" lon="5.9022">
        <ele>1660.197881981</ele>
        <time>2015-06-11T07:35:23Z</time>
      </trkpt>
      <trkpt lat="45.43045" lon="5.9022">
        <ele>1660.197881981</ele>
        <time>2015-06-11T07:35:28Z</time>
      </trkpt>
      <trkpt lat="45.43045" lon="5.9022">
        <ele>1660.197881981</ele>
        <time>2015-06-11T07:35:33Z</time>
      </trkpt>
      <trkpt lat="45.43045" lon="5.9022">
        <ele>1660.197881981</ele>
        <time>2015-06-11T07:35:38Z</time>
      </trkpt>
      <trkpt lat="45.43045" lon="5.9022">
        <ele>1660.197881981</ele>
        <time>2015-06-11T07:35:43Z</time>
      </trkpt>
      <trkpt lat="45.43045" lon="5.90221">
        <ele>1660.197881981</ele>
        <time>2015-06-11T07:35:48Z</time>
      </trkpt>
      <trkpt lat="45.43043" lon="5.90227">
        <ele>1660.197881981</ele>
        <time>2015-06-11T07:35:53Z</time>
      </trkpt>
      <trkpt lat="45.43043" lon="5.90229">
        <ele>1660.197881981</ele>
        <time>2015-06-11T07:35:58Z</time>
      </trkpt>
      <trkpt lat="45.43043" lon="5.90231">
        <ele>1660.197881981</ele>
        <time>2015-06-11T07:36:02Z</time>
      </trkpt>
      <trkpt lat="45.43039" lon="5.90232">
        <ele>1664.490390562</ele>
        <time>2015-06-11T07:36:08Z</time>
      </trkpt>
      <trkpt lat="45.4304" lon="5.90233">
        <ele>1664.490390562</ele>
        <time>2015-06-11T07:36:12Z</time>
      </trkpt>
      <trkpt lat="45.43039" lon="5.90234">
        <ele>1664.490390562</ele>
        <time>2015-06-11T07:36:18Z</time>
      </trkpt>
      <trkpt lat="45.43039" lon="5.90234">
        <ele>1664.490390562</ele>
        <time>2015-06-11T07:36:22Z</time>
      </trkpt>
      <trkpt lat="45.43038" lon="5.90235">
        <ele>1664.490390562</ele>
        <time>2015-06-11T07:36:27Z</time>
      </trkpt>
      <trkpt lat="45.43039" lon="5.90234">
        <ele>1664.490390562</ele>
        <time>2015-06-11T07:36:32Z</time>
      </trkpt>
      <trkpt lat="45.43039" lon="5.90233">
        <ele>1664.490390562</ele>
        <time>2015-06-11T07:36:37Z</time>
      </trkpt>
      <trkpt lat="45.43039" lon="5.90232">
        <ele>1664.490390562</ele>
        <time>2015-06-11T07:36:42Z</time>
      </trkpt>
      <trkpt lat="45.43039" lon="5.90234">
        <ele>1664.490390562</ele>
        <time>2015-06-11T07:36:47Z</time>
      </trkpt>
      <trkpt lat="45.43038" lon="5.90233">
        <ele>1664.490390562</ele>
        <time>2015-06-11T07:36:54Z</time>
      </trkpt>
      <trkpt lat="45.43039" lon="5.90234">
        <ele>1664.490390562</ele>
        <time>2015-06-11T07:36:59Z</time>
      </trkpt>
      <trkpt lat="45.43039" lon="5.90233">
        <ele>1664.490390562</ele>
        <time>2015-06-11T07:37:02Z</time>
      </trkpt>
      <trkpt lat="45.43039" lon="5.90233">
        <ele>1664.490390562</ele>
        <time>2015-06-11T07:37:07Z</time>
      </trkpt>
      <trkpt lat="45.43039" lon="5.90233">
        <ele>1664.490390562</ele>
        <time>2015-06-11T07:37:12Z</time>
      </trkpt>
      <trkpt lat="45.43039" lon="5.90233">
        <ele>1664.490390562</ele>
        <time>2015-06-11T07:37:17Z</time>
      </trkpt>
      <trkpt lat="45.43039" lon="5.9023">
        <ele>1670.657884582</ele>
        <time>2015-06-11T07:37:22Z</time>
      </trkpt>
      <trkpt lat="45.43043" lon="5.90232">
        <ele>1670.657884582</ele>
        <time>2015-06-11T07:37:27Z</time>
      </trkpt>
      <trkpt lat="45.43043" lon="5.90231">
        <ele>1670.657884582</ele>
        <time>2015-06-11T07:37:32Z</time>
      </trkpt>
      <trkpt lat="45.43043" lon="5.90232">
        <ele>1670.657884582</ele>
        <time>2015-06-11T07:37:37Z</time>
      </trkpt>
      <trkpt lat="45.43044" lon="5.90233">
        <ele>1670.657884582</ele>
        <time>2015-06-11T07:37:43Z</time>
      </trkpt>
      <trkpt lat="45.43043" lon="5.90233">
        <ele>1670.657884582</ele>
        <time>2015-06-11T07:37:49Z</time>
      </trkpt>
      <trkpt lat="45.43043" lon="5.90233">
        <ele>1670.657884582</ele>
        <time>2015-06-11T07:37:54Z</time>
      </trkpt>
      <trkpt lat="45.43043" lon="5.90233">
        <ele>1675.678541924</ele>
        <time>2015-06-11T07:37:59Z</time>
      </trkpt>
      <trkpt lat="45.43042" lon="5.90233">
        <ele>1675.678541924</ele>
        <time>2015-06-11T07:38:04Z</time>
      </trkpt>
      <trkpt lat="45.43041" lon="5.90234">
        <ele>1675.678541924</ele>
        <time>2015-06-11T07:38:09Z</time>
      </trkpt>
      <trkpt lat="45.4304" lon="5.90236">
        <ele>1675.678541924</ele>
        <time>2015-06-11T07:38:13Z</time>
      </trkpt>
      <trkpt lat="45.43039" lon="5.90238">
        <ele>1675.678541924</ele>
        <time>2015-06-11T07:38:19Z</time>
      </trkpt>
      <trkpt lat="45.43038" lon="5.90239">
        <ele>1675.678541924</ele>
        <time>2015-06-11T07:38:24Z</time>
      </trkpt>
      <trkpt lat="45.43039" lon="5.90239">
        <ele>1675.678541924</ele>
        <time>2015-06-11T07:38:29Z</time>
      </trkpt>
      <trkpt lat="45.43038" lon="5.9024">
        <ele>1675.678541924</ele>
        <time>2015-06-11T07:38:33Z</time>
      </trkpt>
      <trkpt lat="45.43038" lon="5.90241">
        <ele>1675.678541924</ele>
        <time>2015-06-11T07:38:39Z</time>
      </trkpt>
      <trkpt lat="45.4304" lon="5.90247">
        <ele>1679.061562529</ele>
        <time>2015-06-11T07:38:44Z</time>
      </trkpt>
      <trkpt lat="45.43041" lon="5.90249">
        <ele>1679.061562529</ele>
        <time>2015-06-11T07:38:49Z</time>
      </trkpt>
      <trkpt lat="45.43046" lon="5.90249">
        <ele>1679.061562529</ele>
        <time>2015-06-11T07:38:53Z</time>
      </trkpt>
      <trkpt lat="45.43044" lon="5.90247">
        <ele>1679.061562529</ele>
        <time>2015-06-11T07:38:58Z</time>
      </trkpt>
      <trkpt lat="45.43045" lon="5.90248">
        <ele>1682.374383991</ele>
        <time>2015-06-11T07:39:03Z</time>
      </trkpt>
      <trkpt lat="45.43044" lon="5.90248">
        <ele>1682.374383991</ele>
        <time>2015-06-11T07:39:08Z</time>
      </trkpt>
      <trkpt lat="45.43044" lon="5.90248">
        <ele>1682.374383991</ele>
        <time>2015-06-11T07:39:13Z</time>
      </trkpt>
      <trkpt lat="45.43044" lon="5.90248">
        <ele>1682.374383991</ele>
        <time>2015-06-11T07:39:19Z</time>
      </trkpt>
      <trkpt lat="45.43045" lon="5.90251">
        <ele>1682.374383991</ele>
        <time>2015-06-11T07:39:22Z</time>
      </trkpt>
      <trkpt lat="45.43048" lon="5.90252">
        <ele>1682.374383991</ele>
        <time>2015-06-11T07:39:27Z</time>
      </trkpt>
      <trkpt lat="45.4305" lon="5.90255">
        <ele>1685.340182617</ele>
        <time>2015-06-11T07:39:33Z</time>
      </trkpt>
      <trkpt lat="45.43051" lon="5.90255">
        <ele>1685.340182617</ele>
        <time>2015-06-11T07:39:37Z</time>
      </trkpt>
      <trkpt lat="45.43056" lon="5.90257">
        <ele>1685.340182617</ele>
        <time>2015-06-11T07:39:43Z</time>
      </trkpt>
      <trkpt lat="45.43056" lon="5.90259">
        <ele>1685.340182617</ele>
        <time>2015-06-11T07:39:49Z</time>
      </trkpt>
      <trkpt lat="45.4306" lon="5.90261">
        <ele>1687.847553783</ele>
        <time>2015-06-11T07:39:54Z</time>
      </trkpt>
      <trkpt lat="45.43064" lon="5.90263">
        <ele>1687.847553783</ele>
        <time>2015-06-11T07:39:59Z</time>
      </trkpt>
      <trkpt lat="45.43068" lon="5.90263">
        <ele>1687.847553783</ele>
        <time>2015-06-11T07:40:04Z</time>
      </trkpt>
      <trkpt lat="45.43069" lon="5.90261">
        <ele>1690.515095895</ele>
        <time>2015-06-11T07:40:09Z</time>
      </trkpt>
      <trkpt lat="45.43071" lon="5.90261">
        <ele>1690.515095895</ele>
        <time>2015-06-11T07:40:13Z</time>
      </trkpt>
      <trkpt lat="45.43073" lon="5.9026">
        <ele>1690.515095895</ele>
        <time>2015-06-11T07:40:19Z</time>
      </trkpt>
      <trkpt lat="45.43076" lon="5.90262">
        <ele>1690.515095895</ele>
        <time>2015-06-11T07:40:24Z</time>
      </trkpt>
      <trkpt lat="45.43077" lon="5.90261">
        <ele>1690.515095895</ele>
        <time>2015-06-11T07:40:29Z</time>
      </trkpt>
      <trkpt lat="45.43077" lon="5.90261">
        <ele>1690.515095895</ele>
        <time>2015-06-11T07:40:33Z</time>
      </trkpt>
      <trkpt lat="45.43079" lon="5.90259">
        <ele>1693.050804955</ele>
        <time>2015-06-11T07:40:39Z</time>
      </trkpt>
      <trkpt lat="45.43082" lon="5.90259">
        <ele>1693.050804955</ele>
        <time>2015-06-11T07:40:44Z</time>
      </trkpt>
      <trkpt lat="45.43084" lon="5.90258">
        <ele>1693.050804955</ele>
        <time>2015-06-11T07:40:49Z</time>
      </trkpt>
      <trkpt lat="45.43086" lon="5.90257">
        <ele>1693.050804955</ele>
        <time>2015-06-11T07:40:54Z</time>
      </trkpt>
      <trkpt lat="45.43089" lon="5.90261">
        <ele>1695.472654051</ele>
        <time>2015-06-11T07:40:58Z</time>
      </trkpt>
      <trkpt lat="45.4309" lon="5.90263">
        <ele>1695.472654051</ele>
        <time>2015-06-11T07:41:03Z</time>
      </trkpt>
      <trkpt lat="45.4309" lon="5.90262">
        <ele>1695.472654051</ele>
        <time>2015-06-11T07:41:08Z</time>
      </trkpt>
      <trkpt lat="45.43093" lon="5.90266">
        <ele>1695.472654051</ele>
        <time>2015-06-11T07:41:14Z</time>
      </trkpt>
      <trkpt lat="45.43098" lon="5.90267">
        <ele>1698.085752323</ele>
        <time>2015-06-11T07:41:19Z</time>
      </trkpt>
      <trkpt lat="45.43099" lon="5.90269">
        <ele>1698.085752323</ele>
        <time>2015-06-11T07:41:24Z</time>
      </trkpt>
      <trkpt lat="45.43099" lon="5.90269">
        <ele>1698.085752323</ele>
        <time>2015-06-11T07:41:29Z</time>
      </trkpt>
      <trkpt lat="45.43099" lon="5.9027">
        <ele>1698.085752323</ele>
        <time>2015-06-11T07:41:34Z</time>
      </trkpt>
      <trkpt lat="45.43099" lon="5.9027">
        <ele>1698.085752323</ele>
        <time>2015-06-11T07:41:39Z</time>
      </trkpt>
      <trkpt lat="45.43099" lon="5.90269">
        <ele>1698.085752323</ele>
        <time>2015-06-11T07:41:44Z</time>
      </trkpt>
      <trkpt lat="45.43101" lon="5.90259">
        <ele>1701.028045143</ele>
        <time>2015-06-11T07:41:49Z</time>
      </trkpt>
      <trkpt lat="45.43105" lon="5.90249">
        <ele>1701.028045143</ele>
        <time>2015-06-11T07:41:53Z</time>
      </trkpt>
      <trkpt lat="45.43109" lon="5.90248">
        <ele>1703.849857701</ele>
        <time>2015-06-11T07:41:59Z</time>
      </trkpt>
      <trkpt lat="45.43111" lon="5.90252">
        <ele>1703.849857701</ele>
        <time>2015-06-11T07:42:04Z</time>
      </trkpt>
      <trkpt lat="45.43113" lon="5.90251">
        <ele>1703.849857701</ele>
        <time>2015-06-11T07:42:08Z</time>
      </trkpt>
      <trkpt lat="45.43113" lon="5.9025">
        <ele>1703.849857701</ele>
        <time>2015-06-11T07:42:13Z</time>
      </trkpt>
      <trkpt lat="45.43113" lon="5.9025">
        <ele>1703.849857701</ele>
        <time>2015-06-11T07:42:19Z</time>
      </trkpt>
      <trkpt lat="45.43113" lon="5.90251">
        <ele>1703.849857701</ele>
        <time>2015-06-11T07:42:23Z</time>
      </trkpt>
      <trkpt lat="45.43113" lon="5.90251">
        <ele>1703.849857701</ele>
        <time>2015-06-11T07:42:29Z</time>
      </trkpt>
      <trkpt lat="45.43113" lon="5.90251">
        <ele>1703.849857701</ele>
        <time>2015-06-11T07:42:34Z</time>
      </trkpt>
      <trkpt lat="45.43113" lon="5.90251">
        <ele>1703.849857701</ele>
        <time>2015-06-11T07:42:38Z</time>
      </trkpt>
      <trkpt lat="45.43113" lon="5.90251">
        <ele>1703.849857701</ele>
        <time>2015-06-11T07:42:43Z</time>
      </trkpt>
      <trkpt lat="45.43113" lon="5.90251">
        <ele>1703.849857701</ele>
        <time>2015-06-11T07:42:47Z</time>
      </trkpt>
      <trkpt lat="45.43113" lon="5.90251">
        <ele>1703.849857701</ele>
        <time>2015-06-11T07:42:53Z</time>
      </trkpt>
      <trkpt lat="45.43113" lon="5.90251">
        <ele>1703.849857701</ele>
        <time>2015-06-11T07:42:58Z</time>
      </trkpt>
      <trkpt lat="45.43113" lon="5.90251">
        <ele>1703.849857701</ele>
        <time>2015-06-11T07:43:04Z</time>
      </trkpt>
      <trkpt lat="45.43113" lon="5.90251">
        <ele>1703.849857701</ele>
        <time>2015-06-11T07:43:09Z</time>
      </trkpt>
      <trkpt lat="45.43113" lon="5.90251">
        <ele>1703.849857701</ele>
        <time>2015-06-11T07:43:14Z</time>
      </trkpt>
      <trkpt lat="45.43113" lon="5.90251">
        <ele>1703.849857701</ele>
        <time>2015-06-11T07:43:19Z</time>
      </trkpt>
      <trkpt lat="45.43113" lon="5.90251">
        <ele>1703.849857701</ele>
        <time>2015-06-11T07:43:24Z</time>
      </trkpt>
      <trkpt lat="45.43113" lon="5.90251">
        <ele>1703.849857701</ele>
        <time>2015-06-11T07:43:29Z</time>
      </trkpt>
      <trkpt lat="45.43113" lon="5.90251">
        <ele>1703.849857701</ele>
        <time>2015-06-11T07:43:34Z</time>
      </trkpt>
      <trkpt lat="45.43113" lon="5.90251">
        <ele>1703.849857701</ele>
        <time>2015-06-11T07:43:39Z</time>
      </trkpt>
      <trkpt lat="45.43113" lon="5.90251">
        <ele>1703.849857701</ele>
        <time>2015-06-11T07:43:43Z</time>
      </trkpt>
      <trkpt lat="45.43113" lon="5.90251">
        <ele>1703.849857701</ele>
        <time>2015-06-11T07:43:48Z</time>
      </trkpt>
      <trkpt lat="45.43113" lon="5.90251">
        <ele>1705.846530213</ele>
        <time>2015-06-11T07:43:54Z</time>
      </trkpt>
      <trkpt lat="45.43113" lon="5.90251">
        <ele>1705.846530213</ele>
        <time>2015-06-11T07:43:59Z</time>
      </trkpt>
      <trkpt lat="45.43113" lon="5.90251">
        <ele>1705.846530213</ele>
        <time>2015-06-11T07:44:04Z</time>
      </trkpt>
      <trkpt lat="45.43113" lon="5.90251">
        <ele>1705.846530213</ele>
        <time>2015-06-11T07:44:09Z</time>
      </trkpt>
      <trkpt lat="45.43113" lon="5.90251">
        <ele>1705.846530213</ele>
        <time>2015-06-11T07:44:14Z</time>
      </trkpt>
      <trkpt lat="45.43104" lon="5.90255">
        <ele>1706.94377746</ele>
        <time>2015-06-11T07:44:19Z</time>
      </trkpt>
      <trkpt lat="45.43091" lon="5.90264">
        <ele>1707.939796012</ele>
        <time>2015-06-11T07:44:24Z</time>
      </trkpt>
      <trkpt lat="45.43088" lon="5.90261">
        <ele>1707.939796012</ele>
        <time>2015-06-11T07:44:29Z</time>
      </trkpt>
      <trkpt lat="45.43085" lon="5.90254">
        <ele>1708.853691498</ele>
        <time>2015-06-11T07:44:33Z</time>
      </trkpt>
      <trkpt lat="45.43082" lon="5.90263">
        <ele>1708.853691498</ele>
        <time>2015-06-11T07:44:39Z</time>
      </trkpt>
      <trkpt lat="45.43082" lon="5.90263">
        <ele>1708.853691498</ele>
        <time>2015-06-11T07:44:44Z</time>
      </trkpt>
      <trkpt lat="45.43082" lon="5.90276">
        <ele>1708.838523815</ele>
        <time>2015-06-11T07:44:49Z</time>
      </trkpt>
      <trkpt lat="45.43078" lon="5.90277">
        <ele>1708.838523815</ele>
        <time>2015-06-11T07:44:54Z</time>
      </trkpt>
      <trkpt lat="45.43071" lon="5.90275">
        <ele>1709.129503962</ele>
        <time>2015-06-11T07:44:59Z</time>
      </trkpt>
      <trkpt lat="45.43066" lon="5.90275">
        <ele>1709.129503962</ele>
        <time>2015-06-11T07:45:04Z</time>
      </trkpt>
      <trkpt lat="45.43063" lon="5.90278">
        <ele>1709.129503962</ele>
        <time>2015-06-11T07:45:09Z</time>
      </trkpt>
      <trkpt lat="45.4306" lon="5.90284">
        <ele>1708.852440571</ele>
        <time>2015-06-11T07:45:14Z</time>
      </trkpt>
      <trkpt lat="45.4306" lon="5.9028">
        <ele>1708.852440571</ele>
        <time>2015-06-11T07:45:18Z</time>
      </trkpt>
      <trkpt lat="45.43059" lon="5.90278">
        <ele>1708.852440571</ele>
        <time>2015-06-11T07:45:24Z</time>
      </trkpt>
      <trkpt lat="45.43059" lon="5.90279">
        <ele>1708.852440571</ele>
        <time>2015-06-11T07:45:29Z</time>
      </trkpt>
      <trkpt lat="45.43059" lon="5.90279">
        <ele>1708.852440571</ele>
        <time>2015-06-11T07:45:34Z</time>
      </trkpt>
      <trkpt lat="45.43059" lon="5.90279">
        <ele>1708.852440571</ele>
        <time>2015-06-11T07:45:39Z</time>
      </trkpt>
      <trkpt lat="45.43059" lon="5.90279">
        <ele>1708.852440571</ele>
        <time>2015-06-11T07:45:44Z</time>
      </trkpt>
      <trkpt lat="45.43059" lon="5.90279">
        <ele>1708.852440571</ele>
        <time>2015-06-11T07:45:49Z</time>
      </trkpt>
      <trkpt lat="45.43059" lon="5.9028">
        <ele>1708.852440571</ele>
        <time>2015-06-11T07:45:54Z</time>
      </trkpt>
      <trkpt lat="45.43058" lon="5.90281">
        <ele>1708.852440571</ele>
        <time>2015-06-11T07:45:58Z</time>
      </trkpt>
      <trkpt lat="45.43058" lon="5.9028">
        <ele>1708.852440571</ele>
        <time>2015-06-11T07:46:03Z</time>
      </trkpt>
      <trkpt lat="45.43058" lon="5.90282">
        <ele>1708.063348431</ele>
        <time>2015-06-11T07:46:09Z</time>
      </trkpt>
      <trkpt lat="45.4306" lon="5.90285">
        <ele>1708.063348431</ele>
        <time>2015-06-11T07:46:12Z</time>
      </trkpt>
      <trkpt lat="45.43058" lon="5.90284">
        <ele>1708.063348431</ele>
        <time>2015-06-11T07:46:18Z</time>
      </trkpt>
      <trkpt lat="45.43058" lon="5.90286">
        <ele>1708.063348431</ele>
        <time>2015-06-11T07:46:22Z</time>
      </trkpt>
      <trkpt lat="45.43058" lon="5.90286">
        <ele>1708.063348431</ele>
        <time>2015-06-11T07:46:30Z</time>
      </trkpt>
      <trkpt lat="45.43058" lon="5.90286">
        <ele>1708.063348431</ele>
        <time>2015-06-11T07:46:33Z</time>
      </trkpt>
      <trkpt lat="45.43058" lon="5.90286">
        <ele>1708.063348431</ele>
        <time>2015-06-11T07:46:39Z</time>
      </trkpt>
      <trkpt lat="45.43058" lon="5.90286">
        <ele>1708.063348431</ele>
        <time>2015-06-11T07:46:44Z</time>
      </trkpt>
      <trkpt lat="45.43058" lon="5.90286">
        <ele>1708.063348431</ele>
        <time>2015-06-11T07:46:49Z</time>
      </trkpt>
      <trkpt lat="45.43058" lon="5.90288">
        <ele>1708.063348431</ele>
        <time>2015-06-11T07:46:53Z</time>
      </trkpt>
      <trkpt lat="45.43058" lon="5.9029">
        <ele>1707.824048495</ele>
        <time>2015-06-11T07:46:59Z</time>
      </trkpt>
      <trkpt lat="45.43059" lon="5.90291">
        <ele>1707.824048495</ele>
        <time>2015-06-11T07:47:04Z</time>
      </trkpt>
      <trkpt lat="45.43058" lon="5.90291">
        <ele>1707.824048495</ele>
        <time>2015-06-11T07:47:09Z</time>
      </trkpt>
      <trkpt lat="45.43055" lon="5.90296">
        <ele>1707.824048495</ele>
        <time>2015-06-11T07:47:14Z</time>
      </trkpt>
      <trkpt lat="45.43055" lon="5.90298">
        <ele>1707.824048495</ele>
        <time>2015-06-11T07:47:19Z</time>
      </trkpt>
      <trkpt lat="45.43054" lon="5.90298">
        <ele>1707.824048495</ele>
        <time>2015-06-11T07:47:24Z</time>
      </trkpt>
      <trkpt lat="45.43054" lon="5.90298">
        <ele>1707.824048495</ele>
        <time>2015-06-11T07:47:29Z</time>
      </trkpt>
      <trkpt lat="45.43054" lon="5.90298">
        <ele>1707.824048495</ele>
        <time>2015-06-11T07:47:34Z</time>
      </trkpt>
      <trkpt lat="45.43054" lon="5.90298">
        <ele>1707.824048495</ele>
        <time>2015-06-11T07:47:38Z</time>
      </trkpt>
      <trkpt lat="45.43052" lon="5.90298">
        <ele>1707.963616258</ele>
        <time>2015-06-11T07:47:44Z</time>
      </trkpt>
      <trkpt lat="45.4305" lon="5.90303">
        <ele>1707.963616258</ele>
        <time>2015-06-11T07:47:49Z</time>
      </trkpt>
      <trkpt lat="45.43039" lon="5.90307">
        <ele>1708.178179123</ele>
        <time>2015-06-11T07:47:54Z</time>
      </trkpt>
      <trkpt lat="45.43033" lon="5.90312">
        <ele>1708.178179123</ele>
        <time>2015-06-11T07:47:59Z</time>
      </trkpt>
      <trkpt lat="45.43036" lon="5.90311">
        <ele>1707.897409635</ele>
        <time>2015-06-11T07:48:04Z</time>
      </trkpt>
      <trkpt lat="45.43035" lon="5.90311">
        <ele>1707.897409635</ele>
        <time>2015-06-11T07:48:09Z</time>
      </trkpt>
      <trkpt lat="45.43034" lon="5.90311">
        <ele>1707.897409635</ele>
        <time>2015-06-11T07:48:14Z</time>
      </trkpt>
      <trkpt lat="45.43033" lon="5.90311">
        <ele>1707.897409635</ele>
        <time>2015-06-11T07:48:18Z</time>
      </trkpt>
      <trkpt lat="45.43032" lon="5.90312">
        <ele>1707.897409635</ele>
        <time>2015-06-11T07:48:23Z</time>
      </trkpt>
      <trkpt lat="45.43031" lon="5.90311">
        <ele>1707.897409635</ele>
        <time>2015-06-11T07:48:28Z</time>
      </trkpt>
      <trkpt lat="45.4303" lon="5.90312">
        <ele>1707.897409635</ele>
        <time>2015-06-11T07:48:33Z</time>
      </trkpt>
      <trkpt lat="45.4303" lon="5.90312">
        <ele>1707.897409635</ele>
        <time>2015-06-11T07:48:39Z</time>
      </trkpt>
      <trkpt lat="45.4303" lon="5.90312">
        <ele>1707.897409635</ele>
        <time>2015-06-11T07:48:42Z</time>
      </trkpt>
      <trkpt lat="45.4303" lon="5.90312">
        <ele>1707.897409635</ele>
        <time>2015-06-11T07:48:48Z</time>
      </trkpt>
      <trkpt lat="45.4303" lon="5.90312">
        <ele>1707.897409635</ele>
        <time>2015-06-11T07:48:52Z</time>
      </trkpt>
      <trkpt lat="45.43025" lon="5.90309">
        <ele>1708.323245387</ele>
        <time>2015-06-11T07:49:00Z</time>
      </trkpt>
      <trkpt lat="45.43026" lon="5.90309">
        <ele>1708.323245387</ele>
        <time>2015-06-11T07:49:03Z</time>
      </trkpt>
      <trkpt lat="45.43024" lon="5.90307">
        <ele>1708.323245387</ele>
        <time>2015-06-11T07:49:09Z</time>
      </trkpt>
      <trkpt lat="45.43024" lon="5.90307">
        <ele>1708.323245387</ele>
        <time>2015-06-11T07:49:14Z</time>
      </trkpt>
      <trkpt lat="45.43024" lon="5.90307">
        <ele>1708.323245387</ele>
        <time>2015-06-11T07:49:19Z</time>
      </trkpt>
      <trkpt lat="45.43023" lon="5.90312">
        <ele>1708.323245387</ele>
        <time>2015-06-11T07:49:24Z</time>
      </trkpt>
      <trkpt lat="45.43023" lon="5.90313">
        <ele>1708.323245387</ele>
        <time>2015-06-11T07:49:29Z</time>
      </trkpt>
      <trkpt lat="45.43023" lon="5.90315">
        <ele>1708.323245387</ele>
        <time>2015-06-11T07:49:34Z</time>
      </trkpt>
      <trkpt lat="45.43023" lon="5.90315">
        <ele>1708.323245387</ele>
        <time>2015-06-11T07:49:39Z</time>
      </trkpt>
      <trkpt lat="45.43023" lon="5.90314">
        <ele>1708.323245387</ele>
        <time>2015-06-11T07:49:44Z</time>
      </trkpt>
      <trkpt lat="45.43023" lon="5.90314">
        <ele>1708.323245387</ele>
        <time>2015-06-11T07:49:49Z</time>
      </trkpt>
      <trkpt lat="45.43023" lon="5.90314">
        <ele>1708.323245387</ele>
        <time>2015-06-11T07:49:54Z</time>
      </trkpt>
      <trkpt lat="45.43021" lon="5.90315">
        <ele>1709.558209369</ele>
        <time>2015-06-11T07:49:59Z</time>
      </trkpt>
      <trkpt lat="45.4302" lon="5.90321">
        <ele>1709.558209369</ele>
        <time>2015-06-11T07:50:04Z</time>
      </trkpt>
      <trkpt lat="45.43019" lon="5.90319">
        <ele>1709.558209369</ele>
        <time>2015-06-11T07:50:09Z</time>
      </trkpt>
      <trkpt lat="45.43019" lon="5.9032">
        <ele>1709.558209369</ele>
        <time>2015-06-11T07:50:14Z</time>
      </trkpt>
      <trkpt lat="45.43019" lon="5.9032">
        <ele>1709.558209369</ele>
        <time>2015-06-11T07:50:18Z</time>
      </trkpt>
      <trkpt lat="45.43013" lon="5.9032">
        <ele>1710.829993004</ele>
        <time>2015-06-11T07:50:24Z</time>
      </trkpt>
      <trkpt lat="45.43012" lon="5.90325">
        <ele>1710.829993004</ele>
        <time>2015-06-11T07:50:29Z</time>
      </trkpt>
      <trkpt lat="45.43011" lon="5.90324">
        <ele>1710.829993004</ele>
        <time>2015-06-11T07:50:34Z</time>
      </trkpt>
      <trkpt lat="45.43011" lon="5.90321">
        <ele>1710.829993004</ele>
        <time>2015-06-11T07:50:39Z</time>
      </trkpt>
      <trkpt lat="45.43011" lon="5.90324">
        <ele>1711.566665454</ele>
        <time>2015-06-11T07:50:43Z</time>
      </trkpt>
      <trkpt lat="45.43012" lon="5.90323">
        <ele>1711.566665454</ele>
        <time>2015-06-11T07:50:48Z</time>
      </trkpt>
      <trkpt lat="45.43013" lon="5.90323">
        <ele>1711.566665454</ele>
        <time>2015-06-11T07:50:53Z</time>
      </trkpt>
      <trkpt lat="45.43015" lon="5.90319">
        <ele>1711.566665454</ele>
        <time>2015-06-11T07:50:58Z</time>
      </trkpt>
      <trkpt lat="45.43016" lon="5.90325">
        <ele>1711.960005488</ele>
        <time>2015-06-11T07:51:03Z</time>
      </trkpt>
      <trkpt lat="45.43016" lon="5.90322">
        <ele>1711.960005488</ele>
        <time>2015-06-11T07:51:07Z</time>
      </trkpt>
      <trkpt lat="45.43017" lon="5.9032">
        <ele>1711.960005488</ele>
        <time>2015-06-11T07:51:13Z</time>
      </trkpt>
      <trkpt lat="45.43017" lon="5.9032">
        <ele>1711.960005488</ele>
        <time>2015-06-11T07:51:18Z</time>
      </trkpt>
      <trkpt lat="45.43017" lon="5.9032">
        <ele>1711.960005488</ele>
        <time>2015-06-11T07:51:24Z</time>
      </trkpt>
      <trkpt lat="45.43017" lon="5.9032">
        <ele>1711.960005488</ele>
        <time>2015-06-11T07:51:29Z</time>
      </trkpt>
      <trkpt lat="45.43017" lon="5.9032">
        <ele>1711.960005488</ele>
        <time>2015-06-11T07:51:34Z</time>
      </trkpt>
      <trkpt lat="45.43017" lon="5.9032">
        <ele>1711.960005488</ele>
        <time>2015-06-11T07:51:39Z</time>
      </trkpt>
      <trkpt lat="45.43019" lon="5.90322">
        <ele>1711.960005488</ele>
        <time>2015-06-11T07:51:43Z</time>
      </trkpt>
      <trkpt lat="45.43018" lon="5.90321">
        <ele>1711.960005488</ele>
        <time>2015-06-11T07:51:49Z</time>
      </trkpt>
      <trkpt lat="45.43017" lon="5.90322">
        <ele>1711.960005488</ele>
        <time>2015-06-11T07:51:54Z</time>
      </trkpt>
      <trkpt lat="45.43017" lon="5.90322">
        <ele>1713.052977139</ele>
        <time>2015-06-11T07:51:59Z</time>
      </trkpt>
      <trkpt lat="45.43017" lon="5.90323">
        <ele>1713.052977139</ele>
        <time>2015-06-11T07:52:04Z</time>
      </trkpt>
      <trkpt lat="45.43017" lon="5.90323">
        <ele>1713.052977139</ele>
        <time>2015-06-11T07:52:09Z</time>
      </trkpt>
      <trkpt lat="45.43017" lon="5.90323">
        <ele>1713.052977139</ele>
        <time>2015-06-11T07:52:14Z</time>
      </trkpt>
      <trkpt lat="45.43017" lon="5.90323">
        <ele>1713.052977139</ele>
        <time>2015-06-11T07:52:19Z</time>
      </trkpt>
      <trkpt lat="45.43017" lon="5.90323">
        <ele>1713.052977139</ele>
        <time>2015-06-11T07:52:24Z</time>
      </trkpt>
      <trkpt lat="45.4302" lon="5.90327">
        <ele>1713.052977139</ele>
        <time>2015-06-11T07:52:29Z</time>
      </trkpt>
      <trkpt lat="45.43021" lon="5.9033">
        <ele>1713.052977139</ele>
        <time>2015-06-11T07:52:34Z</time>
      </trkpt>
      <trkpt lat="45.43021" lon="5.9033">
        <ele>1713.052977139</ele>
        <time>2015-06-11T07:52:38Z</time>
      </trkpt>
      <trkpt lat="45.43021" lon="5.90332">
        <ele>1713.052977139</ele>
        <time>2015-06-11T07:52:42Z</time>
      </trkpt>
      <trkpt lat="45.43021" lon="5.90332">
        <ele>1713.052977139</ele>
        <time>2015-06-11T07:52:47Z</time>
      </trkpt>
      <trkpt lat="45.43021" lon="5.90332">
        <ele>1713.052977139</ele>
        <time>2015-06-11T07:52:52Z</time>
      </trkpt>
      <trkpt lat="45.43021" lon="5.90332">
        <ele>1713.052977139</ele>
        <time>2015-06-11T07:52:59Z</time>
      </trkpt>
      <trkpt lat="45.43021" lon="5.90332">
        <ele>1713.052977139</ele>
        <time>2015-06-11T07:53:03Z</time>
      </trkpt>
      <trkpt lat="45.43025" lon="5.90336">
        <ele>1714.944947821</ele>
        <time>2015-06-11T07:53:09Z</time>
      </trkpt>
      <trkpt lat="45.43024" lon="5.90336">
        <ele>1714.944947821</ele>
        <time>2015-06-11T07:53:13Z</time>
      </trkpt>
      <trkpt lat="45.43026" lon="5.90342">
        <ele>1714.944947821</ele>
        <time>2015-06-11T07:53:19Z</time>
      </trkpt>
      <trkpt lat="45.43029" lon="5.90349">
        <ele>1717.148955756</ele>
        <time>2015-06-11T07:53:23Z</time>
      </trkpt>
      <trkpt lat="45.43031" lon="5.90352">
        <ele>1717.148955756</ele>
        <time>2015-06-11T07:53:27Z</time>
      </trkpt>
      <trkpt lat="45.43034" lon="5.90351">
        <ele>1717.148955756</ele>
        <time>2015-06-11T07:53:33Z</time>
      </trkpt>
      <trkpt lat="45.43038" lon="5.90356">
        <ele>1718.636157431</ele>
        <time>2015-06-11T07:53:38Z</time>
      </trkpt>
      <trkpt lat="45.4304" lon="5.90361">
        <ele>1718.636157431</ele>
        <time>2015-06-11T07:53:42Z</time>
      </trkpt>
      <trkpt lat="45.43041" lon="5.90356">
        <ele>1718.636157431</ele>
        <time>2015-06-11T07:53:48Z</time>
      </trkpt>
      <trkpt lat="45.43042" lon="5.90349">
        <ele>1720.616645599</ele>
        <time>2015-06-11T07:53:52Z</time>
      </trkpt>
      <trkpt lat="45.43042" lon="5.90348">
        <ele>1720.616645599</ele>
        <time>2015-06-11T07:53:59Z</time>
      </trkpt>
      <trkpt lat="45.43042" lon="5.90348">
        <ele>1720.616645599</ele>
        <time>2015-06-11T07:54:04Z</time>
      </trkpt>
      <trkpt lat="45.43042" lon="5.90348">
        <ele>1720.616645599</ele>
        <time>2015-06-11T07:54:09Z</time>
      </trkpt>
      <trkpt lat="45.43042" lon="5.90348">
        <ele>1720.616645599</ele>
        <time>2015-06-11T07:54:13Z</time>
      </trkpt>
      <trkpt lat="45.43048" lon="5.90356">
        <ele>1720.616645599</ele>
        <time>2015-06-11T07:54:18Z</time>
      </trkpt>
      <trkpt lat="45.43044" lon="5.90354">
        <ele>1722.768818968</ele>
        <time>2015-06-11T07:54:24Z</time>
      </trkpt>
      <trkpt lat="45.43045" lon="5.90354">
        <ele>1722.768818968</ele>
        <time>2015-06-11T07:54:28Z</time>
      </trkpt>
      <trkpt lat="45.43046" lon="5.90354">
        <ele>1722.768818968</ele>
        <time>2015-06-11T07:54:33Z</time>
      </trkpt>
      <trkpt lat="45.43046" lon="5.90353">
        <ele>1722.768818968</ele>
        <time>2015-06-11T07:54:39Z</time>
      </trkpt>
      <trkpt lat="45.43046" lon="5.90353">
        <ele>1722.768818968</ele>
        <time>2015-06-11T07:54:44Z</time>
      </trkpt>
      <trkpt lat="45.43048" lon="5.90351">
        <ele>1722.768818968</ele>
        <time>2015-06-11T07:54:49Z</time>
      </trkpt>
      <trkpt lat="45.4305" lon="5.9035">
        <ele>1722.768818968</ele>
        <time>2015-06-11T07:54:54Z</time>
      </trkpt>
      <trkpt lat="45.43054" lon="5.90349">
        <ele>1725.514484786</ele>
        <time>2015-06-11T07:54:59Z</time>
      </trkpt>
      <trkpt lat="45.43058" lon="5.90349">
        <ele>1725.514484786</ele>
        <time>2015-06-11T07:55:04Z</time>
      </trkpt>
      <trkpt lat="45.43062" lon="5.90348">
        <ele>1725.514484786</ele>
        <time>2015-06-11T07:55:09Z</time>
      </trkpt>
      <trkpt lat="45.43066" lon="5.90344">
        <ele>1728.810193227</ele>
        <time>2015-06-11T07:55:14Z</time>
      </trkpt>
      <trkpt lat="45.43072" lon="5.90345">
        <ele>1728.810193227</ele>
        <time>2015-06-11T07:55:19Z</time>
      </trkpt>
      <trkpt lat="45.43077" lon="5.90344">
        <ele>1732.181556758</ele>
        <time>2015-06-11T07:55:24Z</time>
      </trkpt>
      <trkpt lat="45.43081" lon="5.90347">
        <ele>1732.181556758</ele>
        <time>2015-06-11T07:55:29Z</time>
      </trkpt>
      <trkpt lat="45.43087" lon="5.90346">
        <ele>1735.188592096</ele>
        <time>2015-06-11T07:55:34Z</time>
      </trkpt>
      <trkpt lat="45.43088" lon="5.90343">
        <ele>1735.188592096</ele>
        <time>2015-06-11T07:55:38Z</time>
      </trkpt>
      <trkpt lat="45.43089" lon="5.90341">
        <ele>1735.188592096</ele>
        <time>2015-06-11T07:55:44Z</time>
      </trkpt>
      <trkpt lat="45.4309" lon="5.90342">
        <ele>1735.188592096</ele>
        <time>2015-06-11T07:55:48Z</time>
      </trkpt>
      <trkpt lat="45.43092" lon="5.90342">
        <ele>1735.188592096</ele>
        <time>2015-06-11T07:55:52Z</time>
      </trkpt>
      <trkpt lat="45.43096" lon="5.90338">
        <ele>1737.712670546</ele>
        <time>2015-06-11T07:55:57Z</time>
      </trkpt>
      <trkpt lat="45.43102" lon="5.90336">
        <ele>1737.712670546</ele>
        <time>2015-06-11T07:56:04Z</time>
      </trkpt>
      <trkpt lat="45.43104" lon="5.90335">
        <ele>1737.712670546</ele>
        <time>2015-06-11T07:56:08Z</time>
      </trkpt>
      <trkpt lat="45.43104" lon="5.90333">
        <ele>1740.509708987</ele>
        <time>2015-06-11T07:56:14Z</time>
      </trkpt>
      <trkpt lat="45.43107" lon="5.90331">
        <ele>1740.509708987</ele>
        <time>2015-06-11T07:56:19Z</time>
      </trkpt>
      <trkpt lat="45.43111" lon="5.90332">
        <ele>1740.509708987</ele>
        <time>2015-06-11T07:56:24Z</time>
      </trkpt>
      <trkpt lat="45.43116" lon="5.9033">
        <ele>1742.693932649</ele>
        <time>2015-06-11T07:56:29Z</time>
      </trkpt>
      <trkpt lat="45.43121" lon="5.90329">
        <ele>1742.693932649</ele>
        <time>2015-06-11T07:56:34Z</time>
      </trkpt>
      <trkpt lat="45.43123" lon="5.9033">
        <ele>1742.693932649</ele>
        <time>2015-06-11T07:56:39Z</time>
      </trkpt>
      <trkpt lat="45.43124" lon="5.90329">
        <ele>1742.693932649</ele>
        <time>2015-06-11T07:56:44Z</time>
      </trkpt>
      <trkpt lat="45.43126" lon="5.90329">
        <ele>1745.031417909</ele>
        <time>2015-06-11T07:56:48Z</time>
      </trkpt>
      <trkpt lat="45.43126" lon="5.90329">
        <ele>1745.031417909</ele>
        <time>2015-06-11T07:56:54Z</time>
      </trkpt>
      <trkpt lat="45.43126" lon="5.90328">
        <ele>1745.031417909</ele>
        <time>2015-06-11T07:56:59Z</time>
      </trkpt>
      <trkpt lat="45.43128" lon="5.90328">
        <ele>1745.031417909</ele>
        <time>2015-06-11T07:57:04Z</time>
      </trkpt>
      <trkpt lat="45.43132" lon="5.90331">
        <ele>1745.031417909</ele>
        <time>2015-06-11T07:57:08Z</time>
      </trkpt>
      <trkpt lat="45.43134" lon="5.90333">
        <ele>1748.231390661</ele>
        <time>2015-06-11T07:57:14Z</time>
      </trkpt>
      <trkpt lat="45.43135" lon="5.90332">
        <ele>1748.231390661</ele>
        <time>2015-06-11T07:57:19Z</time>
      </trkpt>
      <trkpt lat="45.43138" lon="5.90331">
        <ele>1748.231390661</ele>
        <time>2015-06-11T07:57:23Z</time>
      </trkpt>
      <trkpt lat="45.43144" lon="5.9033">
        <ele>1750.786758555</ele>
        <time>2015-06-11T07:57:29Z</time>
      </trkpt>
      <trkpt lat="45.43146" lon="5.90327">
        <ele>1750.786758555</ele>
        <time>2015-06-11T07:57:34Z</time>
      </trkpt>
      <trkpt lat="45.43147" lon="5.90326">
        <ele>1750.786758555</ele>
        <time>2015-06-11T07:57:39Z</time>
      </trkpt>
      <trkpt lat="45.43151" lon="5.90327">
        <ele>1750.786758555</ele>
        <time>2015-06-11T07:57:44Z</time>
      </trkpt>
      <trkpt lat="45.43151" lon="5.90326">
        <ele>1752.599827893</ele>
        <time>2015-06-11T07:57:49Z</time>
      </trkpt>
      <trkpt lat="45.43151" lon="5.90327">
        <ele>1752.599827893</ele>
        <time>2015-06-11T07:57:53Z</time>
      </trkpt>
      <trkpt lat="45.43152" lon="5.90326">
        <ele>1752.599827893</ele>
        <time>2015-06-11T07:57:58Z</time>
      </trkpt>
      <trkpt lat="45.43153" lon="5.90326">
        <ele>1752.599827893</ele>
        <time>2015-06-11T07:58:03Z</time>
      </trkpt>
      <trkpt lat="45.43152" lon="5.90327">
        <ele>1752.599827893</ele>
        <time>2015-06-11T07:58:08Z</time>
      </trkpt>
      <trkpt lat="45.43152" lon="5.90327">
        <ele>1752.599827893</ele>
        <time>2015-06-11T07:58:12Z</time>
      </trkpt>
      <trkpt lat="45.43154" lon="5.90326">
        <ele>1752.599827893</ele>
        <time>2015-06-11T07:58:17Z</time>
      </trkpt>
      <trkpt lat="45.43154" lon="5.90329">
        <ele>1752.599827893</ele>
        <time>2015-06-11T07:58:24Z</time>
      </trkpt>
      <trkpt lat="45.43155" lon="5.90331">
        <ele>1754.014387101</ele>
        <time>2015-06-11T07:58:29Z</time>
      </trkpt>
      <trkpt lat="45.43157" lon="5.90329">
        <ele>1754.014387101</ele>
        <time>2015-06-11T07:58:34Z</time>
      </trkpt>
      <trkpt lat="45.43161" lon="5.90331">
        <ele>1754.014387101</ele>
        <time>2015-06-11T07:58:39Z</time>
      </trkpt>
      <trkpt lat="45.43165" lon="5.90329">
        <ele>1755.34998505</ele>
        <time>2015-06-11T07:58:44Z</time>
      </trkpt>
      <trkpt lat="45.43166" lon="5.90331">
        <ele>1755.34998505</ele>
        <time>2015-06-11T07:58:49Z</time>
      </trkpt>
      <trkpt lat="45.43166" lon="5.90331">
        <ele>1755.34998505</ele>
        <time>2015-06-11T07:58:54Z</time>
      </trkpt>
      <trkpt lat="45.43166" lon="5.90331">
        <ele>1755.34998505</ele>
        <time>2015-06-11T07:58:59Z</time>
      </trkpt>
      <trkpt lat="45.43166" lon="5.90332">
        <ele>1755.34998505</ele>
        <time>2015-06-11T07:59:04Z</time>
      </trkpt>
      <trkpt lat="45.43166" lon="5.90333">
        <ele>1755.34998505</ele>
        <time>2015-06-11T07:59:09Z</time>
      </trkpt>
      <trkpt lat="45.4317" lon="5.90335">
        <ele>1755.34998505</ele>
        <time>2015-06-11T07:59:14Z</time>
      </trkpt>
      <trkpt lat="45.4317" lon="5.90333">
        <ele>1755.34998505</ele>
        <time>2015-06-11T07:59:19Z</time>
      </trkpt>
      <trkpt lat="45.43171" lon="5.90333">
        <ele>1756.326373706</ele>
        <time>2015-06-11T07:59:24Z</time>
      </trkpt>
      <trkpt lat="45.43173" lon="5.90332">
        <ele>1756.326373706</ele>
        <time>2015-06-11T07:59:29Z</time>
      </trkpt>
      <trkpt lat="45.43173" lon="5.90332">
        <ele>1756.326373706</ele>
        <time>2015-06-11T07:59:34Z</time>
      </trkpt>
      <trkpt lat="45.43173" lon="5.90332">
        <ele>1756.326373706</ele>
        <time>2015-06-11T07:59:39Z</time>
      </trkpt>
      <trkpt lat="45.43173" lon="5.90332">
        <ele>1756.326373706</ele>
        <time>2015-06-11T07:59:44Z</time>
      </trkpt>
      <trkpt lat="45.43173" lon="5.90332">
        <ele>1756.326373706</ele>
        <time>2015-06-11T07:59:49Z</time>
      </trkpt>
      <trkpt lat="45.43173" lon="5.90332">
        <ele>1756.326373706</ele>
        <time>2015-06-11T07:59:54Z</time>
      </trkpt>
      <trkpt lat="45.43173" lon="5.90332">
        <ele>1756.326373706</ele>
        <time>2015-06-11T07:59:59Z</time>
      </trkpt>
      <trkpt lat="45.43173" lon="5.90332">
        <ele>1756.326373706</ele>
        <time>2015-06-11T08:00:04Z</time>
      </trkpt>
      <trkpt lat="45.43173" lon="5.90331">
        <ele>1756.326373706</ele>
        <time>2015-06-11T08:00:09Z</time>
      </trkpt>
      <trkpt lat="45.43173" lon="5.90331">
        <ele>1756.326373706</ele>
        <time>2015-06-11T08:00:14Z</time>
      </trkpt>
      <trkpt lat="45.43173" lon="5.90331">
        <ele>1756.326373706</ele>
        <time>2015-06-11T08:00:19Z</time>
      </trkpt>
      <trkpt lat="45.43173" lon="5.90331">
        <ele>1756.326373706</ele>
        <time>2015-06-11T08:00:24Z</time>
      </trkpt>
      <trkpt lat="45.43173" lon="5.90331">
        <ele>1756.326373706</ele>
        <time>2015-06-11T08:00:29Z</time>
      </trkpt>
      <trkpt lat="45.43173" lon="5.90331">
        <ele>1756.326373706</ele>
        <time>2015-06-11T08:00:34Z</time>
      </trkpt>
      <trkpt lat="45.43173" lon="5.90331">
        <ele>1756.326373706</ele>
        <time>2015-06-11T08:00:38Z</time>
      </trkpt>
      <trkpt lat="45.43173" lon="5.90331">
        <ele>1756.326373706</ele>
        <time>2015-06-11T08:00:44Z</time>
      </trkpt>
      <trkpt lat="45.43173" lon="5.90331">
        <ele>1756.326373706</ele>
        <time>2015-06-11T08:00:49Z</time>
      </trkpt>
      <trkpt lat="45.43173" lon="5.90331">
        <ele>1756.326373706</ele>
        <time>2015-06-11T08:00:54Z</time>
      </trkpt>
      <trkpt lat="45.43173" lon="5.90331">
        <ele>1756.326373706</ele>
        <time>2015-06-11T08:00:59Z</time>
      </trkpt>
      <trkpt lat="45.43173" lon="5.90331">
        <ele>1756.326373706</ele>
        <time>2015-06-11T08:01:04Z</time>
      </trkpt>
      <trkpt lat="45.43173" lon="5.90331">
        <ele>1756.326373706</ele>
        <time>2015-06-11T08:01:09Z</time>
      </trkpt>
      <trkpt lat="45.43173" lon="5.90331">
        <ele>1756.326373706</ele>
        <time>2015-06-11T08:01:13Z</time>
      </trkpt>
      <trkpt lat="45.43173" lon="5.90331">
        <ele>1756.326373706</ele>
        <time>2015-06-11T08:01:19Z</time>
      </trkpt>
      <trkpt lat="45.43173" lon="5.90331">
        <ele>1756.326373706</ele>
        <time>2015-06-11T08:01:23Z</time>
      </trkpt>
      <trkpt lat="45.43173" lon="5.90331">
        <ele>1756.326373706</ele>
        <time>2015-06-11T08:01:27Z</time>
      </trkpt>
      <trkpt lat="45.43173" lon="5.90331">
        <ele>1756.326373706</ele>
        <time>2015-06-11T08:01:33Z</time>
      </trkpt>
      <trkpt lat="45.43173" lon="5.90331">
        <ele>1756.326373706</ele>
        <time>2015-06-11T08:01:38Z</time>
      </trkpt>
      <trkpt lat="45.43173" lon="5.90331">
        <ele>1756.326373706</ele>
        <time>2015-06-11T08:01:43Z</time>
      </trkpt>
      <trkpt lat="45.43173" lon="5.90331">
        <ele>1756.326373706</ele>
        <time>2015-06-11T08:01:48Z</time>
      </trkpt>
      <trkpt lat="45.43173" lon="5.90331">
        <ele>1756.326373706</ele>
        <time>2015-06-11T08:01:52Z</time>
      </trkpt>
      <trkpt lat="45.43173" lon="5.90331">
        <ele>1756.326373706</ele>
        <time>2015-06-11T08:01:59Z</time>
      </trkpt>
      <trkpt lat="45.43173" lon="5.90331">
        <ele>1756.326373706</ele>
        <time>2015-06-11T08:02:04Z</time>
      </trkpt>
      <trkpt lat="45.43173" lon="5.90331">
        <ele>1756.326373706</ele>
        <time>2015-06-11T08:02:09Z</time>
      </trkpt>
      <trkpt lat="45.43173" lon="5.90331">
        <ele>1756.326373706</ele>
        <time>2015-06-11T08:02:14Z</time>
      </trkpt>
      <trkpt lat="45.43173" lon="5.90331">
        <ele>1756.326373706</ele>
        <time>2015-06-11T08:02:19Z</time>
      </trkpt>
      <trkpt lat="45.43173" lon="5.90331">
        <ele>1756.326373706</ele>
        <time>2015-06-11T08:02:24Z</time>
      </trkpt>
      <trkpt lat="45.43173" lon="5.90331">
        <ele>1756.326373706</ele>
        <time>2015-06-11T08:02:29Z</time>
      </trkpt>
      <trkpt lat="45.43174" lon="5.90331">
        <ele>1756.326373706</ele>
        <time>2015-06-11T08:02:34Z</time>
      </trkpt>
      <trkpt lat="45.4318" lon="5.90323">
        <ele>1757.693579286</ele>
        <time>2015-06-11T08:02:39Z</time>
      </trkpt>
      <trkpt lat="45.43181" lon="5.90321">
        <ele>1757.693579286</ele>
        <time>2015-06-11T08:02:44Z</time>
      </trkpt>
      <trkpt lat="45.43182" lon="5.90318">
        <ele>1757.693579286</ele>
        <time>2015-06-11T08:02:49Z</time>
      </trkpt>
      <trkpt lat="45.43182" lon="5.90316">
        <ele>1757.693579286</ele>
        <time>2015-06-11T08:02:54Z</time>
      </trkpt>
      <trkpt lat="45.43182" lon="5.90313">
        <ele>1757.693579286</ele>
        <time>2015-06-11T08:02:59Z</time>
      </trkpt>
      <trkpt lat="45.43183" lon="5.90313">
        <ele>1757.693579286</ele>
        <time>2015-06-11T08:03:04Z</time>
      </trkpt>
      <trkpt lat="45.43184" lon="5.9031">
        <ele>1758.848336529</ele>
        <time>2015-06-11T08:03:09Z</time>
      </trkpt>
      <trkpt lat="45.43194" lon="5.90313">
        <ele>1759.520415315</ele>
        <time>2015-06-11T08:03:14Z</time>
      </trkpt>
      <trkpt lat="45.43199" lon="5.90312">
        <ele>1759.520415315</ele>
        <time>2015-06-11T08:03:19Z</time>
      </trkpt>
      <trkpt lat="45.43203" lon="5.90311">
        <ele>1760.325358071</ele>
        <time>2015-06-11T08:03:24Z</time>
      </trkpt>
      <trkpt lat="45.43206" lon="5.90309">
        <ele>1760.325358071</ele>
        <time>2015-06-11T08:03:29Z</time>
      </trkpt>
      <trkpt lat="45.43212" lon="5.90316">
        <ele>1760.824237848</ele>
        <time>2015-06-11T08:03:34Z</time>
      </trkpt>
      <trkpt lat="45.43215" lon="5.9031">
        <ele>1760.824237848</ele>
        <time>2015-06-11T08:03:39Z</time>
      </trkpt>
      <trkpt lat="45.43219" lon="5.90307">
        <ele>1761.18757033</ele>
        <time>2015-06-11T08:03:44Z</time>
      </trkpt>
      <trkpt lat="45.43221" lon="5.90307">
        <ele>1761.18757033</ele>
        <time>2015-06-11T08:03:49Z</time>
      </trkpt>
      <trkpt lat="45.43224" lon="5.9031">
        <ele>1761.18757033</ele>
        <time>2015-06-11T08:03:54Z</time>
      </trkpt>
      <trkpt lat="45.43228" lon="5.90317">
        <ele>1760.853060968</ele>
        <time>2015-06-11T08:03:58Z</time>
      </trkpt>
      <trkpt lat="45.4323" lon="5.90322">
        <ele>1760.853060968</ele>
        <time>2015-06-11T08:04:04Z</time>
      </trkpt>
      <trkpt lat="45.4323" lon="5.90326">
        <ele>1760.853060968</ele>
        <time>2015-06-11T08:04:09Z</time>
      </trkpt>
      <trkpt lat="45.43232" lon="5.90326">
        <ele>1760.853060968</ele>
        <time>2015-06-11T08:04:14Z</time>
      </trkpt>
      <trkpt lat="45.43232" lon="5.90328">
        <ele>1760.166230725</ele>
        <time>2015-06-11T08:04:19Z</time>
      </trkpt>
      <trkpt lat="45.43232" lon="5.90329">
        <ele>1760.166230725</ele>
        <time>2015-06-11T08:04:24Z</time>
      </trkpt>
      <trkpt lat="45.43232" lon="5.90329">
        <ele>1760.166230725</ele>
        <time>2015-06-11T08:04:29Z</time>
      </trkpt>
      <trkpt lat="45.43232" lon="5.90329">
        <ele>1760.166230725</ele>
        <time>2015-06-11T08:04:34Z</time>
      </trkpt>
      <trkpt lat="45.43232" lon="5.90329">
        <ele>1760.166230725</ele>
        <time>2015-06-11T08:04:39Z</time>
      </trkpt>
      <trkpt lat="45.43232" lon="5.90329">
        <ele>1760.166230725</ele>
        <time>2015-06-11T08:04:44Z</time>
      </trkpt>
      <trkpt lat="45.43232" lon="5.90329">
        <ele>1760.166230725</ele>
        <time>2015-06-11T08:04:48Z</time>
      </trkpt>
      <trkpt lat="45.43232" lon="5.90329">
        <ele>1760.166230725</ele>
        <time>2015-06-11T08:04:52Z</time>
      </trkpt>
      <trkpt lat="45.43232" lon="5.90329">
        <ele>1760.166230725</ele>
        <time>2015-06-11T08:04:59Z</time>
      </trkpt>
      <trkpt lat="45.43232" lon="5.90329">
        <ele>1760.166230725</ele>
        <time>2015-06-11T08:05:04Z</time>
      </trkpt>
      <trkpt lat="45.43232" lon="5.90328">
        <ele>1760.166230725</ele>
        <time>2015-06-11T08:05:09Z</time>
      </trkpt>
      <trkpt lat="45.43232" lon="5.90328">
        <ele>1760.166230725</ele>
        <time>2015-06-11T08:05:12Z</time>
      </trkpt>
      <trkpt lat="45.43233" lon="5.90328">
        <ele>1760.166230725</ele>
        <time>2015-06-11T08:05:17Z</time>
      </trkpt>
      <trkpt lat="45.43233" lon="5.90328">
        <ele>1760.166230725</ele>
        <time>2015-06-11T08:05:22Z</time>
      </trkpt>
      <trkpt lat="45.43233" lon="5.90328">
        <ele>1760.166230725</ele>
        <time>2015-06-11T08:05:27Z</time>
      </trkpt>
      <trkpt lat="45.43233" lon="5.90328">
        <ele>1760.166230725</ele>
        <time>2015-06-11T08:05:32Z</time>
      </trkpt>
      <trkpt lat="45.43236" lon="5.90338">
        <ele>1760.166230725</ele>
        <time>2015-06-11T08:05:38Z</time>
      </trkpt>
      <trkpt lat="45.43237" lon="5.90337">
        <ele>1760.166230725</ele>
        <time>2015-06-11T08:05:44Z</time>
      </trkpt>
      <trkpt lat="45.43236" lon="5.90336">
        <ele>1759.448084082</ele>
        <time>2015-06-11T08:05:49Z</time>
      </trkpt>
      <trkpt lat="45.43236" lon="5.90335">
        <ele>1759.448084082</ele>
        <time>2015-06-11T08:05:54Z</time>
      </trkpt>
      <trkpt lat="45.43237" lon="5.90334">
        <ele>1759.448084082</ele>
        <time>2015-06-11T08:05:59Z</time>
      </trkpt>
      <trkpt lat="45.43237" lon="5.90333">
        <ele>1759.448084082</ele>
        <time>2015-06-11T08:06:03Z</time>
      </trkpt>
      <trkpt lat="45.43237" lon="5.90333">
        <ele>1759.448084082</ele>
        <time>2015-06-11T08:06:09Z</time>
      </trkpt>
      <trkpt lat="45.43237" lon="5.90333">
        <ele>1759.448084082</ele>
        <time>2015-06-11T08:06:14Z</time>
      </trkpt>
      <trkpt lat="45.43237" lon="5.90333">
        <ele>1759.448084082</ele>
        <time>2015-06-11T08:06:19Z</time>
      </trkpt>
      <trkpt lat="45.43237" lon="5.90333">
        <ele>1759.448084082</ele>
        <time>2015-06-11T08:06:24Z</time>
      </trkpt>
      <trkpt lat="45.43237" lon="5.90333">
        <ele>1759.448084082</ele>
        <time>2015-06-11T08:06:29Z</time>
      </trkpt>
      <trkpt lat="45.43237" lon="5.90333">
        <ele>1759.448084082</ele>
        <time>2015-06-11T08:06:34Z</time>
      </trkpt>
      <trkpt lat="45.43237" lon="5.90333">
        <ele>1759.448084082</ele>
        <time>2015-06-11T08:06:39Z</time>
      </trkpt>
      <trkpt lat="45.43237" lon="5.90333">
        <ele>1759.448084082</ele>
        <time>2015-06-11T08:06:44Z</time>
      </trkpt>
      <trkpt lat="45.43237" lon="5.90333">
        <ele>1759.448084082</ele>
        <time>2015-06-11T08:06:49Z</time>
      </trkpt>
      <trkpt lat="45.43238" lon="5.90332">
        <ele>1759.448084082</ele>
        <time>2015-06-11T08:06:54Z</time>
      </trkpt>
      <trkpt lat="45.43243" lon="5.90332">
        <ele>1759.448084082</ele>
        <time>2015-06-11T08:06:59Z</time>
      </trkpt>
      <trkpt lat="45.43248" lon="5.90333">
        <ele>1758.851889073</ele>
        <time>2015-06-11T08:07:04Z</time>
      </trkpt>
      <trkpt lat="45.43252" lon="5.90333">
        <ele>1758.851889073</ele>
        <time>2015-06-11T08:07:09Z</time>
      </trkpt>
      <trkpt lat="45.43253" lon="5.90335">
        <ele>1758.851889073</ele>
        <time>2015-06-11T08:07:14Z</time>
      </trkpt>
      <trkpt lat="45.43254" lon="5.90336">
        <ele>1758.851889073</ele>
        <time>2015-06-11T08:07:19Z</time>
      </trkpt>
      <trkpt lat="45.43258" lon="5.90335">
        <ele>1758.519171066</ele>
        <time>2015-06-11T08:07:23Z</time>
      </trkpt>
      <trkpt lat="45.43263" lon="5.90337">
        <ele>1758.519171066</ele>
        <time>2015-06-11T08:07:28Z</time>
      </trkpt>
      <trkpt lat="45.4327" lon="5.90334">
        <ele>1758.580170998</ele>
        <time>2015-06-11T08:07:34Z</time>
      </trkpt>
      <trkpt lat="45.43273" lon="5.90331">
        <ele>1758.580170998</ele>
        <time>2015-06-11T08:07:38Z</time>
      </trkpt>
      <trkpt lat="45.43278" lon="5.90327">
        <ele>1758.577859101</ele>
        <time>2015-06-11T08:07:44Z</time>
      </trkpt>
      <trkpt lat="45.43282" lon="5.90324">
        <ele>1758.577859101</ele>
        <time>2015-06-11T08:07:49Z</time>
      </trkpt>
      <trkpt lat="45.43282" lon="5.90322">
        <ele>1758.577859101</ele>
        <time>2015-06-11T08:07:53Z</time>
      </trkpt>
      <trkpt lat="45.43284" lon="5.90318">
        <ele>1758.088798476</ele>
        <time>2015-06-11T08:07:58Z</time>
      </trkpt>
      <trkpt lat="45.43282" lon="5.90317">
        <ele>1758.088798476</ele>
        <time>2015-06-11T08:08:04Z</time>
      </trkpt>
      <trkpt lat="45.4328" lon="5.90321">
        <ele>1758.088798476</ele>
        <time>2015-06-11T08:08:07Z</time>
      </trkpt>
      <trkpt lat="45.43281" lon="5.90326">
        <ele>1758.088798476</ele>
        <time>2015-06-11T08:08:13Z</time>
      </trkpt>
      <trkpt lat="45.43281" lon="5.90326">
        <ele>1758.088798476</ele>
        <time>2015-06-11T08:08:17Z</time>
      </trkpt>
      <trkpt lat="45.43286" lon="5.90324">
        <ele>1757.154195345</ele>
        <time>2015-06-11T08:08:23Z</time>
      </trkpt>
      <trkpt lat="45.43289" lon="5.90326">
        <ele>1757.154195345</ele>
        <time>2015-06-11T08:08:28Z</time>
      </trkpt>
      <trkpt lat="45.43291" lon="5.90329">
        <ele>1757.154195345</ele>
        <time>2015-06-11T08:08:34Z</time>
      </trkpt>
      <trkpt lat="45.43292" lon="5.90332">
        <ele>1757.154195345</ele>
        <time>2015-06-11T08:08:39Z</time>
      </trkpt>
      <trkpt lat="45.43293" lon="5.90331">
        <ele>1756.245647234</ele>
        <time>2015-06-11T08:08:44Z</time>
      </trkpt>
      <trkpt lat="45.43294" lon="5.9033">
        <ele>1756.245647234</ele>
        <time>2015-06-11T08:08:49Z</time>
      </trkpt>
      <trkpt lat="45.43294" lon="5.9033">
        <ele>1756.245647234</ele>
        <time>2015-06-11T08:08:54Z</time>
      </trkpt>
      <trkpt lat="45.43294" lon="5.9033">
        <ele>1756.245647234</ele>
        <time>2015-06-11T08:08:59Z</time>
      </trkpt>
      <trkpt lat="45.43295" lon="5.90331">
        <ele>1756.245647234</ele>
        <time>2015-06-11T08:09:04Z</time>
      </trkpt>
      <trkpt lat="45.43296" lon="5.90326">
        <ele>1756.245647234</ele>
        <time>2015-06-11T08:09:09Z</time>
      </trkpt>
      <trkpt lat="45.43296" lon="5.90324">
        <ele>1756.245647234</ele>
        <time>2015-06-11T08:09:14Z</time>
      </trkpt>
      <trkpt lat="45.43296" lon="5.90323">
        <ele>1756.245647234</ele>
        <time>2015-06-11T08:09:19Z</time>
      </trkpt>
      <trkpt lat="45.43296" lon="5.90323">
        <ele>1756.245647234</ele>
        <time>2015-06-11T08:09:24Z</time>
      </trkpt>
      <trkpt lat="45.43296" lon="5.90323">
        <ele>1756.245647234</ele>
        <time>2015-06-11T08:09:28Z</time>
      </trkpt>
      <trkpt lat="45.43296" lon="5.90323">
        <ele>1756.245647234</ele>
        <time>2015-06-11T08:09:33Z</time>
      </trkpt>
      <trkpt lat="45.43296" lon="5.90323">
        <ele>1756.245647234</ele>
        <time>2015-06-11T08:09:39Z</time>
      </trkpt>
      <trkpt lat="45.43296" lon="5.90323">
        <ele>1756.245647234</ele>
        <time>2015-06-11T08:09:44Z</time>
      </trkpt>
      <trkpt lat="45.43296" lon="5.90323">
        <ele>1756.245647234</ele>
        <time>2015-06-11T08:09:49Z</time>
      </trkpt>
      <trkpt lat="45.43296" lon="5.90323">
        <ele>1756.245647234</ele>
        <time>2015-06-11T08:09:54Z</time>
      </trkpt>
      <trkpt lat="45.43296" lon="5.90323">
        <ele>1756.245647234</ele>
        <time>2015-06-11T08:09:58Z</time>
      </trkpt>
      <trkpt lat="45.43296" lon="5.90323">
        <ele>1756.245647234</ele>
        <time>2015-06-11T08:10:04Z</time>
      </trkpt>
      <trkpt lat="45.43296" lon="5.90323">
        <ele>1756.245647234</ele>
        <time>2015-06-11T08:10:08Z</time>
      </trkpt>
      <trkpt lat="45.43296" lon="5.90323">
        <ele>1756.245647234</ele>
        <time>2015-06-11T08:10:14Z</time>
      </trkpt>
      <trkpt lat="45.43296" lon="5.90323">
        <ele>1756.245647234</ele>
        <time>2015-06-11T08:10:19Z</time>
      </trkpt>
      <trkpt lat="45.43289" lon="5.90334">
        <ele>1755.079308983</ele>
        <time>2015-06-11T08:10:24Z</time>
      </trkpt>
      <trkpt lat="45.43281" lon="5.90355">
        <ele>1754.257400506</ele>
        <time>2015-06-11T08:10:29Z</time>
      </trkpt>
      <trkpt lat="45.43278" lon="5.9034">
        <ele>1753.904422514</ele>
        <time>2015-06-11T08:10:34Z</time>
      </trkpt>
      <trkpt lat="45.43277" lon="5.90338">
        <ele>1753.904422514</ele>
        <time>2015-06-11T08:10:39Z</time>
      </trkpt>
      <trkpt lat="45.43276" lon="5.90338">
        <ele>1753.904422514</ele>
        <time>2015-06-11T08:10:43Z</time>
      </trkpt>
      <trkpt lat="45.43275" lon="5.90338">
        <ele>1753.904422514</ele>
        <time>2015-06-11T08:10:49Z</time>
      </trkpt>
      <trkpt lat="45.43275" lon="5.90338">
        <ele>1753.904422514</ele>
        <time>2015-06-11T08:10:54Z</time>
      </trkpt>
      <trkpt lat="45.43275" lon="5.90338">
        <ele>1753.904422514</ele>
        <time>2015-06-11T08:10:59Z</time>
      </trkpt>
      <trkpt lat="45.43267" lon="5.90342">
        <ele>1753.557786274</ele>
        <time>2015-06-11T08:11:04Z</time>
      </trkpt>
      <trkpt lat="45.43262" lon="5.90334">
        <ele>1753.557786274</ele>
        <time>2015-06-11T08:11:09Z</time>
      </trkpt>
      <trkpt lat="45.4325" lon="5.90329">
        <ele>1753.365127439</ele>
        <time>2015-06-11T08:11:14Z</time>
      </trkpt>
      <trkpt lat="45.43243" lon="5.90315">
        <ele>1753.60673419</ele>
        <time>2015-06-11T08:11:19Z</time>
      </trkpt>
      <trkpt lat="45.43243" lon="5.90317">
        <ele>1753.60673419</ele>
        <time>2015-06-11T08:11:23Z</time>
      </trkpt>
      <trkpt lat="45.43242" lon="5.90317">
        <ele>1753.60673419</ele>
        <time>2015-06-11T08:11:27Z</time>
      </trkpt>
      <trkpt lat="45.43242" lon="5.90316">
        <ele>1753.60673419</ele>
        <time>2015-06-11T08:11:33Z</time>
      </trkpt>
      <trkpt lat="45.43242" lon="5.90316">
        <ele>1753.60673419</ele>
        <time>2015-06-11T08:11:38Z</time>
      </trkpt>
      <trkpt lat="45.43241" lon="5.90316">
        <ele>1753.60673419</ele>
        <time>2015-06-11T08:11:43Z</time>
      </trkpt>
      <trkpt lat="45.43241" lon="5.90316">
        <ele>1753.60673419</ele>
        <time>2015-06-11T08:11:47Z</time>
      </trkpt>
      <trkpt lat="45.43241" lon="5.90316">
        <ele>1753.60673419</ele>
        <time>2015-06-11T08:11:54Z</time>
      </trkpt>
      <trkpt lat="45.43241" lon="5.90316">
        <ele>1753.60673419</ele>
        <time>2015-06-11T08:11:59Z</time>
      </trkpt>
      <trkpt lat="45.43241" lon="5.90316">
        <ele>1753.60673419</ele>
        <time>2015-06-11T08:12:04Z</time>
      </trkpt>
      <trkpt lat="45.43241" lon="5.90316">
        <ele>1753.60673419</ele>
        <time>2015-06-11T08:12:09Z</time>
      </trkpt>
      <trkpt lat="45.43241" lon="5.90316">
        <ele>1753.60673419</ele>
        <time>2015-06-11T08:12:14Z</time>
      </trkpt>
      <trkpt lat="45.43241" lon="5.90316">
        <ele>1753.60673419</ele>
        <time>2015-06-11T08:12:19Z</time>
      </trkpt>
      <trkpt lat="45.43241" lon="5.90316">
        <ele>1753.60673419</ele>
        <time>2015-06-11T08:12:23Z</time>
      </trkpt>
      <trkpt lat="45.43241" lon="5.90316">
        <ele>1753.60673419</ele>
        <time>2015-06-11T08:12:29Z</time>
      </trkpt>
      <trkpt lat="45.43241" lon="5.90316">
        <ele>1753.60673419</ele>
        <time>2015-06-11T08:12:34Z</time>
      </trkpt>
      <trkpt lat="45.43241" lon="5.90316">
        <ele>1753.60673419</ele>
        <time>2015-06-11T08:12:39Z</time>
      </trkpt>
      <trkpt lat="45.43241" lon="5.90316">
        <ele>1753.60673419</ele>
        <time>2015-06-11T08:12:44Z</time>
      </trkpt>
      <trkpt lat="45.43241" lon="5.90316">
        <ele>1753.60673419</ele>
        <time>2015-06-11T08:12:49Z</time>
      </trkpt>
      <trkpt lat="45.43241" lon="5.90316">
        <ele>1753.60673419</ele>
        <time>2015-06-11T08:12:53Z</time>
      </trkpt>
      <trkpt lat="45.43241" lon="5.90316">
        <ele>1753.60673419</ele>
        <time>2015-06-11T08:12:59Z</time>
      </trkpt>
      <trkpt lat="45.43241" lon="5.90316">
        <ele>1753.60673419</ele>
        <time>2015-06-11T08:13:04Z</time>
      </trkpt>
      <trkpt lat="45.43241" lon="5.90316">
        <ele>1753.60673419</ele>
        <time>2015-06-11T08:13:09Z</time>
      </trkpt>
      <trkpt lat="45.43241" lon="5.90316">
        <ele>1753.60673419</ele>
        <time>2015-06-11T08:13:14Z</time>
      </trkpt>
      <trkpt lat="45.43241" lon="5.90316">
        <ele>1753.60673419</ele>
        <time>2015-06-11T08:13:18Z</time>
      </trkpt>
      <trkpt lat="45.43241" lon="5.90316">
        <ele>1753.60673419</ele>
        <time>2015-06-11T08:13:24Z</time>
      </trkpt>
      <trkpt lat="45.43241" lon="5.90316">
        <ele>1753.60673419</ele>
        <time>2015-06-11T08:13:29Z</time>
      </trkpt>
      <trkpt lat="45.43241" lon="5.90316">
        <ele>1753.60673419</ele>
        <time>2015-06-11T08:13:34Z</time>
      </trkpt>
      <trkpt lat="45.43241" lon="5.90316">
        <ele>1753.60673419</ele>
        <time>2015-06-11T08:13:39Z</time>
      </trkpt>
      <trkpt lat="45.43241" lon="5.90316">
        <ele>1753.60673419</ele>
        <time>2015-06-11T08:13:44Z</time>
      </trkpt>
      <trkpt lat="45.43241" lon="5.90316">
        <ele>1753.60673419</ele>
        <time>2015-06-11T08:13:49Z</time>
      </trkpt>
      <trkpt lat="45.43241" lon="5.90315">
        <ele>1753.60673419</ele>
        <time>2015-06-11T08:13:54Z</time>
      </trkpt>
      <trkpt lat="45.43241" lon="5.90315">
        <ele>1753.60673419</ele>
        <time>2015-06-11T08:13:59Z</time>
      </trkpt>
      <trkpt lat="45.43241" lon="5.90315">
        <ele>1753.60673419</ele>
        <time>2015-06-11T08:14:04Z</time>
      </trkpt>
      <trkpt lat="45.43241" lon="5.90315">
        <ele>1753.60673419</ele>
        <time>2015-06-11T08:14:09Z</time>
      </trkpt>
      <trkpt lat="45.43233" lon="5.90311">
        <ele>1753.676242332</ele>
        <time>2015-06-11T08:14:13Z</time>
      </trkpt>
      <trkpt lat="45.43228" lon="5.90312">
        <ele>1753.676242332</ele>
        <time>2015-06-11T08:14:19Z</time>
      </trkpt>
      <trkpt lat="45.43228" lon="5.90315">
        <ele>1753.676242332</ele>
        <time>2015-06-11T08:14:24Z</time>
      </trkpt>
      <trkpt lat="45.43226" lon="5.90314">
        <ele>1754.309143096</ele>
        <time>2015-06-11T08:14:29Z</time>
      </trkpt>
      <trkpt lat="45.43224" lon="5.90315">
        <ele>1754.309143096</ele>
        <time>2015-06-11T08:14:34Z</time>
      </trkpt>
      <trkpt lat="45.43212" lon="5.90307">
        <ele>1755.608711774</ele>
        <time>2015-06-11T08:14:39Z</time>
      </trkpt>
      <trkpt lat="45.43213" lon="5.9031">
        <ele>1755.608711774</ele>
        <time>2015-06-11T08:14:43Z</time>
      </trkpt>
      <trkpt lat="45.43212" lon="5.90308">
        <ele>1755.608711774</ele>
        <time>2015-06-11T08:14:47Z</time>
      </trkpt>
      <trkpt lat="45.43213" lon="5.9031">
        <ele>1755.608711774</ele>
        <time>2015-06-11T08:14:52Z</time>
      </trkpt>
      <trkpt lat="45.43213" lon="5.9031">
        <ele>1755.608711774</ele>
        <time>2015-06-11T08:14:57Z</time>
      </trkpt>
      <trkpt lat="45.43213" lon="5.9031">
        <ele>1755.608711774</ele>
        <time>2015-06-11T08:15:02Z</time>
      </trkpt>
      <trkpt lat="45.43215" lon="5.90314">
        <ele>1756.94806021</ele>
        <time>2015-06-11T08:15:08Z</time>
      </trkpt>
      <trkpt lat="45.43214" lon="5.90313">
        <ele>1756.94806021</ele>
        <time>2015-06-11T08:15:12Z</time>
      </trkpt>
      <trkpt lat="45.43212" lon="5.90312">
        <ele>1756.94806021</ele>
        <time>2015-06-11T08:15:18Z</time>
      </trkpt>
      <trkpt lat="45.43212" lon="5.90311">
        <ele>1756.94806021</ele>
        <time>2015-06-11T08:15:22Z</time>
      </trkpt>
      <trkpt lat="45.43212" lon="5.90311">
        <ele>1756.94806021</ele>
        <time>2015-06-11T08:15:28Z</time>
      </trkpt>
      <trkpt lat="45.43212" lon="5.90311">
        <ele>1756.94806021</ele>
        <time>2015-06-11T08:15:33Z</time>
      </trkpt>
      <trkpt lat="45.43207" lon="5.90318">
        <ele>1757.457877911</ele>
        <time>2015-06-11T08:15:39Z</time>
      </trkpt>
      <trkpt lat="45.43196" lon="5.90319">
        <ele>1757.055467738</ele>
        <time>2015-06-11T08:15:44Z</time>
      </trkpt>
      <trkpt lat="45.43189" lon="5.90313">
        <ele>1757.055467738</ele>
        <time>2015-06-11T08:15:49Z</time>
      </trkpt>
      <trkpt lat="45.43189" lon="5.90315">
        <ele>1757.107758643</ele>
        <time>2015-06-11T08:15:54Z</time>
      </trkpt>
      <trkpt lat="45.4319" lon="5.90318">
        <ele>1757.107758643</ele>
        <time>2015-06-11T08:15:59Z</time>
      </trkpt>
      <trkpt lat="45.43189" lon="5.90317">
        <ele>1757.107758643</ele>
        <time>2015-06-11T08:16:04Z</time>
      </trkpt>
      <trkpt lat="45.43189" lon="5.90317">
        <ele>1757.107758643</ele>
        <time>2015-06-11T08:16:08Z</time>
      </trkpt>
      <trkpt lat="45.43189" lon="5.90317">
        <ele>1757.107758643</ele>
        <time>2015-06-11T08:16:14Z</time>
      </trkpt>
      <trkpt lat="45.43189" lon="5.90317">
        <ele>1757.107758643</ele>
        <time>2015-06-11T08:16:19Z</time>
      </trkpt>
      <trkpt lat="45.43189" lon="5.90317">
        <ele>1757.107758643</ele>
        <time>2015-06-11T08:16:24Z</time>
      </trkpt>
      <trkpt lat="45.43189" lon="5.90317">
        <ele>1757.107758643</ele>
        <time>2015-06-11T08:16:29Z</time>
      </trkpt>
      <trkpt lat="45.43189" lon="5.90317">
        <ele>1757.107758643</ele>
        <time>2015-06-11T08:16:34Z</time>
      </trkpt>
      <trkpt lat="45.43189" lon="5.90317">
        <ele>1757.107758643</ele>
        <time>2015-06-11T08:16:38Z</time>
      </trkpt>
      <trkpt lat="45.43184" lon="5.90316">
        <ele>1757.107758643</ele>
        <time>2015-06-11T08:16:44Z</time>
      </trkpt>
      <trkpt lat="45.43178" lon="5.90322">
        <ele>1757.150542541</ele>
        <time>2015-06-11T08:16:49Z</time>
      </trkpt>
      <trkpt lat="45.43178" lon="5.90325">
        <ele>1757.150542541</ele>
        <time>2015-06-11T08:16:54Z</time>
      </trkpt>
      <trkpt lat="45.43177" lon="5.90327">
        <ele>1757.150542541</ele>
        <time>2015-06-11T08:16:59Z</time>
      </trkpt>
      <trkpt lat="45.43174" lon="5.90333">
        <ele>1756.609516349</ele>
        <time>2015-06-11T08:17:04Z</time>
      </trkpt>
      <trkpt lat="45.43165" lon="5.90335">
        <ele>1756.609516349</ele>
        <time>2015-06-11T08:17:09Z</time>
      </trkpt>
      <trkpt lat="45.43157" lon="5.90328">
        <ele>1755.81876003</ele>
        <time>2015-06-11T08:17:14Z</time>
      </trkpt>
      <trkpt lat="45.43157" lon="5.90332">
        <ele>1755.81876003</ele>
        <time>2015-06-11T08:17:19Z</time>
      </trkpt>
      <trkpt lat="45.43156" lon="5.90338">
        <ele>1755.81876003</ele>
        <time>2015-06-11T08:17:24Z</time>
      </trkpt>
      <trkpt lat="45.43155" lon="5.90345">
        <ele>1754.511958126</ele>
        <time>2015-06-11T08:17:29Z</time>
      </trkpt>
      <trkpt lat="45.43156" lon="5.90348">
        <ele>1754.511958126</ele>
        <time>2015-06-11T08:17:34Z</time>
      </trkpt>
      <trkpt lat="45.43155" lon="5.90349">
        <ele>1754.511958126</ele>
        <time>2015-06-11T08:17:39Z</time>
      </trkpt>
      <trkpt lat="45.43155" lon="5.90349">
        <ele>1754.511958126</ele>
        <time>2015-06-11T08:17:44Z</time>
      </trkpt>
      <trkpt lat="45.43155" lon="5.90349">
        <ele>1754.511958126</ele>
        <time>2015-06-11T08:17:49Z</time>
      </trkpt>
      <trkpt lat="45.43156" lon="5.90348">
        <ele>1754.511958126</ele>
        <time>2015-06-11T08:17:54Z</time>
      </trkpt>
      <trkpt lat="45.43156" lon="5.90349">
        <ele>1754.511958126</ele>
        <time>2015-06-11T08:17:58Z</time>
      </trkpt>
      <trkpt lat="45.43155" lon="5.90349">
        <ele>1754.511958126</ele>
        <time>2015-06-11T08:18:04Z</time>
      </trkpt>
      <trkpt lat="45.43155" lon="5.90349">
        <ele>1754.511958126</ele>
        <time>2015-06-11T08:18:09Z</time>
      </trkpt>
      <trkpt lat="45.43155" lon="5.90349">
        <ele>1754.511958126</ele>
        <time>2015-06-11T08:18:14Z</time>
      </trkpt>
      <trkpt lat="45.43155" lon="5.90349">
        <ele>1754.511958126</ele>
        <time>2015-06-11T08:18:19Z</time>
      </trkpt>
      <trkpt lat="45.43138" lon="5.90337">
        <ele>1753.884806709</ele>
        <time>2015-06-11T08:18:24Z</time>
      </trkpt>
      <trkpt lat="45.43132" lon="5.90328">
        <ele>1753.884806709</ele>
        <time>2015-06-11T08:18:27Z</time>
      </trkpt>
      <trkpt lat="45.43135" lon="5.90342">
        <ele>1754.754927013</ele>
        <time>2015-06-11T08:18:33Z</time>
      </trkpt>
      <trkpt lat="45.4313" lon="5.90342">
        <ele>1754.754927013</ele>
        <time>2015-06-11T08:18:39Z</time>
      </trkpt>
      <trkpt lat="45.43126" lon="5.90339">
        <ele>1756.002125508</ele>
        <time>2015-06-11T08:18:44Z</time>
      </trkpt>
      <trkpt lat="45.43127" lon="5.9034">
        <ele>1756.002125508</ele>
        <time>2015-06-11T08:18:49Z</time>
      </trkpt>
      <trkpt lat="45.43126" lon="5.9034">
        <ele>1756.002125508</ele>
        <time>2015-06-11T08:18:54Z</time>
      </trkpt>
      <trkpt lat="45.43126" lon="5.90339">
        <ele>1756.002125508</ele>
        <time>2015-06-11T08:18:59Z</time>
      </trkpt>
      <trkpt lat="45.43126" lon="5.90339">
        <ele>1756.002125508</ele>
        <time>2015-06-11T08:19:04Z</time>
      </trkpt>
      <trkpt lat="45.43126" lon="5.90339">
        <ele>1756.002125508</ele>
        <time>2015-06-11T08:19:09Z</time>
      </trkpt>
      <trkpt lat="45.43126" lon="5.90339">
        <ele>1756.002125508</ele>
        <time>2015-06-11T08:19:14Z</time>
      </trkpt>
      <trkpt lat="45.43125" lon="5.90342">
        <ele>1756.002125508</ele>
        <time>2015-06-11T08:19:18Z</time>
      </trkpt>
      <trkpt lat="45.43117" lon="5.90343">
        <ele>1757.307895931</ele>
        <time>2015-06-11T08:19:24Z</time>
      </trkpt>
      <trkpt lat="45.43111" lon="5.90352">
        <ele>1757.307895931</ele>
        <time>2015-06-11T08:19:29Z</time>
      </trkpt>
      <trkpt lat="45.43109" lon="5.90357">
        <ele>1758.232765935</ele>
        <time>2015-06-11T08:19:34Z</time>
      </trkpt>
      <trkpt lat="45.43105" lon="5.90359">
        <ele>1758.232765935</ele>
        <time>2015-06-11T08:19:39Z</time>
      </trkpt>
      <trkpt lat="45.43092" lon="5.90365">
        <ele>1758.802873497</ele>
        <time>2015-06-11T08:19:44Z</time>
      </trkpt>
      <trkpt lat="45.43085" lon="5.90366">
        <ele>1758.802873497</ele>
        <time>2015-06-11T08:19:49Z</time>
      </trkpt>
      <trkpt lat="45.43081" lon="5.90377">
        <ele>1758.899256045</ele>
        <time>2015-06-11T08:19:54Z</time>
      </trkpt>
      <trkpt lat="45.4308" lon="5.90368">
        <ele>1758.899256045</ele>
        <time>2015-06-11T08:19:58Z</time>
      </trkpt>
      <trkpt lat="45.43083" lon="5.90376">
        <ele>1759.277629768</ele>
        <time>2015-06-11T08:20:04Z</time>
      </trkpt>
      <trkpt lat="45.43082" lon="5.90374">
        <ele>1759.277629768</ele>
        <time>2015-06-11T08:20:09Z</time>
      </trkpt>
      <trkpt lat="45.43082" lon="5.90373">
        <ele>1759.277629768</ele>
        <time>2015-06-11T08:20:13Z</time>
      </trkpt>
      <trkpt lat="45.43082" lon="5.90375">
        <ele>1759.277629768</ele>
        <time>2015-06-11T08:20:19Z</time>
      </trkpt>
      <trkpt lat="45.43082" lon="5.90375">
        <ele>1759.277629768</ele>
        <time>2015-06-11T08:20:24Z</time>
      </trkpt>
      <trkpt lat="45.43083" lon="5.90375">
        <ele>1759.277629768</ele>
        <time>2015-06-11T08:20:29Z</time>
      </trkpt>
      <trkpt lat="45.43085" lon="5.90374">
        <ele>1759.277629768</ele>
        <time>2015-06-11T08:20:34Z</time>
      </trkpt>
      <trkpt lat="45.43086" lon="5.90373">
        <ele>1759.277629768</ele>
        <time>2015-06-11T08:20:39Z</time>
      </trkpt>
      <trkpt lat="45.43086" lon="5.90372">
        <ele>1759.277629768</ele>
        <time>2015-06-11T08:20:43Z</time>
      </trkpt>
      <trkpt lat="45.43085" lon="5.90372">
        <ele>1759.277629768</ele>
        <time>2015-06-11T08:20:49Z</time>
      </trkpt>
      <trkpt lat="45.43085" lon="5.90372">
        <ele>1759.628577132</ele>
        <time>2015-06-11T08:20:54Z</time>
      </trkpt>
      <trkpt lat="45.43085" lon="5.90372">
        <ele>1759.628577132</ele>
        <time>2015-06-11T08:20:58Z</time>
      </trkpt>
      <trkpt lat="45.43085" lon="5.90372">
        <ele>1759.628577132</ele>
        <time>2015-06-11T08:21:02Z</time>
      </trkpt>
      <trkpt lat="45.43085" lon="5.90372">
        <ele>1759.628577132</ele>
        <time>2015-06-11T08:21:07Z</time>
      </trkpt>
      <trkpt lat="45.43085" lon="5.90372">
        <ele>1759.628577132</ele>
        <time>2015-06-11T08:21:12Z</time>
      </trkpt>
      <trkpt lat="45.43085" lon="5.90372">
        <ele>1759.628577132</ele>
        <time>2015-06-11T08:21:18Z</time>
      </trkpt>
      <trkpt lat="45.43085" lon="5.90372">
        <ele>1759.628577132</ele>
        <time>2015-06-11T08:21:24Z</time>
      </trkpt>
      <trkpt lat="45.43085" lon="5.90372">
        <ele>1759.628577132</ele>
        <time>2015-06-11T08:21:27Z</time>
      </trkpt>
      <trkpt lat="45.43085" lon="5.90372">
        <ele>1759.628577132</ele>
        <time>2015-06-11T08:21:33Z</time>
      </trkpt>
      <trkpt lat="45.43085" lon="5.90372">
        <ele>1759.628577132</ele>
        <time>2015-06-11T08:21:39Z</time>
      </trkpt>
      <trkpt lat="45.43085" lon="5.90372">
        <ele>1759.628577132</ele>
        <time>2015-06-11T08:21:43Z</time>
      </trkpt>
      <trkpt lat="45.43085" lon="5.90372">
        <ele>1759.628577132</ele>
        <time>2015-06-11T08:21:47Z</time>
      </trkpt>
      <trkpt lat="45.43088" lon="5.90377">
        <ele>1759.628577132</ele>
        <time>2015-06-11T08:21:54Z</time>
      </trkpt>
      <trkpt lat="45.4309" lon="5.90381">
        <ele>1759.628577132</ele>
        <time>2015-06-11T08:21:59Z</time>
      </trkpt>
      <trkpt lat="45.43089" lon="5.90374">
        <ele>1759.809552906</ele>
        <time>2015-06-11T08:22:04Z</time>
      </trkpt>
      <trkpt lat="45.43088" lon="5.90376">
        <ele>1759.809552906</ele>
        <time>2015-06-11T08:22:09Z</time>
      </trkpt>
      <trkpt lat="45.43087" lon="5.90376">
        <ele>1759.809552906</ele>
        <time>2015-06-11T08:22:14Z</time>
      </trkpt>
      <trkpt lat="45.43087" lon="5.90376">
        <ele>1759.809552906</ele>
        <time>2015-06-11T08:22:19Z</time>
      </trkpt>
      <trkpt lat="45.43087" lon="5.90376">
        <ele>1759.809552906</ele>
        <time>2015-06-11T08:22:23Z</time>
      </trkpt>
      <trkpt lat="45.43087" lon="5.90376">
        <ele>1759.809552906</ele>
        <time>2015-06-11T08:22:29Z</time>
      </trkpt>
      <trkpt lat="45.43087" lon="5.90376">
        <ele>1759.809552906</ele>
        <time>2015-06-11T08:22:34Z</time>
      </trkpt>
      <trkpt lat="45.43087" lon="5.90376">
        <ele>1759.809552906</ele>
        <time>2015-06-11T08:22:37Z</time>
      </trkpt>
      <trkpt lat="45.43087" lon="5.90376">
        <ele>1759.809552906</ele>
        <time>2015-06-11T08:22:42Z</time>
      </trkpt>
      <trkpt lat="45.43087" lon="5.90377">
        <ele>1759.809552906</ele>
        <time>2015-06-11T08:22:47Z</time>
      </trkpt>
      <trkpt lat="45.43087" lon="5.90377">
        <ele>1759.809552906</ele>
        <time>2015-06-11T08:22:54Z</time>
      </trkpt>
      <trkpt lat="45.43087" lon="5.90377">
        <ele>1759.809552906</ele>
        <time>2015-06-11T08:22:59Z</time>
      </trkpt>
      <trkpt lat="45.43087" lon="5.90377">
        <ele>1759.809552906</ele>
        <time>2015-06-11T08:23:04Z</time>
      </trkpt>
      <trkpt lat="45.43087" lon="5.90377">
        <ele>1759.809552906</ele>
        <time>2015-06-11T08:23:09Z</time>
      </trkpt>
      <trkpt lat="45.43087" lon="5.90377">
        <ele>1759.809552906</ele>
        <time>2015-06-11T08:23:14Z</time>
      </trkpt>
      <trkpt lat="45.43087" lon="5.90377">
        <ele>1759.809552906</ele>
        <time>2015-06-11T08:23:18Z</time>
      </trkpt>
      <trkpt lat="45.43087" lon="5.90377">
        <ele>1759.809552906</ele>
        <time>2015-06-11T08:23:23Z</time>
      </trkpt>
      <trkpt lat="45.43087" lon="5.90377">
        <ele>1759.809552906</ele>
        <time>2015-06-11T08:23:29Z</time>
      </trkpt>
      <trkpt lat="45.43087" lon="5.90377">
        <ele>1759.809552906</ele>
        <time>2015-06-11T08:23:34Z</time>
      </trkpt>
      <trkpt lat="45.43084" lon="5.90371">
        <ele>1759.809552906</ele>
        <time>2015-06-11T08:23:38Z</time>
      </trkpt>
      <trkpt lat="45.43082" lon="5.90372">
        <ele>1760.265363684</ele>
        <time>2015-06-11T08:23:44Z</time>
      </trkpt>
      <trkpt lat="45.43082" lon="5.90374">
        <ele>1760.265363684</ele>
        <time>2015-06-11T08:23:49Z</time>
      </trkpt>
      <trkpt lat="45.43082" lon="5.90374">
        <ele>1760.265363684</ele>
        <time>2015-06-11T08:23:54Z</time>
      </trkpt>
      <trkpt lat="45.43082" lon="5.90374">
        <ele>1760.265363684</ele>
        <time>2015-06-11T08:23:59Z</time>
      </trkpt>
      <trkpt lat="45.43082" lon="5.90374">
        <ele>1760.265363684</ele>
        <time>2015-06-11T08:24:03Z</time>
      </trkpt>
      <trkpt lat="45.43082" lon="5.90374">
        <ele>1760.265363684</ele>
        <time>2015-06-11T08:24:09Z</time>
      </trkpt>
      <trkpt lat="45.43082" lon="5.90374">
        <ele>1760.265363684</ele>
        <time>2015-06-11T08:24:14Z</time>
      </trkpt>
      <trkpt lat="45.43082" lon="5.90374">
        <ele>1760.265363684</ele>
        <time>2015-06-11T08:24:18Z</time>
      </trkpt>
      <trkpt lat="45.43082" lon="5.90374">
        <ele>1760.265363684</ele>
        <time>2015-06-11T08:24:24Z</time>
      </trkpt>
      <trkpt lat="45.43082" lon="5.90374">
        <ele>1760.265363684</ele>
        <time>2015-06-11T08:24:27Z</time>
      </trkpt>
      <trkpt lat="45.43082" lon="5.90374">
        <ele>1760.265363684</ele>
        <time>2015-06-11T08:24:33Z</time>
      </trkpt>
      <trkpt lat="45.43082" lon="5.90374">
        <ele>1760.265363684</ele>
        <time>2015-06-11T08:24:37Z</time>
      </trkpt>
      <trkpt lat="45.43082" lon="5.90374">
        <ele>1760.265363684</ele>
        <time>2015-06-11T08:24:43Z</time>
      </trkpt>
      <trkpt lat="45.43082" lon="5.90374">
        <ele>1760.265363684</ele>
        <time>2015-06-11T08:24:48Z</time>
      </trkpt>
      <trkpt lat="45.43082" lon="5.90374">
        <ele>1760.265363684</ele>
        <time>2015-06-11T08:24:52Z</time>
      </trkpt>
      <trkpt lat="45.4308" lon="5.90372">
        <ele>1760.265363684</ele>
        <time>2015-06-11T08:24:58Z</time>
      </trkpt>
      <trkpt lat="45.4308" lon="5.9037">
        <ele>1760.265363684</ele>
        <time>2015-06-11T08:25:04Z</time>
      </trkpt>
      <trkpt lat="45.43078" lon="5.90358">
        <ele>1760.830889028</ele>
        <time>2015-06-11T08:25:09Z</time>
      </trkpt>
      <trkpt lat="45.43078" lon="5.90355">
        <ele>1760.830889028</ele>
        <time>2015-06-11T08:25:14Z</time>
      </trkpt>
      <trkpt lat="45.43077" lon="5.90354">
        <ele>1760.830889028</ele>
        <time>2015-06-11T08:25:19Z</time>
      </trkpt>
      <trkpt lat="45.43077" lon="5.90354">
        <ele>1760.830889028</ele>
        <time>2015-06-11T08:25:24Z</time>
      </trkpt>
      <trkpt lat="45.43077" lon="5.90354">
        <ele>1760.830889028</ele>
        <time>2015-06-11T08:25:29Z</time>
      </trkpt>
      <trkpt lat="45.43077" lon="5.90354">
        <ele>1760.830889028</ele>
        <time>2015-06-11T08:25:33Z</time>
      </trkpt>
      <trkpt lat="45.43077" lon="5.90354">
        <ele>1760.830889028</ele>
        <time>2015-06-11T08:25:39Z</time>
      </trkpt>
      <trkpt lat="45.43077" lon="5.90354">
        <ele>1760.830889028</ele>
        <time>2015-06-11T08:25:43Z</time>
      </trkpt>
      <trkpt lat="45.43077" lon="5.90354">
        <ele>1760.830889028</ele>
        <time>2015-06-11T08:25:49Z</time>
      </trkpt>
      <trkpt lat="45.43077" lon="5.90354">
        <ele>1760.830889028</ele>
        <time>2015-06-11T08:25:54Z</time>
      </trkpt>
      <trkpt lat="45.43077" lon="5.90354">
        <ele>1760.830889028</ele>
        <time>2015-06-11T08:25:59Z</time>
      </trkpt>
      <trkpt lat="45.43077" lon="5.90354">
        <ele>1760.830889028</ele>
        <time>2015-06-11T08:26:03Z</time>
      </trkpt>
      <trkpt lat="45.43077" lon="5.90354">
        <ele>1760.830889028</ele>
        <time>2015-06-11T08:26:09Z</time>
      </trkpt>
      <trkpt lat="45.43077" lon="5.90354">
        <ele>1760.830889028</ele>
        <time>2015-06-11T08:26:14Z</time>
      </trkpt>
      <trkpt lat="45.43077" lon="5.90354">
        <ele>1760.830889028</ele>
        <time>2015-06-11T08:26:19Z</time>
      </trkpt>
      <trkpt lat="45.43078" lon="5.90354">
        <ele>1760.830889028</ele>
        <time>2015-06-11T08:26:24Z</time>
      </trkpt>
      <trkpt lat="45.43077" lon="5.90354">
        <ele>1760.830889028</ele>
        <time>2015-06-11T08:26:29Z</time>
      </trkpt>
      <trkpt lat="45.43077" lon="5.90354">
        <ele>1760.830889028</ele>
        <time>2015-06-11T08:26:34Z</time>
      </trkpt>
      <trkpt lat="45.43077" lon="5.90354">
        <ele>1760.830889028</ele>
        <time>2015-06-11T08:26:38Z</time>
      </trkpt>
      <trkpt lat="45.43077" lon="5.90354">
        <ele>1760.830889028</ele>
        <time>2015-06-11T08:26:44Z</time>
      </trkpt>
      <trkpt lat="45.43077" lon="5.90354">
        <ele>1760.830889028</ele>
        <time>2015-06-11T08:26:49Z</time>
      </trkpt>
      <trkpt lat="45.43077" lon="5.90354">
        <ele>1760.830889028</ele>
        <time>2015-06-11T08:26:54Z</time>
      </trkpt>
      <trkpt lat="45.43077" lon="5.90354">
        <ele>1760.830889028</ele>
        <time>2015-06-11T08:26:59Z</time>
      </trkpt>
      <trkpt lat="45.43077" lon="5.90354">
        <ele>1760.830889028</ele>
        <time>2015-06-11T08:27:04Z</time>
      </trkpt>
      <trkpt lat="45.43077" lon="5.90354">
        <ele>1760.830889028</ele>
        <time>2015-06-11T08:27:09Z</time>
      </trkpt>
      <trkpt lat="45.43078" lon="5.90354">
        <ele>1760.830889028</ele>
        <time>2015-06-11T08:27:14Z</time>
      </trkpt>
      <trkpt lat="45.43078" lon="5.90354">
        <ele>1760.830889028</ele>
        <time>2015-06-11T08:27:19Z</time>
      </trkpt>
      <trkpt lat="45.43078" lon="5.90354">
        <ele>1760.830889028</ele>
        <time>2015-06-11T08:27:24Z</time>
      </trkpt>
      <trkpt lat="45.43078" lon="5.90354">
        <ele>1760.830889028</ele>
        <time>2015-06-11T08:27:29Z</time>
      </trkpt>
      <trkpt lat="45.43078" lon="5.90354">
        <ele>1760.830889028</ele>
        <time>2015-06-11T08:27:34Z</time>
      </trkpt>
      <trkpt lat="45.43078" lon="5.90354">
        <ele>1760.830889028</ele>
        <time>2015-06-11T08:27:38Z</time>
      </trkpt>
      <trkpt lat="45.43078" lon="5.90354">
        <ele>1760.830889028</ele>
        <time>2015-06-11T08:27:44Z</time>
      </trkpt>
      <trkpt lat="45.43078" lon="5.90354">
        <ele>1760.830889028</ele>
        <time>2015-06-11T08:27:48Z</time>
      </trkpt>
      <trkpt lat="45.43078" lon="5.90354">
        <ele>1760.830889028</ele>
        <time>2015-06-11T08:27:52Z</time>
      </trkpt>
      <trkpt lat="45.43078" lon="5.90354">
        <ele>1760.830889028</ele>
        <time>2015-06-11T08:27:58Z</time>
      </trkpt>
      <trkpt lat="45.43078" lon="5.90354">
        <ele>1760.830889028</ele>
        <time>2015-06-11T08:28:03Z</time>
      </trkpt>
      <trkpt lat="45.43078" lon="5.90355">
        <ele>1760.830889028</ele>
        <time>2015-06-11T08:28:08Z</time>
      </trkpt>
      <trkpt lat="45.43078" lon="5.90355">
        <ele>1760.830889028</ele>
        <time>2015-06-11T08:28:14Z</time>
      </trkpt>
      <trkpt lat="45.43078" lon="5.90355">
        <ele>1760.830889028</ele>
        <time>2015-06-11T08:28:17Z</time>
      </trkpt>
      <trkpt lat="45.43078" lon="5.90355">
        <ele>1760.830889028</ele>
        <time>2015-06-11T08:28:24Z</time>
      </trkpt>
      <trkpt lat="45.43078" lon="5.90355">
        <ele>1760.830889028</ele>
        <time>2015-06-11T08:28:29Z</time>
      </trkpt>
      <trkpt lat="45.43078" lon="5.90355">
        <ele>1760.830889028</ele>
        <time>2015-06-11T08:28:34Z</time>
      </trkpt>
      <trkpt lat="45.43078" lon="5.90355">
        <ele>1760.830889028</ele>
        <time>2015-06-11T08:28:39Z</time>
      </trkpt>
      <trkpt lat="45.43078" lon="5.90355">
        <ele>1760.830889028</ele>
        <time>2015-06-11T08:28:44Z</time>
      </trkpt>
      <trkpt lat="45.43078" lon="5.90355">
        <ele>1760.830889028</ele>
        <time>2015-06-11T08:28:49Z</time>
      </trkpt>
      <trkpt lat="45.43078" lon="5.90355">
        <ele>1760.830889028</ele>
        <time>2015-06-11T08:28:53Z</time>
      </trkpt>
      <trkpt lat="45.43078" lon="5.90355">
        <ele>1760.830889028</ele>
        <time>2015-06-11T08:28:59Z</time>
      </trkpt>
      <trkpt lat="45.43078" lon="5.90355">
        <ele>1760.830889028</ele>
        <time>2015-06-11T08:29:04Z</time>
      </trkpt>
      <trkpt lat="45.43078" lon="5.90355">
        <ele>1760.830889028</ele>
        <time>2015-06-11T08:29:08Z</time>
      </trkpt>
      <trkpt lat="45.43078" lon="5.90355">
        <ele>1760.830889028</ele>
        <time>2015-06-11T08:29:14Z</time>
      </trkpt>
      <trkpt lat="45.43078" lon="5.90355">
        <ele>1760.830889028</ele>
        <time>2015-06-11T08:29:19Z</time>
      </trkpt>
      <trkpt lat="45.43078" lon="5.90355">
        <ele>1760.830889028</ele>
        <time>2015-06-11T08:29:22Z</time>
      </trkpt>
      <trkpt lat="45.43078" lon="5.90355">
        <ele>1760.830889028</ele>
        <time>2015-06-11T08:29:27Z</time>
      </trkpt>
      <trkpt lat="45.43078" lon="5.90355">
        <ele>1760.830889028</ele>
        <time>2015-06-11T08:29:32Z</time>
      </trkpt>
      <trkpt lat="45.43078" lon="5.90355">
        <ele>1760.830889028</ele>
        <time>2015-06-11T08:29:48Z</time>
      </trkpt>
      <trkpt lat="45.43079" lon="5.90359">
        <ele>1760.830889028</ele>
        <time>2015-06-11T08:29:54Z</time>
      </trkpt>
      <trkpt lat="45.43078" lon="5.90358">
        <ele>1760.830889028</ele>
        <time>2015-06-11T08:29:58Z</time>
      </trkpt>
      <trkpt lat="45.4308" lon="5.90355">
        <ele>1762.217467537</ele>
        <time>2015-06-11T08:30:04Z</time>
      </trkpt>
      <trkpt lat="45.4308" lon="5.90362">
        <ele>1762.217467537</ele>
        <time>2015-06-11T08:30:09Z</time>
      </trkpt>
      <trkpt lat="45.43081" lon="5.90365">
        <ele>1762.217467537</ele>
        <time>2015-06-11T08:30:14Z</time>
      </trkpt>
      <trkpt lat="45.43082" lon="5.90368">
        <ele>1763.928968967</ele>
        <time>2015-06-11T08:30:18Z</time>
      </trkpt>
      <trkpt lat="45.43083" lon="5.90372">
        <ele>1763.928968967</ele>
        <time>2015-06-11T08:30:24Z</time>
      </trkpt>
      <trkpt lat="45.43082" lon="5.90372">
        <ele>1763.928968967</ele>
        <time>2015-06-11T08:30:29Z</time>
      </trkpt>
      <trkpt lat="45.43084" lon="5.90369">
        <ele>1763.928968967</ele>
        <time>2015-06-11T08:30:34Z</time>
      </trkpt>
      <trkpt lat="45.43085" lon="5.9037">
        <ele>1765.504785365</ele>
        <time>2015-06-11T08:30:39Z</time>
      </trkpt>
      <trkpt lat="45.43088" lon="5.9037">
        <ele>1765.504785365</ele>
        <time>2015-06-11T08:30:43Z</time>
      </trkpt>
      <trkpt lat="45.43089" lon="5.90368">
        <ele>1765.504785365</ele>
        <time>2015-06-11T08:30:49Z</time>
      </trkpt>
      <trkpt lat="45.43089" lon="5.90368">
        <ele>1765.504785365</ele>
        <time>2015-06-11T08:30:53Z</time>
      </trkpt>
      <trkpt lat="45.43089" lon="5.90368">
        <ele>1765.504785365</ele>
        <time>2015-06-11T08:30:59Z</time>
      </trkpt>
      <trkpt lat="45.43089" lon="5.90368">
        <ele>1765.504785365</ele>
        <time>2015-06-11T08:31:04Z</time>
      </trkpt>
      <trkpt lat="45.43089" lon="5.90368">
        <ele>1765.504785365</ele>
        <time>2015-06-11T08:31:08Z</time>
      </trkpt>
      <trkpt lat="45.43089" lon="5.90368">
        <ele>1765.504785365</ele>
        <time>2015-06-11T08:31:14Z</time>
      </trkpt>
      <trkpt lat="45.43089" lon="5.90368">
        <ele>1765.504785365</ele>
        <time>2015-06-11T08:31:18Z</time>
      </trkpt>
      <trkpt lat="45.43089" lon="5.90368">
        <ele>1765.504785365</ele>
        <time>2015-06-11T08:31:24Z</time>
      </trkpt>
      <trkpt lat="45.43089" lon="5.90369">
        <ele>1765.504785365</ele>
        <time>2015-06-11T08:31:27Z</time>
      </trkpt>
      <trkpt lat="45.43089" lon="5.90369">
        <ele>1765.504785365</ele>
        <time>2015-06-11T08:31:33Z</time>
      </trkpt>
      <trkpt lat="45.43089" lon="5.90369">
        <ele>1765.504785365</ele>
        <time>2015-06-11T08:31:37Z</time>
      </trkpt>
      <trkpt lat="45.43089" lon="5.90369">
        <ele>1765.504785365</ele>
        <time>2015-06-11T08:31:43Z</time>
      </trkpt>
      <trkpt lat="45.43089" lon="5.90369">
        <ele>1765.504785365</ele>
        <time>2015-06-11T08:31:48Z</time>
      </trkpt>
      <trkpt lat="45.43089" lon="5.90369">
        <ele>1765.504785365</ele>
        <time>2015-06-11T08:31:53Z</time>
      </trkpt>
      <trkpt lat="45.43092" lon="5.90367">
        <ele>1765.504785365</ele>
        <time>2015-06-11T08:31:58Z</time>
      </trkpt>
      <trkpt lat="45.43093" lon="5.90366">
        <ele>1767.815527136</ele>
        <time>2015-06-11T08:32:04Z</time>
      </trkpt>
      <trkpt lat="45.43094" lon="5.90365">
        <ele>1767.815527136</ele>
        <time>2015-06-11T08:32:09Z</time>
      </trkpt>
      <trkpt lat="45.43099" lon="5.90367">
        <ele>1767.815527136</ele>
        <time>2015-06-11T08:32:14Z</time>
      </trkpt>
      <trkpt lat="45.43099" lon="5.90367">
        <ele>1767.815527136</ele>
        <time>2015-06-11T08:32:18Z</time>
      </trkpt>
      <trkpt lat="45.43098" lon="5.90366">
        <ele>1767.815527136</ele>
        <time>2015-06-11T08:32:24Z</time>
      </trkpt>
      <trkpt lat="45.43097" lon="5.90365">
        <ele>1767.815527136</ele>
        <time>2015-06-11T08:32:29Z</time>
      </trkpt>
      <trkpt lat="45.431" lon="5.90365">
        <ele>1768.783578404</ele>
        <time>2015-06-11T08:32:34Z</time>
      </trkpt>
      <trkpt lat="45.43102" lon="5.90363">
        <ele>1768.783578404</ele>
        <time>2015-06-11T08:32:39Z</time>
      </trkpt>
      <trkpt lat="45.43103" lon="5.90364">
        <ele>1768.783578404</ele>
        <time>2015-06-11T08:32:44Z</time>
      </trkpt>
      <trkpt lat="45.43102" lon="5.90363">
        <ele>1768.783578404</ele>
        <time>2015-06-11T08:32:49Z</time>
      </trkpt>
      <trkpt lat="45.43104" lon="5.9036">
        <ele>1768.783578404</ele>
        <time>2015-06-11T08:32:54Z</time>
      </trkpt>
      <trkpt lat="45.43104" lon="5.90359">
        <ele>1768.783578404</ele>
        <time>2015-06-11T08:32:59Z</time>
      </trkpt>
      <trkpt lat="45.4311" lon="5.90366">
        <ele>1770.378737174</ele>
        <time>2015-06-11T08:33:04Z</time>
      </trkpt>
      <trkpt lat="45.43112" lon="5.90365">
        <ele>1770.378737174</ele>
        <time>2015-06-11T08:33:09Z</time>
      </trkpt>
      <trkpt lat="45.43111" lon="5.90362">
        <ele>1770.378737174</ele>
        <time>2015-06-11T08:33:13Z</time>
      </trkpt>
      <trkpt lat="45.43111" lon="5.9036">
        <ele>1770.378737174</ele>
        <time>2015-06-11T08:33:19Z</time>
      </trkpt>
      <trkpt lat="45.43111" lon="5.9036">
        <ele>1770.378737174</ele>
        <time>2015-06-11T08:33:24Z</time>
      </trkpt>
      <trkpt lat="45.43112" lon="5.90361">
        <ele>1770.378737174</ele>
        <time>2015-06-11T08:33:29Z</time>
      </trkpt>
      <trkpt lat="45.43112" lon="5.90362">
        <ele>1770.378737174</ele>
        <time>2015-06-11T08:33:34Z</time>
      </trkpt>
      <trkpt lat="45.43111" lon="5.90362">
        <ele>1770.378737174</ele>
        <time>2015-06-11T08:33:39Z</time>
      </trkpt>
      <trkpt lat="45.43113" lon="5.90365">
        <ele>1770.378737174</ele>
        <time>2015-06-11T08:33:44Z</time>
      </trkpt>
      <trkpt lat="45.43114" lon="5.90362">
        <ele>1771.253930817</ele>
        <time>2015-06-11T08:33:49Z</time>
      </trkpt>
      <trkpt lat="45.43117" lon="5.90364">
        <ele>1771.253930817</ele>
        <time>2015-06-11T08:33:54Z</time>
      </trkpt>
      <trkpt lat="45.43117" lon="5.90361">
        <ele>1771.253930817</ele>
        <time>2015-06-11T08:33:58Z</time>
      </trkpt>
      <trkpt lat="45.43118" lon="5.9036">
        <ele>1771.253930817</ele>
        <time>2015-06-11T08:34:04Z</time>
      </trkpt>
      <trkpt lat="45.43121" lon="5.90364">
        <ele>1772.036548038</ele>
        <time>2015-06-11T08:34:08Z</time>
      </trkpt>
      <trkpt lat="45.43119" lon="5.90363">
        <ele>1772.036548038</ele>
        <time>2015-06-11T08:34:14Z</time>
      </trkpt>
      <trkpt lat="45.43121" lon="5.9036">
        <ele>1772.036548038</ele>
        <time>2015-06-11T08:34:19Z</time>
      </trkpt>
      <trkpt lat="45.43123" lon="5.90362">
        <ele>1772.036548038</ele>
        <time>2015-06-11T08:34:24Z</time>
      </trkpt>
      <trkpt lat="45.43124" lon="5.90363">
        <ele>1772.036548038</ele>
        <time>2015-06-11T08:34:29Z</time>
      </trkpt>
      <trkpt lat="45.43126" lon="5.90365">
        <ele>1772.587638706</ele>
        <time>2015-06-11T08:34:34Z</time>
      </trkpt>
      <trkpt lat="45.43127" lon="5.90367">
        <ele>1772.587638706</ele>
        <time>2015-06-11T08:34:39Z</time>
      </trkpt>
      <trkpt lat="45.43127" lon="5.90367">
        <ele>1772.587638706</ele>
        <time>2015-06-11T08:34:44Z</time>
      </trkpt>
      <trkpt lat="45.43128" lon="5.90366">
        <ele>1772.587638706</ele>
        <time>2015-06-11T08:34:49Z</time>
      </trkpt>
      <trkpt lat="45.43128" lon="5.90366">
        <ele>1772.587638706</ele>
        <time>2015-06-11T08:34:53Z</time>
      </trkpt>
      <trkpt lat="45.43128" lon="5.90366">
        <ele>1772.587638706</ele>
        <time>2015-06-11T08:34:58Z</time>
      </trkpt>
      <trkpt lat="45.43128" lon="5.90366">
        <ele>1772.587638706</ele>
        <time>2015-06-11T08:35:09Z</time>
      </trkpt>
      <trkpt lat="45.43126" lon="5.90366">
        <ele>1772.587638706</ele>
        <time>2015-06-11T08:35:14Z</time>
      </trkpt>
      <trkpt lat="45.43127" lon="5.90363">
        <ele>1772.587638706</ele>
        <time>2015-06-11T08:35:19Z</time>
      </trkpt>
      <trkpt lat="45.43128" lon="5.90368">
        <ele>1772.92326719</ele>
        <time>2015-06-11T08:35:24Z</time>
      </trkpt>
      <trkpt lat="45.43133" lon="5.90364">
        <ele>1772.92326719</ele>
        <time>2015-06-11T08:35:29Z</time>
      </trkpt>
      <trkpt lat="45.43135" lon="5.90364">
        <ele>1772.92326719</ele>
        <time>2015-06-11T08:35:34Z</time>
      </trkpt>
      <trkpt lat="45.43134" lon="5.90363">
        <ele>1772.92326719</ele>
        <time>2015-06-11T08:35:39Z</time>
      </trkpt>
      <trkpt lat="45.43135" lon="5.90362">
        <ele>1773.491302293</ele>
        <time>2015-06-11T08:35:43Z</time>
      </trkpt>
      <trkpt lat="45.43134" lon="5.90364">
        <ele>1773.491302293</ele>
        <time>2015-06-11T08:35:49Z</time>
      </trkpt>
      <trkpt lat="45.43135" lon="5.90362">
        <ele>1773.491302293</ele>
        <time>2015-06-11T08:35:54Z</time>
      </trkpt>
      <trkpt lat="45.43135" lon="5.90362">
        <ele>1773.491302293</ele>
        <time>2015-06-11T08:35:58Z</time>
      </trkpt>
      <trkpt lat="45.43135" lon="5.90362">
        <ele>1773.491302293</ele>
        <time>2015-06-11T08:36:04Z</time>
      </trkpt>
      <trkpt lat="45.43137" lon="5.90359">
        <ele>1773.491302293</ele>
        <time>2015-06-11T08:36:09Z</time>
      </trkpt>
      <trkpt lat="45.43141" lon="5.9036">
        <ele>1774.706107459</ele>
        <time>2015-06-11T08:36:14Z</time>
      </trkpt>
      <trkpt lat="45.43141" lon="5.9036">
        <ele>1774.706107459</ele>
        <time>2015-06-11T08:36:19Z</time>
      </trkpt>
      <trkpt lat="45.4314" lon="5.9036">
        <ele>1774.706107459</ele>
        <time>2015-06-11T08:36:24Z</time>
      </trkpt>
      <trkpt lat="45.4314" lon="5.9036">
        <ele>1774.706107459</ele>
        <time>2015-06-11T08:36:29Z</time>
      </trkpt>
      <trkpt lat="45.43141" lon="5.90358">
        <ele>1774.706107459</ele>
        <time>2015-06-11T08:36:34Z</time>
      </trkpt>
      <trkpt lat="45.43145" lon="5.90357">
        <ele>1774.706107459</ele>
        <time>2015-06-11T08:36:39Z</time>
      </trkpt>
      <trkpt lat="45.43147" lon="5.90357">
        <ele>1775.796950752</ele>
        <time>2015-06-11T08:36:44Z</time>
      </trkpt>
      <trkpt lat="45.43149" lon="5.90356">
        <ele>1775.796950752</ele>
        <time>2015-06-11T08:36:49Z</time>
      </trkpt>
      <trkpt lat="45.43149" lon="5.90357">
        <ele>1775.796950752</ele>
        <time>2015-06-11T08:36:53Z</time>
      </trkpt>
      <trkpt lat="45.43149" lon="5.90357">
        <ele>1775.796950752</ele>
        <time>2015-06-11T08:36:58Z</time>
      </trkpt>
      <trkpt lat="45.43149" lon="5.90357">
        <ele>1775.796950752</ele>
        <time>2015-06-11T08:37:03Z</time>
      </trkpt>
      <trkpt lat="45.43149" lon="5.90357">
        <ele>1775.796950752</ele>
        <time>2015-06-11T08:37:07Z</time>
      </trkpt>
      <trkpt lat="45.43149" lon="5.90357">
        <ele>1775.796950752</ele>
        <time>2015-06-11T08:37:12Z</time>
      </trkpt>
      <trkpt lat="45.43149" lon="5.90357">
        <ele>1775.796950752</ele>
        <time>2015-06-11T08:37:17Z</time>
      </trkpt>
      <trkpt lat="45.43149" lon="5.90357">
        <ele>1775.796950752</ele>
        <time>2015-06-11T08:37:23Z</time>
      </trkpt>
      <trkpt lat="45.43149" lon="5.90357">
        <ele>1775.796950752</ele>
        <time>2015-06-11T08:37:29Z</time>
      </trkpt>
      <trkpt lat="45.43149" lon="5.90357">
        <ele>1775.796950752</ele>
        <time>2015-06-11T08:37:34Z</time>
      </trkpt>
      <trkpt lat="45.43149" lon="5.90357">
        <ele>1775.796950752</ele>
        <time>2015-06-11T08:37:39Z</time>
      </trkpt>
      <trkpt lat="45.43149" lon="5.90357">
        <ele>1775.796950752</ele>
        <time>2015-06-11T08:37:44Z</time>
      </trkpt>
      <trkpt lat="45.43149" lon="5.90357">
        <ele>1775.796950752</ele>
        <time>2015-06-11T08:37:49Z</time>
      </trkpt>
      <trkpt lat="45.43149" lon="5.90357">
        <ele>1775.796950752</ele>
        <time>2015-06-11T08:37:53Z</time>
      </trkpt>
      <trkpt lat="45.43149" lon="5.90357">
        <ele>1775.796950752</ele>
        <time>2015-06-11T08:37:58Z</time>
      </trkpt>
      <trkpt lat="45.4315" lon="5.90354">
        <ele>1775.796950752</ele>
        <time>2015-06-11T08:38:04Z</time>
      </trkpt>
      <trkpt lat="45.43152" lon="5.9035">
        <ele>1775.796950752</ele>
        <time>2015-06-11T08:38:09Z</time>
      </trkpt>
      <trkpt lat="45.43153" lon="5.9035">
        <ele>1775.796950752</ele>
        <time>2015-06-11T08:38:14Z</time>
      </trkpt>
      <trkpt lat="45.43153" lon="5.9035">
        <ele>1777.347115621</ele>
        <time>2015-06-11T08:38:18Z</time>
      </trkpt>
      <trkpt lat="45.43153" lon="5.9035">
        <ele>1777.347115621</ele>
        <time>2015-06-11T08:38:23Z</time>
      </trkpt>
      <trkpt lat="45.43153" lon="5.9035">
        <ele>1777.347115621</ele>
        <time>2015-06-11T08:38:27Z</time>
      </trkpt>
      <trkpt lat="45.43153" lon="5.9035">
        <ele>1777.347115621</ele>
        <time>2015-06-11T08:38:33Z</time>
      </trkpt>
      <trkpt lat="45.43153" lon="5.9035">
        <ele>1777.347115621</ele>
        <time>2015-06-11T08:38:39Z</time>
      </trkpt>
      <trkpt lat="45.43153" lon="5.9035">
        <ele>1777.347115621</ele>
        <time>2015-06-11T08:38:44Z</time>
      </trkpt>
      <trkpt lat="45.43153" lon="5.9035">
        <ele>1777.347115621</ele>
        <time>2015-06-11T08:38:49Z</time>
      </trkpt>
      <trkpt lat="45.43153" lon="5.9035">
        <ele>1777.347115621</ele>
        <time>2015-06-11T08:38:54Z</time>
      </trkpt>
      <trkpt lat="45.43153" lon="5.9035">
        <ele>1777.347115621</ele>
        <time>2015-06-11T08:38:58Z</time>
      </trkpt>
      <trkpt lat="45.43153" lon="5.9035">
        <ele>1777.347115621</ele>
        <time>2015-06-11T08:39:03Z</time>
      </trkpt>
      <trkpt lat="45.43153" lon="5.9035">
        <ele>1777.347115621</ele>
        <time>2015-06-11T08:39:09Z</time>
      </trkpt>
      <trkpt lat="45.43152" lon="5.90348">
        <ele>1777.347115621</ele>
        <time>2015-06-11T08:39:14Z</time>
      </trkpt>
      <trkpt lat="45.43153" lon="5.9035">
        <ele>1777.347115621</ele>
        <time>2015-06-11T08:39:18Z</time>
      </trkpt>
      <trkpt lat="45.43153" lon="5.90352">
        <ele>1777.347115621</ele>
        <time>2015-06-11T08:39:24Z</time>
      </trkpt>
      <trkpt lat="45.43153" lon="5.90351">
        <ele>1777.347115621</ele>
        <time>2015-06-11T08:39:28Z</time>
      </trkpt>
      <trkpt lat="45.43153" lon="5.90351">
        <ele>1777.347115621</ele>
        <time>2015-06-11T08:39:33Z</time>
      </trkpt>
      <trkpt lat="45.43154" lon="5.90351">
        <ele>1777.347115621</ele>
        <time>2015-06-11T08:39:39Z</time>
      </trkpt>
      <trkpt lat="45.43154" lon="5.90355">
        <ele>1779.17524763</ele>
        <time>2015-06-11T08:39:44Z</time>
      </trkpt>
      <trkpt lat="45.43156" lon="5.90361">
        <ele>1779.17524763</ele>
        <time>2015-06-11T08:39:49Z</time>
      </trkpt>
      <trkpt lat="45.43157" lon="5.90357">
        <ele>1779.17524763</ele>
        <time>2015-06-11T08:39:54Z</time>
      </trkpt>
      <trkpt lat="45.43156" lon="5.90362">
        <ele>1781.256706447</ele>
        <time>2015-06-11T08:39:59Z</time>
      </trkpt>
      <trkpt lat="45.43156" lon="5.90362">
        <ele>1781.256706447</ele>
        <time>2015-06-11T08:40:04Z</time>
      </trkpt>
      <trkpt lat="45.43156" lon="5.90362">
        <ele>1781.256706447</ele>
        <time>2015-06-11T08:40:08Z</time>
      </trkpt>
      <trkpt lat="45.43156" lon="5.90362">
        <ele>1781.256706447</ele>
        <time>2015-06-11T08:40:13Z</time>
      </trkpt>
      <trkpt lat="45.43156" lon="5.90362">
        <ele>1781.256706447</ele>
        <time>2015-06-11T08:40:19Z</time>
      </trkpt>
      <trkpt lat="45.43156" lon="5.90362">
        <ele>1781.256706447</ele>
        <time>2015-06-11T08:40:23Z</time>
      </trkpt>
      <trkpt lat="45.43156" lon="5.90362">
        <ele>1781.256706447</ele>
        <time>2015-06-11T08:40:29Z</time>
      </trkpt>
      <trkpt lat="45.43156" lon="5.90362">
        <ele>1781.256706447</ele>
        <time>2015-06-11T08:40:34Z</time>
      </trkpt>
      <trkpt lat="45.43156" lon="5.90362">
        <ele>1781.256706447</ele>
        <time>2015-06-11T08:40:39Z</time>
      </trkpt>
      <trkpt lat="45.43156" lon="5.90362">
        <ele>1781.256706447</ele>
        <time>2015-06-11T08:40:43Z</time>
      </trkpt>
      <trkpt lat="45.43156" lon="5.90362">
        <ele>1781.256706447</ele>
        <time>2015-06-11T08:40:49Z</time>
      </trkpt>
      <trkpt lat="45.43156" lon="5.90362">
        <ele>1781.256706447</ele>
        <time>2015-06-11T08:40:52Z</time>
      </trkpt>
      <trkpt lat="45.43156" lon="5.90362">
        <ele>1781.256706447</ele>
        <time>2015-06-11T08:40:58Z</time>
      </trkpt>
      <trkpt lat="45.43156" lon="5.90362">
        <ele>1781.256706447</ele>
        <time>2015-06-11T08:41:02Z</time>
      </trkpt>
      <trkpt lat="45.43157" lon="5.90361">
        <ele>1781.256706447</ele>
        <time>2015-06-11T08:41:08Z</time>
      </trkpt>
      <trkpt lat="45.43157" lon="5.9036">
        <ele>1781.256706447</ele>
        <time>2015-06-11T08:41:13Z</time>
      </trkpt>
      <trkpt lat="45.43156" lon="5.9036">
        <ele>1781.256706447</ele>
        <time>2015-06-11T08:41:18Z</time>
      </trkpt>
      <trkpt lat="45.43156" lon="5.9036">
        <ele>1781.256706447</ele>
        <time>2015-06-11T08:41:23Z</time>
      </trkpt>
      <trkpt lat="45.43156" lon="5.9036">
        <ele>1781.256706447</ele>
        <time>2015-06-11T08:41:27Z</time>
      </trkpt>
      <trkpt lat="45.43156" lon="5.9036">
        <ele>1781.256706447</ele>
        <time>2015-06-11T08:41:34Z</time>
      </trkpt>
      <trkpt lat="45.43157" lon="5.9036">
        <ele>1781.256706447</ele>
        <time>2015-06-11T08:41:39Z</time>
      </trkpt>
      <trkpt lat="45.43157" lon="5.9036">
        <ele>1781.256706447</ele>
        <time>2015-06-11T08:41:44Z</time>
      </trkpt>
      <trkpt lat="45.43157" lon="5.9036">
        <ele>1781.256706447</ele>
        <time>2015-06-11T08:41:48Z</time>
      </trkpt>
      <trkpt lat="45.43157" lon="5.9036">
        <ele>1781.256706447</ele>
        <time>2015-06-11T08:41:54Z</time>
      </trkpt>
      <trkpt lat="45.43157" lon="5.9036">
        <ele>1781.256706447</ele>
        <time>2015-06-11T08:41:59Z</time>
      </trkpt>
      <trkpt lat="45.43158" lon="5.90362">
        <ele>1781.256706447</ele>
        <time>2015-06-11T08:42:04Z</time>
      </trkpt>
      <trkpt lat="45.43157" lon="5.90363">
        <ele>1783.856242299</ele>
        <time>2015-06-11T08:42:09Z</time>
      </trkpt>
      <trkpt lat="45.43159" lon="5.90364">
        <ele>1783.856242299</ele>
        <time>2015-06-11T08:42:14Z</time>
      </trkpt>
      <trkpt lat="45.43159" lon="5.90364">
        <ele>1783.856242299</ele>
        <time>2015-06-11T08:42:19Z</time>
      </trkpt>
      <trkpt lat="45.43163" lon="5.90365">
        <ele>1783.856242299</ele>
        <time>2015-06-11T08:42:24Z</time>
      </trkpt>
      <trkpt lat="45.43166" lon="5.90365">
        <ele>1786.064892296</ele>
        <time>2015-06-11T08:42:28Z</time>
      </trkpt>
      <trkpt lat="45.43166" lon="5.90365">
        <ele>1786.064892296</ele>
        <time>2015-06-11T08:42:34Z</time>
      </trkpt>
      <trkpt lat="45.43165" lon="5.90365">
        <ele>1786.064892296</ele>
        <time>2015-06-11T08:42:38Z</time>
      </trkpt>
      <trkpt lat="45.43166" lon="5.90365">
        <ele>1786.064892296</ele>
        <time>2015-06-11T08:42:44Z</time>
      </trkpt>
      <trkpt lat="45.43164" lon="5.90369">
        <ele>1786.064892296</ele>
        <time>2015-06-11T08:42:48Z</time>
      </trkpt>
      <trkpt lat="45.43161" lon="5.9037">
        <ele>1786.064892296</ele>
        <time>2015-06-11T08:42:52Z</time>
      </trkpt>
      <trkpt lat="45.4316" lon="5.90372">
        <ele>1786.064892296</ele>
        <time>2015-06-11T08:42:57Z</time>
      </trkpt>
      <trkpt lat="45.43161" lon="5.90372">
        <ele>1786.064892296</ele>
        <time>2015-06-11T08:43:02Z</time>
      </trkpt>
      <trkpt lat="45.43161" lon="5.90372">
        <ele>1786.064892296</ele>
        <time>2015-06-11T08:43:09Z</time>
      </trkpt>
      <trkpt lat="45.43161" lon="5.90372">
        <ele>1786.064892296</ele>
        <time>2015-06-11T08:43:13Z</time>
      </trkpt>
      <trkpt lat="45.4316" lon="5.90373">
        <ele>1786.064892296</ele>
        <time>2015-06-11T08:43:19Z</time>
      </trkpt>
      <trkpt lat="45.43163" lon="5.90371">
        <ele>1787.618093124</ele>
        <time>2015-06-11T08:43:24Z</time>
      </trkpt>
      <trkpt lat="45.43164" lon="5.90372">
        <ele>1787.618093124</ele>
        <time>2015-06-11T08:43:29Z</time>
      </trkpt>
      <trkpt lat="45.43164" lon="5.90373">
        <ele>1787.618093124</ele>
        <time>2015-06-11T08:43:33Z</time>
      </trkpt>
      <trkpt lat="45.43166" lon="5.90373">
        <ele>1787.618093124</ele>
        <time>2015-06-11T08:43:38Z</time>
      </trkpt>
      <trkpt lat="45.43164" lon="5.90373">
        <ele>1787.618093124</ele>
        <time>2015-06-11T08:43:44Z</time>
      </trkpt>
      <trkpt lat="45.43163" lon="5.90374">
        <ele>1787.618093124</ele>
        <time>2015-06-11T08:43:49Z</time>
      </trkpt>
      <trkpt lat="45.43165" lon="5.90375">
        <ele>1787.618093124</ele>
        <time>2015-06-11T08:43:54Z</time>
      </trkpt>
      <trkpt lat="45.43165" lon="5.90376">
        <ele>1787.618093124</ele>
        <time>2015-06-11T08:43:59Z</time>
      </trkpt>
      <trkpt lat="45.43165" lon="5.90375">
        <ele>1790.001984077</ele>
        <time>2015-06-11T08:44:03Z</time>
      </trkpt>
      <trkpt lat="45.43164" lon="5.90374">
        <ele>1790.001984077</ele>
        <time>2015-06-11T08:44:09Z</time>
      </trkpt>
      <trkpt lat="45.43162" lon="5.90375">
        <ele>1790.001984077</ele>
        <time>2015-06-11T08:44:14Z</time>
      </trkpt>
      <trkpt lat="45.43161" lon="5.90375">
        <ele>1790.001984077</ele>
        <time>2015-06-11T08:44:19Z</time>
      </trkpt>
      <trkpt lat="45.43162" lon="5.90375">
        <ele>1790.001984077</ele>
        <time>2015-06-11T08:44:24Z</time>
      </trkpt>
      <trkpt lat="45.43162" lon="5.90375">
        <ele>1790.001984077</ele>
        <time>2015-06-11T08:44:27Z</time>
      </trkpt>
      <trkpt lat="45.43165" lon="5.90376">
        <ele>1790.001984077</ele>
        <time>2015-06-11T08:44:32Z</time>
      </trkpt>
      <trkpt lat="45.43161" lon="5.90376">
        <ele>1792.141415632</ele>
        <time>2015-06-11T08:44:38Z</time>
      </trkpt>
      <trkpt lat="45.43162" lon="5.90376">
        <ele>1792.141415632</ele>
        <time>2015-06-11T08:44:42Z</time>
      </trkpt>
      <trkpt lat="45.43159" lon="5.90377">
        <ele>1792.141415632</ele>
        <time>2015-06-11T08:44:49Z</time>
      </trkpt>
      <trkpt lat="45.43158" lon="5.90377">
        <ele>1792.141415632</ele>
        <time>2015-06-11T08:44:53Z</time>
      </trkpt>
      <trkpt lat="45.43157" lon="5.90378">
        <ele>1792.141415632</ele>
        <time>2015-06-11T08:44:59Z</time>
      </trkpt>
      <trkpt lat="45.43155" lon="5.90378">
        <ele>1792.141415632</ele>
        <time>2015-06-11T08:45:04Z</time>
      </trkpt>
      <trkpt lat="45.43156" lon="5.90378">
        <ele>1792.141415632</ele>
        <time>2015-06-11T08:45:09Z</time>
      </trkpt>
      <trkpt lat="45.43156" lon="5.90378">
        <ele>1792.141415632</ele>
        <time>2015-06-11T08:45:13Z</time>
      </trkpt>
      <trkpt lat="45.43156" lon="5.90378">
        <ele>1793.761566833</ele>
        <time>2015-06-11T08:45:18Z</time>
      </trkpt>
      <trkpt lat="45.43154" lon="5.90383">
        <ele>1793.761566833</ele>
        <time>2015-06-11T08:45:24Z</time>
      </trkpt>
      <trkpt lat="45.43155" lon="5.90379">
        <ele>1793.761566833</ele>
        <time>2015-06-11T08:45:29Z</time>
      </trkpt>
      <trkpt lat="45.43154" lon="5.90379">
        <ele>1793.761566833</ele>
        <time>2015-06-11T08:45:34Z</time>
      </trkpt>
      <trkpt lat="45.43154" lon="5.90379">
        <ele>1793.761566833</ele>
        <time>2015-06-11T08:45:39Z</time>
      </trkpt>
      <trkpt lat="45.43154" lon="5.90379">
        <ele>1793.761566833</ele>
        <time>2015-06-11T08:45:44Z</time>
      </trkpt>
      <trkpt lat="45.43149" lon="5.90384">
        <ele>1795.618151037</ele>
        <time>2015-06-11T08:45:49Z</time>
      </trkpt>
      <trkpt lat="45.4315" lon="5.90384">
        <ele>1795.618151037</ele>
        <time>2015-06-11T08:45:53Z</time>
      </trkpt>
      <trkpt lat="45.43149" lon="5.90385">
        <ele>1795.618151037</ele>
        <time>2015-06-11T08:45:59Z</time>
      </trkpt>
      <trkpt lat="45.43148" lon="5.90384">
        <ele>1795.618151037</ele>
        <time>2015-06-11T08:46:04Z</time>
      </trkpt>
      <trkpt lat="45.4315" lon="5.90385">
        <ele>1795.618151037</ele>
        <time>2015-06-11T08:46:09Z</time>
      </trkpt>
      <trkpt lat="45.4315" lon="5.90385">
        <ele>1795.618151037</ele>
        <time>2015-06-11T08:46:14Z</time>
      </trkpt>
      <trkpt lat="45.4315" lon="5.90385">
        <ele>1795.618151037</ele>
        <time>2015-06-11T08:46:19Z</time>
      </trkpt>
      <trkpt lat="45.43149" lon="5.90385">
        <ele>1795.618151037</ele>
        <time>2015-06-11T08:46:24Z</time>
      </trkpt>
      <trkpt lat="45.43149" lon="5.90385">
        <ele>1795.618151037</ele>
        <time>2015-06-11T08:46:29Z</time>
      </trkpt>
      <trkpt lat="45.43149" lon="5.90385">
        <ele>1795.618151037</ele>
        <time>2015-06-11T08:46:34Z</time>
      </trkpt>
      <trkpt lat="45.43149" lon="5.90385">
        <ele>1795.618151037</ele>
        <time>2015-06-11T08:46:38Z</time>
      </trkpt>
      <trkpt lat="45.43149" lon="5.90385">
        <ele>1795.618151037</ele>
        <time>2015-06-11T08:46:44Z</time>
      </trkpt>
      <trkpt lat="45.43149" lon="5.90385">
        <ele>1795.618151037</ele>
        <time>2015-06-11T08:46:49Z</time>
      </trkpt>
      <trkpt lat="45.43149" lon="5.90385">
        <ele>1795.618151037</ele>
        <time>2015-06-11T08:46:54Z</time>
      </trkpt>
      <trkpt lat="45.43149" lon="5.90385">
        <ele>1795.618151037</ele>
        <time>2015-06-11T08:46:59Z</time>
      </trkpt>
      <trkpt lat="45.43149" lon="5.90385">
        <ele>1795.618151037</ele>
        <time>2015-06-11T08:47:04Z</time>
      </trkpt>
      <trkpt lat="45.43147" lon="5.9039">
        <ele>1797.978486046</ele>
        <time>2015-06-11T08:47:09Z</time>
      </trkpt>
      <trkpt lat="45.43146" lon="5.9039">
        <ele>1797.978486046</ele>
        <time>2015-06-11T08:47:14Z</time>
      </trkpt>
      <trkpt lat="45.43146" lon="5.9039">
        <ele>1797.978486046</ele>
        <time>2015-06-11T08:47:18Z</time>
      </trkpt>
      <trkpt lat="45.43145" lon="5.9039">
        <ele>1797.978486046</ele>
        <time>2015-06-11T08:47:24Z</time>
      </trkpt>
      <trkpt lat="45.43144" lon="5.90391">
        <ele>1797.978486046</ele>
        <time>2015-06-11T08:47:28Z</time>
      </trkpt>
      <trkpt lat="45.43143" lon="5.90391">
        <ele>1797.978486046</ele>
        <time>2015-06-11T08:47:34Z</time>
      </trkpt>
      <trkpt lat="45.43144" lon="5.90392">
        <ele>1797.978486046</ele>
        <time>2015-06-11T08:47:38Z</time>
      </trkpt>
      <trkpt lat="45.43145" lon="5.90392">
        <ele>1797.978486046</ele>
        <time>2015-06-11T08:47:44Z</time>
      </trkpt>
      <trkpt lat="45.43146" lon="5.90399">
        <ele>1800.944848196</ele>
        <time>2015-06-11T08:47:47Z</time>
      </trkpt>
      <trkpt lat="45.43142" lon="5.90401">
        <ele>1800.944848196</ele>
        <time>2015-06-11T08:47:53Z</time>
      </trkpt>
      <trkpt lat="45.43142" lon="5.90399">
        <ele>1800.944848196</ele>
        <time>2015-06-11T08:47:57Z</time>
      </trkpt>
      <trkpt lat="45.43143" lon="5.90395">
        <ele>1800.944848196</ele>
        <time>2015-06-11T08:48:04Z</time>
      </trkpt>
      <trkpt lat="45.43141" lon="5.90394">
        <ele>1804.610427008</ele>
        <time>2015-06-11T08:48:09Z</time>
      </trkpt>
      <trkpt lat="45.43142" lon="5.90395">
        <ele>1804.610427008</ele>
        <time>2015-06-11T08:48:14Z</time>
      </trkpt>
      <trkpt lat="45.43142" lon="5.90395">
        <ele>1804.610427008</ele>
        <time>2015-06-11T08:48:19Z</time>
      </trkpt>
      <trkpt lat="45.43142" lon="5.90395">
        <ele>1804.610427008</ele>
        <time>2015-06-11T08:48:24Z</time>
      </trkpt>
      <trkpt lat="45.43142" lon="5.90396">
        <ele>1804.610427008</ele>
        <time>2015-06-11T08:48:29Z</time>
      </trkpt>
      <trkpt lat="45.43142" lon="5.90396">
        <ele>1804.610427008</ele>
        <time>2015-06-11T08:48:34Z</time>
      </trkpt>
      <trkpt lat="45.43142" lon="5.90396">
        <ele>1804.610427008</ele>
        <time>2015-06-11T08:48:39Z</time>
      </trkpt>
      <trkpt lat="45.43142" lon="5.90396">
        <ele>1804.610427008</ele>
        <time>2015-06-11T08:48:44Z</time>
      </trkpt>
      <trkpt lat="45.43145" lon="5.90396">
        <ele>1804.610427008</ele>
        <time>2015-06-11T08:48:49Z</time>
      </trkpt>
      <trkpt lat="45.43149" lon="5.90398">
        <ele>1804.610427008</ele>
        <time>2015-06-11T08:48:54Z</time>
      </trkpt>
      <trkpt lat="45.43152" lon="5.90397">
        <ele>1808.339184727</ele>
        <time>2015-06-11T08:48:59Z</time>
      </trkpt>
      <trkpt lat="45.43152" lon="5.90399">
        <ele>1808.339184727</ele>
        <time>2015-06-11T08:49:04Z</time>
      </trkpt>
      <trkpt lat="45.43156" lon="5.904">
        <ele>1808.339184727</ele>
        <time>2015-06-11T08:49:09Z</time>
      </trkpt>
      <trkpt lat="45.4316" lon="5.90403">
        <ele>1811.397664285</ele>
        <time>2015-06-11T08:49:14Z</time>
      </trkpt>
      <trkpt lat="45.43159" lon="5.90403">
        <ele>1811.397664285</ele>
        <time>2015-06-11T08:49:18Z</time>
      </trkpt>
      <trkpt lat="45.43159" lon="5.90403">
        <ele>1811.397664285</ele>
        <time>2015-06-11T08:49:24Z</time>
      </trkpt>
      <trkpt lat="45.43162" lon="5.90403">
        <ele>1811.397664285</ele>
        <time>2015-06-11T08:49:28Z</time>
      </trkpt>
      <trkpt lat="45.43167" lon="5.90404">
        <ele>1814.117102599</ele>
        <time>2015-06-11T08:49:34Z</time>
      </trkpt>
      <trkpt lat="45.43173" lon="5.90405">
        <ele>1814.117102599</ele>
        <time>2015-06-11T08:49:39Z</time>
      </trkpt>
      <trkpt lat="45.43178" lon="5.90406">
        <ele>1816.661407965</ele>
        <time>2015-06-11T08:49:44Z</time>
      </trkpt>
      <trkpt lat="45.43181" lon="5.9041">
        <ele>1816.661407965</ele>
        <time>2015-06-11T08:49:49Z</time>
      </trkpt>
      <trkpt lat="45.43186" lon="5.90405">
        <ele>1819.038996292</ele>
        <time>2015-06-11T08:49:54Z</time>
      </trkpt>
      <trkpt lat="45.43189" lon="5.90403">
        <ele>1819.038996292</ele>
        <time>2015-06-11T08:49:58Z</time>
      </trkpt>
      <trkpt lat="45.43192" lon="5.90399">
        <ele>1819.038996292</ele>
        <time>2015-06-11T08:50:04Z</time>
      </trkpt>
      <trkpt lat="45.43196" lon="5.90398">
        <ele>1820.970079103</ele>
        <time>2015-06-11T08:50:09Z</time>
      </trkpt>
      <trkpt lat="45.43199" lon="5.90388">
        <ele>1820.970079103</ele>
        <time>2015-06-11T08:50:14Z</time>
      </trkpt>
      <trkpt lat="45.43201" lon="5.90384">
        <ele>1823.061507482</ele>
        <time>2015-06-11T08:50:18Z</time>
      </trkpt>
      <trkpt lat="45.43204" lon="5.90375">
        <ele>1823.061507482</ele>
        <time>2015-06-11T08:50:24Z</time>
      </trkpt>
      <trkpt lat="45.43209" lon="5.90371">
        <ele>1825.587045805</ele>
        <time>2015-06-11T08:50:29Z</time>
      </trkpt>
      <trkpt lat="45.43209" lon="5.90371">
        <ele>1825.587045805</ele>
        <time>2015-06-11T08:50:34Z</time>
      </trkpt>
      <trkpt lat="45.4321" lon="5.90368">
        <ele>1825.587045805</ele>
        <time>2015-06-11T08:50:39Z</time>
      </trkpt>
      <trkpt lat="45.43209" lon="5.90369">
        <ele>1825.587045805</ele>
        <time>2015-06-11T08:50:44Z</time>
      </trkpt>
      <trkpt lat="45.43213" lon="5.90369">
        <ele>1825.587045805</ele>
        <time>2015-06-11T08:50:49Z</time>
      </trkpt>
      <trkpt lat="45.43216" lon="5.90363">
        <ele>1827.934624114</ele>
        <time>2015-06-11T08:50:53Z</time>
      </trkpt>
      <trkpt lat="45.43218" lon="5.90363">
        <ele>1827.934624114</ele>
        <time>2015-06-11T08:50:58Z</time>
      </trkpt>
      <trkpt lat="45.43221" lon="5.9036">
        <ele>1827.934624114</ele>
        <time>2015-06-11T08:51:04Z</time>
      </trkpt>
      <trkpt lat="45.43224" lon="5.90358">
        <ele>1830.546570454</ele>
        <time>2015-06-11T08:51:09Z</time>
      </trkpt>
      <trkpt lat="45.43224" lon="5.90356">
        <ele>1830.546570454</ele>
        <time>2015-06-11T08:51:14Z</time>
      </trkpt>
      <trkpt lat="45.43224" lon="5.90357">
        <ele>1830.546570454</ele>
        <time>2015-06-11T08:51:19Z</time>
      </trkpt>
      <trkpt lat="45.43225" lon="5.90357">
        <ele>1830.546570454</ele>
        <time>2015-06-11T08:51:24Z</time>
      </trkpt>
      <trkpt lat="45.43225" lon="5.90357">
        <ele>1830.546570454</ele>
        <time>2015-06-11T08:51:29Z</time>
      </trkpt>
      <trkpt lat="45.43225" lon="5.90357">
        <ele>1830.546570454</ele>
        <time>2015-06-11T08:51:34Z</time>
      </trkpt>
      <trkpt lat="45.43225" lon="5.90357">
        <ele>1830.546570454</ele>
        <time>2015-06-11T08:51:39Z</time>
      </trkpt>
      <trkpt lat="45.43225" lon="5.90357">
        <ele>1830.546570454</ele>
        <time>2015-06-11T08:51:44Z</time>
      </trkpt>
      <trkpt lat="45.43225" lon="5.90357">
        <ele>1830.546570454</ele>
        <time>2015-06-11T08:51:49Z</time>
      </trkpt>
      <trkpt lat="45.43225" lon="5.90357">
        <ele>1830.546570454</ele>
        <time>2015-06-11T08:51:54Z</time>
      </trkpt>
      <trkpt lat="45.43225" lon="5.90357">
        <ele>1830.546570454</ele>
        <time>2015-06-11T08:51:59Z</time>
      </trkpt>
      <trkpt lat="45.43225" lon="5.90357">
        <ele>1830.546570454</ele>
        <time>2015-06-11T08:52:04Z</time>
      </trkpt>
      <trkpt lat="45.43225" lon="5.90357">
        <ele>1830.546570454</ele>
        <time>2015-06-11T08:52:08Z</time>
      </trkpt>
      <trkpt lat="45.43225" lon="5.90357">
        <ele>1830.546570454</ele>
        <time>2015-06-11T08:52:14Z</time>
      </trkpt>
      <trkpt lat="45.43226" lon="5.90359">
        <ele>1830.546570454</ele>
        <time>2015-06-11T08:52:19Z</time>
      </trkpt>
      <trkpt lat="45.43228" lon="5.9037">
        <ele>1833.976247034</ele>
        <time>2015-06-11T08:52:24Z</time>
      </trkpt>
      <trkpt lat="45.43228" lon="5.9037">
        <ele>1833.976247034</ele>
        <time>2015-06-11T08:52:29Z</time>
      </trkpt>
      <trkpt lat="45.43228" lon="5.90375">
        <ele>1833.976247034</ele>
        <time>2015-06-11T08:52:34Z</time>
      </trkpt>
      <trkpt lat="45.43223" lon="5.90376">
        <ele>1833.976247034</ele>
        <time>2015-06-11T08:52:39Z</time>
      </trkpt>
      <trkpt lat="45.43222" lon="5.9038">
        <ele>1837.149007869</ele>
        <time>2015-06-11T08:52:44Z</time>
      </trkpt>
      <trkpt lat="45.43218" lon="5.90387">
        <ele>1837.149007869</ele>
        <time>2015-06-11T08:52:48Z</time>
      </trkpt>
      <trkpt lat="45.43216" lon="5.90388">
        <ele>1837.149007869</ele>
        <time>2015-06-11T08:52:53Z</time>
      </trkpt>
      <trkpt lat="45.43219" lon="5.90393">
        <ele>1839.646473903</ele>
        <time>2015-06-11T08:52:59Z</time>
      </trkpt>
      <trkpt lat="45.43219" lon="5.90394">
        <ele>1839.646473903</ele>
        <time>2015-06-11T08:53:04Z</time>
      </trkpt>
      <trkpt lat="45.43218" lon="5.90394">
        <ele>1839.646473903</ele>
        <time>2015-06-11T08:53:09Z</time>
      </trkpt>
      <trkpt lat="45.43218" lon="5.90394">
        <ele>1839.646473903</ele>
        <time>2015-06-11T08:53:14Z</time>
      </trkpt>
      <trkpt lat="45.43209" lon="5.90404">
        <ele>1841.659497324</ele>
        <time>2015-06-11T08:53:19Z</time>
      </trkpt>
      <trkpt lat="45.43204" lon="5.90408">
        <ele>1841.659497324</ele>
        <time>2015-06-11T08:53:24Z</time>
      </trkpt>
      <trkpt lat="45.43204" lon="5.9041">
        <ele>1841.659497324</ele>
        <time>2015-06-11T08:53:29Z</time>
      </trkpt>
      <trkpt lat="45.43203" lon="5.9041">
        <ele>1841.659497324</ele>
        <time>2015-06-11T08:53:34Z</time>
      </trkpt>
      <trkpt lat="45.43201" lon="5.90412">
        <ele>1843.654647747</ele>
        <time>2015-06-11T08:53:39Z</time>
      </trkpt>
      <trkpt lat="45.43197" lon="5.9042">
        <ele>1843.654647747</ele>
        <time>2015-06-11T08:53:44Z</time>
      </trkpt>
      <trkpt lat="45.43194" lon="5.90422">
        <ele>1845.632088133</ele>
        <time>2015-06-11T08:53:49Z</time>
      </trkpt>
      <trkpt lat="45.43192" lon="5.9042">
        <ele>1845.632088133</ele>
        <time>2015-06-11T08:53:53Z</time>
      </trkpt>
      <trkpt lat="45.43191" lon="5.90419">
        <ele>1845.632088133</ele>
        <time>2015-06-11T08:53:58Z</time>
      </trkpt>
      <trkpt lat="45.43193" lon="5.90416">
        <ele>1845.632088133</ele>
        <time>2015-06-11T08:54:04Z</time>
      </trkpt>
      <trkpt lat="45.43195" lon="5.90413">
        <ele>1847.448050993</ele>
        <time>2015-06-11T08:54:09Z</time>
      </trkpt>
      <trkpt lat="45.43198" lon="5.90406">
        <ele>1847.448050993</ele>
        <time>2015-06-11T08:54:14Z</time>
      </trkpt>
      <trkpt lat="45.432" lon="5.90401">
        <ele>1849.834585486</ele>
        <time>2015-06-11T08:54:19Z</time>
      </trkpt>
      <trkpt lat="45.432" lon="5.90403">
        <ele>1849.834585486</ele>
        <time>2015-06-11T08:54:24Z</time>
      </trkpt>
      <trkpt lat="45.432" lon="5.90405">
        <ele>1849.834585486</ele>
        <time>2015-06-11T08:54:28Z</time>
      </trkpt>
      <trkpt lat="45.43201" lon="5.90407">
        <ele>1849.834585486</ele>
        <time>2015-06-11T08:54:33Z</time>
      </trkpt>
      <trkpt lat="45.43201" lon="5.90407">
        <ele>1849.834585486</ele>
        <time>2015-06-11T08:54:39Z</time>
      </trkpt>
      <trkpt lat="45.43202" lon="5.90407">
        <ele>1849.834585486</ele>
        <time>2015-06-11T08:54:44Z</time>
      </trkpt>
      <trkpt lat="45.43202" lon="5.90407">
        <ele>1849.834585486</ele>
        <time>2015-06-11T08:54:49Z</time>
      </trkpt>
      <trkpt lat="45.43202" lon="5.90407">
        <ele>1849.834585486</ele>
        <time>2015-06-11T08:54:54Z</time>
      </trkpt>
      <trkpt lat="45.43202" lon="5.90407">
        <ele>1849.834585486</ele>
        <time>2015-06-11T08:54:58Z</time>
      </trkpt>
      <trkpt lat="45.43202" lon="5.90407">
        <ele>1849.834585486</ele>
        <time>2015-06-11T08:55:04Z</time>
      </trkpt>
      <trkpt lat="45.43202" lon="5.90407">
        <ele>1849.834585486</ele>
        <time>2015-06-11T08:55:08Z</time>
      </trkpt>
      <trkpt lat="45.43209" lon="5.90402">
        <ele>1852.315603757</ele>
        <time>2015-06-11T08:55:14Z</time>
      </trkpt>
      <trkpt lat="45.43215" lon="5.90399">
        <ele>1852.315603757</ele>
        <time>2015-06-11T08:55:19Z</time>
      </trkpt>
      <trkpt lat="45.4322" lon="5.90397">
        <ele>1854.882182866</ele>
        <time>2015-06-11T08:55:24Z</time>
      </trkpt>
      <trkpt lat="45.43222" lon="5.90396">
        <ele>1854.882182866</ele>
        <time>2015-06-11T08:55:29Z</time>
      </trkpt>
      <trkpt lat="45.43223" lon="5.90393">
        <ele>1854.882182866</ele>
        <time>2015-06-11T08:55:34Z</time>
      </trkpt>
      <trkpt lat="45.43223" lon="5.90394">
        <ele>1854.882182866</ele>
        <time>2015-06-11T08:55:39Z</time>
      </trkpt>
      <trkpt lat="45.43226" lon="5.90394">
        <ele>1854.882182866</ele>
        <time>2015-06-11T08:55:44Z</time>
      </trkpt>
      <trkpt lat="45.43226" lon="5.9039">
        <ele>1857.237711726</ele>
        <time>2015-06-11T08:55:49Z</time>
      </trkpt>
      <trkpt lat="45.43227" lon="5.90389">
        <ele>1857.237711726</ele>
        <time>2015-06-11T08:55:54Z</time>
      </trkpt>
      <trkpt lat="45.43227" lon="5.90386">
        <ele>1857.237711726</ele>
        <time>2015-06-11T08:55:59Z</time>
      </trkpt>
      <trkpt lat="45.43228" lon="5.90386">
        <ele>1857.237711726</ele>
        <time>2015-06-11T08:56:04Z</time>
      </trkpt>
      <trkpt lat="45.43229" lon="5.90387">
        <ele>1857.237711726</ele>
        <time>2015-06-11T08:56:09Z</time>
      </trkpt>
      <trkpt lat="45.43229" lon="5.90389">
        <ele>1857.237711726</ele>
        <time>2015-06-11T08:56:14Z</time>
      </trkpt>
      <trkpt lat="45.43229" lon="5.90389">
        <ele>1857.237711726</ele>
        <time>2015-06-11T08:56:19Z</time>
      </trkpt>
      <trkpt lat="45.43229" lon="5.90389">
        <ele>1857.237711726</ele>
        <time>2015-06-11T08:56:24Z</time>
      </trkpt>
      <trkpt lat="45.43229" lon="5.90389">
        <ele>1857.237711726</ele>
        <time>2015-06-11T08:56:29Z</time>
      </trkpt>
      <trkpt lat="45.43229" lon="5.90389">
        <ele>1857.237711726</ele>
        <time>2015-06-11T08:56:34Z</time>
      </trkpt>
      <trkpt lat="45.4323" lon="5.90392">
        <ele>1859.540408569</ele>
        <time>2015-06-11T08:56:39Z</time>
      </trkpt>
      <trkpt lat="45.4323" lon="5.90392">
        <ele>1859.540408569</ele>
        <time>2015-06-11T08:56:44Z</time>
      </trkpt>
      <trkpt lat="45.4323" lon="5.90393">
        <ele>1859.540408569</ele>
        <time>2015-06-11T08:56:49Z</time>
      </trkpt>
      <trkpt lat="45.43231" lon="5.90392">
        <ele>1859.540408569</ele>
        <time>2015-06-11T08:56:53Z</time>
      </trkpt>
      <trkpt lat="45.43232" lon="5.90391">
        <ele>1859.540408569</ele>
        <time>2015-06-11T08:56:58Z</time>
      </trkpt>
      <trkpt lat="45.43234" lon="5.90394">
        <ele>1859.540408569</ele>
        <time>2015-06-11T08:57:02Z</time>
      </trkpt>
      <trkpt lat="45.43238" lon="5.90393">
        <ele>1863.090019502</ele>
        <time>2015-06-11T08:57:09Z</time>
      </trkpt>
      <trkpt lat="45.4324" lon="5.90394">
        <ele>1863.090019502</ele>
        <time>2015-06-11T08:57:12Z</time>
      </trkpt>
      <trkpt lat="45.43244" lon="5.904">
        <ele>1863.090019502</ele>
        <time>2015-06-11T08:57:19Z</time>
      </trkpt>
      <trkpt lat="45.43245" lon="5.90398">
        <ele>1866.349313496</ele>
        <time>2015-06-11T08:57:24Z</time>
      </trkpt>
      <trkpt lat="45.43247" lon="5.90401">
        <ele>1866.349313496</ele>
        <time>2015-06-11T08:57:29Z</time>
      </trkpt>
      <trkpt lat="45.43246" lon="5.90403">
        <ele>1866.349313496</ele>
        <time>2015-06-11T08:57:34Z</time>
      </trkpt>
      <trkpt lat="45.43246" lon="5.90402">
        <ele>1866.349313496</ele>
        <time>2015-06-11T08:57:39Z</time>
      </trkpt>
      <trkpt lat="45.43244" lon="5.90402">
        <ele>1866.349313496</ele>
        <time>2015-06-11T08:57:44Z</time>
      </trkpt>
      <trkpt lat="45.43243" lon="5.90402">
        <ele>1866.349313496</ele>
        <time>2015-06-11T08:57:49Z</time>
      </trkpt>
      <trkpt lat="45.43246" lon="5.90403">
        <ele>1869.768355223</ele>
        <time>2015-06-11T08:57:54Z</time>
      </trkpt>
      <trkpt lat="45.43245" lon="5.90403">
        <ele>1869.768355223</ele>
        <time>2015-06-11T08:57:58Z</time>
      </trkpt>
      <trkpt lat="45.43245" lon="5.90401">
        <ele>1869.768355223</ele>
        <time>2015-06-11T08:58:02Z</time>
      </trkpt>
      <trkpt lat="45.43246" lon="5.90403">
        <ele>1869.768355223</ele>
        <time>2015-06-11T08:58:07Z</time>
      </trkpt>
      <trkpt lat="45.43246" lon="5.90402">
        <ele>1869.768355223</ele>
        <time>2015-06-11T08:58:12Z</time>
      </trkpt>
      <trkpt lat="45.43245" lon="5.90403">
        <ele>1869.768355223</ele>
        <time>2015-06-11T08:58:17Z</time>
      </trkpt>
      <trkpt lat="45.43246" lon="5.90405">
        <ele>1869.768355223</ele>
        <time>2015-06-11T08:58:22Z</time>
      </trkpt>
      <trkpt lat="45.43245" lon="5.90407">
        <ele>1869.768355223</ele>
        <time>2015-06-11T08:58:27Z</time>
      </trkpt>
      <trkpt lat="45.43244" lon="5.90405">
        <ele>1872.610923528</ele>
        <time>2015-06-11T08:58:34Z</time>
      </trkpt>
      <trkpt lat="45.43248" lon="5.90404">
        <ele>1872.610923528</ele>
        <time>2015-06-11T08:58:39Z</time>
      </trkpt>
      <trkpt lat="45.43248" lon="5.90404">
        <ele>1872.610923528</ele>
        <time>2015-06-11T08:58:44Z</time>
      </trkpt>
      <trkpt lat="45.43248" lon="5.90404">
        <ele>1872.610923528</ele>
        <time>2015-06-11T08:58:48Z</time>
      </trkpt>
      <trkpt lat="45.43248" lon="5.90404">
        <ele>1872.610923528</ele>
        <time>2015-06-11T08:58:54Z</time>
      </trkpt>
      <trkpt lat="45.43244" lon="5.90403">
        <ele>1872.610923528</ele>
        <time>2015-06-11T08:58:58Z</time>
      </trkpt>
      <trkpt lat="45.43244" lon="5.90403">
        <ele>1875.925946111</ele>
        <time>2015-06-11T08:59:04Z</time>
      </trkpt>
      <trkpt lat="45.43243" lon="5.90404">
        <ele>1875.925946111</ele>
        <time>2015-06-11T08:59:08Z</time>
      </trkpt>
      <trkpt lat="45.43243" lon="5.90404">
        <ele>1875.925946111</ele>
        <time>2015-06-11T08:59:13Z</time>
      </trkpt>
      <trkpt lat="45.43246" lon="5.90408">
        <ele>1875.925946111</ele>
        <time>2015-06-11T08:59:18Z</time>
      </trkpt>
      <trkpt lat="45.43247" lon="5.9041">
        <ele>1875.925946111</ele>
        <time>2015-06-11T08:59:24Z</time>
      </trkpt>
      <trkpt lat="45.43247" lon="5.90409">
        <ele>1875.925946111</ele>
        <time>2015-06-11T08:59:29Z</time>
      </trkpt>
      <trkpt lat="45.43247" lon="5.90409">
        <ele>1878.954753523</ele>
        <time>2015-06-11T08:59:34Z</time>
      </trkpt>
      <trkpt lat="45.43248" lon="5.90411">
        <ele>1878.954753523</ele>
        <time>2015-06-11T08:59:39Z</time>
      </trkpt>
      <trkpt lat="45.43242" lon="5.90411">
        <ele>1878.954753523</ele>
        <time>2015-06-11T08:59:44Z</time>
      </trkpt>
      <trkpt lat="45.43242" lon="5.90413">
        <ele>1878.954753523</ele>
        <time>2015-06-11T08:59:49Z</time>
      </trkpt>
      <trkpt lat="45.43244" lon="5.90412">
        <ele>1881.139435975</ele>
        <time>2015-06-11T08:59:54Z</time>
      </trkpt>
      <trkpt lat="45.43244" lon="5.90411">
        <ele>1881.139435975</ele>
        <time>2015-06-11T08:59:59Z</time>
      </trkpt>
      <trkpt lat="45.43245" lon="5.9041">
        <ele>1881.139435975</ele>
        <time>2015-06-11T09:00:04Z</time>
      </trkpt>
      <trkpt lat="45.43244" lon="5.9041">
        <ele>1881.139435975</ele>
        <time>2015-06-11T09:00:08Z</time>
      </trkpt>
      <trkpt lat="45.43244" lon="5.9041">
        <ele>1881.139435975</ele>
        <time>2015-06-11T09:00:14Z</time>
      </trkpt>
      <trkpt lat="45.43246" lon="5.90408">
        <ele>1881.139435975</ele>
        <time>2015-06-11T09:00:18Z</time>
      </trkpt>
      <trkpt lat="45.43242" lon="5.90409">
        <ele>1881.139435975</ele>
        <time>2015-06-11T09:00:24Z</time>
      </trkpt>
      <trkpt lat="45.43242" lon="5.90409">
        <ele>1882.397878024</ele>
        <time>2015-06-11T09:00:28Z</time>
      </trkpt>
      <trkpt lat="45.43245" lon="5.90409">
        <ele>1882.397878024</ele>
        <time>2015-06-11T09:00:33Z</time>
      </trkpt>
      <trkpt lat="45.43248" lon="5.90404">
        <ele>1882.397878024</ele>
        <time>2015-06-11T09:00:38Z</time>
      </trkpt>
      <trkpt lat="45.43247" lon="5.90404">
        <ele>1882.397878024</ele>
        <time>2015-06-11T09:00:43Z</time>
      </trkpt>
      <trkpt lat="45.43248" lon="5.90403">
        <ele>1882.397878024</ele>
        <time>2015-06-11T09:00:48Z</time>
      </trkpt>
      <trkpt lat="45.43248" lon="5.90403">
        <ele>1882.397878024</ele>
        <time>2015-06-11T09:00:54Z</time>
      </trkpt>
      <trkpt lat="45.43246" lon="5.90401">
        <ele>1883.953696962</ele>
        <time>2015-06-11T09:00:59Z</time>
      </trkpt>
      <trkpt lat="45.43248" lon="5.90401">
        <ele>1883.953696962</ele>
        <time>2015-06-11T09:01:04Z</time>
      </trkpt>
      <trkpt lat="45.43248" lon="5.90401">
        <ele>1883.953696962</ele>
        <time>2015-06-11T09:01:09Z</time>
      </trkpt>
      <trkpt lat="45.43248" lon="5.90401">
        <ele>1883.953696962</ele>
        <time>2015-06-11T09:01:13Z</time>
      </trkpt>
      <trkpt lat="45.43248" lon="5.90401">
        <ele>1883.953696962</ele>
        <time>2015-06-11T09:01:19Z</time>
      </trkpt>
      <trkpt lat="45.43246" lon="5.90402">
        <ele>1883.953696962</ele>
        <time>2015-06-11T09:01:24Z</time>
      </trkpt>
      <trkpt lat="45.43246" lon="5.90402">
        <ele>1883.953696962</ele>
        <time>2015-06-11T09:01:28Z</time>
      </trkpt>
      <trkpt lat="45.43246" lon="5.90402">
        <ele>1883.953696962</ele>
        <time>2015-06-11T09:01:34Z</time>
      </trkpt>
      <trkpt lat="45.43246" lon="5.90401">
        <ele>1883.953696962</ele>
        <time>2015-06-11T09:01:39Z</time>
      </trkpt>
      <trkpt lat="45.43245" lon="5.90403">
        <ele>1883.953696962</ele>
        <time>2015-06-11T09:01:43Z</time>
      </trkpt>
      <trkpt lat="45.43246" lon="5.90402">
        <ele>1883.953696962</ele>
        <time>2015-06-11T09:01:49Z</time>
      </trkpt>
      <trkpt lat="45.43247" lon="5.90403">
        <ele>1884.489989023</ele>
        <time>2015-06-11T09:01:54Z</time>
      </trkpt>
      <trkpt lat="45.43248" lon="5.90401">
        <ele>1884.489989023</ele>
        <time>2015-06-11T09:01:59Z</time>
      </trkpt>
      <trkpt lat="45.43245" lon="5.90403">
        <ele>1884.489989023</ele>
        <time>2015-06-11T09:02:03Z</time>
      </trkpt>
      <trkpt lat="45.43245" lon="5.90403">
        <ele>1884.489989023</ele>
        <time>2015-06-11T09:02:09Z</time>
      </trkpt>
      <trkpt lat="45.43245" lon="5.90404">
        <ele>1884.489989023</ele>
        <time>2015-06-11T09:02:13Z</time>
      </trkpt>
      <trkpt lat="45.4325" lon="5.90401">
        <ele>1884.807079098</ele>
        <time>2015-06-11T09:02:18Z</time>
      </trkpt>
      <trkpt lat="45.4325" lon="5.90401">
        <ele>1884.807079098</ele>
        <time>2015-06-11T09:02:23Z</time>
      </trkpt>
      <trkpt lat="45.43252" lon="5.904">
        <ele>1884.807079098</ele>
        <time>2015-06-11T09:02:28Z</time>
      </trkpt>
      <trkpt lat="45.4325" lon="5.904">
        <ele>1884.807079098</ele>
        <time>2015-06-11T09:02:34Z</time>
      </trkpt>
      <trkpt lat="45.43251" lon="5.90401">
        <ele>1884.807079098</ele>
        <time>2015-06-11T09:02:39Z</time>
      </trkpt>
      <trkpt lat="45.4325" lon="5.90402">
        <ele>1884.807079098</ele>
        <time>2015-06-11T09:02:43Z</time>
      </trkpt>
      <trkpt lat="45.4325" lon="5.904">
        <ele>1884.807079098</ele>
        <time>2015-06-11T09:02:49Z</time>
      </trkpt>
      <trkpt lat="45.43247" lon="5.90401">
        <ele>1885.214837535</ele>
        <time>2015-06-11T09:02:54Z</time>
      </trkpt>
      <trkpt lat="45.43246" lon="5.90401">
        <ele>1885.214837535</ele>
        <time>2015-06-11T09:02:58Z</time>
      </trkpt>
      <trkpt lat="45.43247" lon="5.90403">
        <ele>1885.214837535</ele>
        <time>2015-06-11T09:03:03Z</time>
      </trkpt>
      <trkpt lat="45.43246" lon="5.90403">
        <ele>1885.214837535</ele>
        <time>2015-06-11T09:03:09Z</time>
      </trkpt>
      <trkpt lat="45.43248" lon="5.90404">
        <ele>1885.214837535</ele>
        <time>2015-06-11T09:03:14Z</time>
      </trkpt>
      <trkpt lat="45.4325" lon="5.90402">
        <ele>1885.214837535</ele>
        <time>2015-06-11T09:03:19Z</time>
      </trkpt>
      <trkpt lat="45.43253" lon="5.90401">
        <ele>1884.847263579</ele>
        <time>2015-06-11T09:03:23Z</time>
      </trkpt>
      <trkpt lat="45.43252" lon="5.90401">
        <ele>1884.847263579</ele>
        <time>2015-06-11T09:03:29Z</time>
      </trkpt>
      <trkpt lat="45.43252" lon="5.904">
        <ele>1884.847263579</ele>
        <time>2015-06-11T09:03:33Z</time>
      </trkpt>
      <trkpt lat="45.43253" lon="5.904">
        <ele>1884.847263579</ele>
        <time>2015-06-11T09:03:39Z</time>
      </trkpt>
      <trkpt lat="45.43252" lon="5.904">
        <ele>1884.847263579</ele>
        <time>2015-06-11T09:03:43Z</time>
      </trkpt>
      <trkpt lat="45.43252" lon="5.90401">
        <ele>1884.847263579</ele>
        <time>2015-06-11T09:03:47Z</time>
      </trkpt>
      <trkpt lat="45.43247" lon="5.90401">
        <ele>1884.633495933</ele>
        <time>2015-06-11T09:03:54Z</time>
      </trkpt>
      <trkpt lat="45.4325" lon="5.90401">
        <ele>1884.633495933</ele>
        <time>2015-06-11T09:03:58Z</time>
      </trkpt>
      <trkpt lat="45.43249" lon="5.90401">
        <ele>1884.633495933</ele>
        <time>2015-06-11T09:04:02Z</time>
      </trkpt>
      <trkpt lat="45.43248" lon="5.90403">
        <ele>1884.633495933</ele>
        <time>2015-06-11T09:04:08Z</time>
      </trkpt>
      <trkpt lat="45.43247" lon="5.90402">
        <ele>1884.633495933</ele>
        <time>2015-06-11T09:04:12Z</time>
      </trkpt>
      <trkpt lat="45.43248" lon="5.90402">
        <ele>1884.633495933</ele>
        <time>2015-06-11T09:04:18Z</time>
      </trkpt>
      <trkpt lat="45.43248" lon="5.90402">
        <ele>1884.633495933</ele>
        <time>2015-06-11T09:04:23Z</time>
      </trkpt>
      <trkpt lat="45.43247" lon="5.90404">
        <ele>1883.416423383</ele>
        <time>2015-06-11T09:04:29Z</time>
      </trkpt>
      <trkpt lat="45.43248" lon="5.90403">
        <ele>1883.416423383</ele>
        <time>2015-06-11T09:04:34Z</time>
      </trkpt>
      <trkpt lat="45.43249" lon="5.90402">
        <ele>1883.416423383</ele>
        <time>2015-06-11T09:04:38Z</time>
      </trkpt>
      <trkpt lat="45.43248" lon="5.90403">
        <ele>1883.416423383</ele>
        <time>2015-06-11T09:04:44Z</time>
      </trkpt>
      <trkpt lat="45.43248" lon="5.90401">
        <ele>1883.416423383</ele>
        <time>2015-06-11T09:04:49Z</time>
      </trkpt>
      <trkpt lat="45.43242" lon="5.90405">
        <ele>1882.576609006</ele>
        <time>2015-06-11T09:04:54Z</time>
      </trkpt>
      <trkpt lat="45.43241" lon="5.90408">
        <ele>1882.576609006</ele>
        <time>2015-06-11T09:04:59Z</time>
      </trkpt>
      <trkpt lat="45.4324" lon="5.90408">
        <ele>1882.576609006</ele>
        <time>2015-06-11T09:05:04Z</time>
      </trkpt>
      <trkpt lat="45.43237" lon="5.90409">
        <ele>1882.576609006</ele>
        <time>2015-06-11T09:05:09Z</time>
      </trkpt>
      <trkpt lat="45.43239" lon="5.90409">
        <ele>1882.815645419</ele>
        <time>2015-06-11T09:05:14Z</time>
      </trkpt>
      <trkpt lat="45.43239" lon="5.9041">
        <ele>1882.815645419</ele>
        <time>2015-06-11T09:05:19Z</time>
      </trkpt>
      <trkpt lat="45.43239" lon="5.90409">
        <ele>1882.815645419</ele>
        <time>2015-06-11T09:05:24Z</time>
      </trkpt>
      <trkpt lat="45.4324" lon="5.90407">
        <ele>1882.815645419</ele>
        <time>2015-06-11T09:05:29Z</time>
      </trkpt>
      <trkpt lat="45.43247" lon="5.90403">
        <ele>1881.610040788</ele>
        <time>2015-06-11T09:05:34Z</time>
      </trkpt>
      <trkpt lat="45.43247" lon="5.90403">
        <ele>1881.610040788</ele>
        <time>2015-06-11T09:05:39Z</time>
      </trkpt>
      <trkpt lat="45.43247" lon="5.90403">
        <ele>1881.610040788</ele>
        <time>2015-06-11T09:05:43Z</time>
      </trkpt>
      <trkpt lat="45.43245" lon="5.90404">
        <ele>1881.610040788</ele>
        <time>2015-06-11T09:05:48Z</time>
      </trkpt>
      <trkpt lat="45.43247" lon="5.90403">
        <ele>1881.610040788</ele>
        <time>2015-06-11T09:05:54Z</time>
      </trkpt>
      <trkpt lat="45.43248" lon="5.90403">
        <ele>1881.610040788</ele>
        <time>2015-06-11T09:05:58Z</time>
      </trkpt>
      <trkpt lat="45.43248" lon="5.90403">
        <ele>1881.610040788</ele>
        <time>2015-06-11T09:06:04Z</time>
      </trkpt>
      <trkpt lat="45.43248" lon="5.90404">
        <ele>1881.610040788</ele>
        <time>2015-06-11T09:06:08Z</time>
      </trkpt>
      <trkpt lat="45.43249" lon="5.90408">
        <ele>1880.66074949</ele>
        <time>2015-06-11T09:06:14Z</time>
      </trkpt>
      <trkpt lat="45.43248" lon="5.90407">
        <ele>1880.66074949</ele>
        <time>2015-06-11T09:06:19Z</time>
      </trkpt>
      <trkpt lat="45.43247" lon="5.90409">
        <ele>1880.66074949</ele>
        <time>2015-06-11T09:06:23Z</time>
      </trkpt>
      <trkpt lat="45.43246" lon="5.90415">
        <ele>1880.66074949</ele>
        <time>2015-06-11T09:06:28Z</time>
      </trkpt>
      <trkpt lat="45.43235" lon="5.90421">
        <ele>1879.525387985</ele>
        <time>2015-06-11T09:06:34Z</time>
      </trkpt>
      <trkpt lat="45.43234" lon="5.90421">
        <ele>1879.525387985</ele>
        <time>2015-06-11T09:06:39Z</time>
      </trkpt>
      <trkpt lat="45.43229" lon="5.90425">
        <ele>1879.525387985</ele>
        <time>2015-06-11T09:06:44Z</time>
      </trkpt>
      <trkpt lat="45.43224" lon="5.90427">
        <ele>1878.08268477</ele>
        <time>2015-06-11T09:06:49Z</time>
      </trkpt>
      <trkpt lat="45.43216" lon="5.9043">
        <ele>1878.08268477</ele>
        <time>2015-06-11T09:06:54Z</time>
      </trkpt>
      <trkpt lat="45.43209" lon="5.90432">
        <ele>1876.076878849</ele>
        <time>2015-06-11T09:06:59Z</time>
      </trkpt>
      <trkpt lat="45.43208" lon="5.90432">
        <ele>1876.076878849</ele>
        <time>2015-06-11T09:07:04Z</time>
      </trkpt>
      <trkpt lat="45.43201" lon="5.90434">
        <ele>1876.076878849</ele>
        <time>2015-06-11T09:07:09Z</time>
      </trkpt>
      <trkpt lat="45.43195" lon="5.90437">
        <ele>1874.281187443</ele>
        <time>2015-06-11T09:07:14Z</time>
      </trkpt>
      <trkpt lat="45.4319" lon="5.90441">
        <ele>1874.281187443</ele>
        <time>2015-06-11T09:07:19Z</time>
      </trkpt>
      <trkpt lat="45.43187" lon="5.90448">
        <ele>1872.114250986</ele>
        <time>2015-06-11T09:07:24Z</time>
      </trkpt>
      <trkpt lat="45.4318" lon="5.90452">
        <ele>1872.114250986</ele>
        <time>2015-06-11T09:07:28Z</time>
      </trkpt>
      <trkpt lat="45.43176" lon="5.90456">
        <ele>1869.902919181</ele>
        <time>2015-06-11T09:07:32Z</time>
      </trkpt>
      <trkpt lat="45.4317" lon="5.9046">
        <ele>1869.902919181</ele>
        <time>2015-06-11T09:07:37Z</time>
      </trkpt>
      <trkpt lat="45.43159" lon="5.90463">
        <ele>1867.517598888</ele>
        <time>2015-06-11T09:07:44Z</time>
      </trkpt>
      <trkpt lat="45.43155" lon="5.90462">
        <ele>1867.517598888</ele>
        <time>2015-06-11T09:07:48Z</time>
      </trkpt>
      <trkpt lat="45.43151" lon="5.9046">
        <ele>1867.517598888</ele>
        <time>2015-06-11T09:07:52Z</time>
      </trkpt>
      <trkpt lat="45.43151" lon="5.9046">
        <ele>1867.517598888</ele>
        <time>2015-06-11T09:07:57Z</time>
      </trkpt>
      <trkpt lat="45.43151" lon="5.9046">
        <ele>1867.517598888</ele>
        <time>2015-06-11T09:08:04Z</time>
      </trkpt>
      <trkpt lat="45.43151" lon="5.9046">
        <ele>1867.517598888</ele>
        <time>2015-06-11T09:08:09Z</time>
      </trkpt>
      <trkpt lat="45.43144" lon="5.90463">
        <ele>1864.982575215</ele>
        <time>2015-06-11T09:08:14Z</time>
      </trkpt>
      <trkpt lat="45.4314" lon="5.90464">
        <ele>1864.982575215</ele>
        <time>2015-06-11T09:08:19Z</time>
      </trkpt>
      <trkpt lat="45.43132" lon="5.90466">
        <ele>1862.464623349</ele>
        <time>2015-06-11T09:08:23Z</time>
      </trkpt>
      <trkpt lat="45.43125" lon="5.90467">
        <ele>1862.464623349</ele>
        <time>2015-06-11T09:08:28Z</time>
      </trkpt>
      <trkpt lat="45.43115" lon="5.90472">
        <ele>1859.829724848</ele>
        <time>2015-06-11T09:08:34Z</time>
      </trkpt>
      <trkpt lat="45.43109" lon="5.90474">
        <ele>1859.829724848</ele>
        <time>2015-06-11T09:08:39Z</time>
      </trkpt>
      <trkpt lat="45.43101" lon="5.90476">
        <ele>1857.097859263</ele>
        <time>2015-06-11T09:08:44Z</time>
      </trkpt>
      <trkpt lat="45.43093" lon="5.90481">
        <ele>1857.097859263</ele>
        <time>2015-06-11T09:08:49Z</time>
      </trkpt>
      <trkpt lat="45.43085" lon="5.90485">
        <ele>1854.287511607</ele>
        <time>2015-06-11T09:08:54Z</time>
      </trkpt>
      <trkpt lat="45.43082" lon="5.90488">
        <ele>1854.287511607</ele>
        <time>2015-06-11T09:08:59Z</time>
      </trkpt>
      <trkpt lat="45.43081" lon="5.90491">
        <ele>1854.287511607</ele>
        <time>2015-06-11T09:09:04Z</time>
      </trkpt>
      <trkpt lat="45.4308" lon="5.90491">
        <ele>1854.287511607</ele>
        <time>2015-06-11T09:09:09Z</time>
      </trkpt>
      <trkpt lat="45.43078" lon="5.90491">
        <ele>1851.271607419</ele>
        <time>2015-06-11T09:09:14Z</time>
      </trkpt>
      <trkpt lat="45.43072" lon="5.90494">
        <ele>1851.271607419</ele>
        <time>2015-06-11T09:09:19Z</time>
      </trkpt>
      <trkpt lat="45.43065" lon="5.90497">
        <ele>1848.509107559</ele>
        <time>2015-06-11T09:09:24Z</time>
      </trkpt>
      <trkpt lat="45.43065" lon="5.90498">
        <ele>1848.509107559</ele>
        <time>2015-06-11T09:09:28Z</time>
      </trkpt>
      <trkpt lat="45.43062" lon="5.90503">
        <ele>1848.509107559</ele>
        <time>2015-06-11T09:09:33Z</time>
      </trkpt>
      <trkpt lat="45.43064" lon="5.90508">
        <ele>1845.991884298</ele>
        <time>2015-06-11T09:09:39Z</time>
      </trkpt>
      <trkpt lat="45.43064" lon="5.90514">
        <ele>1845.991884298</ele>
        <time>2015-06-11T09:09:44Z</time>
      </trkpt>
      <trkpt lat="45.43064" lon="5.90514">
        <ele>1845.991884298</ele>
        <time>2015-06-11T09:09:48Z</time>
      </trkpt>
      <trkpt lat="45.43058" lon="5.90521">
        <ele>1843.567272219</ele>
        <time>2015-06-11T09:09:54Z</time>
      </trkpt>
      <trkpt lat="45.43052" lon="5.90523">
        <ele>1843.567272219</ele>
        <time>2015-06-11T09:09:59Z</time>
      </trkpt>
      <trkpt lat="45.43045" lon="5.90529">
        <ele>1840.80499845</ele>
        <time>2015-06-11T09:10:04Z</time>
      </trkpt>
      <trkpt lat="45.43041" lon="5.90533">
        <ele>1840.80499845</ele>
        <time>2015-06-11T09:10:09Z</time>
      </trkpt>
      <trkpt lat="45.43032" lon="5.90538">
        <ele>1837.883446733</ele>
        <time>2015-06-11T09:10:14Z</time>
      </trkpt>
      <trkpt lat="45.43027" lon="5.90541">
        <ele>1837.883446733</ele>
        <time>2015-06-11T09:10:19Z</time>
      </trkpt>
      <trkpt lat="45.43022" lon="5.90545">
        <ele>1835.112110215</ele>
        <time>2015-06-11T09:10:24Z</time>
      </trkpt>
      <trkpt lat="45.43016" lon="5.90547">
        <ele>1835.112110215</ele>
        <time>2015-06-11T09:10:29Z</time>
      </trkpt>
      <trkpt lat="45.43008" lon="5.90551">
        <ele>1832.20053471</ele>
        <time>2015-06-11T09:10:33Z</time>
      </trkpt>
      <trkpt lat="45.43004" lon="5.90552">
        <ele>1832.20053471</ele>
        <time>2015-06-11T09:10:37Z</time>
      </trkpt>
      <trkpt lat="45.43002" lon="5.90564">
        <ele>1829.456093938</ele>
        <time>2015-06-11T09:10:44Z</time>
      </trkpt>
      <trkpt lat="45.43003" lon="5.90569">
        <ele>1829.456093938</ele>
        <time>2015-06-11T09:10:49Z</time>
      </trkpt>
      <trkpt lat="45.43001" lon="5.90576">
        <ele>1826.874544891</ele>
        <time>2015-06-11T09:10:54Z</time>
      </trkpt>
      <trkpt lat="45.42993" lon="5.90583">
        <ele>1824.739378565</ele>
        <time>2015-06-11T09:10:59Z</time>
      </trkpt>
      <trkpt lat="45.42987" lon="5.90589">
        <ele>1824.739378565</ele>
        <time>2015-06-11T09:11:04Z</time>
      </trkpt>
      <trkpt lat="45.42984" lon="5.90591">
        <ele>1822.591114595</ele>
        <time>2015-06-11T09:11:09Z</time>
      </trkpt>
      <trkpt lat="45.42977" lon="5.90601">
        <ele>1821.156621828</ele>
        <time>2015-06-11T09:11:13Z</time>
      </trkpt>
      <trkpt lat="45.42976" lon="5.90606">
        <ele>1821.156621828</ele>
        <time>2015-06-11T09:11:19Z</time>
      </trkpt>
      <trkpt lat="45.42968" lon="5.90606">
        <ele>1819.521828822</ele>
        <time>2015-06-11T09:11:24Z</time>
      </trkpt>
      <trkpt lat="45.42961" lon="5.9061">
        <ele>1819.521828822</ele>
        <time>2015-06-11T09:11:28Z</time>
      </trkpt>
      <trkpt lat="45.42959" lon="5.90609">
        <ele>1817.704732338</ele>
        <time>2015-06-11T09:11:34Z</time>
      </trkpt>
      <trkpt lat="45.42954" lon="5.90616">
        <ele>1817.704732338</ele>
        <time>2015-06-11T09:11:39Z</time>
      </trkpt>
      <trkpt lat="45.42954" lon="5.90621">
        <ele>1816.298668728</ele>
        <time>2015-06-11T09:11:44Z</time>
      </trkpt>
      <trkpt lat="45.4295" lon="5.90628">
        <ele>1816.298668728</ele>
        <time>2015-06-11T09:11:49Z</time>
      </trkpt>
      <trkpt lat="45.4294" lon="5.90635">
        <ele>1814.554953608</ele>
        <time>2015-06-11T09:11:54Z</time>
      </trkpt>
      <trkpt lat="45.42935" lon="5.90642">
        <ele>1814.554953608</ele>
        <time>2015-06-11T09:11:59Z</time>
      </trkpt>
      <trkpt lat="45.42929" lon="5.90643">
        <ele>1812.645246409</ele>
        <time>2015-06-11T09:12:03Z</time>
      </trkpt>
      <trkpt lat="45.42926" lon="5.9065">
        <ele>1812.645246409</ele>
        <time>2015-06-11T09:12:09Z</time>
      </trkpt>
      <trkpt lat="45.42922" lon="5.90656">
        <ele>1810.872917526</ele>
        <time>2015-06-11T09:12:14Z</time>
      </trkpt>
      <trkpt lat="45.4292" lon="5.90664">
        <ele>1810.872917526</ele>
        <time>2015-06-11T09:12:19Z</time>
      </trkpt>
      <trkpt lat="45.42916" lon="5.90674">
        <ele>1809.950757688</ele>
        <time>2015-06-11T09:12:24Z</time>
      </trkpt>
      <trkpt lat="45.42911" lon="5.90679">
        <ele>1809.950757688</ele>
        <time>2015-06-11T09:12:28Z</time>
      </trkpt>
      <trkpt lat="45.4291" lon="5.90682">
        <ele>1809.950757688</ele>
        <time>2015-06-11T09:12:33Z</time>
      </trkpt>
      <trkpt lat="45.42909" lon="5.90685">
        <ele>1809.095471366</ele>
        <time>2015-06-11T09:12:39Z</time>
      </trkpt>
      <trkpt lat="45.42906" lon="5.90688">
        <ele>1809.095471366</ele>
        <time>2015-06-11T09:12:43Z</time>
      </trkpt>
      <trkpt lat="45.42903" lon="5.90694">
        <ele>1809.095471366</ele>
        <time>2015-06-11T09:12:49Z</time>
      </trkpt>
      <trkpt lat="45.42901" lon="5.907">
        <ele>1807.436790322</ele>
        <time>2015-06-11T09:12:54Z</time>
      </trkpt>
      <trkpt lat="45.42898" lon="5.90703">
        <ele>1807.436790322</ele>
        <time>2015-06-11T09:12:58Z</time>
      </trkpt>
      <trkpt lat="45.42897" lon="5.9071">
        <ele>1805.755652472</ele>
        <time>2015-06-11T09:13:04Z</time>
      </trkpt>
      <trkpt lat="45.42895" lon="5.90717">
        <ele>1805.755652472</ele>
        <time>2015-06-11T09:13:09Z</time>
      </trkpt>
      <trkpt lat="45.42899" lon="5.90722">
        <ele>1804.343172264</ele>
        <time>2015-06-11T09:13:14Z</time>
      </trkpt>
      <trkpt lat="45.42898" lon="5.90723">
        <ele>1804.343172264</ele>
        <time>2015-06-11T09:13:19Z</time>
      </trkpt>
      <trkpt lat="45.42892" lon="5.90728">
        <ele>1804.343172264</ele>
        <time>2015-06-11T09:13:24Z</time>
      </trkpt>
      <trkpt lat="45.42892" lon="5.90729">
        <ele>1804.343172264</ele>
        <time>2015-06-11T09:13:29Z</time>
      </trkpt>
      <trkpt lat="45.42892" lon="5.90729">
        <ele>1803.179930157</ele>
        <time>2015-06-11T09:13:33Z</time>
      </trkpt>
      <trkpt lat="45.42894" lon="5.90736">
        <ele>1803.179930157</ele>
        <time>2015-06-11T09:13:39Z</time>
      </trkpt>
      <trkpt lat="45.42897" lon="5.90744">
        <ele>1802.247073603</ele>
        <time>2015-06-11T09:13:44Z</time>
      </trkpt>
      <trkpt lat="45.42893" lon="5.90754">
        <ele>1802.247073603</ele>
        <time>2015-06-11T09:13:48Z</time>
      </trkpt>
      <trkpt lat="45.4289" lon="5.90763">
        <ele>1800.66167353</ele>
        <time>2015-06-11T09:13:54Z</time>
      </trkpt>
      <trkpt lat="45.42888" lon="5.90771">
        <ele>1800.66167353</ele>
        <time>2015-06-11T09:13:59Z</time>
      </trkpt>
      <trkpt lat="45.42888" lon="5.90778">
        <ele>1798.904355198</ele>
        <time>2015-06-11T09:14:04Z</time>
      </trkpt>
      <trkpt lat="45.42889" lon="5.90786">
        <ele>1798.904355198</ele>
        <time>2015-06-11T09:14:09Z</time>
      </trkpt>
      <trkpt lat="45.4289" lon="5.90794">
        <ele>1797.709017466</ele>
        <time>2015-06-11T09:14:14Z</time>
      </trkpt>
      <trkpt lat="45.42892" lon="5.90802">
        <ele>1797.709017466</ele>
        <time>2015-06-11T09:14:18Z</time>
      </trkpt>
      <trkpt lat="45.42895" lon="5.90812">
        <ele>1796.745179091</ele>
        <time>2015-06-11T09:14:24Z</time>
      </trkpt>
      <trkpt lat="45.42895" lon="5.9082">
        <ele>1796.745179091</ele>
        <time>2015-06-11T09:14:29Z</time>
      </trkpt>
      <trkpt lat="45.42897" lon="5.90829">
        <ele>1795.705883284</ele>
        <time>2015-06-11T09:14:34Z</time>
      </trkpt>
      <trkpt lat="45.42899" lon="5.90839">
        <ele>1795.705883284</ele>
        <time>2015-06-11T09:14:39Z</time>
      </trkpt>
      <trkpt lat="45.429" lon="5.90846">
        <ele>1794.739175664</ele>
        <time>2015-06-11T09:14:44Z</time>
      </trkpt>
      <trkpt lat="45.429" lon="5.90854">
        <ele>1794.739175664</ele>
        <time>2015-06-11T09:14:49Z</time>
      </trkpt>
      <trkpt lat="45.42902" lon="5.90861">
        <ele>1793.837832204</ele>
        <time>2015-06-11T09:14:54Z</time>
      </trkpt>
      <trkpt lat="45.42899" lon="5.90867">
        <ele>1793.837832204</ele>
        <time>2015-06-11T09:14:59Z</time>
      </trkpt>
      <trkpt lat="45.42899" lon="5.90868">
        <ele>1793.837832204</ele>
        <time>2015-06-11T09:15:04Z</time>
      </trkpt>
      <trkpt lat="45.42901" lon="5.90876">
        <ele>1792.706685794</ele>
        <time>2015-06-11T09:15:09Z</time>
      </trkpt>
      <trkpt lat="45.429" lon="5.90882">
        <ele>1792.706685794</ele>
        <time>2015-06-11T09:15:14Z</time>
      </trkpt>
      <trkpt lat="45.42903" lon="5.9089">
        <ele>1791.50517276</ele>
        <time>2015-06-11T09:15:19Z</time>
      </trkpt>
      <trkpt lat="45.42902" lon="5.909">
        <ele>1791.50517276</ele>
        <time>2015-06-11T09:15:24Z</time>
      </trkpt>
      <trkpt lat="45.42903" lon="5.90905">
        <ele>1790.525278313</ele>
        <time>2015-06-11T09:15:29Z</time>
      </trkpt>
      <trkpt lat="45.4291" lon="5.90909">
        <ele>1790.525278313</ele>
        <time>2015-06-11T09:15:34Z</time>
      </trkpt>
      <trkpt lat="45.42914" lon="5.90917">
        <ele>1789.60454503</ele>
        <time>2015-06-11T09:15:39Z</time>
      </trkpt>
      <trkpt lat="45.42914" lon="5.90923">
        <ele>1789.60454503</ele>
        <time>2015-06-11T09:15:44Z</time>
      </trkpt>
      <trkpt lat="45.42914" lon="5.90936">
        <ele>1788.736365155</ele>
        <time>2015-06-11T09:15:48Z</time>
      </trkpt>
      <trkpt lat="45.42914" lon="5.90946">
        <ele>1788.736365155</ele>
        <time>2015-06-11T09:15:54Z</time>
      </trkpt>
      <trkpt lat="45.42914" lon="5.90954">
        <ele>1787.914448187</ele>
        <time>2015-06-11T09:15:59Z</time>
      </trkpt>
      <trkpt lat="45.42919" lon="5.90964">
        <ele>1787.914448187</ele>
        <time>2015-06-11T09:16:04Z</time>
      </trkpt>
      <trkpt lat="45.42917" lon="5.90969">
        <ele>1787.421046945</ele>
        <time>2015-06-11T09:16:09Z</time>
      </trkpt>
      <trkpt lat="45.42915" lon="5.9097">
        <ele>1787.421046945</ele>
        <time>2015-06-11T09:16:14Z</time>
      </trkpt>
      <trkpt lat="45.42916" lon="5.9097">
        <ele>1787.421046945</ele>
        <time>2015-06-11T09:16:19Z</time>
      </trkpt>
      <trkpt lat="45.42914" lon="5.90966">
        <ele>1787.421046945</ele>
        <time>2015-06-11T09:16:24Z</time>
      </trkpt>
      <trkpt lat="45.42911" lon="5.90968">
        <ele>1787.421046945</ele>
        <time>2015-06-11T09:16:29Z</time>
      </trkpt>
      <trkpt lat="45.42916" lon="5.90968">
        <ele>1786.363866325</ele>
        <time>2015-06-11T09:16:33Z</time>
      </trkpt>
      <trkpt lat="45.4292" lon="5.90974">
        <ele>1786.363866325</ele>
        <time>2015-06-11T09:16:38Z</time>
      </trkpt>
      <trkpt lat="45.42921" lon="5.90979">
        <ele>1785.214745623</ele>
        <time>2015-06-11T09:16:44Z</time>
      </trkpt>
      <trkpt lat="45.42926" lon="5.90984">
        <ele>1785.214745623</ele>
        <time>2015-06-11T09:16:49Z</time>
      </trkpt>
      <trkpt lat="45.42921" lon="5.90994">
        <ele>1784.411133041</ele>
        <time>2015-06-11T09:16:54Z</time>
      </trkpt>
      <trkpt lat="45.42923" lon="5.91001">
        <ele>1784.411133041</ele>
        <time>2015-06-11T09:16:59Z</time>
      </trkpt>
      <trkpt lat="45.42923" lon="5.91008">
        <ele>1783.204501017</ele>
        <time>2015-06-11T09:17:04Z</time>
      </trkpt>
      <trkpt lat="45.42924" lon="5.91016">
        <ele>1783.204501017</ele>
        <time>2015-06-11T09:17:09Z</time>
      </trkpt>
      <trkpt lat="45.42923" lon="5.91024">
        <ele>1782.199461557</ele>
        <time>2015-06-11T09:17:14Z</time>
      </trkpt>
      <trkpt lat="45.42921" lon="5.91035">
        <ele>1782.199461557</ele>
        <time>2015-06-11T09:17:19Z</time>
      </trkpt>
      <trkpt lat="45.42917" lon="5.91041">
        <ele>1781.091005779</ele>
        <time>2015-06-11T09:17:23Z</time>
      </trkpt>
      <trkpt lat="45.42921" lon="5.9105">
        <ele>1781.091005779</ele>
        <time>2015-06-11T09:17:29Z</time>
      </trkpt>
      <trkpt lat="45.42916" lon="5.91057">
        <ele>1779.740961063</ele>
        <time>2015-06-11T09:17:34Z</time>
      </trkpt>
      <trkpt lat="45.42922" lon="5.91067">
        <ele>1779.740961063</ele>
        <time>2015-06-11T09:17:39Z</time>
      </trkpt>
      <trkpt lat="45.42923" lon="5.91072">
        <ele>1778.454347533</ele>
        <time>2015-06-11T09:17:44Z</time>
      </trkpt>
      <trkpt lat="45.42925" lon="5.91081">
        <ele>1778.454347533</ele>
        <time>2015-06-11T09:17:48Z</time>
      </trkpt>
      <trkpt lat="45.42929" lon="5.91087">
        <ele>1777.369523014</ele>
        <time>2015-06-11T09:17:54Z</time>
      </trkpt>
      <trkpt lat="45.42935" lon="5.91094">
        <ele>1777.369523014</ele>
        <time>2015-06-11T09:17:58Z</time>
      </trkpt>
      <trkpt lat="45.42938" lon="5.91101">
        <ele>1776.758262471</ele>
        <time>2015-06-11T09:18:04Z</time>
      </trkpt>
      <trkpt lat="45.42943" lon="5.91112">
        <ele>1776.438753576</ele>
        <time>2015-06-11T09:18:09Z</time>
      </trkpt>
      <trkpt lat="45.42942" lon="5.91116">
        <ele>1776.438753576</ele>
        <time>2015-06-11T09:18:14Z</time>
      </trkpt>
      <trkpt lat="45.42947" lon="5.91126">
        <ele>1776.097654174</ele>
        <time>2015-06-11T09:18:19Z</time>
      </trkpt>
      <trkpt lat="45.42943" lon="5.91128">
        <ele>1776.097654174</ele>
        <time>2015-06-11T09:18:24Z</time>
      </trkpt>
      <trkpt lat="45.42941" lon="5.91138">
        <ele>1775.156527309</ele>
        <time>2015-06-11T09:18:29Z</time>
      </trkpt>
      <trkpt lat="45.42937" lon="5.91144">
        <ele>1775.156527309</ele>
        <time>2015-06-11T09:18:34Z</time>
      </trkpt>
      <trkpt lat="45.4293" lon="5.91152">
        <ele>1773.945831404</ele>
        <time>2015-06-11T09:18:39Z</time>
      </trkpt>
      <trkpt lat="45.4292" lon="5.91158">
        <ele>1772.48433924</ele>
        <time>2015-06-11T09:18:44Z</time>
      </trkpt>
      <trkpt lat="45.42912" lon="5.91167">
        <ele>1770.934314695</ele>
        <time>2015-06-11T09:18:49Z</time>
      </trkpt>
      <trkpt lat="45.42907" lon="5.91164">
        <ele>1770.934314695</ele>
        <time>2015-06-11T09:18:54Z</time>
      </trkpt>
      <trkpt lat="45.42902" lon="5.91166">
        <ele>1769.446403243</ele>
        <time>2015-06-11T09:18:59Z</time>
      </trkpt>
      <trkpt lat="45.42894" lon="5.9117">
        <ele>1769.446403243</ele>
        <time>2015-06-11T09:19:04Z</time>
      </trkpt>
      <trkpt lat="45.42889" lon="5.91172">
        <ele>1767.871837038</ele>
        <time>2015-06-11T09:19:08Z</time>
      </trkpt>
      <trkpt lat="45.42882" lon="5.91174">
        <ele>1767.871837038</ele>
        <time>2015-06-11T09:19:14Z</time>
      </trkpt>
      <trkpt lat="45.42877" lon="5.9118">
        <ele>1766.937733571</ele>
        <time>2015-06-11T09:19:19Z</time>
      </trkpt>
      <trkpt lat="45.4287" lon="5.91184">
        <ele>1766.937733571</ele>
        <time>2015-06-11T09:19:24Z</time>
      </trkpt>
      <trkpt lat="45.4287" lon="5.91184">
        <ele>1766.937733571</ele>
        <time>2015-06-11T09:19:29Z</time>
      </trkpt>
      <trkpt lat="45.4287" lon="5.91185">
        <ele>1765.874932994</ele>
        <time>2015-06-11T09:19:33Z</time>
      </trkpt>
      <trkpt lat="45.4287" lon="5.91185">
        <ele>1765.874932994</ele>
        <time>2015-06-11T09:19:38Z</time>
      </trkpt>
      <trkpt lat="45.42867" lon="5.91186">
        <ele>1765.874932994</ele>
        <time>2015-06-11T09:19:44Z</time>
      </trkpt>
      <trkpt lat="45.42863" lon="5.91186">
        <ele>1765.874932994</ele>
        <time>2015-06-11T09:19:49Z</time>
      </trkpt>
      <trkpt lat="45.42853" lon="5.9119">
        <ele>1764.259403412</ele>
        <time>2015-06-11T09:19:54Z</time>
      </trkpt>
      <trkpt lat="45.42845" lon="5.91193">
        <ele>1764.259403412</ele>
        <time>2015-06-11T09:19:59Z</time>
      </trkpt>
      <trkpt lat="45.42837" lon="5.91194">
        <ele>1763.140965817</ele>
        <time>2015-06-11T09:20:04Z</time>
      </trkpt>
      <trkpt lat="45.42832" lon="5.912">
        <ele>1763.140965817</ele>
        <time>2015-06-11T09:20:09Z</time>
      </trkpt>
      <trkpt lat="45.4283" lon="5.91205">
        <ele>1761.90574503</ele>
        <time>2015-06-11T09:20:14Z</time>
      </trkpt>
      <trkpt lat="45.4283" lon="5.91205">
        <ele>1761.90574503</ele>
        <time>2015-06-11T09:20:19Z</time>
      </trkpt>
      <trkpt lat="45.42831" lon="5.91205">
        <ele>1761.90574503</ele>
        <time>2015-06-11T09:20:24Z</time>
      </trkpt>
      <trkpt lat="45.42831" lon="5.91204">
        <ele>1761.90574503</ele>
        <time>2015-06-11T09:20:29Z</time>
      </trkpt>
      <trkpt lat="45.42831" lon="5.91204">
        <ele>1761.90574503</ele>
        <time>2015-06-11T09:20:34Z</time>
      </trkpt>
      <trkpt lat="45.42831" lon="5.91204">
        <ele>1761.90574503</ele>
        <time>2015-06-11T09:20:39Z</time>
      </trkpt>
      <trkpt lat="45.42831" lon="5.91204">
        <ele>1761.90574503</ele>
        <time>2015-06-11T09:20:44Z</time>
      </trkpt>
      <trkpt lat="45.4283" lon="5.91212">
        <ele>1761.90574503</ele>
        <time>2015-06-11T09:20:49Z</time>
      </trkpt>
      <trkpt lat="45.42824" lon="5.9122">
        <ele>1759.98532599</ele>
        <time>2015-06-11T09:20:54Z</time>
      </trkpt>
      <trkpt lat="45.42824" lon="5.91224">
        <ele>1759.98532599</ele>
        <time>2015-06-11T09:20:59Z</time>
      </trkpt>
      <trkpt lat="45.42823" lon="5.91227">
        <ele>1759.98532599</ele>
        <time>2015-06-11T09:21:04Z</time>
      </trkpt>
      <trkpt lat="45.42824" lon="5.91237">
        <ele>1757.863783077</ele>
        <time>2015-06-11T09:21:09Z</time>
      </trkpt>
      <trkpt lat="45.42827" lon="5.91248">
        <ele>1757.863783077</ele>
        <time>2015-06-11T09:21:14Z</time>
      </trkpt>
      <trkpt lat="45.42822" lon="5.91249">
        <ele>1755.990224159</ele>
        <time>2015-06-11T09:21:19Z</time>
      </trkpt>
      <trkpt lat="45.42822" lon="5.9125">
        <ele>1755.990224159</ele>
        <time>2015-06-11T09:21:24Z</time>
      </trkpt>
      <trkpt lat="45.42822" lon="5.91251">
        <ele>1755.990224159</ele>
        <time>2015-06-11T09:21:29Z</time>
      </trkpt>
      <trkpt lat="45.42822" lon="5.91251">
        <ele>1755.990224159</ele>
        <time>2015-06-11T09:21:34Z</time>
      </trkpt>
      <trkpt lat="45.42822" lon="5.91251">
        <ele>1755.990224159</ele>
        <time>2015-06-11T09:21:39Z</time>
      </trkpt>
      <trkpt lat="45.42817" lon="5.91263">
        <ele>1754.059537497</ele>
        <time>2015-06-11T09:21:44Z</time>
      </trkpt>
      <trkpt lat="45.42814" lon="5.91269">
        <ele>1754.059537497</ele>
        <time>2015-06-11T09:21:49Z</time>
      </trkpt>
      <trkpt lat="45.42812" lon="5.9127">
        <ele>1754.059537497</ele>
        <time>2015-06-11T09:21:54Z</time>
      </trkpt>
      <trkpt lat="45.42812" lon="5.91279">
        <ele>1752.942092273</ele>
        <time>2015-06-11T09:21:59Z</time>
      </trkpt>
      <trkpt lat="45.42815" lon="5.91289">
        <ele>1752.942092273</ele>
        <time>2015-06-11T09:22:04Z</time>
      </trkpt>
      <trkpt lat="45.42817" lon="5.91297">
        <ele>1751.856831129</ele>
        <time>2015-06-11T09:22:09Z</time>
      </trkpt>
      <trkpt lat="45.42818" lon="5.91304">
        <ele>1751.856831129</ele>
        <time>2015-06-11T09:22:14Z</time>
      </trkpt>
      <trkpt lat="45.42817" lon="5.9131">
        <ele>1751.856831129</ele>
        <time>2015-06-11T09:22:19Z</time>
      </trkpt>
      <trkpt lat="45.42817" lon="5.91315">
        <ele>1751.521108538</ele>
        <time>2015-06-11T09:22:24Z</time>
      </trkpt>
      <trkpt lat="45.42816" lon="5.91319">
        <ele>1751.521108538</ele>
        <time>2015-06-11T09:22:29Z</time>
      </trkpt>
      <trkpt lat="45.42814" lon="5.91322">
        <ele>1751.521108538</ele>
        <time>2015-06-11T09:22:32Z</time>
      </trkpt>
      <trkpt lat="45.42814" lon="5.91323">
        <ele>1751.521108538</ele>
        <time>2015-06-11T09:22:38Z</time>
      </trkpt>
      <trkpt lat="45.42814" lon="5.91323">
        <ele>1751.521108538</ele>
        <time>2015-06-11T09:22:42Z</time>
      </trkpt>
      <trkpt lat="45.42814" lon="5.91323">
        <ele>1751.521108538</ele>
        <time>2015-06-11T09:22:48Z</time>
      </trkpt>
      <trkpt lat="45.42813" lon="5.91324">
        <ele>1751.521108538</ele>
        <time>2015-06-11T09:22:53Z</time>
      </trkpt>
      <trkpt lat="45.42813" lon="5.91324">
        <ele>1751.521108538</ele>
        <time>2015-06-11T09:22:58Z</time>
      </trkpt>
      <trkpt lat="45.42814" lon="5.91329">
        <ele>1751.012273694</ele>
        <time>2015-06-11T09:23:04Z</time>
      </trkpt>
      <trkpt lat="45.42814" lon="5.91331">
        <ele>1751.012273694</ele>
        <time>2015-06-11T09:23:09Z</time>
      </trkpt>
      <trkpt lat="45.42815" lon="5.91332">
        <ele>1751.012273694</ele>
        <time>2015-06-11T09:23:14Z</time>
      </trkpt>
      <trkpt lat="45.42815" lon="5.91333">
        <ele>1751.012273694</ele>
        <time>2015-06-11T09:23:19Z</time>
      </trkpt>
      <trkpt lat="45.42815" lon="5.91333">
        <ele>1751.012273694</ele>
        <time>2015-06-11T09:23:24Z</time>
      </trkpt>
      <trkpt lat="45.42815" lon="5.91333">
        <ele>1751.012273694</ele>
        <time>2015-06-11T09:23:29Z</time>
      </trkpt>
      <trkpt lat="45.42818" lon="5.91335">
        <ele>1751.012273694</ele>
        <time>2015-06-11T09:23:34Z</time>
      </trkpt>
      <trkpt lat="45.42819" lon="5.91336">
        <ele>1751.012273694</ele>
        <time>2015-06-11T09:23:39Z</time>
      </trkpt>
      <trkpt lat="45.4282" lon="5.91336">
        <ele>1751.012273694</ele>
        <time>2015-06-11T09:23:44Z</time>
      </trkpt>
      <trkpt lat="45.42824" lon="5.91341">
        <ele>1749.908292422</ele>
        <time>2015-06-11T09:23:49Z</time>
      </trkpt>
      <trkpt lat="45.42829" lon="5.91345">
        <ele>1749.908292422</ele>
        <time>2015-06-11T09:23:54Z</time>
      </trkpt>
      <trkpt lat="45.4283" lon="5.91347">
        <ele>1749.908292422</ele>
        <time>2015-06-11T09:23:59Z</time>
      </trkpt>
      <trkpt lat="45.4283" lon="5.91348">
        <ele>1749.908292422</ele>
        <time>2015-06-11T09:24:04Z</time>
      </trkpt>
      <trkpt lat="45.42831" lon="5.91347">
        <ele>1749.908292422</ele>
        <time>2015-06-11T09:24:09Z</time>
      </trkpt>
      <trkpt lat="45.4283" lon="5.9135">
        <ele>1747.963935824</ele>
        <time>2015-06-11T09:24:14Z</time>
      </trkpt>
      <trkpt lat="45.42833" lon="5.91351">
        <ele>1747.963935824</ele>
        <time>2015-06-11T09:24:19Z</time>
      </trkpt>
      <trkpt lat="45.4283" lon="5.91355">
        <ele>1747.963935824</ele>
        <time>2015-06-11T09:24:24Z</time>
      </trkpt>
      <trkpt lat="45.42829" lon="5.91356">
        <ele>1747.963935824</ele>
        <time>2015-06-11T09:24:28Z</time>
      </trkpt>
      <trkpt lat="45.42829" lon="5.91357">
        <ele>1747.963935824</ele>
        <time>2015-06-11T09:24:33Z</time>
      </trkpt>
      <trkpt lat="45.4283" lon="5.91361">
        <ele>1745.963147254</ele>
        <time>2015-06-11T09:24:39Z</time>
      </trkpt>
      <trkpt lat="45.42832" lon="5.91364">
        <ele>1745.963147254</ele>
        <time>2015-06-11T09:24:44Z</time>
      </trkpt>
      <trkpt lat="45.42833" lon="5.91366">
        <ele>1745.963147254</ele>
        <time>2015-06-11T09:24:49Z</time>
      </trkpt>
      <trkpt lat="45.42835" lon="5.91369">
        <ele>1745.963147254</ele>
        <time>2015-06-11T09:24:54Z</time>
      </trkpt>
      <trkpt lat="45.42835" lon="5.91374">
        <ele>1743.623680566</ele>
        <time>2015-06-11T09:24:59Z</time>
      </trkpt>
      <trkpt lat="45.42839" lon="5.91377">
        <ele>1743.623680566</ele>
        <time>2015-06-11T09:25:04Z</time>
      </trkpt>
      <trkpt lat="45.4284" lon="5.91379">
        <ele>1743.623680566</ele>
        <time>2015-06-11T09:25:08Z</time>
      </trkpt>
      <trkpt lat="45.4284" lon="5.91377">
        <ele>1743.623680566</ele>
        <time>2015-06-11T09:25:14Z</time>
      </trkpt>
      <trkpt lat="45.4284" lon="5.91377">
        <ele>1743.623680566</ele>
        <time>2015-06-11T09:25:18Z</time>
      </trkpt>
      <trkpt lat="45.42839" lon="5.91377">
        <ele>1740.829095443</ele>
        <time>2015-06-11T09:25:24Z</time>
      </trkpt>
      <trkpt lat="45.42839" lon="5.91377">
        <ele>1740.829095443</ele>
        <time>2015-06-11T09:25:28Z</time>
      </trkpt>
      <trkpt lat="45.42839" lon="5.91377">
        <ele>1740.829095443</ele>
        <time>2015-06-11T09:25:34Z</time>
      </trkpt>
      <trkpt lat="45.42838" lon="5.91378">
        <ele>1740.829095443</ele>
        <time>2015-06-11T09:25:39Z</time>
      </trkpt>
      <trkpt lat="45.42836" lon="5.91379">
        <ele>1740.829095443</ele>
        <time>2015-06-11T09:25:44Z</time>
      </trkpt>
      <trkpt lat="45.42832" lon="5.9138">
        <ele>1740.829095443</ele>
        <time>2015-06-11T09:25:49Z</time>
      </trkpt>
      <trkpt lat="45.42831" lon="5.91381">
        <ele>1737.905116684</ele>
        <time>2015-06-11T09:25:52Z</time>
      </trkpt>
      <trkpt lat="45.4283" lon="5.91382">
        <ele>1737.905116684</ele>
        <time>2015-06-11T09:25:58Z</time>
      </trkpt>
      <trkpt lat="45.4283" lon="5.91382">
        <ele>1737.905116684</ele>
        <time>2015-06-11T09:26:03Z</time>
      </trkpt>
      <trkpt lat="45.4283" lon="5.91382">
        <ele>1737.905116684</ele>
        <time>2015-06-11T09:26:09Z</time>
      </trkpt>
      <trkpt lat="45.4283" lon="5.91382">
        <ele>1737.905116684</ele>
        <time>2015-06-11T09:26:12Z</time>
      </trkpt>
      <trkpt lat="45.4283" lon="5.91382">
        <ele>1737.905116684</ele>
        <time>2015-06-11T09:26:19Z</time>
      </trkpt>
      <trkpt lat="45.4283" lon="5.91382">
        <ele>1737.905116684</ele>
        <time>2015-06-11T09:26:24Z</time>
      </trkpt>
      <trkpt lat="45.4283" lon="5.91382">
        <ele>1737.905116684</ele>
        <time>2015-06-11T09:26:29Z</time>
      </trkpt>
      <trkpt lat="45.4283" lon="5.91384">
        <ele>1737.905116684</ele>
        <time>2015-06-11T09:26:34Z</time>
      </trkpt>
      <trkpt lat="45.4283" lon="5.91386">
        <ele>1737.905116684</ele>
        <time>2015-06-11T09:26:39Z</time>
      </trkpt>
      <trkpt lat="45.42829" lon="5.91387">
        <ele>1737.905116684</ele>
        <time>2015-06-11T09:26:44Z</time>
      </trkpt>
      <trkpt lat="45.42829" lon="5.91387">
        <ele>1737.905116684</ele>
        <time>2015-06-11T09:26:49Z</time>
      </trkpt>
      <trkpt lat="45.42828" lon="5.91387">
        <ele>1737.905116684</ele>
        <time>2015-06-11T09:26:54Z</time>
      </trkpt>
      <trkpt lat="45.42828" lon="5.91387">
        <ele>1737.905116684</ele>
        <time>2015-06-11T09:26:59Z</time>
      </trkpt>
      <trkpt lat="45.42828" lon="5.91387">
        <ele>1737.905116684</ele>
        <time>2015-06-11T09:27:04Z</time>
      </trkpt>
      <trkpt lat="45.42828" lon="5.91387">
        <ele>1737.905116684</ele>
        <time>2015-06-11T09:27:09Z</time>
      </trkpt>
      <trkpt lat="45.42828" lon="5.91387">
        <ele>1737.905116684</ele>
        <time>2015-06-11T09:27:13Z</time>
      </trkpt>
      <trkpt lat="45.42828" lon="5.91387">
        <ele>1737.905116684</ele>
        <time>2015-06-11T09:27:19Z</time>
      </trkpt>
      <trkpt lat="45.42828" lon="5.91387">
        <ele>1737.905116684</ele>
        <time>2015-06-11T09:27:24Z</time>
      </trkpt>
      <trkpt lat="45.4283" lon="5.91388">
        <ele>1737.905116684</ele>
        <time>2015-06-11T09:27:29Z</time>
      </trkpt>
      <trkpt lat="45.42831" lon="5.91393">
        <ele>1734.721560979</ele>
        <time>2015-06-11T09:27:33Z</time>
      </trkpt>
      <trkpt lat="45.42829" lon="5.91395">
        <ele>1734.721560979</ele>
        <time>2015-06-11T09:27:39Z</time>
      </trkpt>
      <trkpt lat="45.42827" lon="5.91398">
        <ele>1734.721560979</ele>
        <time>2015-06-11T09:27:44Z</time>
      </trkpt>
      <trkpt lat="45.42826" lon="5.91398">
        <ele>1734.721560979</ele>
        <time>2015-06-11T09:27:49Z</time>
      </trkpt>
      <trkpt lat="45.42826" lon="5.91398">
        <ele>1734.721560979</ele>
        <time>2015-06-11T09:27:54Z</time>
      </trkpt>
      <trkpt lat="45.42825" lon="5.91399">
        <ele>1734.721560979</ele>
        <time>2015-06-11T09:27:59Z</time>
      </trkpt>
      <trkpt lat="45.42825" lon="5.91399">
        <ele>1734.721560979</ele>
        <time>2015-06-11T09:28:04Z</time>
      </trkpt>
      <trkpt lat="45.42825" lon="5.91399">
        <ele>1734.721560979</ele>
        <time>2015-06-11T09:28:09Z</time>
      </trkpt>
      <trkpt lat="45.42825" lon="5.91399">
        <ele>1734.721560979</ele>
        <time>2015-06-11T09:28:14Z</time>
      </trkpt>
      <trkpt lat="45.42825" lon="5.91399">
        <ele>1734.721560979</ele>
        <time>2015-06-11T09:28:19Z</time>
      </trkpt>
      <trkpt lat="45.42825" lon="5.91399">
        <ele>1734.721560979</ele>
        <time>2015-06-11T09:28:24Z</time>
      </trkpt>
      <trkpt lat="45.42825" lon="5.91399">
        <ele>1734.721560979</ele>
        <time>2015-06-11T09:28:29Z</time>
      </trkpt>
      <trkpt lat="45.42825" lon="5.91399">
        <ele>1734.721560979</ele>
        <time>2015-06-11T09:28:34Z</time>
      </trkpt>
      <trkpt lat="45.42825" lon="5.91399">
        <ele>1734.721560979</ele>
        <time>2015-06-11T09:28:39Z</time>
      </trkpt>
      <trkpt lat="45.42825" lon="5.914">
        <ele>1734.721560979</ele>
        <time>2015-06-11T09:28:44Z</time>
      </trkpt>
      <trkpt lat="45.42825" lon="5.914">
        <ele>1734.721560979</ele>
        <time>2015-06-11T09:28:49Z</time>
      </trkpt>
      <trkpt lat="45.42825" lon="5.914">
        <ele>1734.721560979</ele>
        <time>2015-06-11T09:28:54Z</time>
      </trkpt>
      <trkpt lat="45.42825" lon="5.914">
        <ele>1734.721560979</ele>
        <time>2015-06-11T09:28:59Z</time>
      </trkpt>
      <trkpt lat="45.42825" lon="5.914">
        <ele>1734.721560979</ele>
        <time>2015-06-11T09:29:04Z</time>
      </trkpt>
      <trkpt lat="45.42825" lon="5.914">
        <ele>1734.721560979</ele>
        <time>2015-06-11T09:29:09Z</time>
      </trkpt>
      <trkpt lat="45.42825" lon="5.914">
        <ele>1734.721560979</ele>
        <time>2015-06-11T09:29:14Z</time>
      </trkpt>
      <trkpt lat="45.42825" lon="5.914">
        <ele>1734.721560979</ele>
        <time>2015-06-11T09:29:19Z</time>
      </trkpt>
      <trkpt lat="45.42822" lon="5.91402">
        <ele>1731.734959007</ele>
        <time>2015-06-11T09:29:24Z</time>
      </trkpt>
      <trkpt lat="45.42822" lon="5.91405">
        <ele>1731.734959007</ele>
        <time>2015-06-11T09:29:29Z</time>
      </trkpt>
      <trkpt lat="45.42821" lon="5.91405">
        <ele>1731.734959007</ele>
        <time>2015-06-11T09:29:32Z</time>
      </trkpt>
      <trkpt lat="45.42815" lon="5.91408">
        <ele>1728.50305078</ele>
        <time>2015-06-11T09:29:37Z</time>
      </trkpt>
      <trkpt lat="45.42809" lon="5.91413">
        <ele>1728.50305078</ele>
        <time>2015-06-11T09:29:43Z</time>
      </trkpt>
      <trkpt lat="45.42806" lon="5.91415">
        <ele>1726.346041656</ele>
        <time>2015-06-11T09:29:49Z</time>
      </trkpt>
      <trkpt lat="45.42805" lon="5.91416">
        <ele>1726.346041656</ele>
        <time>2015-06-11T09:29:54Z</time>
      </trkpt>
      <trkpt lat="45.42806" lon="5.91413">
        <ele>1726.346041656</ele>
        <time>2015-06-11T09:29:59Z</time>
      </trkpt>
      <trkpt lat="45.42805" lon="5.91413">
        <ele>1726.346041656</ele>
        <time>2015-06-11T09:30:04Z</time>
      </trkpt>
      <trkpt lat="45.42802" lon="5.9142">
        <ele>1722.737193858</ele>
        <time>2015-06-11T09:30:09Z</time>
      </trkpt>
      <trkpt lat="45.42798" lon="5.91423">
        <ele>1722.737193858</ele>
        <time>2015-06-11T09:30:14Z</time>
      </trkpt>
      <trkpt lat="45.42795" lon="5.91435">
        <ele>1719.518613858</ele>
        <time>2015-06-11T09:30:19Z</time>
      </trkpt>
      <trkpt lat="45.42795" lon="5.91432">
        <ele>1719.518613858</ele>
        <time>2015-06-11T09:30:24Z</time>
      </trkpt>
      <trkpt lat="45.42795" lon="5.91434">
        <ele>1719.518613858</ele>
        <time>2015-06-11T09:30:29Z</time>
      </trkpt>
      <trkpt lat="45.42789" lon="5.9144">
        <ele>1716.666585852</ele>
        <time>2015-06-11T09:30:34Z</time>
      </trkpt>
      <trkpt lat="45.42785" lon="5.91439">
        <ele>1716.666585852</ele>
        <time>2015-06-11T09:30:39Z</time>
      </trkpt>
      <trkpt lat="45.42786" lon="5.91432">
        <ele>1713.005136164</ele>
        <time>2015-06-11T09:30:44Z</time>
      </trkpt>
      <trkpt lat="45.42785" lon="5.9143">
        <ele>1713.005136164</ele>
        <time>2015-06-11T09:30:49Z</time>
      </trkpt>
      <trkpt lat="45.42787" lon="5.91428">
        <ele>1713.005136164</ele>
        <time>2015-06-11T09:30:54Z</time>
      </trkpt>
      <trkpt lat="45.42787" lon="5.91429">
        <ele>1713.005136164</ele>
        <time>2015-06-11T09:30:59Z</time>
      </trkpt>
      <trkpt lat="45.42777" lon="5.91432">
        <ele>1709.464412653</ele>
        <time>2015-06-11T09:31:04Z</time>
      </trkpt>
      <trkpt lat="45.42771" lon="5.91432">
        <ele>1709.464412653</ele>
        <time>2015-06-11T09:31:09Z</time>
      </trkpt>
      <trkpt lat="45.42766" lon="5.9143">
        <ele>1706.04112917</ele>
        <time>2015-06-11T09:31:14Z</time>
      </trkpt>
      <trkpt lat="45.42761" lon="5.91435">
        <ele>1706.04112917</ele>
        <time>2015-06-11T09:31:19Z</time>
      </trkpt>
      <trkpt lat="45.42756" lon="5.91432">
        <ele>1703.164137543</ele>
        <time>2015-06-11T09:31:23Z</time>
      </trkpt>
      <trkpt lat="45.42748" lon="5.91434">
        <ele>1703.164137543</ele>
        <time>2015-06-11T09:31:29Z</time>
      </trkpt>
      <trkpt lat="45.42744" lon="5.91435">
        <ele>1700.940918969</ele>
        <time>2015-06-11T09:31:34Z</time>
      </trkpt>
      <trkpt lat="45.42737" lon="5.91439">
        <ele>1700.940918969</ele>
        <time>2015-06-11T09:31:39Z</time>
      </trkpt>
      <trkpt lat="45.42732" lon="5.91442">
        <ele>1698.892666188</ele>
        <time>2015-06-11T09:31:44Z</time>
      </trkpt>
      <trkpt lat="45.42729" lon="5.91445">
        <ele>1698.892666188</ele>
        <time>2015-06-11T09:31:48Z</time>
      </trkpt>
      <trkpt lat="45.42726" lon="5.9144">
        <ele>1698.892666188</ele>
        <time>2015-06-11T09:31:54Z</time>
      </trkpt>
      <trkpt lat="45.42728" lon="5.91429">
        <ele>1695.566360977</ele>
        <time>2015-06-11T09:31:59Z</time>
      </trkpt>
      <trkpt lat="45.42728" lon="5.9143">
        <ele>1695.566360977</ele>
        <time>2015-06-11T09:32:04Z</time>
      </trkpt>
      <trkpt lat="45.42724" lon="5.91432">
        <ele>1695.566360977</ele>
        <time>2015-06-11T09:32:09Z</time>
      </trkpt>
      <trkpt lat="45.42722" lon="5.91436">
        <ele>1695.566360977</ele>
        <time>2015-06-11T09:32:14Z</time>
      </trkpt>
      <trkpt lat="45.42723" lon="5.91434">
        <ele>1692.357306283</ele>
        <time>2015-06-11T09:32:19Z</time>
      </trkpt>
      <trkpt lat="45.4272" lon="5.91439">
        <ele>1692.357306283</ele>
        <time>2015-06-11T09:32:24Z</time>
      </trkpt>
      <trkpt lat="45.42722" lon="5.91444">
        <ele>1692.357306283</ele>
        <time>2015-06-11T09:32:29Z</time>
      </trkpt>
      <trkpt lat="45.4272" lon="5.9145">
        <ele>1688.107971926</ele>
        <time>2015-06-11T09:32:34Z</time>
      </trkpt>
      <trkpt lat="45.42717" lon="5.91455">
        <ele>1688.107971926</ele>
        <time>2015-06-11T09:32:37Z</time>
      </trkpt>
      <trkpt lat="45.42717" lon="5.91463">
        <ele>1683.622101</ele>
        <time>2015-06-11T09:32:44Z</time>
      </trkpt>
      <trkpt lat="45.42717" lon="5.91472">
        <ele>1683.622101</ele>
        <time>2015-06-11T09:32:49Z</time>
      </trkpt>
      <trkpt lat="45.42715" lon="5.91478">
        <ele>1679.644928267</ele>
        <time>2015-06-11T09:32:54Z</time>
      </trkpt>
      <trkpt lat="45.42714" lon="5.91484">
        <ele>1679.644928267</ele>
        <time>2015-06-11T09:32:59Z</time>
      </trkpt>
      <trkpt lat="45.42712" lon="5.91493">
        <ele>1675.712489826</ele>
        <time>2015-06-11T09:33:04Z</time>
      </trkpt>
      <trkpt lat="45.4271" lon="5.915">
        <ele>1675.712489826</ele>
        <time>2015-06-11T09:33:09Z</time>
      </trkpt>
      <trkpt lat="45.4271" lon="5.91507">
        <ele>1671.971077917</ele>
        <time>2015-06-11T09:33:14Z</time>
      </trkpt>
      <trkpt lat="45.4271" lon="5.91512">
        <ele>1671.971077917</ele>
        <time>2015-06-11T09:33:19Z</time>
      </trkpt>
      <trkpt lat="45.42711" lon="5.91515">
        <ele>1671.971077917</ele>
        <time>2015-06-11T09:33:24Z</time>
      </trkpt>
      <trkpt lat="45.42712" lon="5.91518">
        <ele>1671.971077917</ele>
        <time>2015-06-11T09:33:29Z</time>
      </trkpt>
      <trkpt lat="45.42714" lon="5.91527">
        <ele>1668.987885924</ele>
        <time>2015-06-11T09:33:34Z</time>
      </trkpt>
      <trkpt lat="45.42716" lon="5.91532">
        <ele>1668.987885924</ele>
        <time>2015-06-11T09:33:39Z</time>
      </trkpt>
      <trkpt lat="45.42714" lon="5.91536">
        <ele>1668.987885924</ele>
        <time>2015-06-11T09:33:44Z</time>
      </trkpt>
      <trkpt lat="45.42715" lon="5.91541">
        <ele>1665.845051234</ele>
        <time>2015-06-11T09:33:49Z</time>
      </trkpt>
      <trkpt lat="45.42711" lon="5.91548">
        <ele>1665.845051234</ele>
        <time>2015-06-11T09:33:53Z</time>
      </trkpt>
      <trkpt lat="45.4271" lon="5.9155">
        <ele>1665.845051234</ele>
        <time>2015-06-11T09:33:59Z</time>
      </trkpt>
      <trkpt lat="45.42708" lon="5.91555">
        <ele>1663.565880479</ele>
        <time>2015-06-11T09:34:04Z</time>
      </trkpt>
      <trkpt lat="45.42708" lon="5.91557">
        <ele>1663.565880479</ele>
        <time>2015-06-11T09:34:09Z</time>
      </trkpt>
      <trkpt lat="45.42708" lon="5.91557">
        <ele>1663.565880479</ele>
        <time>2015-06-11T09:34:13Z</time>
      </trkpt>
      <trkpt lat="45.42712" lon="5.91563">
        <ele>1663.565880479</ele>
        <time>2015-06-11T09:34:19Z</time>
      </trkpt>
      <trkpt lat="45.42716" lon="5.9157">
        <ele>1661.366607766</ele>
        <time>2015-06-11T09:34:24Z</time>
      </trkpt>
      <trkpt lat="45.42711" lon="5.91578">
        <ele>1661.366607766</ele>
        <time>2015-06-11T09:34:29Z</time>
      </trkpt>
      <trkpt lat="45.42711" lon="5.91582">
        <ele>1659.529460505</ele>
        <time>2015-06-11T09:34:34Z</time>
      </trkpt>
      <trkpt lat="45.42711" lon="5.91586">
        <ele>1659.529460505</ele>
        <time>2015-06-11T09:34:39Z</time>
      </trkpt>
      <trkpt lat="45.42706" lon="5.91588">
        <ele>1659.529460505</ele>
        <time>2015-06-11T09:34:43Z</time>
      </trkpt>
      <trkpt lat="45.42701" lon="5.91593">
        <ele>1658.026570918</ele>
        <time>2015-06-11T09:34:49Z</time>
      </trkpt>
      <trkpt lat="45.42699" lon="5.91601">
        <ele>1658.026570918</ele>
        <time>2015-06-11T09:34:54Z</time>
      </trkpt>
      <trkpt lat="45.42695" lon="5.9161">
        <ele>1656.831069551</ele>
        <time>2015-06-11T09:34:59Z</time>
      </trkpt>
      <trkpt lat="45.42699" lon="5.91616">
        <ele>1656.831069551</ele>
        <time>2015-06-11T09:35:04Z</time>
      </trkpt>
      <trkpt lat="45.42699" lon="5.9162">
        <ele>1656.831069551</ele>
        <time>2015-06-11T09:35:09Z</time>
      </trkpt>
      <trkpt lat="45.42698" lon="5.91623">
        <ele>1655.340656945</ele>
        <time>2015-06-11T09:35:14Z</time>
      </trkpt>
      <trkpt lat="45.42699" lon="5.91623">
        <ele>1655.340656945</ele>
        <time>2015-06-11T09:35:19Z</time>
      </trkpt>
      <trkpt lat="45.42695" lon="5.91627">
        <ele>1655.340656945</ele>
        <time>2015-06-11T09:35:24Z</time>
      </trkpt>
      <trkpt lat="45.42692" lon="5.91628">
        <ele>1654.006802019</ele>
        <time>2015-06-11T09:35:29Z</time>
      </trkpt>
      <trkpt lat="45.42687" lon="5.91627">
        <ele>1654.006802019</ele>
        <time>2015-06-11T09:35:33Z</time>
      </trkpt>
      <trkpt lat="45.42687" lon="5.91631">
        <ele>1654.006802019</ele>
        <time>2015-06-11T09:35:37Z</time>
      </trkpt>
      <trkpt lat="45.42688" lon="5.91633">
        <ele>1652.67085846</ele>
        <time>2015-06-11T09:35:44Z</time>
      </trkpt>
      <trkpt lat="45.42688" lon="5.9164">
        <ele>1652.67085846</ele>
        <time>2015-06-11T09:35:49Z</time>
      </trkpt>
      <trkpt lat="45.42689" lon="5.91644">
        <ele>1652.67085846</ele>
        <time>2015-06-11T09:35:54Z</time>
      </trkpt>
      <trkpt lat="45.42691" lon="5.91648">
        <ele>1651.618121274</ele>
        <time>2015-06-11T09:35:59Z</time>
      </trkpt>
      <trkpt lat="45.42689" lon="5.91651">
        <ele>1651.618121274</ele>
        <time>2015-06-11T09:36:04Z</time>
      </trkpt>
      <trkpt lat="45.42688" lon="5.91659">
        <ele>1651.618121274</ele>
        <time>2015-06-11T09:36:09Z</time>
      </trkpt>
      <trkpt lat="45.42692" lon="5.91665">
        <ele>1650.247427697</ele>
        <time>2015-06-11T09:36:14Z</time>
      </trkpt>
      <trkpt lat="45.42695" lon="5.91668">
        <ele>1650.247427697</ele>
        <time>2015-06-11T09:36:19Z</time>
      </trkpt>
      <trkpt lat="45.4269" lon="5.91676">
        <ele>1648.146752061</ele>
        <time>2015-06-11T09:36:24Z</time>
      </trkpt>
      <trkpt lat="45.42691" lon="5.91682">
        <ele>1648.146752061</ele>
        <time>2015-06-11T09:36:28Z</time>
      </trkpt>
      <trkpt lat="45.42694" lon="5.91689">
        <ele>1646.377478554</ele>
        <time>2015-06-11T09:36:33Z</time>
      </trkpt>
      <trkpt lat="45.42694" lon="5.91694">
        <ele>1646.377478554</ele>
        <time>2015-06-11T09:36:39Z</time>
      </trkpt>
      <trkpt lat="45.42693" lon="5.91696">
        <ele>1646.377478554</ele>
        <time>2015-06-11T09:36:44Z</time>
      </trkpt>
      <trkpt lat="45.42691" lon="5.91701">
        <ele>1645.057418272</ele>
        <time>2015-06-11T09:36:49Z</time>
      </trkpt>
      <trkpt lat="45.42689" lon="5.91708">
        <ele>1645.057418272</ele>
        <time>2015-06-11T09:36:54Z</time>
      </trkpt>
      <trkpt lat="45.42691" lon="5.91712">
        <ele>1645.057418272</ele>
        <time>2015-06-11T09:36:59Z</time>
      </trkpt>
      <trkpt lat="45.4269" lon="5.91712">
        <ele>1645.057418272</ele>
        <time>2015-06-11T09:37:04Z</time>
      </trkpt>
      <trkpt lat="45.42688" lon="5.91711">
        <ele>1643.718023129</ele>
        <time>2015-06-11T09:37:09Z</time>
      </trkpt>
      <trkpt lat="45.42684" lon="5.9171">
        <ele>1643.718023129</ele>
        <time>2015-06-11T09:37:14Z</time>
      </trkpt>
      <trkpt lat="45.42683" lon="5.91706">
        <ele>1643.718023129</ele>
        <time>2015-06-11T09:37:19Z</time>
      </trkpt>
      <trkpt lat="45.42682" lon="5.91705">
        <ele>1643.718023129</ele>
        <time>2015-06-11T09:37:24Z</time>
      </trkpt>
      <trkpt lat="45.42677" lon="5.91703">
        <ele>1642.789893964</ele>
        <time>2015-06-11T09:37:29Z</time>
      </trkpt>
      <trkpt lat="45.42673" lon="5.91704">
        <ele>1642.789893964</ele>
        <time>2015-06-11T09:37:33Z</time>
      </trkpt>
      <trkpt lat="45.42673" lon="5.91705">
        <ele>1642.789893964</ele>
        <time>2015-06-11T09:37:39Z</time>
      </trkpt>
      <trkpt lat="45.42673" lon="5.91705">
        <ele>1642.789893964</ele>
        <time>2015-06-11T09:37:44Z</time>
      </trkpt>
      <trkpt lat="45.42673" lon="5.91705">
        <ele>1642.789893964</ele>
        <time>2015-06-11T09:37:49Z</time>
      </trkpt>
      <trkpt lat="45.42671" lon="5.91703">
        <ele>1642.789893964</ele>
        <time>2015-06-11T09:37:54Z</time>
      </trkpt>
      <trkpt lat="45.42666" lon="5.91712">
        <ele>1641.806197158</ele>
        <time>2015-06-11T09:37:59Z</time>
      </trkpt>
      <trkpt lat="45.42664" lon="5.91713">
        <ele>1641.806197158</ele>
        <time>2015-06-11T09:38:04Z</time>
      </trkpt>
      <trkpt lat="45.42666" lon="5.91712">
        <ele>1641.806197158</ele>
        <time>2015-06-11T09:38:09Z</time>
      </trkpt>
      <trkpt lat="45.42665" lon="5.91719">
        <ele>1641.806197158</ele>
        <time>2015-06-11T09:38:14Z</time>
      </trkpt>
      <trkpt lat="45.42667" lon="5.91724">
        <ele>1640.766909731</ele>
        <time>2015-06-11T09:38:19Z</time>
      </trkpt>
      <trkpt lat="45.42668" lon="5.91723">
        <ele>1640.766909731</ele>
        <time>2015-06-11T09:38:24Z</time>
      </trkpt>
      <trkpt lat="45.42665" lon="5.91727">
        <ele>1640.766909731</ele>
        <time>2015-06-11T09:38:29Z</time>
      </trkpt>
      <trkpt lat="45.42662" lon="5.91735">
        <ele>1639.672203931</ele>
        <time>2015-06-11T09:38:34Z</time>
      </trkpt>
      <trkpt lat="45.42658" lon="5.91745">
        <ele>1639.672203931</ele>
        <time>2015-06-11T09:38:37Z</time>
      </trkpt>
      <trkpt lat="45.42656" lon="5.9175">
        <ele>1637.657772867</ele>
        <time>2015-06-11T09:38:44Z</time>
      </trkpt>
      <trkpt lat="45.42657" lon="5.91758">
        <ele>1637.657772867</ele>
        <time>2015-06-11T09:38:49Z</time>
      </trkpt>
      <trkpt lat="45.42658" lon="5.91764">
        <ele>1635.798876931</ele>
        <time>2015-06-11T09:38:54Z</time>
      </trkpt>
      <trkpt lat="45.42657" lon="5.91771">
        <ele>1635.798876931</ele>
        <time>2015-06-11T09:38:59Z</time>
      </trkpt>
      <trkpt lat="45.42657" lon="5.91779">
        <ele>1634.082627879</ele>
        <time>2015-06-11T09:39:04Z</time>
      </trkpt>
      <trkpt lat="45.42655" lon="5.91782">
        <ele>1634.082627879</ele>
        <time>2015-06-11T09:39:09Z</time>
      </trkpt>
      <trkpt lat="45.42655" lon="5.91787">
        <ele>1634.082627879</ele>
        <time>2015-06-11T09:39:14Z</time>
      </trkpt>
      <trkpt lat="45.42655" lon="5.91787">
        <ele>1634.082627879</ele>
        <time>2015-06-11T09:39:19Z</time>
      </trkpt>
      <trkpt lat="45.4265" lon="5.91796">
        <ele>1632.352628202</ele>
        <time>2015-06-11T09:39:24Z</time>
      </trkpt>
      <trkpt lat="45.42649" lon="5.91796">
        <ele>1632.352628202</ele>
        <time>2015-06-11T09:39:28Z</time>
      </trkpt>
      <trkpt lat="45.42647" lon="5.91802">
        <ele>1632.352628202</ele>
        <time>2015-06-11T09:39:33Z</time>
      </trkpt>
      <trkpt lat="45.42644" lon="5.91807">
        <ele>1630.608174805</ele>
        <time>2015-06-11T09:39:39Z</time>
      </trkpt>
      <trkpt lat="45.42643" lon="5.91808">
        <ele>1630.608174805</ele>
        <time>2015-06-11T09:39:44Z</time>
      </trkpt>
      <trkpt lat="45.42641" lon="5.91813">
        <ele>1630.608174805</ele>
        <time>2015-06-11T09:39:49Z</time>
      </trkpt>
      <trkpt lat="45.42638" lon="5.91815">
        <ele>1630.608174805</ele>
        <time>2015-06-11T09:39:54Z</time>
      </trkpt>
      <trkpt lat="45.42638" lon="5.91818">
        <ele>1628.704601886</ele>
        <time>2015-06-11T09:39:59Z</time>
      </trkpt>
      <trkpt lat="45.42637" lon="5.91823">
        <ele>1628.704601886</ele>
        <time>2015-06-11T09:40:04Z</time>
      </trkpt>
      <trkpt lat="45.42635" lon="5.91827">
        <ele>1628.704601886</ele>
        <time>2015-06-11T09:40:09Z</time>
      </trkpt>
      <trkpt lat="45.42633" lon="5.91833">
        <ele>1626.796595853</ele>
        <time>2015-06-11T09:40:13Z</time>
      </trkpt>
      <trkpt lat="45.42629" lon="5.9184">
        <ele>1626.796595853</ele>
        <time>2015-06-11T09:40:19Z</time>
      </trkpt>
      <trkpt lat="45.42628" lon="5.91843">
        <ele>1626.796595853</ele>
        <time>2015-06-11T09:40:24Z</time>
      </trkpt>
      <trkpt lat="45.42626" lon="5.91848">
        <ele>1625.315771495</ele>
        <time>2015-06-11T09:40:29Z</time>
      </trkpt>
      <trkpt lat="45.42621" lon="5.9186">
        <ele>1623.940340571</ele>
        <time>2015-06-11T09:40:34Z</time>
      </trkpt>
      <trkpt lat="45.42619" lon="5.91865">
        <ele>1623.940340571</ele>
        <time>2015-06-11T09:40:39Z</time>
      </trkpt>
      <trkpt lat="45.42613" lon="5.91873">
        <ele>1622.51602712</ele>
        <time>2015-06-11T09:40:43Z</time>
      </trkpt>
      <trkpt lat="45.42611" lon="5.91876">
        <ele>1622.51602712</ele>
        <time>2015-06-11T09:40:49Z</time>
      </trkpt>
      <trkpt lat="45.4261" lon="5.91879">
        <ele>1622.51602712</ele>
        <time>2015-06-11T09:40:53Z</time>
      </trkpt>
      <trkpt lat="45.42609" lon="5.91881">
        <ele>1622.51602712</ele>
        <time>2015-06-11T09:40:59Z</time>
      </trkpt>
      <trkpt lat="45.42611" lon="5.91889">
        <ele>1621.332419445</ele>
        <time>2015-06-11T09:41:04Z</time>
      </trkpt>
      <trkpt lat="45.42614" lon="5.919">
        <ele>1621.332419445</ele>
        <time>2015-06-11T09:41:09Z</time>
      </trkpt>
      <trkpt lat="45.42606" lon="5.91905">
        <ele>1620.224887726</ele>
        <time>2015-06-11T09:41:14Z</time>
      </trkpt>
      <trkpt lat="45.42606" lon="5.91906">
        <ele>1620.224887726</ele>
        <time>2015-06-11T09:41:19Z</time>
      </trkpt>
      <trkpt lat="45.42605" lon="5.91907">
        <ele>1620.224887726</ele>
        <time>2015-06-11T09:41:24Z</time>
      </trkpt>
      <trkpt lat="45.42603" lon="5.91908">
        <ele>1620.224887726</ele>
        <time>2015-06-11T09:41:29Z</time>
      </trkpt>
      <trkpt lat="45.42604" lon="5.91907">
        <ele>1620.224887726</ele>
        <time>2015-06-11T09:41:34Z</time>
      </trkpt>
      <trkpt lat="45.42605" lon="5.91908">
        <ele>1620.224887726</ele>
        <time>2015-06-11T09:41:37Z</time>
      </trkpt>
      <trkpt lat="45.42605" lon="5.91914">
        <ele>1619.04074905</ele>
        <time>2015-06-11T09:41:44Z</time>
      </trkpt>
      <trkpt lat="45.42603" lon="5.91922">
        <ele>1619.04074905</ele>
        <time>2015-06-11T09:41:49Z</time>
      </trkpt>
      <trkpt lat="45.42603" lon="5.91929">
        <ele>1618.215266527</ele>
        <time>2015-06-11T09:41:54Z</time>
      </trkpt>
      <trkpt lat="45.42604" lon="5.91935">
        <ele>1618.215266527</ele>
        <time>2015-06-11T09:41:59Z</time>
      </trkpt>
      <trkpt lat="45.42605" lon="5.91935">
        <ele>1618.215266527</ele>
        <time>2015-06-11T09:42:04Z</time>
      </trkpt>
      <trkpt lat="45.42605" lon="5.91936">
        <ele>1618.215266527</ele>
        <time>2015-06-11T09:42:09Z</time>
      </trkpt>
      <trkpt lat="45.42604" lon="5.91936">
        <ele>1618.215266527</ele>
        <time>2015-06-11T09:42:14Z</time>
      </trkpt>
      <trkpt lat="45.42604" lon="5.91941">
        <ele>1618.215266527</ele>
        <time>2015-06-11T09:42:19Z</time>
      </trkpt>
      <trkpt lat="45.42601" lon="5.91948">
        <ele>1616.853796037</ele>
        <time>2015-06-11T09:42:24Z</time>
      </trkpt>
      <trkpt lat="45.42602" lon="5.91949">
        <ele>1616.853796037</ele>
        <time>2015-06-11T09:42:29Z</time>
      </trkpt>
      <trkpt lat="45.42602" lon="5.91955">
        <ele>1616.853796037</ele>
        <time>2015-06-11T09:42:33Z</time>
      </trkpt>
      <trkpt lat="45.42605" lon="5.91958">
        <ele>1616.853796037</ele>
        <time>2015-06-11T09:42:39Z</time>
      </trkpt>
      <trkpt lat="45.42602" lon="5.91959">
        <ele>1615.570105097</ele>
        <time>2015-06-11T09:42:44Z</time>
      </trkpt>
      <trkpt lat="45.42604" lon="5.91963">
        <ele>1615.570105097</ele>
        <time>2015-06-11T09:42:49Z</time>
      </trkpt>
      <trkpt lat="45.42603" lon="5.91964">
        <ele>1615.570105097</ele>
        <time>2015-06-11T09:42:54Z</time>
      </trkpt>
      <trkpt lat="45.42602" lon="5.91963">
        <ele>1615.570105097</ele>
        <time>2015-06-11T09:42:59Z</time>
      </trkpt>
      <trkpt lat="45.42601" lon="5.91963">
        <ele>1615.570105097</ele>
        <time>2015-06-11T09:43:04Z</time>
      </trkpt>
      <trkpt lat="45.42598" lon="5.91969">
        <ele>1613.779844084</ele>
        <time>2015-06-11T09:43:09Z</time>
      </trkpt>
      <trkpt lat="45.42597" lon="5.91971">
        <ele>1613.779844084</ele>
        <time>2015-06-11T09:43:14Z</time>
      </trkpt>
      <trkpt lat="45.42597" lon="5.9197">
        <ele>1613.779844084</ele>
        <time>2015-06-11T09:43:19Z</time>
      </trkpt>
      <trkpt lat="45.42594" lon="5.91974">
        <ele>1613.779844084</ele>
        <time>2015-06-11T09:43:24Z</time>
      </trkpt>
      <trkpt lat="45.42587" lon="5.91984">
        <ele>1612.240088396</ele>
        <time>2015-06-11T09:43:29Z</time>
      </trkpt>
      <trkpt lat="45.42587" lon="5.91985">
        <ele>1612.240088396</ele>
        <time>2015-06-11T09:43:34Z</time>
      </trkpt>
      <trkpt lat="45.42585" lon="5.91986">
        <ele>1612.240088396</ele>
        <time>2015-06-11T09:43:39Z</time>
      </trkpt>
      <trkpt lat="45.42586" lon="5.91986">
        <ele>1612.240088396</ele>
        <time>2015-06-11T09:43:43Z</time>
      </trkpt>
      <trkpt lat="45.42586" lon="5.91992">
        <ele>1612.240088396</ele>
        <time>2015-06-11T09:43:49Z</time>
      </trkpt>
      <trkpt lat="45.42586" lon="5.91995">
        <ele>1610.787005543</ele>
        <time>2015-06-11T09:43:54Z</time>
      </trkpt>
      <trkpt lat="45.42587" lon="5.92003">
        <ele>1610.787005543</ele>
        <time>2015-06-11T09:43:59Z</time>
      </trkpt>
      <trkpt lat="45.42589" lon="5.92011">
        <ele>1609.700963534</ele>
        <time>2015-06-11T09:44:04Z</time>
      </trkpt>
      <trkpt lat="45.4259" lon="5.92019">
        <ele>1609.700963534</ele>
        <time>2015-06-11T09:44:09Z</time>
      </trkpt>
      <trkpt lat="45.42591" lon="5.92026">
        <ele>1608.808446267</ele>
        <time>2015-06-11T09:44:14Z</time>
      </trkpt>
      <trkpt lat="45.42593" lon="5.92032">
        <ele>1608.808446267</ele>
        <time>2015-06-11T09:44:19Z</time>
      </trkpt>
      <trkpt lat="45.42599" lon="5.92039">
        <ele>1608.236439684</ele>
        <time>2015-06-11T09:44:24Z</time>
      </trkpt>
      <trkpt lat="45.42601" lon="5.92046">
        <ele>1608.236439684</ele>
        <time>2015-06-11T09:44:29Z</time>
      </trkpt>
      <trkpt lat="45.42602" lon="5.92053">
        <ele>1607.957670677</ele>
        <time>2015-06-11T09:44:34Z</time>
      </trkpt>
      <trkpt lat="45.42603" lon="5.92056">
        <ele>1607.957670677</ele>
        <time>2015-06-11T09:44:37Z</time>
      </trkpt>
      <trkpt lat="45.42604" lon="5.92061">
        <ele>1607.957670677</ele>
        <time>2015-06-11T09:44:44Z</time>
      </trkpt>
      <trkpt lat="45.42607" lon="5.92065">
        <ele>1607.802020371</ele>
        <time>2015-06-11T09:44:49Z</time>
      </trkpt>
      <trkpt lat="45.42607" lon="5.92068">
        <ele>1607.802020371</ele>
        <time>2015-06-11T09:44:54Z</time>
      </trkpt>
      <trkpt lat="45.42607" lon="5.92069">
        <ele>1607.802020371</ele>
        <time>2015-06-11T09:44:59Z</time>
      </trkpt>
      <trkpt lat="45.42607" lon="5.92073">
        <ele>1607.802020371</ele>
        <time>2015-06-11T09:45:04Z</time>
      </trkpt>
      <trkpt lat="45.42609" lon="5.92078">
        <ele>1608.043946115</ele>
        <time>2015-06-11T09:45:09Z</time>
      </trkpt>
      <trkpt lat="45.42609" lon="5.92081">
        <ele>1608.043946115</ele>
        <time>2015-06-11T09:45:14Z</time>
      </trkpt>
      <trkpt lat="45.42607" lon="5.92087">
        <ele>1608.043946115</ele>
        <time>2015-06-11T09:45:19Z</time>
      </trkpt>
      <trkpt lat="45.42607" lon="5.92089">
        <ele>1608.043946115</ele>
        <time>2015-06-11T09:45:24Z</time>
      </trkpt>
      <trkpt lat="45.42608" lon="5.92096">
        <ele>1608.216171524</ele>
        <time>2015-06-11T09:45:29Z</time>
      </trkpt>
      <trkpt lat="45.4261" lon="5.92105">
        <ele>1608.216171524</ele>
        <time>2015-06-11T09:45:34Z</time>
      </trkpt>
      <trkpt lat="45.42611" lon="5.92109">
        <ele>1608.318381968</ele>
        <time>2015-06-11T09:45:39Z</time>
      </trkpt>
      <trkpt lat="45.42615" lon="5.92113">
        <ele>1608.318381968</ele>
        <time>2015-06-11T09:45:44Z</time>
      </trkpt>
      <trkpt lat="45.42618" lon="5.92117">
        <ele>1608.318381968</ele>
        <time>2015-06-11T09:45:49Z</time>
      </trkpt>
      <trkpt lat="45.4262" lon="5.92123">
        <ele>1609.215265376</ele>
        <time>2015-06-11T09:45:54Z</time>
      </trkpt>
      <trkpt lat="45.42621" lon="5.92131">
        <ele>1609.215265376</ele>
        <time>2015-06-11T09:45:59Z</time>
      </trkpt>
      <trkpt lat="45.42618" lon="5.92138">
        <ele>1609.544217895</ele>
        <time>2015-06-11T09:46:04Z</time>
      </trkpt>
      <trkpt lat="45.42619" lon="5.9214">
        <ele>1609.544217895</ele>
        <time>2015-06-11T09:46:09Z</time>
      </trkpt>
      <trkpt lat="45.42618" lon="5.92142">
        <ele>1609.544217895</ele>
        <time>2015-06-11T09:46:13Z</time>
      </trkpt>
      <trkpt lat="45.42617" lon="5.92143">
        <ele>1609.544217895</ele>
        <time>2015-06-11T09:46:19Z</time>
      </trkpt>
      <trkpt lat="45.42618" lon="5.92143">
        <ele>1609.544217895</ele>
        <time>2015-06-11T09:46:24Z</time>
      </trkpt>
      <trkpt lat="45.42617" lon="5.92146">
        <ele>1609.544217895</ele>
        <time>2015-06-11T09:46:29Z</time>
      </trkpt>
      <trkpt lat="45.42618" lon="5.92148">
        <ele>1609.544217895</ele>
        <time>2015-06-11T09:46:33Z</time>
      </trkpt>
      <trkpt lat="45.42618" lon="5.92147">
        <ele>1609.544217895</ele>
        <time>2015-06-11T09:46:39Z</time>
      </trkpt>
      <trkpt lat="45.42618" lon="5.92148">
        <ele>1609.917902745</ele>
        <time>2015-06-11T09:46:44Z</time>
      </trkpt>
      <trkpt lat="45.42618" lon="5.92148">
        <ele>1609.917902745</ele>
        <time>2015-06-11T09:46:49Z</time>
      </trkpt>
      <trkpt lat="45.42618" lon="5.92148">
        <ele>1609.917902745</ele>
        <time>2015-06-11T09:46:54Z</time>
      </trkpt>
      <trkpt lat="45.42618" lon="5.92148">
        <ele>1609.917902745</ele>
        <time>2015-06-11T09:46:59Z</time>
      </trkpt>
      <trkpt lat="45.42618" lon="5.92147">
        <ele>1609.917902745</ele>
        <time>2015-06-11T09:47:04Z</time>
      </trkpt>
      <trkpt lat="45.42618" lon="5.92147">
        <ele>1609.917902745</ele>
        <time>2015-06-11T09:47:09Z</time>
      </trkpt>
      <trkpt lat="45.42618" lon="5.92147">
        <ele>1609.917902745</ele>
        <time>2015-06-11T09:47:14Z</time>
      </trkpt>
      <trkpt lat="45.4262" lon="5.92145">
        <ele>1609.917902745</ele>
        <time>2015-06-11T09:47:19Z</time>
      </trkpt>
      <trkpt lat="45.42619" lon="5.92144">
        <ele>1609.917902745</ele>
        <time>2015-06-11T09:47:24Z</time>
      </trkpt>
      <trkpt lat="45.42618" lon="5.92145">
        <ele>1609.917902745</ele>
        <time>2015-06-11T09:47:29Z</time>
      </trkpt>
      <trkpt lat="45.42618" lon="5.92146">
        <ele>1609.917902745</ele>
        <time>2015-06-11T09:47:33Z</time>
      </trkpt>
      <trkpt lat="45.42618" lon="5.92146">
        <ele>1609.917902745</ele>
        <time>2015-06-11T09:47:38Z</time>
      </trkpt>
      <trkpt lat="45.42618" lon="5.92146">
        <ele>1609.917902745</ele>
        <time>2015-06-11T09:47:43Z</time>
      </trkpt>
      <trkpt lat="45.42618" lon="5.92146">
        <ele>1609.917902745</ele>
        <time>2015-06-11T09:47:48Z</time>
      </trkpt>
      <trkpt lat="45.42618" lon="5.92146">
        <ele>1609.917902745</ele>
        <time>2015-06-11T09:47:52Z</time>
      </trkpt>
      <trkpt lat="45.42618" lon="5.92146">
        <ele>1609.917902745</ele>
        <time>2015-06-11T09:47:59Z</time>
      </trkpt>
      <trkpt lat="45.42618" lon="5.92146">
        <ele>1609.917902745</ele>
        <time>2015-06-11T09:48:04Z</time>
      </trkpt>
      <trkpt lat="45.42618" lon="5.92146">
        <ele>1609.917902745</ele>
        <time>2015-06-11T09:48:09Z</time>
      </trkpt>
      <trkpt lat="45.42618" lon="5.92146">
        <ele>1609.917902745</ele>
        <time>2015-06-11T09:48:14Z</time>
      </trkpt>
      <trkpt lat="45.42618" lon="5.92146">
        <ele>1609.917902745</ele>
        <time>2015-06-11T09:48:19Z</time>
      </trkpt>
      <trkpt lat="45.42618" lon="5.92146">
        <ele>1609.917902745</ele>
        <time>2015-06-11T09:48:24Z</time>
      </trkpt>
      <trkpt lat="45.42618" lon="5.92146">
        <ele>1609.917902745</ele>
        <time>2015-06-11T09:48:29Z</time>
      </trkpt>
      <trkpt lat="45.42618" lon="5.92146">
        <ele>1609.917902745</ele>
        <time>2015-06-11T09:48:34Z</time>
      </trkpt>
      <trkpt lat="45.42618" lon="5.92146">
        <ele>1609.917902745</ele>
        <time>2015-06-11T09:48:39Z</time>
      </trkpt>
      <trkpt lat="45.42618" lon="5.92146">
        <ele>1609.917902745</ele>
        <time>2015-06-11T09:48:44Z</time>
      </trkpt>
      <trkpt lat="45.42618" lon="5.92146">
        <ele>1609.917902745</ele>
        <time>2015-06-11T09:48:49Z</time>
      </trkpt>
      <trkpt lat="45.42618" lon="5.92148">
        <ele>1609.917902745</ele>
        <time>2015-06-11T09:48:54Z</time>
      </trkpt>
      <trkpt lat="45.4262" lon="5.92153">
        <ele>1610.903992958</ele>
        <time>2015-06-11T09:48:59Z</time>
      </trkpt>
      <trkpt lat="45.42625" lon="5.92157">
        <ele>1610.903992958</ele>
        <time>2015-06-11T09:49:04Z</time>
      </trkpt>
      <trkpt lat="45.42627" lon="5.92159">
        <ele>1610.903992958</ele>
        <time>2015-06-11T09:49:09Z</time>
      </trkpt>
      <trkpt lat="45.42631" lon="5.92159">
        <ele>1611.729891401</ele>
        <time>2015-06-11T09:49:13Z</time>
      </trkpt>
      <trkpt lat="45.42635" lon="5.9216">
        <ele>1611.729891401</ele>
        <time>2015-06-11T09:49:19Z</time>
      </trkpt>
      <trkpt lat="45.42635" lon="5.92166">
        <ele>1612.400917026</ele>
        <time>2015-06-11T09:49:24Z</time>
      </trkpt>
      <trkpt lat="45.42638" lon="5.92166">
        <ele>1612.400917026</ele>
        <time>2015-06-11T09:49:29Z</time>
      </trkpt>
      <trkpt lat="45.42639" lon="5.92175">
        <ele>1613.066706835</ele>
        <time>2015-06-11T09:49:34Z</time>
      </trkpt>
      <trkpt lat="45.42643" lon="5.92175">
        <ele>1613.066706835</ele>
        <time>2015-06-11T09:49:39Z</time>
      </trkpt>
      <trkpt lat="45.42644" lon="5.92177">
        <ele>1613.066706835</ele>
        <time>2015-06-11T09:49:44Z</time>
      </trkpt>
      <trkpt lat="45.42643" lon="5.92182">
        <ele>1613.066706835</ele>
        <time>2015-06-11T09:49:49Z</time>
      </trkpt>
      <trkpt lat="45.42644" lon="5.92186">
        <ele>1614.586646721</ele>
        <time>2015-06-11T09:49:54Z</time>
      </trkpt>
      <trkpt lat="45.42643" lon="5.92187">
        <ele>1614.586646721</ele>
        <time>2015-06-11T09:49:58Z</time>
      </trkpt>
      <trkpt lat="45.42645" lon="5.92183">
        <ele>1614.586646721</ele>
        <time>2015-06-11T09:50:04Z</time>
      </trkpt>
      <trkpt lat="45.42641" lon="5.92185">
        <ele>1614.586646721</ele>
        <time>2015-06-11T09:50:09Z</time>
      </trkpt>
      <trkpt lat="45.42636" lon="5.92186">
        <ele>1616.457774176</ele>
        <time>2015-06-11T09:50:14Z</time>
      </trkpt>
      <trkpt lat="45.42636" lon="5.92185">
        <ele>1616.457774176</ele>
        <time>2015-06-11T09:50:19Z</time>
      </trkpt>
      <trkpt lat="45.42635" lon="5.92186">
        <ele>1616.457774176</ele>
        <time>2015-06-11T09:50:24Z</time>
      </trkpt>
      <trkpt lat="45.42633" lon="5.92187">
        <ele>1616.457774176</ele>
        <time>2015-06-11T09:50:29Z</time>
      </trkpt>
      <trkpt lat="45.42633" lon="5.92187">
        <ele>1616.457774176</ele>
        <time>2015-06-11T09:50:34Z</time>
      </trkpt>
      <trkpt lat="45.42627" lon="5.9219">
        <ele>1618.501498185</ele>
        <time>2015-06-11T09:50:39Z</time>
      </trkpt>
      <trkpt lat="45.4263" lon="5.92192">
        <ele>1618.501498185</ele>
        <time>2015-06-11T09:50:44Z</time>
      </trkpt>
      <trkpt lat="45.4263" lon="5.92196">
        <ele>1618.501498185</ele>
        <time>2015-06-11T09:50:48Z</time>
      </trkpt>
      <trkpt lat="45.42627" lon="5.92197">
        <ele>1621.128505645</ele>
        <time>2015-06-11T09:50:52Z</time>
      </trkpt>
      <trkpt lat="45.42624" lon="5.92202">
        <ele>1621.128505645</ele>
        <time>2015-06-11T09:50:57Z</time>
      </trkpt>
      <trkpt lat="45.42622" lon="5.92205">
        <ele>1621.128505645</ele>
        <time>2015-06-11T09:51:03Z</time>
      </trkpt>
      <trkpt lat="45.42622" lon="5.92205">
        <ele>1621.128505645</ele>
        <time>2015-06-11T09:51:09Z</time>
      </trkpt>
      <trkpt lat="45.42621" lon="5.92205">
        <ele>1621.128505645</ele>
        <time>2015-06-11T09:51:14Z</time>
      </trkpt>
      <trkpt lat="45.42621" lon="5.92205">
        <ele>1621.128505645</ele>
        <time>2015-06-11T09:51:19Z</time>
      </trkpt>
      <trkpt lat="45.42621" lon="5.92205">
        <ele>1621.128505645</ele>
        <time>2015-06-11T09:51:24Z</time>
      </trkpt>
      <trkpt lat="45.42621" lon="5.92206">
        <ele>1624.573779607</ele>
        <time>2015-06-11T09:51:29Z</time>
      </trkpt>
      <trkpt lat="45.42619" lon="5.92211">
        <ele>1624.573779607</ele>
        <time>2015-06-11T09:51:34Z</time>
      </trkpt>
      <trkpt lat="45.42616" lon="5.92212">
        <ele>1624.573779607</ele>
        <time>2015-06-11T09:51:39Z</time>
      </trkpt>
      <trkpt lat="45.42613" lon="5.92215">
        <ele>1627.611861556</ele>
        <time>2015-06-11T09:51:44Z</time>
      </trkpt>
      <trkpt lat="45.42614" lon="5.92221">
        <ele>1627.611861556</ele>
        <time>2015-06-11T09:51:49Z</time>
      </trkpt>
      <trkpt lat="45.42611" lon="5.92224">
        <ele>1627.611861556</ele>
        <time>2015-06-11T09:51:53Z</time>
      </trkpt>
      <trkpt lat="45.42612" lon="5.92225">
        <ele>1627.611861556</ele>
        <time>2015-06-11T09:51:57Z</time>
      </trkpt>
      <trkpt lat="45.42612" lon="5.92224">
        <ele>1627.611861556</ele>
        <time>2015-06-11T09:52:02Z</time>
      </trkpt>
      <trkpt lat="45.42612" lon="5.92225">
        <ele>1627.611861556</ele>
        <time>2015-06-11T09:52:07Z</time>
      </trkpt>
      <trkpt lat="45.42612" lon="5.92225">
        <ele>1627.611861556</ele>
        <time>2015-06-11T09:52:12Z</time>
      </trkpt>
      <trkpt lat="45.42614" lon="5.92228">
        <ele>1630.838033934</ele>
        <time>2015-06-11T09:52:17Z</time>
      </trkpt>
      <trkpt lat="45.42609" lon="5.92227">
        <ele>1630.838033934</ele>
        <time>2015-06-11T09:52:22Z</time>
      </trkpt>
      <trkpt lat="45.4261" lon="5.92226">
        <ele>1630.838033934</ele>
        <time>2015-06-11T09:52:28Z</time>
      </trkpt>
      <trkpt lat="45.4261" lon="5.92227">
        <ele>1630.838033934</ele>
        <time>2015-06-11T09:52:33Z</time>
      </trkpt>
      <trkpt lat="45.42608" lon="5.92226">
        <ele>1633.650691394</ele>
        <time>2015-06-11T09:52:38Z</time>
      </trkpt>
      <trkpt lat="45.42603" lon="5.92229">
        <ele>1633.650691394</ele>
        <time>2015-06-11T09:52:43Z</time>
      </trkpt>
      <trkpt lat="45.42599" lon="5.92234">
        <ele>1635.926186328</ele>
        <time>2015-06-11T09:52:48Z</time>
      </trkpt>
      <trkpt lat="45.42597" lon="5.92237">
        <ele>1635.926186328</ele>
        <time>2015-06-11T09:52:53Z</time>
      </trkpt>
      <trkpt lat="45.42593" lon="5.92239">
        <ele>1635.926186328</ele>
        <time>2015-06-11T09:52:58Z</time>
      </trkpt>
      <trkpt lat="45.42588" lon="5.92246">
        <ele>1639.136965037</ele>
        <time>2015-06-11T09:53:03Z</time>
      </trkpt>
      <trkpt lat="45.42585" lon="5.92249">
        <ele>1639.136965037</ele>
        <time>2015-06-11T09:53:07Z</time>
      </trkpt>
      <trkpt lat="45.42586" lon="5.92249">
        <ele>1639.136965037</ele>
        <time>2015-06-11T09:53:12Z</time>
      </trkpt>
      <trkpt lat="45.42588" lon="5.92248">
        <ele>1639.136965037</ele>
        <time>2015-06-11T09:53:17Z</time>
      </trkpt>
      <trkpt lat="45.42589" lon="5.9225">
        <ele>1639.136965037</ele>
        <time>2015-06-11T09:53:22Z</time>
      </trkpt>
      <trkpt lat="45.42587" lon="5.92252">
        <ele>1641.762750185</ele>
        <time>2015-06-11T09:53:27Z</time>
      </trkpt>
      <trkpt lat="45.42584" lon="5.92249">
        <ele>1641.762750185</ele>
        <time>2015-06-11T09:53:32Z</time>
      </trkpt>
      <trkpt lat="45.42584" lon="5.92252">
        <ele>1641.762750185</ele>
        <time>2015-06-11T09:53:37Z</time>
      </trkpt>
      <trkpt lat="45.42582" lon="5.92255">
        <ele>1641.762750185</ele>
        <time>2015-06-11T09:53:42Z</time>
      </trkpt>
      <trkpt lat="45.42584" lon="5.92252">
        <ele>1644.846768747</ele>
        <time>2015-06-11T09:53:47Z</time>
      </trkpt>
      <trkpt lat="45.42582" lon="5.92254">
        <ele>1644.846768747</ele>
        <time>2015-06-11T09:53:53Z</time>
      </trkpt>
      <trkpt lat="45.42582" lon="5.92263">
        <ele>1644.846768747</ele>
        <time>2015-06-11T09:53:58Z</time>
      </trkpt>
      <trkpt lat="45.42587" lon="5.92264">
        <ele>1648.201738667</ele>
        <time>2015-06-11T09:54:03Z</time>
      </trkpt>
      <trkpt lat="45.42589" lon="5.92267">
        <ele>1648.201738667</ele>
        <time>2015-06-11T09:54:08Z</time>
      </trkpt>
      <trkpt lat="45.42594" lon="5.92273">
        <ele>1651.653682156</ele>
        <time>2015-06-11T09:54:13Z</time>
      </trkpt>
      <trkpt lat="45.42591" lon="5.9228">
        <ele>1651.653682156</ele>
        <time>2015-06-11T09:54:18Z</time>
      </trkpt>
      <trkpt lat="45.4259" lon="5.92282">
        <ele>1651.653682156</ele>
        <time>2015-06-11T09:54:23Z</time>
      </trkpt>
      <trkpt lat="45.42588" lon="5.92288">
        <ele>1655.041441842</ele>
        <time>2015-06-11T09:54:28Z</time>
      </trkpt>
      <trkpt lat="45.42586" lon="5.92295">
        <ele>1655.041441842</ele>
        <time>2015-06-11T09:54:33Z</time>
      </trkpt>
      <trkpt lat="45.42582" lon="5.92298">
        <ele>1657.927973215</ele>
        <time>2015-06-11T09:54:38Z</time>
      </trkpt>
      <trkpt lat="45.42578" lon="5.92303">
        <ele>1657.927973215</ele>
        <time>2015-06-11T09:54:43Z</time>
      </trkpt>
      <trkpt lat="45.42573" lon="5.92303">
        <ele>1660.198283686</ele>
        <time>2015-06-11T09:54:48Z</time>
      </trkpt>
      <trkpt lat="45.42571" lon="5.92305">
        <ele>1660.198283686</ele>
        <time>2015-06-11T09:54:53Z</time>
      </trkpt>
      <trkpt lat="45.42566" lon="5.92308">
        <ele>1660.198283686</ele>
        <time>2015-06-11T09:54:58Z</time>
      </trkpt>
      <trkpt lat="45.42564" lon="5.92319">
        <ele>1661.891984157</ele>
        <time>2015-06-11T09:55:03Z</time>
      </trkpt>
      <trkpt lat="45.42562" lon="5.92324">
        <ele>1661.891984157</ele>
        <time>2015-06-11T09:55:08Z</time>
      </trkpt>
      <trkpt lat="45.42558" lon="5.92327">
        <ele>1661.891984157</ele>
        <time>2015-06-11T09:55:14Z</time>
      </trkpt>
      <trkpt lat="45.42554" lon="5.92333">
        <ele>1663.480036925</ele>
        <time>2015-06-11T09:55:18Z</time>
      </trkpt>
      <trkpt lat="45.42551" lon="5.92339">
        <ele>1663.480036925</ele>
        <time>2015-06-11T09:55:23Z</time>
      </trkpt>
      <trkpt lat="45.42546" lon="5.92344">
        <ele>1664.534736334</ele>
        <time>2015-06-11T09:55:28Z</time>
      </trkpt>
      <trkpt lat="45.42543" lon="5.9235">
        <ele>1664.534736334</ele>
        <time>2015-06-11T09:55:33Z</time>
      </trkpt>
      <trkpt lat="45.42538" lon="5.92354">
        <ele>1665.958578526</ele>
        <time>2015-06-11T09:55:38Z</time>
      </trkpt>
      <trkpt lat="45.42534" lon="5.92359">
        <ele>1665.958578526</ele>
        <time>2015-06-11T09:55:43Z</time>
      </trkpt>
      <trkpt lat="45.42534" lon="5.92362">
        <ele>1665.958578526</ele>
        <time>2015-06-11T09:55:48Z</time>
      </trkpt>
      <trkpt lat="45.42532" lon="5.92363">
        <ele>1668.010555098</ele>
        <time>2015-06-11T09:55:53Z</time>
      </trkpt>
      <trkpt lat="45.42531" lon="5.92364">
        <ele>1668.010555098</ele>
        <time>2015-06-11T09:55:58Z</time>
      </trkpt>
      <trkpt lat="45.42528" lon="5.92366">
        <ele>1668.010555098</ele>
        <time>2015-06-11T09:56:03Z</time>
      </trkpt>
      <trkpt lat="45.42521" lon="5.92368">
        <ele>1670.208574149</ele>
        <time>2015-06-11T09:56:08Z</time>
      </trkpt>
      <trkpt lat="45.42517" lon="5.92369">
        <ele>1670.208574149</ele>
        <time>2015-06-11T09:56:13Z</time>
      </trkpt>
      <trkpt lat="45.42515" lon="5.92374">
        <ele>1670.208574149</ele>
        <time>2015-06-11T09:56:18Z</time>
      </trkpt>
      <trkpt lat="45.42513" lon="5.92379">
        <ele>1672.394019364</ele>
        <time>2015-06-11T09:56:23Z</time>
      </trkpt>
      <trkpt lat="45.4251" lon="5.92383">
        <ele>1672.394019364</ele>
        <time>2015-06-11T09:56:28Z</time>
      </trkpt>
      <trkpt lat="45.42508" lon="5.92387">
        <ele>1672.394019364</ele>
        <time>2015-06-11T09:56:33Z</time>
      </trkpt>
      <trkpt lat="45.42506" lon="5.9239">
        <ele>1674.852535374</ele>
        <time>2015-06-11T09:56:38Z</time>
      </trkpt>
      <trkpt lat="45.42506" lon="5.9239">
        <ele>1674.852535374</ele>
        <time>2015-06-11T09:56:43Z</time>
      </trkpt>
      <trkpt lat="45.42505" lon="5.9239">
        <ele>1674.852535374</ele>
        <time>2015-06-11T09:56:48Z</time>
      </trkpt>
      <trkpt lat="45.42497" lon="5.92394">
        <ele>1676.695360344</ele>
        <time>2015-06-11T09:56:53Z</time>
      </trkpt>
      <trkpt lat="45.4249" lon="5.92399">
        <ele>1676.695360344</ele>
        <time>2015-06-11T09:56:58Z</time>
      </trkpt>
      <trkpt lat="45.42483" lon="5.92402">
        <ele>1677.965637472</ele>
        <time>2015-06-11T09:57:04Z</time>
      </trkpt>
      <trkpt lat="45.42468" lon="5.9241">
        <ele>1679.281603743</ele>
        <time>2015-06-11T09:57:07Z</time>
      </trkpt>
      <trkpt lat="45.42467" lon="5.92405">
        <ele>1679.281603743</ele>
        <time>2015-06-11T09:57:13Z</time>
      </trkpt>
      <trkpt lat="45.42463" lon="5.92402">
        <ele>1679.281603743</ele>
        <time>2015-06-11T09:57:18Z</time>
      </trkpt>
      <trkpt lat="45.42458" lon="5.92403">
        <ele>1680.639707808</ele>
        <time>2015-06-11T09:57:23Z</time>
      </trkpt>
      <trkpt lat="45.42454" lon="5.92396">
        <ele>1680.639707808</ele>
        <time>2015-06-11T09:57:28Z</time>
      </trkpt>
      <trkpt lat="45.42451" lon="5.92392">
        <ele>1682.180838407</ele>
        <time>2015-06-11T09:57:33Z</time>
      </trkpt>
      <trkpt lat="45.42446" lon="5.9239">
        <ele>1682.180838407</ele>
        <time>2015-06-11T09:57:38Z</time>
      </trkpt>
      <trkpt lat="45.42439" lon="5.92389">
        <ele>1683.60286032</ele>
        <time>2015-06-11T09:57:43Z</time>
      </trkpt>
      <trkpt lat="45.42436" lon="5.92387">
        <ele>1683.60286032</ele>
        <time>2015-06-11T09:57:48Z</time>
      </trkpt>
      <trkpt lat="45.42431" lon="5.92386">
        <ele>1683.60286032</ele>
        <time>2015-06-11T09:57:53Z</time>
      </trkpt>
      <trkpt lat="45.42429" lon="5.92385">
        <ele>1684.338103416</ele>
        <time>2015-06-11T09:57:58Z</time>
      </trkpt>
      <trkpt lat="45.42427" lon="5.92393">
        <ele>1684.338103416</ele>
        <time>2015-06-11T09:58:03Z</time>
      </trkpt>
      <trkpt lat="45.42431" lon="5.92399">
        <ele>1685.447892854</ele>
        <time>2015-06-11T09:58:08Z</time>
      </trkpt>
      <trkpt lat="45.4243" lon="5.92405">
        <ele>1685.447892854</ele>
        <time>2015-06-11T09:58:13Z</time>
      </trkpt>
      <trkpt lat="45.42426" lon="5.92409">
        <ele>1686.185335447</ele>
        <time>2015-06-11T09:58:18Z</time>
      </trkpt>
      <trkpt lat="45.42426" lon="5.92411">
        <ele>1686.185335447</ele>
        <time>2015-06-11T09:58:23Z</time>
      </trkpt>
      <trkpt lat="45.42423" lon="5.92416">
        <ele>1686.185335447</ele>
        <time>2015-06-11T09:58:28Z</time>
      </trkpt>
      <trkpt lat="45.42419" lon="5.92424">
        <ele>1687.156565478</ele>
        <time>2015-06-11T09:58:33Z</time>
      </trkpt>
      <trkpt lat="45.42419" lon="5.92428">
        <ele>1687.156565478</ele>
        <time>2015-06-11T09:58:38Z</time>
      </trkpt>
      <trkpt lat="45.42419" lon="5.92429">
        <ele>1687.156565478</ele>
        <time>2015-06-11T09:58:43Z</time>
      </trkpt>
      <trkpt lat="45.4242" lon="5.92434">
        <ele>1687.156565478</ele>
        <time>2015-06-11T09:58:48Z</time>
      </trkpt>
      <trkpt lat="45.42425" lon="5.92442">
        <ele>1688.202081051</ele>
        <time>2015-06-11T09:58:53Z</time>
      </trkpt>
      <trkpt lat="45.42427" lon="5.92451">
        <ele>1688.202081051</ele>
        <time>2015-06-11T09:58:58Z</time>
      </trkpt>
      <trkpt lat="45.42429" lon="5.92458">
        <ele>1689.173977216</ele>
        <time>2015-06-11T09:59:03Z</time>
      </trkpt>
      <trkpt lat="45.42428" lon="5.92462">
        <ele>1689.173977216</ele>
        <time>2015-06-11T09:59:08Z</time>
      </trkpt>
      <trkpt lat="45.42431" lon="5.92465">
        <ele>1689.173977216</ele>
        <time>2015-06-11T09:59:13Z</time>
      </trkpt>
      <trkpt lat="45.42433" lon="5.92471">
        <ele>1690.223718888</ele>
        <time>2015-06-11T09:59:18Z</time>
      </trkpt>
      <trkpt lat="45.42432" lon="5.9247">
        <ele>1690.223718888</ele>
        <time>2015-06-11T09:59:23Z</time>
      </trkpt>
      <trkpt lat="45.42432" lon="5.9247">
        <ele>1690.223718888</ele>
        <time>2015-06-11T09:59:29Z</time>
      </trkpt>
      <trkpt lat="45.42432" lon="5.92469">
        <ele>1690.223718888</ele>
        <time>2015-06-11T09:59:33Z</time>
      </trkpt>
      <trkpt lat="45.42431" lon="5.92469">
        <ele>1690.223718888</ele>
        <time>2015-06-11T09:59:38Z</time>
      </trkpt>
      <trkpt lat="45.42434" lon="5.92473">
        <ele>1690.223718888</ele>
        <time>2015-06-11T09:59:43Z</time>
      </trkpt>
      <trkpt lat="45.42436" lon="5.92479">
        <ele>1691.203268315</ele>
        <time>2015-06-11T09:59:48Z</time>
      </trkpt>
      <trkpt lat="45.4244" lon="5.92484">
        <ele>1691.203268315</ele>
        <time>2015-06-11T09:59:53Z</time>
      </trkpt>
      <trkpt lat="45.42441" lon="5.92491">
        <ele>1692.119824334</ele>
        <time>2015-06-11T09:59:58Z</time>
      </trkpt>
      <trkpt lat="45.42437" lon="5.92491">
        <ele>1692.119824334</ele>
        <time>2015-06-11T10:00:03Z</time>
      </trkpt>
      <trkpt lat="45.42433" lon="5.92493">
        <ele>1692.119824334</ele>
        <time>2015-06-11T10:00:08Z</time>
      </trkpt>
      <trkpt lat="45.42429" lon="5.92497">
        <ele>1692.547942719</ele>
        <time>2015-06-11T10:00:13Z</time>
      </trkpt>
      <trkpt lat="45.42426" lon="5.92498">
        <ele>1692.547942719</ele>
        <time>2015-06-11T10:00:18Z</time>
      </trkpt>
      <trkpt lat="45.42423" lon="5.92498">
        <ele>1692.547942719</ele>
        <time>2015-06-11T10:00:23Z</time>
      </trkpt>
      <trkpt lat="45.42421" lon="5.92497">
        <ele>1692.547942719</ele>
        <time>2015-06-11T10:00:28Z</time>
      </trkpt>
      <trkpt lat="45.42416" lon="5.92496">
        <ele>1693.103611989</ele>
        <time>2015-06-11T10:00:33Z</time>
      </trkpt>
      <trkpt lat="45.42416" lon="5.92493">
        <ele>1693.103611989</ele>
        <time>2015-06-11T10:00:38Z</time>
      </trkpt>
      <trkpt lat="45.42416" lon="5.92492">
        <ele>1693.103611989</ele>
        <time>2015-06-11T10:00:43Z</time>
      </trkpt>
      <trkpt lat="45.42416" lon="5.92494">
        <ele>1693.103611989</ele>
        <time>2015-06-11T10:00:48Z</time>
      </trkpt>
      <trkpt lat="45.42416" lon="5.92494">
        <ele>1693.103611989</ele>
        <time>2015-06-11T10:00:53Z</time>
      </trkpt>
      <trkpt lat="45.42416" lon="5.925">
        <ele>1693.103611989</ele>
        <time>2015-06-11T10:00:58Z</time>
      </trkpt>
      <trkpt lat="45.4242" lon="5.92503">
        <ele>1694.501345431</ele>
        <time>2015-06-11T10:01:03Z</time>
      </trkpt>
      <trkpt lat="45.42421" lon="5.92505">
        <ele>1694.501345431</ele>
        <time>2015-06-11T10:01:08Z</time>
      </trkpt>
      <trkpt lat="45.4242" lon="5.92506">
        <ele>1694.501345431</ele>
        <time>2015-06-11T10:01:14Z</time>
      </trkpt>
      <trkpt lat="45.42423" lon="5.92515">
        <ele>1695.959707499</ele>
        <time>2015-06-11T10:01:18Z</time>
      </trkpt>
      <trkpt lat="45.42425" lon="5.92523">
        <ele>1695.959707499</ele>
        <time>2015-06-11T10:01:24Z</time>
      </trkpt>
      <trkpt lat="45.42427" lon="5.92532">
        <ele>1698.195615431</ele>
        <time>2015-06-11T10:01:28Z</time>
      </trkpt>
      <trkpt lat="45.42434" lon="5.92535">
        <ele>1698.195615431</ele>
        <time>2015-06-11T10:01:33Z</time>
      </trkpt>
      <trkpt lat="45.42426" lon="5.92538">
        <ele>1700.574146072</ele>
        <time>2015-06-11T10:01:38Z</time>
      </trkpt>
      <trkpt lat="45.42422" lon="5.92545">
        <ele>1700.574146072</ele>
        <time>2015-06-11T10:01:43Z</time>
      </trkpt>
      <trkpt lat="45.42417" lon="5.92549">
        <ele>1703.227180662</ele>
        <time>2015-06-11T10:01:48Z</time>
      </trkpt>
      <trkpt lat="45.42412" lon="5.9255">
        <ele>1703.227180662</ele>
        <time>2015-06-11T10:01:53Z</time>
      </trkpt>
      <trkpt lat="45.4241" lon="5.92553">
        <ele>1703.227180662</ele>
        <time>2015-06-11T10:01:59Z</time>
      </trkpt>
      <trkpt lat="45.42413" lon="5.92557">
        <ele>1705.411486265</ele>
        <time>2015-06-11T10:02:03Z</time>
      </trkpt>
      <trkpt lat="45.42413" lon="5.92561">
        <ele>1705.411486265</ele>
        <time>2015-06-11T10:02:08Z</time>
      </trkpt>
      <trkpt lat="45.42415" lon="5.92566">
        <ele>1705.411486265</ele>
        <time>2015-06-11T10:02:14Z</time>
      </trkpt>
      <trkpt lat="45.42417" lon="5.92568">
        <ele>1708.169092345</ele>
        <time>2015-06-11T10:02:18Z</time>
      </trkpt>
      <trkpt lat="45.4242" lon="5.92574">
        <ele>1708.169092345</ele>
        <time>2015-06-11T10:02:23Z</time>
      </trkpt>
      <trkpt lat="45.42418" lon="5.92578">
        <ele>1710.73456022</ele>
        <time>2015-06-11T10:02:28Z</time>
      </trkpt>
      <trkpt lat="45.42418" lon="5.92584">
        <ele>1710.73456022</ele>
        <time>2015-06-11T10:02:34Z</time>
      </trkpt>
      <trkpt lat="45.4242" lon="5.9259">
        <ele>1710.73456022</ele>
        <time>2015-06-11T10:02:38Z</time>
      </trkpt>
      <trkpt lat="45.42421" lon="5.92596">
        <ele>1713.263911733</ele>
        <time>2015-06-11T10:02:43Z</time>
      </trkpt>
      <trkpt lat="45.42422" lon="5.92602">
        <ele>1713.263911733</ele>
        <time>2015-06-11T10:02:48Z</time>
      </trkpt>
      <trkpt lat="45.42418" lon="5.92613">
        <ele>1716.045950668</ele>
        <time>2015-06-11T10:02:54Z</time>
      </trkpt>
      <trkpt lat="45.42417" lon="5.92619">
        <ele>1716.045950668</ele>
        <time>2015-06-11T10:02:58Z</time>
      </trkpt>
      <trkpt lat="45.42413" lon="5.92625">
        <ele>1718.050590563</ele>
        <time>2015-06-11T10:03:03Z</time>
      </trkpt>
      <trkpt lat="45.42408" lon="5.92625">
        <ele>1718.050590563</ele>
        <time>2015-06-11T10:03:07Z</time>
      </trkpt>
      <trkpt lat="45.42404" lon="5.92628">
        <ele>1720.199077705</ele>
        <time>2015-06-11T10:03:14Z</time>
      </trkpt>
      <trkpt lat="45.42402" lon="5.92629">
        <ele>1720.199077705</ele>
        <time>2015-06-11T10:03:17Z</time>
      </trkpt>
      <trkpt lat="45.42398" lon="5.92631">
        <ele>1720.199077705</ele>
        <time>2015-06-11T10:03:22Z</time>
      </trkpt>
      <trkpt lat="45.42395" lon="5.92641">
        <ele>1722.04761829</ele>
        <time>2015-06-11T10:03:29Z</time>
      </trkpt>
      <trkpt lat="45.42399" lon="5.92642">
        <ele>1722.04761829</ele>
        <time>2015-06-11T10:03:34Z</time>
      </trkpt>
      <trkpt lat="45.42399" lon="5.92645">
        <ele>1722.04761829</ele>
        <time>2015-06-11T10:03:39Z</time>
      </trkpt>
      <trkpt lat="45.42405" lon="5.92647">
        <ele>1724.338788484</ele>
        <time>2015-06-11T10:03:44Z</time>
      </trkpt>
      <trkpt lat="45.42403" lon="5.92653">
        <ele>1724.338788484</ele>
        <time>2015-06-11T10:03:49Z</time>
      </trkpt>
      <trkpt lat="45.42398" lon="5.92658">
        <ele>1726.462410399</ele>
        <time>2015-06-11T10:03:54Z</time>
      </trkpt>
      <trkpt lat="45.42396" lon="5.92666">
        <ele>1726.462410399</ele>
        <time>2015-06-11T10:03:59Z</time>
      </trkpt>
      <trkpt lat="45.42391" lon="5.92667">
        <ele>1727.997746233</ele>
        <time>2015-06-11T10:04:04Z</time>
      </trkpt>
      <trkpt lat="45.4239" lon="5.92672">
        <ele>1727.997746233</ele>
        <time>2015-06-11T10:04:09Z</time>
      </trkpt>
      <trkpt lat="45.42386" lon="5.92676">
        <ele>1727.997746233</ele>
        <time>2015-06-11T10:04:14Z</time>
      </trkpt>
      <trkpt lat="45.42393" lon="5.9268">
        <ele>1729.853649882</ele>
        <time>2015-06-11T10:04:19Z</time>
      </trkpt>
      <trkpt lat="45.42386" lon="5.92682">
        <ele>1729.853649882</ele>
        <time>2015-06-11T10:04:24Z</time>
      </trkpt>
      <trkpt lat="45.42382" lon="5.9269">
        <ele>1732.294899837</ele>
        <time>2015-06-11T10:04:29Z</time>
      </trkpt>
      <trkpt lat="45.4238" lon="5.92693">
        <ele>1732.294899837</ele>
        <time>2015-06-11T10:04:34Z</time>
      </trkpt>
      <trkpt lat="45.42378" lon="5.92697">
        <ele>1732.294899837</ele>
        <time>2015-06-11T10:04:39Z</time>
      </trkpt>
      <trkpt lat="45.42383" lon="5.92702">
        <ele>1733.979989066</ele>
        <time>2015-06-11T10:04:44Z</time>
      </trkpt>
      <trkpt lat="45.42387" lon="5.92708">
        <ele>1733.979989066</ele>
        <time>2015-06-11T10:04:49Z</time>
      </trkpt>
      <trkpt lat="45.42387" lon="5.92714">
        <ele>1735.397439048</ele>
        <time>2015-06-11T10:04:53Z</time>
      </trkpt>
      <trkpt lat="45.42386" lon="5.92728">
        <ele>1737.000659751</ele>
        <time>2015-06-11T10:04:59Z</time>
      </trkpt>
      <trkpt lat="45.42373" lon="5.92737">
        <ele>1738.20047446</ele>
        <time>2015-06-11T10:05:04Z</time>
      </trkpt>
      <trkpt lat="45.4237" lon="5.92743">
        <ele>1738.20047446</ele>
        <time>2015-06-11T10:05:09Z</time>
      </trkpt>
      <trkpt lat="45.42371" lon="5.92743">
        <ele>1738.20047446</ele>
        <time>2015-06-11T10:05:14Z</time>
      </trkpt>
      <trkpt lat="45.4237" lon="5.92747">
        <ele>1740.469690964</ele>
        <time>2015-06-11T10:05:19Z</time>
      </trkpt>
      <trkpt lat="45.42363" lon="5.92753">
        <ele>1740.469690964</ele>
        <time>2015-06-11T10:05:24Z</time>
      </trkpt>
      <trkpt lat="45.42359" lon="5.92755">
        <ele>1742.287714224</ele>
        <time>2015-06-11T10:05:29Z</time>
      </trkpt>
      <trkpt lat="45.42358" lon="5.92758">
        <ele>1742.287714224</ele>
        <time>2015-06-11T10:05:34Z</time>
      </trkpt>
      <trkpt lat="45.42352" lon="5.92759">
        <ele>1742.287714224</ele>
        <time>2015-06-11T10:05:39Z</time>
      </trkpt>
      <trkpt lat="45.4235" lon="5.92768">
        <ele>1743.543926006</ele>
        <time>2015-06-11T10:05:44Z</time>
      </trkpt>
      <trkpt lat="45.42347" lon="5.92777">
        <ele>1743.543926006</ele>
        <time>2015-06-11T10:05:49Z</time>
      </trkpt>
      <trkpt lat="45.4234" lon="5.9278">
        <ele>1744.71385977</ele>
        <time>2015-06-11T10:05:53Z</time>
      </trkpt>
      <trkpt lat="45.42343" lon="5.92783">
        <ele>1744.71385977</ele>
        <time>2015-06-11T10:05:59Z</time>
      </trkpt>
      <trkpt lat="45.42346" lon="5.92789">
        <ele>1745.950137422</ele>
        <time>2015-06-11T10:06:04Z</time>
      </trkpt>
      <trkpt lat="45.42345" lon="5.92795">
        <ele>1745.950137422</ele>
        <time>2015-06-11T10:06:09Z</time>
      </trkpt>
      <trkpt lat="45.42346" lon="5.92803">
        <ele>1747.24986793</ele>
        <time>2015-06-11T10:06:14Z</time>
      </trkpt>
      <trkpt lat="45.42351" lon="5.92808">
        <ele>1747.24986793</ele>
        <time>2015-06-11T10:06:19Z</time>
      </trkpt>
      <trkpt lat="45.42353" lon="5.92813">
        <ele>1748.033739333</ele>
        <time>2015-06-11T10:06:24Z</time>
      </trkpt>
      <trkpt lat="45.42349" lon="5.9282">
        <ele>1748.033739333</ele>
        <time>2015-06-11T10:06:27Z</time>
      </trkpt>
      <trkpt lat="45.42349" lon="5.92828">
        <ele>1748.919315087</ele>
        <time>2015-06-11T10:06:34Z</time>
      </trkpt>
      <trkpt lat="45.42352" lon="5.92831">
        <ele>1748.919315087</ele>
        <time>2015-06-11T10:06:39Z</time>
      </trkpt>
      <trkpt lat="45.42352" lon="5.92838">
        <ele>1748.919315087</ele>
        <time>2015-06-11T10:06:44Z</time>
      </trkpt>
      <trkpt lat="45.42352" lon="5.92844">
        <ele>1749.46970527</ele>
        <time>2015-06-11T10:06:49Z</time>
      </trkpt>
      <trkpt lat="45.42355" lon="5.92847">
        <ele>1749.46970527</ele>
        <time>2015-06-11T10:06:54Z</time>
      </trkpt>
      <trkpt lat="45.42351" lon="5.92853">
        <ele>1750.433912267</ele>
        <time>2015-06-11T10:06:59Z</time>
      </trkpt>
      <trkpt lat="45.42353" lon="5.92858">
        <ele>1750.433912267</ele>
        <time>2015-06-11T10:07:04Z</time>
      </trkpt>
      <trkpt lat="45.42346" lon="5.92865">
        <ele>1751.351828953</ele>
        <time>2015-06-11T10:07:09Z</time>
      </trkpt>
      <trkpt lat="45.42341" lon="5.92871">
        <ele>1751.351828953</ele>
        <time>2015-06-11T10:07:14Z</time>
      </trkpt>
      <trkpt lat="45.42339" lon="5.92876">
        <ele>1751.653120879</ele>
        <time>2015-06-11T10:07:19Z</time>
      </trkpt>
      <trkpt lat="45.42334" lon="5.92883">
        <ele>1751.653120879</ele>
        <time>2015-06-11T10:07:23Z</time>
      </trkpt>
      <trkpt lat="45.42331" lon="5.92885">
        <ele>1751.96391692</ele>
        <time>2015-06-11T10:07:27Z</time>
      </trkpt>
      <trkpt lat="45.42327" lon="5.92889">
        <ele>1751.96391692</ele>
        <time>2015-06-11T10:07:34Z</time>
      </trkpt>
      <trkpt lat="45.42327" lon="5.92895">
        <ele>1751.96391692</ele>
        <time>2015-06-11T10:07:39Z</time>
      </trkpt>
      <trkpt lat="45.42327" lon="5.92901">
        <ele>1752.720154444</ele>
        <time>2015-06-11T10:07:44Z</time>
      </trkpt>
      <trkpt lat="45.42329" lon="5.9291">
        <ele>1752.720154444</ele>
        <time>2015-06-11T10:07:49Z</time>
      </trkpt>
      <trkpt lat="45.42328" lon="5.92916">
        <ele>1753.45976551</ele>
        <time>2015-06-11T10:07:54Z</time>
      </trkpt>
      <trkpt lat="45.42327" lon="5.92924">
        <ele>1753.45976551</ele>
        <time>2015-06-11T10:07:59Z</time>
      </trkpt>
      <trkpt lat="45.42323" lon="5.92931">
        <ele>1754.04282346</ele>
        <time>2015-06-11T10:08:03Z</time>
      </trkpt>
      <trkpt lat="45.42322" lon="5.92938">
        <ele>1754.04282346</ele>
        <time>2015-06-11T10:08:07Z</time>
      </trkpt>
      <trkpt lat="45.42317" lon="5.92948">
        <ele>1754.484155148</ele>
        <time>2015-06-11T10:08:14Z</time>
      </trkpt>
      <trkpt lat="45.42315" lon="5.9295">
        <ele>1754.484155148</ele>
        <time>2015-06-11T10:08:18Z</time>
      </trkpt>
      <trkpt lat="45.42316" lon="5.92952">
        <ele>1754.484155148</ele>
        <time>2015-06-11T10:08:22Z</time>
      </trkpt>
      <trkpt lat="45.42317" lon="5.92951">
        <ele>1754.484155148</ele>
        <time>2015-06-11T10:08:27Z</time>
      </trkpt>
      <trkpt lat="45.42318" lon="5.92951">
        <ele>1754.484155148</ele>
        <time>2015-06-11T10:08:34Z</time>
      </trkpt>
      <trkpt lat="45.42318" lon="5.9295">
        <ele>1754.484155148</ele>
        <time>2015-06-11T10:08:37Z</time>
      </trkpt>
      <trkpt lat="45.42317" lon="5.92951">
        <ele>1754.484155148</ele>
        <time>2015-06-11T10:08:42Z</time>
      </trkpt>
      <trkpt lat="45.42316" lon="5.92952">
        <ele>1754.221370005</ele>
        <time>2015-06-11T10:08:47Z</time>
      </trkpt>
      <trkpt lat="45.42314" lon="5.92951">
        <ele>1754.221370005</ele>
        <time>2015-06-11T10:08:53Z</time>
      </trkpt>
      <trkpt lat="45.42312" lon="5.92956">
        <ele>1754.221370005</ele>
        <time>2015-06-11T10:08:59Z</time>
      </trkpt>
      <trkpt lat="45.42316" lon="5.92951">
        <ele>1755.329281495</ele>
        <time>2015-06-11T10:09:03Z</time>
      </trkpt>
      <trkpt lat="45.42321" lon="5.92943">
        <ele>1755.329281495</ele>
        <time>2015-06-11T10:09:09Z</time>
      </trkpt>
      <trkpt lat="45.42326" lon="5.92949">
        <ele>1756.411797841</ele>
        <time>2015-06-11T10:09:14Z</time>
      </trkpt>
      <trkpt lat="45.42332" lon="5.9295">
        <ele>1756.411797841</ele>
        <time>2015-06-11T10:09:19Z</time>
      </trkpt>
      <trkpt lat="45.42334" lon="5.92955">
        <ele>1757.040030376</ele>
        <time>2015-06-11T10:09:23Z</time>
      </trkpt>
      <trkpt lat="45.42339" lon="5.92957">
        <ele>1757.040030376</ele>
        <time>2015-06-11T10:09:28Z</time>
      </trkpt>
      <trkpt lat="45.42341" lon="5.9296">
        <ele>1757.040030376</ele>
        <time>2015-06-11T10:09:32Z</time>
      </trkpt>
      <trkpt lat="45.42346" lon="5.92963">
        <ele>1758.547114054</ele>
        <time>2015-06-11T10:09:39Z</time>
      </trkpt>
      <trkpt lat="45.42349" lon="5.92964">
        <ele>1758.547114054</ele>
        <time>2015-06-11T10:09:44Z</time>
      </trkpt>
      <trkpt lat="45.4235" lon="5.92966">
        <ele>1758.547114054</ele>
        <time>2015-06-11T10:09:49Z</time>
      </trkpt>
      <trkpt lat="45.4235" lon="5.92967">
        <ele>1758.547114054</ele>
        <time>2015-06-11T10:09:52Z</time>
      </trkpt>
      <trkpt lat="45.4235" lon="5.92967">
        <ele>1758.547114054</ele>
        <time>2015-06-11T10:09:57Z</time>
      </trkpt>
      <trkpt lat="45.4235" lon="5.92968">
        <ele>1758.547114054</ele>
        <time>2015-06-11T10:10:02Z</time>
      </trkpt>
      <trkpt lat="45.42348" lon="5.92968">
        <ele>1758.547114054</ele>
        <time>2015-06-11T10:10:07Z</time>
      </trkpt>
      <trkpt lat="45.4235" lon="5.92966">
        <ele>1758.851140294</ele>
        <time>2015-06-11T10:10:13Z</time>
      </trkpt>
      <trkpt lat="45.42349" lon="5.92973">
        <ele>1758.851140294</ele>
        <time>2015-06-11T10:10:19Z</time>
      </trkpt>
      <trkpt lat="45.4235" lon="5.92977">
        <ele>1758.851140294</ele>
        <time>2015-06-11T10:10:24Z</time>
      </trkpt>
      <trkpt lat="45.42349" lon="5.92986">
        <ele>1759.917424287</ele>
        <time>2015-06-11T10:10:29Z</time>
      </trkpt>
      <trkpt lat="45.42348" lon="5.92989">
        <ele>1759.917424287</ele>
        <time>2015-06-11T10:10:34Z</time>
      </trkpt>
      <trkpt lat="45.42347" lon="5.9299">
        <ele>1759.917424287</ele>
        <time>2015-06-11T10:10:39Z</time>
      </trkpt>
      <trkpt lat="45.42347" lon="5.9299">
        <ele>1759.917424287</ele>
        <time>2015-06-11T10:10:43Z</time>
      </trkpt>
      <trkpt lat="45.42347" lon="5.9299">
        <ele>1759.917424287</ele>
        <time>2015-06-11T10:10:49Z</time>
      </trkpt>
      <trkpt lat="45.42347" lon="5.9299">
        <ele>1759.917424287</ele>
        <time>2015-06-11T10:10:54Z</time>
      </trkpt>
      <trkpt lat="45.42347" lon="5.9299">
        <ele>1759.917424287</ele>
        <time>2015-06-11T10:10:59Z</time>
      </trkpt>
      <trkpt lat="45.42345" lon="5.9299">
        <ele>1759.917424287</ele>
        <time>2015-06-11T10:11:04Z</time>
      </trkpt>
      <trkpt lat="45.42346" lon="5.92991">
        <ele>1759.917424287</ele>
        <time>2015-06-11T10:11:08Z</time>
      </trkpt>
      <trkpt lat="45.42346" lon="5.92992">
        <ele>1759.917424287</ele>
        <time>2015-06-11T10:11:14Z</time>
      </trkpt>
      <trkpt lat="45.42346" lon="5.92992">
        <ele>1759.917424287</ele>
        <time>2015-06-11T10:11:19Z</time>
      </trkpt>
      <trkpt lat="45.42346" lon="5.92992">
        <ele>1759.917424287</ele>
        <time>2015-06-11T10:11:24Z</time>
      </trkpt>
      <trkpt lat="45.42346" lon="5.92992">
        <ele>1759.917424287</ele>
        <time>2015-06-11T10:11:28Z</time>
      </trkpt>
      <trkpt lat="45.42346" lon="5.92992">
        <ele>1759.917424287</ele>
        <time>2015-06-11T10:11:34Z</time>
      </trkpt>
      <trkpt lat="45.42346" lon="5.92992">
        <ele>1759.917424287</ele>
        <time>2015-06-11T10:11:38Z</time>
      </trkpt>
      <trkpt lat="45.42346" lon="5.92992">
        <ele>1759.917424287</ele>
        <time>2015-06-11T10:11:44Z</time>
      </trkpt>
      <trkpt lat="45.42346" lon="5.92992">
        <ele>1759.917424287</ele>
        <time>2015-06-11T10:11:49Z</time>
      </trkpt>
      <trkpt lat="45.42346" lon="5.92992">
        <ele>1759.917424287</ele>
        <time>2015-06-11T10:11:53Z</time>
      </trkpt>
      <trkpt lat="45.42346" lon="5.92992">
        <ele>1759.917424287</ele>
        <time>2015-06-11T10:11:59Z</time>
      </trkpt>
      <trkpt lat="45.42346" lon="5.92992">
        <ele>1759.917424287</ele>
        <time>2015-06-11T10:12:04Z</time>
      </trkpt>
      <trkpt lat="45.42346" lon="5.92991">
        <ele>1759.917424287</ele>
        <time>2015-06-11T10:12:09Z</time>
      </trkpt>
      <trkpt lat="45.42345" lon="5.92992">
        <ele>1761.691240953</ele>
        <time>2015-06-11T10:12:14Z</time>
      </trkpt>
      <trkpt lat="45.42344" lon="5.92993">
        <ele>1761.691240953</ele>
        <time>2015-06-11T10:12:18Z</time>
      </trkpt>
      <trkpt lat="45.42344" lon="5.92993">
        <ele>1761.691240953</ele>
        <time>2015-06-11T10:12:24Z</time>
      </trkpt>
      <trkpt lat="45.42346" lon="5.92996">
        <ele>1761.691240953</ele>
        <time>2015-06-11T10:12:28Z</time>
      </trkpt>
      <trkpt lat="45.42346" lon="5.92997">
        <ele>1761.691240953</ele>
        <time>2015-06-11T10:12:32Z</time>
      </trkpt>
      <trkpt lat="45.42352" lon="5.93004">
        <ele>1762.966928358</ele>
        <time>2015-06-11T10:12:39Z</time>
      </trkpt>
      <trkpt lat="45.42356" lon="5.93006">
        <ele>1762.966928358</ele>
        <time>2015-06-11T10:12:44Z</time>
      </trkpt>
      <trkpt lat="45.42357" lon="5.93013">
        <ele>1764.069821581</ele>
        <time>2015-06-11T10:12:49Z</time>
      </trkpt>
      <trkpt lat="45.4236" lon="5.93018">
        <ele>1764.069821581</ele>
        <time>2015-06-11T10:12:53Z</time>
      </trkpt>
      <trkpt lat="45.42361" lon="5.93019">
        <ele>1764.069821581</ele>
        <time>2015-06-11T10:12:59Z</time>
      </trkpt>
      <trkpt lat="45.42365" lon="5.93025">
        <ele>1765.157655696</ele>
        <time>2015-06-11T10:13:04Z</time>
      </trkpt>
      <trkpt lat="45.42369" lon="5.9303">
        <ele>1765.157655696</ele>
        <time>2015-06-11T10:13:09Z</time>
      </trkpt>
      <trkpt lat="45.42371" lon="5.93037">
        <ele>1765.944216308</ele>
        <time>2015-06-11T10:13:14Z</time>
      </trkpt>
      <trkpt lat="45.42376" lon="5.9304">
        <ele>1765.944216308</ele>
        <time>2015-06-11T10:13:18Z</time>
      </trkpt>
      <trkpt lat="45.4238" lon="5.93044">
        <ele>1766.885646383</ele>
        <time>2015-06-11T10:13:24Z</time>
      </trkpt>
      <trkpt lat="45.4238" lon="5.93049">
        <ele>1766.885646383</ele>
        <time>2015-06-11T10:13:29Z</time>
      </trkpt>
      <trkpt lat="45.42386" lon="5.93049">
        <ele>1767.683523263</ele>
        <time>2015-06-11T10:13:34Z</time>
      </trkpt>
      <trkpt lat="45.42389" lon="5.93055">
        <ele>1767.683523263</ele>
        <time>2015-06-11T10:13:39Z</time>
      </trkpt>
      <trkpt lat="45.4239" lon="5.93059">
        <ele>1767.683523263</ele>
        <time>2015-06-11T10:13:44Z</time>
      </trkpt>
      <trkpt lat="45.4239" lon="5.93064">
        <ele>1769.502796066</ele>
        <time>2015-06-11T10:13:49Z</time>
      </trkpt>
      <trkpt lat="45.42395" lon="5.93068">
        <ele>1769.502796066</ele>
        <time>2015-06-11T10:13:54Z</time>
      </trkpt>
      <trkpt lat="45.42397" lon="5.93072">
        <ele>1771.690577966</ele>
        <time>2015-06-11T10:13:59Z</time>
      </trkpt>
      <trkpt lat="45.42393" lon="5.9308">
        <ele>1771.690577966</ele>
        <time>2015-06-11T10:14:04Z</time>
      </trkpt>
      <trkpt lat="45.42392" lon="5.93084">
        <ele>1773.640855244</ele>
        <time>2015-06-11T10:14:09Z</time>
      </trkpt>
      <trkpt lat="45.42393" lon="5.93086">
        <ele>1773.640855244</ele>
        <time>2015-06-11T10:14:14Z</time>
      </trkpt>
      <trkpt lat="45.42392" lon="5.93091">
        <ele>1773.640855244</ele>
        <time>2015-06-11T10:14:19Z</time>
      </trkpt>
      <trkpt lat="45.42401" lon="5.93091">
        <ele>1775.945642319</ele>
        <time>2015-06-11T10:14:24Z</time>
      </trkpt>
      <trkpt lat="45.42401" lon="5.93094">
        <ele>1775.945642319</ele>
        <time>2015-06-11T10:14:28Z</time>
      </trkpt>
      <trkpt lat="45.424" lon="5.93097">
        <ele>1775.945642319</ele>
        <time>2015-06-11T10:14:34Z</time>
      </trkpt>
      <trkpt lat="45.424" lon="5.93099">
        <ele>1775.945642319</ele>
        <time>2015-06-11T10:14:38Z</time>
      </trkpt>
      <trkpt lat="45.42404" lon="5.931">
        <ele>1779.152437258</ele>
        <time>2015-06-11T10:14:44Z</time>
      </trkpt>
      <trkpt lat="45.42404" lon="5.93101">
        <ele>1779.152437258</ele>
        <time>2015-06-11T10:14:49Z</time>
      </trkpt>
      <trkpt lat="45.42407" lon="5.93105">
        <ele>1779.152437258</ele>
        <time>2015-06-11T10:14:54Z</time>
      </trkpt>
      <trkpt lat="45.42407" lon="5.93105">
        <ele>1779.152437258</ele>
        <time>2015-06-11T10:14:59Z</time>
      </trkpt>
      <trkpt lat="45.42407" lon="5.93107">
        <ele>1779.152437258</ele>
        <time>2015-06-11T10:15:04Z</time>
      </trkpt>
      <trkpt lat="45.42407" lon="5.93107">
        <ele>1779.152437258</ele>
        <time>2015-06-11T10:15:09Z</time>
      </trkpt>
      <trkpt lat="45.42408" lon="5.93107">
        <ele>1779.152437258</ele>
        <time>2015-06-11T10:15:14Z</time>
      </trkpt>
      <trkpt lat="45.42413" lon="5.9311">
        <ele>1781.74841184</ele>
        <time>2015-06-11T10:15:19Z</time>
      </trkpt>
      <trkpt lat="45.42413" lon="5.93121">
        <ele>1781.74841184</ele>
        <time>2015-06-11T10:15:24Z</time>
      </trkpt>
      <trkpt lat="45.42415" lon="5.93128">
        <ele>1785.792245385</ele>
        <time>2015-06-11T10:15:28Z</time>
      </trkpt>
      <trkpt lat="45.42419" lon="5.93131">
        <ele>1785.792245385</ele>
        <time>2015-06-11T10:15:32Z</time>
      </trkpt>
      <trkpt lat="45.42422" lon="5.93133">
        <ele>1785.792245385</ele>
        <time>2015-06-11T10:15:39Z</time>
      </trkpt>
      <trkpt lat="45.42423" lon="5.93137">
        <ele>1789.872780986</ele>
        <time>2015-06-11T10:15:44Z</time>
      </trkpt>
      <trkpt lat="45.42427" lon="5.93142">
        <ele>1789.872780986</ele>
        <time>2015-06-11T10:15:49Z</time>
      </trkpt>
      <trkpt lat="45.42429" lon="5.93148">
        <ele>1794.555898189</ele>
        <time>2015-06-11T10:15:54Z</time>
      </trkpt>
      <trkpt lat="45.4243" lon="5.93154">
        <ele>1794.555898189</ele>
        <time>2015-06-11T10:15:59Z</time>
      </trkpt>
      <trkpt lat="45.42432" lon="5.93159">
        <ele>1794.555898189</ele>
        <time>2015-06-11T10:16:04Z</time>
      </trkpt>
      <trkpt lat="45.42434" lon="5.9316">
        <ele>1799.211380233</ele>
        <time>2015-06-11T10:16:09Z</time>
      </trkpt>
      <trkpt lat="45.42435" lon="5.93163">
        <ele>1799.211380233</ele>
        <time>2015-06-11T10:16:14Z</time>
      </trkpt>
      <trkpt lat="45.42438" lon="5.93163">
        <ele>1799.211380233</ele>
        <time>2015-06-11T10:16:19Z</time>
      </trkpt>
      <trkpt lat="45.42441" lon="5.93167">
        <ele>1799.211380233</ele>
        <time>2015-06-11T10:16:23Z</time>
      </trkpt>
      <trkpt lat="45.42443" lon="5.93167">
        <ele>1803.543680229</ele>
        <time>2015-06-11T10:16:28Z</time>
      </trkpt>
      <trkpt lat="45.42446" lon="5.93176">
        <ele>1803.543680229</ele>
        <time>2015-06-11T10:16:34Z</time>
      </trkpt>
      <trkpt lat="45.42448" lon="5.93174">
        <ele>1807.279963129</ele>
        <time>2015-06-11T10:16:39Z</time>
      </trkpt>
      <trkpt lat="45.42447" lon="5.93176">
        <ele>1807.279963129</ele>
        <time>2015-06-11T10:16:42Z</time>
      </trkpt>
      <trkpt lat="45.42447" lon="5.93178">
        <ele>1807.279963129</ele>
        <time>2015-06-11T10:16:47Z</time>
      </trkpt>
      <trkpt lat="45.42447" lon="5.93179">
        <ele>1807.279963129</ele>
        <time>2015-06-11T10:16:52Z</time>
      </trkpt>
      <trkpt lat="45.42447" lon="5.93179">
        <ele>1807.279963129</ele>
        <time>2015-06-11T10:16:57Z</time>
      </trkpt>
      <trkpt lat="45.42447" lon="5.93179">
        <ele>1807.279963129</ele>
        <time>2015-06-11T10:17:02Z</time>
      </trkpt>
      <trkpt lat="45.42447" lon="5.93179">
        <ele>1807.279963129</ele>
        <time>2015-06-11T10:17:07Z</time>
      </trkpt>
      <trkpt lat="45.42447" lon="5.93179">
        <ele>1807.279963129</ele>
        <time>2015-06-11T10:17:12Z</time>
      </trkpt>
      <trkpt lat="45.42447" lon="5.93179">
        <ele>1807.279963129</ele>
        <time>2015-06-11T10:17:17Z</time>
      </trkpt>
      <trkpt lat="45.42447" lon="5.93178">
        <ele>1807.279963129</ele>
        <time>2015-06-11T10:17:22Z</time>
      </trkpt>
      <trkpt lat="45.42447" lon="5.93175">
        <ele>1807.279963129</ele>
        <time>2015-06-11T10:17:29Z</time>
      </trkpt>
      <trkpt lat="45.42458" lon="5.93172">
        <ele>1810.889775683</ele>
        <time>2015-06-11T10:17:34Z</time>
      </trkpt>
      <trkpt lat="45.4246" lon="5.93173">
        <ele>1810.889775683</ele>
        <time>2015-06-11T10:17:39Z</time>
      </trkpt>
      <trkpt lat="45.42466" lon="5.93178">
        <ele>1813.655761069</ele>
        <time>2015-06-11T10:17:44Z</time>
      </trkpt>
      <trkpt lat="45.42472" lon="5.93176">
        <ele>1813.655761069</ele>
        <time>2015-06-11T10:17:49Z</time>
      </trkpt>
      <trkpt lat="45.42479" lon="5.93174">
        <ele>1816.212757642</ele>
        <time>2015-06-11T10:17:53Z</time>
      </trkpt>
      <trkpt lat="45.42482" lon="5.93171">
        <ele>1816.212757642</ele>
        <time>2015-06-11T10:17:59Z</time>
      </trkpt>
      <trkpt lat="45.42485" lon="5.93168">
        <ele>1816.212757642</ele>
        <time>2015-06-11T10:18:03Z</time>
      </trkpt>
      <trkpt lat="45.42484" lon="5.93167">
        <ele>1816.212757642</ele>
        <time>2015-06-11T10:18:09Z</time>
      </trkpt>
      <trkpt lat="45.42484" lon="5.93172">
        <ele>1819.005578558</ele>
        <time>2015-06-11T10:18:14Z</time>
      </trkpt>
      <trkpt lat="45.42488" lon="5.93176">
        <ele>1819.005578558</ele>
        <time>2015-06-11T10:18:19Z</time>
      </trkpt>
      <trkpt lat="45.4249" lon="5.9318">
        <ele>1819.005578558</ele>
        <time>2015-06-11T10:18:24Z</time>
      </trkpt>
      <trkpt lat="45.42495" lon="5.93183">
        <ele>1822.013502126</ele>
        <time>2015-06-11T10:18:28Z</time>
      </trkpt>
      <trkpt lat="45.42496" lon="5.93186">
        <ele>1822.013502126</ele>
        <time>2015-06-11T10:18:32Z</time>
      </trkpt>
      <trkpt lat="45.42499" lon="5.93194">
        <ele>1825.505084607</ele>
        <time>2015-06-11T10:18:39Z</time>
      </trkpt>
      <trkpt lat="45.425" lon="5.932">
        <ele>1825.505084607</ele>
        <time>2015-06-11T10:18:44Z</time>
      </trkpt>
      <trkpt lat="45.42505" lon="5.93202">
        <ele>1825.505084607</ele>
        <time>2015-06-11T10:18:49Z</time>
      </trkpt>
      <trkpt lat="45.42507" lon="5.93206">
        <ele>1828.142711702</ele>
        <time>2015-06-11T10:18:54Z</time>
      </trkpt>
      <trkpt lat="45.42511" lon="5.9321">
        <ele>1828.142711702</ele>
        <time>2015-06-11T10:18:59Z</time>
      </trkpt>
      <trkpt lat="45.42514" lon="5.93214">
        <ele>1830.563007312</ele>
        <time>2015-06-11T10:19:03Z</time>
      </trkpt>
      <trkpt lat="45.42519" lon="5.93221">
        <ele>1830.563007312</ele>
        <time>2015-06-11T10:19:09Z</time>
      </trkpt>
      <trkpt lat="45.42522" lon="5.93223">
        <ele>1832.924241282</ele>
        <time>2015-06-11T10:19:14Z</time>
      </trkpt>
      <trkpt lat="45.42527" lon="5.93226">
        <ele>1832.924241282</ele>
        <time>2015-06-11T10:19:19Z</time>
      </trkpt>
      <trkpt lat="45.4253" lon="5.93223">
        <ele>1832.924241282</ele>
        <time>2015-06-11T10:19:24Z</time>
      </trkpt>
      <trkpt lat="45.42531" lon="5.93217">
        <ele>1834.07635273</ele>
        <time>2015-06-11T10:19:29Z</time>
      </trkpt>
      <trkpt lat="45.42534" lon="5.93216">
        <ele>1834.07635273</ele>
        <time>2015-06-11T10:19:34Z</time>
      </trkpt>
      <trkpt lat="45.42537" lon="5.93216">
        <ele>1834.07635273</ele>
        <time>2015-06-11T10:19:39Z</time>
      </trkpt>
      <trkpt lat="45.42537" lon="5.93218">
        <ele>1834.07635273</ele>
        <time>2015-06-11T10:19:43Z</time>
      </trkpt>
      <trkpt lat="45.42537" lon="5.93219">
        <ele>1834.686610456</ele>
        <time>2015-06-11T10:19:47Z</time>
      </trkpt>
      <trkpt lat="45.42537" lon="5.9322">
        <ele>1834.686610456</ele>
        <time>2015-06-11T10:19:52Z</time>
      </trkpt>
      <trkpt lat="45.42537" lon="5.9322">
        <ele>1834.686610456</ele>
        <time>2015-06-11T10:19:57Z</time>
      </trkpt>
      <trkpt lat="45.42536" lon="5.9322">
        <ele>1834.686610456</ele>
        <time>2015-06-11T10:20:02Z</time>
      </trkpt>
      <trkpt lat="45.42536" lon="5.9322">
        <ele>1834.686610456</ele>
        <time>2015-06-11T10:20:07Z</time>
      </trkpt>
      <trkpt lat="45.42536" lon="5.9322">
        <ele>1834.686610456</ele>
        <time>2015-06-11T10:20:14Z</time>
      </trkpt>
      <trkpt lat="45.42536" lon="5.9322">
        <ele>1834.686610456</ele>
        <time>2015-06-11T10:20:18Z</time>
      </trkpt>
      <trkpt lat="45.42536" lon="5.9322">
        <ele>1834.686610456</ele>
        <time>2015-06-11T10:20:23Z</time>
      </trkpt>
      <trkpt lat="45.42536" lon="5.9322">
        <ele>1834.686610456</ele>
        <time>2015-06-11T10:20:28Z</time>
      </trkpt>
      <trkpt lat="45.42536" lon="5.9322">
        <ele>1834.686610456</ele>
        <time>2015-06-11T10:20:33Z</time>
      </trkpt>
      <trkpt lat="45.42536" lon="5.9322">
        <ele>1834.686610456</ele>
        <time>2015-06-11T10:20:38Z</time>
      </trkpt>
      <trkpt lat="45.42536" lon="5.9322">
        <ele>1834.686610456</ele>
        <time>2015-06-11T10:20:43Z</time>
      </trkpt>
      <trkpt lat="45.42536" lon="5.9322">
        <ele>1834.686610456</ele>
        <time>2015-06-11T10:20:48Z</time>
      </trkpt>
      <trkpt lat="45.42536" lon="5.9322">
        <ele>1834.686610456</ele>
        <time>2015-06-11T10:20:53Z</time>
      </trkpt>
      <trkpt lat="45.42536" lon="5.9322">
        <ele>1834.686610456</ele>
        <time>2015-06-11T10:20:58Z</time>
      </trkpt>
      <trkpt lat="45.42537" lon="5.93226">
        <ele>1834.686610456</ele>
        <time>2015-06-11T10:21:03Z</time>
      </trkpt>
      <trkpt lat="45.42539" lon="5.93235">
        <ele>1835.374894408</ele>
        <time>2015-06-11T10:21:08Z</time>
      </trkpt>
      <trkpt lat="45.42546" lon="5.93241">
        <ele>1835.374894408</ele>
        <time>2015-06-11T10:21:13Z</time>
      </trkpt>
      <trkpt lat="45.42546" lon="5.93246">
        <ele>1836.571312062</ele>
        <time>2015-06-11T10:21:18Z</time>
      </trkpt>
      <trkpt lat="45.42553" lon="5.9325">
        <ele>1836.571312062</ele>
        <time>2015-06-11T10:21:24Z</time>
      </trkpt>
      <trkpt lat="45.42557" lon="5.93255">
        <ele>1838.240695203</ele>
        <time>2015-06-11T10:21:28Z</time>
      </trkpt>
      <trkpt lat="45.42561" lon="5.93259">
        <ele>1838.240695203</ele>
        <time>2015-06-11T10:21:33Z</time>
      </trkpt>
      <trkpt lat="45.42562" lon="5.93262">
        <ele>1838.240695203</ele>
        <time>2015-06-11T10:21:38Z</time>
      </trkpt>
      <trkpt lat="45.42566" lon="5.93265">
        <ele>1839.196307496</ele>
        <time>2015-06-11T10:21:43Z</time>
      </trkpt>
      <trkpt lat="45.42569" lon="5.93267">
        <ele>1839.196307496</ele>
        <time>2015-06-11T10:21:48Z</time>
      </trkpt>
      <trkpt lat="45.42574" lon="5.93269">
        <ele>1839.196307496</ele>
        <time>2015-06-11T10:21:53Z</time>
      </trkpt>
      <trkpt lat="45.42579" lon="5.93272">
        <ele>1840.069978228</ele>
        <time>2015-06-11T10:21:58Z</time>
      </trkpt>
      <trkpt lat="45.42578" lon="5.93275">
        <ele>1840.069978228</ele>
        <time>2015-06-11T10:22:03Z</time>
      </trkpt>
      <trkpt lat="45.42579" lon="5.93276">
        <ele>1840.069978228</ele>
        <time>2015-06-11T10:22:08Z</time>
      </trkpt>
      <trkpt lat="45.42579" lon="5.93277">
        <ele>1840.069978228</ele>
        <time>2015-06-11T10:22:13Z</time>
      </trkpt>
      <trkpt lat="45.42579" lon="5.93277">
        <ele>1840.069978228</ele>
        <time>2015-06-11T10:22:18Z</time>
      </trkpt>
      <trkpt lat="45.42579" lon="5.93277">
        <ele>1840.069978228</ele>
        <time>2015-06-11T10:22:23Z</time>
      </trkpt>
      <trkpt lat="45.42578" lon="5.93277">
        <ele>1840.069978228</ele>
        <time>2015-06-11T10:22:28Z</time>
      </trkpt>
      <trkpt lat="45.42584" lon="5.93272">
        <ele>1840.43861461</ele>
        <time>2015-06-11T10:22:33Z</time>
      </trkpt>
      <trkpt lat="45.42589" lon="5.93267">
        <ele>1840.43861461</ele>
        <time>2015-06-11T10:22:38Z</time>
      </trkpt>
      <trkpt lat="45.4259" lon="5.93259">
        <ele>1841.208648883</ele>
        <time>2015-06-11T10:22:43Z</time>
      </trkpt>
      <trkpt lat="45.4259" lon="5.93255">
        <ele>1841.208648883</ele>
        <time>2015-06-11T10:22:48Z</time>
      </trkpt>
      <trkpt lat="45.42596" lon="5.93258">
        <ele>1842.210037936</ele>
        <time>2015-06-11T10:22:53Z</time>
      </trkpt>
      <trkpt lat="45.42601" lon="5.93257">
        <ele>1842.210037936</ele>
        <time>2015-06-11T10:22:58Z</time>
      </trkpt>
      <trkpt lat="45.42605" lon="5.93259">
        <ele>1842.996361194</ele>
        <time>2015-06-11T10:23:03Z</time>
      </trkpt>
      <trkpt lat="45.4261" lon="5.93264">
        <ele>1842.996361194</ele>
        <time>2015-06-11T10:23:08Z</time>
      </trkpt>
      <trkpt lat="45.42614" lon="5.9327">
        <ele>1843.58692</ele>
        <time>2015-06-11T10:23:13Z</time>
      </trkpt>
      <trkpt lat="45.42613" lon="5.93271">
        <ele>1843.58692</ele>
        <time>2015-06-11T10:23:17Z</time>
      </trkpt>
      <trkpt lat="45.42612" lon="5.9327">
        <ele>1843.58692</ele>
        <time>2015-06-11T10:23:22Z</time>
      </trkpt>
      <trkpt lat="45.4261" lon="5.93269">
        <ele>1843.58692</ele>
        <time>2015-06-11T10:23:27Z</time>
      </trkpt>
      <trkpt lat="45.42617" lon="5.93265">
        <ele>1844.144239282</ele>
        <time>2015-06-11T10:23:34Z</time>
      </trkpt>
      <trkpt lat="45.42618" lon="5.93265">
        <ele>1844.144239282</ele>
        <time>2015-06-11T10:23:38Z</time>
      </trkpt>
      <trkpt lat="45.4262" lon="5.9327">
        <ele>1844.144239282</ele>
        <time>2015-06-11T10:23:43Z</time>
      </trkpt>
      <trkpt lat="45.4262" lon="5.93273">
        <ele>1844.144239282</ele>
        <time>2015-06-11T10:23:49Z</time>
      </trkpt>
      <trkpt lat="45.4262" lon="5.93273">
        <ele>1844.144239282</ele>
        <time>2015-06-11T10:23:54Z</time>
      </trkpt>
      <trkpt lat="45.42625" lon="5.93273">
        <ele>1843.377855453</ele>
        <time>2015-06-11T10:23:58Z</time>
      </trkpt>
      <trkpt lat="45.4263" lon="5.93272">
        <ele>1843.377855453</ele>
        <time>2015-06-11T10:24:04Z</time>
      </trkpt>
      <trkpt lat="45.42633" lon="5.93271">
        <ele>1843.377855453</ele>
        <time>2015-06-11T10:24:08Z</time>
      </trkpt>
      <trkpt lat="45.42639" lon="5.93274">
        <ele>1841.536879966</ele>
        <time>2015-06-11T10:24:14Z</time>
      </trkpt>
      <trkpt lat="45.42646" lon="5.93273">
        <ele>1841.536879966</ele>
        <time>2015-06-11T10:24:19Z</time>
      </trkpt>
      <trkpt lat="45.42654" lon="5.93275">
        <ele>1839.43151799</ele>
        <time>2015-06-11T10:24:24Z</time>
      </trkpt>
      <trkpt lat="45.42655" lon="5.93277">
        <ele>1839.43151799</ele>
        <time>2015-06-11T10:24:28Z</time>
      </trkpt>
      <trkpt lat="45.42656" lon="5.93273">
        <ele>1839.43151799</ele>
        <time>2015-06-11T10:24:33Z</time>
      </trkpt>
      <trkpt lat="45.42662" lon="5.9327">
        <ele>1836.80433139</ele>
        <time>2015-06-11T10:24:39Z</time>
      </trkpt>
      <trkpt lat="45.42666" lon="5.93271">
        <ele>1836.80433139</ele>
        <time>2015-06-11T10:24:44Z</time>
      </trkpt>
      <trkpt lat="45.42669" lon="5.93272">
        <ele>1836.80433139</ele>
        <time>2015-06-11T10:24:48Z</time>
      </trkpt>
      <trkpt lat="45.42675" lon="5.93267">
        <ele>1834.282807909</ele>
        <time>2015-06-11T10:24:54Z</time>
      </trkpt>
      <trkpt lat="45.42681" lon="5.93266">
        <ele>1834.282807909</ele>
        <time>2015-06-11T10:24:59Z</time>
      </trkpt>
      <trkpt lat="45.4269" lon="5.93272">
        <ele>1832.159678931</ele>
        <time>2015-06-11T10:25:04Z</time>
      </trkpt>
      <trkpt lat="45.42694" lon="5.93276">
        <ele>1832.159678931</ele>
        <time>2015-06-11T10:25:08Z</time>
      </trkpt>
      <trkpt lat="45.42698" lon="5.93276">
        <ele>1832.159678931</ele>
        <time>2015-06-11T10:25:12Z</time>
      </trkpt>
      <trkpt lat="45.42699" lon="5.93281">
        <ele>1830.704888125</ele>
        <time>2015-06-11T10:25:19Z</time>
      </trkpt>
      <trkpt lat="45.427" lon="5.93284">
        <ele>1830.704888125</ele>
        <time>2015-06-11T10:25:24Z</time>
      </trkpt>
      <trkpt lat="45.42699" lon="5.9329">
        <ele>1830.704888125</ele>
        <time>2015-06-11T10:25:29Z</time>
      </trkpt>
      <trkpt lat="45.42702" lon="5.93296">
        <ele>1829.445932648</ele>
        <time>2015-06-11T10:25:34Z</time>
      </trkpt>
      <trkpt lat="45.42703" lon="5.93301">
        <ele>1829.445932648</ele>
        <time>2015-06-11T10:25:39Z</time>
      </trkpt>
      <trkpt lat="45.42707" lon="5.93304">
        <ele>1829.445932648</ele>
        <time>2015-06-11T10:25:44Z</time>
      </trkpt>
      <trkpt lat="45.42712" lon="5.93303">
        <ele>1828.664825831</ele>
        <time>2015-06-11T10:25:49Z</time>
      </trkpt>
      <trkpt lat="45.42715" lon="5.93308">
        <ele>1828.664825831</ele>
        <time>2015-06-11T10:25:54Z</time>
      </trkpt>
      <trkpt lat="45.42715" lon="5.93309">
        <ele>1828.664825831</ele>
        <time>2015-06-11T10:25:58Z</time>
      </trkpt>
      <trkpt lat="45.42716" lon="5.9331">
        <ele>1828.664825831</ele>
        <time>2015-06-11T10:26:04Z</time>
      </trkpt>
      <trkpt lat="45.42713" lon="5.93313">
        <ele>1828.664825831</ele>
        <time>2015-06-11T10:26:09Z</time>
      </trkpt>
      <trkpt lat="45.42715" lon="5.93313">
        <ele>1827.324312837</ele>
        <time>2015-06-11T10:26:14Z</time>
      </trkpt>
      <trkpt lat="45.42716" lon="5.93313">
        <ele>1827.324312837</ele>
        <time>2015-06-11T10:26:19Z</time>
      </trkpt>
      <trkpt lat="45.42723" lon="5.93317">
        <ele>1827.324312837</ele>
        <time>2015-06-11T10:26:24Z</time>
      </trkpt>
      <trkpt lat="45.42728" lon="5.93319">
        <ele>1826.77046609</ele>
        <time>2015-06-11T10:26:28Z</time>
      </trkpt>
      <trkpt lat="45.42736" lon="5.93329">
        <ele>1826.518715222</ele>
        <time>2015-06-11T10:26:34Z</time>
      </trkpt>
      <trkpt lat="45.42743" lon="5.9333">
        <ele>1826.518715222</ele>
        <time>2015-06-11T10:26:39Z</time>
      </trkpt>
      <trkpt lat="45.42748" lon="5.93331">
        <ele>1826.695462843</ele>
        <time>2015-06-11T10:26:44Z</time>
      </trkpt>
      <trkpt lat="45.42754" lon="5.9333">
        <ele>1826.695462843</ele>
        <time>2015-06-11T10:26:49Z</time>
      </trkpt>
      <trkpt lat="45.42757" lon="5.93338">
        <ele>1826.695849907</ele>
        <time>2015-06-11T10:26:54Z</time>
      </trkpt>
      <trkpt lat="45.42758" lon="5.93341">
        <ele>1826.695849907</ele>
        <time>2015-06-11T10:26:59Z</time>
      </trkpt>
      <trkpt lat="45.42758" lon="5.93343">
        <ele>1826.695849907</ele>
        <time>2015-06-11T10:27:04Z</time>
      </trkpt>
      <trkpt lat="45.4276" lon="5.93349">
        <ele>1826.695849907</ele>
        <time>2015-06-11T10:27:09Z</time>
      </trkpt>
      <trkpt lat="45.42762" lon="5.93355">
        <ele>1826.680287193</ele>
        <time>2015-06-11T10:27:14Z</time>
      </trkpt>
      <trkpt lat="45.42767" lon="5.93362">
        <ele>1826.680287193</ele>
        <time>2015-06-11T10:27:19Z</time>
      </trkpt>
      <trkpt lat="45.42768" lon="5.93369">
        <ele>1826.653128125</ele>
        <time>2015-06-11T10:27:24Z</time>
      </trkpt>
      <trkpt lat="45.42774" lon="5.93371">
        <ele>1826.653128125</ele>
        <time>2015-06-11T10:27:29Z</time>
      </trkpt>
      <trkpt lat="45.42778" lon="5.93376">
        <ele>1826.330015193</ele>
        <time>2015-06-11T10:27:33Z</time>
      </trkpt>
      <trkpt lat="45.42781" lon="5.9338">
        <ele>1826.330015193</ele>
        <time>2015-06-11T10:27:39Z</time>
      </trkpt>
      <trkpt lat="45.42784" lon="5.93385">
        <ele>1826.330015193</ele>
        <time>2015-06-11T10:27:44Z</time>
      </trkpt>
      <trkpt lat="45.42787" lon="5.93386">
        <ele>1826.024558607</ele>
        <time>2015-06-11T10:27:48Z</time>
      </trkpt>
      <trkpt lat="45.42791" lon="5.93391">
        <ele>1826.024558607</ele>
        <time>2015-06-11T10:27:54Z</time>
      </trkpt>
      <trkpt lat="45.42795" lon="5.93399">
        <ele>1826.171202419</ele>
        <time>2015-06-11T10:27:59Z</time>
      </trkpt>
      <trkpt lat="45.42797" lon="5.93409">
        <ele>1826.171202419</ele>
        <time>2015-06-11T10:28:03Z</time>
      </trkpt>
      <trkpt lat="45.42806" lon="5.93411">
        <ele>1825.87402289</ele>
        <time>2015-06-11T10:28:07Z</time>
      </trkpt>
      <trkpt lat="45.4281" lon="5.93416">
        <ele>1825.87402289</ele>
        <time>2015-06-11T10:28:12Z</time>
      </trkpt>
      <trkpt lat="45.42809" lon="5.93421">
        <ele>1825.87402289</ele>
        <time>2015-06-11T10:28:19Z</time>
      </trkpt>
      <trkpt lat="45.42814" lon="5.9342">
        <ele>1826.321533264</ele>
        <time>2015-06-11T10:28:23Z</time>
      </trkpt>
      <trkpt lat="45.42821" lon="5.93431">
        <ele>1827.459791292</ele>
        <time>2015-06-11T10:28:29Z</time>
      </trkpt>
      <trkpt lat="45.42818" lon="5.93434">
        <ele>1827.459791292</ele>
        <time>2015-06-11T10:28:34Z</time>
      </trkpt>
      <trkpt lat="45.42816" lon="5.93439">
        <ele>1827.459791292</ele>
        <time>2015-06-11T10:28:38Z</time>
      </trkpt>
      <trkpt lat="45.42815" lon="5.9344">
        <ele>1827.459791292</ele>
        <time>2015-06-11T10:28:43Z</time>
      </trkpt>
      <trkpt lat="45.42815" lon="5.9344">
        <ele>1827.651496324</ele>
        <time>2015-06-11T10:28:49Z</time>
      </trkpt>
      <trkpt lat="45.42815" lon="5.9344">
        <ele>1827.651496324</ele>
        <time>2015-06-11T10:28:53Z</time>
      </trkpt>
      <trkpt lat="45.42815" lon="5.93437">
        <ele>1827.651496324</ele>
        <time>2015-06-11T10:28:57Z</time>
      </trkpt>
      <trkpt lat="45.42816" lon="5.93438">
        <ele>1827.651496324</ele>
        <time>2015-06-11T10:29:02Z</time>
      </trkpt>
      <trkpt lat="45.42817" lon="5.93437">
        <ele>1827.651496324</ele>
        <time>2015-06-11T10:29:09Z</time>
      </trkpt>
      <trkpt lat="45.42823" lon="5.93443">
        <ele>1827.543794834</ele>
        <time>2015-06-11T10:29:14Z</time>
      </trkpt>
      <trkpt lat="45.42826" lon="5.93445">
        <ele>1827.543794834</ele>
        <time>2015-06-11T10:29:19Z</time>
      </trkpt>
      <trkpt lat="45.42827" lon="5.93446">
        <ele>1827.543794834</ele>
        <time>2015-06-11T10:29:24Z</time>
      </trkpt>
      <trkpt lat="45.42831" lon="5.93453">
        <ele>1827.304658896</ele>
        <time>2015-06-11T10:29:29Z</time>
      </trkpt>
      <trkpt lat="45.42838" lon="5.93458">
        <ele>1827.304658896</ele>
        <time>2015-06-11T10:29:33Z</time>
      </trkpt>
      <trkpt lat="45.42837" lon="5.93469">
        <ele>1827.234066853</ele>
        <time>2015-06-11T10:29:39Z</time>
      </trkpt>
      <trkpt lat="45.42836" lon="5.93471">
        <ele>1827.234066853</ele>
        <time>2015-06-11T10:29:43Z</time>
      </trkpt>
      <trkpt lat="45.42836" lon="5.93475">
        <ele>1827.234066853</ele>
        <time>2015-06-11T10:29:48Z</time>
      </trkpt>
      <trkpt lat="45.42843" lon="5.9348">
        <ele>1827.753470973</ele>
        <time>2015-06-11T10:29:54Z</time>
      </trkpt>
      <trkpt lat="45.42846" lon="5.93484">
        <ele>1827.753470973</ele>
        <time>2015-06-11T10:29:59Z</time>
      </trkpt>
      <trkpt lat="45.4285" lon="5.93488">
        <ele>1827.666363365</ele>
        <time>2015-06-11T10:30:03Z</time>
      </trkpt>
      <trkpt lat="45.42851" lon="5.93489">
        <ele>1827.666363365</ele>
        <time>2015-06-11T10:30:09Z</time>
      </trkpt>
      <trkpt lat="45.42849" lon="5.93487">
        <ele>1827.666363365</ele>
        <time>2015-06-11T10:30:14Z</time>
      </trkpt>
      <trkpt lat="45.4285" lon="5.93487">
        <ele>1827.666363365</ele>
        <time>2015-06-11T10:30:18Z</time>
      </trkpt>
      <trkpt lat="45.42851" lon="5.93488">
        <ele>1827.666363365</ele>
        <time>2015-06-11T10:30:24Z</time>
      </trkpt>
      <trkpt lat="45.42855" lon="5.93483">
        <ele>1827.883272743</ele>
        <time>2015-06-11T10:30:28Z</time>
      </trkpt>
      <trkpt lat="45.42858" lon="5.93482">
        <ele>1827.883272743</ele>
        <time>2015-06-11T10:30:34Z</time>
      </trkpt>
      <trkpt lat="45.42864" lon="5.93486">
        <ele>1827.805766995</ele>
        <time>2015-06-11T10:30:38Z</time>
      </trkpt>
      <trkpt lat="45.42864" lon="5.93488">
        <ele>1827.805766995</ele>
        <time>2015-06-11T10:30:44Z</time>
      </trkpt>
      <trkpt lat="45.42864" lon="5.93488">
        <ele>1827.805766995</ele>
        <time>2015-06-11T10:30:49Z</time>
      </trkpt>
      <trkpt lat="45.42865" lon="5.9349">
        <ele>1827.805766995</ele>
        <time>2015-06-11T10:30:53Z</time>
      </trkpt>
      <trkpt lat="45.42867" lon="5.9349">
        <ele>1827.805766995</ele>
        <time>2015-06-11T10:30:59Z</time>
      </trkpt>
      <trkpt lat="45.42869" lon="5.93488">
        <ele>1827.805766995</ele>
        <time>2015-06-11T10:31:03Z</time>
      </trkpt>
      <trkpt lat="45.42868" lon="5.93486">
        <ele>1827.805766995</ele>
        <time>2015-06-11T10:31:08Z</time>
      </trkpt>
      <trkpt lat="45.42872" lon="5.93489">
        <ele>1827.168318556</ele>
        <time>2015-06-11T10:31:12Z</time>
      </trkpt>
      <trkpt lat="45.4287" lon="5.93489">
        <ele>1827.168318556</ele>
        <time>2015-06-11T10:31:18Z</time>
      </trkpt>
      <trkpt lat="45.42869" lon="5.93488">
        <ele>1827.168318556</ele>
        <time>2015-06-11T10:31:23Z</time>
      </trkpt>
      <trkpt lat="45.42868" lon="5.93487">
        <ele>1827.168318556</ele>
        <time>2015-06-11T10:31:27Z</time>
      </trkpt>
      <trkpt lat="45.42869" lon="5.93487">
        <ele>1827.168318556</ele>
        <time>2015-06-11T10:31:33Z</time>
      </trkpt>
      <trkpt lat="45.42869" lon="5.93487">
        <ele>1827.168318556</ele>
        <time>2015-06-11T10:31:37Z</time>
      </trkpt>
      <trkpt lat="45.42864" lon="5.93484">
        <ele>1826.591042655</ele>
        <time>2015-06-11T10:31:44Z</time>
      </trkpt>
      <trkpt lat="45.42863" lon="5.93481">
        <ele>1826.591042655</ele>
        <time>2015-06-11T10:31:49Z</time>
      </trkpt>
      <trkpt lat="45.42857" lon="5.93479">
        <ele>1826.591042655</ele>
        <time>2015-06-11T10:31:53Z</time>
      </trkpt>
      <trkpt lat="45.42853" lon="5.93474">
        <ele>1826.071789794</ele>
        <time>2015-06-11T10:31:59Z</time>
      </trkpt>
      <trkpt lat="45.42845" lon="5.93469">
        <ele>1826.071789794</ele>
        <time>2015-06-11T10:32:04Z</time>
      </trkpt>
      <trkpt lat="45.42844" lon="5.93464">
        <ele>1825.752420489</ele>
        <time>2015-06-11T10:32:08Z</time>
      </trkpt>
      <trkpt lat="45.4284" lon="5.93458">
        <ele>1825.752420489</ele>
        <time>2015-06-11T10:32:14Z</time>
      </trkpt>
      <trkpt lat="45.42839" lon="5.9345">
        <ele>1824.754939506</ele>
        <time>2015-06-11T10:32:19Z</time>
      </trkpt>
      <trkpt lat="45.42838" lon="5.93441">
        <ele>1824.754939506</ele>
        <time>2015-06-11T10:32:24Z</time>
      </trkpt>
      <trkpt lat="45.42834" lon="5.93435">
        <ele>1823.564655602</ele>
        <time>2015-06-11T10:32:29Z</time>
      </trkpt>
      <trkpt lat="45.42829" lon="5.93426">
        <ele>1823.564655602</ele>
        <time>2015-06-11T10:32:33Z</time>
      </trkpt>
      <trkpt lat="45.42822" lon="5.9343">
        <ele>1823.352228756</ele>
        <time>2015-06-11T10:32:39Z</time>
      </trkpt>
      <trkpt lat="45.42819" lon="5.93433">
        <ele>1823.352228756</ele>
        <time>2015-06-11T10:32:44Z</time>
      </trkpt>
      <trkpt lat="45.42819" lon="5.93434">
        <ele>1823.352228756</ele>
        <time>2015-06-11T10:32:49Z</time>
      </trkpt>
      <trkpt lat="45.42818" lon="5.93436">
        <ele>1823.352228756</ele>
        <time>2015-06-11T10:32:54Z</time>
      </trkpt>
      <trkpt lat="45.42818" lon="5.93436">
        <ele>1823.352228756</ele>
        <time>2015-06-11T10:32:59Z</time>
      </trkpt>
      <trkpt lat="45.42816" lon="5.93441">
        <ele>1823.758375115</ele>
        <time>2015-06-11T10:33:03Z</time>
      </trkpt>
      <trkpt lat="45.42815" lon="5.93447">
        <ele>1823.758375115</ele>
        <time>2015-06-11T10:33:09Z</time>
      </trkpt>
      <trkpt lat="45.42816" lon="5.93448">
        <ele>1823.758375115</ele>
        <time>2015-06-11T10:33:14Z</time>
      </trkpt>
      <trkpt lat="45.42815" lon="5.93447">
        <ele>1823.758375115</ele>
        <time>2015-06-11T10:33:19Z</time>
      </trkpt>
      <trkpt lat="45.42817" lon="5.93449">
        <ele>1823.758375115</ele>
        <time>2015-06-11T10:33:24Z</time>
      </trkpt>
      <trkpt lat="45.42817" lon="5.93448">
        <ele>1823.758375115</ele>
        <time>2015-06-11T10:33:29Z</time>
      </trkpt>
      <trkpt lat="45.42817" lon="5.93449">
        <ele>1823.758375115</ele>
        <time>2015-06-11T10:33:34Z</time>
      </trkpt>
      <trkpt lat="45.42817" lon="5.93449">
        <ele>1824.16015663</ele>
        <time>2015-06-11T10:33:39Z</time>
      </trkpt>
      <trkpt lat="45.42817" lon="5.93449">
        <ele>1824.16015663</ele>
        <time>2015-06-11T10:33:44Z</time>
      </trkpt>
      <trkpt lat="45.42817" lon="5.93449">
        <ele>1824.16015663</ele>
        <time>2015-06-11T10:33:49Z</time>
      </trkpt>
      <trkpt lat="45.42817" lon="5.93449">
        <ele>1824.16015663</ele>
        <time>2015-06-11T10:33:53Z</time>
      </trkpt>
      <trkpt lat="45.42817" lon="5.93449">
        <ele>1824.16015663</ele>
        <time>2015-06-11T10:33:59Z</time>
      </trkpt>
      <trkpt lat="45.42817" lon="5.93449">
        <ele>1824.16015663</ele>
        <time>2015-06-11T10:34:04Z</time>
      </trkpt>
      <trkpt lat="45.42817" lon="5.93449">
        <ele>1824.16015663</ele>
        <time>2015-06-11T10:34:09Z</time>
      </trkpt>
      <trkpt lat="45.42817" lon="5.93449">
        <ele>1824.16015663</ele>
        <time>2015-06-11T10:34:14Z</time>
      </trkpt>
      <trkpt lat="45.42817" lon="5.93449">
        <ele>1824.16015663</ele>
        <time>2015-06-11T10:34:19Z</time>
      </trkpt>
      <trkpt lat="45.42817" lon="5.93449">
        <ele>1824.16015663</ele>
        <time>2015-06-11T10:34:23Z</time>
      </trkpt>
      <trkpt lat="45.42817" lon="5.93449">
        <ele>1824.16015663</ele>
        <time>2015-06-11T10:34:29Z</time>
      </trkpt>
      <trkpt lat="45.42817" lon="5.93449">
        <ele>1824.16015663</ele>
        <time>2015-06-11T10:34:33Z</time>
      </trkpt>
      <trkpt lat="45.42817" lon="5.93449">
        <ele>1824.16015663</ele>
        <time>2015-06-11T10:34:37Z</time>
      </trkpt>
      <trkpt lat="45.42822" lon="5.93459">
        <ele>1824.16015663</ele>
        <time>2015-06-11T10:34:43Z</time>
      </trkpt>
      <trkpt lat="45.42826" lon="5.9346">
        <ele>1823.836212962</ele>
        <time>2015-06-11T10:34:47Z</time>
      </trkpt>
      <trkpt lat="45.42828" lon="5.93463">
        <ele>1823.836212962</ele>
        <time>2015-06-11T10:34:53Z</time>
      </trkpt>
      <trkpt lat="45.42829" lon="5.93468">
        <ele>1823.836212962</ele>
        <time>2015-06-11T10:34:58Z</time>
      </trkpt>
      <trkpt lat="45.42828" lon="5.93468">
        <ele>1823.836212962</ele>
        <time>2015-06-11T10:35:04Z</time>
      </trkpt>
      <trkpt lat="45.42828" lon="5.93468">
        <ele>1823.836212962</ele>
        <time>2015-06-11T10:35:09Z</time>
      </trkpt>
      <trkpt lat="45.42828" lon="5.93467">
        <ele>1823.836212962</ele>
        <time>2015-06-11T10:35:14Z</time>
      </trkpt>
      <trkpt lat="45.42829" lon="5.9347">
        <ele>1823.273021983</ele>
        <time>2015-06-11T10:35:19Z</time>
      </trkpt>
      <trkpt lat="45.42828" lon="5.93471">
        <ele>1823.273021983</ele>
        <time>2015-06-11T10:35:24Z</time>
      </trkpt>
      <trkpt lat="45.42828" lon="5.93472">
        <ele>1823.273021983</ele>
        <time>2015-06-11T10:35:28Z</time>
      </trkpt>
      <trkpt lat="45.42829" lon="5.93471">
        <ele>1823.273021983</ele>
        <time>2015-06-11T10:35:32Z</time>
      </trkpt>
      <trkpt lat="45.4283" lon="5.93474">
        <ele>1823.273021983</ele>
        <time>2015-06-11T10:35:39Z</time>
      </trkpt>
      <trkpt lat="45.4283" lon="5.93473">
        <ele>1823.273021983</ele>
        <time>2015-06-11T10:35:44Z</time>
      </trkpt>
      <trkpt lat="45.4283" lon="5.93473">
        <ele>1823.273021983</ele>
        <time>2015-06-11T10:35:49Z</time>
      </trkpt>
      <trkpt lat="45.4283" lon="5.93473">
        <ele>1823.273021983</ele>
        <time>2015-06-11T10:35:54Z</time>
      </trkpt>
      <trkpt lat="45.4283" lon="5.93473">
        <ele>1823.273021983</ele>
        <time>2015-06-11T10:35:59Z</time>
      </trkpt>
      <trkpt lat="45.4283" lon="5.93474">
        <ele>1823.273021983</ele>
        <time>2015-06-11T10:36:03Z</time>
      </trkpt>
      <trkpt lat="45.4283" lon="5.93474">
        <ele>1823.273021983</ele>
        <time>2015-06-11T10:36:09Z</time>
      </trkpt>
      <trkpt lat="45.4283" lon="5.93475">
        <ele>1823.273021983</ele>
        <time>2015-06-11T10:36:14Z</time>
      </trkpt>
      <trkpt lat="45.4283" lon="5.93475">
        <ele>1823.273021983</ele>
        <time>2015-06-11T10:36:19Z</time>
      </trkpt>
      <trkpt lat="45.4283" lon="5.93475">
        <ele>1823.273021983</ele>
        <time>2015-06-11T10:36:24Z</time>
      </trkpt>
      <trkpt lat="45.4283" lon="5.93475">
        <ele>1823.273021983</ele>
        <time>2015-06-11T10:36:29Z</time>
      </trkpt>
      <trkpt lat="45.4283" lon="5.93475">
        <ele>1823.273021983</ele>
        <time>2015-06-11T10:36:34Z</time>
      </trkpt>
      <trkpt lat="45.4283" lon="5.93475">
        <ele>1823.273021983</ele>
        <time>2015-06-11T10:36:39Z</time>
      </trkpt>
      <trkpt lat="45.4283" lon="5.93475">
        <ele>1823.273021983</ele>
        <time>2015-06-11T10:36:44Z</time>
      </trkpt>
      <trkpt lat="45.4283" lon="5.93475">
        <ele>1823.273021983</ele>
        <time>2015-06-11T10:36:49Z</time>
      </trkpt>
      <trkpt lat="45.4283" lon="5.93475">
        <ele>1823.273021983</ele>
        <time>2015-06-11T10:36:54Z</time>
      </trkpt>
      <trkpt lat="45.4283" lon="5.93475">
        <ele>1823.273021983</ele>
        <time>2015-06-11T10:36:59Z</time>
      </trkpt>
      <trkpt lat="45.4283" lon="5.93475">
        <ele>1823.273021983</ele>
        <time>2015-06-11T10:37:03Z</time>
      </trkpt>
      <trkpt lat="45.4283" lon="5.93475">
        <ele>1823.273021983</ele>
        <time>2015-06-11T10:37:08Z</time>
      </trkpt>
      <trkpt lat="45.4283" lon="5.93475">
        <ele>1823.273021983</ele>
        <time>2015-06-11T10:37:14Z</time>
      </trkpt>
      <trkpt lat="45.4283" lon="5.93475">
        <ele>1823.273021983</ele>
        <time>2015-06-11T10:37:19Z</time>
      </trkpt>
      <trkpt lat="45.4283" lon="5.93475">
        <ele>1823.273021983</ele>
        <time>2015-06-11T10:37:24Z</time>
      </trkpt>
      <trkpt lat="45.4283" lon="5.93475">
        <ele>1823.273021983</ele>
        <time>2015-06-11T10:37:29Z</time>
      </trkpt>
      <trkpt lat="45.4283" lon="5.93475">
        <ele>1823.273021983</ele>
        <time>2015-06-11T10:37:34Z</time>
      </trkpt>
      <trkpt lat="45.4283" lon="5.93475">
        <ele>1823.273021983</ele>
        <time>2015-06-11T10:37:39Z</time>
      </trkpt>
      <trkpt lat="45.42832" lon="5.9348">
        <ele>1822.345478453</ele>
        <time>2015-06-11T10:37:44Z</time>
      </trkpt>
      <trkpt lat="45.42833" lon="5.93481">
        <ele>1822.345478453</ele>
        <time>2015-06-11T10:37:49Z</time>
      </trkpt>
      <trkpt lat="45.42835" lon="5.93483">
        <ele>1822.345478453</ele>
        <time>2015-06-11T10:37:54Z</time>
      </trkpt>
      <trkpt lat="45.42837" lon="5.93486">
        <ele>1822.345478453</ele>
        <time>2015-06-11T10:37:59Z</time>
      </trkpt>
      <trkpt lat="45.42836" lon="5.93486">
        <ele>1822.345478453</ele>
        <time>2015-06-11T10:38:04Z</time>
      </trkpt>
      <trkpt lat="45.42836" lon="5.93487">
        <ele>1822.345478453</ele>
        <time>2015-06-11T10:38:08Z</time>
      </trkpt>
      <trkpt lat="45.42836" lon="5.93487">
        <ele>1822.345478453</ele>
        <time>2015-06-11T10:38:12Z</time>
      </trkpt>
      <trkpt lat="45.42836" lon="5.93487">
        <ele>1822.345478453</ele>
        <time>2015-06-11T10:38:18Z</time>
      </trkpt>
      <trkpt lat="45.42836" lon="5.93487">
        <ele>1822.345478453</ele>
        <time>2015-06-11T10:38:23Z</time>
      </trkpt>
      <trkpt lat="45.42836" lon="5.93487">
        <ele>1822.345478453</ele>
        <time>2015-06-11T10:38:28Z</time>
      </trkpt>
      <trkpt lat="45.42836" lon="5.93487">
        <ele>1822.345478453</ele>
        <time>2015-06-11T10:38:33Z</time>
      </trkpt>
      <trkpt lat="45.42836" lon="5.93487">
        <ele>1822.345478453</ele>
        <time>2015-06-11T10:38:39Z</time>
      </trkpt>
      <trkpt lat="45.42836" lon="5.93487">
        <ele>1822.345478453</ele>
        <time>2015-06-11T10:38:44Z</time>
      </trkpt>
      <trkpt lat="45.42836" lon="5.93487">
        <ele>1822.345478453</ele>
        <time>2015-06-11T10:38:49Z</time>
      </trkpt>
      <trkpt lat="45.42836" lon="5.93487">
        <ele>1822.345478453</ele>
        <time>2015-06-11T10:38:54Z</time>
      </trkpt>
      <trkpt lat="45.42836" lon="5.93487">
        <ele>1822.345478453</ele>
        <time>2015-06-11T10:38:59Z</time>
      </trkpt>
      <trkpt lat="45.42836" lon="5.93487">
        <ele>1822.345478453</ele>
        <time>2015-06-11T10:39:04Z</time>
      </trkpt>
      <trkpt lat="45.42836" lon="5.93487">
        <ele>1822.345478453</ele>
        <time>2015-06-11T10:39:09Z</time>
      </trkpt>
      <trkpt lat="45.42836" lon="5.93487">
        <ele>1822.345478453</ele>
        <time>2015-06-11T10:39:14Z</time>
      </trkpt>
      <trkpt lat="45.42836" lon="5.93487">
        <ele>1822.345478453</ele>
        <time>2015-06-11T10:39:19Z</time>
      </trkpt>
      <trkpt lat="45.42836" lon="5.93487">
        <ele>1822.345478453</ele>
        <time>2015-06-11T10:39:24Z</time>
      </trkpt>
      <trkpt lat="45.42836" lon="5.93487">
        <ele>1822.345478453</ele>
        <time>2015-06-11T10:39:28Z</time>
      </trkpt>
      <trkpt lat="45.42836" lon="5.93487">
        <ele>1822.345478453</ele>
        <time>2015-06-11T10:39:33Z</time>
      </trkpt>
      <trkpt lat="45.42836" lon="5.93487">
        <ele>1822.345478453</ele>
        <time>2015-06-11T10:39:39Z</time>
      </trkpt>
      <trkpt lat="45.42836" lon="5.93487">
        <ele>1822.345478453</ele>
        <time>2015-06-11T10:39:44Z</time>
      </trkpt>
      <trkpt lat="45.42836" lon="5.93487">
        <ele>1822.345478453</ele>
        <time>2015-06-11T10:39:49Z</time>
      </trkpt>
      <trkpt lat="45.42836" lon="5.93487">
        <ele>1822.345478453</ele>
        <time>2015-06-11T10:39:54Z</time>
      </trkpt>
      <trkpt lat="45.42836" lon="5.93487">
        <ele>1822.345478453</ele>
        <time>2015-06-11T10:39:58Z</time>
      </trkpt>
      <trkpt lat="45.42836" lon="5.93487">
        <ele>1822.345478453</ele>
        <time>2015-06-11T10:40:04Z</time>
      </trkpt>
      <trkpt lat="45.42836" lon="5.93487">
        <ele>1822.345478453</ele>
        <time>2015-06-11T10:40:09Z</time>
      </trkpt>
      <trkpt lat="45.42836" lon="5.93487">
        <ele>1822.345478453</ele>
        <time>2015-06-11T10:40:13Z</time>
      </trkpt>
      <trkpt lat="45.42836" lon="5.93487">
        <ele>1822.345478453</ele>
        <time>2015-06-11T10:40:18Z</time>
      </trkpt>
      <trkpt lat="45.42836" lon="5.93487">
        <ele>1822.345478453</ele>
        <time>2015-06-11T10:40:23Z</time>
      </trkpt>
      <trkpt lat="45.42836" lon="5.93487">
        <ele>1822.345478453</ele>
        <time>2015-06-11T10:40:29Z</time>
      </trkpt>
      <trkpt lat="45.42837" lon="5.93487">
        <ele>1822.345478453</ele>
        <time>2015-06-11T10:40:34Z</time>
      </trkpt>
      <trkpt lat="45.42836" lon="5.93487">
        <ele>1822.345478453</ele>
        <time>2015-06-11T10:40:39Z</time>
      </trkpt>
      <trkpt lat="45.42837" lon="5.93487">
        <ele>1822.345478453</ele>
        <time>2015-06-11T10:40:44Z</time>
      </trkpt>
      <trkpt lat="45.42837" lon="5.93487">
        <ele>1822.345478453</ele>
        <time>2015-06-11T10:40:49Z</time>
      </trkpt>
      <trkpt lat="45.42837" lon="5.93487">
        <ele>1822.345478453</ele>
        <time>2015-06-11T10:40:53Z</time>
      </trkpt>
      <trkpt lat="45.42837" lon="5.93487">
        <ele>1822.345478453</ele>
        <time>2015-06-11T10:40:59Z</time>
      </trkpt>
      <trkpt lat="45.42837" lon="5.93487">
        <ele>1822.345478453</ele>
        <time>2015-06-11T10:41:03Z</time>
      </trkpt>
      <trkpt lat="45.42835" lon="5.9349">
        <ele>1821.082728681</ele>
        <time>2015-06-11T10:41:09Z</time>
      </trkpt>
      <trkpt lat="45.42833" lon="5.93488">
        <ele>1821.082728681</ele>
        <time>2015-06-11T10:41:14Z</time>
      </trkpt>
      <trkpt lat="45.42829" lon="5.93484">
        <ele>1821.082728681</ele>
        <time>2015-06-11T10:41:19Z</time>
      </trkpt>
      <trkpt lat="45.42828" lon="5.93482">
        <ele>1821.082728681</ele>
        <time>2015-06-11T10:41:24Z</time>
      </trkpt>
      <trkpt lat="45.42825" lon="5.93489">
        <ele>1819.368533205</ele>
        <time>2015-06-11T10:41:27Z</time>
      </trkpt>
      <trkpt lat="45.42825" lon="5.93487">
        <ele>1819.368533205</ele>
        <time>2015-06-11T10:41:33Z</time>
      </trkpt>
      <trkpt lat="45.42828" lon="5.93483">
        <ele>1819.368533205</ele>
        <time>2015-06-11T10:41:37Z</time>
      </trkpt>
      <trkpt lat="45.42829" lon="5.93486">
        <ele>1819.368533205</ele>
        <time>2015-06-11T10:41:42Z</time>
      </trkpt>
      <trkpt lat="45.42829" lon="5.93485">
        <ele>1819.368533205</ele>
        <time>2015-06-11T10:41:49Z</time>
      </trkpt>
      <trkpt lat="45.42829" lon="5.93485">
        <ele>1819.368533205</ele>
        <time>2015-06-11T10:41:54Z</time>
      </trkpt>
      <trkpt lat="45.42829" lon="5.93485">
        <ele>1819.368533205</ele>
        <time>2015-06-11T10:41:59Z</time>
      </trkpt>
      <trkpt lat="45.42829" lon="5.93485">
        <ele>1819.368533205</ele>
        <time>2015-06-11T10:42:04Z</time>
      </trkpt>
      <trkpt lat="45.42829" lon="5.93485">
        <ele>1819.368533205</ele>
        <time>2015-06-11T10:42:09Z</time>
      </trkpt>
      <trkpt lat="45.42829" lon="5.93485">
        <ele>1819.368533205</ele>
        <time>2015-06-11T10:42:13Z</time>
      </trkpt>
      <trkpt lat="45.42828" lon="5.93484">
        <ele>1818.969827486</ele>
        <time>2015-06-11T10:42:19Z</time>
      </trkpt>
      <trkpt lat="45.42823" lon="5.93481">
        <ele>1818.969827486</ele>
        <time>2015-06-11T10:42:24Z</time>
      </trkpt>
      <trkpt lat="45.42821" lon="5.93469">
        <ele>1818.061312507</ele>
        <time>2015-06-11T10:42:29Z</time>
      </trkpt>
      <trkpt lat="45.4282" lon="5.93464">
        <ele>1818.061312507</ele>
        <time>2015-06-11T10:42:34Z</time>
      </trkpt>
      <trkpt lat="45.42819" lon="5.93464">
        <ele>1818.061312507</ele>
        <time>2015-06-11T10:42:39Z</time>
      </trkpt>
      <trkpt lat="45.42818" lon="5.93462">
        <ele>1818.061312507</ele>
        <time>2015-06-11T10:42:43Z</time>
      </trkpt>
      <trkpt lat="45.42816" lon="5.93459">
        <ele>1818.267684042</ele>
        <time>2015-06-11T10:42:49Z</time>
      </trkpt>
      <trkpt lat="45.42816" lon="5.93457">
        <ele>1818.267684042</ele>
        <time>2015-06-11T10:42:54Z</time>
      </trkpt>
      <trkpt lat="45.42815" lon="5.93455">
        <ele>1818.267684042</ele>
        <time>2015-06-11T10:42:59Z</time>
      </trkpt>
      <trkpt lat="45.42814" lon="5.93451">
        <ele>1818.267684042</ele>
        <time>2015-06-11T10:43:04Z</time>
      </trkpt>
      <trkpt lat="45.42815" lon="5.9345">
        <ele>1818.267684042</ele>
        <time>2015-06-11T10:43:08Z</time>
      </trkpt>
      <trkpt lat="45.42814" lon="5.93448">
        <ele>1818.267684042</ele>
        <time>2015-06-11T10:43:13Z</time>
      </trkpt>
      <trkpt lat="45.42812" lon="5.93444">
        <ele>1818.497085675</ele>
        <time>2015-06-11T10:43:19Z</time>
      </trkpt>
      <trkpt lat="45.42815" lon="5.93442">
        <ele>1818.497085675</ele>
        <time>2015-06-11T10:43:24Z</time>
      </trkpt>
      <trkpt lat="45.42819" lon="5.93443">
        <ele>1818.497085675</ele>
        <time>2015-06-11T10:43:29Z</time>
      </trkpt>
      <trkpt lat="45.42823" lon="5.93449">
        <ele>1819.322959245</ele>
        <time>2015-06-11T10:43:34Z</time>
      </trkpt>
      <trkpt lat="45.42826" lon="5.93454">
        <ele>1819.322959245</ele>
        <time>2015-06-11T10:43:39Z</time>
      </trkpt>
      <trkpt lat="45.42829" lon="5.93458">
        <ele>1820.554335712</ele>
        <time>2015-06-11T10:43:44Z</time>
      </trkpt>
      <trkpt lat="45.42834" lon="5.93462">
        <ele>1820.554335712</ele>
        <time>2015-06-11T10:43:49Z</time>
      </trkpt>
      <trkpt lat="45.42835" lon="5.93467">
        <ele>1821.724870223</ele>
        <time>2015-06-11T10:43:54Z</time>
      </trkpt>
      <trkpt lat="45.42836" lon="5.93472">
        <ele>1821.724870223</ele>
        <time>2015-06-11T10:43:59Z</time>
      </trkpt>
      <trkpt lat="45.42835" lon="5.93475">
        <ele>1821.724870223</ele>
        <time>2015-06-11T10:44:04Z</time>
      </trkpt>
      <trkpt lat="45.42838" lon="5.9348">
        <ele>1823.267283077</ele>
        <time>2015-06-11T10:44:09Z</time>
      </trkpt>
      <trkpt lat="45.42838" lon="5.93482">
        <ele>1823.267283077</ele>
        <time>2015-06-11T10:44:14Z</time>
      </trkpt>
      <trkpt lat="45.42838" lon="5.93482">
        <ele>1823.267283077</ele>
        <time>2015-06-11T10:44:19Z</time>
      </trkpt>
      <trkpt lat="45.42843" lon="5.93482">
        <ele>1823.267283077</ele>
        <time>2015-06-11T10:44:23Z</time>
      </trkpt>
      <trkpt lat="45.42847" lon="5.93484">
        <ele>1824.716782301</ele>
        <time>2015-06-11T10:44:27Z</time>
      </trkpt>
      <trkpt lat="45.42851" lon="5.93488">
        <ele>1824.716782301</ele>
        <time>2015-06-11T10:44:32Z</time>
      </trkpt>
      <trkpt lat="45.42852" lon="5.93491">
        <ele>1824.716782301</ele>
        <time>2015-06-11T10:44:39Z</time>
      </trkpt>
      <trkpt lat="45.42852" lon="5.93492">
        <ele>1824.716782301</ele>
        <time>2015-06-11T10:44:44Z</time>
      </trkpt>
      <trkpt lat="45.42851" lon="5.93493">
        <ele>1826.363536651</ele>
        <time>2015-06-11T10:44:49Z</time>
      </trkpt>
      <trkpt lat="45.42851" lon="5.93493">
        <ele>1826.363536651</ele>
        <time>2015-06-11T10:44:54Z</time>
      </trkpt>
      <trkpt lat="45.42851" lon="5.93493">
        <ele>1826.363536651</ele>
        <time>2015-06-11T10:44:59Z</time>
      </trkpt>
      <trkpt lat="45.42851" lon="5.93493">
        <ele>1826.363536651</ele>
        <time>2015-06-11T10:45:04Z</time>
      </trkpt>
      <trkpt lat="45.42851" lon="5.93493">
        <ele>1826.363536651</ele>
        <time>2015-06-11T10:45:09Z</time>
      </trkpt>
      <trkpt lat="45.42851" lon="5.93493">
        <ele>1826.363536651</ele>
        <time>2015-06-11T10:45:14Z</time>
      </trkpt>
      <trkpt lat="45.42851" lon="5.93493">
        <ele>1826.363536651</ele>
        <time>2015-06-11T10:45:19Z</time>
      </trkpt>
      <trkpt lat="45.42854" lon="5.93486">
        <ele>1826.363536651</ele>
        <time>2015-06-11T10:45:23Z</time>
      </trkpt>
      <trkpt lat="45.42856" lon="5.93481">
        <ele>1827.611194212</ele>
        <time>2015-06-11T10:45:29Z</time>
      </trkpt>
      <trkpt lat="45.42858" lon="5.93474">
        <ele>1827.611194212</ele>
        <time>2015-06-11T10:45:34Z</time>
      </trkpt>
      <trkpt lat="45.4286" lon="5.93467">
        <ele>1828.340691691</ele>
        <time>2015-06-11T10:45:39Z</time>
      </trkpt>
      <trkpt lat="45.42862" lon="5.93462">
        <ele>1828.340691691</ele>
        <time>2015-06-11T10:45:43Z</time>
      </trkpt>
      <trkpt lat="45.42866" lon="5.93455">
        <ele>1828.875537012</ele>
        <time>2015-06-11T10:45:49Z</time>
      </trkpt>
      <trkpt lat="45.4287" lon="5.93448">
        <ele>1828.875537012</ele>
        <time>2015-06-11T10:45:54Z</time>
      </trkpt>
      <trkpt lat="45.42875" lon="5.93445">
        <ele>1829.516064645</ele>
        <time>2015-06-11T10:45:59Z</time>
      </trkpt>
      <trkpt lat="45.42883" lon="5.93443">
        <ele>1829.516064645</ele>
        <time>2015-06-11T10:46:04Z</time>
      </trkpt>
      <trkpt lat="45.42887" lon="5.93445">
        <ele>1829.67563241</ele>
        <time>2015-06-11T10:46:09Z</time>
      </trkpt>
      <trkpt lat="45.4289" lon="5.93447">
        <ele>1829.67563241</ele>
        <time>2015-06-11T10:46:14Z</time>
      </trkpt>
      <trkpt lat="45.42893" lon="5.93452">
        <ele>1829.67563241</ele>
        <time>2015-06-11T10:46:19Z</time>
      </trkpt>
      <trkpt lat="45.429" lon="5.93455">
        <ele>1829.676759726</ele>
        <time>2015-06-11T10:46:24Z</time>
      </trkpt>
      <trkpt lat="45.42904" lon="5.93457">
        <ele>1829.676759726</ele>
        <time>2015-06-11T10:46:29Z</time>
      </trkpt>
      <trkpt lat="45.42909" lon="5.93457">
        <ele>1830.106992675</ele>
        <time>2015-06-11T10:46:34Z</time>
      </trkpt>
      <trkpt lat="45.42914" lon="5.93461">
        <ele>1830.106992675</ele>
        <time>2015-06-11T10:46:39Z</time>
      </trkpt>
      <trkpt lat="45.42918" lon="5.93464">
        <ele>1830.789009507</ele>
        <time>2015-06-11T10:46:44Z</time>
      </trkpt>
      <trkpt lat="45.42922" lon="5.93468">
        <ele>1830.789009507</ele>
        <time>2015-06-11T10:46:49Z</time>
      </trkpt>
      <trkpt lat="45.42926" lon="5.9347">
        <ele>1831.557861454</ele>
        <time>2015-06-11T10:46:54Z</time>
      </trkpt>
      <trkpt lat="45.42932" lon="5.93469">
        <ele>1831.557861454</ele>
        <time>2015-06-11T10:46:59Z</time>
      </trkpt>
      <trkpt lat="45.42934" lon="5.93469">
        <ele>1831.557861454</ele>
        <time>2015-06-11T10:47:04Z</time>
      </trkpt>
      <trkpt lat="45.42937" lon="5.9347">
        <ele>1831.684082627</ele>
        <time>2015-06-11T10:47:09Z</time>
      </trkpt>
      <trkpt lat="45.4294" lon="5.93472">
        <ele>1831.684082627</ele>
        <time>2015-06-11T10:47:14Z</time>
      </trkpt>
      <trkpt lat="45.42943" lon="5.93474">
        <ele>1831.684082627</ele>
        <time>2015-06-11T10:47:19Z</time>
      </trkpt>
      <trkpt lat="45.42945" lon="5.93476">
        <ele>1831.214205861</ele>
        <time>2015-06-11T10:47:24Z</time>
      </trkpt>
      <trkpt lat="45.42953" lon="5.93476">
        <ele>1831.214205861</ele>
        <time>2015-06-11T10:47:29Z</time>
      </trkpt>
      <trkpt lat="45.4296" lon="5.93475">
        <ele>1830.625403353</ele>
        <time>2015-06-11T10:47:33Z</time>
      </trkpt>
      <trkpt lat="45.42964" lon="5.93477">
        <ele>1830.625403353</ele>
        <time>2015-06-11T10:47:38Z</time>
      </trkpt>
      <trkpt lat="45.42964" lon="5.93477">
        <ele>1830.625403353</ele>
        <time>2015-06-11T10:47:44Z</time>
      </trkpt>
      <trkpt lat="45.42964" lon="5.93477">
        <ele>1830.625403353</ele>
        <time>2015-06-11T10:47:49Z</time>
      </trkpt>
      <trkpt lat="45.42965" lon="5.93478">
        <ele>1830.625403353</ele>
        <time>2015-06-11T10:47:54Z</time>
      </trkpt>
      <trkpt lat="45.42965" lon="5.93478">
        <ele>1830.625403353</ele>
        <time>2015-06-11T10:47:58Z</time>
      </trkpt>
      <trkpt lat="45.42965" lon="5.93478">
        <ele>1830.625403353</ele>
        <time>2015-06-11T10:48:04Z</time>
      </trkpt>
      <trkpt lat="45.42972" lon="5.93483">
        <ele>1830.216064551</ele>
        <time>2015-06-11T10:48:09Z</time>
      </trkpt>
      <trkpt lat="45.42976" lon="5.93487">
        <ele>1830.216064551</ele>
        <time>2015-06-11T10:48:14Z</time>
      </trkpt>
      <trkpt lat="45.42979" lon="5.9349">
        <ele>1830.216064551</ele>
        <time>2015-06-11T10:48:19Z</time>
      </trkpt>
      <trkpt lat="45.42979" lon="5.93497">
        <ele>1829.97397529</ele>
        <time>2015-06-11T10:48:24Z</time>
      </trkpt>
      <trkpt lat="45.42979" lon="5.935">
        <ele>1829.97397529</ele>
        <time>2015-06-11T10:48:29Z</time>
      </trkpt>
      <trkpt lat="45.4298" lon="5.93505">
        <ele>1829.97397529</ele>
        <time>2015-06-11T10:48:34Z</time>
      </trkpt>
      <trkpt lat="45.42978" lon="5.93516">
        <ele>1829.887385379</ele>
        <time>2015-06-11T10:48:39Z</time>
      </trkpt>
      <trkpt lat="45.42977" lon="5.9352">
        <ele>1829.887385379</ele>
        <time>2015-06-11T10:48:44Z</time>
      </trkpt>
      <trkpt lat="45.42974" lon="5.93525">
        <ele>1829.887385379</ele>
        <time>2015-06-11T10:48:49Z</time>
      </trkpt>
      <trkpt lat="45.42974" lon="5.93527">
        <ele>1829.887385379</ele>
        <time>2015-06-11T10:48:54Z</time>
      </trkpt>
      <trkpt lat="45.42974" lon="5.93527">
        <ele>1829.887385379</ele>
        <time>2015-06-11T10:48:59Z</time>
      </trkpt>
      <trkpt lat="45.42974" lon="5.93527">
        <ele>1829.945003049</ele>
        <time>2015-06-11T10:49:04Z</time>
      </trkpt>
      <trkpt lat="45.42974" lon="5.93527">
        <ele>1829.945003049</ele>
        <time>2015-06-11T10:49:09Z</time>
      </trkpt>
      <trkpt lat="45.42974" lon="5.93527">
        <ele>1829.945003049</ele>
        <time>2015-06-11T10:49:14Z</time>
      </trkpt>
      <trkpt lat="45.42974" lon="5.93527">
        <ele>1829.945003049</ele>
        <time>2015-06-11T10:49:19Z</time>
      </trkpt>
      <trkpt lat="45.42974" lon="5.93527">
        <ele>1829.945003049</ele>
        <time>2015-06-11T10:49:23Z</time>
      </trkpt>
      <trkpt lat="45.42974" lon="5.93527">
        <ele>1829.945003049</ele>
        <time>2015-06-11T10:49:29Z</time>
      </trkpt>
      <trkpt lat="45.42974" lon="5.93527">
        <ele>1829.945003049</ele>
        <time>2015-06-11T10:49:34Z</time>
      </trkpt>
      <trkpt lat="45.42974" lon="5.93527">
        <ele>1829.945003049</ele>
        <time>2015-06-11T10:49:39Z</time>
      </trkpt>
      <trkpt lat="45.42974" lon="5.93527">
        <ele>1829.945003049</ele>
        <time>2015-06-11T10:49:44Z</time>
      </trkpt>
      <trkpt lat="45.42976" lon="5.93527">
        <ele>1829.945003049</ele>
        <time>2015-06-11T10:49:49Z</time>
      </trkpt>
      <trkpt lat="45.42977" lon="5.93526">
        <ele>1829.945003049</ele>
        <time>2015-06-11T10:49:53Z</time>
      </trkpt>
      <trkpt lat="45.42977" lon="5.93526">
        <ele>1829.945003049</ele>
        <time>2015-06-11T10:49:59Z</time>
      </trkpt>
      <trkpt lat="45.42981" lon="5.93526">
        <ele>1829.945003049</ele>
        <time>2015-06-11T10:50:04Z</time>
      </trkpt>
      <trkpt lat="45.42985" lon="5.93526">
        <ele>1829.991878665</ele>
        <time>2015-06-11T10:50:09Z</time>
      </trkpt>
      <trkpt lat="45.42992" lon="5.93526">
        <ele>1829.991878665</ele>
        <time>2015-06-11T10:50:14Z</time>
      </trkpt>
      <trkpt lat="45.42998" lon="5.93523">
        <ele>1830.172724013</ele>
        <time>2015-06-11T10:50:19Z</time>
      </trkpt>
      <trkpt lat="45.43006" lon="5.93522">
        <ele>1830.172724013</ele>
        <time>2015-06-11T10:50:23Z</time>
      </trkpt>
      <trkpt lat="45.43012" lon="5.93524">
        <ele>1830.765381747</ele>
        <time>2015-06-11T10:50:29Z</time>
      </trkpt>
      <trkpt lat="45.43018" lon="5.93526">
        <ele>1830.765381747</ele>
        <time>2015-06-11T10:50:33Z</time>
      </trkpt>
      <trkpt lat="45.43025" lon="5.93527">
        <ele>1831.161488213</ele>
        <time>2015-06-11T10:50:38Z</time>
      </trkpt>
      <trkpt lat="45.4303" lon="5.93529">
        <ele>1831.161488213</ele>
        <time>2015-06-11T10:50:44Z</time>
      </trkpt>
      <trkpt lat="45.43039" lon="5.93527">
        <ele>1831.374392525</ele>
        <time>2015-06-11T10:50:49Z</time>
      </trkpt>
      <trkpt lat="45.43044" lon="5.93525">
        <ele>1831.374392525</ele>
        <time>2015-06-11T10:50:54Z</time>
      </trkpt>
      <trkpt lat="45.43045" lon="5.93518">
        <ele>1831.849338541</ele>
        <time>2015-06-11T10:50:59Z</time>
      </trkpt>
      <trkpt lat="45.43048" lon="5.93517">
        <ele>1831.849338541</ele>
        <time>2015-06-11T10:51:04Z</time>
      </trkpt>
      <trkpt lat="45.43045" lon="5.93511">
        <ele>1831.849338541</ele>
        <time>2015-06-11T10:51:09Z</time>
      </trkpt>
      <trkpt lat="45.43046" lon="5.93512">
        <ele>1831.849338541</ele>
        <time>2015-06-11T10:51:14Z</time>
      </trkpt>
      <trkpt lat="45.43044" lon="5.93509">
        <ele>1831.70115523</ele>
        <time>2015-06-11T10:51:19Z</time>
      </trkpt>
      <trkpt lat="45.43048" lon="5.93509">
        <ele>1831.70115523</ele>
        <time>2015-06-11T10:51:24Z</time>
      </trkpt>
      <trkpt lat="45.43049" lon="5.9351">
        <ele>1831.70115523</ele>
        <time>2015-06-11T10:51:29Z</time>
      </trkpt>
      <trkpt lat="45.43049" lon="5.93511">
        <ele>1831.70115523</ele>
        <time>2015-06-11T10:51:34Z</time>
      </trkpt>
      <trkpt lat="45.43051" lon="5.93512">
        <ele>1831.70115523</ele>
        <time>2015-06-11T10:51:39Z</time>
      </trkpt>
      <trkpt lat="45.43057" lon="5.93515">
        <ele>1832.273139684</ele>
        <time>2015-06-11T10:51:44Z</time>
      </trkpt>
      <trkpt lat="45.43062" lon="5.93513">
        <ele>1832.273139684</ele>
        <time>2015-06-11T10:51:49Z</time>
      </trkpt>
      <trkpt lat="45.43068" lon="5.93513">
        <ele>1832.934474516</ele>
        <time>2015-06-11T10:51:53Z</time>
      </trkpt>
      <trkpt lat="45.43074" lon="5.93512">
        <ele>1832.934474516</ele>
        <time>2015-06-11T10:51:59Z</time>
      </trkpt>
      <trkpt lat="45.43078" lon="5.9351">
        <ele>1833.676905708</ele>
        <time>2015-06-11T10:52:04Z</time>
      </trkpt>
      <trkpt lat="45.4308" lon="5.93514">
        <ele>1833.676905708</ele>
        <time>2015-06-11T10:52:09Z</time>
      </trkpt>
      <trkpt lat="45.43084" lon="5.93519">
        <ele>1833.916144232</ele>
        <time>2015-06-11T10:52:14Z</time>
      </trkpt>
      <trkpt lat="45.43089" lon="5.93522">
        <ele>1833.916144232</ele>
        <time>2015-06-11T10:52:19Z</time>
      </trkpt>
      <trkpt lat="45.43093" lon="5.93524">
        <ele>1833.544598862</ele>
        <time>2015-06-11T10:52:24Z</time>
      </trkpt>
      <trkpt lat="45.43097" lon="5.93529">
        <ele>1833.544598862</ele>
        <time>2015-06-11T10:52:29Z</time>
      </trkpt>
      <trkpt lat="45.431" lon="5.93535">
        <ele>1833.473103913</ele>
        <time>2015-06-11T10:52:34Z</time>
      </trkpt>
      <trkpt lat="45.43104" lon="5.93543">
        <ele>1833.473103913</ele>
        <time>2015-06-11T10:52:38Z</time>
      </trkpt>
      <trkpt lat="45.43105" lon="5.9355">
        <ele>1833.247769617</ele>
        <time>2015-06-11T10:52:44Z</time>
      </trkpt>
      <trkpt lat="45.43108" lon="5.93557">
        <ele>1833.247769617</ele>
        <time>2015-06-11T10:52:49Z</time>
      </trkpt>
      <trkpt lat="45.43109" lon="5.93562">
        <ele>1833.745505282</ele>
        <time>2015-06-11T10:52:54Z</time>
      </trkpt>
      <trkpt lat="45.43112" lon="5.9357">
        <ele>1833.745505282</ele>
        <time>2015-06-11T10:52:59Z</time>
      </trkpt>
      <trkpt lat="45.43115" lon="5.93578">
        <ele>1834.047462367</ele>
        <time>2015-06-11T10:53:04Z</time>
      </trkpt>
      <trkpt lat="45.43119" lon="5.93585">
        <ele>1834.047462367</ele>
        <time>2015-06-11T10:53:09Z</time>
      </trkpt>
      <trkpt lat="45.4312" lon="5.93586">
        <ele>1834.047462367</ele>
        <time>2015-06-11T10:53:14Z</time>
      </trkpt>
      <trkpt lat="45.4312" lon="5.93594">
        <ele>1834.599861112</ele>
        <time>2015-06-11T10:53:19Z</time>
      </trkpt>
      <trkpt lat="45.43122" lon="5.93595">
        <ele>1834.599861112</ele>
        <time>2015-06-11T10:53:24Z</time>
      </trkpt>
      <trkpt lat="45.43121" lon="5.93601">
        <ele>1834.599861112</ele>
        <time>2015-06-11T10:53:29Z</time>
      </trkpt>
      <trkpt lat="45.43121" lon="5.93606">
        <ele>1834.950794104</ele>
        <time>2015-06-11T10:53:33Z</time>
      </trkpt>
      <trkpt lat="45.43122" lon="5.93606">
        <ele>1834.950794104</ele>
        <time>2015-06-11T10:53:38Z</time>
      </trkpt>
      <trkpt lat="45.43121" lon="5.93607">
        <ele>1834.950794104</ele>
        <time>2015-06-11T10:53:42Z</time>
      </trkpt>
      <trkpt lat="45.43121" lon="5.93607">
        <ele>1834.950794104</ele>
        <time>2015-06-11T10:53:48Z</time>
      </trkpt>
      <trkpt lat="45.43121" lon="5.93607">
        <ele>1834.950794104</ele>
        <time>2015-06-11T10:53:53Z</time>
      </trkpt>
      <trkpt lat="45.43121" lon="5.93607">
        <ele>1834.950794104</ele>
        <time>2015-06-11T10:54:04Z</time>
      </trkpt>
      <trkpt lat="45.43121" lon="5.93607">
        <ele>1834.950794104</ele>
        <time>2015-06-11T10:54:07Z</time>
      </trkpt>
      <trkpt lat="45.43121" lon="5.93607">
        <ele>1834.950794104</ele>
        <time>2015-06-11T10:54:14Z</time>
      </trkpt>
      <trkpt lat="45.43121" lon="5.93607">
        <ele>1834.950794104</ele>
        <time>2015-06-11T10:54:19Z</time>
      </trkpt>
      <trkpt lat="45.43121" lon="5.93607">
        <ele>1834.950794104</ele>
        <time>2015-06-11T10:54:24Z</time>
      </trkpt>
      <trkpt lat="45.43121" lon="5.93607">
        <ele>1834.950794104</ele>
        <time>2015-06-11T10:54:28Z</time>
      </trkpt>
      <trkpt lat="45.43121" lon="5.93607">
        <ele>1834.950794104</ele>
        <time>2015-06-11T10:54:33Z</time>
      </trkpt>
      <trkpt lat="45.43121" lon="5.93607">
        <ele>1834.950794104</ele>
        <time>2015-06-11T10:54:39Z</time>
      </trkpt>
      <trkpt lat="45.43121" lon="5.93608">
        <ele>1834.950794104</ele>
        <time>2015-06-11T10:54:44Z</time>
      </trkpt>
      <trkpt lat="45.43123" lon="5.93614">
        <ele>1834.950794104</ele>
        <time>2015-06-11T10:54:49Z</time>
      </trkpt>
      <trkpt lat="45.43123" lon="5.93616">
        <ele>1834.950794104</ele>
        <time>2015-06-11T10:54:53Z</time>
      </trkpt>
      <trkpt lat="45.43123" lon="5.93616">
        <ele>1834.950794104</ele>
        <time>2015-06-11T10:54:59Z</time>
      </trkpt>
      <trkpt lat="45.43123" lon="5.93617">
        <ele>1834.950794104</ele>
        <time>2015-06-11T10:55:04Z</time>
      </trkpt>
      <trkpt lat="45.43123" lon="5.93617">
        <ele>1834.950794104</ele>
        <time>2015-06-11T10:55:09Z</time>
      </trkpt>
      <trkpt lat="45.43123" lon="5.93617">
        <ele>1834.950794104</ele>
        <time>2015-06-11T10:55:14Z</time>
      </trkpt>
      <trkpt lat="45.43122" lon="5.93626">
        <ele>1834.105690958</ele>
        <time>2015-06-11T10:55:19Z</time>
      </trkpt>
      <trkpt lat="45.43124" lon="5.93627">
        <ele>1834.105690958</ele>
        <time>2015-06-11T10:55:24Z</time>
      </trkpt>
      <trkpt lat="45.43123" lon="5.93622">
        <ele>1834.105690958</ele>
        <time>2015-06-11T10:55:29Z</time>
      </trkpt>
      <trkpt lat="45.43122" lon="5.93618">
        <ele>1831.866967104</ele>
        <time>2015-06-11T10:55:34Z</time>
      </trkpt>
      <trkpt lat="45.43118" lon="5.93618">
        <ele>1831.866967104</ele>
        <time>2015-06-11T10:55:39Z</time>
      </trkpt>
      <trkpt lat="45.43118" lon="5.93618">
        <ele>1831.866967104</ele>
        <time>2015-06-11T10:55:44Z</time>
      </trkpt>
      <trkpt lat="45.43119" lon="5.93618">
        <ele>1831.866967104</ele>
        <time>2015-06-11T10:55:49Z</time>
      </trkpt>
      <trkpt lat="45.43119" lon="5.93618">
        <ele>1831.866967104</ele>
        <time>2015-06-11T10:55:53Z</time>
      </trkpt>
      <trkpt lat="45.43119" lon="5.93618">
        <ele>1831.866967104</ele>
        <time>2015-06-11T10:55:59Z</time>
      </trkpt>
      <trkpt lat="45.43118" lon="5.93618">
        <ele>1831.866967104</ele>
        <time>2015-06-11T10:56:04Z</time>
      </trkpt>
      <trkpt lat="45.43118" lon="5.93618">
        <ele>1831.866967104</ele>
        <time>2015-06-11T10:56:09Z</time>
      </trkpt>
      <trkpt lat="45.43118" lon="5.93618">
        <ele>1831.866967104</ele>
        <time>2015-06-11T10:56:14Z</time>
      </trkpt>
      <trkpt lat="45.43118" lon="5.93618">
        <ele>1831.866967104</ele>
        <time>2015-06-11T10:56:19Z</time>
      </trkpt>
      <trkpt lat="45.43117" lon="5.9362">
        <ele>1831.866967104</ele>
        <time>2015-06-11T10:56:24Z</time>
      </trkpt>
      <trkpt lat="45.43114" lon="5.93626">
        <ele>1829.208355228</ele>
        <time>2015-06-11T10:56:28Z</time>
      </trkpt>
      <trkpt lat="45.43113" lon="5.93632">
        <ele>1829.208355228</ele>
        <time>2015-06-11T10:56:33Z</time>
      </trkpt>
      <trkpt lat="45.43112" lon="5.93631">
        <ele>1829.208355228</ele>
        <time>2015-06-11T10:56:39Z</time>
      </trkpt>
      <trkpt lat="45.43111" lon="5.93631">
        <ele>1829.208355228</ele>
        <time>2015-06-11T10:56:44Z</time>
      </trkpt>
      <trkpt lat="45.4311" lon="5.93631">
        <ele>1829.208355228</ele>
        <time>2015-06-11T10:56:49Z</time>
      </trkpt>
      <trkpt lat="45.4311" lon="5.93631">
        <ele>1829.208355228</ele>
        <time>2015-06-11T10:56:54Z</time>
      </trkpt>
      <trkpt lat="45.4311" lon="5.93631">
        <ele>1829.208355228</ele>
        <time>2015-06-11T10:56:59Z</time>
      </trkpt>
      <trkpt lat="45.4311" lon="5.93631">
        <ele>1829.208355228</ele>
        <time>2015-06-11T10:57:04Z</time>
      </trkpt>
      <trkpt lat="45.4311" lon="5.93631">
        <ele>1829.208355228</ele>
        <time>2015-06-11T10:57:09Z</time>
      </trkpt>
      <trkpt lat="45.4311" lon="5.93631">
        <ele>1829.208355228</ele>
        <time>2015-06-11T10:57:12Z</time>
      </trkpt>
      <trkpt lat="45.4311" lon="5.93631">
        <ele>1829.208355228</ele>
        <time>2015-06-11T10:57:17Z</time>
      </trkpt>
      <trkpt lat="45.4311" lon="5.93631">
        <ele>1829.208355228</ele>
        <time>2015-06-11T10:57:23Z</time>
      </trkpt>
      <trkpt lat="45.4311" lon="5.93631">
        <ele>1829.208355228</ele>
        <time>2015-06-11T10:57:29Z</time>
      </trkpt>
      <trkpt lat="45.4311" lon="5.93631">
        <ele>1829.208355228</ele>
        <time>2015-06-11T10:57:34Z</time>
      </trkpt>
      <trkpt lat="45.43111" lon="5.93644">
        <ele>1825.880334015</ele>
        <time>2015-06-11T10:57:39Z</time>
      </trkpt>
      <trkpt lat="45.43119" lon="5.93649">
        <ele>1825.880334015</ele>
        <time>2015-06-11T10:57:44Z</time>
      </trkpt>
      <trkpt lat="45.43121" lon="5.9365">
        <ele>1822.518222354</ele>
        <time>2015-06-11T10:57:49Z</time>
      </trkpt>
      <trkpt lat="45.43123" lon="5.93648">
        <ele>1822.518222354</ele>
        <time>2015-06-11T10:57:54Z</time>
      </trkpt>
      <trkpt lat="45.43123" lon="5.93648">
        <ele>1822.518222354</ele>
        <time>2015-06-11T10:57:59Z</time>
      </trkpt>
      <trkpt lat="45.43123" lon="5.93648">
        <ele>1822.518222354</ele>
        <time>2015-06-11T10:58:04Z</time>
      </trkpt>
      <trkpt lat="45.43123" lon="5.93648">
        <ele>1822.518222354</ele>
        <time>2015-06-11T10:58:09Z</time>
      </trkpt>
      <trkpt lat="45.43123" lon="5.93648">
        <ele>1822.518222354</ele>
        <time>2015-06-11T10:58:14Z</time>
      </trkpt>
      <trkpt lat="45.43124" lon="5.9365">
        <ele>1822.518222354</ele>
        <time>2015-06-11T10:58:19Z</time>
      </trkpt>
      <trkpt lat="45.43123" lon="5.93654">
        <ele>1822.518222354</ele>
        <time>2015-06-11T10:58:24Z</time>
      </trkpt>
      <trkpt lat="45.43123" lon="5.93655">
        <ele>1819.134261517</ele>
        <time>2015-06-11T10:58:29Z</time>
      </trkpt>
      <trkpt lat="45.43124" lon="5.93657">
        <ele>1819.134261517</ele>
        <time>2015-06-11T10:58:34Z</time>
      </trkpt>
      <trkpt lat="45.43123" lon="5.93658">
        <ele>1819.134261517</ele>
        <time>2015-06-11T10:58:39Z</time>
      </trkpt>
      <trkpt lat="45.43123" lon="5.93658">
        <ele>1819.134261517</ele>
        <time>2015-06-11T10:58:44Z</time>
      </trkpt>
      <trkpt lat="45.43123" lon="5.93658">
        <ele>1819.134261517</ele>
        <time>2015-06-11T10:58:49Z</time>
      </trkpt>
      <trkpt lat="45.43124" lon="5.9366">
        <ele>1819.134261517</ele>
        <time>2015-06-11T10:58:54Z</time>
      </trkpt>
      <trkpt lat="45.43125" lon="5.93661">
        <ele>1819.134261517</ele>
        <time>2015-06-11T10:58:59Z</time>
      </trkpt>
      <trkpt lat="45.43125" lon="5.93662">
        <ele>1819.134261517</ele>
        <time>2015-06-11T10:59:04Z</time>
      </trkpt>
      <trkpt lat="45.43126" lon="5.93662">
        <ele>1819.134261517</ele>
        <time>2015-06-11T10:59:09Z</time>
      </trkpt>
      <trkpt lat="45.43125" lon="5.93662">
        <ele>1819.134261517</ele>
        <time>2015-06-11T10:59:14Z</time>
      </trkpt>
      <trkpt lat="45.43126" lon="5.93662">
        <ele>1819.134261517</ele>
        <time>2015-06-11T10:59:19Z</time>
      </trkpt>
      <trkpt lat="45.43126" lon="5.93663">
        <ele>1819.134261517</ele>
        <time>2015-06-11T10:59:24Z</time>
      </trkpt>
      <trkpt lat="45.43126" lon="5.93663">
        <ele>1819.134261517</ele>
        <time>2015-06-11T10:59:29Z</time>
      </trkpt>
      <trkpt lat="45.43127" lon="5.93663">
        <ele>1815.883883742</ele>
        <time>2015-06-11T10:59:34Z</time>
      </trkpt>
      <trkpt lat="45.43128" lon="5.93667">
        <ele>1815.883883742</ele>
        <time>2015-06-11T10:59:39Z</time>
      </trkpt>
      <trkpt lat="45.43124" lon="5.93677">
        <ele>1813.342958444</ele>
        <time>2015-06-11T10:59:44Z</time>
      </trkpt>
      <trkpt lat="45.43126" lon="5.93675">
        <ele>1813.342958444</ele>
        <time>2015-06-11T10:59:49Z</time>
      </trkpt>
      <trkpt lat="45.43126" lon="5.93673">
        <ele>1813.342958444</ele>
        <time>2015-06-11T10:59:54Z</time>
      </trkpt>
      <trkpt lat="45.43125" lon="5.93672">
        <ele>1813.342958444</ele>
        <time>2015-06-11T10:59:59Z</time>
      </trkpt>
      <trkpt lat="45.43124" lon="5.93671">
        <ele>1813.342958444</ele>
        <time>2015-06-11T11:00:04Z</time>
      </trkpt>
      <trkpt lat="45.43124" lon="5.93671">
        <ele>1813.342958444</ele>
        <time>2015-06-11T11:00:09Z</time>
      </trkpt>
      <trkpt lat="45.43124" lon="5.9367">
        <ele>1813.342958444</ele>
        <time>2015-06-11T11:00:14Z</time>
      </trkpt>
      <trkpt lat="45.43124" lon="5.9367">
        <ele>1813.342958444</ele>
        <time>2015-06-11T11:00:17Z</time>
      </trkpt>
      <trkpt lat="45.43124" lon="5.9367">
        <ele>1813.342958444</ele>
        <time>2015-06-11T11:00:23Z</time>
      </trkpt>
      <trkpt lat="45.43124" lon="5.9367">
        <ele>1813.342958444</ele>
        <time>2015-06-11T11:00:27Z</time>
      </trkpt>
      <trkpt lat="45.43124" lon="5.9367">
        <ele>1813.342958444</ele>
        <time>2015-06-11T11:00:33Z</time>
      </trkpt>
      <trkpt lat="45.43124" lon="5.9367">
        <ele>1813.342958444</ele>
        <time>2015-06-11T11:00:38Z</time>
      </trkpt>
      <trkpt lat="45.43124" lon="5.9367">
        <ele>1813.342958444</ele>
        <time>2015-06-11T11:00:43Z</time>
      </trkpt>
      <trkpt lat="45.43124" lon="5.9367">
        <ele>1813.342958444</ele>
        <time>2015-06-11T11:00:48Z</time>
      </trkpt>
      <trkpt lat="45.43124" lon="5.9367">
        <ele>1813.342958444</ele>
        <time>2015-06-11T11:00:54Z</time>
      </trkpt>
      <trkpt lat="45.43124" lon="5.93672">
        <ele>1813.342958444</ele>
        <time>2015-06-11T11:00:59Z</time>
      </trkpt>
      <trkpt lat="45.43123" lon="5.93675">
        <ele>1810.745939284</ele>
        <time>2015-06-11T11:01:03Z</time>
      </trkpt>
      <trkpt lat="45.43123" lon="5.93673">
        <ele>1810.745939284</ele>
        <time>2015-06-11T11:01:09Z</time>
      </trkpt>
      <trkpt lat="45.43124" lon="5.93674">
        <ele>1810.745939284</ele>
        <time>2015-06-11T11:01:14Z</time>
      </trkpt>
      <trkpt lat="45.43125" lon="5.93674">
        <ele>1810.745939284</ele>
        <time>2015-06-11T11:01:19Z</time>
      </trkpt>
      <trkpt lat="45.43125" lon="5.93675">
        <ele>1810.745939284</ele>
        <time>2015-06-11T11:01:24Z</time>
      </trkpt>
      <trkpt lat="45.43124" lon="5.93676">
        <ele>1810.745939284</ele>
        <time>2015-06-11T11:01:29Z</time>
      </trkpt>
      <trkpt lat="45.43124" lon="5.93676">
        <ele>1810.745939284</ele>
        <time>2015-06-11T11:01:34Z</time>
      </trkpt>
      <trkpt lat="45.43124" lon="5.93676">
        <ele>1810.745939284</ele>
        <time>2015-06-11T11:01:39Z</time>
      </trkpt>
      <trkpt lat="45.43124" lon="5.93676">
        <ele>1810.745939284</ele>
        <time>2015-06-11T11:01:44Z</time>
      </trkpt>
      <trkpt lat="45.43124" lon="5.93676">
        <ele>1810.745939284</ele>
        <time>2015-06-11T11:01:49Z</time>
      </trkpt>
      <trkpt lat="45.43124" lon="5.93676">
        <ele>1810.745939284</ele>
        <time>2015-06-11T11:01:54Z</time>
      </trkpt>
      <trkpt lat="45.43124" lon="5.93676">
        <ele>1810.745939284</ele>
        <time>2015-06-11T11:01:59Z</time>
      </trkpt>
      <trkpt lat="45.43124" lon="5.93676">
        <ele>1810.745939284</ele>
        <time>2015-06-11T11:02:04Z</time>
      </trkpt>
      <trkpt lat="45.43124" lon="5.93676">
        <ele>1810.745939284</ele>
        <time>2015-06-11T11:02:09Z</time>
      </trkpt>
      <trkpt lat="45.43124" lon="5.93676">
        <ele>1810.745939284</ele>
        <time>2015-06-11T11:02:14Z</time>
      </trkpt>
      <trkpt lat="45.43124" lon="5.93676">
        <ele>1810.745939284</ele>
        <time>2015-06-11T11:02:18Z</time>
      </trkpt>
      <trkpt lat="45.43124" lon="5.93676">
        <ele>1810.745939284</ele>
        <time>2015-06-11T11:02:24Z</time>
      </trkpt>
      <trkpt lat="45.43124" lon="5.93676">
        <ele>1810.745939284</ele>
        <time>2015-06-11T11:02:29Z</time>
      </trkpt>
      <trkpt lat="45.43124" lon="5.93675">
        <ele>1810.745939284</ele>
        <time>2015-06-11T11:02:34Z</time>
      </trkpt>
      <trkpt lat="45.43124" lon="5.93675">
        <ele>1810.745939284</ele>
        <time>2015-06-11T11:02:39Z</time>
      </trkpt>
      <trkpt lat="45.43124" lon="5.93675">
        <ele>1810.745939284</ele>
        <time>2015-06-11T11:02:44Z</time>
      </trkpt>
      <trkpt lat="45.43124" lon="5.93675">
        <ele>1810.745939284</ele>
        <time>2015-06-11T11:02:49Z</time>
      </trkpt>
      <trkpt lat="45.43124" lon="5.93675">
        <ele>1810.745939284</ele>
        <time>2015-06-11T11:02:54Z</time>
      </trkpt>
      <trkpt lat="45.43124" lon="5.93675">
        <ele>1810.745939284</ele>
        <time>2015-06-11T11:02:59Z</time>
      </trkpt>
      <trkpt lat="45.43124" lon="5.93675">
        <ele>1810.745939284</ele>
        <time>2015-06-11T11:03:04Z</time>
      </trkpt>
      <trkpt lat="45.43124" lon="5.93675">
        <ele>1810.745939284</ele>
        <time>2015-06-11T11:03:09Z</time>
      </trkpt>
      <trkpt lat="45.43124" lon="5.93675">
        <ele>1810.745939284</ele>
        <time>2015-06-11T11:03:13Z</time>
      </trkpt>
      <trkpt lat="45.43124" lon="5.93675">
        <ele>1810.745939284</ele>
        <time>2015-06-11T11:03:18Z</time>
      </trkpt>
      <trkpt lat="45.43124" lon="5.93675">
        <ele>1810.745939284</ele>
        <time>2015-06-11T11:03:24Z</time>
      </trkpt>
      <trkpt lat="45.43124" lon="5.93675">
        <ele>1810.745939284</ele>
        <time>2015-06-11T11:03:29Z</time>
      </trkpt>
      <trkpt lat="45.43124" lon="5.93675">
        <ele>1810.745939284</ele>
        <time>2015-06-11T11:03:34Z</time>
      </trkpt>
      <trkpt lat="45.43124" lon="5.93675">
        <ele>1810.745939284</ele>
        <time>2015-06-11T11:03:39Z</time>
      </trkpt>
      <trkpt lat="45.43124" lon="5.93675">
        <ele>1810.745939284</ele>
        <time>2015-06-11T11:03:42Z</time>
      </trkpt>
      <trkpt lat="45.43124" lon="5.93675">
        <ele>1810.745939284</ele>
        <time>2015-06-11T11:03:48Z</time>
      </trkpt>
      <trkpt lat="45.43124" lon="5.93675">
        <ele>1810.745939284</ele>
        <time>2015-06-11T11:03:53Z</time>
      </trkpt>
      <trkpt lat="45.43124" lon="5.93675">
        <ele>1810.745939284</ele>
        <time>2015-06-11T11:03:58Z</time>
      </trkpt>
      <trkpt lat="45.43124" lon="5.93675">
        <ele>1810.745939284</ele>
        <time>2015-06-11T11:04:04Z</time>
      </trkpt>
      <trkpt lat="45.43124" lon="5.93675">
        <ele>1810.745939284</ele>
        <time>2015-06-11T11:04:07Z</time>
      </trkpt>
      <trkpt lat="45.43124" lon="5.93675">
        <ele>1810.745939284</ele>
        <time>2015-06-11T11:04:14Z</time>
      </trkpt>
      <trkpt lat="45.43124" lon="5.93675">
        <ele>1810.745939284</ele>
        <time>2015-06-11T11:04:19Z</time>
      </trkpt>
      <trkpt lat="45.43125" lon="5.93676">
        <ele>1810.745939284</ele>
        <time>2015-06-11T11:04:24Z</time>
      </trkpt>
      <trkpt lat="45.43125" lon="5.93676">
        <ele>1810.745939284</ele>
        <time>2015-06-11T11:04:29Z</time>
      </trkpt>
      <trkpt lat="45.43124" lon="5.93676">
        <ele>1810.745939284</ele>
        <time>2015-06-11T11:04:34Z</time>
      </trkpt>
      <trkpt lat="45.43124" lon="5.93676">
        <ele>1810.745939284</ele>
        <time>2015-06-11T11:04:39Z</time>
      </trkpt>
      <trkpt lat="45.43124" lon="5.93676">
        <ele>1810.745939284</ele>
        <time>2015-06-11T11:04:44Z</time>
      </trkpt>
      <trkpt lat="45.43124" lon="5.93676">
        <ele>1810.745939284</ele>
        <time>2015-06-11T11:04:49Z</time>
      </trkpt>
      <trkpt lat="45.43124" lon="5.93676">
        <ele>1810.745939284</ele>
        <time>2015-06-11T11:04:53Z</time>
      </trkpt>
      <trkpt lat="45.43124" lon="5.93676">
        <ele>1810.745939284</ele>
        <time>2015-06-11T11:04:59Z</time>
      </trkpt>
      <trkpt lat="45.43124" lon="5.93676">
        <ele>1810.745939284</ele>
        <time>2015-06-11T11:05:04Z</time>
      </trkpt>
      <trkpt lat="45.43124" lon="5.93676">
        <ele>1810.745939284</ele>
        <time>2015-06-11T11:05:09Z</time>
      </trkpt>
      <trkpt lat="45.43125" lon="5.93676">
        <ele>1810.745939284</ele>
        <time>2015-06-11T11:05:14Z</time>
      </trkpt>
      <trkpt lat="45.43125" lon="5.93676">
        <ele>1810.745939284</ele>
        <time>2015-06-11T11:05:19Z</time>
      </trkpt>
      <trkpt lat="45.43124" lon="5.93675">
        <ele>1810.745939284</ele>
        <time>2015-06-11T11:05:24Z</time>
      </trkpt>
      <trkpt lat="45.43125" lon="5.93676">
        <ele>1807.527646954</ele>
        <time>2015-06-11T11:05:29Z</time>
      </trkpt>
      <trkpt lat="45.43125" lon="5.93676">
        <ele>1807.527646954</ele>
        <time>2015-06-11T11:05:34Z</time>
      </trkpt>
      <trkpt lat="45.43125" lon="5.93676">
        <ele>1807.527646954</ele>
        <time>2015-06-11T11:05:39Z</time>
      </trkpt>
      <trkpt lat="45.43125" lon="5.93676">
        <ele>1807.527646954</ele>
        <time>2015-06-11T11:05:44Z</time>
      </trkpt>
      <trkpt lat="45.43125" lon="5.93676">
        <ele>1807.527646954</ele>
        <time>2015-06-11T11:05:49Z</time>
      </trkpt>
      <trkpt lat="45.43125" lon="5.93677">
        <ele>1807.527646954</ele>
        <time>2015-06-11T11:05:54Z</time>
      </trkpt>
      <trkpt lat="45.43125" lon="5.93681">
        <ele>1807.527646954</ele>
        <time>2015-06-11T11:05:59Z</time>
      </trkpt>
      <trkpt lat="45.43125" lon="5.93683">
        <ele>1807.527646954</ele>
        <time>2015-06-11T11:06:04Z</time>
      </trkpt>
      <trkpt lat="45.43124" lon="5.93685">
        <ele>1807.527646954</ele>
        <time>2015-06-11T11:06:09Z</time>
      </trkpt>
      <trkpt lat="45.43124" lon="5.93687">
        <ele>1807.527646954</ele>
        <time>2015-06-11T11:06:14Z</time>
      </trkpt>
      <trkpt lat="45.43124" lon="5.93687">
        <ele>1807.527646954</ele>
        <time>2015-06-11T11:06:19Z</time>
      </trkpt>
      <trkpt lat="45.43124" lon="5.93688">
        <ele>1803.166008895</ele>
        <time>2015-06-11T11:06:24Z</time>
      </trkpt>
      <trkpt lat="45.43124" lon="5.93688">
        <ele>1803.166008895</ele>
        <time>2015-06-11T11:06:29Z</time>
      </trkpt>
      <trkpt lat="45.43124" lon="5.93688">
        <ele>1803.166008895</ele>
        <time>2015-06-11T11:06:34Z</time>
      </trkpt>
      <trkpt lat="45.43124" lon="5.93688">
        <ele>1803.166008895</ele>
        <time>2015-06-11T11:06:39Z</time>
      </trkpt>
      <trkpt lat="45.43124" lon="5.93688">
        <ele>1803.166008895</ele>
        <time>2015-06-11T11:06:43Z</time>
      </trkpt>
      <trkpt lat="45.43124" lon="5.93688">
        <ele>1803.166008895</ele>
        <time>2015-06-11T11:06:47Z</time>
      </trkpt>
      <trkpt lat="45.43124" lon="5.93688">
        <ele>1803.166008895</ele>
        <time>2015-06-11T11:06:52Z</time>
      </trkpt>
      <trkpt lat="45.43124" lon="5.93688">
        <ele>1803.166008895</ele>
        <time>2015-06-11T11:06:57Z</time>
      </trkpt>
      <trkpt lat="45.43124" lon="5.93688">
        <ele>1803.166008895</ele>
        <time>2015-06-11T11:07:02Z</time>
      </trkpt>
      <trkpt lat="45.43124" lon="5.93688">
        <ele>1803.166008895</ele>
        <time>2015-06-11T11:07:07Z</time>
      </trkpt>
      <trkpt lat="45.43124" lon="5.93688">
        <ele>1803.166008895</ele>
        <time>2015-06-11T11:07:12Z</time>
      </trkpt>
      <trkpt lat="45.43124" lon="5.93688">
        <ele>1803.166008895</ele>
        <time>2015-06-11T11:07:17Z</time>
      </trkpt>
      <trkpt lat="45.43124" lon="5.93688">
        <ele>1803.166008895</ele>
        <time>2015-06-11T11:07:26Z</time>
      </trkpt>
      <trkpt lat="45.43126" lon="5.93689">
        <ele>1791</ele>
        <time>2015-06-11T11:07:41Z</time>
      </trkpt>
      <trkpt lat="45.43127" lon="5.93691">
        <ele>1791</ele>
        <time>2015-06-11T11:07:46Z</time>
      </trkpt>
      <trkpt lat="45.43124" lon="5.93687">
        <ele>1791</ele>
        <time>2015-06-11T11:07:51Z</time>
      </trkpt>
      <trkpt lat="45.4312" lon="5.93687">
        <ele>1784.55005855</ele>
        <time>2015-06-11T11:07:56Z</time>
      </trkpt>
      <trkpt lat="45.43111" lon="5.93689">
        <ele>1792.949501249</ele>
        <time>2015-06-11T11:08:01Z</time>
      </trkpt>
      <trkpt lat="45.43104" lon="5.93689">
        <ele>1792.949501249</ele>
        <time>2015-06-11T11:08:05Z</time>
      </trkpt>
      <trkpt lat="45.431" lon="5.93686">
        <ele>1801.446185068</ele>
        <time>2015-06-11T11:08:11Z</time>
      </trkpt>
      <trkpt lat="45.43097" lon="5.9368">
        <ele>1801.446185068</ele>
        <time>2015-06-11T11:08:16Z</time>
      </trkpt>
      <trkpt lat="45.43094" lon="5.93678">
        <ele>1801.446185068</ele>
        <time>2015-06-11T11:08:21Z</time>
      </trkpt>
      <trkpt lat="45.43093" lon="5.93677">
        <ele>1808.736260657</ele>
        <time>2015-06-11T11:08:26Z</time>
      </trkpt>
      <trkpt lat="45.43093" lon="5.93676">
        <ele>1808.736260657</ele>
        <time>2015-06-11T11:08:31Z</time>
      </trkpt>
      <trkpt lat="45.43093" lon="5.93676">
        <ele>1808.736260657</ele>
        <time>2015-06-11T11:08:36Z</time>
      </trkpt>
      <trkpt lat="45.43091" lon="5.93674">
        <ele>1808.736260657</ele>
        <time>2015-06-11T11:08:41Z</time>
      </trkpt>
      <trkpt lat="45.43088" lon="5.93668">
        <ele>1808.736260657</ele>
        <time>2015-06-11T11:08:46Z</time>
      </trkpt>
      <trkpt lat="45.43085" lon="5.93663">
        <ele>1815.308728292</ele>
        <time>2015-06-11T11:08:51Z</time>
      </trkpt>
      <trkpt lat="45.43086" lon="5.93663">
        <ele>1815.308728292</ele>
        <time>2015-06-11T11:08:56Z</time>
      </trkpt>
      <trkpt lat="45.43086" lon="5.93663">
        <ele>1815.308728292</ele>
        <time>2015-06-11T11:09:01Z</time>
      </trkpt>
      <trkpt lat="45.43086" lon="5.93663">
        <ele>1815.308728292</ele>
        <time>2015-06-11T11:09:06Z</time>
      </trkpt>
      <trkpt lat="45.43085" lon="5.9366">
        <ele>1815.308728292</ele>
        <time>2015-06-11T11:09:11Z</time>
      </trkpt>
      <trkpt lat="45.43084" lon="5.93656">
        <ele>1815.308728292</ele>
        <time>2015-06-11T11:09:16Z</time>
      </trkpt>
      <trkpt lat="45.43082" lon="5.93657">
        <ele>1820.927918909</ele>
        <time>2015-06-11T11:09:21Z</time>
      </trkpt>
      <trkpt lat="45.43081" lon="5.93657">
        <ele>1820.927918909</ele>
        <time>2015-06-11T11:09:26Z</time>
      </trkpt>
      <trkpt lat="45.43081" lon="5.93658">
        <ele>1820.927918909</ele>
        <time>2015-06-11T11:09:30Z</time>
      </trkpt>
      <trkpt lat="45.43081" lon="5.93658">
        <ele>1820.927918909</ele>
        <time>2015-06-11T11:09:35Z</time>
      </trkpt>
      <trkpt lat="45.4308" lon="5.93659">
        <ele>1820.927918909</ele>
        <time>2015-06-11T11:09:40Z</time>
      </trkpt>
      <trkpt lat="45.43078" lon="5.93653">
        <ele>1820.927918909</ele>
        <time>2015-06-11T11:09:45Z</time>
      </trkpt>
      <trkpt lat="45.43074" lon="5.93646">
        <ele>1826.025596516</ele>
        <time>2015-06-11T11:09:50Z</time>
      </trkpt>
      <trkpt lat="45.43071" lon="5.93643">
        <ele>1826.025596516</ele>
        <time>2015-06-11T11:09:57Z</time>
      </trkpt>
      <trkpt lat="45.43071" lon="5.93639">
        <ele>1826.025596516</ele>
        <time>2015-06-11T11:10:01Z</time>
      </trkpt>
      <trkpt lat="45.43069" lon="5.93633">
        <ele>1829.191092343</ele>
        <time>2015-06-11T11:10:06Z</time>
      </trkpt>
      <trkpt lat="45.43064" lon="5.93626">
        <ele>1829.191092343</ele>
        <time>2015-06-11T11:10:11Z</time>
      </trkpt>
      <trkpt lat="45.43063" lon="5.93621">
        <ele>1831.19500386</ele>
        <time>2015-06-11T11:10:16Z</time>
      </trkpt>
      <trkpt lat="45.4306" lon="5.93615">
        <ele>1831.19500386</ele>
        <time>2015-06-11T11:10:21Z</time>
      </trkpt>
      <trkpt lat="45.43056" lon="5.93608">
        <ele>1831.62067912</ele>
        <time>2015-06-11T11:10:26Z</time>
      </trkpt>
      <trkpt lat="45.43055" lon="5.93607">
        <ele>1831.62067912</ele>
        <time>2015-06-11T11:10:31Z</time>
      </trkpt>
      <trkpt lat="45.43051" lon="5.93606">
        <ele>1831.62067912</ele>
        <time>2015-06-11T11:10:36Z</time>
      </trkpt>
      <trkpt lat="45.43046" lon="5.9361">
        <ele>1830.042768808</ele>
        <time>2015-06-11T11:10:41Z</time>
      </trkpt>
      <trkpt lat="45.43042" lon="5.93608">
        <ele>1830.042768808</ele>
        <time>2015-06-11T11:10:46Z</time>
      </trkpt>
      <trkpt lat="45.43036" lon="5.93607">
        <ele>1827.666045333</ele>
        <time>2015-06-11T11:10:51Z</time>
      </trkpt>
      <trkpt lat="45.43034" lon="5.93601">
        <ele>1827.666045333</ele>
        <time>2015-06-11T11:10:56Z</time>
      </trkpt>
      <trkpt lat="45.43029" lon="5.936">
        <ele>1824.660985331</ele>
        <time>2015-06-11T11:11:01Z</time>
      </trkpt>
      <trkpt lat="45.43025" lon="5.93603">
        <ele>1824.660985331</ele>
        <time>2015-06-11T11:11:06Z</time>
      </trkpt>
      <trkpt lat="45.4302" lon="5.93601">
        <ele>1821.548153252</ele>
        <time>2015-06-11T11:11:11Z</time>
      </trkpt>
      <trkpt lat="45.43016" lon="5.93598">
        <ele>1821.548153252</ele>
        <time>2015-06-11T11:11:16Z</time>
      </trkpt>
      <trkpt lat="45.43011" lon="5.93595">
        <ele>1819.300829002</ele>
        <time>2015-06-11T11:11:21Z</time>
      </trkpt>
      <trkpt lat="45.43004" lon="5.93595">
        <ele>1819.300829002</ele>
        <time>2015-06-11T11:11:26Z</time>
      </trkpt>
      <trkpt lat="45.42997" lon="5.93603">
        <ele>1817.451714122</ele>
        <time>2015-06-11T11:11:31Z</time>
      </trkpt>
      <trkpt lat="45.43" lon="5.93592">
        <ele>1817.451714122</ele>
        <time>2015-06-11T11:11:36Z</time>
      </trkpt>
      <trkpt lat="45.42994" lon="5.93599">
        <ele>1816.211899457</ele>
        <time>2015-06-11T11:11:41Z</time>
      </trkpt>
      <trkpt lat="45.42991" lon="5.93592">
        <ele>1816.211899457</ele>
        <time>2015-06-11T11:11:46Z</time>
      </trkpt>
      <trkpt lat="45.4299" lon="5.9359">
        <ele>1816.211899457</ele>
        <time>2015-06-11T11:11:51Z</time>
      </trkpt>
      <trkpt lat="45.42988" lon="5.93591">
        <ele>1816.211899457</ele>
        <time>2015-06-11T11:11:56Z</time>
      </trkpt>
      <trkpt lat="45.42988" lon="5.93591">
        <ele>1816.211899457</ele>
        <time>2015-06-11T11:12:01Z</time>
      </trkpt>
      <trkpt lat="45.42988" lon="5.93591">
        <ele>1816.211899457</ele>
        <time>2015-06-11T11:12:06Z</time>
      </trkpt>
      <trkpt lat="45.42988" lon="5.93591">
        <ele>1816.211899457</ele>
        <time>2015-06-11T11:12:11Z</time>
      </trkpt>
      <trkpt lat="45.42986" lon="5.93587">
        <ele>1814.130387968</ele>
        <time>2015-06-11T11:12:16Z</time>
      </trkpt>
      <trkpt lat="45.42987" lon="5.93581">
        <ele>1814.130387968</ele>
        <time>2015-06-11T11:12:21Z</time>
      </trkpt>
      <trkpt lat="45.42986" lon="5.93582">
        <ele>1814.130387968</ele>
        <time>2015-06-11T11:12:26Z</time>
      </trkpt>
      <trkpt lat="45.42982" lon="5.93581">
        <ele>1814.130387968</ele>
        <time>2015-06-11T11:12:31Z</time>
      </trkpt>
      <trkpt lat="45.42982" lon="5.93574">
        <ele>1812.154437545</ele>
        <time>2015-06-11T11:12:36Z</time>
      </trkpt>
      <trkpt lat="45.42977" lon="5.93572">
        <ele>1812.154437545</ele>
        <time>2015-06-11T11:12:41Z</time>
      </trkpt>
      <trkpt lat="45.4297" lon="5.9357">
        <ele>1809.688611554</ele>
        <time>2015-06-11T11:12:46Z</time>
      </trkpt>
      <trkpt lat="45.42965" lon="5.93574">
        <ele>1809.688611554</ele>
        <time>2015-06-11T11:12:51Z</time>
      </trkpt>
      <trkpt lat="45.42965" lon="5.93569">
        <ele>1809.688611554</ele>
        <time>2015-06-11T11:12:55Z</time>
      </trkpt>
      <trkpt lat="45.42966" lon="5.9357">
        <ele>1806.206258628</ele>
        <time>2015-06-11T11:13:00Z</time>
      </trkpt>
      <trkpt lat="45.42967" lon="5.93567">
        <ele>1806.206258628</ele>
        <time>2015-06-11T11:13:05Z</time>
      </trkpt>
      <trkpt lat="45.42964" lon="5.93562">
        <ele>1806.206258628</ele>
        <time>2015-06-11T11:13:10Z</time>
      </trkpt>
      <trkpt lat="45.42961" lon="5.93554">
        <ele>1803.526630109</ele>
        <time>2015-06-11T11:13:17Z</time>
      </trkpt>
      <trkpt lat="45.4296" lon="5.93547">
        <ele>1803.526630109</ele>
        <time>2015-06-11T11:13:21Z</time>
      </trkpt>
      <trkpt lat="45.42956" lon="5.93542">
        <ele>1800.977153477</ele>
        <time>2015-06-11T11:13:26Z</time>
      </trkpt>
      <trkpt lat="45.42955" lon="5.93541">
        <ele>1800.977153477</ele>
        <time>2015-06-11T11:13:31Z</time>
      </trkpt>
      <trkpt lat="45.42956" lon="5.93541">
        <ele>1800.977153477</ele>
        <time>2015-06-11T11:13:36Z</time>
      </trkpt>
      <trkpt lat="45.42956" lon="5.93541">
        <ele>1800.977153477</ele>
        <time>2015-06-11T11:13:41Z</time>
      </trkpt>
      <trkpt lat="45.42956" lon="5.93541">
        <ele>1800.977153477</ele>
        <time>2015-06-11T11:13:46Z</time>
      </trkpt>
      <trkpt lat="45.42956" lon="5.93541">
        <ele>1800.977153477</ele>
        <time>2015-06-11T11:13:51Z</time>
      </trkpt>
      <trkpt lat="45.42956" lon="5.93541">
        <ele>1800.977153477</ele>
        <time>2015-06-11T11:13:55Z</time>
      </trkpt>
      <trkpt lat="45.42956" lon="5.93541">
        <ele>1800.977153477</ele>
        <time>2015-06-11T11:14:02Z</time>
      </trkpt>
      <trkpt lat="45.42956" lon="5.93541">
        <ele>1800.977153477</ele>
        <time>2015-06-11T11:14:06Z</time>
      </trkpt>
      <trkpt lat="45.42956" lon="5.93542">
        <ele>1800.977153477</ele>
        <time>2015-06-11T11:14:11Z</time>
      </trkpt>
      <trkpt lat="45.42955" lon="5.93542">
        <ele>1800.977153477</ele>
        <time>2015-06-11T11:14:16Z</time>
      </trkpt>
      <trkpt lat="45.42952" lon="5.93538">
        <ele>1800.977153477</ele>
        <time>2015-06-11T11:14:21Z</time>
      </trkpt>
      <trkpt lat="45.42948" lon="5.93528">
        <ele>1798.702160502</ele>
        <time>2015-06-11T11:14:26Z</time>
      </trkpt>
      <trkpt lat="45.42946" lon="5.93528">
        <ele>1798.702160502</ele>
        <time>2015-06-11T11:14:31Z</time>
      </trkpt>
      <trkpt lat="45.42944" lon="5.9353">
        <ele>1798.702160502</ele>
        <time>2015-06-11T11:14:36Z</time>
      </trkpt>
      <trkpt lat="45.42943" lon="5.93531">
        <ele>1798.702160502</ele>
        <time>2015-06-11T11:14:41Z</time>
      </trkpt>
      <trkpt lat="45.42942" lon="5.93531">
        <ele>1798.702160502</ele>
        <time>2015-06-11T11:14:46Z</time>
      </trkpt>
      <trkpt lat="45.42942" lon="5.93532">
        <ele>1798.702160502</ele>
        <time>2015-06-11T11:14:51Z</time>
      </trkpt>
      <trkpt lat="45.42942" lon="5.93533">
        <ele>1798.702160502</ele>
        <time>2015-06-11T11:14:56Z</time>
      </trkpt>
      <trkpt lat="45.42942" lon="5.93533">
        <ele>1798.702160502</ele>
        <time>2015-06-11T11:15:01Z</time>
      </trkpt>
      <trkpt lat="45.42942" lon="5.93533">
        <ele>1798.702160502</ele>
        <time>2015-06-11T11:15:06Z</time>
      </trkpt>
      <trkpt lat="45.42942" lon="5.93533">
        <ele>1798.702160502</ele>
        <time>2015-06-11T11:15:11Z</time>
      </trkpt>
      <trkpt lat="45.42942" lon="5.93533">
        <ele>1798.702160502</ele>
        <time>2015-06-11T11:15:16Z</time>
      </trkpt>
      <trkpt lat="45.42942" lon="5.93533">
        <ele>1798.702160502</ele>
        <time>2015-06-11T11:15:21Z</time>
      </trkpt>
      <trkpt lat="45.42942" lon="5.93533">
        <ele>1798.702160502</ele>
        <time>2015-06-11T11:15:26Z</time>
      </trkpt>
      <trkpt lat="45.42942" lon="5.93533">
        <ele>1798.702160502</ele>
        <time>2015-06-11T11:15:31Z</time>
      </trkpt>
      <trkpt lat="45.42942" lon="5.93533">
        <ele>1798.702160502</ele>
        <time>2015-06-11T11:15:36Z</time>
      </trkpt>
      <trkpt lat="45.42937" lon="5.93542">
        <ele>1796.531831222</ele>
        <time>2015-06-11T11:15:41Z</time>
      </trkpt>
      <trkpt lat="45.42934" lon="5.93542">
        <ele>1796.531831222</ele>
        <time>2015-06-11T11:15:46Z</time>
      </trkpt>
      <trkpt lat="45.42933" lon="5.93541">
        <ele>1796.531831222</ele>
        <time>2015-06-11T11:15:51Z</time>
      </trkpt>
      <trkpt lat="45.42933" lon="5.93542">
        <ele>1796.531831222</ele>
        <time>2015-06-11T11:15:56Z</time>
      </trkpt>
      <trkpt lat="45.42933" lon="5.93542">
        <ele>1796.531831222</ele>
        <time>2015-06-11T11:16:01Z</time>
      </trkpt>
      <trkpt lat="45.42933" lon="5.93542">
        <ele>1796.531831222</ele>
        <time>2015-06-11T11:16:06Z</time>
      </trkpt>
      <trkpt lat="45.42933" lon="5.93542">
        <ele>1796.531831222</ele>
        <time>2015-06-11T11:16:10Z</time>
      </trkpt>
      <trkpt lat="45.42933" lon="5.93543">
        <ele>1796.531831222</ele>
        <time>2015-06-11T11:16:15Z</time>
      </trkpt>
      <trkpt lat="45.42933" lon="5.93545">
        <ele>1796.531831222</ele>
        <time>2015-06-11T11:16:20Z</time>
      </trkpt>
      <trkpt lat="45.42933" lon="5.93548">
        <ele>1796.531831222</ele>
        <time>2015-06-11T11:16:25Z</time>
      </trkpt>
      <trkpt lat="45.42933" lon="5.93549">
        <ele>1795.176924271</ele>
        <time>2015-06-11T11:16:31Z</time>
      </trkpt>
      <trkpt lat="45.42933" lon="5.93554">
        <ele>1795.176924271</ele>
        <time>2015-06-11T11:16:35Z</time>
      </trkpt>
      <trkpt lat="45.42929" lon="5.93556">
        <ele>1795.176924271</ele>
        <time>2015-06-11T11:16:41Z</time>
      </trkpt>
      <trkpt lat="45.42928" lon="5.93561">
        <ele>1792.417460081</ele>
        <time>2015-06-11T11:16:46Z</time>
      </trkpt>
      <trkpt lat="45.42928" lon="5.93561">
        <ele>1792.417460081</ele>
        <time>2015-06-11T11:16:51Z</time>
      </trkpt>
      <trkpt lat="45.42928" lon="5.93561">
        <ele>1792.417460081</ele>
        <time>2015-06-11T11:16:57Z</time>
      </trkpt>
      <trkpt lat="45.42928" lon="5.93561">
        <ele>1792.417460081</ele>
        <time>2015-06-11T11:17:01Z</time>
      </trkpt>
      <trkpt lat="45.42927" lon="5.93562">
        <ele>1792.417460081</ele>
        <time>2015-06-11T11:17:06Z</time>
      </trkpt>
      <trkpt lat="45.42927" lon="5.93562">
        <ele>1792.417460081</ele>
        <time>2015-06-11T11:17:11Z</time>
      </trkpt>
      <trkpt lat="45.42925" lon="5.93567">
        <ele>1792.417460081</ele>
        <time>2015-06-11T11:17:16Z</time>
      </trkpt>
      <trkpt lat="45.4292" lon="5.93575">
        <ele>1789.516286642</ele>
        <time>2015-06-11T11:17:21Z</time>
      </trkpt>
      <trkpt lat="45.42918" lon="5.93578">
        <ele>1789.516286642</ele>
        <time>2015-06-11T11:17:26Z</time>
      </trkpt>
      <trkpt lat="45.42916" lon="5.93577">
        <ele>1789.516286642</ele>
        <time>2015-06-11T11:17:31Z</time>
      </trkpt>
      <trkpt lat="45.42916" lon="5.93578">
        <ele>1789.516286642</ele>
        <time>2015-06-11T11:17:36Z</time>
      </trkpt>
      <trkpt lat="45.42916" lon="5.93578">
        <ele>1789.516286642</ele>
        <time>2015-06-11T11:17:41Z</time>
      </trkpt>
      <trkpt lat="45.42916" lon="5.93578">
        <ele>1789.516286642</ele>
        <time>2015-06-11T11:17:46Z</time>
      </trkpt>
      <trkpt lat="45.42916" lon="5.93578">
        <ele>1789.516286642</ele>
        <time>2015-06-11T11:17:51Z</time>
      </trkpt>
      <trkpt lat="45.42915" lon="5.93579">
        <ele>1789.516286642</ele>
        <time>2015-06-11T11:17:56Z</time>
      </trkpt>
      <trkpt lat="45.42914" lon="5.93576">
        <ele>1786.202780794</ele>
        <time>2015-06-11T11:18:01Z</time>
      </trkpt>
      <trkpt lat="45.42913" lon="5.93577">
        <ele>1786.202780794</ele>
        <time>2015-06-11T11:18:06Z</time>
      </trkpt>
      <trkpt lat="45.42912" lon="5.93578">
        <ele>1786.202780794</ele>
        <time>2015-06-11T11:18:11Z</time>
      </trkpt>
      <trkpt lat="45.42912" lon="5.93578">
        <ele>1786.202780794</ele>
        <time>2015-06-11T11:18:16Z</time>
      </trkpt>
      <trkpt lat="45.42912" lon="5.93577">
        <ele>1786.202780794</ele>
        <time>2015-06-11T11:18:21Z</time>
      </trkpt>
      <trkpt lat="45.42912" lon="5.93579">
        <ele>1786.202780794</ele>
        <time>2015-06-11T11:18:26Z</time>
      </trkpt>
      <trkpt lat="45.42912" lon="5.93579">
        <ele>1786.202780794</ele>
        <time>2015-06-11T11:18:31Z</time>
      </trkpt>
      <trkpt lat="45.42912" lon="5.93579">
        <ele>1786.202780794</ele>
        <time>2015-06-11T11:18:36Z</time>
      </trkpt>
      <trkpt lat="45.42912" lon="5.93579">
        <ele>1786.202780794</ele>
        <time>2015-06-11T11:18:41Z</time>
      </trkpt>
      <trkpt lat="45.42912" lon="5.93579">
        <ele>1786.202780794</ele>
        <time>2015-06-11T11:18:46Z</time>
      </trkpt>
      <trkpt lat="45.42912" lon="5.93579">
        <ele>1786.202780794</ele>
        <time>2015-06-11T11:18:51Z</time>
      </trkpt>
      <trkpt lat="45.42912" lon="5.9358">
        <ele>1786.202780794</ele>
        <time>2015-06-11T11:18:56Z</time>
      </trkpt>
      <trkpt lat="45.42912" lon="5.9358">
        <ele>1786.202780794</ele>
        <time>2015-06-11T11:19:01Z</time>
      </trkpt>
      <trkpt lat="45.42912" lon="5.9358">
        <ele>1786.202780794</ele>
        <time>2015-06-11T11:19:06Z</time>
      </trkpt>
      <trkpt lat="45.42912" lon="5.9358">
        <ele>1786.202780794</ele>
        <time>2015-06-11T11:19:11Z</time>
      </trkpt>
      <trkpt lat="45.42912" lon="5.9358">
        <ele>1786.202780794</ele>
        <time>2015-06-11T11:19:16Z</time>
      </trkpt>
      <trkpt lat="45.42912" lon="5.9358">
        <ele>1786.202780794</ele>
        <time>2015-06-11T11:19:21Z</time>
      </trkpt>
      <trkpt lat="45.42912" lon="5.9358">
        <ele>1786.202780794</ele>
        <time>2015-06-11T11:19:26Z</time>
      </trkpt>
      <trkpt lat="45.42912" lon="5.9358">
        <ele>1786.202780794</ele>
        <time>2015-06-11T11:19:31Z</time>
      </trkpt>
      <trkpt lat="45.4291" lon="5.9358">
        <ele>1786.202780794</ele>
        <time>2015-06-11T11:19:36Z</time>
      </trkpt>
      <trkpt lat="45.42906" lon="5.93581">
        <ele>1782.230416081</ele>
        <time>2015-06-11T11:19:41Z</time>
      </trkpt>
      <trkpt lat="45.42909" lon="5.93586">
        <ele>1782.230416081</ele>
        <time>2015-06-11T11:19:46Z</time>
      </trkpt>
      <trkpt lat="45.42909" lon="5.93588">
        <ele>1782.230416081</ele>
        <time>2015-06-11T11:19:51Z</time>
      </trkpt>
      <trkpt lat="45.42908" lon="5.93588">
        <ele>1782.230416081</ele>
        <time>2015-06-11T11:19:55Z</time>
      </trkpt>
      <trkpt lat="45.42908" lon="5.93587">
        <ele>1782.230416081</ele>
        <time>2015-06-11T11:20:01Z</time>
      </trkpt>
      <trkpt lat="45.4291" lon="5.93589">
        <ele>1778.623070331</ele>
        <time>2015-06-11T11:20:05Z</time>
      </trkpt>
      <trkpt lat="45.42911" lon="5.93594">
        <ele>1778.623070331</ele>
        <time>2015-06-11T11:20:11Z</time>
      </trkpt>
      <trkpt lat="45.42912" lon="5.93592">
        <ele>1778.623070331</ele>
        <time>2015-06-11T11:20:15Z</time>
      </trkpt>
      <trkpt lat="45.4291" lon="5.93592">
        <ele>1778.623070331</ele>
        <time>2015-06-11T11:20:20Z</time>
      </trkpt>
      <trkpt lat="45.4291" lon="5.93592">
        <ele>1778.623070331</ele>
        <time>2015-06-11T11:20:27Z</time>
      </trkpt>
      <trkpt lat="45.4291" lon="5.93592">
        <ele>1778.623070331</ele>
        <time>2015-06-11T11:20:31Z</time>
      </trkpt>
      <trkpt lat="45.4291" lon="5.93592">
        <ele>1778.623070331</ele>
        <time>2015-06-11T11:20:37Z</time>
      </trkpt>
      <trkpt lat="45.4291" lon="5.93592">
        <ele>1778.623070331</ele>
        <time>2015-06-11T11:20:41Z</time>
      </trkpt>
      <trkpt lat="45.4291" lon="5.93592">
        <ele>1778.623070331</ele>
        <time>2015-06-11T11:20:46Z</time>
      </trkpt>
      <trkpt lat="45.4291" lon="5.93592">
        <ele>1778.623070331</ele>
        <time>2015-06-11T11:20:51Z</time>
      </trkpt>
      <trkpt lat="45.4291" lon="5.93592">
        <ele>1778.623070331</ele>
        <time>2015-06-11T11:20:56Z</time>
      </trkpt>
      <trkpt lat="45.4291" lon="5.93592">
        <ele>1778.623070331</ele>
        <time>2015-06-11T11:21:01Z</time>
      </trkpt>
      <trkpt lat="45.4291" lon="5.93592">
        <ele>1778.623070331</ele>
        <time>2015-06-11T11:21:06Z</time>
      </trkpt>
      <trkpt lat="45.4291" lon="5.93592">
        <ele>1778.623070331</ele>
        <time>2015-06-11T11:21:11Z</time>
      </trkpt>
      <trkpt lat="45.4291" lon="5.93593">
        <ele>1778.623070331</ele>
        <time>2015-06-11T11:21:16Z</time>
      </trkpt>
      <trkpt lat="45.4291" lon="5.93593">
        <ele>1778.623070331</ele>
        <time>2015-06-11T11:21:21Z</time>
      </trkpt>
      <trkpt lat="45.4291" lon="5.93593">
        <ele>1778.623070331</ele>
        <time>2015-06-11T11:21:26Z</time>
      </trkpt>
      <trkpt lat="45.4291" lon="5.93593">
        <ele>1778.623070331</ele>
        <time>2015-06-11T11:21:31Z</time>
      </trkpt>
      <trkpt lat="45.4291" lon="5.93593">
        <ele>1778.623070331</ele>
        <time>2015-06-11T11:21:36Z</time>
      </trkpt>
      <trkpt lat="45.4291" lon="5.93593">
        <ele>1778.623070331</ele>
        <time>2015-06-11T11:21:41Z</time>
      </trkpt>
      <trkpt lat="45.42905" lon="5.936">
        <ele>1773.963235692</ele>
        <time>2015-06-11T11:21:46Z</time>
      </trkpt>
      <trkpt lat="45.429" lon="5.93603">
        <ele>1773.963235692</ele>
        <time>2015-06-11T11:21:51Z</time>
      </trkpt>
      <trkpt lat="45.42897" lon="5.93606">
        <ele>1769.299800289</ele>
        <time>2015-06-11T11:21:56Z</time>
      </trkpt>
      <trkpt lat="45.42892" lon="5.93609">
        <ele>1769.299800289</ele>
        <time>2015-06-11T11:22:01Z</time>
      </trkpt>
      <trkpt lat="45.42888" lon="5.93619">
        <ele>1764.219016434</ele>
        <time>2015-06-11T11:22:06Z</time>
      </trkpt>
      <trkpt lat="45.42884" lon="5.93619">
        <ele>1764.219016434</ele>
        <time>2015-06-11T11:22:11Z</time>
      </trkpt>
      <trkpt lat="45.42875" lon="5.9363">
        <ele>1759.59172345</ele>
        <time>2015-06-11T11:22:16Z</time>
      </trkpt>
      <trkpt lat="45.42874" lon="5.93624">
        <ele>1759.59172345</ele>
        <time>2015-06-11T11:22:21Z</time>
      </trkpt>
      <trkpt lat="45.42868" lon="5.93632">
        <ele>1755.118465179</ele>
        <time>2015-06-11T11:22:26Z</time>
      </trkpt>
      <trkpt lat="45.42863" lon="5.93632">
        <ele>1755.118465179</ele>
        <time>2015-06-11T11:22:31Z</time>
      </trkpt>
      <trkpt lat="45.42863" lon="5.93626">
        <ele>1755.118465179</ele>
        <time>2015-06-11T11:22:36Z</time>
      </trkpt>
      <trkpt lat="45.42863" lon="5.93626">
        <ele>1755.118465179</ele>
        <time>2015-06-11T11:22:41Z</time>
      </trkpt>
      <trkpt lat="45.42859" lon="5.93627">
        <ele>1750.237757815</ele>
        <time>2015-06-11T11:22:46Z</time>
      </trkpt>
      <trkpt lat="45.42853" lon="5.93622">
        <ele>1750.237757815</ele>
        <time>2015-06-11T11:22:51Z</time>
      </trkpt>
      <trkpt lat="45.42846" lon="5.93619">
        <ele>1745.413141936</ele>
        <time>2015-06-11T11:22:56Z</time>
      </trkpt>
      <trkpt lat="45.42844" lon="5.93617">
        <ele>1745.413141936</ele>
        <time>2015-06-11T11:23:01Z</time>
      </trkpt>
      <trkpt lat="45.42839" lon="5.93614">
        <ele>1745.413141936</ele>
        <time>2015-06-11T11:23:06Z</time>
      </trkpt>
      <trkpt lat="45.42837" lon="5.93613">
        <ele>1740.657892805</ele>
        <time>2015-06-11T11:23:11Z</time>
      </trkpt>
      <trkpt lat="45.42837" lon="5.93613">
        <ele>1740.657892805</ele>
        <time>2015-06-11T11:23:15Z</time>
      </trkpt>
      <trkpt lat="45.42836" lon="5.93614">
        <ele>1740.657892805</ele>
        <time>2015-06-11T11:23:20Z</time>
      </trkpt>
      <trkpt lat="45.42831" lon="5.93612">
        <ele>1740.657892805</ele>
        <time>2015-06-11T11:23:27Z</time>
      </trkpt>
      <trkpt lat="45.42826" lon="5.93609">
        <ele>1736.273280906</ele>
        <time>2015-06-11T11:23:31Z</time>
      </trkpt>
      <trkpt lat="45.42822" lon="5.93608">
        <ele>1736.273280906</ele>
        <time>2015-06-11T11:23:36Z</time>
      </trkpt>
      <trkpt lat="45.42819" lon="5.93603">
        <ele>1732.111001966</ele>
        <time>2015-06-11T11:23:41Z</time>
      </trkpt>
      <trkpt lat="45.42819" lon="5.93602">
        <ele>1732.111001966</ele>
        <time>2015-06-11T11:23:46Z</time>
      </trkpt>
      <trkpt lat="45.42819" lon="5.93601">
        <ele>1732.111001966</ele>
        <time>2015-06-11T11:23:51Z</time>
      </trkpt>
      <trkpt lat="45.42818" lon="5.93601">
        <ele>1732.111001966</ele>
        <time>2015-06-11T11:23:56Z</time>
      </trkpt>
      <trkpt lat="45.42817" lon="5.93602">
        <ele>1732.111001966</ele>
        <time>2015-06-11T11:24:01Z</time>
      </trkpt>
      <trkpt lat="45.42816" lon="5.93603">
        <ele>1732.111001966</ele>
        <time>2015-06-11T11:24:06Z</time>
      </trkpt>
      <trkpt lat="45.42816" lon="5.93603">
        <ele>1732.111001966</ele>
        <time>2015-06-11T11:24:11Z</time>
      </trkpt>
      <trkpt lat="45.42812" lon="5.93605">
        <ele>1727.883724164</ele>
        <time>2015-06-11T11:24:17Z</time>
      </trkpt>
      <trkpt lat="45.42808" lon="5.93609">
        <ele>1727.883724164</ele>
        <time>2015-06-11T11:24:21Z</time>
      </trkpt>
      <trkpt lat="45.42806" lon="5.93612">
        <ele>1727.883724164</ele>
        <time>2015-06-11T11:24:26Z</time>
      </trkpt>
      <trkpt lat="45.42806" lon="5.93612">
        <ele>1727.883724164</ele>
        <time>2015-06-11T11:24:31Z</time>
      </trkpt>
      <trkpt lat="45.42805" lon="5.93612">
        <ele>1727.883724164</ele>
        <time>2015-06-11T11:24:36Z</time>
      </trkpt>
      <trkpt lat="45.42805" lon="5.93612">
        <ele>1727.883724164</ele>
        <time>2015-06-11T11:24:41Z</time>
      </trkpt>
      <trkpt lat="45.42804" lon="5.93612">
        <ele>1727.883724164</ele>
        <time>2015-06-11T11:24:46Z</time>
      </trkpt>
      <trkpt lat="45.42801" lon="5.93616">
        <ele>1723.172219116</ele>
        <time>2015-06-11T11:24:51Z</time>
      </trkpt>
      <trkpt lat="45.42797" lon="5.93618">
        <ele>1723.172219116</ele>
        <time>2015-06-11T11:24:56Z</time>
      </trkpt>
      <trkpt lat="45.42795" lon="5.93614">
        <ele>1723.172219116</ele>
        <time>2015-06-11T11:25:01Z</time>
      </trkpt>
      <trkpt lat="45.42795" lon="5.9362">
        <ele>1718.171459378</ele>
        <time>2015-06-11T11:25:06Z</time>
      </trkpt>
      <trkpt lat="45.42795" lon="5.93619">
        <ele>1718.171459378</ele>
        <time>2015-06-11T11:25:11Z</time>
      </trkpt>
      <trkpt lat="45.42795" lon="5.93621">
        <ele>1718.171459378</ele>
        <time>2015-06-11T11:25:16Z</time>
      </trkpt>
      <trkpt lat="45.42795" lon="5.9362">
        <ele>1718.171459378</ele>
        <time>2015-06-11T11:25:21Z</time>
      </trkpt>
      <trkpt lat="45.42795" lon="5.9362">
        <ele>1718.171459378</ele>
        <time>2015-06-11T11:25:26Z</time>
      </trkpt>
      <trkpt lat="45.42794" lon="5.93618">
        <ele>1718.171459378</ele>
        <time>2015-06-11T11:25:31Z</time>
      </trkpt>
      <trkpt lat="45.42792" lon="5.93614">
        <ele>1718.171459378</ele>
        <time>2015-06-11T11:25:36Z</time>
      </trkpt>
      <trkpt lat="45.42792" lon="5.93614">
        <ele>1718.171459378</ele>
        <time>2015-06-11T11:25:41Z</time>
      </trkpt>
      <trkpt lat="45.42792" lon="5.93614">
        <ele>1718.171459378</ele>
        <time>2015-06-11T11:25:46Z</time>
      </trkpt>
      <trkpt lat="45.42792" lon="5.93614">
        <ele>1718.171459378</ele>
        <time>2015-06-11T11:25:51Z</time>
      </trkpt>
      <trkpt lat="45.42792" lon="5.93614">
        <ele>1718.171459378</ele>
        <time>2015-06-11T11:25:56Z</time>
      </trkpt>
      <trkpt lat="45.42792" lon="5.93614">
        <ele>1718.171459378</ele>
        <time>2015-06-11T11:26:01Z</time>
      </trkpt>
      <trkpt lat="45.42792" lon="5.93614">
        <ele>1718.171459378</ele>
        <time>2015-06-11T11:26:06Z</time>
      </trkpt>
      <trkpt lat="45.42792" lon="5.93614">
        <ele>1718.171459378</ele>
        <time>2015-06-11T11:26:11Z</time>
      </trkpt>
      <trkpt lat="45.42792" lon="5.93614">
        <ele>1718.171459378</ele>
        <time>2015-06-11T11:26:15Z</time>
      </trkpt>
      <trkpt lat="45.42791" lon="5.93618">
        <ele>1713.956635479</ele>
        <time>2015-06-11T11:26:21Z</time>
      </trkpt>
      <trkpt lat="45.42791" lon="5.93619">
        <ele>1713.956635479</ele>
        <time>2015-06-11T11:26:25Z</time>
      </trkpt>
      <trkpt lat="45.42791" lon="5.93619">
        <ele>1713.956635479</ele>
        <time>2015-06-11T11:26:30Z</time>
      </trkpt>
      <trkpt lat="45.4279" lon="5.9362">
        <ele>1713.956635479</ele>
        <time>2015-06-11T11:26:36Z</time>
      </trkpt>
      <trkpt lat="45.42792" lon="5.93621">
        <ele>1713.956635479</ele>
        <time>2015-06-11T11:26:40Z</time>
      </trkpt>
      <trkpt lat="45.42792" lon="5.93622">
        <ele>1713.956635479</ele>
        <time>2015-06-11T11:26:46Z</time>
      </trkpt>
      <trkpt lat="45.42791" lon="5.93622">
        <ele>1713.956635479</ele>
        <time>2015-06-11T11:26:50Z</time>
      </trkpt>
      <trkpt lat="45.42791" lon="5.93623">
        <ele>1713.956635479</ele>
        <time>2015-06-11T11:26:57Z</time>
      </trkpt>
      <trkpt lat="45.42791" lon="5.93623">
        <ele>1713.956635479</ele>
        <time>2015-06-11T11:27:01Z</time>
      </trkpt>
      <trkpt lat="45.42791" lon="5.93622">
        <ele>1713.956635479</ele>
        <time>2015-06-11T11:27:06Z</time>
      </trkpt>
      <trkpt lat="45.42791" lon="5.93622">
        <ele>1713.956635479</ele>
        <time>2015-06-11T11:27:11Z</time>
      </trkpt>
      <trkpt lat="45.42791" lon="5.93622">
        <ele>1713.956635479</ele>
        <time>2015-06-11T11:27:16Z</time>
      </trkpt>
      <trkpt lat="45.42791" lon="5.93622">
        <ele>1713.956635479</ele>
        <time>2015-06-11T11:27:21Z</time>
      </trkpt>
      <trkpt lat="45.42791" lon="5.93622">
        <ele>1713.956635479</ele>
        <time>2015-06-11T11:27:26Z</time>
      </trkpt>
      <trkpt lat="45.42791" lon="5.93622">
        <ele>1713.956635479</ele>
        <time>2015-06-11T11:27:31Z</time>
      </trkpt>
      <trkpt lat="45.42791" lon="5.93622">
        <ele>1713.956635479</ele>
        <time>2015-06-11T11:27:36Z</time>
      </trkpt>
      <trkpt lat="45.42791" lon="5.93622">
        <ele>1713.956635479</ele>
        <time>2015-06-11T11:27:41Z</time>
      </trkpt>
      <trkpt lat="45.42792" lon="5.93624">
        <ele>1713.956635479</ele>
        <time>2015-06-11T11:27:46Z</time>
      </trkpt>
      <trkpt lat="45.42794" lon="5.93626">
        <ele>1713.956635479</ele>
        <time>2015-06-11T11:27:51Z</time>
      </trkpt>
      <trkpt lat="45.42794" lon="5.93627">
        <ele>1710.642276014</ele>
        <time>2015-06-11T11:27:56Z</time>
      </trkpt>
      <trkpt lat="45.42794" lon="5.93627">
        <ele>1710.642276014</ele>
        <time>2015-06-11T11:28:01Z</time>
      </trkpt>
      <trkpt lat="45.42794" lon="5.93627">
        <ele>1710.642276014</ele>
        <time>2015-06-11T11:28:06Z</time>
      </trkpt>
      <trkpt lat="45.42794" lon="5.93627">
        <ele>1710.642276014</ele>
        <time>2015-06-11T11:28:11Z</time>
      </trkpt>
      <trkpt lat="45.42794" lon="5.93628">
        <ele>1710.642276014</ele>
        <time>2015-06-11T11:28:16Z</time>
      </trkpt>
      <trkpt lat="45.42797" lon="5.93632">
        <ele>1710.642276014</ele>
        <time>2015-06-11T11:28:21Z</time>
      </trkpt>
      <trkpt lat="45.42802" lon="5.93638">
        <ele>1706.684043435</ele>
        <time>2015-06-11T11:28:26Z</time>
      </trkpt>
      <trkpt lat="45.42803" lon="5.93639">
        <ele>1706.684043435</ele>
        <time>2015-06-11T11:28:31Z</time>
      </trkpt>
      <trkpt lat="45.42804" lon="5.93641">
        <ele>1706.684043435</ele>
        <time>2015-06-11T11:28:36Z</time>
      </trkpt>
      <trkpt lat="45.42805" lon="5.93641">
        <ele>1706.684043435</ele>
        <time>2015-06-11T11:28:41Z</time>
      </trkpt>
      <trkpt lat="45.42806" lon="5.9364">
        <ele>1706.684043435</ele>
        <time>2015-06-11T11:28:46Z</time>
      </trkpt>
      <trkpt lat="45.42807" lon="5.9364">
        <ele>1706.684043435</ele>
        <time>2015-06-11T11:28:51Z</time>
      </trkpt>
      <trkpt lat="45.42807" lon="5.9364">
        <ele>1706.684043435</ele>
        <time>2015-06-11T11:28:56Z</time>
      </trkpt>
      <trkpt lat="45.42807" lon="5.9364">
        <ele>1706.684043435</ele>
        <time>2015-06-11T11:29:01Z</time>
      </trkpt>
      <trkpt lat="45.42807" lon="5.9364">
        <ele>1706.684043435</ele>
        <time>2015-06-11T11:29:06Z</time>
      </trkpt>
      <trkpt lat="45.42807" lon="5.9364">
        <ele>1706.684043435</ele>
        <time>2015-06-11T11:29:11Z</time>
      </trkpt>
      <trkpt lat="45.42807" lon="5.9364">
        <ele>1706.684043435</ele>
        <time>2015-06-11T11:29:16Z</time>
      </trkpt>
      <trkpt lat="45.42807" lon="5.9364">
        <ele>1706.684043435</ele>
        <time>2015-06-11T11:29:21Z</time>
      </trkpt>
      <trkpt lat="45.42807" lon="5.9364">
        <ele>1706.684043435</ele>
        <time>2015-06-11T11:29:26Z</time>
      </trkpt>
      <trkpt lat="45.42807" lon="5.9364">
        <ele>1706.684043435</ele>
        <time>2015-06-11T11:29:31Z</time>
      </trkpt>
      <trkpt lat="45.42807" lon="5.9364">
        <ele>1706.684043435</ele>
        <time>2015-06-11T11:29:36Z</time>
      </trkpt>
      <trkpt lat="45.42807" lon="5.9364">
        <ele>1706.684043435</ele>
        <time>2015-06-11T11:29:41Z</time>
      </trkpt>
      <trkpt lat="45.42807" lon="5.9364">
        <ele>1706.684043435</ele>
        <time>2015-06-11T11:29:46Z</time>
      </trkpt>
      <trkpt lat="45.42807" lon="5.9364">
        <ele>1706.684043435</ele>
        <time>2015-06-11T11:29:51Z</time>
      </trkpt>
      <trkpt lat="45.42807" lon="5.9364">
        <ele>1706.684043435</ele>
        <time>2015-06-11T11:29:55Z</time>
      </trkpt>
      <trkpt lat="45.42807" lon="5.9364">
        <ele>1706.684043435</ele>
        <time>2015-06-11T11:30:01Z</time>
      </trkpt>
      <trkpt lat="45.42806" lon="5.93641">
        <ele>1706.684043435</ele>
        <time>2015-06-11T11:30:05Z</time>
      </trkpt>
      <trkpt lat="45.42806" lon="5.93641">
        <ele>1706.684043435</ele>
        <time>2015-06-11T11:30:10Z</time>
      </trkpt>
      <trkpt lat="45.42806" lon="5.93641">
        <ele>1706.684043435</ele>
        <time>2015-06-11T11:30:15Z</time>
      </trkpt>
      <trkpt lat="45.42801" lon="5.93641">
        <ele>1702.287261045</ele>
        <time>2015-06-11T11:30:20Z</time>
      </trkpt>
      <trkpt lat="45.42792" lon="5.93642">
        <ele>1699.150315061</ele>
        <time>2015-06-11T11:30:26Z</time>
      </trkpt>
      <trkpt lat="45.42789" lon="5.93644">
        <ele>1699.150315061</ele>
        <time>2015-06-11T11:30:31Z</time>
      </trkpt>
      <trkpt lat="45.42784" lon="5.93642">
        <ele>1699.150315061</ele>
        <time>2015-06-11T11:30:36Z</time>
      </trkpt>
      <trkpt lat="45.42785" lon="5.9364">
        <ele>1695.984762561</ele>
        <time>2015-06-11T11:30:41Z</time>
      </trkpt>
      <trkpt lat="45.42784" lon="5.93639">
        <ele>1695.984762561</ele>
        <time>2015-06-11T11:30:46Z</time>
      </trkpt>
      <trkpt lat="45.42783" lon="5.9364">
        <ele>1695.984762561</ele>
        <time>2015-06-11T11:30:51Z</time>
      </trkpt>
      <trkpt lat="45.42783" lon="5.9364">
        <ele>1695.984762561</ele>
        <time>2015-06-11T11:30:56Z</time>
      </trkpt>
      <trkpt lat="45.42783" lon="5.9364">
        <ele>1695.984762561</ele>
        <time>2015-06-11T11:31:01Z</time>
      </trkpt>
      <trkpt lat="45.42783" lon="5.9364">
        <ele>1695.984762561</ele>
        <time>2015-06-11T11:31:06Z</time>
      </trkpt>
      <trkpt lat="45.42783" lon="5.9364">
        <ele>1695.984762561</ele>
        <time>2015-06-11T11:31:11Z</time>
      </trkpt>
      <trkpt lat="45.42783" lon="5.93641">
        <ele>1695.984762561</ele>
        <time>2015-06-11T11:31:16Z</time>
      </trkpt>
      <trkpt lat="45.42783" lon="5.93641">
        <ele>1695.984762561</ele>
        <time>2015-06-11T11:31:21Z</time>
      </trkpt>
      <trkpt lat="45.42783" lon="5.93641">
        <ele>1695.984762561</ele>
        <time>2015-06-11T11:31:26Z</time>
      </trkpt>
      <trkpt lat="45.42783" lon="5.93641">
        <ele>1695.984762561</ele>
        <time>2015-06-11T11:31:31Z</time>
      </trkpt>
      <trkpt lat="45.42783" lon="5.93641">
        <ele>1695.984762561</ele>
        <time>2015-06-11T11:31:36Z</time>
      </trkpt>
      <trkpt lat="45.42783" lon="5.93641">
        <ele>1695.984762561</ele>
        <time>2015-06-11T11:31:41Z</time>
      </trkpt>
      <trkpt lat="45.42783" lon="5.93641">
        <ele>1695.984762561</ele>
        <time>2015-06-11T11:31:46Z</time>
      </trkpt>
      <trkpt lat="45.42783" lon="5.93641">
        <ele>1695.984762561</ele>
        <time>2015-06-11T11:31:51Z</time>
      </trkpt>
      <trkpt lat="45.42783" lon="5.93641">
        <ele>1695.984762561</ele>
        <time>2015-06-11T11:31:56Z</time>
      </trkpt>
      <trkpt lat="45.42783" lon="5.93641">
        <ele>1695.984762561</ele>
        <time>2015-06-11T11:32:01Z</time>
      </trkpt>
      <trkpt lat="45.42777" lon="5.93638">
        <ele>1692.798889385</ele>
        <time>2015-06-11T11:32:06Z</time>
      </trkpt>
      <trkpt lat="45.42775" lon="5.93639">
        <ele>1692.798889385</ele>
        <time>2015-06-11T11:32:11Z</time>
      </trkpt>
      <trkpt lat="45.42773" lon="5.93639">
        <ele>1692.798889385</ele>
        <time>2015-06-11T11:32:16Z</time>
      </trkpt>
      <trkpt lat="45.42773" lon="5.93639">
        <ele>1692.798889385</ele>
        <time>2015-06-11T11:32:21Z</time>
      </trkpt>
      <trkpt lat="45.42772" lon="5.93639">
        <ele>1692.798889385</ele>
        <time>2015-06-11T11:32:26Z</time>
      </trkpt>
      <trkpt lat="45.42772" lon="5.93639">
        <ele>1692.798889385</ele>
        <time>2015-06-11T11:32:31Z</time>
      </trkpt>
      <trkpt lat="45.42772" lon="5.93639">
        <ele>1692.798889385</ele>
        <time>2015-06-11T11:32:36Z</time>
      </trkpt>
      <trkpt lat="45.42772" lon="5.93639">
        <ele>1692.798889385</ele>
        <time>2015-06-11T11:32:41Z</time>
      </trkpt>
      <trkpt lat="45.4277" lon="5.93639">
        <ele>1692.798889385</ele>
        <time>2015-06-11T11:32:46Z</time>
      </trkpt>
      <trkpt lat="45.42767" lon="5.93641">
        <ele>1689.750931743</ele>
        <time>2015-06-11T11:32:51Z</time>
      </trkpt>
      <trkpt lat="45.42764" lon="5.93645">
        <ele>1689.750931743</ele>
        <time>2015-06-11T11:32:56Z</time>
      </trkpt>
      <trkpt lat="45.42759" lon="5.9365">
        <ele>1686.382221335</ele>
        <time>2015-06-11T11:33:01Z</time>
      </trkpt>
      <trkpt lat="45.42758" lon="5.93652">
        <ele>1686.382221335</ele>
        <time>2015-06-11T11:33:06Z</time>
      </trkpt>
      <trkpt lat="45.42758" lon="5.9365">
        <ele>1686.382221335</ele>
        <time>2015-06-11T11:33:11Z</time>
      </trkpt>
      <trkpt lat="45.42758" lon="5.93651">
        <ele>1686.382221335</ele>
        <time>2015-06-11T11:33:16Z</time>
      </trkpt>
      <trkpt lat="45.42757" lon="5.93651">
        <ele>1686.382221335</ele>
        <time>2015-06-11T11:33:20Z</time>
      </trkpt>
      <trkpt lat="45.42757" lon="5.93651">
        <ele>1686.382221335</ele>
        <time>2015-06-11T11:33:26Z</time>
      </trkpt>
      <trkpt lat="45.42757" lon="5.93651">
        <ele>1686.382221335</ele>
        <time>2015-06-11T11:33:31Z</time>
      </trkpt>
      <trkpt lat="45.42757" lon="5.93652">
        <ele>1686.382221335</ele>
        <time>2015-06-11T11:33:36Z</time>
      </trkpt>
      <trkpt lat="45.42757" lon="5.93652">
        <ele>1686.382221335</ele>
        <time>2015-06-11T11:33:41Z</time>
      </trkpt>
      <trkpt lat="45.42757" lon="5.93652">
        <ele>1686.382221335</ele>
        <time>2015-06-11T11:33:46Z</time>
      </trkpt>
      <trkpt lat="45.42757" lon="5.93652">
        <ele>1686.382221335</ele>
        <time>2015-06-11T11:33:51Z</time>
      </trkpt>
      <trkpt lat="45.42757" lon="5.93652">
        <ele>1686.382221335</ele>
        <time>2015-06-11T11:33:56Z</time>
      </trkpt>
      <trkpt lat="45.42757" lon="5.93652">
        <ele>1686.382221335</ele>
        <time>2015-06-11T11:34:01Z</time>
      </trkpt>
      <trkpt lat="45.42757" lon="5.93652">
        <ele>1686.382221335</ele>
        <time>2015-06-11T11:34:06Z</time>
      </trkpt>
      <trkpt lat="45.42757" lon="5.93652">
        <ele>1686.382221335</ele>
        <time>2015-06-11T11:34:11Z</time>
      </trkpt>
      <trkpt lat="45.42757" lon="5.93652">
        <ele>1686.382221335</ele>
        <time>2015-06-11T11:34:16Z</time>
      </trkpt>
      <trkpt lat="45.42757" lon="5.93652">
        <ele>1686.382221335</ele>
        <time>2015-06-11T11:34:21Z</time>
      </trkpt>
      <trkpt lat="45.42757" lon="5.93652">
        <ele>1686.382221335</ele>
        <time>2015-06-11T11:34:26Z</time>
      </trkpt>
      <trkpt lat="45.42757" lon="5.93652">
        <ele>1686.382221335</ele>
        <time>2015-06-11T11:34:31Z</time>
      </trkpt>
      <trkpt lat="45.42753" lon="5.93665">
        <ele>1683.628455654</ele>
        <time>2015-06-11T11:34:36Z</time>
      </trkpt>
      <trkpt lat="45.4275" lon="5.9367">
        <ele>1683.628455654</ele>
        <time>2015-06-11T11:34:41Z</time>
      </trkpt>
      <trkpt lat="45.42743" lon="5.93678">
        <ele>1680.539788876</ele>
        <time>2015-06-11T11:34:46Z</time>
      </trkpt>
      <trkpt lat="45.42742" lon="5.93676">
        <ele>1680.539788876</ele>
        <time>2015-06-11T11:34:51Z</time>
      </trkpt>
      <trkpt lat="45.42742" lon="5.93678">
        <ele>1680.539788876</ele>
        <time>2015-06-11T11:34:56Z</time>
      </trkpt>
      <trkpt lat="45.42742" lon="5.93677">
        <ele>1680.539788876</ele>
        <time>2015-06-11T11:35:01Z</time>
      </trkpt>
      <trkpt lat="45.42741" lon="5.93676">
        <ele>1680.539788876</ele>
        <time>2015-06-11T11:35:06Z</time>
      </trkpt>
      <trkpt lat="45.42741" lon="5.93675">
        <ele>1680.539788876</ele>
        <time>2015-06-11T11:35:11Z</time>
      </trkpt>
      <trkpt lat="45.42741" lon="5.93676">
        <ele>1680.539788876</ele>
        <time>2015-06-11T11:35:16Z</time>
      </trkpt>
      <trkpt lat="45.42741" lon="5.93675">
        <ele>1680.539788876</ele>
        <time>2015-06-11T11:35:21Z</time>
      </trkpt>
      <trkpt lat="45.42741" lon="5.93675">
        <ele>1680.539788876</ele>
        <time>2015-06-11T11:35:26Z</time>
      </trkpt>
      <trkpt lat="45.42741" lon="5.93675">
        <ele>1680.539788876</ele>
        <time>2015-06-11T11:35:31Z</time>
      </trkpt>
      <trkpt lat="45.42741" lon="5.93675">
        <ele>1680.539788876</ele>
        <time>2015-06-11T11:35:36Z</time>
      </trkpt>
      <trkpt lat="45.42741" lon="5.93675">
        <ele>1680.539788876</ele>
        <time>2015-06-11T11:35:41Z</time>
      </trkpt>
      <trkpt lat="45.42741" lon="5.93675">
        <ele>1680.539788876</ele>
        <time>2015-06-11T11:35:46Z</time>
      </trkpt>
      <trkpt lat="45.42741" lon="5.93675">
        <ele>1680.539788876</ele>
        <time>2015-06-11T11:35:51Z</time>
      </trkpt>
      <trkpt lat="45.42741" lon="5.93675">
        <ele>1680.539788876</ele>
        <time>2015-06-11T11:35:56Z</time>
      </trkpt>
      <trkpt lat="45.42742" lon="5.93668">
        <ele>1677.598263743</ele>
        <time>2015-06-11T11:36:01Z</time>
      </trkpt>
      <trkpt lat="45.42749" lon="5.93663">
        <ele>1677.598263743</ele>
        <time>2015-06-11T11:36:06Z</time>
      </trkpt>
      <trkpt lat="45.42752" lon="5.93655">
        <ele>1675.546474787</ele>
        <time>2015-06-11T11:36:11Z</time>
      </trkpt>
      <trkpt lat="45.42755" lon="5.93648">
        <ele>1675.546474787</ele>
        <time>2015-06-11T11:36:16Z</time>
      </trkpt>
      <trkpt lat="45.42759" lon="5.93648">
        <ele>1675.546474787</ele>
        <time>2015-06-11T11:36:20Z</time>
      </trkpt>
      <trkpt lat="45.42759" lon="5.93645">
        <ele>1674.312306625</ele>
        <time>2015-06-11T11:36:25Z</time>
      </trkpt>
      <trkpt lat="45.4276" lon="5.93644">
        <ele>1674.312306625</ele>
        <time>2015-06-11T11:36:31Z</time>
      </trkpt>
      <trkpt lat="45.4276" lon="5.93644">
        <ele>1674.312306625</ele>
        <time>2015-06-11T11:36:35Z</time>
      </trkpt>
      <trkpt lat="45.4276" lon="5.93644">
        <ele>1674.312306625</ele>
        <time>2015-06-11T11:36:41Z</time>
      </trkpt>
      <trkpt lat="45.42761" lon="5.93644">
        <ele>1674.312306625</ele>
        <time>2015-06-11T11:36:46Z</time>
      </trkpt>
      <trkpt lat="45.42761" lon="5.93645">
        <ele>1674.312306625</ele>
        <time>2015-06-11T11:36:51Z</time>
      </trkpt>
      <trkpt lat="45.42761" lon="5.93645">
        <ele>1674.312306625</ele>
        <time>2015-06-11T11:36:56Z</time>
      </trkpt>
      <trkpt lat="45.42761" lon="5.93645">
        <ele>1674.312306625</ele>
        <time>2015-06-11T11:37:01Z</time>
      </trkpt>
      <trkpt lat="45.42761" lon="5.93645">
        <ele>1674.312306625</ele>
        <time>2015-06-11T11:37:06Z</time>
      </trkpt>
      <trkpt lat="45.42761" lon="5.93642">
        <ele>1674.312306625</ele>
        <time>2015-06-11T11:37:11Z</time>
      </trkpt>
      <trkpt lat="45.42768" lon="5.93639">
        <ele>1673.676816319</ele>
        <time>2015-06-11T11:37:16Z</time>
      </trkpt>
      <trkpt lat="45.42774" lon="5.93639">
        <ele>1673.676816319</ele>
        <time>2015-06-11T11:37:21Z</time>
      </trkpt>
      <trkpt lat="45.42775" lon="5.93637">
        <ele>1673.676816319</ele>
        <time>2015-06-11T11:37:26Z</time>
      </trkpt>
      <trkpt lat="45.42778" lon="5.93634">
        <ele>1673.437311411</ele>
        <time>2015-06-11T11:37:31Z</time>
      </trkpt>
      <trkpt lat="45.42779" lon="5.93636">
        <ele>1673.437311411</ele>
        <time>2015-06-11T11:37:36Z</time>
      </trkpt>
      <trkpt lat="45.4278" lon="5.93635">
        <ele>1673.437311411</ele>
        <time>2015-06-11T11:37:41Z</time>
      </trkpt>
      <trkpt lat="45.42781" lon="5.93637">
        <ele>1673.437311411</ele>
        <time>2015-06-11T11:37:46Z</time>
      </trkpt>
      <trkpt lat="45.42781" lon="5.93637">
        <ele>1673.437311411</ele>
        <time>2015-06-11T11:37:51Z</time>
      </trkpt>
      <trkpt lat="45.42791" lon="5.93638">
        <ele>1673.109081073</ele>
        <time>2015-06-11T11:37:56Z</time>
      </trkpt>
      <trkpt lat="45.42798" lon="5.93644">
        <ele>1673.109081073</ele>
        <time>2015-06-11T11:38:01Z</time>
      </trkpt>
      <trkpt lat="45.42802" lon="5.93639">
        <ele>1672.991497764</ele>
        <time>2015-06-11T11:38:06Z</time>
      </trkpt>
      <trkpt lat="45.42807" lon="5.93642">
        <ele>1672.991497764</ele>
        <time>2015-06-11T11:38:11Z</time>
      </trkpt>
      <trkpt lat="45.42811" lon="5.93642">
        <ele>1672.913670058</ele>
        <time>2015-06-11T11:38:16Z</time>
      </trkpt>
      <trkpt lat="45.42809" lon="5.93642">
        <ele>1672.913670058</ele>
        <time>2015-06-11T11:38:21Z</time>
      </trkpt>
      <trkpt lat="45.4281" lon="5.93643">
        <ele>1672.913670058</ele>
        <time>2015-06-11T11:38:26Z</time>
      </trkpt>
      <trkpt lat="45.42811" lon="5.93644">
        <ele>1672.913670058</ele>
        <time>2015-06-11T11:38:31Z</time>
      </trkpt>
      <trkpt lat="45.42811" lon="5.93644">
        <ele>1672.913670058</ele>
        <time>2015-06-11T11:38:35Z</time>
      </trkpt>
      <trkpt lat="45.42811" lon="5.93644">
        <ele>1672.913670058</ele>
        <time>2015-06-11T11:38:41Z</time>
      </trkpt>
      <trkpt lat="45.42811" lon="5.93644">
        <ele>1672.913670058</ele>
        <time>2015-06-11T11:38:45Z</time>
      </trkpt>
      <trkpt lat="45.42811" lon="5.93644">
        <ele>1672.913670058</ele>
        <time>2015-06-11T11:38:51Z</time>
      </trkpt>
      <trkpt lat="45.42811" lon="5.93644">
        <ele>1672.913670058</ele>
        <time>2015-06-11T11:38:56Z</time>
      </trkpt>
      <trkpt lat="45.42811" lon="5.93644">
        <ele>1672.913670058</ele>
        <time>2015-06-11T11:39:00Z</time>
      </trkpt>
      <trkpt lat="45.42811" lon="5.93644">
        <ele>1672.913670058</ele>
        <time>2015-06-11T11:39:05Z</time>
      </trkpt>
      <trkpt lat="45.42811" lon="5.93644">
        <ele>1672.913670058</ele>
        <time>2015-06-11T11:39:10Z</time>
      </trkpt>
      <trkpt lat="45.42811" lon="5.93644">
        <ele>1672.913670058</ele>
        <time>2015-06-11T11:39:17Z</time>
      </trkpt>
      <trkpt lat="45.42811" lon="5.93644">
        <ele>1672.913670058</ele>
        <time>2015-06-11T11:39:21Z</time>
      </trkpt>
      <trkpt lat="45.42811" lon="5.93644">
        <ele>1672.913670058</ele>
        <time>2015-06-11T11:39:26Z</time>
      </trkpt>
      <trkpt lat="45.42811" lon="5.93644">
        <ele>1672.913670058</ele>
        <time>2015-06-11T11:39:31Z</time>
      </trkpt>
      <trkpt lat="45.42811" lon="5.93644">
        <ele>1672.913670058</ele>
        <time>2015-06-11T11:39:35Z</time>
      </trkpt>
      <trkpt lat="45.42811" lon="5.93644">
        <ele>1672.913670058</ele>
        <time>2015-06-11T11:39:40Z</time>
      </trkpt>
      <trkpt lat="45.42811" lon="5.93644">
        <ele>1672.913670058</ele>
        <time>2015-06-11T11:39:45Z</time>
      </trkpt>
      <trkpt lat="45.42811" lon="5.93644">
        <ele>1672.913670058</ele>
        <time>2015-06-11T11:39:50Z</time>
      </trkpt>
      <trkpt lat="45.42811" lon="5.93644">
        <ele>1672.913670058</ele>
        <time>2015-06-11T11:39:55Z</time>
      </trkpt>
      <trkpt lat="45.42811" lon="5.93644">
        <ele>1672.913670058</ele>
        <time>2015-06-11T11:40:00Z</time>
      </trkpt>
      <trkpt lat="45.42811" lon="5.93644">
        <ele>1672.913670058</ele>
        <time>2015-06-11T11:40:05Z</time>
      </trkpt>
      <trkpt lat="45.42811" lon="5.93644">
        <ele>1672.913670058</ele>
        <time>2015-06-11T11:40:10Z</time>
      </trkpt>
      <trkpt lat="45.42811" lon="5.93644">
        <ele>1672.913670058</ele>
        <time>2015-06-11T11:40:15Z</time>
      </trkpt>
      <trkpt lat="45.42811" lon="5.93644">
        <ele>1672.913670058</ele>
        <time>2015-06-11T11:40:20Z</time>
      </trkpt>
      <trkpt lat="45.42811" lon="5.93644">
        <ele>1672.913670058</ele>
        <time>2015-06-11T11:40:25Z</time>
      </trkpt>
      <trkpt lat="45.42811" lon="5.93644">
        <ele>1672.913670058</ele>
        <time>2015-06-11T11:40:30Z</time>
      </trkpt>
      <trkpt lat="45.42811" lon="5.93644">
        <ele>1672.913670058</ele>
        <time>2015-06-11T11:40:35Z</time>
      </trkpt>
      <trkpt lat="45.42811" lon="5.93644">
        <ele>1672.913670058</ele>
        <time>2015-06-11T11:40:40Z</time>
      </trkpt>
      <trkpt lat="45.42811" lon="5.93644">
        <ele>1672.913670058</ele>
        <time>2015-06-11T11:40:45Z</time>
      </trkpt>
      <trkpt lat="45.42811" lon="5.93644">
        <ele>1672.913670058</ele>
        <time>2015-06-11T11:40:50Z</time>
      </trkpt>
      <trkpt lat="45.42811" lon="5.93644">
        <ele>1672.913670058</ele>
        <time>2015-06-11T11:40:55Z</time>
      </trkpt>
      <trkpt lat="45.42811" lon="5.93644">
        <ele>1672.913670058</ele>
        <time>2015-06-11T11:41:00Z</time>
      </trkpt>
      <trkpt lat="45.42811" lon="5.93644">
        <ele>1672.913670058</ele>
        <time>2015-06-11T11:41:05Z</time>
      </trkpt>
      <trkpt lat="45.42811" lon="5.93644">
        <ele>1672.913670058</ele>
        <time>2015-06-11T11:41:10Z</time>
      </trkpt>
      <trkpt lat="45.42811" lon="5.93644">
        <ele>1672.913670058</ele>
        <time>2015-06-11T11:41:15Z</time>
      </trkpt>
      <trkpt lat="45.42811" lon="5.93644">
        <ele>1672.913670058</ele>
        <time>2015-06-11T11:41:20Z</time>
      </trkpt>
      <trkpt lat="45.42811" lon="5.93644">
        <ele>1672.913670058</ele>
        <time>2015-06-11T11:41:25Z</time>
      </trkpt>
      <trkpt lat="45.42811" lon="5.93644">
        <ele>1672.913670058</ele>
        <time>2015-06-11T11:41:30Z</time>
      </trkpt>
      <trkpt lat="45.42811" lon="5.93644">
        <ele>1672.913670058</ele>
        <time>2015-06-11T11:41:35Z</time>
      </trkpt>
      <trkpt lat="45.42811" lon="5.93644">
        <ele>1672.913670058</ele>
        <time>2015-06-11T11:41:41Z</time>
      </trkpt>
      <trkpt lat="45.42811" lon="5.93644">
        <ele>1672.913670058</ele>
        <time>2015-06-11T11:41:46Z</time>
      </trkpt>
      <trkpt lat="45.42809" lon="5.93644">
        <ele>1672.913670058</ele>
        <time>2015-06-11T11:41:51Z</time>
      </trkpt>
      <trkpt lat="45.42808" lon="5.93645">
        <ele>1672.913670058</ele>
        <time>2015-06-11T11:41:56Z</time>
      </trkpt>
      <trkpt lat="45.42807" lon="5.93647">
        <ele>1672.913670058</ele>
        <time>2015-06-11T11:42:01Z</time>
      </trkpt>
      <trkpt lat="45.42807" lon="5.93647">
        <ele>1672.913670058</ele>
        <time>2015-06-11T11:42:05Z</time>
      </trkpt>
      <trkpt lat="45.42805" lon="5.93648">
        <ele>1672.423444739</ele>
        <time>2015-06-11T11:42:11Z</time>
      </trkpt>
      <trkpt lat="45.42805" lon="5.93648">
        <ele>1672.423444739</ele>
        <time>2015-06-11T11:42:16Z</time>
      </trkpt>
      <trkpt lat="45.42806" lon="5.93646">
        <ele>1672.423444739</ele>
        <time>2015-06-11T11:42:21Z</time>
      </trkpt>
      <trkpt lat="45.42807" lon="5.93644">
        <ele>1672.423444739</ele>
        <time>2015-06-11T11:42:26Z</time>
      </trkpt>
      <trkpt lat="45.42805" lon="5.93645">
        <ele>1672.423444739</ele>
        <time>2015-06-11T11:42:31Z</time>
      </trkpt>
      <trkpt lat="45.42805" lon="5.93646">
        <ele>1672.423444739</ele>
        <time>2015-06-11T11:42:36Z</time>
      </trkpt>
      <trkpt lat="45.42805" lon="5.93646">
        <ele>1672.423444739</ele>
        <time>2015-06-11T11:42:41Z</time>
      </trkpt>
      <trkpt lat="45.42805" lon="5.93646">
        <ele>1672.423444739</ele>
        <time>2015-06-11T11:42:46Z</time>
      </trkpt>
      <trkpt lat="45.42801" lon="5.93641">
        <ele>1671.69763327</ele>
        <time>2015-06-11T11:42:51Z</time>
      </trkpt>
      <trkpt lat="45.428" lon="5.93634">
        <ele>1671.69763327</ele>
        <time>2015-06-11T11:42:56Z</time>
      </trkpt>
      <trkpt lat="45.42799" lon="5.93633">
        <ele>1671.69763327</ele>
        <time>2015-06-11T11:43:01Z</time>
      </trkpt>
      <trkpt lat="45.42798" lon="5.93633">
        <ele>1671.69763327</ele>
        <time>2015-06-11T11:43:06Z</time>
      </trkpt>
      <trkpt lat="45.42798" lon="5.93633">
        <ele>1671.69763327</ele>
        <time>2015-06-11T11:43:11Z</time>
      </trkpt>
      <trkpt lat="45.42798" lon="5.93633">
        <ele>1671.69763327</ele>
        <time>2015-06-11T11:43:16Z</time>
      </trkpt>
      <trkpt lat="45.42798" lon="5.93633">
        <ele>1671.69763327</ele>
        <time>2015-06-11T11:43:21Z</time>
      </trkpt>
      <trkpt lat="45.42797" lon="5.93631">
        <ele>1672.075848158</ele>
        <time>2015-06-11T11:43:26Z</time>
      </trkpt>
      <trkpt lat="45.42796" lon="5.93629">
        <ele>1672.075848158</ele>
        <time>2015-06-11T11:43:30Z</time>
      </trkpt>
      <trkpt lat="45.42798" lon="5.93622">
        <ele>1672.075848158</ele>
        <time>2015-06-11T11:43:36Z</time>
      </trkpt>
      <trkpt lat="45.428" lon="5.9362">
        <ele>1672.728736949</ele>
        <time>2015-06-11T11:43:40Z</time>
      </trkpt>
      <trkpt lat="45.428" lon="5.9362">
        <ele>1672.728736949</ele>
        <time>2015-06-11T11:43:46Z</time>
      </trkpt>
      <trkpt lat="45.42799" lon="5.9362">
        <ele>1672.728736949</ele>
        <time>2015-06-11T11:43:50Z</time>
      </trkpt>
      <trkpt lat="45.428" lon="5.9362">
        <ele>1672.728736949</ele>
        <time>2015-06-11T11:43:55Z</time>
      </trkpt>
      <trkpt lat="45.428" lon="5.9362">
        <ele>1672.728736949</ele>
        <time>2015-06-11T11:44:01Z</time>
      </trkpt>
      <trkpt lat="45.42799" lon="5.93618">
        <ele>1672.728736949</ele>
        <time>2015-06-11T11:44:06Z</time>
      </trkpt>
      <trkpt lat="45.42797" lon="5.93617">
        <ele>1672.728736949</ele>
        <time>2015-06-11T11:44:11Z</time>
      </trkpt>
      <trkpt lat="45.42798" lon="5.93616">
        <ele>1672.728736949</ele>
        <time>2015-06-11T11:44:16Z</time>
      </trkpt>
      <trkpt lat="45.42799" lon="5.93613">
        <ele>1672.728736949</ele>
        <time>2015-06-11T11:44:21Z</time>
      </trkpt>
      <trkpt lat="45.42799" lon="5.93613">
        <ele>1672.728736949</ele>
        <time>2015-06-11T11:44:26Z</time>
      </trkpt>
      <trkpt lat="45.42799" lon="5.93613">
        <ele>1672.728736949</ele>
        <time>2015-06-11T11:44:31Z</time>
      </trkpt>
      <trkpt lat="45.42799" lon="5.93613">
        <ele>1672.728736949</ele>
        <time>2015-06-11T11:44:36Z</time>
      </trkpt>
      <trkpt lat="45.42799" lon="5.93613">
        <ele>1672.728736949</ele>
        <time>2015-06-11T11:44:41Z</time>
      </trkpt>
      <trkpt lat="45.42799" lon="5.93613">
        <ele>1672.728736949</ele>
        <time>2015-06-11T11:44:46Z</time>
      </trkpt>
      <trkpt lat="45.42802" lon="5.93608">
        <ele>1674.799043827</ele>
        <time>2015-06-11T11:44:51Z</time>
      </trkpt>
      <trkpt lat="45.42805" lon="5.93602">
        <ele>1674.799043827</ele>
        <time>2015-06-11T11:44:56Z</time>
      </trkpt>
      <trkpt lat="45.42806" lon="5.936">
        <ele>1674.799043827</ele>
        <time>2015-06-11T11:45:01Z</time>
      </trkpt>
      <trkpt lat="45.42807" lon="5.93599">
        <ele>1674.799043827</ele>
        <time>2015-06-11T11:45:06Z</time>
      </trkpt>
      <trkpt lat="45.42807" lon="5.936">
        <ele>1674.799043827</ele>
        <time>2015-06-11T11:45:11Z</time>
      </trkpt>
      <trkpt lat="45.42807" lon="5.936">
        <ele>1674.799043827</ele>
        <time>2015-06-11T11:45:16Z</time>
      </trkpt>
      <trkpt lat="45.42807" lon="5.936">
        <ele>1674.799043827</ele>
        <time>2015-06-11T11:45:21Z</time>
      </trkpt>
      <trkpt lat="45.42807" lon="5.936">
        <ele>1674.799043827</ele>
        <time>2015-06-11T11:45:26Z</time>
      </trkpt>
      <trkpt lat="45.42807" lon="5.936">
        <ele>1674.799043827</ele>
        <time>2015-06-11T11:45:31Z</time>
      </trkpt>
      <trkpt lat="45.42808" lon="5.936">
        <ele>1674.799043827</ele>
        <time>2015-06-11T11:45:36Z</time>
      </trkpt>
      <trkpt lat="45.42816" lon="5.93601">
        <ele>1678.163178032</ele>
        <time>2015-06-11T11:45:41Z</time>
      </trkpt>
      <trkpt lat="45.42822" lon="5.93601">
        <ele>1678.163178032</ele>
        <time>2015-06-11T11:45:46Z</time>
      </trkpt>
      <trkpt lat="45.42823" lon="5.93601">
        <ele>1678.163178032</ele>
        <time>2015-06-11T11:45:51Z</time>
      </trkpt>
      <trkpt lat="45.42825" lon="5.93602">
        <ele>1678.163178032</ele>
        <time>2015-06-11T11:45:56Z</time>
      </trkpt>
      <trkpt lat="45.42825" lon="5.93602">
        <ele>1678.163178032</ele>
        <time>2015-06-11T11:46:01Z</time>
      </trkpt>
      <trkpt lat="45.42827" lon="5.93603">
        <ele>1681.683555502</ele>
        <time>2015-06-11T11:46:06Z</time>
      </trkpt>
      <trkpt lat="45.42837" lon="5.93612">
        <ele>1685.188246228</ele>
        <time>2015-06-11T11:46:11Z</time>
      </trkpt>
      <trkpt lat="45.42844" lon="5.93614">
        <ele>1685.188246228</ele>
        <time>2015-06-11T11:46:16Z</time>
      </trkpt>
      <trkpt lat="45.42851" lon="5.93618">
        <ele>1688.228324356</ele>
        <time>2015-06-11T11:46:21Z</time>
      </trkpt>
      <trkpt lat="45.42861" lon="5.9362">
        <ele>1691.117707844</ele>
        <time>2015-06-11T11:46:26Z</time>
      </trkpt>
      <trkpt lat="45.42867" lon="5.93614">
        <ele>1691.117707844</ele>
        <time>2015-06-11T11:46:31Z</time>
      </trkpt>
      <trkpt lat="45.42872" lon="5.93613">
        <ele>1694.435941756</ele>
        <time>2015-06-11T11:46:36Z</time>
      </trkpt>
      <trkpt lat="45.42877" lon="5.93611">
        <ele>1694.435941756</ele>
        <time>2015-06-11T11:46:41Z</time>
      </trkpt>
      <trkpt lat="45.42886" lon="5.9361">
        <ele>1697.70216658</ele>
        <time>2015-06-11T11:46:46Z</time>
      </trkpt>
      <trkpt lat="45.42885" lon="5.9361">
        <ele>1697.70216658</ele>
        <time>2015-06-11T11:46:51Z</time>
      </trkpt>
      <trkpt lat="45.42888" lon="5.93608">
        <ele>1697.70216658</ele>
        <time>2015-06-11T11:46:55Z</time>
      </trkpt>
      <trkpt lat="45.42887" lon="5.93599">
        <ele>1701.196796359</ele>
        <time>2015-06-11T11:47:00Z</time>
      </trkpt>
      <trkpt lat="45.42887" lon="5.93607">
        <ele>1701.196796359</ele>
        <time>2015-06-11T11:47:05Z</time>
      </trkpt>
      <trkpt lat="45.42886" lon="5.93604">
        <ele>1701.196796359</ele>
        <time>2015-06-11T11:47:11Z</time>
      </trkpt>
      <trkpt lat="45.42886" lon="5.93605">
        <ele>1701.196796359</ele>
        <time>2015-06-11T11:47:15Z</time>
      </trkpt>
      <trkpt lat="45.42886" lon="5.93605">
        <ele>1701.196796359</ele>
        <time>2015-06-11T11:47:20Z</time>
      </trkpt>
      <trkpt lat="45.42886" lon="5.93605">
        <ele>1701.196796359</ele>
        <time>2015-06-11T11:47:26Z</time>
      </trkpt>
      <trkpt lat="45.42886" lon="5.93605">
        <ele>1701.196796359</ele>
        <time>2015-06-11T11:47:31Z</time>
      </trkpt>
      <trkpt lat="45.42886" lon="5.93605">
        <ele>1701.196796359</ele>
        <time>2015-06-11T11:47:36Z</time>
      </trkpt>
      <trkpt lat="45.42886" lon="5.93605">
        <ele>1701.196796359</ele>
        <time>2015-06-11T11:47:41Z</time>
      </trkpt>
      <trkpt lat="45.42886" lon="5.93605">
        <ele>1701.196796359</ele>
        <time>2015-06-11T11:47:46Z</time>
      </trkpt>
      <trkpt lat="45.42886" lon="5.93605">
        <ele>1701.196796359</ele>
        <time>2015-06-11T11:47:51Z</time>
      </trkpt>
      <trkpt lat="45.42886" lon="5.93605">
        <ele>1701.196796359</ele>
        <time>2015-06-11T11:47:56Z</time>
      </trkpt>
      <trkpt lat="45.4289" lon="5.93587">
        <ele>1704.599733514</ele>
        <time>2015-06-11T11:48:01Z</time>
      </trkpt>
      <trkpt lat="45.42889" lon="5.93582">
        <ele>1704.599733514</ele>
        <time>2015-06-11T11:48:06Z</time>
      </trkpt>
      <trkpt lat="45.42889" lon="5.93582">
        <ele>1704.599733514</ele>
        <time>2015-06-11T11:48:11Z</time>
      </trkpt>
      <trkpt lat="45.4289" lon="5.93582">
        <ele>1704.599733514</ele>
        <time>2015-06-11T11:48:16Z</time>
      </trkpt>
      <trkpt lat="45.4289" lon="5.93583">
        <ele>1704.599733514</ele>
        <time>2015-06-11T11:48:22Z</time>
      </trkpt>
      <trkpt lat="45.4289" lon="5.93583">
        <ele>1704.599733514</ele>
        <time>2015-06-11T11:48:26Z</time>
      </trkpt>
      <trkpt lat="45.42891" lon="5.93583">
        <ele>1704.599733514</ele>
        <time>2015-06-11T11:48:31Z</time>
      </trkpt>
      <trkpt lat="45.42891" lon="5.93583">
        <ele>1704.599733514</ele>
        <time>2015-06-11T11:48:36Z</time>
      </trkpt>
      <trkpt lat="45.42893" lon="5.93576">
        <ele>1708.771858196</ele>
        <time>2015-06-11T11:48:41Z</time>
      </trkpt>
      <trkpt lat="45.42897" lon="5.93569">
        <ele>1708.771858196</ele>
        <time>2015-06-11T11:48:46Z</time>
      </trkpt>
      <trkpt lat="45.42898" lon="5.93562">
        <ele>1712.77373636</ele>
        <time>2015-06-11T11:48:51Z</time>
      </trkpt>
      <trkpt lat="45.42901" lon="5.93562">
        <ele>1712.77373636</ele>
        <time>2015-06-11T11:48:56Z</time>
      </trkpt>
      <trkpt lat="45.42903" lon="5.9356">
        <ele>1712.77373636</ele>
        <time>2015-06-11T11:49:01Z</time>
      </trkpt>
      <trkpt lat="45.42903" lon="5.93555">
        <ele>1717.18123854</ele>
        <time>2015-06-11T11:49:06Z</time>
      </trkpt>
      <trkpt lat="45.4291" lon="5.9356">
        <ele>1717.18123854</ele>
        <time>2015-06-11T11:49:11Z</time>
      </trkpt>
      <trkpt lat="45.42909" lon="5.9356">
        <ele>1717.18123854</ele>
        <time>2015-06-11T11:49:16Z</time>
      </trkpt>
      <trkpt lat="45.4291" lon="5.9356">
        <ele>1721.08308211</ele>
        <time>2015-06-11T11:49:21Z</time>
      </trkpt>
      <trkpt lat="45.42911" lon="5.9356">
        <ele>1721.08308211</ele>
        <time>2015-06-11T11:49:26Z</time>
      </trkpt>
      <trkpt lat="45.42912" lon="5.9356">
        <ele>1721.08308211</ele>
        <time>2015-06-11T11:49:31Z</time>
      </trkpt>
      <trkpt lat="45.42912" lon="5.9356">
        <ele>1721.08308211</ele>
        <time>2015-06-11T11:49:36Z</time>
      </trkpt>
      <trkpt lat="45.42912" lon="5.9356">
        <ele>1721.08308211</ele>
        <time>2015-06-11T11:49:41Z</time>
      </trkpt>
      <trkpt lat="45.42911" lon="5.9356">
        <ele>1721.08308211</ele>
        <time>2015-06-11T11:49:46Z</time>
      </trkpt>
      <trkpt lat="45.42909" lon="5.93554">
        <ele>1721.08308211</ele>
        <time>2015-06-11T11:49:51Z</time>
      </trkpt>
      <trkpt lat="45.4291" lon="5.9355">
        <ele>1724.647568248</ele>
        <time>2015-06-11T11:49:56Z</time>
      </trkpt>
      <trkpt lat="45.4291" lon="5.93548">
        <ele>1724.647568248</ele>
        <time>2015-06-11T11:50:01Z</time>
      </trkpt>
      <trkpt lat="45.4291" lon="5.93547">
        <ele>1724.647568248</ele>
        <time>2015-06-11T11:50:06Z</time>
      </trkpt>
      <trkpt lat="45.4291" lon="5.93547">
        <ele>1724.647568248</ele>
        <time>2015-06-11T11:50:11Z</time>
      </trkpt>
      <trkpt lat="45.42912" lon="5.93538">
        <ele>1727.598865487</ele>
        <time>2015-06-11T11:50:16Z</time>
      </trkpt>
      <trkpt lat="45.42916" lon="5.93533">
        <ele>1727.598865487</ele>
        <time>2015-06-11T11:50:20Z</time>
      </trkpt>
      <trkpt lat="45.42918" lon="5.93539">
        <ele>1727.598865487</ele>
        <time>2015-06-11T11:50:26Z</time>
      </trkpt>
      <trkpt lat="45.4292" lon="5.93535">
        <ele>1731.846548389</ele>
        <time>2015-06-11T11:50:31Z</time>
      </trkpt>
      <trkpt lat="45.4292" lon="5.93534">
        <ele>1731.846548389</ele>
        <time>2015-06-11T11:50:36Z</time>
      </trkpt>
      <trkpt lat="45.42921" lon="5.93532">
        <ele>1731.846548389</ele>
        <time>2015-06-11T11:50:41Z</time>
      </trkpt>
      <trkpt lat="45.42922" lon="5.93529">
        <ele>1731.846548389</ele>
        <time>2015-06-11T11:50:46Z</time>
      </trkpt>
      <trkpt lat="45.42922" lon="5.93529">
        <ele>1731.846548389</ele>
        <time>2015-06-11T11:50:51Z</time>
      </trkpt>
      <trkpt lat="45.42922" lon="5.93529">
        <ele>1731.846548389</ele>
        <time>2015-06-11T11:50:56Z</time>
      </trkpt>
      <trkpt lat="45.42922" lon="5.93529">
        <ele>1731.846548389</ele>
        <time>2015-06-11T11:51:00Z</time>
      </trkpt>
      <trkpt lat="45.42922" lon="5.93529">
        <ele>1731.846548389</ele>
        <time>2015-06-11T11:51:06Z</time>
      </trkpt>
      <trkpt lat="45.42922" lon="5.93529">
        <ele>1731.846548389</ele>
        <time>2015-06-11T11:51:11Z</time>
      </trkpt>
      <trkpt lat="45.42925" lon="5.93524">
        <ele>1735.551006136</ele>
        <time>2015-06-11T11:51:16Z</time>
      </trkpt>
      <trkpt lat="45.4293" lon="5.93525">
        <ele>1735.551006136</ele>
        <time>2015-06-11T11:51:21Z</time>
      </trkpt>
      <trkpt lat="45.42932" lon="5.9352">
        <ele>1739.317221157</ele>
        <time>2015-06-11T11:51:26Z</time>
      </trkpt>
      <trkpt lat="45.42931" lon="5.9352">
        <ele>1739.317221157</ele>
        <time>2015-06-11T11:51:31Z</time>
      </trkpt>
      <trkpt lat="45.42932" lon="5.93522">
        <ele>1739.317221157</ele>
        <time>2015-06-11T11:51:36Z</time>
      </trkpt>
      <trkpt lat="45.42933" lon="5.93522">
        <ele>1739.317221157</ele>
        <time>2015-06-11T11:51:41Z</time>
      </trkpt>
      <trkpt lat="45.42933" lon="5.93522">
        <ele>1739.317221157</ele>
        <time>2015-06-11T11:51:46Z</time>
      </trkpt>
      <trkpt lat="45.42933" lon="5.93522">
        <ele>1739.317221157</ele>
        <time>2015-06-11T11:51:51Z</time>
      </trkpt>
      <trkpt lat="45.42933" lon="5.93523">
        <ele>1739.317221157</ele>
        <time>2015-06-11T11:51:56Z</time>
      </trkpt>
      <trkpt lat="45.42933" lon="5.93523">
        <ele>1739.317221157</ele>
        <time>2015-06-11T11:52:01Z</time>
      </trkpt>
      <trkpt lat="45.42933" lon="5.93523">
        <ele>1739.317221157</ele>
        <time>2015-06-11T11:52:06Z</time>
      </trkpt>
      <trkpt lat="45.42934" lon="5.93523">
        <ele>1739.317221157</ele>
        <time>2015-06-11T11:52:11Z</time>
      </trkpt>
      <trkpt lat="45.42941" lon="5.93548">
        <ele>1743.994121631</ele>
        <time>2015-06-11T11:52:16Z</time>
      </trkpt>
      <trkpt lat="45.42955" lon="5.93554">
        <ele>1748.78015831</ele>
        <time>2015-06-11T11:52:21Z</time>
      </trkpt>
      <trkpt lat="45.42966" lon="5.9356">
        <ele>1753.797877881</ele>
        <time>2015-06-11T11:52:26Z</time>
      </trkpt>
      <trkpt lat="45.42968" lon="5.9357">
        <ele>1753.797877881</ele>
        <time>2015-06-11T11:52:31Z</time>
      </trkpt>
      <trkpt lat="45.42972" lon="5.9358">
        <ele>1759.304790781</ele>
        <time>2015-06-11T11:52:36Z</time>
      </trkpt>
      <trkpt lat="45.42977" lon="5.93585">
        <ele>1759.304790781</ele>
        <time>2015-06-11T11:52:41Z</time>
      </trkpt>
      <trkpt lat="45.42982" lon="5.93584">
        <ele>1764.817616247</ele>
        <time>2015-06-11T11:52:46Z</time>
      </trkpt>
      <trkpt lat="45.42986" lon="5.93584">
        <ele>1764.817616247</ele>
        <time>2015-06-11T11:52:51Z</time>
      </trkpt>
      <trkpt lat="45.42989" lon="5.93582">
        <ele>1764.817616247</ele>
        <time>2015-06-11T11:52:56Z</time>
      </trkpt>
      <trkpt lat="45.4299" lon="5.93583">
        <ele>1764.817616247</ele>
        <time>2015-06-11T11:53:01Z</time>
      </trkpt>
      <trkpt lat="45.4299" lon="5.93583">
        <ele>1769.312125284</ele>
        <time>2015-06-11T11:53:06Z</time>
      </trkpt>
      <trkpt lat="45.4299" lon="5.93584">
        <ele>1769.312125284</ele>
        <time>2015-06-11T11:53:11Z</time>
      </trkpt>
      <trkpt lat="45.4299" lon="5.93583">
        <ele>1769.312125284</ele>
        <time>2015-06-11T11:53:16Z</time>
      </trkpt>
      <trkpt lat="45.4299" lon="5.93583">
        <ele>1769.312125284</ele>
        <time>2015-06-11T11:53:20Z</time>
      </trkpt>
      <trkpt lat="45.42991" lon="5.93583">
        <ele>1769.312125284</ele>
        <time>2015-06-11T11:53:26Z</time>
      </trkpt>
      <trkpt lat="45.43006" lon="5.93581">
        <ele>1773.140385453</ele>
        <time>2015-06-11T11:53:31Z</time>
      </trkpt>
      <trkpt lat="45.43011" lon="5.93591">
        <ele>1773.140385453</ele>
        <time>2015-06-11T11:53:36Z</time>
      </trkpt>
      <trkpt lat="45.43018" lon="5.93592">
        <ele>1775.47723901</ele>
        <time>2015-06-11T11:53:41Z</time>
      </trkpt>
      <trkpt lat="45.43024" lon="5.93597">
        <ele>1775.47723901</ele>
        <time>2015-06-11T11:53:46Z</time>
      </trkpt>
      <trkpt lat="45.43028" lon="5.93598">
        <ele>1777.004967547</ele>
        <time>2015-06-11T11:53:51Z</time>
      </trkpt>
      <trkpt lat="45.43034" lon="5.93596">
        <ele>1777.004967547</ele>
        <time>2015-06-11T11:53:56Z</time>
      </trkpt>
      <trkpt lat="45.43037" lon="5.93592">
        <ele>1777.637383623</ele>
        <time>2015-06-11T11:54:01Z</time>
      </trkpt>
      <trkpt lat="45.4304" lon="5.936">
        <ele>1777.637383623</ele>
        <time>2015-06-11T11:54:06Z</time>
      </trkpt>
      <trkpt lat="45.43043" lon="5.93604">
        <ele>1778.595712545</ele>
        <time>2015-06-11T11:54:11Z</time>
      </trkpt>
      <trkpt lat="45.4305" lon="5.93602">
        <ele>1778.595712545</ele>
        <time>2015-06-11T11:54:16Z</time>
      </trkpt>
      <trkpt lat="45.43052" lon="5.93609">
        <ele>1780.289781706</ele>
        <time>2015-06-11T11:54:21Z</time>
      </trkpt>
      <trkpt lat="45.43059" lon="5.93611">
        <ele>1780.289781706</ele>
        <time>2015-06-11T11:54:26Z</time>
      </trkpt>
      <trkpt lat="45.43062" lon="5.93613">
        <ele>1781.366645865</ele>
        <time>2015-06-11T11:54:30Z</time>
      </trkpt>
      <trkpt lat="45.43065" lon="5.93615">
        <ele>1781.366645865</ele>
        <time>2015-06-11T11:54:36Z</time>
      </trkpt>
      <trkpt lat="45.43069" lon="5.93626">
        <ele>1781.873018494</ele>
        <time>2015-06-11T11:54:41Z</time>
      </trkpt>
      <trkpt lat="45.4307" lon="5.93633">
        <ele>1781.873018494</ele>
        <time>2015-06-11T11:54:46Z</time>
      </trkpt>
      <trkpt lat="45.43076" lon="5.93638">
        <ele>1781.998326123</ele>
        <time>2015-06-11T11:54:51Z</time>
      </trkpt>
      <trkpt lat="45.43077" lon="5.9364">
        <ele>1781.998326123</ele>
        <time>2015-06-11T11:54:56Z</time>
      </trkpt>
      <trkpt lat="45.43077" lon="5.93638">
        <ele>1781.998326123</ele>
        <time>2015-06-11T11:55:01Z</time>
      </trkpt>
      <trkpt lat="45.43076" lon="5.93638">
        <ele>1781.998326123</ele>
        <time>2015-06-11T11:55:06Z</time>
      </trkpt>
      <trkpt lat="45.43076" lon="5.93638">
        <ele>1781.998326123</ele>
        <time>2015-06-11T11:55:11Z</time>
      </trkpt>
      <trkpt lat="45.43076" lon="5.93638">
        <ele>1781.998326123</ele>
        <time>2015-06-11T11:55:16Z</time>
      </trkpt>
      <trkpt lat="45.43076" lon="5.93638">
        <ele>1781.998326123</ele>
        <time>2015-06-11T11:55:21Z</time>
      </trkpt>
      <trkpt lat="45.43076" lon="5.93638">
        <ele>1781.998326123</ele>
        <time>2015-06-11T11:55:26Z</time>
      </trkpt>
      <trkpt lat="45.43085" lon="5.93649">
        <ele>1781.342428079</ele>
        <time>2015-06-11T11:55:31Z</time>
      </trkpt>
      <trkpt lat="45.43088" lon="5.93653">
        <ele>1781.342428079</ele>
        <time>2015-06-11T11:55:36Z</time>
      </trkpt>
      <trkpt lat="45.4309" lon="5.9366">
        <ele>1780.402478679</ele>
        <time>2015-06-11T11:55:41Z</time>
      </trkpt>
      <trkpt lat="45.43092" lon="5.93664">
        <ele>1780.402478679</ele>
        <time>2015-06-11T11:55:45Z</time>
      </trkpt>
      <trkpt lat="45.43096" lon="5.93666">
        <ele>1780.402478679</ele>
        <time>2015-06-11T11:55:51Z</time>
      </trkpt>
      <trkpt lat="45.43097" lon="5.93673">
        <ele>1781.659306627</ele>
        <time>2015-06-11T11:55:56Z</time>
      </trkpt>
      <trkpt lat="45.43098" lon="5.93679">
        <ele>1781.659306627</ele>
        <time>2015-06-11T11:56:01Z</time>
      </trkpt>
      <trkpt lat="45.43105" lon="5.93674">
        <ele>1783.510839103</ele>
        <time>2015-06-11T11:56:06Z</time>
      </trkpt>
      <trkpt lat="45.431" lon="5.93685">
        <ele>1784.759859761</ele>
        <time>2015-06-11T11:56:11Z</time>
      </trkpt>
      <trkpt lat="45.43109" lon="5.93681">
        <ele>1786.17396365</ele>
        <time>2015-06-11T11:56:16Z</time>
      </trkpt>
      <trkpt lat="45.43111" lon="5.93682">
        <ele>1786.17396365</ele>
        <time>2015-06-11T11:56:20Z</time>
      </trkpt>
      <trkpt lat="45.43114" lon="5.93679">
        <ele>1786.17396365</ele>
        <time>2015-06-11T11:56:26Z</time>
      </trkpt>
      <trkpt lat="45.4312" lon="5.93683">
        <ele>1787.310152494</ele>
        <time>2015-06-11T11:56:31Z</time>
      </trkpt>
      <trkpt lat="45.43122" lon="5.93686">
        <ele>1787.310152494</ele>
        <time>2015-06-11T11:56:36Z</time>
      </trkpt>
      <trkpt lat="45.43129" lon="5.93685">
        <ele>1787.903132479</ele>
        <time>2015-06-11T11:56:41Z</time>
      </trkpt>
      <trkpt lat="45.43132" lon="5.93679">
        <ele>1787.903132479</ele>
        <time>2015-06-11T11:56:46Z</time>
      </trkpt>
      <trkpt lat="45.43132" lon="5.93686">
        <ele>1788.573923216</ele>
        <time>2015-06-11T11:56:50Z</time>
      </trkpt>
      <trkpt lat="45.43134" lon="5.93685">
        <ele>1788.573923216</ele>
        <time>2015-06-11T11:56:55Z</time>
      </trkpt>
      <trkpt lat="45.43133" lon="5.93687">
        <ele>1788.573923216</ele>
        <time>2015-06-11T11:57:00Z</time>
      </trkpt>
      <trkpt lat="45.43133" lon="5.93688">
        <ele>1788.573923216</ele>
        <time>2015-06-11T11:57:05Z</time>
      </trkpt>
      <trkpt lat="45.43133" lon="5.93688">
        <ele>1788.573923216</ele>
        <time>2015-06-11T11:57:11Z</time>
      </trkpt>
      <trkpt lat="45.43132" lon="5.93688">
        <ele>1788.573923216</ele>
        <time>2015-06-11T11:57:16Z</time>
      </trkpt>
      <trkpt lat="45.43132" lon="5.93689">
        <ele>1788.573923216</ele>
        <time>2015-06-11T11:57:21Z</time>
      </trkpt>
      <trkpt lat="45.43132" lon="5.93689">
        <ele>1788.573923216</ele>
        <time>2015-06-11T11:57:26Z</time>
      </trkpt>
      <trkpt lat="45.43132" lon="5.93689">
        <ele>1788.573923216</ele>
        <time>2015-06-11T11:57:31Z</time>
      </trkpt>
      <trkpt lat="45.43132" lon="5.93689">
        <ele>1788.573923216</ele>
        <time>2015-06-11T11:57:35Z</time>
      </trkpt>
      <trkpt lat="45.43132" lon="5.93688">
        <ele>1788.573923216</ele>
        <time>2015-06-11T11:57:41Z</time>
      </trkpt>
      <trkpt lat="45.43132" lon="5.93688">
        <ele>1788.573923216</ele>
        <time>2015-06-11T11:57:46Z</time>
      </trkpt>
      <trkpt lat="45.43132" lon="5.93688">
        <ele>1788.573923216</ele>
        <time>2015-06-11T11:57:51Z</time>
      </trkpt>
      <trkpt lat="45.43132" lon="5.93688">
        <ele>1788.573923216</ele>
        <time>2015-06-11T11:57:56Z</time>
      </trkpt>
      <trkpt lat="45.43132" lon="5.93688">
        <ele>1788.573923216</ele>
        <time>2015-06-11T11:58:01Z</time>
      </trkpt>
      <trkpt lat="45.43132" lon="5.93688">
        <ele>1788.573923216</ele>
        <time>2015-06-11T11:58:06Z</time>
      </trkpt>
      <trkpt lat="45.43131" lon="5.93688">
        <ele>1788.573923216</ele>
        <time>2015-06-11T11:58:11Z</time>
      </trkpt>
      <trkpt lat="45.43131" lon="5.93688">
        <ele>1788.573923216</ele>
        <time>2015-06-11T11:58:16Z</time>
      </trkpt>
      <trkpt lat="45.43131" lon="5.93688">
        <ele>1788.573923216</ele>
        <time>2015-06-11T11:58:21Z</time>
      </trkpt>
      <trkpt lat="45.43131" lon="5.93688">
        <ele>1788.573923216</ele>
        <time>2015-06-11T11:58:26Z</time>
      </trkpt>
      <trkpt lat="45.43127" lon="5.93692">
        <ele>1789.897622931</ele>
        <time>2015-06-11T11:58:31Z</time>
      </trkpt>
      <trkpt lat="45.43121" lon="5.93695">
        <ele>1789.897622931</ele>
        <time>2015-06-11T11:58:36Z</time>
      </trkpt>
      <trkpt lat="45.43117" lon="5.93699">
        <ele>1790.963360295</ele>
        <time>2015-06-11T11:58:41Z</time>
      </trkpt>
      <trkpt lat="45.43117" lon="5.93694">
        <ele>1790.963360295</ele>
        <time>2015-06-11T11:58:46Z</time>
      </trkpt>
      <trkpt lat="45.43116" lon="5.9369">
        <ele>1790.963360295</ele>
        <time>2015-06-11T11:58:51Z</time>
      </trkpt>
      <trkpt lat="45.43116" lon="5.93693">
        <ele>1790.963360295</ele>
        <time>2015-06-11T11:58:56Z</time>
      </trkpt>
      <trkpt lat="45.43116" lon="5.93692">
        <ele>1792.369853412</ele>
        <time>2015-06-11T11:59:01Z</time>
      </trkpt>
      <trkpt lat="45.43116" lon="5.93692">
        <ele>1792.369853412</ele>
        <time>2015-06-11T11:59:06Z</time>
      </trkpt>
      <trkpt lat="45.43116" lon="5.93692">
        <ele>1792.369853412</ele>
        <time>2015-06-11T11:59:11Z</time>
      </trkpt>
      <trkpt lat="45.43116" lon="5.93692">
        <ele>1792.369853412</ele>
        <time>2015-06-11T11:59:16Z</time>
      </trkpt>
      <trkpt lat="45.43116" lon="5.93689">
        <ele>1792.369853412</ele>
        <time>2015-06-11T11:59:20Z</time>
      </trkpt>
      <trkpt lat="45.43118" lon="5.93679">
        <ele>1793.229114571</ele>
        <time>2015-06-11T11:59:26Z</time>
      </trkpt>
      <trkpt lat="45.43119" lon="5.93673">
        <ele>1793.229114571</ele>
        <time>2015-06-11T11:59:31Z</time>
      </trkpt>
      <trkpt lat="45.4312" lon="5.93673">
        <ele>1793.229114571</ele>
        <time>2015-06-11T11:59:36Z</time>
      </trkpt>
      <trkpt lat="45.43121" lon="5.93671">
        <ele>1793.229114571</ele>
        <time>2015-06-11T11:59:41Z</time>
      </trkpt>
      <trkpt lat="45.43121" lon="5.93669">
        <ele>1793.229114571</ele>
        <time>2015-06-11T11:59:46Z</time>
      </trkpt>
      <trkpt lat="45.43122" lon="5.93669">
        <ele>1794.882496776</ele>
        <time>2015-06-11T11:59:51Z</time>
      </trkpt>
      <trkpt lat="45.43122" lon="5.93669">
        <ele>1794.882496776</ele>
        <time>2015-06-11T11:59:56Z</time>
      </trkpt>
      <trkpt lat="45.43122" lon="5.93669">
        <ele>1794.882496776</ele>
        <time>2015-06-11T12:00:01Z</time>
      </trkpt>
      <trkpt lat="45.43122" lon="5.93669">
        <ele>1794.882496776</ele>
        <time>2015-06-11T12:00:06Z</time>
      </trkpt>
      <trkpt lat="45.43122" lon="5.93669">
        <ele>1794.882496776</ele>
        <time>2015-06-11T12:00:11Z</time>
      </trkpt>
      <trkpt lat="45.43122" lon="5.9367">
        <ele>1794.882496776</ele>
        <time>2015-06-11T12:00:16Z</time>
      </trkpt>
      <trkpt lat="45.43122" lon="5.9367">
        <ele>1794.882496776</ele>
        <time>2015-06-11T12:00:21Z</time>
      </trkpt>
      <trkpt lat="45.43122" lon="5.9367">
        <ele>1794.882496776</ele>
        <time>2015-06-11T12:00:26Z</time>
      </trkpt>
      <trkpt lat="45.43122" lon="5.9367">
        <ele>1794.882496776</ele>
        <time>2015-06-11T12:00:31Z</time>
      </trkpt>
      <trkpt lat="45.43122" lon="5.9367">
        <ele>1794.882496776</ele>
        <time>2015-06-11T12:00:36Z</time>
      </trkpt>
      <trkpt lat="45.43122" lon="5.9367">
        <ele>1794.882496776</ele>
        <time>2015-06-11T12:00:41Z</time>
      </trkpt>
      <trkpt lat="45.43122" lon="5.9367">
        <ele>1794.882496776</ele>
        <time>2015-06-11T12:00:46Z</time>
      </trkpt>
      <trkpt lat="45.43122" lon="5.9367">
        <ele>1794.882496776</ele>
        <time>2015-06-11T12:00:51Z</time>
      </trkpt>
      <trkpt lat="45.43122" lon="5.9367">
        <ele>1794.882496776</ele>
        <time>2015-06-11T12:00:57Z</time>
      </trkpt>
      <trkpt lat="45.43122" lon="5.9367">
        <ele>1794.882496776</ele>
        <time>2015-06-11T12:01:01Z</time>
      </trkpt>
      <trkpt lat="45.4312" lon="5.93666">
        <ele>1794.882496776</ele>
        <time>2015-06-11T12:01:06Z</time>
      </trkpt>
      <trkpt lat="45.43119" lon="5.93648">
        <ele>1795.83143244</ele>
        <time>2015-06-11T12:01:11Z</time>
      </trkpt>
      <trkpt lat="45.43113" lon="5.93637">
        <ele>1796.996020424</ele>
        <time>2015-06-11T12:01:16Z</time>
      </trkpt>
      <trkpt lat="45.43113" lon="5.93637">
        <ele>1796.996020424</ele>
        <time>2015-06-11T12:01:21Z</time>
      </trkpt>
      <trkpt lat="45.43112" lon="5.93637">
        <ele>1796.996020424</ele>
        <time>2015-06-11T12:01:26Z</time>
      </trkpt>
      <trkpt lat="45.43111" lon="5.93635">
        <ele>1796.996020424</ele>
        <time>2015-06-11T12:01:31Z</time>
      </trkpt>
      <trkpt lat="45.43112" lon="5.93636">
        <ele>1796.996020424</ele>
        <time>2015-06-11T12:01:36Z</time>
      </trkpt>
      <trkpt lat="45.43111" lon="5.93633">
        <ele>1796.996020424</ele>
        <time>2015-06-11T12:01:41Z</time>
      </trkpt>
      <trkpt lat="45.43115" lon="5.9363">
        <ele>1798.795578854</ele>
        <time>2015-06-11T12:01:46Z</time>
      </trkpt>
      <trkpt lat="45.4312" lon="5.9363">
        <ele>1798.795578854</ele>
        <time>2015-06-11T12:01:51Z</time>
      </trkpt>
      <trkpt lat="45.43115" lon="5.93624">
        <ele>1800.463669739</ele>
        <time>2015-06-11T12:01:56Z</time>
      </trkpt>
      <trkpt lat="45.43113" lon="5.93622">
        <ele>1800.463669739</ele>
        <time>2015-06-11T12:02:01Z</time>
      </trkpt>
      <trkpt lat="45.43113" lon="5.93622">
        <ele>1800.463669739</ele>
        <time>2015-06-11T12:02:06Z</time>
      </trkpt>
      <trkpt lat="45.43113" lon="5.93623">
        <ele>1800.463669739</ele>
        <time>2015-06-11T12:02:11Z</time>
      </trkpt>
      <trkpt lat="45.43113" lon="5.93623">
        <ele>1800.463669739</ele>
        <time>2015-06-11T12:02:16Z</time>
      </trkpt>
      <trkpt lat="45.43113" lon="5.93623">
        <ele>1800.463669739</ele>
        <time>2015-06-11T12:02:20Z</time>
      </trkpt>
      <trkpt lat="45.43113" lon="5.93623">
        <ele>1800.463669739</ele>
        <time>2015-06-11T12:02:25Z</time>
      </trkpt>
      <trkpt lat="45.43113" lon="5.93623">
        <ele>1800.463669739</ele>
        <time>2015-06-11T12:02:31Z</time>
      </trkpt>
      <trkpt lat="45.43113" lon="5.93623">
        <ele>1800.463669739</ele>
        <time>2015-06-11T12:02:36Z</time>
      </trkpt>
      <trkpt lat="45.43113" lon="5.93623">
        <ele>1800.463669739</ele>
        <time>2015-06-11T12:02:41Z</time>
      </trkpt>
      <trkpt lat="45.43113" lon="5.93623">
        <ele>1800.463669739</ele>
        <time>2015-06-11T12:02:46Z</time>
      </trkpt>
      <trkpt lat="45.43114" lon="5.93621">
        <ele>1800.463669739</ele>
        <time>2015-06-11T12:02:51Z</time>
      </trkpt>
      <trkpt lat="45.43116" lon="5.9362">
        <ele>1800.463669739</ele>
        <time>2015-06-11T12:02:56Z</time>
      </trkpt>
      <trkpt lat="45.43117" lon="5.93619">
        <ele>1800.463669739</ele>
        <time>2015-06-11T12:03:01Z</time>
      </trkpt>
      <trkpt lat="45.43118" lon="5.9362">
        <ele>1802.155401091</ele>
        <time>2015-06-11T12:03:06Z</time>
      </trkpt>
      <trkpt lat="45.43118" lon="5.93623">
        <ele>1802.155401091</ele>
        <time>2015-06-11T12:03:11Z</time>
      </trkpt>
      <trkpt lat="45.43119" lon="5.93624">
        <ele>1802.155401091</ele>
        <time>2015-06-11T12:03:16Z</time>
      </trkpt>
      <trkpt lat="45.43119" lon="5.93623">
        <ele>1802.155401091</ele>
        <time>2015-06-11T12:03:21Z</time>
      </trkpt>
      <trkpt lat="45.43119" lon="5.93623">
        <ele>1802.155401091</ele>
        <time>2015-06-11T12:03:26Z</time>
      </trkpt>
      <trkpt lat="45.43119" lon="5.93623">
        <ele>1802.155401091</ele>
        <time>2015-06-11T12:03:31Z</time>
      </trkpt>
      <trkpt lat="45.43119" lon="5.9362">
        <ele>1802.155401091</ele>
        <time>2015-06-11T12:03:36Z</time>
      </trkpt>
      <trkpt lat="45.43123" lon="5.93612">
        <ele>1805.023283811</ele>
        <time>2015-06-11T12:03:41Z</time>
      </trkpt>
      <trkpt lat="45.43124" lon="5.93607">
        <ele>1805.023283811</ele>
        <time>2015-06-11T12:03:45Z</time>
      </trkpt>
      <trkpt lat="45.43125" lon="5.93607">
        <ele>1805.023283811</ele>
        <time>2015-06-11T12:03:50Z</time>
      </trkpt>
      <trkpt lat="45.43126" lon="5.93607">
        <ele>1805.023283811</ele>
        <time>2015-06-11T12:03:55Z</time>
      </trkpt>
      <trkpt lat="45.43127" lon="5.93607">
        <ele>1805.023283811</ele>
        <time>2015-06-11T12:04:00Z</time>
      </trkpt>
      <trkpt lat="45.43127" lon="5.93607">
        <ele>1805.023283811</ele>
        <time>2015-06-11T12:04:05Z</time>
      </trkpt>
      <trkpt lat="45.43125" lon="5.93604">
        <ele>1805.023283811</ele>
        <time>2015-06-11T12:04:10Z</time>
      </trkpt>
      <trkpt lat="45.4312" lon="5.93595">
        <ele>1808.978735611</ele>
        <time>2015-06-11T12:04:17Z</time>
      </trkpt>
      <trkpt lat="45.4312" lon="5.93586">
        <ele>1808.978735611</ele>
        <time>2015-06-11T12:04:21Z</time>
      </trkpt>
      <trkpt lat="45.43117" lon="5.93576">
        <ele>1813.216026112</ele>
        <time>2015-06-11T12:04:26Z</time>
      </trkpt>
      <trkpt lat="45.43112" lon="5.93569">
        <ele>1813.216026112</ele>
        <time>2015-06-11T12:04:31Z</time>
      </trkpt>
      <trkpt lat="45.43109" lon="5.93561">
        <ele>1816.699645955</ele>
        <time>2015-06-11T12:04:36Z</time>
      </trkpt>
      <trkpt lat="45.43107" lon="5.93553">
        <ele>1816.699645955</ele>
        <time>2015-06-11T12:04:40Z</time>
      </trkpt>
      <trkpt lat="45.43105" lon="5.93545">
        <ele>1819.76940281</ele>
        <time>2015-06-11T12:04:46Z</time>
      </trkpt>
      <trkpt lat="45.43103" lon="5.93537">
        <ele>1819.76940281</ele>
        <time>2015-06-11T12:04:51Z</time>
      </trkpt>
      <trkpt lat="45.43102" lon="5.93532">
        <ele>1822.45306631</ele>
        <time>2015-06-11T12:04:56Z</time>
      </trkpt>
      <trkpt lat="45.43096" lon="5.93526">
        <ele>1822.45306631</ele>
        <time>2015-06-11T12:05:01Z</time>
      </trkpt>
      <trkpt lat="45.43095" lon="5.93523">
        <ele>1822.45306631</ele>
        <time>2015-06-11T12:05:06Z</time>
      </trkpt>
      <trkpt lat="45.43093" lon="5.93521">
        <ele>1824.345124783</ele>
        <time>2015-06-11T12:05:11Z</time>
      </trkpt>
      <trkpt lat="45.43083" lon="5.93515">
        <ele>1826.225027519</ele>
        <time>2015-06-11T12:05:16Z</time>
      </trkpt>
      <trkpt lat="45.43083" lon="5.93515">
        <ele>1826.225027519</ele>
        <time>2015-06-11T12:05:20Z</time>
      </trkpt>
      <trkpt lat="45.43082" lon="5.93515">
        <ele>1826.225027519</ele>
        <time>2015-06-11T12:05:25Z</time>
      </trkpt>
      <trkpt lat="45.43083" lon="5.93515">
        <ele>1826.225027519</ele>
        <time>2015-06-11T12:05:30Z</time>
      </trkpt>
      <trkpt lat="45.43083" lon="5.93515">
        <ele>1826.225027519</ele>
        <time>2015-06-11T12:05:35Z</time>
      </trkpt>
      <trkpt lat="45.43082" lon="5.93515">
        <ele>1826.225027519</ele>
        <time>2015-06-11T12:05:41Z</time>
      </trkpt>
      <trkpt lat="45.43077" lon="5.9352">
        <ele>1826.225027519</ele>
        <time>2015-06-11T12:05:45Z</time>
      </trkpt>
      <trkpt lat="45.43075" lon="5.93521">
        <ele>1828.094438495</ele>
        <time>2015-06-11T12:05:50Z</time>
      </trkpt>
      <trkpt lat="45.43066" lon="5.93521">
        <ele>1828.094438495</ele>
        <time>2015-06-11T12:05:56Z</time>
      </trkpt>
      <trkpt lat="45.43062" lon="5.93521">
        <ele>1829.522614347</ele>
        <time>2015-06-11T12:06:01Z</time>
      </trkpt>
      <trkpt lat="45.43059" lon="5.93519">
        <ele>1829.522614347</ele>
        <time>2015-06-11T12:06:05Z</time>
      </trkpt>
      <trkpt lat="45.43057" lon="5.93516">
        <ele>1829.522614347</ele>
        <time>2015-06-11T12:06:11Z</time>
      </trkpt>
      <trkpt lat="45.43056" lon="5.93515">
        <ele>1829.522614347</ele>
        <time>2015-06-11T12:06:16Z</time>
      </trkpt>
      <trkpt lat="45.43056" lon="5.93514">
        <ele>1829.522614347</ele>
        <time>2015-06-11T12:06:21Z</time>
      </trkpt>
      <trkpt lat="45.43055" lon="5.93513">
        <ele>1829.522614347</ele>
        <time>2015-06-11T12:06:26Z</time>
      </trkpt>
      <trkpt lat="45.43054" lon="5.93512">
        <ele>1831.120503833</ele>
        <time>2015-06-11T12:06:30Z</time>
      </trkpt>
      <trkpt lat="45.43053" lon="5.93508">
        <ele>1831.120503833</ele>
        <time>2015-06-11T12:06:35Z</time>
      </trkpt>
      <trkpt lat="45.43043" lon="5.93509">
        <ele>1833.16548381</ele>
        <time>2015-06-11T12:06:42Z</time>
      </trkpt>
      <trkpt lat="45.4304" lon="5.93505">
        <ele>1833.16548381</ele>
        <time>2015-06-11T12:06:46Z</time>
      </trkpt>
      <trkpt lat="45.43032" lon="5.93496">
        <ele>1834.904522954</ele>
        <time>2015-06-11T12:06:51Z</time>
      </trkpt>
      <trkpt lat="45.4303" lon="5.93493">
        <ele>1834.904522954</ele>
        <time>2015-06-11T12:06:56Z</time>
      </trkpt>
      <trkpt lat="45.43026" lon="5.93491">
        <ele>1834.904522954</ele>
        <time>2015-06-11T12:07:01Z</time>
      </trkpt>
      <trkpt lat="45.43025" lon="5.93491">
        <ele>1834.904522954</ele>
        <time>2015-06-11T12:07:05Z</time>
      </trkpt>
      <trkpt lat="45.43021" lon="5.93491">
        <ele>1835.352543435</ele>
        <time>2015-06-11T12:07:11Z</time>
      </trkpt>
      <trkpt lat="45.43015" lon="5.93487">
        <ele>1835.352543435</ele>
        <time>2015-06-11T12:07:16Z</time>
      </trkpt>
      <trkpt lat="45.43009" lon="5.93479">
        <ele>1835.185683049</ele>
        <time>2015-06-11T12:07:21Z</time>
      </trkpt>
      <trkpt lat="45.43003" lon="5.93478">
        <ele>1835.185683049</ele>
        <time>2015-06-11T12:07:26Z</time>
      </trkpt>
      <trkpt lat="45.42997" lon="5.93471">
        <ele>1834.599779708</ele>
        <time>2015-06-11T12:07:31Z</time>
      </trkpt>
      <trkpt lat="45.42996" lon="5.93474">
        <ele>1834.599779708</ele>
        <time>2015-06-11T12:07:36Z</time>
      </trkpt>
      <trkpt lat="45.42989" lon="5.9347">
        <ele>1834.930334548</ele>
        <time>2015-06-11T12:07:41Z</time>
      </trkpt>
      <trkpt lat="45.42987" lon="5.93466">
        <ele>1834.930334548</ele>
        <time>2015-06-11T12:07:46Z</time>
      </trkpt>
      <trkpt lat="45.42986" lon="5.9346">
        <ele>1834.930334548</ele>
        <time>2015-06-11T12:07:51Z</time>
      </trkpt>
      <trkpt lat="45.42983" lon="5.9346">
        <ele>1834.673974331</ele>
        <time>2015-06-11T12:07:56Z</time>
      </trkpt>
      <trkpt lat="45.42982" lon="5.9346">
        <ele>1834.673974331</ele>
        <time>2015-06-11T12:08:01Z</time>
      </trkpt>
      <trkpt lat="45.4298" lon="5.9346">
        <ele>1834.673974331</ele>
        <time>2015-06-11T12:08:06Z</time>
      </trkpt>
      <trkpt lat="45.42979" lon="5.9346">
        <ele>1834.673974331</ele>
        <time>2015-06-11T12:08:11Z</time>
      </trkpt>
      <trkpt lat="45.42975" lon="5.93457">
        <ele>1834.673974331</ele>
        <time>2015-06-11T12:08:15Z</time>
      </trkpt>
      <trkpt lat="45.42972" lon="5.93454">
        <ele>1834.312814978</ele>
        <time>2015-06-11T12:08:20Z</time>
      </trkpt>
      <trkpt lat="45.42969" lon="5.93452">
        <ele>1834.312814978</ele>
        <time>2015-06-11T12:08:26Z</time>
      </trkpt>
      <trkpt lat="45.42967" lon="5.93452">
        <ele>1834.312814978</ele>
        <time>2015-06-11T12:08:31Z</time>
      </trkpt>
      <trkpt lat="45.42962" lon="5.93447">
        <ele>1834.149659102</ele>
        <time>2015-06-11T12:08:36Z</time>
      </trkpt>
      <trkpt lat="45.42962" lon="5.93441">
        <ele>1834.149659102</ele>
        <time>2015-06-11T12:08:41Z</time>
      </trkpt>
      <trkpt lat="45.42961" lon="5.93433">
        <ele>1833.455618178</ele>
        <time>2015-06-11T12:08:46Z</time>
      </trkpt>
      <trkpt lat="45.4296" lon="5.9343">
        <ele>1833.455618178</ele>
        <time>2015-06-11T12:08:50Z</time>
      </trkpt>
      <trkpt lat="45.42959" lon="5.93425">
        <ele>1833.455618178</ele>
        <time>2015-06-11T12:08:55Z</time>
      </trkpt>
      <trkpt lat="45.42957" lon="5.93418">
        <ele>1832.421412485</ele>
        <time>2015-06-11T12:09:01Z</time>
      </trkpt>
      <trkpt lat="45.42953" lon="5.9341">
        <ele>1832.421412485</ele>
        <time>2015-06-11T12:09:06Z</time>
      </trkpt>
      <trkpt lat="45.42952" lon="5.93408">
        <ele>1830.792240019</ele>
        <time>2015-06-11T12:09:11Z</time>
      </trkpt>
      <trkpt lat="45.42946" lon="5.93402">
        <ele>1830.792240019</ele>
        <time>2015-06-11T12:09:16Z</time>
      </trkpt>
      <trkpt lat="45.42943" lon="5.93395">
        <ele>1828.621774263</ele>
        <time>2015-06-11T12:09:21Z</time>
      </trkpt>
      <trkpt lat="45.42944" lon="5.93393">
        <ele>1828.621774263</ele>
        <time>2015-06-11T12:09:26Z</time>
      </trkpt>
      <trkpt lat="45.42943" lon="5.93393">
        <ele>1828.621774263</ele>
        <time>2015-06-11T12:09:30Z</time>
      </trkpt>
      <trkpt lat="45.42943" lon="5.93393">
        <ele>1828.621774263</ele>
        <time>2015-06-11T12:09:36Z</time>
      </trkpt>
      <trkpt lat="45.4294" lon="5.93388">
        <ele>1828.621774263</ele>
        <time>2015-06-11T12:09:41Z</time>
      </trkpt>
      <trkpt lat="45.42936" lon="5.93385">
        <ele>1826.681680052</ele>
        <time>2015-06-11T12:09:46Z</time>
      </trkpt>
      <trkpt lat="45.42931" lon="5.93379">
        <ele>1826.681680052</ele>
        <time>2015-06-11T12:09:51Z</time>
      </trkpt>
      <trkpt lat="45.42927" lon="5.93376">
        <ele>1825.397883436</ele>
        <time>2015-06-11T12:09:56Z</time>
      </trkpt>
      <trkpt lat="45.42922" lon="5.93374">
        <ele>1825.397883436</ele>
        <time>2015-06-11T12:10:01Z</time>
      </trkpt>
      <trkpt lat="45.42921" lon="5.93371">
        <ele>1825.397883436</ele>
        <time>2015-06-11T12:10:06Z</time>
      </trkpt>
      <trkpt lat="45.42918" lon="5.93369">
        <ele>1823.577722619</ele>
        <time>2015-06-11T12:10:10Z</time>
      </trkpt>
      <trkpt lat="45.42917" lon="5.93368">
        <ele>1823.577722619</ele>
        <time>2015-06-11T12:10:15Z</time>
      </trkpt>
      <trkpt lat="45.42915" lon="5.93364">
        <ele>1823.577722619</ele>
        <time>2015-06-11T12:10:21Z</time>
      </trkpt>
      <trkpt lat="45.42915" lon="5.93363">
        <ele>1823.577722619</ele>
        <time>2015-06-11T12:10:26Z</time>
      </trkpt>
      <trkpt lat="45.42913" lon="5.93358">
        <ele>1821.126248631</ele>
        <time>2015-06-11T12:10:31Z</time>
      </trkpt>
      <trkpt lat="45.4291" lon="5.93352">
        <ele>1821.126248631</ele>
        <time>2015-06-11T12:10:35Z</time>
      </trkpt>
      <trkpt lat="45.42905" lon="5.93342">
        <ele>1818.677608317</ele>
        <time>2015-06-11T12:10:41Z</time>
      </trkpt>
      <trkpt lat="45.42901" lon="5.93338">
        <ele>1818.677608317</ele>
        <time>2015-06-11T12:10:45Z</time>
      </trkpt>
      <trkpt lat="45.42898" lon="5.93329">
        <ele>1816.09854199</ele>
        <time>2015-06-11T12:10:51Z</time>
      </trkpt>
      <trkpt lat="45.42893" lon="5.93323">
        <ele>1816.09854199</ele>
        <time>2015-06-11T12:10:56Z</time>
      </trkpt>
      <trkpt lat="45.42892" lon="5.93322">
        <ele>1816.09854199</ele>
        <time>2015-06-11T12:11:01Z</time>
      </trkpt>
      <trkpt lat="45.42885" lon="5.93318">
        <ele>1813.986264984</ele>
        <time>2015-06-11T12:11:06Z</time>
      </trkpt>
      <trkpt lat="45.4288" lon="5.93311">
        <ele>1813.986264984</ele>
        <time>2015-06-11T12:11:11Z</time>
      </trkpt>
      <trkpt lat="45.42878" lon="5.93305">
        <ele>1811.595513317</ele>
        <time>2015-06-11T12:11:16Z</time>
      </trkpt>
      <trkpt lat="45.42873" lon="5.93303">
        <ele>1811.595513317</ele>
        <time>2015-06-11T12:11:21Z</time>
      </trkpt>
      <trkpt lat="45.42871" lon="5.93301">
        <ele>1811.595513317</ele>
        <time>2015-06-11T12:11:26Z</time>
      </trkpt>
      <trkpt lat="45.42872" lon="5.933">
        <ele>1811.595513317</ele>
        <time>2015-06-11T12:11:31Z</time>
      </trkpt>
      <trkpt lat="45.42868" lon="5.93298">
        <ele>1809.677420293</ele>
        <time>2015-06-11T12:11:36Z</time>
      </trkpt>
      <trkpt lat="45.42866" lon="5.93292">
        <ele>1809.677420293</ele>
        <time>2015-06-11T12:11:41Z</time>
      </trkpt>
      <trkpt lat="45.42865" lon="5.93287">
        <ele>1809.677420293</ele>
        <time>2015-06-11T12:11:46Z</time>
      </trkpt>
      <trkpt lat="45.42863" lon="5.93281">
        <ele>1807.629300573</ele>
        <time>2015-06-11T12:11:51Z</time>
      </trkpt>
      <trkpt lat="45.42857" lon="5.93272">
        <ele>1807.629300573</ele>
        <time>2015-06-11T12:11:55Z</time>
      </trkpt>
      <trkpt lat="45.42851" lon="5.93266">
        <ele>1805.469275068</ele>
        <time>2015-06-11T12:12:00Z</time>
      </trkpt>
      <trkpt lat="45.42848" lon="5.93261">
        <ele>1805.469275068</ele>
        <time>2015-06-11T12:12:07Z</time>
      </trkpt>
      <trkpt lat="45.42845" lon="5.93257">
        <ele>1805.469275068</ele>
        <time>2015-06-11T12:12:11Z</time>
      </trkpt>
      <trkpt lat="45.42846" lon="5.93249">
        <ele>1802.925924954</ele>
        <time>2015-06-11T12:12:16Z</time>
      </trkpt>
      <trkpt lat="45.42842" lon="5.93247">
        <ele>1802.925924954</ele>
        <time>2015-06-11T12:12:21Z</time>
      </trkpt>
      <trkpt lat="45.42842" lon="5.93242">
        <ele>1802.925924954</ele>
        <time>2015-06-11T12:12:26Z</time>
      </trkpt>
      <trkpt lat="45.4284" lon="5.93233">
        <ele>1800.757341912</ele>
        <time>2015-06-11T12:12:31Z</time>
      </trkpt>
      <trkpt lat="45.42836" lon="5.93225">
        <ele>1800.757341912</ele>
        <time>2015-06-11T12:12:36Z</time>
      </trkpt>
      <trkpt lat="45.42832" lon="5.9322">
        <ele>1798.655778831</ele>
        <time>2015-06-11T12:12:41Z</time>
      </trkpt>
      <trkpt lat="45.42828" lon="5.93216">
        <ele>1798.655778831</ele>
        <time>2015-06-11T12:12:46Z</time>
      </trkpt>
      <trkpt lat="45.42825" lon="5.93213">
        <ele>1798.655778831</ele>
        <time>2015-06-11T12:12:51Z</time>
      </trkpt>
      <trkpt lat="45.42823" lon="5.93208">
        <ele>1796.191492455</ele>
        <time>2015-06-11T12:12:56Z</time>
      </trkpt>
      <trkpt lat="45.42819" lon="5.93205">
        <ele>1796.191492455</ele>
        <time>2015-06-11T12:13:01Z</time>
      </trkpt>
      <trkpt lat="45.42819" lon="5.93197">
        <ele>1793.687586844</ele>
        <time>2015-06-11T12:13:06Z</time>
      </trkpt>
      <trkpt lat="45.42817" lon="5.93192">
        <ele>1793.687586844</ele>
        <time>2015-06-11T12:13:11Z</time>
      </trkpt>
      <trkpt lat="45.42812" lon="5.93183">
        <ele>1791.155009094</ele>
        <time>2015-06-11T12:13:16Z</time>
      </trkpt>
      <trkpt lat="45.42806" lon="5.9318">
        <ele>1791.155009094</ele>
        <time>2015-06-11T12:13:21Z</time>
      </trkpt>
      <trkpt lat="45.42801" lon="5.93172">
        <ele>1788.459563305</ele>
        <time>2015-06-11T12:13:26Z</time>
      </trkpt>
      <trkpt lat="45.42799" lon="5.93167">
        <ele>1788.459563305</ele>
        <time>2015-06-11T12:13:31Z</time>
      </trkpt>
      <trkpt lat="45.42794" lon="5.93162">
        <ele>1786.197623813</ele>
        <time>2015-06-11T12:13:36Z</time>
      </trkpt>
      <trkpt lat="45.42791" lon="5.93154">
        <ele>1786.197623813</ele>
        <time>2015-06-11T12:13:41Z</time>
      </trkpt>
      <trkpt lat="45.42788" lon="5.93151">
        <ele>1784.19967144</ele>
        <time>2015-06-11T12:13:46Z</time>
      </trkpt>
      <trkpt lat="45.42786" lon="5.93148">
        <ele>1784.19967144</ele>
        <time>2015-06-11T12:13:51Z</time>
      </trkpt>
      <trkpt lat="45.42786" lon="5.93148">
        <ele>1784.19967144</ele>
        <time>2015-06-11T12:13:55Z</time>
      </trkpt>
      <trkpt lat="45.42789" lon="5.93149">
        <ele>1784.19967144</ele>
        <time>2015-06-11T12:14:00Z</time>
      </trkpt>
      <trkpt lat="45.42787" lon="5.93146">
        <ele>1784.19967144</ele>
        <time>2015-06-11T12:14:06Z</time>
      </trkpt>
      <trkpt lat="45.42782" lon="5.93142">
        <ele>1782.307598672</ele>
        <time>2015-06-11T12:14:11Z</time>
      </trkpt>
      <trkpt lat="45.42777" lon="5.93132">
        <ele>1782.307598672</ele>
        <time>2015-06-11T12:14:16Z</time>
      </trkpt>
      <trkpt lat="45.42769" lon="5.93128">
        <ele>1779.653759664</ele>
        <time>2015-06-11T12:14:21Z</time>
      </trkpt>
      <trkpt lat="45.42767" lon="5.93125">
        <ele>1779.653759664</ele>
        <time>2015-06-11T12:14:26Z</time>
      </trkpt>
      <trkpt lat="45.42766" lon="5.93123">
        <ele>1779.653759664</ele>
        <time>2015-06-11T12:14:30Z</time>
      </trkpt>
      <trkpt lat="45.42765" lon="5.93122">
        <ele>1779.653759664</ele>
        <time>2015-06-11T12:14:35Z</time>
      </trkpt>
      <trkpt lat="45.42764" lon="5.93121">
        <ele>1779.653759664</ele>
        <time>2015-06-11T12:14:41Z</time>
      </trkpt>
      <trkpt lat="45.42764" lon="5.9312">
        <ele>1779.653759664</ele>
        <time>2015-06-11T12:14:46Z</time>
      </trkpt>
      <trkpt lat="45.42762" lon="5.93117">
        <ele>1777.165433966</ele>
        <time>2015-06-11T12:14:51Z</time>
      </trkpt>
      <trkpt lat="45.42754" lon="5.93111">
        <ele>1774.836360273</ele>
        <time>2015-06-11T12:14:55Z</time>
      </trkpt>
      <trkpt lat="45.42748" lon="5.93104">
        <ele>1774.836360273</ele>
        <time>2015-06-11T12:15:00Z</time>
      </trkpt>
      <trkpt lat="45.42747" lon="5.93097">
        <ele>1772.371785692</ele>
        <time>2015-06-11T12:15:06Z</time>
      </trkpt>
      <trkpt lat="45.42746" lon="5.93095">
        <ele>1772.371785692</ele>
        <time>2015-06-11T12:15:11Z</time>
      </trkpt>
      <trkpt lat="45.42746" lon="5.93095">
        <ele>1772.371785692</ele>
        <time>2015-06-11T12:15:16Z</time>
      </trkpt>
      <trkpt lat="45.42746" lon="5.93095">
        <ele>1772.371785692</ele>
        <time>2015-06-11T12:15:21Z</time>
      </trkpt>
      <trkpt lat="45.42746" lon="5.93095">
        <ele>1772.371785692</ele>
        <time>2015-06-11T12:15:26Z</time>
      </trkpt>
      <trkpt lat="45.42746" lon="5.93094">
        <ele>1772.371785692</ele>
        <time>2015-06-11T12:15:31Z</time>
      </trkpt>
      <trkpt lat="45.42744" lon="5.93091">
        <ele>1772.371785692</ele>
        <time>2015-06-11T12:15:36Z</time>
      </trkpt>
      <trkpt lat="45.42744" lon="5.93091">
        <ele>1772.371785692</ele>
        <time>2015-06-11T12:15:41Z</time>
      </trkpt>
      <trkpt lat="45.42745" lon="5.93092">
        <ele>1772.371785692</ele>
        <time>2015-06-11T12:15:46Z</time>
      </trkpt>
      <trkpt lat="45.42745" lon="5.93092">
        <ele>1772.371785692</ele>
        <time>2015-06-11T12:15:51Z</time>
      </trkpt>
      <trkpt lat="45.42745" lon="5.93092">
        <ele>1772.371785692</ele>
        <time>2015-06-11T12:15:56Z</time>
      </trkpt>
      <trkpt lat="45.42745" lon="5.93092">
        <ele>1772.371785692</ele>
        <time>2015-06-11T12:16:01Z</time>
      </trkpt>
      <trkpt lat="45.42745" lon="5.93092">
        <ele>1772.371785692</ele>
        <time>2015-06-11T12:16:06Z</time>
      </trkpt>
      <trkpt lat="45.42745" lon="5.93092">
        <ele>1772.371785692</ele>
        <time>2015-06-11T12:16:11Z</time>
      </trkpt>
      <trkpt lat="45.42745" lon="5.93092">
        <ele>1772.371785692</ele>
        <time>2015-06-11T12:16:15Z</time>
      </trkpt>
      <trkpt lat="45.42745" lon="5.93091">
        <ele>1772.371785692</ele>
        <time>2015-06-11T12:16:21Z</time>
      </trkpt>
      <trkpt lat="45.42745" lon="5.93089">
        <ele>1772.371785692</ele>
        <time>2015-06-11T12:16:26Z</time>
      </trkpt>
      <trkpt lat="45.4274" lon="5.93087">
        <ele>1770.795718123</ele>
        <time>2015-06-11T12:16:31Z</time>
      </trkpt>
      <trkpt lat="45.42742" lon="5.93088">
        <ele>1770.795718123</ele>
        <time>2015-06-11T12:16:36Z</time>
      </trkpt>
      <trkpt lat="45.42741" lon="5.93087">
        <ele>1770.795718123</ele>
        <time>2015-06-11T12:16:41Z</time>
      </trkpt>
      <trkpt lat="45.42741" lon="5.93087">
        <ele>1770.795718123</ele>
        <time>2015-06-11T12:16:46Z</time>
      </trkpt>
      <trkpt lat="45.42741" lon="5.93087">
        <ele>1770.795718123</ele>
        <time>2015-06-11T12:16:51Z</time>
      </trkpt>
      <trkpt lat="45.42741" lon="5.93087">
        <ele>1770.795718123</ele>
        <time>2015-06-11T12:16:56Z</time>
      </trkpt>
      <trkpt lat="45.42741" lon="5.93087">
        <ele>1770.795718123</ele>
        <time>2015-06-11T12:17:01Z</time>
      </trkpt>
      <trkpt lat="45.42741" lon="5.93087">
        <ele>1770.795718123</ele>
        <time>2015-06-11T12:17:06Z</time>
      </trkpt>
      <trkpt lat="45.42741" lon="5.93087">
        <ele>1770.795718123</ele>
        <time>2015-06-11T12:17:11Z</time>
      </trkpt>
      <trkpt lat="45.42741" lon="5.93087">
        <ele>1770.795718123</ele>
        <time>2015-06-11T12:17:16Z</time>
      </trkpt>
      <trkpt lat="45.42741" lon="5.93087">
        <ele>1770.795718123</ele>
        <time>2015-06-11T12:17:21Z</time>
      </trkpt>
      <trkpt lat="45.42741" lon="5.93087">
        <ele>1770.795718123</ele>
        <time>2015-06-11T12:17:26Z</time>
      </trkpt>
      <trkpt lat="45.42741" lon="5.93087">
        <ele>1770.795718123</ele>
        <time>2015-06-11T12:17:31Z</time>
      </trkpt>
      <trkpt lat="45.42741" lon="5.93087">
        <ele>1770.795718123</ele>
        <time>2015-06-11T12:17:36Z</time>
      </trkpt>
      <trkpt lat="45.42741" lon="5.93087">
        <ele>1770.795718123</ele>
        <time>2015-06-11T12:17:41Z</time>
      </trkpt>
      <trkpt lat="45.42741" lon="5.93088">
        <ele>1770.795718123</ele>
        <time>2015-06-11T12:17:46Z</time>
      </trkpt>
      <trkpt lat="45.42741" lon="5.93088">
        <ele>1770.795718123</ele>
        <time>2015-06-11T12:17:51Z</time>
      </trkpt>
      <trkpt lat="45.42741" lon="5.93087">
        <ele>1770.795718123</ele>
        <time>2015-06-11T12:17:55Z</time>
      </trkpt>
      <trkpt lat="45.4274" lon="5.93086">
        <ele>1770.795718123</ele>
        <time>2015-06-11T12:18:00Z</time>
      </trkpt>
      <trkpt lat="45.42742" lon="5.93092">
        <ele>1768.892508967</ele>
        <time>2015-06-11T12:18:06Z</time>
      </trkpt>
      <trkpt lat="45.42744" lon="5.93093">
        <ele>1768.892508967</ele>
        <time>2015-06-11T12:18:10Z</time>
      </trkpt>
      <trkpt lat="45.42745" lon="5.93095">
        <ele>1768.892508967</ele>
        <time>2015-06-11T12:18:15Z</time>
      </trkpt>
      <trkpt lat="45.42748" lon="5.93098">
        <ele>1768.892508967</ele>
        <time>2015-06-11T12:18:21Z</time>
      </trkpt>
      <trkpt lat="45.42745" lon="5.93097">
        <ele>1766.68936137</ele>
        <time>2015-06-11T12:18:25Z</time>
      </trkpt>
      <trkpt lat="45.42743" lon="5.93097">
        <ele>1766.68936137</ele>
        <time>2015-06-11T12:18:31Z</time>
      </trkpt>
      <trkpt lat="45.42744" lon="5.93096">
        <ele>1766.68936137</ele>
        <time>2015-06-11T12:18:36Z</time>
      </trkpt>
      <trkpt lat="45.42744" lon="5.93097">
        <ele>1766.68936137</ele>
        <time>2015-06-11T12:18:41Z</time>
      </trkpt>
      <trkpt lat="45.42744" lon="5.93095">
        <ele>1766.68936137</ele>
        <time>2015-06-11T12:18:46Z</time>
      </trkpt>
      <trkpt lat="45.42747" lon="5.93097">
        <ele>1766.68936137</ele>
        <time>2015-06-11T12:18:51Z</time>
      </trkpt>
      <trkpt lat="45.42747" lon="5.93096">
        <ele>1766.68936137</ele>
        <time>2015-06-11T12:18:56Z</time>
      </trkpt>
      <trkpt lat="45.42747" lon="5.93097">
        <ele>1766.68936137</ele>
        <time>2015-06-11T12:19:01Z</time>
      </trkpt>
      <trkpt lat="45.42747" lon="5.93097">
        <ele>1766.68936137</ele>
        <time>2015-06-11T12:19:06Z</time>
      </trkpt>
      <trkpt lat="45.42747" lon="5.93097">
        <ele>1765.076739863</ele>
        <time>2015-06-11T12:19:11Z</time>
      </trkpt>
      <trkpt lat="45.42749" lon="5.93096">
        <ele>1765.076739863</ele>
        <time>2015-06-11T12:19:15Z</time>
      </trkpt>
      <trkpt lat="45.42748" lon="5.93093">
        <ele>1765.076739863</ele>
        <time>2015-06-11T12:19:21Z</time>
      </trkpt>
      <trkpt lat="45.42747" lon="5.93091">
        <ele>1765.076739863</ele>
        <time>2015-06-11T12:19:26Z</time>
      </trkpt>
      <trkpt lat="45.42748" lon="5.93094">
        <ele>1765.076739863</ele>
        <time>2015-06-11T12:19:31Z</time>
      </trkpt>
      <trkpt lat="45.42747" lon="5.93096">
        <ele>1764.157244811</ele>
        <time>2015-06-11T12:19:36Z</time>
      </trkpt>
      <trkpt lat="45.42747" lon="5.93095">
        <ele>1764.157244811</ele>
        <time>2015-06-11T12:19:41Z</time>
      </trkpt>
      <trkpt lat="45.42746" lon="5.93095">
        <ele>1764.157244811</ele>
        <time>2015-06-11T12:19:46Z</time>
      </trkpt>
      <trkpt lat="45.42746" lon="5.93095">
        <ele>1764.157244811</ele>
        <time>2015-06-11T12:19:51Z</time>
      </trkpt>
      <trkpt lat="45.42746" lon="5.93095">
        <ele>1764.157244811</ele>
        <time>2015-06-11T12:19:56Z</time>
      </trkpt>
      <trkpt lat="45.42746" lon="5.93095">
        <ele>1764.157244811</ele>
        <time>2015-06-11T12:20:01Z</time>
      </trkpt>
      <trkpt lat="45.42745" lon="5.93096">
        <ele>1764.157244811</ele>
        <time>2015-06-11T12:20:06Z</time>
      </trkpt>
      <trkpt lat="45.42744" lon="5.93094">
        <ele>1764.157244811</ele>
        <time>2015-06-11T12:20:11Z</time>
      </trkpt>
      <trkpt lat="45.42747" lon="5.93092">
        <ele>1764.157244811</ele>
        <time>2015-06-11T12:20:16Z</time>
      </trkpt>
      <trkpt lat="45.42746" lon="5.9309">
        <ele>1764.157244811</ele>
        <time>2015-06-11T12:20:21Z</time>
      </trkpt>
      <trkpt lat="45.42743" lon="5.93087">
        <ele>1763.447326316</ele>
        <time>2015-06-11T12:20:26Z</time>
      </trkpt>
      <trkpt lat="45.42742" lon="5.93084">
        <ele>1763.447326316</ele>
        <time>2015-06-11T12:20:31Z</time>
      </trkpt>
      <trkpt lat="45.4274" lon="5.93082">
        <ele>1763.447326316</ele>
        <time>2015-06-11T12:20:36Z</time>
      </trkpt>
      <trkpt lat="45.42739" lon="5.93079">
        <ele>1763.447326316</ele>
        <time>2015-06-11T12:20:41Z</time>
      </trkpt>
      <trkpt lat="45.42738" lon="5.93073">
        <ele>1761.921713435</ele>
        <time>2015-06-11T12:20:46Z</time>
      </trkpt>
      <trkpt lat="45.42738" lon="5.9307">
        <ele>1761.921713435</ele>
        <time>2015-06-11T12:20:51Z</time>
      </trkpt>
      <trkpt lat="45.42738" lon="5.93068">
        <ele>1761.921713435</ele>
        <time>2015-06-11T12:20:56Z</time>
      </trkpt>
      <trkpt lat="45.42737" lon="5.93068">
        <ele>1761.921713435</ele>
        <time>2015-06-11T12:21:01Z</time>
      </trkpt>
      <trkpt lat="45.42736" lon="5.93063">
        <ele>1761.921713435</ele>
        <time>2015-06-11T12:21:06Z</time>
      </trkpt>
      <trkpt lat="45.42735" lon="5.93058">
        <ele>1760.650102419</ele>
        <time>2015-06-11T12:21:11Z</time>
      </trkpt>
      <trkpt lat="45.42732" lon="5.93059">
        <ele>1760.650102419</ele>
        <time>2015-06-11T12:21:16Z</time>
      </trkpt>
      <trkpt lat="45.42729" lon="5.93057">
        <ele>1760.650102419</ele>
        <time>2015-06-11T12:21:21Z</time>
      </trkpt>
      <trkpt lat="45.42729" lon="5.93058">
        <ele>1760.650102419</ele>
        <time>2015-06-11T12:21:25Z</time>
      </trkpt>
      <trkpt lat="45.42728" lon="5.93056">
        <ele>1760.650102419</ele>
        <time>2015-06-11T12:21:30Z</time>
      </trkpt>
      <trkpt lat="45.42728" lon="5.93055">
        <ele>1760.650102419</ele>
        <time>2015-06-11T12:21:36Z</time>
      </trkpt>
      <trkpt lat="45.42728" lon="5.93055">
        <ele>1760.650102419</ele>
        <time>2015-06-11T12:21:41Z</time>
      </trkpt>
      <trkpt lat="45.42725" lon="5.93051">
        <ele>1759.469828594</ele>
        <time>2015-06-11T12:21:46Z</time>
      </trkpt>
      <trkpt lat="45.42722" lon="5.93045">
        <ele>1759.469828594</ele>
        <time>2015-06-11T12:21:50Z</time>
      </trkpt>
      <trkpt lat="45.4272" lon="5.93042">
        <ele>1759.469828594</ele>
        <time>2015-06-11T12:21:56Z</time>
      </trkpt>
      <trkpt lat="45.4272" lon="5.93042">
        <ele>1759.469828594</ele>
        <time>2015-06-11T12:22:00Z</time>
      </trkpt>
      <trkpt lat="45.42717" lon="5.93036">
        <ele>1757.509197765</ele>
        <time>2015-06-11T12:22:06Z</time>
      </trkpt>
      <trkpt lat="45.42718" lon="5.93032">
        <ele>1757.509197765</ele>
        <time>2015-06-11T12:22:11Z</time>
      </trkpt>
      <trkpt lat="45.42718" lon="5.93032">
        <ele>1757.509197765</ele>
        <time>2015-06-11T12:22:16Z</time>
      </trkpt>
      <trkpt lat="45.4272" lon="5.93028">
        <ele>1757.509197765</ele>
        <time>2015-06-11T12:22:21Z</time>
      </trkpt>
      <trkpt lat="45.4272" lon="5.93023">
        <ele>1755.25958342</ele>
        <time>2015-06-11T12:22:26Z</time>
      </trkpt>
      <trkpt lat="45.42722" lon="5.9302">
        <ele>1755.25958342</ele>
        <time>2015-06-11T12:22:31Z</time>
      </trkpt>
      <trkpt lat="45.42724" lon="5.93015">
        <ele>1755.25958342</ele>
        <time>2015-06-11T12:22:35Z</time>
      </trkpt>
      <trkpt lat="45.42732" lon="5.9302">
        <ele>1753.17692585</ele>
        <time>2015-06-11T12:22:41Z</time>
      </trkpt>
      <trkpt lat="45.42735" lon="5.93019">
        <ele>1753.17692585</ele>
        <time>2015-06-11T12:22:46Z</time>
      </trkpt>
      <trkpt lat="45.42736" lon="5.93018">
        <ele>1753.17692585</ele>
        <time>2015-06-11T12:22:51Z</time>
      </trkpt>
      <trkpt lat="45.42737" lon="5.93018">
        <ele>1753.17692585</ele>
        <time>2015-06-11T12:22:56Z</time>
      </trkpt>
      <trkpt lat="45.42738" lon="5.93018">
        <ele>1753.17692585</ele>
        <time>2015-06-11T12:23:01Z</time>
      </trkpt>
      <trkpt lat="45.42738" lon="5.93017">
        <ele>1753.17692585</ele>
        <time>2015-06-11T12:23:06Z</time>
      </trkpt>
      <trkpt lat="45.42738" lon="5.93015">
        <ele>1750.674283479</ele>
        <time>2015-06-11T12:23:11Z</time>
      </trkpt>
      <trkpt lat="45.42738" lon="5.93015">
        <ele>1750.674283479</ele>
        <time>2015-06-11T12:23:16Z</time>
      </trkpt>
      <trkpt lat="45.4274" lon="5.93013">
        <ele>1750.674283479</ele>
        <time>2015-06-11T12:23:21Z</time>
      </trkpt>
      <trkpt lat="45.42742" lon="5.93013">
        <ele>1750.674283479</ele>
        <time>2015-06-11T12:23:26Z</time>
      </trkpt>
      <trkpt lat="45.42742" lon="5.93011">
        <ele>1750.674283479</ele>
        <time>2015-06-11T12:23:31Z</time>
      </trkpt>
      <trkpt lat="45.42744" lon="5.93009">
        <ele>1750.674283479</ele>
        <time>2015-06-11T12:23:36Z</time>
      </trkpt>
      <trkpt lat="45.42744" lon="5.93009">
        <ele>1750.674283479</ele>
        <time>2015-06-11T12:23:41Z</time>
      </trkpt>
      <trkpt lat="45.42743" lon="5.93004">
        <ele>1747.641204046</ele>
        <time>2015-06-11T12:23:46Z</time>
      </trkpt>
      <trkpt lat="45.42741" lon="5.92997">
        <ele>1747.641204046</ele>
        <time>2015-06-11T12:23:51Z</time>
      </trkpt>
      <trkpt lat="45.42739" lon="5.92992">
        <ele>1744.553144654</ele>
        <time>2015-06-11T12:23:56Z</time>
      </trkpt>
      <trkpt lat="45.42735" lon="5.92982">
        <ele>1744.553144654</ele>
        <time>2015-06-11T12:24:01Z</time>
      </trkpt>
      <trkpt lat="45.42733" lon="5.9298">
        <ele>1741.850653337</ele>
        <time>2015-06-11T12:24:06Z</time>
      </trkpt>
      <trkpt lat="45.42735" lon="5.92974">
        <ele>1741.850653337</ele>
        <time>2015-06-11T12:24:10Z</time>
      </trkpt>
      <trkpt lat="45.42734" lon="5.92973">
        <ele>1741.850653337</ele>
        <time>2015-06-11T12:24:15Z</time>
      </trkpt>
      <trkpt lat="45.42735" lon="5.9297">
        <ele>1741.850653337</ele>
        <time>2015-06-11T12:24:21Z</time>
      </trkpt>
      <trkpt lat="45.42736" lon="5.9297">
        <ele>1741.850653337</ele>
        <time>2015-06-11T12:24:26Z</time>
      </trkpt>
      <trkpt lat="45.42734" lon="5.92968">
        <ele>1739.508364371</ele>
        <time>2015-06-11T12:24:30Z</time>
      </trkpt>
      <trkpt lat="45.42732" lon="5.92964">
        <ele>1739.508364371</ele>
        <time>2015-06-11T12:24:36Z</time>
      </trkpt>
      <trkpt lat="45.42734" lon="5.92957">
        <ele>1739.508364371</ele>
        <time>2015-06-11T12:24:41Z</time>
      </trkpt>
      <trkpt lat="45.42738" lon="5.92958">
        <ele>1737.501630736</ele>
        <time>2015-06-11T12:24:46Z</time>
      </trkpt>
      <trkpt lat="45.42744" lon="5.92952">
        <ele>1737.501630736</ele>
        <time>2015-06-11T12:24:51Z</time>
      </trkpt>
      <trkpt lat="45.4274" lon="5.92949">
        <ele>1736.094768042</ele>
        <time>2015-06-11T12:24:56Z</time>
      </trkpt>
      <trkpt lat="45.42745" lon="5.92944">
        <ele>1736.094768042</ele>
        <time>2015-06-11T12:25:01Z</time>
      </trkpt>
      <trkpt lat="45.42744" lon="5.92945">
        <ele>1736.094768042</ele>
        <time>2015-06-11T12:25:06Z</time>
      </trkpt>
      <trkpt lat="45.42745" lon="5.92944">
        <ele>1736.094768042</ele>
        <time>2015-06-11T12:25:11Z</time>
      </trkpt>
      <trkpt lat="45.42744" lon="5.92942">
        <ele>1734.233869296</ele>
        <time>2015-06-11T12:25:16Z</time>
      </trkpt>
      <trkpt lat="45.42744" lon="5.92928">
        <ele>1733.393500312</ele>
        <time>2015-06-11T12:25:21Z</time>
      </trkpt>
      <trkpt lat="45.42745" lon="5.92927">
        <ele>1733.393500312</ele>
        <time>2015-06-11T12:25:26Z</time>
      </trkpt>
      <trkpt lat="45.42743" lon="5.92924">
        <ele>1733.393500312</ele>
        <time>2015-06-11T12:25:31Z</time>
      </trkpt>
      <trkpt lat="45.42744" lon="5.9292">
        <ele>1733.393500312</ele>
        <time>2015-06-11T12:25:36Z</time>
      </trkpt>
      <trkpt lat="45.42745" lon="5.9292">
        <ele>1733.393500312</ele>
        <time>2015-06-11T12:25:40Z</time>
      </trkpt>
      <trkpt lat="45.42745" lon="5.92919">
        <ele>1733.393500312</ele>
        <time>2015-06-11T12:25:45Z</time>
      </trkpt>
      <trkpt lat="45.42744" lon="5.92917">
        <ele>1731.045937095</ele>
        <time>2015-06-11T12:25:51Z</time>
      </trkpt>
      <trkpt lat="45.42747" lon="5.92912">
        <ele>1731.045937095</ele>
        <time>2015-06-11T12:25:56Z</time>
      </trkpt>
      <trkpt lat="45.42753" lon="5.92916">
        <ele>1728.600168394</ele>
        <time>2015-06-11T12:26:01Z</time>
      </trkpt>
      <trkpt lat="45.42757" lon="5.92916">
        <ele>1728.600168394</ele>
        <time>2015-06-11T12:26:06Z</time>
      </trkpt>
      <trkpt lat="45.42762" lon="5.92918">
        <ele>1726.353089783</ele>
        <time>2015-06-11T12:26:11Z</time>
      </trkpt>
      <trkpt lat="45.42765" lon="5.92909">
        <ele>1726.353089783</ele>
        <time>2015-06-11T12:26:16Z</time>
      </trkpt>
      <trkpt lat="45.42764" lon="5.92908">
        <ele>1726.353089783</ele>
        <time>2015-06-11T12:26:20Z</time>
      </trkpt>
      <trkpt lat="45.42764" lon="5.92908">
        <ele>1726.353089783</ele>
        <time>2015-06-11T12:26:26Z</time>
      </trkpt>
      <trkpt lat="45.42764" lon="5.92907">
        <ele>1726.353089783</ele>
        <time>2015-06-11T12:26:31Z</time>
      </trkpt>
      <trkpt lat="45.42765" lon="5.92907">
        <ele>1726.353089783</ele>
        <time>2015-06-11T12:26:36Z</time>
      </trkpt>
      <trkpt lat="45.42766" lon="5.92899">
        <ele>1724.290926268</ele>
        <time>2015-06-11T12:26:41Z</time>
      </trkpt>
      <trkpt lat="45.42768" lon="5.92896">
        <ele>1724.290926268</ele>
        <time>2015-06-11T12:26:46Z</time>
      </trkpt>
      <trkpt lat="45.42771" lon="5.92893">
        <ele>1724.290926268</ele>
        <time>2015-06-11T12:26:51Z</time>
      </trkpt>
      <trkpt lat="45.42775" lon="5.92891">
        <ele>1721.103315547</ele>
        <time>2015-06-11T12:26:56Z</time>
      </trkpt>
      <trkpt lat="45.42777" lon="5.92887">
        <ele>1721.103315547</ele>
        <time>2015-06-11T12:27:01Z</time>
      </trkpt>
      <trkpt lat="45.42779" lon="5.92884">
        <ele>1721.103315547</ele>
        <time>2015-06-11T12:27:06Z</time>
      </trkpt>
      <trkpt lat="45.42782" lon="5.92881">
        <ele>1717.740901602</ele>
        <time>2015-06-11T12:27:11Z</time>
      </trkpt>
      <trkpt lat="45.42786" lon="5.92885">
        <ele>1717.740901602</ele>
        <time>2015-06-11T12:27:16Z</time>
      </trkpt>
      <trkpt lat="45.4279" lon="5.92887">
        <ele>1717.740901602</ele>
        <time>2015-06-11T12:27:21Z</time>
      </trkpt>
      <trkpt lat="45.42792" lon="5.92888">
        <ele>1714.076126196</ele>
        <time>2015-06-11T12:27:26Z</time>
      </trkpt>
      <trkpt lat="45.42796" lon="5.9289">
        <ele>1714.076126196</ele>
        <time>2015-06-11T12:27:30Z</time>
      </trkpt>
      <trkpt lat="45.428" lon="5.92891">
        <ele>1714.076126196</ele>
        <time>2015-06-11T12:27:35Z</time>
      </trkpt>
      <trkpt lat="45.42802" lon="5.92891">
        <ele>1710.856234056</ele>
        <time>2015-06-11T12:27:41Z</time>
      </trkpt>
      <trkpt lat="45.42804" lon="5.92888">
        <ele>1710.856234056</ele>
        <time>2015-06-11T12:27:46Z</time>
      </trkpt>
      <trkpt lat="45.42806" lon="5.92891">
        <ele>1710.856234056</ele>
        <time>2015-06-11T12:27:51Z</time>
      </trkpt>
      <trkpt lat="45.42806" lon="5.92888">
        <ele>1710.856234056</ele>
        <time>2015-06-11T12:27:56Z</time>
      </trkpt>
      <trkpt lat="45.42809" lon="5.92888">
        <ele>1706.898794362</ele>
        <time>2015-06-11T12:28:01Z</time>
      </trkpt>
      <trkpt lat="45.42809" lon="5.92876">
        <ele>1706.898794362</ele>
        <time>2015-06-11T12:28:06Z</time>
      </trkpt>
      <trkpt lat="45.42812" lon="5.92875">
        <ele>1703.704214839</ele>
        <time>2015-06-11T12:28:10Z</time>
      </trkpt>
      <trkpt lat="45.42813" lon="5.92876">
        <ele>1703.704214839</ele>
        <time>2015-06-11T12:28:15Z</time>
      </trkpt>
      <trkpt lat="45.42813" lon="5.92878">
        <ele>1703.704214839</ele>
        <time>2015-06-11T12:28:21Z</time>
      </trkpt>
      <trkpt lat="45.42813" lon="5.92878">
        <ele>1703.704214839</ele>
        <time>2015-06-11T12:28:26Z</time>
      </trkpt>
      <trkpt lat="45.42813" lon="5.92877">
        <ele>1703.704214839</ele>
        <time>2015-06-11T12:28:31Z</time>
      </trkpt>
      <trkpt lat="45.42812" lon="5.92871">
        <ele>1703.704214839</ele>
        <time>2015-06-11T12:28:36Z</time>
      </trkpt>
      <trkpt lat="45.42809" lon="5.92865">
        <ele>1700.210554396</ele>
        <time>2015-06-11T12:28:40Z</time>
      </trkpt>
      <trkpt lat="45.42807" lon="5.92865">
        <ele>1700.210554396</ele>
        <time>2015-06-11T12:28:46Z</time>
      </trkpt>
      <trkpt lat="45.42806" lon="5.92864">
        <ele>1700.210554396</ele>
        <time>2015-06-11T12:28:51Z</time>
      </trkpt>
      <trkpt lat="45.42803" lon="5.92853">
        <ele>1696.731619757</ele>
        <time>2015-06-11T12:28:56Z</time>
      </trkpt>
      <trkpt lat="45.42802" lon="5.92853">
        <ele>1696.731619757</ele>
        <time>2015-06-11T12:29:01Z</time>
      </trkpt>
      <trkpt lat="45.42801" lon="5.92852">
        <ele>1696.731619757</ele>
        <time>2015-06-11T12:29:06Z</time>
      </trkpt>
      <trkpt lat="45.42801" lon="5.9284">
        <ele>1693.125685139</ele>
        <time>2015-06-11T12:29:11Z</time>
      </trkpt>
      <trkpt lat="45.42803" lon="5.9283">
        <ele>1693.125685139</ele>
        <time>2015-06-11T12:29:16Z</time>
      </trkpt>
      <trkpt lat="45.42802" lon="5.92826">
        <ele>1689.838129701</ele>
        <time>2015-06-11T12:29:21Z</time>
      </trkpt>
      <trkpt lat="45.42802" lon="5.92819">
        <ele>1689.838129701</ele>
        <time>2015-06-11T12:29:26Z</time>
      </trkpt>
      <trkpt lat="45.42801" lon="5.9281">
        <ele>1686.560057</ele>
        <time>2015-06-11T12:29:31Z</time>
      </trkpt>
      <trkpt lat="45.42798" lon="5.92801">
        <ele>1686.560057</ele>
        <time>2015-06-11T12:29:36Z</time>
      </trkpt>
      <trkpt lat="45.42798" lon="5.92799">
        <ele>1686.560057</ele>
        <time>2015-06-11T12:29:41Z</time>
      </trkpt>
      <trkpt lat="45.428" lon="5.9279">
        <ele>1682.861013683</ele>
        <time>2015-06-11T12:29:45Z</time>
      </trkpt>
      <trkpt lat="45.42799" lon="5.92777">
        <ele>1679.928461249</ele>
        <time>2015-06-11T12:29:51Z</time>
      </trkpt>
      <trkpt lat="45.42797" lon="5.92772">
        <ele>1679.928461249</ele>
        <time>2015-06-11T12:29:56Z</time>
      </trkpt>
      <trkpt lat="45.428" lon="5.92762">
        <ele>1677.131037203</ele>
        <time>2015-06-11T12:30:01Z</time>
      </trkpt>
      <trkpt lat="45.42801" lon="5.92754">
        <ele>1677.131037203</ele>
        <time>2015-06-11T12:30:06Z</time>
      </trkpt>
      <trkpt lat="45.42805" lon="5.92744">
        <ele>1673.883272394</ele>
        <time>2015-06-11T12:30:11Z</time>
      </trkpt>
      <trkpt lat="45.42803" lon="5.92738">
        <ele>1673.883272394</ele>
        <time>2015-06-11T12:30:16Z</time>
      </trkpt>
      <trkpt lat="45.42807" lon="5.9273">
        <ele>1671.517311729</ele>
        <time>2015-06-11T12:30:21Z</time>
      </trkpt>
      <trkpt lat="45.42807" lon="5.92726">
        <ele>1671.517311729</ele>
        <time>2015-06-11T12:30:26Z</time>
      </trkpt>
      <trkpt lat="45.42806" lon="5.92726">
        <ele>1671.517311729</ele>
        <time>2015-06-11T12:30:30Z</time>
      </trkpt>
      <trkpt lat="45.42811" lon="5.92726">
        <ele>1671.517311729</ele>
        <time>2015-06-11T12:30:36Z</time>
      </trkpt>
      <trkpt lat="45.42809" lon="5.9272">
        <ele>1669.391425177</ele>
        <time>2015-06-11T12:30:41Z</time>
      </trkpt>
      <trkpt lat="45.42815" lon="5.9272">
        <ele>1669.391425177</ele>
        <time>2015-06-11T12:30:46Z</time>
      </trkpt>
      <trkpt lat="45.42818" lon="5.92718">
        <ele>1669.391425177</ele>
        <time>2015-06-11T12:30:50Z</time>
      </trkpt>
      <trkpt lat="45.42819" lon="5.92718">
        <ele>1667.630817298</ele>
        <time>2015-06-11T12:30:55Z</time>
      </trkpt>
      <trkpt lat="45.42819" lon="5.92719">
        <ele>1667.630817298</ele>
        <time>2015-06-11T12:31:01Z</time>
      </trkpt>
      <trkpt lat="45.42821" lon="5.92722">
        <ele>1667.630817298</ele>
        <time>2015-06-11T12:31:06Z</time>
      </trkpt>
      <trkpt lat="45.42824" lon="5.92723">
        <ele>1667.630817298</ele>
        <time>2015-06-11T12:31:11Z</time>
      </trkpt>
      <trkpt lat="45.42831" lon="5.92726">
        <ele>1665.485723417</ele>
        <time>2015-06-11T12:31:16Z</time>
      </trkpt>
      <trkpt lat="45.42831" lon="5.92724">
        <ele>1665.485723417</ele>
        <time>2015-06-11T12:31:21Z</time>
      </trkpt>
      <trkpt lat="45.42829" lon="5.92723">
        <ele>1665.485723417</ele>
        <time>2015-06-11T12:31:26Z</time>
      </trkpt>
      <trkpt lat="45.42829" lon="5.92716">
        <ele>1663.127132099</ele>
        <time>2015-06-11T12:31:31Z</time>
      </trkpt>
      <trkpt lat="45.42829" lon="5.92706">
        <ele>1663.127132099</ele>
        <time>2015-06-11T12:31:36Z</time>
      </trkpt>
      <trkpt lat="45.42827" lon="5.92701">
        <ele>1659.993452669</ele>
        <time>2015-06-11T12:31:41Z</time>
      </trkpt>
      <trkpt lat="45.42824" lon="5.92694">
        <ele>1659.993452669</ele>
        <time>2015-06-11T12:31:46Z</time>
      </trkpt>
      <trkpt lat="45.42821" lon="5.92685">
        <ele>1657.584025195</ele>
        <time>2015-06-11T12:31:51Z</time>
      </trkpt>
      <trkpt lat="45.42819" lon="5.9268">
        <ele>1657.584025195</ele>
        <time>2015-06-11T12:31:56Z</time>
      </trkpt>
      <trkpt lat="45.42819" lon="5.92679">
        <ele>1657.584025195</ele>
        <time>2015-06-11T12:32:01Z</time>
      </trkpt>
      <trkpt lat="45.42819" lon="5.92675">
        <ele>1657.584025195</ele>
        <time>2015-06-11T12:32:06Z</time>
      </trkpt>
      <trkpt lat="45.4282" lon="5.92667">
        <ele>1655.124300715</ele>
        <time>2015-06-11T12:32:11Z</time>
      </trkpt>
      <trkpt lat="45.42824" lon="5.92658">
        <ele>1655.124300715</ele>
        <time>2015-06-11T12:32:16Z</time>
      </trkpt>
      <trkpt lat="45.42823" lon="5.92651">
        <ele>1653.481949261</ele>
        <time>2015-06-11T12:32:21Z</time>
      </trkpt>
      <trkpt lat="45.42826" lon="5.92654">
        <ele>1653.481949261</ele>
        <time>2015-06-11T12:32:26Z</time>
      </trkpt>
      <trkpt lat="45.42827" lon="5.92648">
        <ele>1653.481949261</ele>
        <time>2015-06-11T12:32:31Z</time>
      </trkpt>
      <trkpt lat="45.42828" lon="5.92641">
        <ele>1651.29690495</ele>
        <time>2015-06-11T12:32:36Z</time>
      </trkpt>
      <trkpt lat="45.42831" lon="5.9264">
        <ele>1651.29690495</ele>
        <time>2015-06-11T12:32:41Z</time>
      </trkpt>
      <trkpt lat="45.42833" lon="5.92639">
        <ele>1651.29690495</ele>
        <time>2015-06-11T12:32:46Z</time>
      </trkpt>
      <trkpt lat="45.42833" lon="5.92641">
        <ele>1651.29690495</ele>
        <time>2015-06-11T12:32:51Z</time>
      </trkpt>
      <trkpt lat="45.42834" lon="5.92639">
        <ele>1651.29690495</ele>
        <time>2015-06-11T12:32:56Z</time>
      </trkpt>
      <trkpt lat="45.42835" lon="5.92636">
        <ele>1649.039838699</ele>
        <time>2015-06-11T12:33:01Z</time>
      </trkpt>
      <trkpt lat="45.42836" lon="5.92631">
        <ele>1649.039838699</ele>
        <time>2015-06-11T12:33:06Z</time>
      </trkpt>
      <trkpt lat="45.42836" lon="5.92629">
        <ele>1649.039838699</ele>
        <time>2015-06-11T12:33:11Z</time>
      </trkpt>
      <trkpt lat="45.42837" lon="5.92627">
        <ele>1649.039838699</ele>
        <time>2015-06-11T12:33:16Z</time>
      </trkpt>
      <trkpt lat="45.42837" lon="5.92627">
        <ele>1649.039838699</ele>
        <time>2015-06-11T12:33:21Z</time>
      </trkpt>
      <trkpt lat="45.42838" lon="5.92624">
        <ele>1649.039838699</ele>
        <time>2015-06-11T12:33:26Z</time>
      </trkpt>
      <trkpt lat="45.42838" lon="5.92619">
        <ele>1647.723472571</ele>
        <time>2015-06-11T12:33:30Z</time>
      </trkpt>
      <trkpt lat="45.42839" lon="5.92618">
        <ele>1647.723472571</ele>
        <time>2015-06-11T12:33:36Z</time>
      </trkpt>
      <trkpt lat="45.4284" lon="5.92617">
        <ele>1647.723472571</ele>
        <time>2015-06-11T12:33:41Z</time>
      </trkpt>
      <trkpt lat="45.42845" lon="5.92615">
        <ele>1647.723472571</ele>
        <time>2015-06-11T12:33:46Z</time>
      </trkpt>
      <trkpt lat="45.42852" lon="5.92609">
        <ele>1646.986485346</ele>
        <time>2015-06-11T12:33:51Z</time>
      </trkpt>
      <trkpt lat="45.42852" lon="5.92611">
        <ele>1646.986485346</ele>
        <time>2015-06-11T12:33:56Z</time>
      </trkpt>
      <trkpt lat="45.42849" lon="5.92616">
        <ele>1646.986485346</ele>
        <time>2015-06-11T12:34:00Z</time>
      </trkpt>
      <trkpt lat="45.42846" lon="5.92616">
        <ele>1646.986485346</ele>
        <time>2015-06-11T12:34:06Z</time>
      </trkpt>
      <trkpt lat="45.42848" lon="5.92617">
        <ele>1646.060140828</ele>
        <time>2015-06-11T12:34:11Z</time>
      </trkpt>
      <trkpt lat="45.42842" lon="5.92612">
        <ele>1646.060140828</ele>
        <time>2015-06-11T12:34:16Z</time>
      </trkpt>
      <trkpt lat="45.42838" lon="5.9261">
        <ele>1645.09738638</ele>
        <time>2015-06-11T12:34:21Z</time>
      </trkpt>
      <trkpt lat="45.42833" lon="5.92609">
        <ele>1645.09738638</ele>
        <time>2015-06-11T12:34:26Z</time>
      </trkpt>
      <trkpt lat="45.4283" lon="5.92606">
        <ele>1645.09738638</ele>
        <time>2015-06-11T12:34:30Z</time>
      </trkpt>
      <trkpt lat="45.42827" lon="5.92598">
        <ele>1643.951841853</ele>
        <time>2015-06-11T12:34:36Z</time>
      </trkpt>
      <trkpt lat="45.42825" lon="5.92589">
        <ele>1643.951841853</ele>
        <time>2015-06-11T12:34:41Z</time>
      </trkpt>
      <trkpt lat="45.42824" lon="5.92585">
        <ele>1643.353101572</ele>
        <time>2015-06-11T12:34:46Z</time>
      </trkpt>
      <trkpt lat="45.42822" lon="5.92588">
        <ele>1643.353101572</ele>
        <time>2015-06-11T12:34:51Z</time>
      </trkpt>
      <trkpt lat="45.42822" lon="5.92588">
        <ele>1643.353101572</ele>
        <time>2015-06-11T12:34:56Z</time>
      </trkpt>
      <trkpt lat="45.42822" lon="5.92588">
        <ele>1643.353101572</ele>
        <time>2015-06-11T12:35:01Z</time>
      </trkpt>
      <trkpt lat="45.42822" lon="5.92588">
        <ele>1643.353101572</ele>
        <time>2015-06-11T12:35:06Z</time>
      </trkpt>
      <trkpt lat="45.42822" lon="5.92588">
        <ele>1643.353101572</ele>
        <time>2015-06-11T12:35:11Z</time>
      </trkpt>
      <trkpt lat="45.42825" lon="5.92584">
        <ele>1643.353101572</ele>
        <time>2015-06-11T12:35:16Z</time>
      </trkpt>
      <trkpt lat="45.42826" lon="5.92575">
        <ele>1642.390461009</ele>
        <time>2015-06-11T12:35:21Z</time>
      </trkpt>
      <trkpt lat="45.4283" lon="5.92567">
        <ele>1642.390461009</ele>
        <time>2015-06-11T12:35:26Z</time>
      </trkpt>
      <trkpt lat="45.42833" lon="5.92564">
        <ele>1641.229978616</ele>
        <time>2015-06-11T12:35:31Z</time>
      </trkpt>
      <trkpt lat="45.42833" lon="5.92563">
        <ele>1641.229978616</ele>
        <time>2015-06-11T12:35:36Z</time>
      </trkpt>
      <trkpt lat="45.42833" lon="5.92561">
        <ele>1641.229978616</ele>
        <time>2015-06-11T12:35:41Z</time>
      </trkpt>
      <trkpt lat="45.42832" lon="5.92561">
        <ele>1641.229978616</ele>
        <time>2015-06-11T12:35:46Z</time>
      </trkpt>
      <trkpt lat="45.42832" lon="5.9256">
        <ele>1641.229978616</ele>
        <time>2015-06-11T12:35:51Z</time>
      </trkpt>
      <trkpt lat="45.42832" lon="5.9256">
        <ele>1641.229978616</ele>
        <time>2015-06-11T12:35:56Z</time>
      </trkpt>
      <trkpt lat="45.42831" lon="5.92554">
        <ele>1641.229978616</ele>
        <time>2015-06-11T12:36:01Z</time>
      </trkpt>
      <trkpt lat="45.42831" lon="5.92553">
        <ele>1641.229978616</ele>
        <time>2015-06-11T12:36:06Z</time>
      </trkpt>
      <trkpt lat="45.4283" lon="5.92552">
        <ele>1640.458477066</ele>
        <time>2015-06-11T12:36:11Z</time>
      </trkpt>
      <trkpt lat="45.4283" lon="5.92552">
        <ele>1640.458477066</ele>
        <time>2015-06-11T12:36:16Z</time>
      </trkpt>
      <trkpt lat="45.4283" lon="5.92552">
        <ele>1640.458477066</ele>
        <time>2015-06-11T12:36:21Z</time>
      </trkpt>
      <trkpt lat="45.42831" lon="5.92538">
        <ele>1639.75399683</ele>
        <time>2015-06-11T12:36:25Z</time>
      </trkpt>
      <trkpt lat="45.42837" lon="5.92534">
        <ele>1639.75399683</ele>
        <time>2015-06-11T12:36:31Z</time>
      </trkpt>
      <trkpt lat="45.42841" lon="5.92527">
        <ele>1639.682801504</ele>
        <time>2015-06-11T12:36:35Z</time>
      </trkpt>
      <trkpt lat="45.42841" lon="5.92525">
        <ele>1639.682801504</ele>
        <time>2015-06-11T12:36:41Z</time>
      </trkpt>
      <trkpt lat="45.42836" lon="5.92521">
        <ele>1639.682801504</ele>
        <time>2015-06-11T12:36:46Z</time>
      </trkpt>
      <trkpt lat="45.42833" lon="5.92512">
        <ele>1638.462103225</ele>
        <time>2015-06-11T12:36:51Z</time>
      </trkpt>
      <trkpt lat="45.4283" lon="5.92505">
        <ele>1638.462103225</ele>
        <time>2015-06-11T12:36:56Z</time>
      </trkpt>
      <trkpt lat="45.42831" lon="5.925">
        <ele>1636.749187902</ele>
        <time>2015-06-11T12:37:01Z</time>
      </trkpt>
      <trkpt lat="45.4283" lon="5.9249">
        <ele>1636.749187902</ele>
        <time>2015-06-11T12:37:06Z</time>
      </trkpt>
      <trkpt lat="45.4283" lon="5.92485">
        <ele>1635.442773447</ele>
        <time>2015-06-11T12:37:11Z</time>
      </trkpt>
      <trkpt lat="45.42829" lon="5.92472">
        <ele>1634.365755287</ele>
        <time>2015-06-11T12:37:16Z</time>
      </trkpt>
      <trkpt lat="45.42834" lon="5.92467">
        <ele>1634.365755287</ele>
        <time>2015-06-11T12:37:21Z</time>
      </trkpt>
      <trkpt lat="45.42835" lon="5.92464">
        <ele>1634.365755287</ele>
        <time>2015-06-11T12:37:26Z</time>
      </trkpt>
      <trkpt lat="45.42836" lon="5.92466">
        <ele>1633.065288627</ele>
        <time>2015-06-11T12:37:31Z</time>
      </trkpt>
      <trkpt lat="45.42836" lon="5.92466">
        <ele>1633.065288627</ele>
        <time>2015-06-11T12:37:36Z</time>
      </trkpt>
      <trkpt lat="45.42836" lon="5.92465">
        <ele>1633.065288627</ele>
        <time>2015-06-11T12:37:41Z</time>
      </trkpt>
      <trkpt lat="45.42836" lon="5.92465">
        <ele>1633.065288627</ele>
        <time>2015-06-11T12:37:46Z</time>
      </trkpt>
      <trkpt lat="45.42836" lon="5.92465">
        <ele>1633.065288627</ele>
        <time>2015-06-11T12:37:51Z</time>
      </trkpt>
      <trkpt lat="45.42836" lon="5.92465">
        <ele>1633.065288627</ele>
        <time>2015-06-11T12:37:56Z</time>
      </trkpt>
      <trkpt lat="45.42836" lon="5.92465">
        <ele>1633.065288627</ele>
        <time>2015-06-11T12:38:01Z</time>
      </trkpt>
      <trkpt lat="45.42836" lon="5.92465">
        <ele>1633.065288627</ele>
        <time>2015-06-11T12:38:06Z</time>
      </trkpt>
      <trkpt lat="45.42836" lon="5.92466">
        <ele>1633.065288627</ele>
        <time>2015-06-11T12:38:11Z</time>
      </trkpt>
      <trkpt lat="45.42836" lon="5.92466">
        <ele>1633.065288627</ele>
        <time>2015-06-11T12:38:16Z</time>
      </trkpt>
      <trkpt lat="45.42835" lon="5.92469">
        <ele>1633.065288627</ele>
        <time>2015-06-11T12:38:21Z</time>
      </trkpt>
      <trkpt lat="45.42837" lon="5.92465">
        <ele>1633.065288627</ele>
        <time>2015-06-11T12:38:26Z</time>
      </trkpt>
      <trkpt lat="45.4284" lon="5.92461">
        <ele>1632.131315934</ele>
        <time>2015-06-11T12:38:30Z</time>
      </trkpt>
      <trkpt lat="45.4284" lon="5.92462">
        <ele>1632.131315934</ele>
        <time>2015-06-11T12:38:35Z</time>
      </trkpt>
      <trkpt lat="45.42839" lon="5.92461">
        <ele>1632.131315934</ele>
        <time>2015-06-11T12:38:40Z</time>
      </trkpt>
      <trkpt lat="45.42839" lon="5.92459">
        <ele>1632.131315934</ele>
        <time>2015-06-11T12:38:46Z</time>
      </trkpt>
      <trkpt lat="45.42839" lon="5.92452">
        <ele>1632.131315934</ele>
        <time>2015-06-11T12:38:51Z</time>
      </trkpt>
      <trkpt lat="45.4284" lon="5.92439">
        <ele>1631.821311508</ele>
        <time>2015-06-11T12:38:56Z</time>
      </trkpt>
      <trkpt lat="45.4284" lon="5.92428">
        <ele>1631.821311508</ele>
        <time>2015-06-11T12:39:01Z</time>
      </trkpt>
      <trkpt lat="45.42842" lon="5.92417">
        <ele>1632.083986591</ele>
        <time>2015-06-11T12:39:06Z</time>
      </trkpt>
      <trkpt lat="45.42842" lon="5.92408">
        <ele>1632.083986591</ele>
        <time>2015-06-11T12:39:10Z</time>
      </trkpt>
      <trkpt lat="45.42841" lon="5.92406">
        <ele>1632.083986591</ele>
        <time>2015-06-11T12:39:16Z</time>
      </trkpt>
      <trkpt lat="45.42845" lon="5.92402">
        <ele>1631.573341521</ele>
        <time>2015-06-11T12:39:21Z</time>
      </trkpt>
      <trkpt lat="45.42849" lon="5.92399">
        <ele>1631.573341521</ele>
        <time>2015-06-11T12:39:26Z</time>
      </trkpt>
      <trkpt lat="45.42851" lon="5.92397">
        <ele>1631.573341521</ele>
        <time>2015-06-11T12:39:30Z</time>
      </trkpt>
      <trkpt lat="45.42852" lon="5.92399">
        <ele>1631.573341521</ele>
        <time>2015-06-11T12:39:35Z</time>
      </trkpt>
      <trkpt lat="45.42852" lon="5.92399">
        <ele>1631.573341521</ele>
        <time>2015-06-11T12:39:41Z</time>
      </trkpt>
      <trkpt lat="45.42852" lon="5.92398">
        <ele>1630.629779018</ele>
        <time>2015-06-11T12:39:46Z</time>
      </trkpt>
      <trkpt lat="45.42851" lon="5.92397">
        <ele>1630.629779018</ele>
        <time>2015-06-11T12:39:51Z</time>
      </trkpt>
      <trkpt lat="45.42851" lon="5.92396">
        <ele>1630.629779018</ele>
        <time>2015-06-11T12:39:56Z</time>
      </trkpt>
      <trkpt lat="45.42851" lon="5.92395">
        <ele>1630.629779018</ele>
        <time>2015-06-11T12:40:01Z</time>
      </trkpt>
      <trkpt lat="45.42851" lon="5.92395">
        <ele>1630.629779018</ele>
        <time>2015-06-11T12:40:06Z</time>
      </trkpt>
      <trkpt lat="45.42851" lon="5.92395">
        <ele>1630.629779018</ele>
        <time>2015-06-11T12:40:11Z</time>
      </trkpt>
      <trkpt lat="45.42851" lon="5.92395">
        <ele>1630.629779018</ele>
        <time>2015-06-11T12:40:16Z</time>
      </trkpt>
      <trkpt lat="45.42851" lon="5.92395">
        <ele>1630.629779018</ele>
        <time>2015-06-11T12:40:20Z</time>
      </trkpt>
      <trkpt lat="45.42851" lon="5.92395">
        <ele>1630.629779018</ele>
        <time>2015-06-11T12:41:36Z</time>
      </trkpt>
      <trkpt lat="45.42851" lon="5.92395">
        <ele>1630.629779018</ele>
        <time>2015-06-11T12:41:41Z</time>
      </trkpt>
      <trkpt lat="45.42851" lon="5.92395">
        <ele>1630.629779018</ele>
        <time>2015-06-11T12:41:45Z</time>
      </trkpt>
      <trkpt lat="45.42853" lon="5.92391">
        <ele>1630.629779018</ele>
        <time>2015-06-11T12:41:50Z</time>
      </trkpt>
      <trkpt lat="45.42853" lon="5.92392">
        <ele>1630.629779018</ele>
        <time>2015-06-11T12:41:56Z</time>
      </trkpt>
      <trkpt lat="45.42856" lon="5.92396">
        <ele>1629.425936922</ele>
        <time>2015-06-11T12:42:01Z</time>
      </trkpt>
      <trkpt lat="45.42861" lon="5.92393">
        <ele>1629.425936922</ele>
        <time>2015-06-11T12:42:06Z</time>
      </trkpt>
      <trkpt lat="45.42863" lon="5.9239">
        <ele>1629.425936922</ele>
        <time>2015-06-11T12:42:11Z</time>
      </trkpt>
      <trkpt lat="45.42868" lon="5.92386">
        <ele>1628.410862754</ele>
        <time>2015-06-11T12:42:16Z</time>
      </trkpt>
      <trkpt lat="45.42873" lon="5.92381">
        <ele>1628.410862754</ele>
        <time>2015-06-11T12:42:21Z</time>
      </trkpt>
      <trkpt lat="45.42874" lon="5.92376">
        <ele>1627.85611513</ele>
        <time>2015-06-11T12:42:26Z</time>
      </trkpt>
      <trkpt lat="45.42873" lon="5.92375">
        <ele>1627.85611513</ele>
        <time>2015-06-11T12:42:31Z</time>
      </trkpt>
      <trkpt lat="45.42871" lon="5.92369">
        <ele>1627.85611513</ele>
        <time>2015-06-11T12:42:35Z</time>
      </trkpt>
      <trkpt lat="45.42869" lon="5.92362">
        <ele>1627.291594526</ele>
        <time>2015-06-11T12:42:41Z</time>
      </trkpt>
      <trkpt lat="45.4287" lon="5.9236">
        <ele>1627.291594526</ele>
        <time>2015-06-11T12:42:46Z</time>
      </trkpt>
      <trkpt lat="45.42869" lon="5.92355">
        <ele>1627.291594526</ele>
        <time>2015-06-11T12:42:51Z</time>
      </trkpt>
      <trkpt lat="45.42866" lon="5.9235">
        <ele>1627.290678464</ele>
        <time>2015-06-11T12:42:56Z</time>
      </trkpt>
      <trkpt lat="45.42865" lon="5.92347">
        <ele>1627.290678464</ele>
        <time>2015-06-11T12:43:01Z</time>
      </trkpt>
      <trkpt lat="45.42864" lon="5.92347">
        <ele>1627.290678464</ele>
        <time>2015-06-11T12:43:06Z</time>
      </trkpt>
      <trkpt lat="45.42861" lon="5.92342">
        <ele>1627.290678464</ele>
        <time>2015-06-11T12:43:11Z</time>
      </trkpt>
      <trkpt lat="45.42861" lon="5.92341">
        <ele>1627.290678464</ele>
        <time>2015-06-11T12:43:16Z</time>
      </trkpt>
      <trkpt lat="45.4286" lon="5.92341">
        <ele>1627.290678464</ele>
        <time>2015-06-11T12:43:20Z</time>
      </trkpt>
      <trkpt lat="45.42859" lon="5.9234">
        <ele>1626.365625713</ele>
        <time>2015-06-11T12:43:25Z</time>
      </trkpt>
      <trkpt lat="45.4286" lon="5.92339">
        <ele>1626.365625713</ele>
        <time>2015-06-11T12:43:31Z</time>
      </trkpt>
      <trkpt lat="45.42858" lon="5.92334">
        <ele>1626.365625713</ele>
        <time>2015-06-11T12:43:36Z</time>
      </trkpt>
      <trkpt lat="45.42858" lon="5.92333">
        <ele>1626.365625713</ele>
        <time>2015-06-11T12:43:41Z</time>
      </trkpt>
      <trkpt lat="45.42857" lon="5.9233">
        <ele>1626.365625713</ele>
        <time>2015-06-11T12:43:45Z</time>
      </trkpt>
      <trkpt lat="45.42856" lon="5.92327">
        <ele>1626.743496783</ele>
        <time>2015-06-11T12:43:50Z</time>
      </trkpt>
      <trkpt lat="45.42855" lon="5.92328">
        <ele>1626.743496783</ele>
        <time>2015-06-11T12:43:55Z</time>
      </trkpt>
      <trkpt lat="45.42855" lon="5.92327">
        <ele>1626.743496783</ele>
        <time>2015-06-11T12:44:00Z</time>
      </trkpt>
      <trkpt lat="45.42854" lon="5.92327">
        <ele>1626.743496783</ele>
        <time>2015-06-11T12:44:05Z</time>
      </trkpt>
      <trkpt lat="45.42851" lon="5.92328">
        <ele>1626.743496783</ele>
        <time>2015-06-11T12:44:11Z</time>
      </trkpt>
      <trkpt lat="45.42852" lon="5.92328">
        <ele>1626.743496783</ele>
        <time>2015-06-11T12:44:16Z</time>
      </trkpt>
      <trkpt lat="45.42853" lon="5.92324">
        <ele>1626.743496783</ele>
        <time>2015-06-11T12:44:21Z</time>
      </trkpt>
      <trkpt lat="45.42853" lon="5.92325">
        <ele>1626.449129207</ele>
        <time>2015-06-11T12:44:26Z</time>
      </trkpt>
      <trkpt lat="45.42851" lon="5.92319">
        <ele>1626.449129207</ele>
        <time>2015-06-11T12:44:31Z</time>
      </trkpt>
      <trkpt lat="45.42849" lon="5.92311">
        <ele>1626.824932938</ele>
        <time>2015-06-11T12:44:35Z</time>
      </trkpt>
      <trkpt lat="45.42848" lon="5.92303">
        <ele>1626.824932938</ele>
        <time>2015-06-11T12:44:41Z</time>
      </trkpt>
      <trkpt lat="45.42848" lon="5.92292">
        <ele>1627.239530132</ele>
        <time>2015-06-11T12:44:46Z</time>
      </trkpt>
      <trkpt lat="45.42847" lon="5.9229">
        <ele>1627.239530132</ele>
        <time>2015-06-11T12:44:51Z</time>
      </trkpt>
      <trkpt lat="45.42848" lon="5.92285">
        <ele>1627.239530132</ele>
        <time>2015-06-11T12:44:56Z</time>
      </trkpt>
      <trkpt lat="45.42854" lon="5.92284">
        <ele>1627.54030274</ele>
        <time>2015-06-11T12:45:01Z</time>
      </trkpt>
      <trkpt lat="45.42855" lon="5.92284">
        <ele>1627.54030274</ele>
        <time>2015-06-11T12:45:06Z</time>
      </trkpt>
      <trkpt lat="45.42858" lon="5.9228">
        <ele>1627.54030274</ele>
        <time>2015-06-11T12:45:11Z</time>
      </trkpt>
      <trkpt lat="45.42864" lon="5.92273">
        <ele>1627.586321235</ele>
        <time>2015-06-11T12:45:16Z</time>
      </trkpt>
      <trkpt lat="45.42869" lon="5.92269">
        <ele>1627.586321235</ele>
        <time>2015-06-11T12:45:21Z</time>
      </trkpt>
      <trkpt lat="45.42872" lon="5.92265">
        <ele>1627.391995251</ele>
        <time>2015-06-11T12:45:26Z</time>
      </trkpt>
      <trkpt lat="45.4287" lon="5.9226">
        <ele>1627.391995251</ele>
        <time>2015-06-11T12:45:30Z</time>
      </trkpt>
      <trkpt lat="45.42871" lon="5.92258">
        <ele>1627.391995251</ele>
        <time>2015-06-11T12:45:35Z</time>
      </trkpt>
      <trkpt lat="45.42867" lon="5.92264">
        <ele>1626.683288675</ele>
        <time>2015-06-11T12:45:40Z</time>
      </trkpt>
      <trkpt lat="45.42868" lon="5.92265">
        <ele>1626.683288675</ele>
        <time>2015-06-11T12:45:45Z</time>
      </trkpt>
      <trkpt lat="45.42869" lon="5.92262">
        <ele>1626.683288675</ele>
        <time>2015-06-11T12:45:51Z</time>
      </trkpt>
      <trkpt lat="45.42871" lon="5.92258">
        <ele>1626.683288675</ele>
        <time>2015-06-11T12:45:56Z</time>
      </trkpt>
      <trkpt lat="45.42866" lon="5.92249">
        <ele>1626.072564766</ele>
        <time>2015-06-11T12:46:01Z</time>
      </trkpt>
      <trkpt lat="45.42861" lon="5.92244">
        <ele>1626.072564766</ele>
        <time>2015-06-11T12:46:06Z</time>
      </trkpt>
      <trkpt lat="45.42859" lon="5.92239">
        <ele>1625.838861123</ele>
        <time>2015-06-11T12:46:11Z</time>
      </trkpt>
      <trkpt lat="45.42863" lon="5.92232">
        <ele>1625.838861123</ele>
        <time>2015-06-11T12:46:16Z</time>
      </trkpt>
      <trkpt lat="45.42865" lon="5.92235">
        <ele>1625.838861123</ele>
        <time>2015-06-11T12:46:21Z</time>
      </trkpt>
      <trkpt lat="45.42869" lon="5.92231">
        <ele>1624.222252096</ele>
        <time>2015-06-11T12:46:26Z</time>
      </trkpt>
      <trkpt lat="45.42872" lon="5.92226">
        <ele>1624.222252096</ele>
        <time>2015-06-11T12:46:31Z</time>
      </trkpt>
      <trkpt lat="45.42877" lon="5.92224">
        <ele>1621.757781084</ele>
        <time>2015-06-11T12:46:36Z</time>
      </trkpt>
      <trkpt lat="45.42882" lon="5.92215">
        <ele>1621.757781084</ele>
        <time>2015-06-11T12:46:41Z</time>
      </trkpt>
      <trkpt lat="45.42885" lon="5.92203">
        <ele>1619.808360404</ele>
        <time>2015-06-11T12:46:46Z</time>
      </trkpt>
      <trkpt lat="45.4289" lon="5.92195">
        <ele>1619.808360404</ele>
        <time>2015-06-11T12:46:51Z</time>
      </trkpt>
      <trkpt lat="45.42894" lon="5.92192">
        <ele>1618.194340685</ele>
        <time>2015-06-11T12:46:56Z</time>
      </trkpt>
      <trkpt lat="45.42897" lon="5.92187">
        <ele>1618.194340685</ele>
        <time>2015-06-11T12:47:01Z</time>
      </trkpt>
      <trkpt lat="45.429" lon="5.92177">
        <ele>1617.324872987</ele>
        <time>2015-06-11T12:47:06Z</time>
      </trkpt>
      <trkpt lat="45.42903" lon="5.92183">
        <ele>1617.324872987</ele>
        <time>2015-06-11T12:47:11Z</time>
      </trkpt>
      <trkpt lat="45.42906" lon="5.92174">
        <ele>1615.703605398</ele>
        <time>2015-06-11T12:47:16Z</time>
      </trkpt>
      <trkpt lat="45.42912" lon="5.92173">
        <ele>1615.703605398</ele>
        <time>2015-06-11T12:47:21Z</time>
      </trkpt>
      <trkpt lat="45.42914" lon="5.9217">
        <ele>1615.703605398</ele>
        <time>2015-06-11T12:47:26Z</time>
      </trkpt>
      <trkpt lat="45.42916" lon="5.92163">
        <ele>1613.387403256</ele>
        <time>2015-06-11T12:47:31Z</time>
      </trkpt>
      <trkpt lat="45.42918" lon="5.92162">
        <ele>1613.387403256</ele>
        <time>2015-06-11T12:47:36Z</time>
      </trkpt>
      <trkpt lat="45.42923" lon="5.92162">
        <ele>1613.387403256</ele>
        <time>2015-06-11T12:47:41Z</time>
      </trkpt>
      <trkpt lat="45.42924" lon="5.92163">
        <ele>1613.387403256</ele>
        <time>2015-06-11T12:47:46Z</time>
      </trkpt>
      <trkpt lat="45.42925" lon="5.92162">
        <ele>1610.430967076</ele>
        <time>2015-06-11T12:47:51Z</time>
      </trkpt>
      <trkpt lat="45.42924" lon="5.92158">
        <ele>1610.430967076</ele>
        <time>2015-06-11T12:47:56Z</time>
      </trkpt>
      <trkpt lat="45.42924" lon="5.92155">
        <ele>1610.430967076</ele>
        <time>2015-06-11T12:48:01Z</time>
      </trkpt>
      <trkpt lat="45.42918" lon="5.92154">
        <ele>1607.030934049</ele>
        <time>2015-06-11T12:48:06Z</time>
      </trkpt>
      <trkpt lat="45.42927" lon="5.92144">
        <ele>1604.235438172</ele>
        <time>2015-06-11T12:48:11Z</time>
      </trkpt>
      <trkpt lat="45.42931" lon="5.92145">
        <ele>1604.235438172</ele>
        <time>2015-06-11T12:48:16Z</time>
      </trkpt>
      <trkpt lat="45.42934" lon="5.92145">
        <ele>1604.235438172</ele>
        <time>2015-06-11T12:48:21Z</time>
      </trkpt>
      <trkpt lat="45.42941" lon="5.92146">
        <ele>1602.005156708</ele>
        <time>2015-06-11T12:48:26Z</time>
      </trkpt>
      <trkpt lat="45.42947" lon="5.92144">
        <ele>1602.005156708</ele>
        <time>2015-06-11T12:48:31Z</time>
      </trkpt>
      <trkpt lat="45.42952" lon="5.92146">
        <ele>1599.725621812</ele>
        <time>2015-06-11T12:48:36Z</time>
      </trkpt>
      <trkpt lat="45.42958" lon="5.92148">
        <ele>1599.725621812</ele>
        <time>2015-06-11T12:48:40Z</time>
      </trkpt>
      <trkpt lat="45.42964" lon="5.92152">
        <ele>1597.548181602</ele>
        <time>2015-06-11T12:48:46Z</time>
      </trkpt>
      <trkpt lat="45.42969" lon="5.92153">
        <ele>1597.548181602</ele>
        <time>2015-06-11T12:48:51Z</time>
      </trkpt>
      <trkpt lat="45.42976" lon="5.92152">
        <ele>1595.612753803</ele>
        <time>2015-06-11T12:48:56Z</time>
      </trkpt>
      <trkpt lat="45.4298" lon="5.92153">
        <ele>1595.612753803</ele>
        <time>2015-06-11T12:49:00Z</time>
      </trkpt>
      <trkpt lat="45.42986" lon="5.9216">
        <ele>1593.904154582</ele>
        <time>2015-06-11T12:49:05Z</time>
      </trkpt>
      <trkpt lat="45.42993" lon="5.92158">
        <ele>1593.904154582</ele>
        <time>2015-06-11T12:49:10Z</time>
      </trkpt>
      <trkpt lat="45.42996" lon="5.92157">
        <ele>1592.407640775</ele>
        <time>2015-06-11T12:49:16Z</time>
      </trkpt>
      <trkpt lat="45.43007" lon="5.92159">
        <ele>1591.253027326</ele>
        <time>2015-06-11T12:49:21Z</time>
      </trkpt>
      <trkpt lat="45.43012" lon="5.9216">
        <ele>1591.253027326</ele>
        <time>2015-06-11T12:49:26Z</time>
      </trkpt>
      <trkpt lat="45.43014" lon="5.92158">
        <ele>1591.253027326</ele>
        <time>2015-06-11T12:49:31Z</time>
      </trkpt>
      <trkpt lat="45.43019" lon="5.9216">
        <ele>1590.415481462</ele>
        <time>2015-06-11T12:49:36Z</time>
      </trkpt>
      <trkpt lat="45.43025" lon="5.92157">
        <ele>1590.415481462</ele>
        <time>2015-06-11T12:49:41Z</time>
      </trkpt>
      <trkpt lat="45.43044" lon="5.92155">
        <ele>1589.294620533</ele>
        <time>2015-06-11T12:49:46Z</time>
      </trkpt>
      <trkpt lat="45.43048" lon="5.92165">
        <ele>1589.294620533</ele>
        <time>2015-06-11T12:49:51Z</time>
      </trkpt>
      <trkpt lat="45.43049" lon="5.92166">
        <ele>1588.199590128</ele>
        <time>2015-06-11T12:49:56Z</time>
      </trkpt>
      <trkpt lat="45.43052" lon="5.92169">
        <ele>1588.199590128</ele>
        <time>2015-06-11T12:50:01Z</time>
      </trkpt>
      <trkpt lat="45.43054" lon="5.92169">
        <ele>1588.199590128</ele>
        <time>2015-06-11T12:50:06Z</time>
      </trkpt>
      <trkpt lat="45.43059" lon="5.92166">
        <ele>1586.984385822</ele>
        <time>2015-06-11T12:50:11Z</time>
      </trkpt>
      <trkpt lat="45.43062" lon="5.92174">
        <ele>1586.984385822</ele>
        <time>2015-06-11T12:50:16Z</time>
      </trkpt>
      <trkpt lat="45.43067" lon="5.92176">
        <ele>1585.802256238</ele>
        <time>2015-06-11T12:50:21Z</time>
      </trkpt>
      <trkpt lat="45.43071" lon="5.92175">
        <ele>1585.802256238</ele>
        <time>2015-06-11T12:50:26Z</time>
      </trkpt>
      <trkpt lat="45.43071" lon="5.92175">
        <ele>1585.802256238</ele>
        <time>2015-06-11T12:50:31Z</time>
      </trkpt>
      <trkpt lat="45.43072" lon="5.92174">
        <ele>1585.802256238</ele>
        <time>2015-06-11T12:50:36Z</time>
      </trkpt>
      <trkpt lat="45.43073" lon="5.92175">
        <ele>1585.802256238</ele>
        <time>2015-06-11T12:50:41Z</time>
      </trkpt>
      <trkpt lat="45.43073" lon="5.92175">
        <ele>1585.802256238</ele>
        <time>2015-06-11T12:50:46Z</time>
      </trkpt>
      <trkpt lat="45.43073" lon="5.92175">
        <ele>1585.802256238</ele>
        <time>2015-06-11T12:50:50Z</time>
      </trkpt>
      <trkpt lat="45.43073" lon="5.92175">
        <ele>1585.802256238</ele>
        <time>2015-06-11T12:50:55Z</time>
      </trkpt>
      <trkpt lat="45.4309" lon="5.92181">
        <ele>1584.362735871</ele>
        <time>2015-06-11T12:51:01Z</time>
      </trkpt>
      <trkpt lat="45.43096" lon="5.92183">
        <ele>1584.362735871</ele>
        <time>2015-06-11T12:51:06Z</time>
      </trkpt>
      <trkpt lat="45.43107" lon="5.92177">
        <ele>1583.117945577</ele>
        <time>2015-06-11T12:51:11Z</time>
      </trkpt>
      <trkpt lat="45.43114" lon="5.92177">
        <ele>1583.117945577</ele>
        <time>2015-06-11T12:51:16Z</time>
      </trkpt>
      <trkpt lat="45.43123" lon="5.92182">
        <ele>1582.197997652</ele>
        <time>2015-06-11T12:51:21Z</time>
      </trkpt>
      <trkpt lat="45.43126" lon="5.92192">
        <ele>1582.197997652</ele>
        <time>2015-06-11T12:51:25Z</time>
      </trkpt>
      <trkpt lat="45.43127" lon="5.92195">
        <ele>1581.001953266</ele>
        <time>2015-06-11T12:51:31Z</time>
      </trkpt>
      <trkpt lat="45.43129" lon="5.92195">
        <ele>1581.001953266</ele>
        <time>2015-06-11T12:51:36Z</time>
      </trkpt>
      <trkpt lat="45.43138" lon="5.92202">
        <ele>1580.126658281</ele>
        <time>2015-06-11T12:51:41Z</time>
      </trkpt>
      <trkpt lat="45.43148" lon="5.92201">
        <ele>1579.259526964</ele>
        <time>2015-06-11T12:51:46Z</time>
      </trkpt>
      <trkpt lat="45.43148" lon="5.92195">
        <ele>1579.259526964</ele>
        <time>2015-06-11T12:51:50Z</time>
      </trkpt>
      <trkpt lat="45.43153" lon="5.9221">
        <ele>1577.96678363</ele>
        <time>2015-06-11T12:51:56Z</time>
      </trkpt>
      <trkpt lat="45.43155" lon="5.92205">
        <ele>1577.96678363</ele>
        <time>2015-06-11T12:52:01Z</time>
      </trkpt>
      <trkpt lat="45.43156" lon="5.92197">
        <ele>1577.86525379</ele>
        <time>2015-06-11T12:52:05Z</time>
      </trkpt>
      <trkpt lat="45.43167" lon="5.92198">
        <ele>1576.990971974</ele>
        <time>2015-06-11T12:52:11Z</time>
      </trkpt>
      <trkpt lat="45.4317" lon="5.92194">
        <ele>1576.990971974</ele>
        <time>2015-06-11T12:52:16Z</time>
      </trkpt>
      <trkpt lat="45.43172" lon="5.92199">
        <ele>1576.990971974</ele>
        <time>2015-06-11T12:52:21Z</time>
      </trkpt>
      <trkpt lat="45.43181" lon="5.92192">
        <ele>1576.120407149</ele>
        <time>2015-06-11T12:52:26Z</time>
      </trkpt>
      <trkpt lat="45.43188" lon="5.92201">
        <ele>1575.108309577</ele>
        <time>2015-06-11T12:52:31Z</time>
      </trkpt>
      <trkpt lat="45.43195" lon="5.92196">
        <ele>1575.108309577</ele>
        <time>2015-06-11T12:52:36Z</time>
      </trkpt>
      <trkpt lat="45.43201" lon="5.92193">
        <ele>1574.39694278</ele>
        <time>2015-06-11T12:52:41Z</time>
      </trkpt>
      <trkpt lat="45.43206" lon="5.92187">
        <ele>1574.39694278</ele>
        <time>2015-06-11T12:52:46Z</time>
      </trkpt>
      <trkpt lat="45.43208" lon="5.92179">
        <ele>1574.107020906</ele>
        <time>2015-06-11T12:52:51Z</time>
      </trkpt>
      <trkpt lat="45.43214" lon="5.92174">
        <ele>1574.107020906</ele>
        <time>2015-06-11T12:52:56Z</time>
      </trkpt>
      <trkpt lat="45.43219" lon="5.92173">
        <ele>1573.340438306</ele>
        <time>2015-06-11T12:53:01Z</time>
      </trkpt>
      <trkpt lat="45.43225" lon="5.92171">
        <ele>1573.340438306</ele>
        <time>2015-06-11T12:53:06Z</time>
      </trkpt>
      <trkpt lat="45.43228" lon="5.92163">
        <ele>1571.986967453</ele>
        <time>2015-06-11T12:53:11Z</time>
      </trkpt>
      <trkpt lat="45.43232" lon="5.92162">
        <ele>1571.986967453</ele>
        <time>2015-06-11T12:53:16Z</time>
      </trkpt>
      <trkpt lat="45.43233" lon="5.92156">
        <ele>1571.986967453</ele>
        <time>2015-06-11T12:53:21Z</time>
      </trkpt>
      <trkpt lat="45.43236" lon="5.92152">
        <ele>1570.666692975</ele>
        <time>2015-06-11T12:53:26Z</time>
      </trkpt>
      <trkpt lat="45.4324" lon="5.92147">
        <ele>1570.666692975</ele>
        <time>2015-06-11T12:53:31Z</time>
      </trkpt>
      <trkpt lat="45.43243" lon="5.92142">
        <ele>1569.233512126</ele>
        <time>2015-06-11T12:53:36Z</time>
      </trkpt>
      <trkpt lat="45.43247" lon="5.92138">
        <ele>1569.233512126</ele>
        <time>2015-06-11T12:53:41Z</time>
      </trkpt>
      <trkpt lat="45.43249" lon="5.92131">
        <ele>1568.272938829</ele>
        <time>2015-06-11T12:53:46Z</time>
      </trkpt>
      <trkpt lat="45.43256" lon="5.92126">
        <ele>1568.272938829</ele>
        <time>2015-06-11T12:53:51Z</time>
      </trkpt>
      <trkpt lat="45.43262" lon="5.92129">
        <ele>1567.317381584</ele>
        <time>2015-06-11T12:53:56Z</time>
      </trkpt>
      <trkpt lat="45.43269" lon="5.92127">
        <ele>1567.317381584</ele>
        <time>2015-06-11T12:54:01Z</time>
      </trkpt>
      <trkpt lat="45.43275" lon="5.92126">
        <ele>1566.798261084</ele>
        <time>2015-06-11T12:54:06Z</time>
      </trkpt>
      <trkpt lat="45.43279" lon="5.92125">
        <ele>1566.798261084</ele>
        <time>2015-06-11T12:54:10Z</time>
      </trkpt>
      <trkpt lat="45.43284" lon="5.92133">
        <ele>1566.537649381</ele>
        <time>2015-06-11T12:54:16Z</time>
      </trkpt>
      <trkpt lat="45.43284" lon="5.92132">
        <ele>1566.537649381</ele>
        <time>2015-06-11T12:54:21Z</time>
      </trkpt>
      <trkpt lat="45.43295" lon="5.92139">
        <ele>1566.658202784</ele>
        <time>2015-06-11T12:54:26Z</time>
      </trkpt>
      <trkpt lat="45.43296" lon="5.92138">
        <ele>1566.658202784</ele>
        <time>2015-06-11T12:54:30Z</time>
      </trkpt>
      <trkpt lat="45.433" lon="5.92146">
        <ele>1566.658202784</ele>
        <time>2015-06-11T12:54:36Z</time>
      </trkpt>
      <trkpt lat="45.43304" lon="5.92156">
        <ele>1566.840187211</ele>
        <time>2015-06-11T12:54:41Z</time>
      </trkpt>
      <trkpt lat="45.43311" lon="5.92159">
        <ele>1566.840187211</ele>
        <time>2015-06-11T12:54:46Z</time>
      </trkpt>
      <trkpt lat="45.43314" lon="5.9217">
        <ele>1567.07543626</ele>
        <time>2015-06-11T12:54:51Z</time>
      </trkpt>
      <trkpt lat="45.43318" lon="5.92178">
        <ele>1567.07543626</ele>
        <time>2015-06-11T12:54:56Z</time>
      </trkpt>
      <trkpt lat="45.43323" lon="5.92183">
        <ele>1567.212161065</ele>
        <time>2015-06-11T12:55:01Z</time>
      </trkpt>
      <trkpt lat="45.43331" lon="5.92184">
        <ele>1567.212161065</ele>
        <time>2015-06-11T12:55:05Z</time>
      </trkpt>
      <trkpt lat="45.43329" lon="5.92199">
        <ele>1567.68649086</ele>
        <time>2015-06-11T12:55:11Z</time>
      </trkpt>
      <trkpt lat="45.43334" lon="5.92205">
        <ele>1567.68649086</ele>
        <time>2015-06-11T12:55:16Z</time>
      </trkpt>
      <trkpt lat="45.43337" lon="5.92207">
        <ele>1568.03695766</ele>
        <time>2015-06-11T12:55:21Z</time>
      </trkpt>
      <trkpt lat="45.43338" lon="5.9221">
        <ele>1568.03695766</ele>
        <time>2015-06-11T12:55:26Z</time>
      </trkpt>
      <trkpt lat="45.43343" lon="5.92211">
        <ele>1568.03695766</ele>
        <time>2015-06-11T12:55:31Z</time>
      </trkpt>
      <trkpt lat="45.43353" lon="5.92207">
        <ele>1568.556958479</ele>
        <time>2015-06-11T12:55:36Z</time>
      </trkpt>
      <trkpt lat="45.43359" lon="5.92209">
        <ele>1568.556958479</ele>
        <time>2015-06-11T12:55:41Z</time>
      </trkpt>
      <trkpt lat="45.43363" lon="5.92215">
        <ele>1569.229710004</ele>
        <time>2015-06-11T12:55:46Z</time>
      </trkpt>
      <trkpt lat="45.4337" lon="5.92221">
        <ele>1569.229710004</ele>
        <time>2015-06-11T12:55:51Z</time>
      </trkpt>
      <trkpt lat="45.43371" lon="5.92227">
        <ele>1569.75108889</ele>
        <time>2015-06-11T12:55:56Z</time>
      </trkpt>
      <trkpt lat="45.43374" lon="5.92229">
        <ele>1569.75108889</ele>
        <time>2015-06-11T12:56:01Z</time>
      </trkpt>
      <trkpt lat="45.43374" lon="5.92233">
        <ele>1569.75108889</ele>
        <time>2015-06-11T12:56:06Z</time>
      </trkpt>
      <trkpt lat="45.43379" lon="5.92242">
        <ele>1569.407487089</ele>
        <time>2015-06-11T12:56:11Z</time>
      </trkpt>
      <trkpt lat="45.43382" lon="5.92247">
        <ele>1569.407487089</ele>
        <time>2015-06-11T12:56:16Z</time>
      </trkpt>
      <trkpt lat="45.43386" lon="5.92257">
        <ele>1568.837231735</ele>
        <time>2015-06-11T12:56:20Z</time>
      </trkpt>
      <trkpt lat="45.43395" lon="5.92256">
        <ele>1568.837231735</ele>
        <time>2015-06-11T12:56:26Z</time>
      </trkpt>
      <trkpt lat="45.43399" lon="5.92263">
        <ele>1568.200148767</ele>
        <time>2015-06-11T12:56:31Z</time>
      </trkpt>
      <trkpt lat="45.43403" lon="5.92258">
        <ele>1568.200148767</ele>
        <time>2015-06-11T12:56:36Z</time>
      </trkpt>
      <trkpt lat="45.43403" lon="5.92259">
        <ele>1568.200148767</ele>
        <time>2015-06-11T12:56:41Z</time>
      </trkpt>
      <trkpt lat="45.43404" lon="5.92261">
        <ele>1568.200148767</ele>
        <time>2015-06-11T12:56:46Z</time>
      </trkpt>
      <trkpt lat="45.43407" lon="5.92263">
        <ele>1568.076930762</ele>
        <time>2015-06-11T12:56:51Z</time>
      </trkpt>
      <trkpt lat="45.43409" lon="5.92277">
        <ele>1567.563142986</ele>
        <time>2015-06-11T12:56:56Z</time>
      </trkpt>
      <trkpt lat="45.43418" lon="5.92289">
        <ele>1567.839523479</ele>
        <time>2015-06-11T12:57:01Z</time>
      </trkpt>
      <trkpt lat="45.43422" lon="5.9229">
        <ele>1567.839523479</ele>
        <time>2015-06-11T12:57:06Z</time>
      </trkpt>
      <trkpt lat="45.43421" lon="5.923">
        <ele>1566.971601731</ele>
        <time>2015-06-11T12:57:11Z</time>
      </trkpt>
      <trkpt lat="45.43421" lon="5.92307">
        <ele>1566.971601731</ele>
        <time>2015-06-11T12:57:16Z</time>
      </trkpt>
      <trkpt lat="45.43426" lon="5.92317">
        <ele>1565.90841051</ele>
        <time>2015-06-11T12:57:21Z</time>
      </trkpt>
      <trkpt lat="45.43432" lon="5.9232">
        <ele>1565.90841051</ele>
        <time>2015-06-11T12:57:26Z</time>
      </trkpt>
      <trkpt lat="45.43435" lon="5.92326">
        <ele>1564.953441891</ele>
        <time>2015-06-11T12:57:31Z</time>
      </trkpt>
      <trkpt lat="45.43438" lon="5.92339">
        <ele>1563.955322284</ele>
        <time>2015-06-11T12:57:36Z</time>
      </trkpt>
      <trkpt lat="45.43447" lon="5.92345">
        <ele>1563.062199939</ele>
        <time>2015-06-11T12:57:41Z</time>
      </trkpt>
      <trkpt lat="45.43445" lon="5.92351">
        <ele>1563.062199939</ele>
        <time>2015-06-11T12:57:46Z</time>
      </trkpt>
      <trkpt lat="45.43451" lon="5.92359">
        <ele>1561.402318038</ele>
        <time>2015-06-11T12:57:51Z</time>
      </trkpt>
      <trkpt lat="45.43454" lon="5.92367">
        <ele>1561.402318038</ele>
        <time>2015-06-11T12:57:56Z</time>
      </trkpt>
      <trkpt lat="45.43454" lon="5.92374">
        <ele>1559.899485898</ele>
        <time>2015-06-11T12:58:01Z</time>
      </trkpt>
      <trkpt lat="45.43459" lon="5.92376">
        <ele>1559.899485898</ele>
        <time>2015-06-11T12:58:05Z</time>
      </trkpt>
      <trkpt lat="45.4346" lon="5.92382">
        <ele>1557.968130931</ele>
        <time>2015-06-11T12:58:11Z</time>
      </trkpt>
      <trkpt lat="45.43466" lon="5.92384">
        <ele>1557.968130931</ele>
        <time>2015-06-11T12:58:16Z</time>
      </trkpt>
      <trkpt lat="45.43469" lon="5.9239">
        <ele>1555.78747612</ele>
        <time>2015-06-11T12:58:21Z</time>
      </trkpt>
      <trkpt lat="45.43472" lon="5.92392">
        <ele>1555.78747612</ele>
        <time>2015-06-11T12:58:26Z</time>
      </trkpt>
      <trkpt lat="45.43483" lon="5.92391">
        <ele>1554.100733302</ele>
        <time>2015-06-11T12:58:31Z</time>
      </trkpt>
      <trkpt lat="45.43492" lon="5.92395">
        <ele>1552.730465841</ele>
        <time>2015-06-11T12:58:36Z</time>
      </trkpt>
      <trkpt lat="45.43496" lon="5.92403">
        <ele>1552.730465841</ele>
        <time>2015-06-11T12:58:41Z</time>
      </trkpt>
      <trkpt lat="45.43498" lon="5.92409">
        <ele>1551.079040404</ele>
        <time>2015-06-11T12:58:46Z</time>
      </trkpt>
      <trkpt lat="45.43498" lon="5.92421">
        <ele>1551.079040404</ele>
        <time>2015-06-11T12:58:51Z</time>
      </trkpt>
      <trkpt lat="45.43506" lon="5.92428">
        <ele>1550.611054706</ele>
        <time>2015-06-11T12:58:56Z</time>
      </trkpt>
      <trkpt lat="45.43511" lon="5.92435">
        <ele>1550.611054706</ele>
        <time>2015-06-11T12:59:01Z</time>
      </trkpt>
      <trkpt lat="45.43511" lon="5.92441">
        <ele>1549.797955129</ele>
        <time>2015-06-11T12:59:06Z</time>
      </trkpt>
      <trkpt lat="45.43514" lon="5.92445">
        <ele>1549.797955129</ele>
        <time>2015-06-11T12:59:11Z</time>
      </trkpt>
      <trkpt lat="45.43525" lon="5.92443">
        <ele>1548.66553273</ele>
        <time>2015-06-11T12:59:16Z</time>
      </trkpt>
      <trkpt lat="45.43528" lon="5.92451">
        <ele>1548.66553273</ele>
        <time>2015-06-11T12:59:21Z</time>
      </trkpt>
      <trkpt lat="45.43529" lon="5.92456">
        <ele>1547.526779195</ele>
        <time>2015-06-11T12:59:26Z</time>
      </trkpt>
      <trkpt lat="45.43533" lon="5.92461">
        <ele>1547.526779195</ele>
        <time>2015-06-11T12:59:31Z</time>
      </trkpt>
      <trkpt lat="45.43535" lon="5.92466">
        <ele>1546.671688674</ele>
        <time>2015-06-11T12:59:36Z</time>
      </trkpt>
      <trkpt lat="45.4354" lon="5.92471">
        <ele>1546.671688674</ele>
        <time>2015-06-11T12:59:41Z</time>
      </trkpt>
      <trkpt lat="45.4354" lon="5.92471">
        <ele>1546.671688674</ele>
        <time>2015-06-11T12:59:46Z</time>
      </trkpt>
      <trkpt lat="45.43544" lon="5.92479">
        <ele>1545.791688072</ele>
        <time>2015-06-11T12:59:51Z</time>
      </trkpt>
      <trkpt lat="45.43548" lon="5.9249">
        <ele>1545.791688072</ele>
        <time>2015-06-11T12:59:56Z</time>
      </trkpt>
      <trkpt lat="45.43551" lon="5.92496">
        <ele>1545.17736222</ele>
        <time>2015-06-11T13:00:00Z</time>
      </trkpt>
      <trkpt lat="45.43556" lon="5.92503">
        <ele>1545.17736222</ele>
        <time>2015-06-11T13:00:07Z</time>
      </trkpt>
      <trkpt lat="45.4356" lon="5.92507">
        <ele>1544.80895909</ele>
        <time>2015-06-11T13:00:11Z</time>
      </trkpt>
      <trkpt lat="45.43561" lon="5.92515">
        <ele>1544.80895909</ele>
        <time>2015-06-11T13:00:16Z</time>
      </trkpt>
      <trkpt lat="45.43569" lon="5.92517">
        <ele>1544.9556903</ele>
        <time>2015-06-11T13:00:21Z</time>
      </trkpt>
      <trkpt lat="45.43572" lon="5.92523">
        <ele>1544.9556903</ele>
        <time>2015-06-11T13:00:26Z</time>
      </trkpt>
      <trkpt lat="45.43569" lon="5.92522">
        <ele>1544.9556903</ele>
        <time>2015-06-11T13:00:31Z</time>
      </trkpt>
      <trkpt lat="45.43579" lon="5.92524">
        <ele>1544.712641225</ele>
        <time>2015-06-11T13:00:36Z</time>
      </trkpt>
      <trkpt lat="45.43584" lon="5.92531">
        <ele>1544.712641225</ele>
        <time>2015-06-11T13:00:41Z</time>
      </trkpt>
      <trkpt lat="45.43586" lon="5.92536">
        <ele>1544.539455342</ele>
        <time>2015-06-11T13:00:46Z</time>
      </trkpt>
      <trkpt lat="45.43593" lon="5.9254">
        <ele>1544.539455342</ele>
        <time>2015-06-11T13:00:51Z</time>
      </trkpt>
      <trkpt lat="45.43597" lon="5.92545">
        <ele>1544.429476881</ele>
        <time>2015-06-11T13:00:56Z</time>
      </trkpt>
      <trkpt lat="45.43602" lon="5.92546">
        <ele>1544.429476881</ele>
        <time>2015-06-11T13:01:01Z</time>
      </trkpt>
      <trkpt lat="45.43601" lon="5.92546">
        <ele>1544.429476881</ele>
        <time>2015-06-11T13:01:05Z</time>
      </trkpt>
      <trkpt lat="45.43606" lon="5.92546">
        <ele>1544.664585454</ele>
        <time>2015-06-11T13:01:11Z</time>
      </trkpt>
      <trkpt lat="45.43613" lon="5.92551">
        <ele>1544.664585454</ele>
        <time>2015-06-11T13:01:15Z</time>
      </trkpt>
      <trkpt lat="45.43617" lon="5.92559">
        <ele>1545.072659918</ele>
        <time>2015-06-11T13:01:21Z</time>
      </trkpt>
      <trkpt lat="45.43621" lon="5.92566">
        <ele>1545.072659918</ele>
        <time>2015-06-11T13:01:26Z</time>
      </trkpt>
      <trkpt lat="45.43623" lon="5.92573">
        <ele>1545.205529306</ele>
        <time>2015-06-11T13:01:31Z</time>
      </trkpt>
      <trkpt lat="45.43631" lon="5.92577">
        <ele>1545.205529306</ele>
        <time>2015-06-11T13:01:36Z</time>
      </trkpt>
      <trkpt lat="45.43638" lon="5.92581">
        <ele>1545.513404703</ele>
        <time>2015-06-11T13:01:41Z</time>
      </trkpt>
      <trkpt lat="45.43644" lon="5.92584">
        <ele>1545.513404703</ele>
        <time>2015-06-11T13:01:46Z</time>
      </trkpt>
      <trkpt lat="45.4365" lon="5.92586">
        <ele>1545.404182491</ele>
        <time>2015-06-11T13:01:51Z</time>
      </trkpt>
      <trkpt lat="45.4365" lon="5.92593">
        <ele>1545.404182491</ele>
        <time>2015-06-11T13:01:55Z</time>
      </trkpt>
      <trkpt lat="45.43648" lon="5.92596">
        <ele>1545.404182491</ele>
        <time>2015-06-11T13:02:00Z</time>
      </trkpt>
      <trkpt lat="45.43649" lon="5.92595">
        <ele>1545.404182491</ele>
        <time>2015-06-11T13:02:05Z</time>
      </trkpt>
      <trkpt lat="45.43648" lon="5.92596">
        <ele>1545.404182491</ele>
        <time>2015-06-11T13:02:10Z</time>
      </trkpt>
      <trkpt lat="45.43648" lon="5.92596">
        <ele>1545.404182491</ele>
        <time>2015-06-11T13:02:15Z</time>
      </trkpt>
      <trkpt lat="45.43648" lon="5.92596">
        <ele>1545.404182491</ele>
        <time>2015-06-11T13:02:20Z</time>
      </trkpt>
      <trkpt lat="45.43648" lon="5.92596">
        <ele>1545.404182491</ele>
        <time>2015-06-11T13:02:25Z</time>
      </trkpt>
      <trkpt lat="45.43648" lon="5.92596">
        <ele>1545.404182491</ele>
        <time>2015-06-11T13:02:30Z</time>
      </trkpt>
      <trkpt lat="45.43648" lon="5.92596">
        <ele>1545.404182491</ele>
        <time>2015-06-11T13:02:36Z</time>
      </trkpt>
      <trkpt lat="45.43648" lon="5.92596">
        <ele>1545.404182491</ele>
        <time>2015-06-11T13:02:41Z</time>
      </trkpt>
      <trkpt lat="45.43656" lon="5.92591">
        <ele>1545.051011729</ele>
        <time>2015-06-11T13:02:46Z</time>
      </trkpt>
      <trkpt lat="45.43667" lon="5.92591">
        <ele>1545.191485977</ele>
        <time>2015-06-11T13:02:51Z</time>
      </trkpt>
      <trkpt lat="45.43673" lon="5.92587">
        <ele>1545.191485977</ele>
        <time>2015-06-11T13:02:56Z</time>
      </trkpt>
      <trkpt lat="45.43681" lon="5.92584">
        <ele>1545.498890738</ele>
        <time>2015-06-11T13:03:01Z</time>
      </trkpt>
      <trkpt lat="45.43686" lon="5.92584">
        <ele>1545.498890738</ele>
        <time>2015-06-11T13:03:05Z</time>
      </trkpt>
      <trkpt lat="45.43696" lon="5.92578">
        <ele>1545.237750142</ele>
        <time>2015-06-11T13:03:11Z</time>
      </trkpt>
      <trkpt lat="45.43701" lon="5.92582">
        <ele>1545.237750142</ele>
        <time>2015-06-11T13:03:16Z</time>
      </trkpt>
      <trkpt lat="45.43704" lon="5.9258">
        <ele>1544.73703079</ele>
        <time>2015-06-11T13:03:21Z</time>
      </trkpt>
      <trkpt lat="45.43705" lon="5.92577">
        <ele>1544.73703079</ele>
        <time>2015-06-11T13:03:26Z</time>
      </trkpt>
      <trkpt lat="45.43709" lon="5.92578">
        <ele>1544.73703079</ele>
        <time>2015-06-11T13:03:31Z</time>
      </trkpt>
      <trkpt lat="45.43715" lon="5.92582">
        <ele>1544.158136966</ele>
        <time>2015-06-11T13:03:36Z</time>
      </trkpt>
      <trkpt lat="45.43722" lon="5.92579">
        <ele>1544.158136966</ele>
        <time>2015-06-11T13:03:41Z</time>
      </trkpt>
      <trkpt lat="45.43731" lon="5.92584">
        <ele>1543.362654359</ele>
        <time>2015-06-11T13:03:46Z</time>
      </trkpt>
      <trkpt lat="45.43736" lon="5.92581">
        <ele>1543.362654359</ele>
        <time>2015-06-11T13:03:51Z</time>
      </trkpt>
      <trkpt lat="45.43744" lon="5.9259">
        <ele>1542.367092932</ele>
        <time>2015-06-11T13:03:56Z</time>
      </trkpt>
      <trkpt lat="45.43746" lon="5.92588">
        <ele>1542.367092932</ele>
        <time>2015-06-11T13:04:01Z</time>
      </trkpt>
      <trkpt lat="45.43749" lon="5.92577">
        <ele>1542.052012504</ele>
        <time>2015-06-11T13:04:06Z</time>
      </trkpt>
      <trkpt lat="45.43753" lon="5.92572">
        <ele>1542.052012504</ele>
        <time>2015-06-11T13:04:10Z</time>
      </trkpt>
      <trkpt lat="45.43756" lon="5.92563">
        <ele>1541.64618676</ele>
        <time>2015-06-11T13:04:16Z</time>
      </trkpt>
      <trkpt lat="45.43759" lon="5.92557">
        <ele>1541.64618676</ele>
        <time>2015-06-11T13:04:21Z</time>
      </trkpt>
      <trkpt lat="45.4376" lon="5.9255">
        <ele>1540.867659098</ele>
        <time>2015-06-11T13:04:26Z</time>
      </trkpt>
      <trkpt lat="45.43767" lon="5.92554">
        <ele>1540.867659098</ele>
        <time>2015-06-11T13:04:31Z</time>
      </trkpt>
      <trkpt lat="45.43769" lon="5.92555">
        <ele>1540.465034778</ele>
        <time>2015-06-11T13:04:36Z</time>
      </trkpt>
      <trkpt lat="45.43771" lon="5.92553">
        <ele>1540.465034778</ele>
        <time>2015-06-11T13:04:41Z</time>
      </trkpt>
      <trkpt lat="45.43778" lon="5.92546">
        <ele>1540.410341534</ele>
        <time>2015-06-11T13:04:46Z</time>
      </trkpt>
      <trkpt lat="45.43783" lon="5.92545">
        <ele>1540.410341534</ele>
        <time>2015-06-11T13:04:51Z</time>
      </trkpt>
      <trkpt lat="45.43792" lon="5.9255">
        <ele>1540.100265198</ele>
        <time>2015-06-11T13:04:56Z</time>
      </trkpt>
      <trkpt lat="45.43801" lon="5.92548">
        <ele>1539.552995047</ele>
        <time>2015-06-11T13:05:01Z</time>
      </trkpt>
      <trkpt lat="45.43805" lon="5.92546">
        <ele>1539.552995047</ele>
        <time>2015-06-11T13:05:06Z</time>
      </trkpt>
      <trkpt lat="45.43811" lon="5.92543">
        <ele>1539.074294891</ele>
        <time>2015-06-11T13:05:11Z</time>
      </trkpt>
      <trkpt lat="45.43816" lon="5.92541">
        <ele>1539.074294891</ele>
        <time>2015-06-11T13:05:16Z</time>
      </trkpt>
      <trkpt lat="45.43818" lon="5.92536">
        <ele>1539.074294891</ele>
        <time>2015-06-11T13:05:21Z</time>
      </trkpt>
      <trkpt lat="45.43822" lon="5.92536">
        <ele>1538.370852119</ele>
        <time>2015-06-11T13:05:26Z</time>
      </trkpt>
      <trkpt lat="45.43824" lon="5.92537">
        <ele>1538.370852119</ele>
        <time>2015-06-11T13:05:31Z</time>
      </trkpt>
      <trkpt lat="45.43824" lon="5.92539">
        <ele>1538.370852119</ele>
        <time>2015-06-11T13:05:36Z</time>
      </trkpt>
      <trkpt lat="45.43824" lon="5.92538">
        <ele>1538.370852119</ele>
        <time>2015-06-11T13:05:40Z</time>
      </trkpt>
      <trkpt lat="45.43827" lon="5.92532">
        <ele>1537.603884274</ele>
        <time>2015-06-11T13:05:46Z</time>
      </trkpt>
      <trkpt lat="45.43833" lon="5.92522">
        <ele>1536.634738258</ele>
        <time>2015-06-11T13:05:51Z</time>
      </trkpt>
      <trkpt lat="45.43838" lon="5.92519">
        <ele>1536.634738258</ele>
        <time>2015-06-11T13:05:56Z</time>
      </trkpt>
      <trkpt lat="45.43845" lon="5.92515">
        <ele>1535.335525615</ele>
        <time>2015-06-11T13:06:01Z</time>
      </trkpt>
      <trkpt lat="45.43849" lon="5.92508">
        <ele>1535.335525615</ele>
        <time>2015-06-11T13:06:06Z</time>
      </trkpt>
      <trkpt lat="45.43854" lon="5.925">
        <ele>1534.021018689</ele>
        <time>2015-06-11T13:06:11Z</time>
      </trkpt>
      <trkpt lat="45.43855" lon="5.92499">
        <ele>1534.021018689</ele>
        <time>2015-06-11T13:06:16Z</time>
      </trkpt>
      <trkpt lat="45.43857" lon="5.9249">
        <ele>1534.021018689</ele>
        <time>2015-06-11T13:06:21Z</time>
      </trkpt>
      <trkpt lat="45.43859" lon="5.92483">
        <ele>1532.550576562</ele>
        <time>2015-06-11T13:06:26Z</time>
      </trkpt>
      <trkpt lat="45.43859" lon="5.92476">
        <ele>1532.550576562</ele>
        <time>2015-06-11T13:06:31Z</time>
      </trkpt>
      <trkpt lat="45.43861" lon="5.92465">
        <ele>1531.082542719</ele>
        <time>2015-06-11T13:06:36Z</time>
      </trkpt>
      <trkpt lat="45.43865" lon="5.92459">
        <ele>1531.082542719</ele>
        <time>2015-06-11T13:06:41Z</time>
      </trkpt>
      <trkpt lat="45.43866" lon="5.9245">
        <ele>1529.907719633</ele>
        <time>2015-06-11T13:06:46Z</time>
      </trkpt>
      <trkpt lat="45.43867" lon="5.92442">
        <ele>1529.907719633</ele>
        <time>2015-06-11T13:06:51Z</time>
      </trkpt>
      <trkpt lat="45.43869" lon="5.92433">
        <ele>1528.862371979</ele>
        <time>2015-06-11T13:06:56Z</time>
      </trkpt>
      <trkpt lat="45.43865" lon="5.92423">
        <ele>1528.862371979</ele>
        <time>2015-06-11T13:07:00Z</time>
      </trkpt>
      <trkpt lat="45.4387" lon="5.92415">
        <ele>1528.082627445</ele>
        <time>2015-06-11T13:07:06Z</time>
      </trkpt>
      <trkpt lat="45.43874" lon="5.92406">
        <ele>1528.082627445</ele>
        <time>2015-06-11T13:07:10Z</time>
      </trkpt>
      <trkpt lat="45.43877" lon="5.92395">
        <ele>1527.549731214</ele>
        <time>2015-06-11T13:07:16Z</time>
      </trkpt>
      <trkpt lat="45.43879" lon="5.9239">
        <ele>1527.549731214</ele>
        <time>2015-06-11T13:07:21Z</time>
      </trkpt>
      <trkpt lat="45.43882" lon="5.92386">
        <ele>1527.549731214</ele>
        <time>2015-06-11T13:07:26Z</time>
      </trkpt>
      <trkpt lat="45.43887" lon="5.92379">
        <ele>1525.948584384</ele>
        <time>2015-06-11T13:07:31Z</time>
      </trkpt>
      <trkpt lat="45.43894" lon="5.9237">
        <ele>1524.657661533</ele>
        <time>2015-06-11T13:07:36Z</time>
      </trkpt>
      <trkpt lat="45.43898" lon="5.92363">
        <ele>1524.657661533</ele>
        <time>2015-06-11T13:07:41Z</time>
      </trkpt>
      <trkpt lat="45.43904" lon="5.92359">
        <ele>1524.088606081</ele>
        <time>2015-06-11T13:07:46Z</time>
      </trkpt>
      <trkpt lat="45.4391" lon="5.92353">
        <ele>1524.088606081</ele>
        <time>2015-06-11T13:07:51Z</time>
      </trkpt>
      <trkpt lat="45.43913" lon="5.9236">
        <ele>1522.747317568</ele>
        <time>2015-06-11T13:07:56Z</time>
      </trkpt>
      <trkpt lat="45.43919" lon="5.92361">
        <ele>1522.747317568</ele>
        <time>2015-06-11T13:08:01Z</time>
      </trkpt>
      <trkpt lat="45.43925" lon="5.92359">
        <ele>1521.125025016</ele>
        <time>2015-06-11T13:08:06Z</time>
      </trkpt>
      <trkpt lat="45.43931" lon="5.92353">
        <ele>1521.125025016</ele>
        <time>2015-06-11T13:08:11Z</time>
      </trkpt>
      <trkpt lat="45.43939" lon="5.92343">
        <ele>1520.398177031</ele>
        <time>2015-06-11T13:08:16Z</time>
      </trkpt>
      <trkpt lat="45.43944" lon="5.92341">
        <ele>1520.398177031</ele>
        <time>2015-06-11T13:08:20Z</time>
      </trkpt>
      <trkpt lat="45.4395" lon="5.9234">
        <ele>1519.348469545</ele>
        <time>2015-06-11T13:08:26Z</time>
      </trkpt>
      <trkpt lat="45.43955" lon="5.92338">
        <ele>1519.348469545</ele>
        <time>2015-06-11T13:08:31Z</time>
      </trkpt>
      <trkpt lat="45.43959" lon="5.92335">
        <ele>1518.144957927</ele>
        <time>2015-06-11T13:08:36Z</time>
      </trkpt>
      <trkpt lat="45.43964" lon="5.9233">
        <ele>1518.144957927</ele>
        <time>2015-06-11T13:08:41Z</time>
      </trkpt>
      <trkpt lat="45.43966" lon="5.92323">
        <ele>1517.088777987</ele>
        <time>2015-06-11T13:08:46Z</time>
      </trkpt>
      <trkpt lat="45.43972" lon="5.92315">
        <ele>1517.088777987</ele>
        <time>2015-06-11T13:08:51Z</time>
      </trkpt>
      <trkpt lat="45.43974" lon="5.92308">
        <ele>1516.314376638</ele>
        <time>2015-06-11T13:08:56Z</time>
      </trkpt>
      <trkpt lat="45.43976" lon="5.92302">
        <ele>1516.314376638</ele>
        <time>2015-06-11T13:09:01Z</time>
      </trkpt>
      <trkpt lat="45.43979" lon="5.923">
        <ele>1516.314376638</ele>
        <time>2015-06-11T13:09:06Z</time>
      </trkpt>
      <trkpt lat="45.43982" lon="5.92293">
        <ele>1515.51315759</ele>
        <time>2015-06-11T13:09:11Z</time>
      </trkpt>
      <trkpt lat="45.43989" lon="5.92285">
        <ele>1514.975672428</ele>
        <time>2015-06-11T13:09:16Z</time>
      </trkpt>
      <trkpt lat="45.43994" lon="5.92281">
        <ele>1514.975672428</ele>
        <time>2015-06-11T13:09:21Z</time>
      </trkpt>
      <trkpt lat="45.43999" lon="5.92274">
        <ele>1514.682128487</ele>
        <time>2015-06-11T13:09:26Z</time>
      </trkpt>
      <trkpt lat="45.44003" lon="5.92268">
        <ele>1514.682128487</ele>
        <time>2015-06-11T13:09:30Z</time>
      </trkpt>
      <trkpt lat="45.44009" lon="5.92265">
        <ele>1514.181134647</ele>
        <time>2015-06-11T13:09:36Z</time>
      </trkpt>
      <trkpt lat="45.44016" lon="5.92259">
        <ele>1514.181134647</ele>
        <time>2015-06-11T13:09:41Z</time>
      </trkpt>
      <trkpt lat="45.4402" lon="5.92263">
        <ele>1513.199120682</ele>
        <time>2015-06-11T13:09:46Z</time>
      </trkpt>
      <trkpt lat="45.44029" lon="5.92269">
        <ele>1512.20448977</ele>
        <time>2015-06-11T13:09:51Z</time>
      </trkpt>
      <trkpt lat="45.44033" lon="5.92272">
        <ele>1512.20448977</ele>
        <time>2015-06-11T13:09:56Z</time>
      </trkpt>
      <trkpt lat="45.44036" lon="5.92277">
        <ele>1512.20448977</ele>
        <time>2015-06-11T13:10:01Z</time>
      </trkpt>
      <trkpt lat="45.44043" lon="5.92279">
        <ele>1510.91068914</ele>
        <time>2015-06-11T13:10:06Z</time>
      </trkpt>
      <trkpt lat="45.44049" lon="5.92278">
        <ele>1510.91068914</ele>
        <time>2015-06-11T13:10:10Z</time>
      </trkpt>
      <trkpt lat="45.44055" lon="5.92281">
        <ele>1509.341249829</ele>
        <time>2015-06-11T13:10:16Z</time>
      </trkpt>
      <trkpt lat="45.44059" lon="5.92279">
        <ele>1509.341249829</ele>
        <time>2015-06-11T13:10:21Z</time>
      </trkpt>
      <trkpt lat="45.44066" lon="5.92277">
        <ele>1507.230494068</ele>
        <time>2015-06-11T13:10:26Z</time>
      </trkpt>
      <trkpt lat="45.44071" lon="5.92276">
        <ele>1507.230494068</ele>
        <time>2015-06-11T13:10:31Z</time>
      </trkpt>
      <trkpt lat="45.44077" lon="5.92267">
        <ele>1505.486633092</ele>
        <time>2015-06-11T13:10:36Z</time>
      </trkpt>
      <trkpt lat="45.4408" lon="5.9227">
        <ele>1505.486633092</ele>
        <time>2015-06-11T13:10:41Z</time>
      </trkpt>
      <trkpt lat="45.44079" lon="5.9227">
        <ele>1505.486633092</ele>
        <time>2015-06-11T13:10:46Z</time>
      </trkpt>
      <trkpt lat="45.4408" lon="5.92269">
        <ele>1505.486633092</ele>
        <time>2015-06-11T13:10:51Z</time>
      </trkpt>
      <trkpt lat="45.44081" lon="5.92269">
        <ele>1505.486633092</ele>
        <time>2015-06-11T13:10:56Z</time>
      </trkpt>
      <trkpt lat="45.44081" lon="5.9227">
        <ele>1505.486633092</ele>
        <time>2015-06-11T13:11:01Z</time>
      </trkpt>
      <trkpt lat="45.44081" lon="5.9227">
        <ele>1505.486633092</ele>
        <time>2015-06-11T13:11:06Z</time>
      </trkpt>
      <trkpt lat="45.44082" lon="5.92268">
        <ele>1505.486633092</ele>
        <time>2015-06-11T13:11:11Z</time>
      </trkpt>
      <trkpt lat="45.44082" lon="5.92268">
        <ele>1505.486633092</ele>
        <time>2015-06-11T13:11:16Z</time>
      </trkpt>
      <trkpt lat="45.44083" lon="5.92269">
        <ele>1504.229536403</ele>
        <time>2015-06-11T13:11:21Z</time>
      </trkpt>
      <trkpt lat="45.44083" lon="5.92269">
        <ele>1504.229536403</ele>
        <time>2015-06-11T13:11:26Z</time>
      </trkpt>
      <trkpt lat="45.44083" lon="5.92269">
        <ele>1504.229536403</ele>
        <time>2015-06-11T13:11:31Z</time>
      </trkpt>
      <trkpt lat="45.44083" lon="5.92269">
        <ele>1504.229536403</ele>
        <time>2015-06-11T13:11:36Z</time>
      </trkpt>
      <trkpt lat="45.44083" lon="5.92269">
        <ele>1504.229536403</ele>
        <time>2015-06-11T13:11:41Z</time>
      </trkpt>
      <trkpt lat="45.44083" lon="5.92269">
        <ele>1504.229536403</ele>
        <time>2015-06-11T13:11:46Z</time>
      </trkpt>
      <trkpt lat="45.44083" lon="5.92269">
        <ele>1504.229536403</ele>
        <time>2015-06-11T13:11:51Z</time>
      </trkpt>
      <trkpt lat="45.44083" lon="5.92269">
        <ele>1504.229536403</ele>
        <time>2015-06-11T13:11:56Z</time>
      </trkpt>
      <trkpt lat="45.44083" lon="5.92269">
        <ele>1504.229536403</ele>
        <time>2015-06-11T13:12:01Z</time>
      </trkpt>
      <trkpt lat="45.44083" lon="5.92271">
        <ele>1504.229536403</ele>
        <time>2015-06-11T13:12:06Z</time>
      </trkpt>
      <trkpt lat="45.44083" lon="5.92273">
        <ele>1504.229536403</ele>
        <time>2015-06-11T13:12:11Z</time>
      </trkpt>
      <trkpt lat="45.44083" lon="5.92273">
        <ele>1504.229536403</ele>
        <time>2015-06-11T13:12:16Z</time>
      </trkpt>
      <trkpt lat="45.44083" lon="5.92273">
        <ele>1504.229536403</ele>
        <time>2015-06-11T13:12:21Z</time>
      </trkpt>
      <trkpt lat="45.44083" lon="5.92273">
        <ele>1504.229536403</ele>
        <time>2015-06-11T13:12:26Z</time>
      </trkpt>
      <trkpt lat="45.44083" lon="5.92272">
        <ele>1504.229536403</ele>
        <time>2015-06-11T13:12:31Z</time>
      </trkpt>
      <trkpt lat="45.44083" lon="5.92272">
        <ele>1504.229536403</ele>
        <time>2015-06-11T13:12:36Z</time>
      </trkpt>
      <trkpt lat="45.44083" lon="5.92272">
        <ele>1504.229536403</ele>
        <time>2015-06-11T13:12:41Z</time>
      </trkpt>
      <trkpt lat="45.44083" lon="5.92272">
        <ele>1504.229536403</ele>
        <time>2015-06-11T13:12:46Z</time>
      </trkpt>
      <trkpt lat="45.44083" lon="5.92272">
        <ele>1504.229536403</ele>
        <time>2015-06-11T13:12:51Z</time>
      </trkpt>
      <trkpt lat="45.44083" lon="5.92272">
        <ele>1504.229536403</ele>
        <time>2015-06-11T13:12:56Z</time>
      </trkpt>
      <trkpt lat="45.44083" lon="5.92272">
        <ele>1504.229536403</ele>
        <time>2015-06-11T13:13:01Z</time>
      </trkpt>
      <trkpt lat="45.44083" lon="5.92272">
        <ele>1504.229536403</ele>
        <time>2015-06-11T13:13:06Z</time>
      </trkpt>
      <trkpt lat="45.44083" lon="5.92272">
        <ele>1504.229536403</ele>
        <time>2015-06-11T13:13:10Z</time>
      </trkpt>
      <trkpt lat="45.44083" lon="5.92272">
        <ele>1504.229536403</ele>
        <time>2015-06-11T13:13:15Z</time>
      </trkpt>
      <trkpt lat="45.44083" lon="5.92272">
        <ele>1504.229536403</ele>
        <time>2015-06-11T13:13:20Z</time>
      </trkpt>
      <trkpt lat="45.44083" lon="5.92272">
        <ele>1504.229536403</ele>
        <time>2015-06-11T13:13:25Z</time>
      </trkpt>
      <trkpt lat="45.44083" lon="5.92272">
        <ele>1504.229536403</ele>
        <time>2015-06-11T13:13:31Z</time>
      </trkpt>
      <trkpt lat="45.44083" lon="5.92272">
        <ele>1504.229536403</ele>
        <time>2015-06-11T13:13:35Z</time>
      </trkpt>
      <trkpt lat="45.44083" lon="5.92272">
        <ele>1504.229536403</ele>
        <time>2015-06-11T13:13:41Z</time>
      </trkpt>
      <trkpt lat="45.44081" lon="5.92271">
        <ele>1504.229536403</ele>
        <time>2015-06-11T13:13:45Z</time>
      </trkpt>
      <trkpt lat="45.44081" lon="5.92267">
        <ele>1504.229536403</ele>
        <time>2015-06-11T13:30:19Z</time>
      </trkpt>
      <trkpt lat="45.44081" lon="5.92268">
        <ele>1504.229536403</ele>
        <time>2015-06-11T13:30:25Z</time>
      </trkpt>
      <trkpt lat="45.44081" lon="5.92268">
        <ele>1504.229536403</ele>
        <time>2015-06-11T13:30:31Z</time>
      </trkpt>
      <trkpt lat="45.44081" lon="5.92273">
        <ele>1503.568859349</ele>
        <time>2015-06-11T13:30:35Z</time>
      </trkpt>
      <trkpt lat="45.44084" lon="5.92284">
        <ele>1503.568859349</ele>
        <time>2015-06-11T13:30:40Z</time>
      </trkpt>
      <trkpt lat="45.44087" lon="5.92289">
        <ele>1503.17215184</ele>
        <time>2015-06-11T13:30:45Z</time>
      </trkpt>
      <trkpt lat="45.4409" lon="5.92299">
        <ele>1503.17215184</ele>
        <time>2015-06-11T13:30:50Z</time>
      </trkpt>
      <trkpt lat="45.4409" lon="5.92307">
        <ele>1503.01882677</ele>
        <time>2015-06-11T13:30:55Z</time>
      </trkpt>
      <trkpt lat="45.44092" lon="5.92313">
        <ele>1503.01882677</ele>
        <time>2015-06-11T13:31:01Z</time>
      </trkpt>
      <trkpt lat="45.44093" lon="5.92318">
        <ele>1503.01882677</ele>
        <time>2015-06-11T13:31:05Z</time>
      </trkpt>
      <trkpt lat="45.44092" lon="5.92323">
        <ele>1502.94498089</ele>
        <time>2015-06-11T13:31:10Z</time>
      </trkpt>
      <trkpt lat="45.44093" lon="5.92328">
        <ele>1502.94498089</ele>
        <time>2015-06-11T13:31:15Z</time>
      </trkpt>
      <trkpt lat="45.441" lon="5.92335">
        <ele>1502.798501059</ele>
        <time>2015-06-11T13:31:20Z</time>
      </trkpt>
      <trkpt lat="45.44104" lon="5.92339">
        <ele>1502.798501059</ele>
        <time>2015-06-11T13:31:25Z</time>
      </trkpt>
      <trkpt lat="45.44101" lon="5.92347">
        <ele>1502.726855134</ele>
        <time>2015-06-11T13:31:30Z</time>
      </trkpt>
      <trkpt lat="45.441" lon="5.92351">
        <ele>1502.726855134</ele>
        <time>2015-06-11T13:31:35Z</time>
      </trkpt>
      <trkpt lat="45.441" lon="5.92355">
        <ele>1502.726855134</ele>
        <time>2015-06-11T13:31:40Z</time>
      </trkpt>
      <trkpt lat="45.441" lon="5.92359">
        <ele>1502.726855134</ele>
        <time>2015-06-11T13:31:45Z</time>
      </trkpt>
      <trkpt lat="45.44104" lon="5.92365">
        <ele>1503.87523701</ele>
        <time>2015-06-11T13:31:50Z</time>
      </trkpt>
      <trkpt lat="45.44104" lon="5.92368">
        <ele>1503.87523701</ele>
        <time>2015-06-11T13:31:55Z</time>
      </trkpt>
      <trkpt lat="45.44108" lon="5.92374">
        <ele>1503.87523701</ele>
        <time>2015-06-11T13:32:00Z</time>
      </trkpt>
      <trkpt lat="45.44111" lon="5.92376">
        <ele>1505.427849983</ele>
        <time>2015-06-11T13:32:05Z</time>
      </trkpt>
      <trkpt lat="45.44113" lon="5.92376">
        <ele>1505.427849983</ele>
        <time>2015-06-11T13:32:11Z</time>
      </trkpt>
      <trkpt lat="45.44114" lon="5.92376">
        <ele>1505.427849983</ele>
        <time>2015-06-11T13:32:15Z</time>
      </trkpt>
      <trkpt lat="45.44113" lon="5.92377">
        <ele>1505.427849983</ele>
        <time>2015-06-11T13:32:20Z</time>
      </trkpt>
      <trkpt lat="45.44116" lon="5.9238">
        <ele>1505.427849983</ele>
        <time>2015-06-11T13:32:25Z</time>
      </trkpt>
      <trkpt lat="45.44119" lon="5.92378">
        <ele>1508.068821119</ele>
        <time>2015-06-11T13:32:30Z</time>
      </trkpt>
      <trkpt lat="45.44124" lon="5.92377">
        <ele>1508.068821119</ele>
        <time>2015-06-11T13:32:35Z</time>
      </trkpt>
      <trkpt lat="45.44128" lon="5.92378">
        <ele>1508.068821119</ele>
        <time>2015-06-11T13:32:41Z</time>
      </trkpt>
      <trkpt lat="45.4413" lon="5.92377">
        <ele>1510.555560789</ele>
        <time>2015-06-11T13:32:46Z</time>
      </trkpt>
      <trkpt lat="45.44132" lon="5.92378">
        <ele>1510.555560789</ele>
        <time>2015-06-11T13:32:50Z</time>
      </trkpt>
      <trkpt lat="45.44136" lon="5.92379">
        <ele>1510.555560789</ele>
        <time>2015-06-11T13:32:55Z</time>
      </trkpt>
      <trkpt lat="45.44142" lon="5.92384">
        <ele>1513.754808709</ele>
        <time>2015-06-11T13:33:00Z</time>
      </trkpt>
      <trkpt lat="45.44145" lon="5.92384">
        <ele>1513.754808709</ele>
        <time>2015-06-11T13:33:04Z</time>
      </trkpt>
      <trkpt lat="45.44149" lon="5.92381">
        <ele>1513.754808709</ele>
        <time>2015-06-11T13:33:09Z</time>
      </trkpt>
      <trkpt lat="45.44154" lon="5.9238">
        <ele>1517.170720572</ele>
        <time>2015-06-11T13:33:15Z</time>
      </trkpt>
      <trkpt lat="45.44161" lon="5.92385">
        <ele>1517.170720572</ele>
        <time>2015-06-11T13:33:21Z</time>
      </trkpt>
      <trkpt lat="45.44164" lon="5.92387">
        <ele>1520.343379507</ele>
        <time>2015-06-11T13:33:26Z</time>
      </trkpt>
      <trkpt lat="45.44169" lon="5.92385">
        <ele>1520.343379507</ele>
        <time>2015-06-11T13:33:30Z</time>
      </trkpt>
      <trkpt lat="45.44169" lon="5.92386">
        <ele>1520.343379507</ele>
        <time>2015-06-11T13:33:35Z</time>
      </trkpt>
      <trkpt lat="45.44169" lon="5.92386">
        <ele>1520.343379507</ele>
        <time>2015-06-11T13:33:40Z</time>
      </trkpt>
      <trkpt lat="45.44173" lon="5.92391">
        <ele>1523.568027413</ele>
        <time>2015-06-11T13:33:45Z</time>
      </trkpt>
      <trkpt lat="45.44178" lon="5.92394">
        <ele>1523.568027413</ele>
        <time>2015-06-11T13:33:50Z</time>
      </trkpt>
      <trkpt lat="45.44186" lon="5.92399">
        <ele>1526.39767404</ele>
        <time>2015-06-11T13:33:55Z</time>
      </trkpt>
      <trkpt lat="45.4419" lon="5.924">
        <ele>1526.39767404</ele>
        <time>2015-06-11T13:34:00Z</time>
      </trkpt>
      <trkpt lat="45.44193" lon="5.92404">
        <ele>1526.39767404</ele>
        <time>2015-06-11T13:34:05Z</time>
      </trkpt>
      <trkpt lat="45.44198" lon="5.92407">
        <ele>1529.284117503</ele>
        <time>2015-06-11T13:34:11Z</time>
      </trkpt>
      <trkpt lat="45.44198" lon="5.92412">
        <ele>1529.284117503</ele>
        <time>2015-06-11T13:34:16Z</time>
      </trkpt>
      <trkpt lat="45.44202" lon="5.92418">
        <ele>1531.925445916</ele>
        <time>2015-06-11T13:34:20Z</time>
      </trkpt>
      <trkpt lat="45.44204" lon="5.9242">
        <ele>1531.925445916</ele>
        <time>2015-06-11T13:34:25Z</time>
      </trkpt>
      <trkpt lat="45.44208" lon="5.92421">
        <ele>1531.925445916</ele>
        <time>2015-06-11T13:34:30Z</time>
      </trkpt>
      <trkpt lat="45.44206" lon="5.92421">
        <ele>1531.925445916</ele>
        <time>2015-06-11T13:34:35Z</time>
      </trkpt>
      <trkpt lat="45.44205" lon="5.92421">
        <ele>1531.925445916</ele>
        <time>2015-06-11T13:34:41Z</time>
      </trkpt>
      <trkpt lat="45.4421" lon="5.92416">
        <ele>1534.475154211</ele>
        <time>2015-06-11T13:34:45Z</time>
      </trkpt>
      <trkpt lat="45.44215" lon="5.92417">
        <ele>1534.475154211</ele>
        <time>2015-06-11T13:34:50Z</time>
      </trkpt>
      <trkpt lat="45.4422" lon="5.92419">
        <ele>1536.643602704</ele>
        <time>2015-06-11T13:34:55Z</time>
      </trkpt>
      <trkpt lat="45.44224" lon="5.9242">
        <ele>1536.643602704</ele>
        <time>2015-06-11T13:35:01Z</time>
      </trkpt>
      <trkpt lat="45.44229" lon="5.9242">
        <ele>1538.884279013</ele>
        <time>2015-06-11T13:35:05Z</time>
      </trkpt>
      <trkpt lat="45.44233" lon="5.92419">
        <ele>1538.884279013</ele>
        <time>2015-06-11T13:35:10Z</time>
      </trkpt>
      <trkpt lat="45.44237" lon="5.92416">
        <ele>1540.752717918</ele>
        <time>2015-06-11T13:35:15Z</time>
      </trkpt>
      <trkpt lat="45.44244" lon="5.92416">
        <ele>1540.752717918</ele>
        <time>2015-06-11T13:35:20Z</time>
      </trkpt>
      <trkpt lat="45.44249" lon="5.92415">
        <ele>1542.270713461</ele>
        <time>2015-06-11T13:35:25Z</time>
      </trkpt>
      <trkpt lat="45.44253" lon="5.92419">
        <ele>1542.270713461</ele>
        <time>2015-06-11T13:35:30Z</time>
      </trkpt>
      <trkpt lat="45.44257" lon="5.9242">
        <ele>1542.270713461</ele>
        <time>2015-06-11T13:35:35Z</time>
      </trkpt>
      <trkpt lat="45.4426" lon="5.92421">
        <ele>1543.603783246</ele>
        <time>2015-06-11T13:35:40Z</time>
      </trkpt>
      <trkpt lat="45.44264" lon="5.92424">
        <ele>1543.603783246</ele>
        <time>2015-06-11T13:35:45Z</time>
      </trkpt>
      <trkpt lat="45.44269" lon="5.92425">
        <ele>1544.906031716</ele>
        <time>2015-06-11T13:35:50Z</time>
      </trkpt>
      <trkpt lat="45.44274" lon="5.92422">
        <ele>1544.906031716</ele>
        <time>2015-06-11T13:35:55Z</time>
      </trkpt>
      <trkpt lat="45.44281" lon="5.92421">
        <ele>1546.032328184</ele>
        <time>2015-06-11T13:36:00Z</time>
      </trkpt>
      <trkpt lat="45.44287" lon="5.92421">
        <ele>1546.032328184</ele>
        <time>2015-06-11T13:36:05Z</time>
      </trkpt>
      <trkpt lat="45.44288" lon="5.92427">
        <ele>1547.137133111</ele>
        <time>2015-06-11T13:36:09Z</time>
      </trkpt>
      <trkpt lat="45.44296" lon="5.9244">
        <ele>1548.075604101</ele>
        <time>2015-06-11T13:36:16Z</time>
      </trkpt>
      <trkpt lat="45.44298" lon="5.92445">
        <ele>1548.075604101</ele>
        <time>2015-06-11T13:36:20Z</time>
      </trkpt>
      <trkpt lat="45.44301" lon="5.92454">
        <ele>1548.570090331</ele>
        <time>2015-06-11T13:36:25Z</time>
      </trkpt>
      <trkpt lat="45.44306" lon="5.92462">
        <ele>1548.570090331</ele>
        <time>2015-06-11T13:36:30Z</time>
      </trkpt>
      <trkpt lat="45.4431" lon="5.92469">
        <ele>1549.51765801</ele>
        <time>2015-06-11T13:36:35Z</time>
      </trkpt>
      <trkpt lat="45.44314" lon="5.92475">
        <ele>1549.51765801</ele>
        <time>2015-06-11T13:36:40Z</time>
      </trkpt>
      <trkpt lat="45.44316" lon="5.92476">
        <ele>1549.51765801</ele>
        <time>2015-06-11T13:36:45Z</time>
      </trkpt>
      <trkpt lat="45.44316" lon="5.92475">
        <ele>1549.51765801</ele>
        <time>2015-06-11T13:36:50Z</time>
      </trkpt>
      <trkpt lat="45.44317" lon="5.92475">
        <ele>1550.451379535</ele>
        <time>2015-06-11T13:36:56Z</time>
      </trkpt>
      <trkpt lat="45.44317" lon="5.92475">
        <ele>1550.451379535</ele>
        <time>2015-06-11T13:37:00Z</time>
      </trkpt>
      <trkpt lat="45.44324" lon="5.92486">
        <ele>1551.227053717</ele>
        <time>2015-06-11T13:37:05Z</time>
      </trkpt>
      <trkpt lat="45.44328" lon="5.92499">
        <ele>1551.711669888</ele>
        <time>2015-06-11T13:37:10Z</time>
      </trkpt>
      <trkpt lat="45.44333" lon="5.92508">
        <ele>1551.711669888</ele>
        <time>2015-06-11T13:37:15Z</time>
      </trkpt>
      <trkpt lat="45.44334" lon="5.92518">
        <ele>1552.071170533</ele>
        <time>2015-06-11T13:37:21Z</time>
      </trkpt>
      <trkpt lat="45.44342" lon="5.92526">
        <ele>1552.459791075</ele>
        <time>2015-06-11T13:37:25Z</time>
      </trkpt>
      <trkpt lat="45.44342" lon="5.92538">
        <ele>1552.459791075</ele>
        <time>2015-06-11T13:37:30Z</time>
      </trkpt>
      <trkpt lat="45.44347" lon="5.92543">
        <ele>1552.732252672</ele>
        <time>2015-06-11T13:37:35Z</time>
      </trkpt>
      <trkpt lat="45.4435" lon="5.92552">
        <ele>1552.732252672</ele>
        <time>2015-06-11T13:37:40Z</time>
      </trkpt>
      <trkpt lat="45.44358" lon="5.92557">
        <ele>1552.754381446</ele>
        <time>2015-06-11T13:37:45Z</time>
      </trkpt>
      <trkpt lat="45.44362" lon="5.92564">
        <ele>1552.754381446</ele>
        <time>2015-06-11T13:37:50Z</time>
      </trkpt>
      <trkpt lat="45.44364" lon="5.92575">
        <ele>1552.979101303</ele>
        <time>2015-06-11T13:37:55Z</time>
      </trkpt>
      <trkpt lat="45.44368" lon="5.92582">
        <ele>1552.979101303</ele>
        <time>2015-06-11T13:38:00Z</time>
      </trkpt>
      <trkpt lat="45.44369" lon="5.92592">
        <ele>1552.528576906</ele>
        <time>2015-06-11T13:38:05Z</time>
      </trkpt>
      <trkpt lat="45.44376" lon="5.92597">
        <ele>1552.528576906</ele>
        <time>2015-06-11T13:38:10Z</time>
      </trkpt>
      <trkpt lat="45.44382" lon="5.92603">
        <ele>1552.032531346</ele>
        <time>2015-06-11T13:38:15Z</time>
      </trkpt>
      <trkpt lat="45.44389" lon="5.92602">
        <ele>1552.032531346</ele>
        <time>2015-06-11T13:38:20Z</time>
      </trkpt>
      <trkpt lat="45.44394" lon="5.92609">
        <ele>1551.209941593</ele>
        <time>2015-06-11T13:38:25Z</time>
      </trkpt>
      <trkpt lat="45.44399" lon="5.92612">
        <ele>1551.209941593</ele>
        <time>2015-06-11T13:38:30Z</time>
      </trkpt>
      <trkpt lat="45.44404" lon="5.92618">
        <ele>1550.233714367</ele>
        <time>2015-06-11T13:38:35Z</time>
      </trkpt>
      <trkpt lat="45.44407" lon="5.92626">
        <ele>1550.233714367</ele>
        <time>2015-06-11T13:38:40Z</time>
      </trkpt>
      <trkpt lat="45.44411" lon="5.92635">
        <ele>1549.84095121</ele>
        <time>2015-06-11T13:38:45Z</time>
      </trkpt>
      <trkpt lat="45.44409" lon="5.92643">
        <ele>1549.84095121</ele>
        <time>2015-06-11T13:38:51Z</time>
      </trkpt>
      <trkpt lat="45.44421" lon="5.9265">
        <ele>1549.560086729</ele>
        <time>2015-06-11T13:38:56Z</time>
      </trkpt>
      <trkpt lat="45.44417" lon="5.92652">
        <ele>1549.560086729</ele>
        <time>2015-06-11T13:39:00Z</time>
      </trkpt>
      <trkpt lat="45.44418" lon="5.92653">
        <ele>1549.560086729</ele>
        <time>2015-06-11T13:39:05Z</time>
      </trkpt>
      <trkpt lat="45.44419" lon="5.92653">
        <ele>1549.560086729</ele>
        <time>2015-06-11T13:39:09Z</time>
      </trkpt>
      <trkpt lat="45.44427" lon="5.92657">
        <ele>1549.530321013</ele>
        <time>2015-06-11T13:39:16Z</time>
      </trkpt>
      <trkpt lat="45.44433" lon="5.92659">
        <ele>1549.530321013</ele>
        <time>2015-06-11T13:39:20Z</time>
      </trkpt>
      <trkpt lat="45.44441" lon="5.92672">
        <ele>1548.727017385</ele>
        <time>2015-06-11T13:39:25Z</time>
      </trkpt>
      <trkpt lat="45.44446" lon="5.92681">
        <ele>1548.727017385</ele>
        <time>2015-06-11T13:39:30Z</time>
      </trkpt>
      <trkpt lat="45.44452" lon="5.9269">
        <ele>1548.508730716</ele>
        <time>2015-06-11T13:39:35Z</time>
      </trkpt>
      <trkpt lat="45.44456" lon="5.92694">
        <ele>1548.508730716</ele>
        <time>2015-06-11T13:39:40Z</time>
      </trkpt>
      <trkpt lat="45.44461" lon="5.92697">
        <ele>1548.114984868</ele>
        <time>2015-06-11T13:39:45Z</time>
      </trkpt>
      <trkpt lat="45.44467" lon="5.92704">
        <ele>1548.114984868</ele>
        <time>2015-06-11T13:39:50Z</time>
      </trkpt>
      <trkpt lat="45.44468" lon="5.92712">
        <ele>1547.418061268</ele>
        <time>2015-06-11T13:39:55Z</time>
      </trkpt>
      <trkpt lat="45.44473" lon="5.92721">
        <ele>1547.418061268</ele>
        <time>2015-06-11T13:40:00Z</time>
      </trkpt>
      <trkpt lat="45.44478" lon="5.92728">
        <ele>1546.732755619</ele>
        <time>2015-06-11T13:40:06Z</time>
      </trkpt>
      <trkpt lat="45.4448" lon="5.92736">
        <ele>1546.732755619</ele>
        <time>2015-06-11T13:40:10Z</time>
      </trkpt>
      <trkpt lat="45.44481" lon="5.92743">
        <ele>1546.350647216</ele>
        <time>2015-06-11T13:40:15Z</time>
      </trkpt>
      <trkpt lat="45.44484" lon="5.92752">
        <ele>1546.350647216</ele>
        <time>2015-06-11T13:40:20Z</time>
      </trkpt>
      <trkpt lat="45.44491" lon="5.92758">
        <ele>1546.252757686</ele>
        <time>2015-06-11T13:40:25Z</time>
      </trkpt>
      <trkpt lat="45.44495" lon="5.92765">
        <ele>1546.252757686</ele>
        <time>2015-06-11T13:40:30Z</time>
      </trkpt>
      <trkpt lat="45.44502" lon="5.92771">
        <ele>1546.132412436</ele>
        <time>2015-06-11T13:40:35Z</time>
      </trkpt>
      <trkpt lat="45.44509" lon="5.92777">
        <ele>1546.132412436</ele>
        <time>2015-06-11T13:40:40Z</time>
      </trkpt>
      <trkpt lat="45.44512" lon="5.92777">
        <ele>1546.426010467</ele>
        <time>2015-06-11T13:40:45Z</time>
      </trkpt>
      <trkpt lat="45.44522" lon="5.92776">
        <ele>1546.239656475</ele>
        <time>2015-06-11T13:40:50Z</time>
      </trkpt>
      <trkpt lat="45.44529" lon="5.92782">
        <ele>1546.239656475</ele>
        <time>2015-06-11T13:40:55Z</time>
      </trkpt>
      <trkpt lat="45.44532" lon="5.92788">
        <ele>1546.18750284</ele>
        <time>2015-06-11T13:41:01Z</time>
      </trkpt>
      <trkpt lat="45.44538" lon="5.9279">
        <ele>1546.18750284</ele>
        <time>2015-06-11T13:41:05Z</time>
      </trkpt>
      <trkpt lat="45.44541" lon="5.92799">
        <ele>1546.117578714</ele>
        <time>2015-06-11T13:41:10Z</time>
      </trkpt>
      <trkpt lat="45.44547" lon="5.928">
        <ele>1546.117578714</ele>
        <time>2015-06-11T13:41:15Z</time>
      </trkpt>
      <trkpt lat="45.44553" lon="5.92799">
        <ele>1546.177273567</ele>
        <time>2015-06-11T13:41:21Z</time>
      </trkpt>
      <trkpt lat="45.44554" lon="5.92803">
        <ele>1546.177273567</ele>
        <time>2015-06-11T13:41:25Z</time>
      </trkpt>
      <trkpt lat="45.44563" lon="5.92804">
        <ele>1546.646822493</ele>
        <time>2015-06-11T13:41:30Z</time>
      </trkpt>
      <trkpt lat="45.44565" lon="5.9281">
        <ele>1546.646822493</ele>
        <time>2015-06-11T13:41:35Z</time>
      </trkpt>
      <trkpt lat="45.44571" lon="5.92811">
        <ele>1547.352318965</ele>
        <time>2015-06-11T13:41:41Z</time>
      </trkpt>
      <trkpt lat="45.44576" lon="5.92815">
        <ele>1547.352318965</ele>
        <time>2015-06-11T13:41:45Z</time>
      </trkpt>
      <trkpt lat="45.44581" lon="5.92812">
        <ele>1547.987789638</ele>
        <time>2015-06-11T13:41:50Z</time>
      </trkpt>
      <trkpt lat="45.44581" lon="5.92818">
        <ele>1547.987789638</ele>
        <time>2015-06-11T13:41:55Z</time>
      </trkpt>
      <trkpt lat="45.44582" lon="5.92825">
        <ele>1547.987789638</ele>
        <time>2015-06-11T13:42:00Z</time>
      </trkpt>
      <trkpt lat="45.44586" lon="5.92827">
        <ele>1549.855095334</ele>
        <time>2015-06-11T13:42:05Z</time>
      </trkpt>
      <trkpt lat="45.4459" lon="5.92832">
        <ele>1549.855095334</ele>
        <time>2015-06-11T13:42:09Z</time>
      </trkpt>
      <trkpt lat="45.44597" lon="5.92837">
        <ele>1551.562953557</ele>
        <time>2015-06-11T13:42:15Z</time>
      </trkpt>
      <trkpt lat="45.44598" lon="5.92848">
        <ele>1551.562953557</ele>
        <time>2015-06-11T13:42:20Z</time>
      </trkpt>
      <trkpt lat="45.44607" lon="5.92842">
        <ele>1553.119690377</ele>
        <time>2015-06-11T13:42:26Z</time>
      </trkpt>
      <trkpt lat="45.44608" lon="5.92848">
        <ele>1553.119690377</ele>
        <time>2015-06-11T13:42:30Z</time>
      </trkpt>
      <trkpt lat="45.44613" lon="5.92842">
        <ele>1555.542193675</ele>
        <time>2015-06-11T13:42:35Z</time>
      </trkpt>
      <trkpt lat="45.44616" lon="5.92837">
        <ele>1555.542193675</ele>
        <time>2015-06-11T13:42:40Z</time>
      </trkpt>
      <trkpt lat="45.44619" lon="5.92846">
        <ele>1557.752651878</ele>
        <time>2015-06-11T13:42:45Z</time>
      </trkpt>
      <trkpt lat="45.44623" lon="5.92853">
        <ele>1557.752651878</ele>
        <time>2015-06-11T13:42:51Z</time>
      </trkpt>
      <trkpt lat="45.44626" lon="5.92853">
        <ele>1557.752651878</ele>
        <time>2015-06-11T13:42:55Z</time>
      </trkpt>
      <trkpt lat="45.4463" lon="5.92847">
        <ele>1560.194135519</ele>
        <time>2015-06-11T13:43:01Z</time>
      </trkpt>
      <trkpt lat="45.44629" lon="5.92852">
        <ele>1560.194135519</ele>
        <time>2015-06-11T13:43:05Z</time>
      </trkpt>
      <trkpt lat="45.44633" lon="5.92853">
        <ele>1560.194135519</ele>
        <time>2015-06-11T13:43:10Z</time>
      </trkpt>
      <trkpt lat="45.44633" lon="5.92849">
        <ele>1562.555978435</ele>
        <time>2015-06-11T13:43:15Z</time>
      </trkpt>
      <trkpt lat="45.44635" lon="5.92845">
        <ele>1562.555978435</ele>
        <time>2015-06-11T13:43:20Z</time>
      </trkpt>
      <trkpt lat="45.4464" lon="5.92845">
        <ele>1562.555978435</ele>
        <time>2015-06-11T13:43:24Z</time>
      </trkpt>
      <trkpt lat="45.44645" lon="5.92844">
        <ele>1564.406476794</ele>
        <time>2015-06-11T13:43:30Z</time>
      </trkpt>
      <trkpt lat="45.44645" lon="5.92848">
        <ele>1564.406476794</ele>
        <time>2015-06-11T13:43:35Z</time>
      </trkpt>
      <trkpt lat="45.44648" lon="5.92852">
        <ele>1564.406476794</ele>
        <time>2015-06-11T13:43:40Z</time>
      </trkpt>
      <trkpt lat="45.44654" lon="5.92857">
        <ele>1567.50878434</ele>
        <time>2015-06-11T13:43:45Z</time>
      </trkpt>
      <trkpt lat="45.44659" lon="5.92861">
        <ele>1567.50878434</ele>
        <time>2015-06-11T13:43:50Z</time>
      </trkpt>
      <trkpt lat="45.44674" lon="5.92861">
        <ele>1570.32263335</ele>
        <time>2015-06-11T13:43:55Z</time>
      </trkpt>
      <trkpt lat="45.44673" lon="5.92854">
        <ele>1570.32263335</ele>
        <time>2015-06-11T13:44:00Z</time>
      </trkpt>
      <trkpt lat="45.44672" lon="5.92855">
        <ele>1570.32263335</ele>
        <time>2015-06-11T13:44:05Z</time>
      </trkpt>
      <trkpt lat="45.44676" lon="5.92856">
        <ele>1572.718781487</ele>
        <time>2015-06-11T13:44:11Z</time>
      </trkpt>
      <trkpt lat="45.44679" lon="5.92854">
        <ele>1572.718781487</ele>
        <time>2015-06-11T13:44:15Z</time>
      </trkpt>
      <trkpt lat="45.44682" lon="5.92854">
        <ele>1572.718781487</ele>
        <time>2015-06-11T13:44:20Z</time>
      </trkpt>
      <trkpt lat="45.4469" lon="5.92862">
        <ele>1574.866954558</ele>
        <time>2015-06-11T13:44:25Z</time>
      </trkpt>
      <trkpt lat="45.44696" lon="5.92865">
        <ele>1574.866954558</ele>
        <time>2015-06-11T13:44:30Z</time>
      </trkpt>
      <trkpt lat="45.44693" lon="5.92867">
        <ele>1577.789864645</ele>
        <time>2015-06-11T13:44:35Z</time>
      </trkpt>
      <trkpt lat="45.44699" lon="5.92873">
        <ele>1577.789864645</ele>
        <time>2015-06-11T13:44:40Z</time>
      </trkpt>
      <trkpt lat="45.44705" lon="5.9288">
        <ele>1579.98313288</ele>
        <time>2015-06-11T13:44:45Z</time>
      </trkpt>
      <trkpt lat="45.44707" lon="5.92893">
        <ele>1582.50493562</ele>
        <time>2015-06-11T13:44:50Z</time>
      </trkpt>
      <trkpt lat="45.44711" lon="5.92902">
        <ele>1582.50493562</ele>
        <time>2015-06-11T13:44:55Z</time>
      </trkpt>
      <trkpt lat="45.4472" lon="5.92907">
        <ele>1584.461463071</ele>
        <time>2015-06-11T13:45:00Z</time>
      </trkpt>
      <trkpt lat="45.44726" lon="5.92912">
        <ele>1584.461463071</ele>
        <time>2015-06-11T13:45:05Z</time>
      </trkpt>
      <trkpt lat="45.44727" lon="5.92918">
        <ele>1586.46738</ele>
        <time>2015-06-11T13:45:10Z</time>
      </trkpt>
      <trkpt lat="45.44734" lon="5.92919">
        <ele>1586.46738</ele>
        <time>2015-06-11T13:45:14Z</time>
      </trkpt>
      <trkpt lat="45.44741" lon="5.92926">
        <ele>1587.939290407</ele>
        <time>2015-06-11T13:45:20Z</time>
      </trkpt>
      <trkpt lat="45.44744" lon="5.92932">
        <ele>1587.939290407</ele>
        <time>2015-06-11T13:45:25Z</time>
      </trkpt>
      <trkpt lat="45.4475" lon="5.92938">
        <ele>1589.202938802</ele>
        <time>2015-06-11T13:45:30Z</time>
      </trkpt>
      <trkpt lat="45.44752" lon="5.92945">
        <ele>1589.202938802</ele>
        <time>2015-06-11T13:45:35Z</time>
      </trkpt>
      <trkpt lat="45.44754" lon="5.92956">
        <ele>1591.137287419</ele>
        <time>2015-06-11T13:45:41Z</time>
      </trkpt>
      <trkpt lat="45.44759" lon="5.92958">
        <ele>1591.137287419</ele>
        <time>2015-06-11T13:45:45Z</time>
      </trkpt>
      <trkpt lat="45.44763" lon="5.92967">
        <ele>1592.393295625</ele>
        <time>2015-06-11T13:45:50Z</time>
      </trkpt>
      <trkpt lat="45.44767" lon="5.92973">
        <ele>1592.393295625</ele>
        <time>2015-06-11T13:45:55Z</time>
      </trkpt>
      <trkpt lat="45.44771" lon="5.92981">
        <ele>1593.596480348</ele>
        <time>2015-06-11T13:46:01Z</time>
      </trkpt>
      <trkpt lat="45.44775" lon="5.9298">
        <ele>1593.596480348</ele>
        <time>2015-06-11T13:46:05Z</time>
      </trkpt>
      <trkpt lat="45.44777" lon="5.92989">
        <ele>1593.885548189</ele>
        <time>2015-06-11T13:46:10Z</time>
      </trkpt>
      <trkpt lat="45.44787" lon="5.92995">
        <ele>1594.050358041</ele>
        <time>2015-06-11T13:46:15Z</time>
      </trkpt>
      <trkpt lat="45.44792" lon="5.93">
        <ele>1594.050358041</ele>
        <time>2015-06-11T13:46:20Z</time>
      </trkpt>
      <trkpt lat="45.44796" lon="5.93006">
        <ele>1593.958511342</ele>
        <time>2015-06-11T13:46:25Z</time>
      </trkpt>
      <trkpt lat="45.44796" lon="5.93017">
        <ele>1593.958511342</ele>
        <time>2015-06-11T13:46:30Z</time>
      </trkpt>
      <trkpt lat="45.44802" lon="5.93021">
        <ele>1594.208682088</ele>
        <time>2015-06-11T13:46:35Z</time>
      </trkpt>
      <trkpt lat="45.44804" lon="5.93032">
        <ele>1594.208682088</ele>
        <time>2015-06-11T13:46:40Z</time>
      </trkpt>
      <trkpt lat="45.44807" lon="5.93037">
        <ele>1595.06644257</ele>
        <time>2015-06-11T13:46:45Z</time>
      </trkpt>
      <trkpt lat="45.44805" lon="5.93036">
        <ele>1595.06644257</ele>
        <time>2015-06-11T13:46:50Z</time>
      </trkpt>
      <trkpt lat="45.44805" lon="5.93035">
        <ele>1595.06644257</ele>
        <time>2015-06-11T13:46:55Z</time>
      </trkpt>
      <trkpt lat="45.44802" lon="5.93036">
        <ele>1595.06644257</ele>
        <time>2015-06-11T13:47:00Z</time>
      </trkpt>
      <trkpt lat="45.44803" lon="5.93033">
        <ele>1595.06644257</ele>
        <time>2015-06-11T13:47:05Z</time>
      </trkpt>
      <trkpt lat="45.44803" lon="5.93034">
        <ele>1596.199755111</ele>
        <time>2015-06-11T13:47:10Z</time>
      </trkpt>
      <trkpt lat="45.44803" lon="5.93033">
        <ele>1596.199755111</ele>
        <time>2015-06-11T13:47:15Z</time>
      </trkpt>
      <trkpt lat="45.44803" lon="5.93033">
        <ele>1596.199755111</ele>
        <time>2015-06-11T13:47:20Z</time>
      </trkpt>
      <trkpt lat="45.44803" lon="5.93033">
        <ele>1596.199755111</ele>
        <time>2015-06-11T13:47:25Z</time>
      </trkpt>
      <trkpt lat="45.44803" lon="5.93033">
        <ele>1596.199755111</ele>
        <time>2015-06-11T13:47:30Z</time>
      </trkpt>
      <trkpt lat="45.44803" lon="5.93033">
        <ele>1596.199755111</ele>
        <time>2015-06-11T13:47:35Z</time>
      </trkpt>
      <trkpt lat="45.44816" lon="5.93032">
        <ele>1596.57968334</ele>
        <time>2015-06-11T13:47:40Z</time>
      </trkpt>
      <trkpt lat="45.44816" lon="5.93039">
        <ele>1596.57968334</ele>
        <time>2015-06-11T13:47:45Z</time>
      </trkpt>
      <trkpt lat="45.44821" lon="5.93041">
        <ele>1597.70491211</ele>
        <time>2015-06-11T13:47:50Z</time>
      </trkpt>
      <trkpt lat="45.44825" lon="5.93041">
        <ele>1597.70491211</ele>
        <time>2015-06-11T13:47:55Z</time>
      </trkpt>
      <trkpt lat="45.44827" lon="5.93044">
        <ele>1597.70491211</ele>
        <time>2015-06-11T13:48:00Z</time>
      </trkpt>
      <trkpt lat="45.44829" lon="5.93042">
        <ele>1597.70491211</ele>
        <time>2015-06-11T13:48:05Z</time>
      </trkpt>
      <trkpt lat="45.44829" lon="5.93044">
        <ele>1599.232637736</ele>
        <time>2015-06-11T13:48:10Z</time>
      </trkpt>
      <trkpt lat="45.44835" lon="5.93044">
        <ele>1599.232637736</ele>
        <time>2015-06-11T13:48:14Z</time>
      </trkpt>
      <trkpt lat="45.44839" lon="5.93055">
        <ele>1600.98824695</ele>
        <time>2015-06-11T13:48:21Z</time>
      </trkpt>
      <trkpt lat="45.44845" lon="5.93061">
        <ele>1600.98824695</ele>
        <time>2015-06-11T13:48:25Z</time>
      </trkpt>
      <trkpt lat="45.44848" lon="5.93058">
        <ele>1602.377005442</ele>
        <time>2015-06-11T13:48:31Z</time>
      </trkpt>
      <trkpt lat="45.44846" lon="5.93066">
        <ele>1602.377005442</ele>
        <time>2015-06-11T13:48:35Z</time>
      </trkpt>
      <trkpt lat="45.44848" lon="5.93063">
        <ele>1602.377005442</ele>
        <time>2015-06-11T13:48:40Z</time>
      </trkpt>
      <trkpt lat="45.44847" lon="5.93064">
        <ele>1602.377005442</ele>
        <time>2015-06-11T13:48:45Z</time>
      </trkpt>
      <trkpt lat="45.44847" lon="5.93064">
        <ele>1604.290034545</ele>
        <time>2015-06-11T13:48:50Z</time>
      </trkpt>
      <trkpt lat="45.44848" lon="5.93057">
        <ele>1604.290034545</ele>
        <time>2015-06-11T13:48:56Z</time>
      </trkpt>
      <trkpt lat="45.44846" lon="5.93055">
        <ele>1604.290034545</ele>
        <time>2015-06-11T13:49:00Z</time>
      </trkpt>
      <trkpt lat="45.4484" lon="5.93054">
        <ele>1606.398662687</ele>
        <time>2015-06-11T13:49:05Z</time>
      </trkpt>
      <trkpt lat="45.44836" lon="5.93051">
        <ele>1606.398662687</ele>
        <time>2015-06-11T13:49:10Z</time>
      </trkpt>
      <trkpt lat="45.44831" lon="5.93048">
        <ele>1608.686067695</ele>
        <time>2015-06-11T13:49:16Z</time>
      </trkpt>
      <trkpt lat="45.44832" lon="5.9305">
        <ele>1608.686067695</ele>
        <time>2015-06-11T13:49:20Z</time>
      </trkpt>
      <trkpt lat="45.44831" lon="5.9305">
        <ele>1608.686067695</ele>
        <time>2015-06-11T13:49:25Z</time>
      </trkpt>
      <trkpt lat="45.44832" lon="5.93047">
        <ele>1608.686067695</ele>
        <time>2015-06-11T13:49:30Z</time>
      </trkpt>
      <trkpt lat="45.44833" lon="5.93046">
        <ele>1608.686067695</ele>
        <time>2015-06-11T13:49:35Z</time>
      </trkpt>
      <trkpt lat="45.44833" lon="5.93045">
        <ele>1608.686067695</ele>
        <time>2015-06-11T13:49:40Z</time>
      </trkpt>
      <trkpt lat="45.44829" lon="5.93043">
        <ele>1611.424420678</ele>
        <time>2015-06-11T13:49:45Z</time>
      </trkpt>
      <trkpt lat="45.44824" lon="5.93042">
        <ele>1611.424420678</ele>
        <time>2015-06-11T13:49:50Z</time>
      </trkpt>
      <trkpt lat="45.44829" lon="5.93028">
        <ele>1615.008790099</ele>
        <time>2015-06-11T13:49:55Z</time>
      </trkpt>
      <trkpt lat="45.44831" lon="5.93029">
        <ele>1615.008790099</ele>
        <time>2015-06-11T13:50:00Z</time>
      </trkpt>
      <trkpt lat="45.44834" lon="5.93027">
        <ele>1615.008790099</ele>
        <time>2015-06-11T13:50:05Z</time>
      </trkpt>
      <trkpt lat="45.44834" lon="5.93026">
        <ele>1615.008790099</ele>
        <time>2015-06-11T13:50:10Z</time>
      </trkpt>
      <trkpt lat="45.44835" lon="5.93026">
        <ele>1615.008790099</ele>
        <time>2015-06-11T13:50:15Z</time>
      </trkpt>
      <trkpt lat="45.44838" lon="5.93031">
        <ele>1617.641235158</ele>
        <time>2015-06-11T13:50:20Z</time>
      </trkpt>
      <trkpt lat="45.44844" lon="5.93035">
        <ele>1617.641235158</ele>
        <time>2015-06-11T13:50:25Z</time>
      </trkpt>
      <trkpt lat="45.44848" lon="5.93037">
        <ele>1620.396735719</ele>
        <time>2015-06-11T13:50:30Z</time>
      </trkpt>
      <trkpt lat="45.44849" lon="5.93037">
        <ele>1620.396735719</ele>
        <time>2015-06-11T13:50:35Z</time>
      </trkpt>
      <trkpt lat="45.44854" lon="5.93032">
        <ele>1620.396735719</ele>
        <time>2015-06-11T13:50:40Z</time>
      </trkpt>
      <trkpt lat="45.44857" lon="5.93031">
        <ele>1622.109361073</ele>
        <time>2015-06-11T13:50:45Z</time>
      </trkpt>
      <trkpt lat="45.44857" lon="5.93032">
        <ele>1622.109361073</ele>
        <time>2015-06-11T13:50:50Z</time>
      </trkpt>
      <trkpt lat="45.44851" lon="5.93043">
        <ele>1623.14293915</ele>
        <time>2015-06-11T13:50:55Z</time>
      </trkpt>
      <trkpt lat="45.44855" lon="5.93039">
        <ele>1623.14293915</ele>
        <time>2015-06-11T13:51:00Z</time>
      </trkpt>
      <trkpt lat="45.44853" lon="5.93038">
        <ele>1623.14293915</ele>
        <time>2015-06-11T13:51:06Z</time>
      </trkpt>
      <trkpt lat="45.44848" lon="5.93036">
        <ele>1625.27766134</ele>
        <time>2015-06-11T13:51:11Z</time>
      </trkpt>
      <trkpt lat="45.44852" lon="5.93027">
        <ele>1625.27766134</ele>
        <time>2015-06-11T13:51:14Z</time>
      </trkpt>
      <trkpt lat="45.44855" lon="5.93022">
        <ele>1627.56592944</ele>
        <time>2015-06-11T13:51:20Z</time>
      </trkpt>
      <trkpt lat="45.44853" lon="5.93026">
        <ele>1627.56592944</ele>
        <time>2015-06-11T13:51:26Z</time>
      </trkpt>
      <trkpt lat="45.44851" lon="5.93029">
        <ele>1627.56592944</ele>
        <time>2015-06-11T13:51:30Z</time>
      </trkpt>
      <trkpt lat="45.44852" lon="5.93029">
        <ele>1627.56592944</ele>
        <time>2015-06-11T13:51:35Z</time>
      </trkpt>
      <trkpt lat="45.44852" lon="5.93029">
        <ele>1627.56592944</ele>
        <time>2015-06-11T13:51:40Z</time>
      </trkpt>
      <trkpt lat="45.44852" lon="5.93029">
        <ele>1627.56592944</ele>
        <time>2015-06-11T13:51:45Z</time>
      </trkpt>
      <trkpt lat="45.44852" lon="5.93029">
        <ele>1627.56592944</ele>
        <time>2015-06-11T13:51:50Z</time>
      </trkpt>
      <trkpt lat="45.44852" lon="5.93029">
        <ele>1627.56592944</ele>
        <time>2015-06-11T13:51:55Z</time>
      </trkpt>
      <trkpt lat="45.44852" lon="5.93029">
        <ele>1627.56592944</ele>
        <time>2015-06-11T13:52:00Z</time>
      </trkpt>
      <trkpt lat="45.44852" lon="5.93029">
        <ele>1627.56592944</ele>
        <time>2015-06-11T13:52:05Z</time>
      </trkpt>
      <trkpt lat="45.44852" lon="5.93029">
        <ele>1627.56592944</ele>
        <time>2015-06-11T13:52:10Z</time>
      </trkpt>
      <trkpt lat="45.44854" lon="5.93026">
        <ele>1629.705839548</ele>
        <time>2015-06-11T13:52:15Z</time>
      </trkpt>
      <trkpt lat="45.44854" lon="5.93025">
        <ele>1629.705839548</ele>
        <time>2015-06-11T13:52:21Z</time>
      </trkpt>
      <trkpt lat="45.44855" lon="5.93024">
        <ele>1629.705839548</ele>
        <time>2015-06-11T13:52:25Z</time>
      </trkpt>
      <trkpt lat="45.44856" lon="5.93023">
        <ele>1629.705839548</ele>
        <time>2015-06-11T13:52:30Z</time>
      </trkpt>
      <trkpt lat="45.44856" lon="5.93023">
        <ele>1629.705839548</ele>
        <time>2015-06-11T13:52:35Z</time>
      </trkpt>
      <trkpt lat="45.44856" lon="5.93023">
        <ele>1629.705839548</ele>
        <time>2015-06-11T13:52:40Z</time>
      </trkpt>
      <trkpt lat="45.44856" lon="5.93022">
        <ele>1629.705839548</ele>
        <time>2015-06-11T13:52:45Z</time>
      </trkpt>
      <trkpt lat="45.44856" lon="5.93022">
        <ele>1629.705839548</ele>
        <time>2015-06-11T13:52:50Z</time>
      </trkpt>
      <trkpt lat="45.44856" lon="5.93022">
        <ele>1629.705839548</ele>
        <time>2015-06-11T13:52:55Z</time>
      </trkpt>
      <trkpt lat="45.44857" lon="5.93022">
        <ele>1629.705839548</ele>
        <time>2015-06-11T13:53:00Z</time>
      </trkpt>
      <trkpt lat="45.44857" lon="5.93023">
        <ele>1629.705839548</ele>
        <time>2015-06-11T13:53:05Z</time>
      </trkpt>
      <trkpt lat="45.44857" lon="5.93023">
        <ele>1629.705839548</ele>
        <time>2015-06-11T13:53:11Z</time>
      </trkpt>
      <trkpt lat="45.44857" lon="5.93022">
        <ele>1629.705839548</ele>
        <time>2015-06-11T13:53:15Z</time>
      </trkpt>
      <trkpt lat="45.44857" lon="5.93022">
        <ele>1629.705839548</ele>
        <time>2015-06-11T13:53:20Z</time>
      </trkpt>
      <trkpt lat="45.44857" lon="5.93022">
        <ele>1629.705839548</ele>
        <time>2015-06-11T13:53:25Z</time>
      </trkpt>
      <trkpt lat="45.44857" lon="5.93022">
        <ele>1629.705839548</ele>
        <time>2015-06-11T13:53:30Z</time>
      </trkpt>
      <trkpt lat="45.44857" lon="5.93023">
        <ele>1629.705839548</ele>
        <time>2015-06-11T13:53:35Z</time>
      </trkpt>
      <trkpt lat="45.44857" lon="5.93023">
        <ele>1629.705839548</ele>
        <time>2015-06-11T13:53:40Z</time>
      </trkpt>
      <trkpt lat="45.44857" lon="5.93023">
        <ele>1629.705839548</ele>
        <time>2015-06-11T13:53:45Z</time>
      </trkpt>
      <trkpt lat="45.44857" lon="5.93023">
        <ele>1629.705839548</ele>
        <time>2015-06-11T13:53:50Z</time>
      </trkpt>
      <trkpt lat="45.44857" lon="5.93023">
        <ele>1629.705839548</ele>
        <time>2015-06-11T13:53:55Z</time>
      </trkpt>
      <trkpt lat="45.44857" lon="5.93023">
        <ele>1629.705839548</ele>
        <time>2015-06-11T13:54:00Z</time>
      </trkpt>
      <trkpt lat="45.44857" lon="5.93023">
        <ele>1629.705839548</ele>
        <time>2015-06-11T13:54:05Z</time>
      </trkpt>
      <trkpt lat="45.44857" lon="5.93023">
        <ele>1629.705839548</ele>
        <time>2015-06-11T13:54:10Z</time>
      </trkpt>
      <trkpt lat="45.44857" lon="5.93023">
        <ele>1629.705839548</ele>
        <time>2015-06-11T13:54:15Z</time>
      </trkpt>
      <trkpt lat="45.44857" lon="5.93023">
        <ele>1629.705839548</ele>
        <time>2015-06-11T13:54:20Z</time>
      </trkpt>
      <trkpt lat="45.44859" lon="5.93026">
        <ele>1629.705839548</ele>
        <time>2015-06-11T13:54:25Z</time>
      </trkpt>
      <trkpt lat="45.44865" lon="5.93026">
        <ele>1631.562262109</ele>
        <time>2015-06-11T13:54:30Z</time>
      </trkpt>
      <trkpt lat="45.44867" lon="5.93025">
        <ele>1631.562262109</ele>
        <time>2015-06-11T13:54:35Z</time>
      </trkpt>
      <trkpt lat="45.44867" lon="5.93026">
        <ele>1631.562262109</ele>
        <time>2015-06-11T13:54:40Z</time>
      </trkpt>
      <trkpt lat="45.44868" lon="5.93026">
        <ele>1631.562262109</ele>
        <time>2015-06-11T13:54:45Z</time>
      </trkpt>
      <trkpt lat="45.44868" lon="5.93026">
        <ele>1631.562262109</ele>
        <time>2015-06-11T13:54:49Z</time>
      </trkpt>
      <trkpt lat="45.44868" lon="5.93027">
        <ele>1631.562262109</ele>
        <time>2015-06-11T13:54:55Z</time>
      </trkpt>
      <trkpt lat="45.44868" lon="5.93027">
        <ele>1631.562262109</ele>
        <time>2015-06-11T13:54:59Z</time>
      </trkpt>
      <trkpt lat="45.44868" lon="5.93027">
        <ele>1631.779052704</ele>
        <time>2015-06-11T13:55:06Z</time>
      </trkpt>
      <trkpt lat="45.44868" lon="5.93027">
        <ele>1631.995843299</ele>
        <time>2015-06-11T13:55:10Z</time>
      </trkpt>
      <trkpt lat="45.44868" lon="5.93028">
        <ele>1632.212633893</ele>
        <time>2015-06-11T13:55:15Z</time>
      </trkpt>
      <trkpt lat="45.44865" lon="5.93025">
        <ele>1632.429424488</ele>
        <time>2015-06-11T13:55:20Z</time>
      </trkpt>
      <trkpt lat="45.44866" lon="5.93024">
        <ele>1632.646215083</ele>
        <time>2015-06-11T13:55:26Z</time>
      </trkpt>
      <trkpt lat="45.44878" lon="5.93011">
        <ele>1632.863005677</ele>
        <time>2015-06-11T13:55:30Z</time>
      </trkpt>
      <trkpt lat="45.44878" lon="5.93009">
        <ele>1633.079796272</ele>
        <time>2015-06-11T13:55:36Z</time>
      </trkpt>
      <trkpt lat="45.44865" lon="5.9302">
        <ele>1633.296586867</ele>
        <time>2015-06-11T13:55:40Z</time>
      </trkpt>
      <trkpt lat="45.4486" lon="5.93017">
        <ele>1633.513377461</ele>
        <time>2015-06-11T13:55:45Z</time>
      </trkpt>
      <trkpt lat="45.44861" lon="5.9301">
        <ele>1633.730168056</ele>
        <time>2015-06-11T13:55:50Z</time>
      </trkpt>
      <trkpt lat="45.44858" lon="5.93005">
        <ele>1633.94695865</ele>
        <time>2015-06-11T13:55:55Z</time>
      </trkpt>
      <trkpt lat="45.44859" lon="5.92997">
        <ele>1634.163749245</ele>
        <time>2015-06-11T13:56:00Z</time>
      </trkpt>
      <trkpt lat="45.44857" lon="5.92996">
        <ele>1634.163749245</ele>
        <time>2015-06-11T13:56:06Z</time>
      </trkpt>
      <trkpt lat="45.44852" lon="5.92991">
        <ele>1634.163749245</ele>
        <time>2015-06-11T13:56:10Z</time>
      </trkpt>
      <trkpt lat="45.44851" lon="5.92985">
        <ele>1637.020166678</ele>
        <time>2015-06-11T13:56:15Z</time>
      </trkpt>
      <trkpt lat="45.4485" lon="5.92979">
        <ele>1637.020166678</ele>
        <time>2015-06-11T13:56:20Z</time>
      </trkpt>
      <trkpt lat="45.44848" lon="5.92971">
        <ele>1640.253189955</ele>
        <time>2015-06-11T13:56:25Z</time>
      </trkpt>
      <trkpt lat="45.44844" lon="5.92965">
        <ele>1640.253189955</ele>
        <time>2015-06-11T13:56:30Z</time>
      </trkpt>
      <trkpt lat="45.44842" lon="5.92956">
        <ele>1643.398135205</ele>
        <time>2015-06-11T13:56:35Z</time>
      </trkpt>
      <trkpt lat="45.44834" lon="5.92957">
        <ele>1643.398135205</ele>
        <time>2015-06-11T13:56:40Z</time>
      </trkpt>
      <trkpt lat="45.44833" lon="5.92958">
        <ele>1645.592452051</ele>
        <time>2015-06-11T13:56:45Z</time>
      </trkpt>
      <trkpt lat="45.44827" lon="5.92952">
        <ele>1645.592452051</ele>
        <time>2015-06-11T13:56:50Z</time>
      </trkpt>
      <trkpt lat="45.44824" lon="5.92943">
        <ele>1647.480818573</ele>
        <time>2015-06-11T13:56:56Z</time>
      </trkpt>
      <trkpt lat="45.44819" lon="5.92943">
        <ele>1647.480818573</ele>
        <time>2015-06-11T13:57:00Z</time>
      </trkpt>
      <trkpt lat="45.4482" lon="5.92936">
        <ele>1649.229167801</ele>
        <time>2015-06-11T13:57:05Z</time>
      </trkpt>
      <trkpt lat="45.44824" lon="5.92931">
        <ele>1649.229167801</ele>
        <time>2015-06-11T13:57:10Z</time>
      </trkpt>
      <trkpt lat="45.44822" lon="5.92932">
        <ele>1649.229167801</ele>
        <time>2015-06-11T13:57:15Z</time>
      </trkpt>
      <trkpt lat="45.44822" lon="5.92931">
        <ele>1649.229167801</ele>
        <time>2015-06-11T13:57:20Z</time>
      </trkpt>
      <trkpt lat="45.44819" lon="5.92927">
        <ele>1651.712278325</ele>
        <time>2015-06-11T13:57:25Z</time>
      </trkpt>
      <trkpt lat="45.44817" lon="5.92915">
        <ele>1653.865244431</ele>
        <time>2015-06-11T13:57:30Z</time>
      </trkpt>
      <trkpt lat="45.44805" lon="5.92917">
        <ele>1655.71117125</ele>
        <time>2015-06-11T13:57:35Z</time>
      </trkpt>
      <trkpt lat="45.44801" lon="5.92914">
        <ele>1655.71117125</ele>
        <time>2015-06-11T13:57:40Z</time>
      </trkpt>
      <trkpt lat="45.44798" lon="5.92903">
        <ele>1656.984180404</ele>
        <time>2015-06-11T13:57:45Z</time>
      </trkpt>
      <trkpt lat="45.44797" lon="5.92898">
        <ele>1656.984180404</ele>
        <time>2015-06-11T13:57:50Z</time>
      </trkpt>
      <trkpt lat="45.44794" lon="5.92896">
        <ele>1656.984180404</ele>
        <time>2015-06-11T13:57:55Z</time>
      </trkpt>
      <trkpt lat="45.44786" lon="5.92897">
        <ele>1658.304268497</ele>
        <time>2015-06-11T13:58:00Z</time>
      </trkpt>
      <trkpt lat="45.44784" lon="5.92892">
        <ele>1658.304268497</ele>
        <time>2015-06-11T13:58:05Z</time>
      </trkpt>
      <trkpt lat="45.44778" lon="5.92894">
        <ele>1659.813484565</ele>
        <time>2015-06-11T13:58:09Z</time>
      </trkpt>
      <trkpt lat="45.44779" lon="5.92894">
        <ele>1659.813484565</ele>
        <time>2015-06-11T13:58:15Z</time>
      </trkpt>
      <trkpt lat="45.44779" lon="5.92895">
        <ele>1659.813484565</ele>
        <time>2015-06-11T13:58:19Z</time>
      </trkpt>
      <trkpt lat="45.44778" lon="5.92896">
        <ele>1659.813484565</ele>
        <time>2015-06-11T13:58:25Z</time>
      </trkpt>
      <trkpt lat="45.44778" lon="5.92897">
        <ele>1659.813484565</ele>
        <time>2015-06-11T13:58:29Z</time>
      </trkpt>
      <trkpt lat="45.44778" lon="5.92897">
        <ele>1659.813484565</ele>
        <time>2015-06-11T13:58:35Z</time>
      </trkpt>
      <trkpt lat="45.44778" lon="5.92897">
        <ele>1659.813484565</ele>
        <time>2015-06-11T13:58:40Z</time>
      </trkpt>
      <trkpt lat="45.44778" lon="5.92897">
        <ele>1659.813484565</ele>
        <time>2015-06-11T13:58:45Z</time>
      </trkpt>
      <trkpt lat="45.44778" lon="5.92897">
        <ele>1659.813484565</ele>
        <time>2015-06-11T13:58:50Z</time>
      </trkpt>
      <trkpt lat="45.44778" lon="5.92897">
        <ele>1659.813484565</ele>
        <time>2015-06-11T13:58:55Z</time>
      </trkpt>
      <trkpt lat="45.44778" lon="5.92897">
        <ele>1659.813484565</ele>
        <time>2015-06-11T13:59:01Z</time>
      </trkpt>
      <trkpt lat="45.44784" lon="5.92896">
        <ele>1661.498856172</ele>
        <time>2015-06-11T13:59:05Z</time>
      </trkpt>
      <trkpt lat="45.44796" lon="5.92902">
        <ele>1662.195026566</ele>
        <time>2015-06-11T13:59:10Z</time>
      </trkpt>
      <trkpt lat="45.44802" lon="5.9291">
        <ele>1662.195026566</ele>
        <time>2015-06-11T13:59:15Z</time>
      </trkpt>
      <trkpt lat="45.44816" lon="5.9291">
        <ele>1661.977945544</ele>
        <time>2015-06-11T13:59:20Z</time>
      </trkpt>
      <trkpt lat="45.44814" lon="5.92918">
        <ele>1661.977945544</ele>
        <time>2015-06-11T13:59:25Z</time>
      </trkpt>
      <trkpt lat="45.44819" lon="5.92928">
        <ele>1661.208790381</ele>
        <time>2015-06-11T13:59:30Z</time>
      </trkpt>
      <trkpt lat="45.44824" lon="5.92939">
        <ele>1660.656094757</ele>
        <time>2015-06-11T13:59:35Z</time>
      </trkpt>
      <trkpt lat="45.44825" lon="5.92949">
        <ele>1660.656094757</ele>
        <time>2015-06-11T13:59:40Z</time>
      </trkpt>
      <trkpt lat="45.44821" lon="5.92949">
        <ele>1659.590203406</ele>
        <time>2015-06-11T13:59:45Z</time>
      </trkpt>
      <trkpt lat="45.44821" lon="5.92949">
        <ele>1659.590203406</ele>
        <time>2015-06-11T13:59:50Z</time>
      </trkpt>
      <trkpt lat="45.44821" lon="5.9295">
        <ele>1659.590203406</ele>
        <time>2015-06-11T13:59:55Z</time>
      </trkpt>
      <trkpt lat="45.44821" lon="5.9295">
        <ele>1659.590203406</ele>
        <time>2015-06-11T14:00:00Z</time>
      </trkpt>
      <trkpt lat="45.44821" lon="5.9295">
        <ele>1659.590203406</ele>
        <time>2015-06-11T14:00:06Z</time>
      </trkpt>
      <trkpt lat="45.44821" lon="5.9295">
        <ele>1659.590203406</ele>
        <time>2015-06-11T14:00:11Z</time>
      </trkpt>
      <trkpt lat="45.44823" lon="5.92951">
        <ele>1659.590203406</ele>
        <time>2015-06-11T14:00:15Z</time>
      </trkpt>
      <trkpt lat="45.44837" lon="5.92949">
        <ele>1658.201132129</ele>
        <time>2015-06-11T14:00:20Z</time>
      </trkpt>
      <trkpt lat="45.44841" lon="5.92964">
        <ele>1656.089341639</ele>
        <time>2015-06-11T14:00:25Z</time>
      </trkpt>
      <trkpt lat="45.44846" lon="5.92979">
        <ele>1653.607143239</ele>
        <time>2015-06-11T14:00:31Z</time>
      </trkpt>
      <trkpt lat="45.4485" lon="5.92991">
        <ele>1651.802455895</ele>
        <time>2015-06-11T14:00:35Z</time>
      </trkpt>
      <trkpt lat="45.44846" lon="5.93002">
        <ele>1651.802455895</ele>
        <time>2015-06-11T14:00:40Z</time>
      </trkpt>
      <trkpt lat="45.44845" lon="5.93006">
        <ele>1650.635411032</ele>
        <time>2015-06-11T14:00:45Z</time>
      </trkpt>
      <trkpt lat="45.44846" lon="5.93006">
        <ele>1650.635411032</ele>
        <time>2015-06-11T14:00:50Z</time>
      </trkpt>
      <trkpt lat="45.44846" lon="5.93006">
        <ele>1650.635411032</ele>
        <time>2015-06-11T14:00:56Z</time>
      </trkpt>
      <trkpt lat="45.44846" lon="5.93006">
        <ele>1650.635411032</ele>
        <time>2015-06-11T14:01:00Z</time>
      </trkpt>
      <trkpt lat="45.44846" lon="5.93006">
        <ele>1650.635411032</ele>
        <time>2015-06-11T14:01:05Z</time>
      </trkpt>
      <trkpt lat="45.44846" lon="5.93004">
        <ele>1650.635411032</ele>
        <time>2015-06-11T14:01:10Z</time>
      </trkpt>
      <trkpt lat="45.44847" lon="5.93003">
        <ele>1650.635411032</ele>
        <time>2015-06-11T14:01:15Z</time>
      </trkpt>
      <trkpt lat="45.44845" lon="5.93006">
        <ele>1650.635411032</ele>
        <time>2015-06-11T14:01:20Z</time>
      </trkpt>
      <trkpt lat="45.44846" lon="5.93006">
        <ele>1650.635411032</ele>
        <time>2015-06-11T14:01:25Z</time>
      </trkpt>
      <trkpt lat="45.44845" lon="5.93007">
        <ele>1650.635411032</ele>
        <time>2015-06-11T14:01:30Z</time>
      </trkpt>
      <trkpt lat="45.44845" lon="5.93007">
        <ele>1650.635411032</ele>
        <time>2015-06-11T14:01:34Z</time>
      </trkpt>
      <trkpt lat="45.44847" lon="5.93001">
        <ele>1649.490686247</ele>
        <time>2015-06-11T14:01:39Z</time>
      </trkpt>
      <trkpt lat="45.44848" lon="5.92987">
        <ele>1647.509709122</ele>
        <time>2015-06-11T14:01:45Z</time>
      </trkpt>
      <trkpt lat="45.44839" lon="5.92985">
        <ele>1647.509709122</ele>
        <time>2015-06-11T14:01:51Z</time>
      </trkpt>
      <trkpt lat="45.44832" lon="5.92983">
        <ele>1645.196142796</ele>
        <time>2015-06-11T14:01:55Z</time>
      </trkpt>
      <trkpt lat="45.4483" lon="5.92975">
        <ele>1645.196142796</ele>
        <time>2015-06-11T14:02:00Z</time>
      </trkpt>
      <trkpt lat="45.4483" lon="5.9297">
        <ele>1643.161500768</ele>
        <time>2015-06-11T14:02:05Z</time>
      </trkpt>
      <trkpt lat="45.44823" lon="5.92966">
        <ele>1643.161500768</ele>
        <time>2015-06-11T14:02:10Z</time>
      </trkpt>
      <trkpt lat="45.44818" lon="5.92965">
        <ele>1641.250827804</ele>
        <time>2015-06-11T14:02:15Z</time>
      </trkpt>
      <trkpt lat="45.44819" lon="5.92958">
        <ele>1641.250827804</ele>
        <time>2015-06-11T14:02:20Z</time>
      </trkpt>
      <trkpt lat="45.44811" lon="5.92957">
        <ele>1639.464092841</ele>
        <time>2015-06-11T14:02:25Z</time>
      </trkpt>
      <trkpt lat="45.4481" lon="5.92953">
        <ele>1639.464092841</ele>
        <time>2015-06-11T14:02:30Z</time>
      </trkpt>
      <trkpt lat="45.44802" lon="5.92954">
        <ele>1638.377132212</ele>
        <time>2015-06-11T14:02:35Z</time>
      </trkpt>
      <trkpt lat="45.44805" lon="5.92952">
        <ele>1638.377132212</ele>
        <time>2015-06-11T14:02:40Z</time>
      </trkpt>
      <trkpt lat="45.44804" lon="5.92953">
        <ele>1638.377132212</ele>
        <time>2015-06-11T14:02:45Z</time>
      </trkpt>
      <trkpt lat="45.44802" lon="5.92944">
        <ele>1636.936056802</ele>
        <time>2015-06-11T14:02:51Z</time>
      </trkpt>
      <trkpt lat="45.44797" lon="5.92943">
        <ele>1636.936056802</ele>
        <time>2015-06-11T14:02:55Z</time>
      </trkpt>
      <trkpt lat="45.44794" lon="5.92935">
        <ele>1635.894480285</ele>
        <time>2015-06-11T14:03:00Z</time>
      </trkpt>
      <trkpt lat="45.4479" lon="5.92932">
        <ele>1635.894480285</ele>
        <time>2015-06-11T14:03:05Z</time>
      </trkpt>
      <trkpt lat="45.4479" lon="5.92929">
        <ele>1635.894480285</ele>
        <time>2015-06-11T14:03:10Z</time>
      </trkpt>
      <trkpt lat="45.44788" lon="5.92931">
        <ele>1635.894480285</ele>
        <time>2015-06-11T14:03:16Z</time>
      </trkpt>
      <trkpt lat="45.44791" lon="5.92926">
        <ele>1635.661070653</ele>
        <time>2015-06-11T14:03:20Z</time>
      </trkpt>
      <trkpt lat="45.44792" lon="5.92925">
        <ele>1635.661070653</ele>
        <time>2015-06-11T14:03:25Z</time>
      </trkpt>
      <trkpt lat="45.44793" lon="5.92925">
        <ele>1635.661070653</ele>
        <time>2015-06-11T14:03:30Z</time>
      </trkpt>
      <trkpt lat="45.44791" lon="5.92925">
        <ele>1635.661070653</ele>
        <time>2015-06-11T14:03:35Z</time>
      </trkpt>
      <trkpt lat="45.4479" lon="5.92924">
        <ele>1635.661070653</ele>
        <time>2015-06-11T14:03:40Z</time>
      </trkpt>
      <trkpt lat="45.44792" lon="5.92922">
        <ele>1635.661070653</ele>
        <time>2015-06-11T14:03:45Z</time>
      </trkpt>
      <trkpt lat="45.44788" lon="5.92923">
        <ele>1635.026745029</ele>
        <time>2015-06-11T14:03:51Z</time>
      </trkpt>
      <trkpt lat="45.44783" lon="5.92922">
        <ele>1635.026745029</ele>
        <time>2015-06-11T14:03:55Z</time>
      </trkpt>
      <trkpt lat="45.44767" lon="5.92928">
        <ele>1634.60146196</ele>
        <time>2015-06-11T14:04:00Z</time>
      </trkpt>
      <trkpt lat="45.44774" lon="5.92921">
        <ele>1634.60146196</ele>
        <time>2015-06-11T14:04:05Z</time>
      </trkpt>
      <trkpt lat="45.44781" lon="5.92908">
        <ele>1634.517224264</ele>
        <time>2015-06-11T14:04:10Z</time>
      </trkpt>
      <trkpt lat="45.44781" lon="5.92901">
        <ele>1634.517224264</ele>
        <time>2015-06-11T14:04:15Z</time>
      </trkpt>
      <trkpt lat="45.44781" lon="5.92891">
        <ele>1634.318716198</ele>
        <time>2015-06-11T14:04:20Z</time>
      </trkpt>
      <trkpt lat="45.44782" lon="5.9288">
        <ele>1634.318716198</ele>
        <time>2015-06-11T14:04:25Z</time>
      </trkpt>
      <trkpt lat="45.44782" lon="5.92869">
        <ele>1634.592957237</ele>
        <time>2015-06-11T14:04:30Z</time>
      </trkpt>
      <trkpt lat="45.44773" lon="5.92868">
        <ele>1635.594097597</ele>
        <time>2015-06-11T14:04:35Z</time>
      </trkpt>
      <trkpt lat="45.44763" lon="5.92868">
        <ele>1636.546615692</ele>
        <time>2015-06-11T14:04:39Z</time>
      </trkpt>
      <trkpt lat="45.44761" lon="5.92863">
        <ele>1636.546615692</ele>
        <time>2015-06-11T14:04:45Z</time>
      </trkpt>
      <trkpt lat="45.44761" lon="5.92856">
        <ele>1637.164259485</ele>
        <time>2015-06-11T14:04:50Z</time>
      </trkpt>
      <trkpt lat="45.44751" lon="5.92856">
        <ele>1638.047257938</ele>
        <time>2015-06-11T14:04:55Z</time>
      </trkpt>
      <trkpt lat="45.4476" lon="5.9285">
        <ele>1639.030310334</ele>
        <time>2015-06-11T14:05:00Z</time>
      </trkpt>
      <trkpt lat="45.44774" lon="5.92825">
        <ele>1640.24807938</ele>
        <time>2015-06-11T14:05:05Z</time>
      </trkpt>
      <trkpt lat="45.44768" lon="5.92831">
        <ele>1640.24807938</ele>
        <time>2015-06-11T14:05:10Z</time>
      </trkpt>
      <trkpt lat="45.44757" lon="5.92838">
        <ele>1641.680460788</ele>
        <time>2015-06-11T14:05:15Z</time>
      </trkpt>
      <trkpt lat="45.44757" lon="5.92833">
        <ele>1641.680460788</ele>
        <time>2015-06-11T14:05:20Z</time>
      </trkpt>
      <trkpt lat="45.44754" lon="5.92831">
        <ele>1641.680460788</ele>
        <time>2015-06-11T14:05:25Z</time>
      </trkpt>
      <trkpt lat="45.4475" lon="5.92828">
        <ele>1642.587579602</ele>
        <time>2015-06-11T14:05:30Z</time>
      </trkpt>
      <trkpt lat="45.44747" lon="5.9283">
        <ele>1642.587579602</ele>
        <time>2015-06-11T14:05:35Z</time>
      </trkpt>
      <trkpt lat="45.44745" lon="5.92831">
        <ele>1642.587579602</ele>
        <time>2015-06-11T14:05:40Z</time>
      </trkpt>
      <trkpt lat="45.44744" lon="5.92832">
        <ele>1642.587579602</ele>
        <time>2015-06-11T14:05:45Z</time>
      </trkpt>
      <trkpt lat="45.44731" lon="5.92835">
        <ele>1643.294088283</ele>
        <time>2015-06-11T14:05:51Z</time>
      </trkpt>
      <trkpt lat="45.44733" lon="5.9283">
        <ele>1643.294088283</ele>
        <time>2015-06-11T14:05:55Z</time>
      </trkpt>
      <trkpt lat="45.44727" lon="5.92829">
        <ele>1643.957180089</ele>
        <time>2015-06-11T14:06:00Z</time>
      </trkpt>
      <trkpt lat="45.44726" lon="5.92821">
        <ele>1643.957180089</ele>
        <time>2015-06-11T14:06:05Z</time>
      </trkpt>
      <trkpt lat="45.44724" lon="5.92817">
        <ele>1644.434349058</ele>
        <time>2015-06-11T14:06:11Z</time>
      </trkpt>
      <trkpt lat="45.44721" lon="5.92815">
        <ele>1644.434349058</ele>
        <time>2015-06-11T14:06:15Z</time>
      </trkpt>
      <trkpt lat="45.44714" lon="5.92815">
        <ele>1644.449924426</ele>
        <time>2015-06-11T14:06:20Z</time>
      </trkpt>
      <trkpt lat="45.44707" lon="5.92812">
        <ele>1644.449924426</ele>
        <time>2015-06-11T14:06:25Z</time>
      </trkpt>
      <trkpt lat="45.44704" lon="5.92805">
        <ele>1644.470299114</ele>
        <time>2015-06-11T14:06:30Z</time>
      </trkpt>
      <trkpt lat="45.44694" lon="5.92809">
        <ele>1644.639336118</ele>
        <time>2015-06-11T14:06:35Z</time>
      </trkpt>
      <trkpt lat="45.44698" lon="5.92798">
        <ele>1644.639336118</ele>
        <time>2015-06-11T14:06:40Z</time>
      </trkpt>
      <trkpt lat="45.44704" lon="5.92786">
        <ele>1644.801661063</ele>
        <time>2015-06-11T14:06:45Z</time>
      </trkpt>
      <trkpt lat="45.44705" lon="5.92771">
        <ele>1645.822084655</ele>
        <time>2015-06-11T14:06:50Z</time>
      </trkpt>
      <trkpt lat="45.44699" lon="5.92767">
        <ele>1645.822084655</ele>
        <time>2015-06-11T14:06:55Z</time>
      </trkpt>
      <trkpt lat="45.44701" lon="5.9276">
        <ele>1647.778907543</ele>
        <time>2015-06-11T14:07:00Z</time>
      </trkpt>
      <trkpt lat="45.44695" lon="5.9276">
        <ele>1647.778907543</ele>
        <time>2015-06-11T14:07:05Z</time>
      </trkpt>
      <trkpt lat="45.44687" lon="5.92759">
        <ele>1649.589153297</ele>
        <time>2015-06-11T14:07:10Z</time>
      </trkpt>
      <trkpt lat="45.44682" lon="5.92754">
        <ele>1649.589153297</ele>
        <time>2015-06-11T14:07:15Z</time>
      </trkpt>
      <trkpt lat="45.44679" lon="5.92752">
        <ele>1651.402704187</ele>
        <time>2015-06-11T14:07:20Z</time>
      </trkpt>
      <trkpt lat="45.44675" lon="5.92752">
        <ele>1651.402704187</ele>
        <time>2015-06-11T14:07:25Z</time>
      </trkpt>
      <trkpt lat="45.44674" lon="5.9274">
        <ele>1653.070217809</ele>
        <time>2015-06-11T14:07:30Z</time>
      </trkpt>
      <trkpt lat="45.44673" lon="5.92734">
        <ele>1653.070217809</ele>
        <time>2015-06-11T14:07:35Z</time>
      </trkpt>
      <trkpt lat="45.44666" lon="5.92737">
        <ele>1654.597873691</ele>
        <time>2015-06-11T14:07:39Z</time>
      </trkpt>
      <trkpt lat="45.44664" lon="5.92735">
        <ele>1654.597873691</ele>
        <time>2015-06-11T14:07:46Z</time>
      </trkpt>
      <trkpt lat="45.44664" lon="5.9273">
        <ele>1654.597873691</ele>
        <time>2015-06-11T14:07:50Z</time>
      </trkpt>
      <trkpt lat="45.44664" lon="5.92721">
        <ele>1655.271274408</ele>
        <time>2015-06-11T14:07:55Z</time>
      </trkpt>
      <trkpt lat="45.44666" lon="5.92711">
        <ele>1655.271274408</ele>
        <time>2015-06-11T14:08:00Z</time>
      </trkpt>
      <trkpt lat="45.4466" lon="5.9271">
        <ele>1656.016169038</ele>
        <time>2015-06-11T14:08:06Z</time>
      </trkpt>
      <trkpt lat="45.44659" lon="5.92709">
        <ele>1656.016169038</ele>
        <time>2015-06-11T14:08:11Z</time>
      </trkpt>
      <trkpt lat="45.44655" lon="5.92705">
        <ele>1656.016169038</ele>
        <time>2015-06-11T14:08:15Z</time>
      </trkpt>
      <trkpt lat="45.44651" lon="5.92704">
        <ele>1656.104929821</ele>
        <time>2015-06-11T14:08:20Z</time>
      </trkpt>
      <trkpt lat="45.44649" lon="5.92696">
        <ele>1656.104929821</ele>
        <time>2015-06-11T14:08:25Z</time>
      </trkpt>
      <trkpt lat="45.44654" lon="5.92687">
        <ele>1655.585827551</ele>
        <time>2015-06-11T14:08:30Z</time>
      </trkpt>
      <trkpt lat="45.44645" lon="5.92687">
        <ele>1655.585827551</ele>
        <time>2015-06-11T14:08:35Z</time>
      </trkpt>
      <trkpt lat="45.44641" lon="5.92682">
        <ele>1655.658229762</ele>
        <time>2015-06-11T14:08:40Z</time>
      </trkpt>
      <trkpt lat="45.44639" lon="5.92672">
        <ele>1655.658229762</ele>
        <time>2015-06-11T14:08:46Z</time>
      </trkpt>
      <trkpt lat="45.44637" lon="5.92667">
        <ele>1656.56711794</ele>
        <time>2015-06-11T14:08:50Z</time>
      </trkpt>
      <trkpt lat="45.44636" lon="5.92659">
        <ele>1656.56711794</ele>
        <time>2015-06-11T14:08:55Z</time>
      </trkpt>
      <trkpt lat="45.44634" lon="5.92659">
        <ele>1656.56711794</ele>
        <time>2015-06-11T14:09:00Z</time>
      </trkpt>
      <trkpt lat="45.44633" lon="5.92658">
        <ele>1656.56711794</ele>
        <time>2015-06-11T14:09:05Z</time>
      </trkpt>
      <trkpt lat="45.44627" lon="5.9266">
        <ele>1656.951949517</ele>
        <time>2015-06-11T14:09:10Z</time>
      </trkpt>
      <trkpt lat="45.44626" lon="5.92663">
        <ele>1656.951949517</ele>
        <time>2015-06-11T14:09:15Z</time>
      </trkpt>
      <trkpt lat="45.44621" lon="5.92672">
        <ele>1656.706524459</ele>
        <time>2015-06-11T14:09:20Z</time>
      </trkpt>
      <trkpt lat="45.44628" lon="5.92666">
        <ele>1656.706524459</ele>
        <time>2015-06-11T14:09:25Z</time>
      </trkpt>
      <trkpt lat="45.44626" lon="5.92668">
        <ele>1655.878358265</ele>
        <time>2015-06-11T14:09:30Z</time>
      </trkpt>
      <trkpt lat="45.44628" lon="5.92667">
        <ele>1655.878358265</ele>
        <time>2015-06-11T14:09:36Z</time>
      </trkpt>
      <trkpt lat="45.44631" lon="5.92665">
        <ele>1655.878358265</ele>
        <time>2015-06-11T14:09:40Z</time>
      </trkpt>
      <trkpt lat="45.4463" lon="5.92665">
        <ele>1655.878358265</ele>
        <time>2015-06-11T14:09:45Z</time>
      </trkpt>
      <trkpt lat="45.4463" lon="5.92666">
        <ele>1655.878358265</ele>
        <time>2015-06-11T14:09:50Z</time>
      </trkpt>
      <trkpt lat="45.44633" lon="5.92655">
        <ele>1655.089585075</ele>
        <time>2015-06-11T14:09:55Z</time>
      </trkpt>
      <trkpt lat="45.44629" lon="5.92657">
        <ele>1655.089585075</ele>
        <time>2015-06-11T14:10:00Z</time>
      </trkpt>
      <trkpt lat="45.44625" lon="5.92659">
        <ele>1655.089585075</ele>
        <time>2015-06-11T14:10:05Z</time>
      </trkpt>
      <trkpt lat="45.44623" lon="5.92659">
        <ele>1655.49299527</ele>
        <time>2015-06-11T14:10:10Z</time>
      </trkpt>
      <trkpt lat="45.44623" lon="5.9266">
        <ele>1655.49299527</ele>
        <time>2015-06-11T14:10:15Z</time>
      </trkpt>
      <trkpt lat="45.44623" lon="5.9266">
        <ele>1655.49299527</ele>
        <time>2015-06-11T14:10:20Z</time>
      </trkpt>
      <trkpt lat="45.44623" lon="5.9266">
        <ele>1655.49299527</ele>
        <time>2015-06-11T14:10:25Z</time>
      </trkpt>
      <trkpt lat="45.44623" lon="5.9266">
        <ele>1655.49299527</ele>
        <time>2015-06-11T14:10:30Z</time>
      </trkpt>
      <trkpt lat="45.44623" lon="5.9266">
        <ele>1655.49299527</ele>
        <time>2015-06-11T14:10:35Z</time>
      </trkpt>
      <trkpt lat="45.44623" lon="5.9266">
        <ele>1655.49299527</ele>
        <time>2015-06-11T14:10:40Z</time>
      </trkpt>
      <trkpt lat="45.44623" lon="5.9266">
        <ele>1655.49299527</ele>
        <time>2015-06-11T14:10:45Z</time>
      </trkpt>
      <trkpt lat="45.44623" lon="5.9266">
        <ele>1655.49299527</ele>
        <time>2015-06-11T14:10:50Z</time>
      </trkpt>
      <trkpt lat="45.44623" lon="5.9266">
        <ele>1655.49299527</ele>
        <time>2015-06-11T14:10:54Z</time>
      </trkpt>
      <trkpt lat="45.44623" lon="5.9266">
        <ele>1655.49299527</ele>
        <time>2015-06-11T14:10:59Z</time>
      </trkpt>
      <trkpt lat="45.44623" lon="5.9266">
        <ele>1655.49299527</ele>
        <time>2015-06-11T14:11:05Z</time>
      </trkpt>
      <trkpt lat="45.44623" lon="5.9266">
        <ele>1655.49299527</ele>
        <time>2015-06-11T14:11:10Z</time>
      </trkpt>
      <trkpt lat="45.44623" lon="5.9266">
        <ele>1655.49299527</ele>
        <time>2015-06-11T14:11:15Z</time>
      </trkpt>
      <trkpt lat="45.44623" lon="5.9266">
        <ele>1655.49299527</ele>
        <time>2015-06-11T14:11:20Z</time>
      </trkpt>
      <trkpt lat="45.44623" lon="5.9266">
        <ele>1655.49299527</ele>
        <time>2015-06-11T14:11:26Z</time>
      </trkpt>
      <trkpt lat="45.44623" lon="5.92661">
        <ele>1655.49299527</ele>
        <time>2015-06-11T14:11:31Z</time>
      </trkpt>
      <trkpt lat="45.4463" lon="5.92659">
        <ele>1655.49299527</ele>
        <time>2015-06-11T14:11:35Z</time>
      </trkpt>
      <trkpt lat="45.44636" lon="5.92662">
        <ele>1655.991701932</ele>
        <time>2015-06-11T14:11:40Z</time>
      </trkpt>
      <trkpt lat="45.44642" lon="5.92668">
        <ele>1655.991701932</ele>
        <time>2015-06-11T14:11:45Z</time>
      </trkpt>
      <trkpt lat="45.4465" lon="5.92672">
        <ele>1655.425028866</ele>
        <time>2015-06-11T14:11:50Z</time>
      </trkpt>
      <trkpt lat="45.44655" lon="5.92687">
        <ele>1654.882227477</ele>
        <time>2015-06-11T14:11:55Z</time>
      </trkpt>
      <trkpt lat="45.44662" lon="5.92697">
        <ele>1654.940138932</ele>
        <time>2015-06-11T14:12:00Z</time>
      </trkpt>
      <trkpt lat="45.44667" lon="5.92704">
        <ele>1654.940138932</ele>
        <time>2015-06-11T14:12:05Z</time>
      </trkpt>
      <trkpt lat="45.44672" lon="5.92706">
        <ele>1654.690434864</ele>
        <time>2015-06-11T14:12:10Z</time>
      </trkpt>
      <trkpt lat="45.44674" lon="5.92714">
        <ele>1654.690434864</ele>
        <time>2015-06-11T14:12:15Z</time>
      </trkpt>
      <trkpt lat="45.44672" lon="5.92718">
        <ele>1654.445261649</ele>
        <time>2015-06-11T14:12:20Z</time>
      </trkpt>
      <trkpt lat="45.44674" lon="5.92726">
        <ele>1654.445261649</ele>
        <time>2015-06-11T14:12:25Z</time>
      </trkpt>
      <trkpt lat="45.44679" lon="5.92723">
        <ele>1653.917371322</ele>
        <time>2015-06-11T14:12:30Z</time>
      </trkpt>
      <trkpt lat="45.44682" lon="5.92726">
        <ele>1653.917371322</ele>
        <time>2015-06-11T14:12:35Z</time>
      </trkpt>
      <trkpt lat="45.44684" lon="5.92732">
        <ele>1653.917371322</ele>
        <time>2015-06-11T14:12:40Z</time>
      </trkpt>
      <trkpt lat="45.44683" lon="5.92744">
        <ele>1653.561955449</ele>
        <time>2015-06-11T14:12:45Z</time>
      </trkpt>
      <trkpt lat="45.44686" lon="5.92749">
        <ele>1653.561955449</ele>
        <time>2015-06-11T14:12:50Z</time>
      </trkpt>
      <trkpt lat="45.44689" lon="5.92755">
        <ele>1653.223824487</ele>
        <time>2015-06-11T14:12:55Z</time>
      </trkpt>
      <trkpt lat="45.4469" lon="5.92766">
        <ele>1653.223824487</ele>
        <time>2015-06-11T14:13:01Z</time>
      </trkpt>
      <trkpt lat="45.44691" lon="5.92778">
        <ele>1652.182676302</ele>
        <time>2015-06-11T14:13:05Z</time>
      </trkpt>
      <trkpt lat="45.44694" lon="5.92782">
        <ele>1652.182676302</ele>
        <time>2015-06-11T14:13:10Z</time>
      </trkpt>
      <trkpt lat="45.44695" lon="5.9279">
        <ele>1651.214180545</ele>
        <time>2015-06-11T14:13:15Z</time>
      </trkpt>
      <trkpt lat="45.44701" lon="5.92795">
        <ele>1651.214180545</ele>
        <time>2015-06-11T14:13:21Z</time>
      </trkpt>
      <trkpt lat="45.44709" lon="5.92798">
        <ele>1650.604458887</ele>
        <time>2015-06-11T14:13:25Z</time>
      </trkpt>
      <trkpt lat="45.44713" lon="5.92803">
        <ele>1650.604458887</ele>
        <time>2015-06-11T14:13:30Z</time>
      </trkpt>
      <trkpt lat="45.44713" lon="5.92808">
        <ele>1650.604458887</ele>
        <time>2015-06-11T14:13:35Z</time>
      </trkpt>
      <trkpt lat="45.44718" lon="5.92816">
        <ele>1649.032347607</ele>
        <time>2015-06-11T14:13:40Z</time>
      </trkpt>
      <trkpt lat="45.44721" lon="5.92822">
        <ele>1649.032347607</ele>
        <time>2015-06-11T14:13:45Z</time>
      </trkpt>
      <trkpt lat="45.44729" lon="5.9282">
        <ele>1647.72627919</ele>
        <time>2015-06-11T14:13:50Z</time>
      </trkpt>
      <trkpt lat="45.44732" lon="5.92827">
        <ele>1647.72627919</ele>
        <time>2015-06-11T14:13:55Z</time>
      </trkpt>
      <trkpt lat="45.44736" lon="5.92832">
        <ele>1646.526646579</ele>
        <time>2015-06-11T14:14:01Z</time>
      </trkpt>
      <trkpt lat="45.4474" lon="5.92835">
        <ele>1646.526646579</ele>
        <time>2015-06-11T14:14:05Z</time>
      </trkpt>
      <trkpt lat="45.44743" lon="5.92837">
        <ele>1646.526646579</ele>
        <time>2015-06-11T14:14:09Z</time>
      </trkpt>
      <trkpt lat="45.44751" lon="5.92841">
        <ele>1645.573431263</ele>
        <time>2015-06-11T14:14:16Z</time>
      </trkpt>
      <trkpt lat="45.44757" lon="5.92841">
        <ele>1645.573431263</ele>
        <time>2015-06-11T14:14:20Z</time>
      </trkpt>
      <trkpt lat="45.44761" lon="5.92852">
        <ele>1644.707351923</ele>
        <time>2015-06-11T14:14:26Z</time>
      </trkpt>
      <trkpt lat="45.44763" lon="5.92854">
        <ele>1644.707351923</ele>
        <time>2015-06-11T14:14:30Z</time>
      </trkpt>
      <trkpt lat="45.44764" lon="5.9286">
        <ele>1644.707351923</ele>
        <time>2015-06-11T14:14:35Z</time>
      </trkpt>
      <trkpt lat="45.44769" lon="5.92868">
        <ele>1643.924624049</ele>
        <time>2015-06-11T14:14:40Z</time>
      </trkpt>
      <trkpt lat="45.44774" lon="5.92874">
        <ele>1643.924624049</ele>
        <time>2015-06-11T14:14:45Z</time>
      </trkpt>
      <trkpt lat="45.44778" lon="5.92879">
        <ele>1642.789099673</ele>
        <time>2015-06-11T14:14:51Z</time>
      </trkpt>
      <trkpt lat="45.4478" lon="5.92882">
        <ele>1642.789099673</ele>
        <time>2015-06-11T14:14:55Z</time>
      </trkpt>
      <trkpt lat="45.44785" lon="5.92888">
        <ele>1641.32991568</ele>
        <time>2015-06-11T14:15:00Z</time>
      </trkpt>
      <trkpt lat="45.44789" lon="5.92896">
        <ele>1641.32991568</ele>
        <time>2015-06-11T14:15:05Z</time>
      </trkpt>
      <trkpt lat="45.44788" lon="5.92907">
        <ele>1640.151340404</ele>
        <time>2015-06-11T14:15:10Z</time>
      </trkpt>
      <trkpt lat="45.44788" lon="5.92908">
        <ele>1640.151340404</ele>
        <time>2015-06-11T14:15:15Z</time>
      </trkpt>
      <trkpt lat="45.44789" lon="5.92909">
        <ele>1640.151340404</ele>
        <time>2015-06-11T14:15:20Z</time>
      </trkpt>
      <trkpt lat="45.44791" lon="5.92907">
        <ele>1640.151340404</ele>
        <time>2015-06-11T14:15:25Z</time>
      </trkpt>
      <trkpt lat="45.44795" lon="5.92906">
        <ele>1640.151340404</ele>
        <time>2015-06-11T14:15:30Z</time>
      </trkpt>
      <trkpt lat="45.44794" lon="5.92906">
        <ele>1638.515380047</ele>
        <time>2015-06-11T14:15:35Z</time>
      </trkpt>
      <trkpt lat="45.44797" lon="5.92904">
        <ele>1638.515380047</ele>
        <time>2015-06-11T14:15:40Z</time>
      </trkpt>
      <trkpt lat="45.44797" lon="5.92904">
        <ele>1638.515380047</ele>
        <time>2015-06-11T14:15:45Z</time>
      </trkpt>
      <trkpt lat="45.44797" lon="5.92904">
        <ele>1638.515380047</ele>
        <time>2015-06-11T14:15:50Z</time>
      </trkpt>
      <trkpt lat="45.448" lon="5.92909">
        <ele>1638.515380047</ele>
        <time>2015-06-11T14:15:55Z</time>
      </trkpt>
      <trkpt lat="45.44805" lon="5.92919">
        <ele>1636.1717785</ele>
        <time>2015-06-11T14:16:00Z</time>
      </trkpt>
      <trkpt lat="45.44806" lon="5.92921">
        <ele>1636.1717785</ele>
        <time>2015-06-11T14:16:05Z</time>
      </trkpt>
      <trkpt lat="45.44807" lon="5.92923">
        <ele>1636.1717785</ele>
        <time>2015-06-11T14:16:10Z</time>
      </trkpt>
      <trkpt lat="45.44808" lon="5.92936">
        <ele>1634.18755082</ele>
        <time>2015-06-11T14:16:15Z</time>
      </trkpt>
      <trkpt lat="45.44809" lon="5.92937">
        <ele>1634.18755082</ele>
        <time>2015-06-11T14:16:20Z</time>
      </trkpt>
      <trkpt lat="45.44809" lon="5.92937">
        <ele>1634.18755082</ele>
        <time>2015-06-11T14:16:25Z</time>
      </trkpt>
      <trkpt lat="45.4481" lon="5.92936">
        <ele>1634.18755082</ele>
        <time>2015-06-11T14:16:30Z</time>
      </trkpt>
      <trkpt lat="45.4481" lon="5.92936">
        <ele>1634.18755082</ele>
        <time>2015-06-11T14:16:35Z</time>
      </trkpt>
      <trkpt lat="45.44813" lon="5.92943">
        <ele>1634.18755082</ele>
        <time>2015-06-11T14:16:40Z</time>
      </trkpt>
      <trkpt lat="45.44818" lon="5.92949">
        <ele>1632.397327139</ele>
        <time>2015-06-11T14:16:45Z</time>
      </trkpt>
      <trkpt lat="45.44823" lon="5.92955">
        <ele>1632.397327139</ele>
        <time>2015-06-11T14:16:50Z</time>
      </trkpt>
      <trkpt lat="45.44828" lon="5.92954">
        <ele>1630.35900623</ele>
        <time>2015-06-11T14:16:55Z</time>
      </trkpt>
      <trkpt lat="45.44827" lon="5.92957">
        <ele>1630.35900623</ele>
        <time>2015-06-11T14:17:00Z</time>
      </trkpt>
      <trkpt lat="45.44827" lon="5.92958">
        <ele>1630.35900623</ele>
        <time>2015-06-11T14:17:05Z</time>
      </trkpt>
      <trkpt lat="45.44828" lon="5.92958">
        <ele>1630.35900623</ele>
        <time>2015-06-11T14:17:09Z</time>
      </trkpt>
      <trkpt lat="45.44836" lon="5.92963">
        <ele>1628.23998424</ele>
        <time>2015-06-11T14:17:16Z</time>
      </trkpt>
      <trkpt lat="45.44835" lon="5.92975">
        <ele>1628.23998424</ele>
        <time>2015-06-11T14:17:20Z</time>
      </trkpt>
      <trkpt lat="45.44841" lon="5.92977">
        <ele>1626.62779563</ele>
        <time>2015-06-11T14:17:25Z</time>
      </trkpt>
      <trkpt lat="45.44842" lon="5.92989">
        <ele>1626.62779563</ele>
        <time>2015-06-11T14:17:30Z</time>
      </trkpt>
      <trkpt lat="45.44846" lon="5.92993">
        <ele>1625.921154824</ele>
        <time>2015-06-11T14:17:35Z</time>
      </trkpt>
      <trkpt lat="45.44847" lon="5.93004">
        <ele>1625.921154824</ele>
        <time>2015-06-11T14:17:40Z</time>
      </trkpt>
      <trkpt lat="45.44842" lon="5.93011">
        <ele>1625.478041729</ele>
        <time>2015-06-11T14:17:45Z</time>
      </trkpt>
      <trkpt lat="45.44842" lon="5.93005">
        <ele>1625.478041729</ele>
        <time>2015-06-11T14:17:50Z</time>
      </trkpt>
      <trkpt lat="45.44852" lon="5.93005">
        <ele>1624.702736011</ele>
        <time>2015-06-11T14:17:55Z</time>
      </trkpt>
      <trkpt lat="45.4486" lon="5.93005">
        <ele>1624.702736011</ele>
        <time>2015-06-11T14:18:00Z</time>
      </trkpt>
      <trkpt lat="45.44867" lon="5.93007">
        <ele>1623.908760098</ele>
        <time>2015-06-11T14:18:05Z</time>
      </trkpt>
      <trkpt lat="45.44867" lon="5.93012">
        <ele>1623.908760098</ele>
        <time>2015-06-11T14:18:10Z</time>
      </trkpt>
      <trkpt lat="45.44864" lon="5.9302">
        <ele>1623.530659046</ele>
        <time>2015-06-11T14:18:15Z</time>
      </trkpt>
      <trkpt lat="45.44869" lon="5.93026">
        <ele>1623.530659046</ele>
        <time>2015-06-11T14:18:20Z</time>
      </trkpt>
      <trkpt lat="45.4487" lon="5.93019">
        <ele>1623.105120636</ele>
        <time>2015-06-11T14:18:25Z</time>
      </trkpt>
      <trkpt lat="45.44873" lon="5.93029">
        <ele>1623.105120636</ele>
        <time>2015-06-11T14:18:31Z</time>
      </trkpt>
      <trkpt lat="45.44876" lon="5.93039">
        <ele>1622.491127744</ele>
        <time>2015-06-11T14:18:35Z</time>
      </trkpt>
      <trkpt lat="45.44875" lon="5.93041">
        <ele>1622.491127744</ele>
        <time>2015-06-11T14:18:41Z</time>
      </trkpt>
      <trkpt lat="45.44874" lon="5.9305">
        <ele>1622.491127744</ele>
        <time>2015-06-11T14:18:45Z</time>
      </trkpt>
      <trkpt lat="45.44874" lon="5.93049">
        <ele>1622.477871008</ele>
        <time>2015-06-11T14:18:50Z</time>
      </trkpt>
      <trkpt lat="45.44874" lon="5.93049">
        <ele>1622.464614272</ele>
        <time>2015-06-11T14:18:55Z</time>
      </trkpt>
      <trkpt lat="45.44874" lon="5.93049">
        <ele>1622.451357536</ele>
        <time>2015-06-11T14:19:00Z</time>
      </trkpt>
      <trkpt lat="45.44874" lon="5.93049">
        <ele>1622.438100799</ele>
        <time>2015-06-11T14:19:05Z</time>
      </trkpt>
      <trkpt lat="45.44874" lon="5.9305">
        <ele>1622.424844063</ele>
        <time>2015-06-11T14:19:10Z</time>
      </trkpt>
      <trkpt lat="45.44874" lon="5.9305">
        <ele>1622.411587327</ele>
        <time>2015-06-11T14:19:15Z</time>
      </trkpt>
      <trkpt lat="45.44874" lon="5.93049">
        <ele>1622.398330591</ele>
        <time>2015-06-11T14:19:21Z</time>
      </trkpt>
      <trkpt lat="45.44874" lon="5.93049">
        <ele>1622.385073855</ele>
        <time>2015-06-11T14:19:25Z</time>
      </trkpt>
      <trkpt lat="45.44874" lon="5.93049">
        <ele>1622.371817119</ele>
        <time>2015-06-11T14:19:30Z</time>
      </trkpt>
      <trkpt lat="45.44874" lon="5.93049">
        <ele>1622.358560383</ele>
        <time>2015-06-11T14:19:35Z</time>
      </trkpt>
      <trkpt lat="45.44874" lon="5.93049">
        <ele>1622.345303646</ele>
        <time>2015-06-11T14:19:40Z</time>
      </trkpt>
      <trkpt lat="45.44874" lon="5.93049">
        <ele>1622.33204691</ele>
        <time>2015-06-11T14:19:45Z</time>
      </trkpt>
      <trkpt lat="45.44874" lon="5.93049">
        <ele>1622.318790174</ele>
        <time>2015-06-11T14:19:50Z</time>
      </trkpt>
      <trkpt lat="45.44873" lon="5.9305">
        <ele>1622.305533438</ele>
        <time>2015-06-11T14:19:55Z</time>
      </trkpt>
      <trkpt lat="45.44874" lon="5.93049">
        <ele>1622.292276702</ele>
        <time>2015-06-11T14:20:00Z</time>
      </trkpt>
      <trkpt lat="45.44875" lon="5.93049">
        <ele>1622.279019966</ele>
        <time>2015-06-11T14:20:05Z</time>
      </trkpt>
      <trkpt lat="45.44876" lon="5.93048">
        <ele>1622.279019966</ele>
        <time>2015-06-11T14:20:09Z</time>
      </trkpt>
      <trkpt lat="45.44876" lon="5.93048">
        <ele>1622.279019966</ele>
        <time>2015-06-11T14:20:15Z</time>
      </trkpt>
      <trkpt lat="45.44876" lon="5.93048">
        <ele>1622.279019966</ele>
        <time>2015-06-11T14:20:19Z</time>
      </trkpt>
      <trkpt lat="45.44876" lon="5.93048">
        <ele>1622.279019966</ele>
        <time>2015-06-11T14:20:24Z</time>
      </trkpt>
      <trkpt lat="45.44877" lon="5.93048">
        <ele>1622.279019966</ele>
        <time>2015-06-11T14:20:31Z</time>
      </trkpt>
      <trkpt lat="45.44877" lon="5.93048">
        <ele>1622.279019966</ele>
        <time>2015-06-11T14:20:35Z</time>
      </trkpt>
      <trkpt lat="45.44877" lon="5.93048">
        <ele>1622.279019966</ele>
        <time>2015-06-11T14:20:40Z</time>
      </trkpt>
      <trkpt lat="45.44877" lon="5.93048">
        <ele>1622.279019966</ele>
        <time>2015-06-11T14:20:45Z</time>
      </trkpt>
      <trkpt lat="45.44877" lon="5.93048">
        <ele>1622.279019966</ele>
        <time>2015-06-11T14:20:50Z</time>
      </trkpt>
      <trkpt lat="45.44877" lon="5.93048">
        <ele>1622.279019966</ele>
        <time>2015-06-11T14:20:55Z</time>
      </trkpt>
      <trkpt lat="45.44877" lon="5.93048">
        <ele>1622.279019966</ele>
        <time>2015-06-11T14:21:00Z</time>
      </trkpt>
      <trkpt lat="45.44877" lon="5.93048">
        <ele>1622.279019966</ele>
        <time>2015-06-11T14:21:05Z</time>
      </trkpt>
      <trkpt lat="45.44877" lon="5.93048">
        <ele>1622.279019966</ele>
        <time>2015-06-11T14:21:10Z</time>
      </trkpt>
      <trkpt lat="45.44877" lon="5.93048">
        <ele>1622.279019966</ele>
        <time>2015-06-11T14:21:15Z</time>
      </trkpt>
      <trkpt lat="45.44877" lon="5.93048">
        <ele>1622.279019966</ele>
        <time>2015-06-11T14:21:20Z</time>
      </trkpt>
      <trkpt lat="45.44877" lon="5.93048">
        <ele>1622.279019966</ele>
        <time>2015-06-11T14:21:25Z</time>
      </trkpt>
      <trkpt lat="45.44877" lon="5.93048">
        <ele>1622.279019966</ele>
        <time>2015-06-11T14:21:30Z</time>
      </trkpt>
      <trkpt lat="45.44877" lon="5.93048">
        <ele>1622.279019966</ele>
        <time>2015-06-11T14:21:35Z</time>
      </trkpt>
      <trkpt lat="45.44877" lon="5.93048">
        <ele>1622.279019966</ele>
        <time>2015-06-11T14:21:40Z</time>
      </trkpt>
      <trkpt lat="45.44877" lon="5.93048">
        <ele>1622.279019966</ele>
        <time>2015-06-11T14:21:45Z</time>
      </trkpt>
      <trkpt lat="45.44877" lon="5.93048">
        <ele>1622.279019966</ele>
        <time>2015-06-11T14:21:50Z</time>
      </trkpt>
      <trkpt lat="45.44877" lon="5.93049">
        <ele>1622.279019966</ele>
        <time>2015-06-11T14:21:55Z</time>
      </trkpt>
      <trkpt lat="45.44881" lon="5.9305">
        <ele>1622.279019966</ele>
        <time>2015-06-11T14:22:00Z</time>
      </trkpt>
      <trkpt lat="45.44888" lon="5.93066">
        <ele>1620.276449795</ele>
        <time>2015-06-11T14:22:05Z</time>
      </trkpt>
      <trkpt lat="45.4489" lon="5.93078">
        <ele>1617.62750718</ele>
        <time>2015-06-11T14:22:11Z</time>
      </trkpt>
      <trkpt lat="45.44893" lon="5.93087">
        <ele>1617.62750718</ele>
        <time>2015-06-11T14:22:15Z</time>
      </trkpt>
      <trkpt lat="45.44899" lon="5.93094">
        <ele>1614.817524749</ele>
        <time>2015-06-11T14:22:20Z</time>
      </trkpt>
      <trkpt lat="45.44901" lon="5.93109">
        <ele>1614.313329206</ele>
        <time>2015-06-11T14:22:25Z</time>
      </trkpt>
      <trkpt lat="45.44913" lon="5.93117">
        <ele>1613.809133663</ele>
        <time>2015-06-11T14:22:30Z</time>
      </trkpt>
      <trkpt lat="45.44906" lon="5.93138">
        <ele>1613.304938121</ele>
        <time>2015-06-11T14:22:35Z</time>
      </trkpt>
      <trkpt lat="45.44909" lon="5.93149">
        <ele>1612.800742578</ele>
        <time>2015-06-11T14:22:40Z</time>
      </trkpt>
      <trkpt lat="45.44921" lon="5.93147">
        <ele>1612.296547036</ele>
        <time>2015-06-11T14:22:45Z</time>
      </trkpt>
      <trkpt lat="45.44921" lon="5.9315">
        <ele>1612.296547036</ele>
        <time>2015-06-11T14:22:50Z</time>
      </trkpt>
      <trkpt lat="45.44922" lon="5.93152">
        <ele>1612.296547036</ele>
        <time>2015-06-11T14:22:55Z</time>
      </trkpt>
      <trkpt lat="45.44923" lon="5.93153">
        <ele>1612.296547036</ele>
        <time>2015-06-11T14:23:01Z</time>
      </trkpt>
      <trkpt lat="45.44923" lon="5.93153">
        <ele>1612.296547036</ele>
        <time>2015-06-11T14:23:05Z</time>
      </trkpt>
      <trkpt lat="45.44919" lon="5.93158">
        <ele>1610.624764056</ele>
        <time>2015-06-11T14:23:10Z</time>
      </trkpt>
      <trkpt lat="45.44921" lon="5.93159">
        <ele>1610.624764056</ele>
        <time>2015-06-11T14:23:15Z</time>
      </trkpt>
      <trkpt lat="45.44922" lon="5.9316">
        <ele>1610.624764056</ele>
        <time>2015-06-11T14:23:20Z</time>
      </trkpt>
      <trkpt lat="45.44923" lon="5.9316">
        <ele>1610.624764056</ele>
        <time>2015-06-11T14:23:25Z</time>
      </trkpt>
      <trkpt lat="45.44923" lon="5.9316">
        <ele>1610.624764056</ele>
        <time>2015-06-11T14:23:31Z</time>
      </trkpt>
      <trkpt lat="45.44923" lon="5.9316">
        <ele>1610.624764056</ele>
        <time>2015-06-11T14:23:35Z</time>
      </trkpt>
      <trkpt lat="45.44923" lon="5.9316">
        <ele>1610.624764056</ele>
        <time>2015-06-11T14:23:40Z</time>
      </trkpt>
      <trkpt lat="45.44923" lon="5.9316">
        <ele>1610.624764056</ele>
        <time>2015-06-11T14:23:45Z</time>
      </trkpt>
      <trkpt lat="45.44923" lon="5.9316">
        <ele>1610.624764056</ele>
        <time>2015-06-11T14:23:50Z</time>
      </trkpt>
      <trkpt lat="45.44923" lon="5.9316">
        <ele>1610.007838688</ele>
        <time>2015-06-11T14:23:55Z</time>
      </trkpt>
      <trkpt lat="45.44923" lon="5.9316">
        <ele>1609.390913319</ele>
        <time>2015-06-11T14:24:00Z</time>
      </trkpt>
      <trkpt lat="45.44923" lon="5.9316">
        <ele>1608.773987951</ele>
        <time>2015-06-11T14:24:05Z</time>
      </trkpt>
      <trkpt lat="45.44928" lon="5.93173">
        <ele>1608.157062583</ele>
        <time>2015-06-11T14:24:10Z</time>
      </trkpt>
      <trkpt lat="45.44929" lon="5.93186">
        <ele>1605.532970751</ele>
        <time>2015-06-11T14:24:15Z</time>
      </trkpt>
      <trkpt lat="45.44932" lon="5.9319">
        <ele>1605.532970751</ele>
        <time>2015-06-11T14:24:20Z</time>
      </trkpt>
      <trkpt lat="45.44932" lon="5.9319">
        <ele>1605.532970751</ele>
        <time>2015-06-11T14:24:25Z</time>
      </trkpt>
      <trkpt lat="45.44932" lon="5.93191">
        <ele>1605.532970751</ele>
        <time>2015-06-11T14:24:30Z</time>
      </trkpt>
      <trkpt lat="45.44933" lon="5.93192">
        <ele>1605.532970751</ele>
        <time>2015-06-11T14:24:35Z</time>
      </trkpt>
      <trkpt lat="45.44933" lon="5.93192">
        <ele>1605.532970751</ele>
        <time>2015-06-11T14:24:40Z</time>
      </trkpt>
      <trkpt lat="45.44933" lon="5.93192">
        <ele>1605.532970751</ele>
        <time>2015-06-11T14:24:45Z</time>
      </trkpt>
      <trkpt lat="45.44933" lon="5.93192">
        <ele>1605.532970751</ele>
        <time>2015-06-11T14:24:50Z</time>
      </trkpt>
      <trkpt lat="45.44933" lon="5.93192">
        <ele>1605.532970751</ele>
        <time>2015-06-11T14:24:55Z</time>
      </trkpt>
      <trkpt lat="45.44933" lon="5.93193">
        <ele>1605.532970751</ele>
        <time>2015-06-11T14:25:00Z</time>
      </trkpt>
      <trkpt lat="45.44933" lon="5.93193">
        <ele>1605.532970751</ele>
        <time>2015-06-11T14:25:05Z</time>
      </trkpt>
      <trkpt lat="45.44933" lon="5.93193">
        <ele>1605.532970751</ele>
        <time>2015-06-11T14:25:10Z</time>
      </trkpt>
      <trkpt lat="45.44933" lon="5.93193">
        <ele>1605.532970751</ele>
        <time>2015-06-11T14:25:15Z</time>
      </trkpt>
      <trkpt lat="45.44933" lon="5.93193">
        <ele>1605.532970751</ele>
        <time>2015-06-11T14:25:20Z</time>
      </trkpt>
      <trkpt lat="45.44933" lon="5.93193">
        <ele>1605.532970751</ele>
        <time>2015-06-11T14:25:25Z</time>
      </trkpt>
      <trkpt lat="45.44933" lon="5.93193">
        <ele>1605.532970751</ele>
        <time>2015-06-11T14:25:30Z</time>
      </trkpt>
      <trkpt lat="45.44933" lon="5.93193">
        <ele>1605.532970751</ele>
        <time>2015-06-11T14:25:35Z</time>
      </trkpt>
      <trkpt lat="45.44933" lon="5.93193">
        <ele>1605.532970751</ele>
        <time>2015-06-11T14:25:40Z</time>
      </trkpt>
      <trkpt lat="45.44933" lon="5.93193">
        <ele>1605.532970751</ele>
        <time>2015-06-11T14:25:45Z</time>
      </trkpt>
      <trkpt lat="45.44933" lon="5.93194">
        <ele>1605.532970751</ele>
        <time>2015-06-11T14:25:50Z</time>
      </trkpt>
      <trkpt lat="45.44933" lon="5.93194">
        <ele>1605.532970751</ele>
        <time>2015-06-11T14:25:55Z</time>
      </trkpt>
      <trkpt lat="45.44933" lon="5.93194">
        <ele>1605.532970751</ele>
        <time>2015-06-11T14:26:00Z</time>
      </trkpt>
      <trkpt lat="45.44933" lon="5.93194">
        <ele>1605.532970751</ele>
        <time>2015-06-11T14:26:05Z</time>
      </trkpt>
      <trkpt lat="45.44933" lon="5.93194">
        <ele>1605.532970751</ele>
        <time>2015-06-11T14:26:10Z</time>
      </trkpt>
      <trkpt lat="45.44933" lon="5.93194">
        <ele>1605.532970751</ele>
        <time>2015-06-11T14:26:15Z</time>
      </trkpt>
      <trkpt lat="45.44933" lon="5.93194">
        <ele>1605.532970751</ele>
        <time>2015-06-11T14:26:19Z</time>
      </trkpt>
      <trkpt lat="45.44933" lon="5.93194">
        <ele>1605.532970751</ele>
        <time>2015-06-11T14:26:25Z</time>
      </trkpt>
      <trkpt lat="45.44933" lon="5.93194">
        <ele>1605.532970751</ele>
        <time>2015-06-11T14:26:29Z</time>
      </trkpt>
      <trkpt lat="45.44934" lon="5.93194">
        <ele>1605.532970751</ele>
        <time>2015-06-11T14:26:35Z</time>
      </trkpt>
      <trkpt lat="45.44934" lon="5.93194">
        <ele>1605.532970751</ele>
        <time>2015-06-11T14:26:40Z</time>
      </trkpt>
      <trkpt lat="45.44934" lon="5.93194">
        <ele>1605.532970751</ele>
        <time>2015-06-11T14:26:45Z</time>
      </trkpt>
      <trkpt lat="45.44934" lon="5.93194">
        <ele>1605.532970751</ele>
        <time>2015-06-11T14:26:50Z</time>
      </trkpt>
      <trkpt lat="45.44934" lon="5.93194">
        <ele>1605.532970751</ele>
        <time>2015-06-11T14:26:56Z</time>
      </trkpt>
      <trkpt lat="45.44934" lon="5.93193">
        <ele>1605.532970751</ele>
        <time>2015-06-11T14:27:00Z</time>
      </trkpt>
      <trkpt lat="45.44934" lon="5.93193">
        <ele>1605.532970751</ele>
        <time>2015-06-11T14:27:05Z</time>
      </trkpt>
      <trkpt lat="45.44935" lon="5.93193">
        <ele>1605.532970751</ele>
        <time>2015-06-11T14:27:10Z</time>
      </trkpt>
      <trkpt lat="45.44945" lon="5.93203">
        <ele>1604.498255471</ele>
        <time>2015-06-11T14:27:15Z</time>
      </trkpt>
      <trkpt lat="45.4495" lon="5.93208">
        <ele>1604.498255471</ele>
        <time>2015-06-11T14:27:20Z</time>
      </trkpt>
      <trkpt lat="45.44952" lon="5.93209">
        <ele>1604.498255471</ele>
        <time>2015-06-11T14:27:25Z</time>
      </trkpt>
      <trkpt lat="45.44952" lon="5.9321">
        <ele>1604.792429128</ele>
        <time>2015-06-11T14:27:30Z</time>
      </trkpt>
      <trkpt lat="45.44952" lon="5.93211">
        <ele>1604.792429128</ele>
        <time>2015-06-11T14:27:35Z</time>
      </trkpt>
      <trkpt lat="45.44952" lon="5.93211">
        <ele>1604.792429128</ele>
        <time>2015-06-11T14:27:40Z</time>
      </trkpt>
      <trkpt lat="45.44952" lon="5.93211">
        <ele>1604.792429128</ele>
        <time>2015-06-11T14:27:45Z</time>
      </trkpt>
      <trkpt lat="45.44959" lon="5.9323">
        <ele>1606.74675736</ele>
        <time>2015-06-11T14:27:50Z</time>
      </trkpt>
      <trkpt lat="45.4496" lon="5.93238">
        <ele>1606.74675736</ele>
        <time>2015-06-11T14:27:55Z</time>
      </trkpt>
      <trkpt lat="45.44964" lon="5.93243">
        <ele>1610.519323714</ele>
        <time>2015-06-11T14:28:00Z</time>
      </trkpt>
      <trkpt lat="45.44971" lon="5.93247">
        <ele>1610.519323714</ele>
        <time>2015-06-11T14:28:05Z</time>
      </trkpt>
      <trkpt lat="45.44968" lon="5.93247">
        <ele>1614.666226046</ele>
        <time>2015-06-11T14:28:10Z</time>
      </trkpt>
      <trkpt lat="45.44969" lon="5.93247">
        <ele>1614.666226046</ele>
        <time>2015-06-11T14:28:15Z</time>
      </trkpt>
      <trkpt lat="45.4497" lon="5.93247">
        <ele>1614.666226046</ele>
        <time>2015-06-11T14:28:20Z</time>
      </trkpt>
      <trkpt lat="45.44971" lon="5.93247">
        <ele>1614.666226046</ele>
        <time>2015-06-11T14:28:25Z</time>
      </trkpt>
      <trkpt lat="45.44978" lon="5.93251">
        <ele>1619.001457439</ele>
        <time>2015-06-11T14:28:30Z</time>
      </trkpt>
      <trkpt lat="45.44981" lon="5.93249">
        <ele>1619.001457439</ele>
        <time>2015-06-11T14:28:35Z</time>
      </trkpt>
      <trkpt lat="45.44982" lon="5.93251">
        <ele>1619.001457439</ele>
        <time>2015-06-11T14:28:40Z</time>
      </trkpt>
      <trkpt lat="45.44986" lon="5.93246">
        <ele>1623.208064396</ele>
        <time>2015-06-11T14:28:45Z</time>
      </trkpt>
      <trkpt lat="45.44985" lon="5.93246">
        <ele>1623.208064396</ele>
        <time>2015-06-11T14:28:50Z</time>
      </trkpt>
      <trkpt lat="45.44986" lon="5.93247">
        <ele>1623.208064396</ele>
        <time>2015-06-11T14:28:55Z</time>
      </trkpt>
      <trkpt lat="45.44985" lon="5.93247">
        <ele>1623.208064396</ele>
        <time>2015-06-11T14:29:00Z</time>
      </trkpt>
      <trkpt lat="45.44986" lon="5.93247">
        <ele>1623.208064396</ele>
        <time>2015-06-11T14:29:05Z</time>
      </trkpt>
      <trkpt lat="45.44986" lon="5.93247">
        <ele>1623.208064396</ele>
        <time>2015-06-11T14:29:10Z</time>
      </trkpt>
      <trkpt lat="45.44986" lon="5.93247">
        <ele>1623.208064396</ele>
        <time>2015-06-11T14:29:15Z</time>
      </trkpt>
      <trkpt lat="45.44982" lon="5.9324">
        <ele>1623.208064396</ele>
        <time>2015-06-11T14:29:20Z</time>
      </trkpt>
      <trkpt lat="45.44982" lon="5.93236">
        <ele>1628.001586934</ele>
        <time>2015-06-11T14:29:25Z</time>
      </trkpt>
      <trkpt lat="45.44981" lon="5.93229">
        <ele>1628.001586934</ele>
        <time>2015-06-11T14:29:30Z</time>
      </trkpt>
      <trkpt lat="45.44981" lon="5.93224">
        <ele>1628.001586934</ele>
        <time>2015-06-11T14:29:35Z</time>
      </trkpt>
      <trkpt lat="45.4498" lon="5.93225">
        <ele>1632.746466486</ele>
        <time>2015-06-11T14:29:40Z</time>
      </trkpt>
      <trkpt lat="45.44982" lon="5.93225">
        <ele>1632.746466486</ele>
        <time>2015-06-11T14:29:44Z</time>
      </trkpt>
      <trkpt lat="45.44982" lon="5.93225">
        <ele>1632.746466486</ele>
        <time>2015-06-11T14:29:49Z</time>
      </trkpt>
      <trkpt lat="45.44982" lon="5.93225">
        <ele>1632.746466486</ele>
        <time>2015-06-11T14:29:55Z</time>
      </trkpt>
      <trkpt lat="45.44982" lon="5.93225">
        <ele>1632.746466486</ele>
        <time>2015-06-11T14:30:01Z</time>
      </trkpt>
      <trkpt lat="45.44982" lon="5.93225">
        <ele>1632.746466486</ele>
        <time>2015-06-11T14:30:05Z</time>
      </trkpt>
      <trkpt lat="45.44982" lon="5.93225">
        <ele>1632.746466486</ele>
        <time>2015-06-11T14:30:10Z</time>
      </trkpt>
      <trkpt lat="45.44981" lon="5.93225">
        <ele>1632.746466486</ele>
        <time>2015-06-11T14:30:15Z</time>
      </trkpt>
      <trkpt lat="45.44981" lon="5.93224">
        <ele>1632.746466486</ele>
        <time>2015-06-11T14:30:20Z</time>
      </trkpt>
      <trkpt lat="45.44982" lon="5.93224">
        <ele>1632.746466486</ele>
        <time>2015-06-11T14:30:25Z</time>
      </trkpt>
      <trkpt lat="45.44982" lon="5.93221">
        <ele>1632.746466486</ele>
        <time>2015-06-11T14:30:30Z</time>
      </trkpt>
      <trkpt lat="45.44982" lon="5.93221">
        <ele>1632.746466486</ele>
        <time>2015-06-11T14:30:35Z</time>
      </trkpt>
      <trkpt lat="45.44983" lon="5.9322">
        <ele>1632.746466486</ele>
        <time>2015-06-11T14:30:40Z</time>
      </trkpt>
      <trkpt lat="45.44983" lon="5.93218">
        <ele>1632.746466486</ele>
        <time>2015-06-11T14:30:45Z</time>
      </trkpt>
      <trkpt lat="45.44987" lon="5.9321">
        <ele>1638.727565525</ele>
        <time>2015-06-11T14:30:50Z</time>
      </trkpt>
      <trkpt lat="45.44987" lon="5.93209">
        <ele>1638.727565525</ele>
        <time>2015-06-11T14:30:55Z</time>
      </trkpt>
      <trkpt lat="45.44984" lon="5.93205">
        <ele>1638.727565525</ele>
        <time>2015-06-11T14:31:00Z</time>
      </trkpt>
      <trkpt lat="45.44985" lon="5.93202">
        <ele>1638.727565525</ele>
        <time>2015-06-11T14:31:06Z</time>
      </trkpt>
      <trkpt lat="45.44984" lon="5.932">
        <ele>1645.835085588</ele>
        <time>2015-06-11T14:31:10Z</time>
      </trkpt>
      <trkpt lat="45.44984" lon="5.93199">
        <ele>1645.835085588</ele>
        <time>2015-06-11T14:31:15Z</time>
      </trkpt>
      <trkpt lat="45.44984" lon="5.93198">
        <ele>1645.835085588</ele>
        <time>2015-06-11T14:31:20Z</time>
      </trkpt>
      <trkpt lat="45.44984" lon="5.93198">
        <ele>1645.835085588</ele>
        <time>2015-06-11T14:31:25Z</time>
      </trkpt>
      <trkpt lat="45.44984" lon="5.93198">
        <ele>1645.835085588</ele>
        <time>2015-06-11T14:31:30Z</time>
      </trkpt>
      <trkpt lat="45.44984" lon="5.93198">
        <ele>1645.835085588</ele>
        <time>2015-06-11T14:31:35Z</time>
      </trkpt>
      <trkpt lat="45.44988" lon="5.93199">
        <ele>1645.835085588</ele>
        <time>2015-06-11T14:31:40Z</time>
      </trkpt>
      <trkpt lat="45.44989" lon="5.93195">
        <ele>1653.099702195</ele>
        <time>2015-06-11T14:31:45Z</time>
      </trkpt>
      <trkpt lat="45.44991" lon="5.93192">
        <ele>1653.099702195</ele>
        <time>2015-06-11T14:31:50Z</time>
      </trkpt>
      <trkpt lat="45.44991" lon="5.93196">
        <ele>1653.099702195</ele>
        <time>2015-06-11T14:31:55Z</time>
      </trkpt>
      <trkpt lat="45.44993" lon="5.93197">
        <ele>1653.099702195</ele>
        <time>2015-06-11T14:32:00Z</time>
      </trkpt>
      <trkpt lat="45.44994" lon="5.93198">
        <ele>1653.099702195</ele>
        <time>2015-06-11T14:32:05Z</time>
      </trkpt>
      <trkpt lat="45.44994" lon="5.93198">
        <ele>1653.099702195</ele>
        <time>2015-06-11T14:32:10Z</time>
      </trkpt>
      <trkpt lat="45.44994" lon="5.93198">
        <ele>1660.487801974</ele>
        <time>2015-06-11T14:32:15Z</time>
      </trkpt>
      <trkpt lat="45.44995" lon="5.93198">
        <ele>1660.487801974</ele>
        <time>2015-06-11T14:32:20Z</time>
      </trkpt>
      <trkpt lat="45.44995" lon="5.93198">
        <ele>1660.487801974</ele>
        <time>2015-06-11T14:32:25Z</time>
      </trkpt>
      <trkpt lat="45.44995" lon="5.93198">
        <ele>1660.487801974</ele>
        <time>2015-06-11T14:32:30Z</time>
      </trkpt>
      <trkpt lat="45.44994" lon="5.93194">
        <ele>1660.487801974</ele>
        <time>2015-06-11T14:32:35Z</time>
      </trkpt>
      <trkpt lat="45.4499" lon="5.93195">
        <ele>1660.487801974</ele>
        <time>2015-06-11T14:32:40Z</time>
      </trkpt>
      <trkpt lat="45.44991" lon="5.93194">
        <ele>1660.487801974</ele>
        <time>2015-06-11T14:32:45Z</time>
      </trkpt>
      <trkpt lat="45.44992" lon="5.93193">
        <ele>1667.82410578</ele>
        <time>2015-06-11T14:32:50Z</time>
      </trkpt>
      <trkpt lat="45.44992" lon="5.93192">
        <ele>1667.82410578</ele>
        <time>2015-06-11T14:32:55Z</time>
      </trkpt>
      <trkpt lat="45.44985" lon="5.93188">
        <ele>1667.82410578</ele>
        <time>2015-06-11T14:33:00Z</time>
      </trkpt>
      <trkpt lat="45.44987" lon="5.93186">
        <ele>1675.090830785</ele>
        <time>2015-06-11T14:33:05Z</time>
      </trkpt>
      <trkpt lat="45.44987" lon="5.93186">
        <ele>1675.090830785</ele>
        <time>2015-06-11T14:33:09Z</time>
      </trkpt>
      <trkpt lat="45.44987" lon="5.93186">
        <ele>1675.090830785</ele>
        <time>2015-06-11T14:33:15Z</time>
      </trkpt>
      <trkpt lat="45.44988" lon="5.93185">
        <ele>1675.090830785</ele>
        <time>2015-06-11T14:33:19Z</time>
      </trkpt>
      <trkpt lat="45.44988" lon="5.93185">
        <ele>1675.090830785</ele>
        <time>2015-06-11T14:33:24Z</time>
      </trkpt>
      <trkpt lat="45.44983" lon="5.93161">
        <ele>1681.551539741</ele>
        <time>2015-06-11T14:33:31Z</time>
      </trkpt>
      <trkpt lat="45.44982" lon="5.93161">
        <ele>1681.551539741</ele>
        <time>2015-06-11T14:33:35Z</time>
      </trkpt>
      <trkpt lat="45.44981" lon="5.93151">
        <ele>1681.551539741</ele>
        <time>2015-06-11T14:33:40Z</time>
      </trkpt>
      <trkpt lat="45.44978" lon="5.93145">
        <ele>1687.823585695</ele>
        <time>2015-06-11T14:33:45Z</time>
      </trkpt>
      <trkpt lat="45.44975" lon="5.93145">
        <ele>1687.823585695</ele>
        <time>2015-06-11T14:33:50Z</time>
      </trkpt>
      <trkpt lat="45.44971" lon="5.9314">
        <ele>1687.823585695</ele>
        <time>2015-06-11T14:33:55Z</time>
      </trkpt>
      <trkpt lat="45.44969" lon="5.93139">
        <ele>1694.335845019</ele>
        <time>2015-06-11T14:34:00Z</time>
      </trkpt>
      <trkpt lat="45.44964" lon="5.93135">
        <ele>1694.335845019</ele>
        <time>2015-06-11T14:34:05Z</time>
      </trkpt>
      <trkpt lat="45.44961" lon="5.93129">
        <ele>1700.044377902</ele>
        <time>2015-06-11T14:34:10Z</time>
      </trkpt>
      <trkpt lat="45.44956" lon="5.93127">
        <ele>1700.044377902</ele>
        <time>2015-06-11T14:34:15Z</time>
      </trkpt>
      <trkpt lat="45.4495" lon="5.93125">
        <ele>1705.425785691</ele>
        <time>2015-06-11T14:34:20Z</time>
      </trkpt>
      <trkpt lat="45.44947" lon="5.93123">
        <ele>1705.425785691</ele>
        <time>2015-06-11T14:34:25Z</time>
      </trkpt>
      <trkpt lat="45.44942" lon="5.93118">
        <ele>1710.202516158</ele>
        <time>2015-06-11T14:34:30Z</time>
      </trkpt>
      <trkpt lat="45.44942" lon="5.93115">
        <ele>1710.202516158</ele>
        <time>2015-06-11T14:34:35Z</time>
      </trkpt>
      <trkpt lat="45.44941" lon="5.93114">
        <ele>1710.202516158</ele>
        <time>2015-06-11T14:34:41Z</time>
      </trkpt>
      <trkpt lat="45.44941" lon="5.93114">
        <ele>1710.202516158</ele>
        <time>2015-06-11T14:34:45Z</time>
      </trkpt>
      <trkpt lat="45.44933" lon="5.93111">
        <ele>1715.128379033</ele>
        <time>2015-06-11T14:34:50Z</time>
      </trkpt>
      <trkpt lat="45.44928" lon="5.93104">
        <ele>1715.128379033</ele>
        <time>2015-06-11T14:34:55Z</time>
      </trkpt>
      <trkpt lat="45.44928" lon="5.93099">
        <ele>1720.325444437</ele>
        <time>2015-06-11T14:35:00Z</time>
      </trkpt>
      <trkpt lat="45.44932" lon="5.93094">
        <ele>1720.325444437</ele>
        <time>2015-06-11T14:35:05Z</time>
      </trkpt>
      <trkpt lat="45.44932" lon="5.93093">
        <ele>1720.325444437</ele>
        <time>2015-06-11T14:35:10Z</time>
      </trkpt>
      <trkpt lat="45.44932" lon="5.93092">
        <ele>1720.325444437</ele>
        <time>2015-06-11T14:35:15Z</time>
      </trkpt>
      <trkpt lat="45.44932" lon="5.93091">
        <ele>1720.325444437</ele>
        <time>2015-06-11T14:35:20Z</time>
      </trkpt>
      <trkpt lat="45.44934" lon="5.93089">
        <ele>1725.330104061</ele>
        <time>2015-06-11T14:35:25Z</time>
      </trkpt>
      <trkpt lat="45.44938" lon="5.93087">
        <ele>1725.330104061</ele>
        <time>2015-06-11T14:35:30Z</time>
      </trkpt>
      <trkpt lat="45.44941" lon="5.93085">
        <ele>1725.330104061</ele>
        <time>2015-06-11T14:35:35Z</time>
      </trkpt>
      <trkpt lat="45.4494" lon="5.93087">
        <ele>1730.002056709</ele>
        <time>2015-06-11T14:35:40Z</time>
      </trkpt>
      <trkpt lat="45.44938" lon="5.93081">
        <ele>1730.002056709</ele>
        <time>2015-06-11T14:35:45Z</time>
      </trkpt>
      <trkpt lat="45.44941" lon="5.93076">
        <ele>1730.002056709</ele>
        <time>2015-06-11T14:35:50Z</time>
      </trkpt>
      <trkpt lat="45.44941" lon="5.93081">
        <ele>1735.077390529</ele>
        <time>2015-06-11T14:35:56Z</time>
      </trkpt>
      <trkpt lat="45.44947" lon="5.93072">
        <ele>1735.077390529</ele>
        <time>2015-06-11T14:36:00Z</time>
      </trkpt>
      <trkpt lat="45.44944" lon="5.93066">
        <ele>1739.940463939</ele>
        <time>2015-06-11T14:36:05Z</time>
      </trkpt>
      <trkpt lat="45.44943" lon="5.93069">
        <ele>1739.940463939</ele>
        <time>2015-06-11T14:36:10Z</time>
      </trkpt>
      <trkpt lat="45.44942" lon="5.93069">
        <ele>1739.940463939</ele>
        <time>2015-06-11T14:36:16Z</time>
      </trkpt>
      <trkpt lat="45.44942" lon="5.93068">
        <ele>1739.940463939</ele>
        <time>2015-06-11T14:36:20Z</time>
      </trkpt>
      <trkpt lat="45.44943" lon="5.93069">
        <ele>1739.940463939</ele>
        <time>2015-06-11T14:36:24Z</time>
      </trkpt>
      <trkpt lat="45.44943" lon="5.93069">
        <ele>1739.940463939</ele>
        <time>2015-06-11T14:36:31Z</time>
      </trkpt>
      <trkpt lat="45.44949" lon="5.93068">
        <ele>1743.877808848</ele>
        <time>2015-06-11T14:36:35Z</time>
      </trkpt>
      <trkpt lat="45.44951" lon="5.93061">
        <ele>1743.877808848</ele>
        <time>2015-06-11T14:36:40Z</time>
      </trkpt>
      <trkpt lat="45.4495" lon="5.93055">
        <ele>1747.528417217</ele>
        <time>2015-06-11T14:36:45Z</time>
      </trkpt>
      <trkpt lat="45.44947" lon="5.93051">
        <ele>1747.528417217</ele>
        <time>2015-06-11T14:36:50Z</time>
      </trkpt>
      <trkpt lat="45.44946" lon="5.93047">
        <ele>1747.528417217</ele>
        <time>2015-06-11T14:36:55Z</time>
      </trkpt>
      <trkpt lat="45.44948" lon="5.93043">
        <ele>1751.341470771</ele>
        <time>2015-06-11T14:37:00Z</time>
      </trkpt>
      <trkpt lat="45.44947" lon="5.93041">
        <ele>1751.341470771</ele>
        <time>2015-06-11T14:37:05Z</time>
      </trkpt>
      <trkpt lat="45.44947" lon="5.9304">
        <ele>1751.341470771</ele>
        <time>2015-06-11T14:37:10Z</time>
      </trkpt>
      <trkpt lat="45.44944" lon="5.93037">
        <ele>1751.341470771</ele>
        <time>2015-06-11T14:37:15Z</time>
      </trkpt>
      <trkpt lat="45.44944" lon="5.93031">
        <ele>1755.589007206</ele>
        <time>2015-06-11T14:37:20Z</time>
      </trkpt>
      <trkpt lat="45.44945" lon="5.93029">
        <ele>1755.589007206</ele>
        <time>2015-06-11T14:37:25Z</time>
      </trkpt>
      <trkpt lat="45.44947" lon="5.93028">
        <ele>1755.589007206</ele>
        <time>2015-06-11T14:37:30Z</time>
      </trkpt>
      <trkpt lat="45.44943" lon="5.93024">
        <ele>1755.589007206</ele>
        <time>2015-06-11T14:37:35Z</time>
      </trkpt>
      <trkpt lat="45.44943" lon="5.93018">
        <ele>1760.089930107</ele>
        <time>2015-06-11T14:37:41Z</time>
      </trkpt>
      <trkpt lat="45.44944" lon="5.93013">
        <ele>1760.089930107</ele>
        <time>2015-06-11T14:37:45Z</time>
      </trkpt>
      <trkpt lat="45.44943" lon="5.93012">
        <ele>1760.089930107</ele>
        <time>2015-06-11T14:37:50Z</time>
      </trkpt>
      <trkpt lat="45.44938" lon="5.9301">
        <ele>1763.955564298</ele>
        <time>2015-06-11T14:37:55Z</time>
      </trkpt>
      <trkpt lat="45.44937" lon="5.93009">
        <ele>1763.955564298</ele>
        <time>2015-06-11T14:38:00Z</time>
      </trkpt>
      <trkpt lat="45.44936" lon="5.93008">
        <ele>1763.955564298</ele>
        <time>2015-06-11T14:38:05Z</time>
      </trkpt>
      <trkpt lat="45.44937" lon="5.93006">
        <ele>1763.955564298</ele>
        <time>2015-06-11T14:38:10Z</time>
      </trkpt>
      <trkpt lat="45.44937" lon="5.93004">
        <ele>1763.955564298</ele>
        <time>2015-06-11T14:38:15Z</time>
      </trkpt>
      <trkpt lat="45.44937" lon="5.93004">
        <ele>1763.955564298</ele>
        <time>2015-06-11T14:38:20Z</time>
      </trkpt>
      <trkpt lat="45.44937" lon="5.93003">
        <ele>1763.955564298</ele>
        <time>2015-06-11T14:38:25Z</time>
      </trkpt>
      <trkpt lat="45.44935" lon="5.93001">
        <ele>1763.955564298</ele>
        <time>2015-06-11T14:38:30Z</time>
      </trkpt>
      <trkpt lat="45.44933" lon="5.93">
        <ele>1768.382223894</ele>
        <time>2015-06-11T14:38:35Z</time>
      </trkpt>
      <trkpt lat="45.44933" lon="5.92997">
        <ele>1768.382223894</ele>
        <time>2015-06-11T14:38:40Z</time>
      </trkpt>
      <trkpt lat="45.44932" lon="5.92994">
        <ele>1768.382223894</ele>
        <time>2015-06-11T14:38:45Z</time>
      </trkpt>
      <trkpt lat="45.44932" lon="5.92986">
        <ele>1772.171343263</ele>
        <time>2015-06-11T14:38:50Z</time>
      </trkpt>
      <trkpt lat="45.44935" lon="5.92981">
        <ele>1772.171343263</ele>
        <time>2015-06-11T14:38:55Z</time>
      </trkpt>
      <trkpt lat="45.44934" lon="5.92978">
        <ele>1772.171343263</ele>
        <time>2015-06-11T14:39:00Z</time>
      </trkpt>
      <trkpt lat="45.44933" lon="5.92977">
        <ele>1772.171343263</ele>
        <time>2015-06-11T14:39:05Z</time>
      </trkpt>
      <trkpt lat="45.44928" lon="5.92977">
        <ele>1776.520307708</ele>
        <time>2015-06-11T14:39:10Z</time>
      </trkpt>
      <trkpt lat="45.44931" lon="5.92973">
        <ele>1776.520307708</ele>
        <time>2015-06-11T14:39:15Z</time>
      </trkpt>
      <trkpt lat="45.44935" lon="5.92968">
        <ele>1781.240295193</ele>
        <time>2015-06-11T14:39:20Z</time>
      </trkpt>
      <trkpt lat="45.4494" lon="5.92965">
        <ele>1781.240295193</ele>
        <time>2015-06-11T14:39:26Z</time>
      </trkpt>
      <trkpt lat="45.44943" lon="5.92967">
        <ele>1781.240295193</ele>
        <time>2015-06-11T14:39:30Z</time>
      </trkpt>
      <trkpt lat="45.44945" lon="5.92966">
        <ele>1785.29095471</ele>
        <time>2015-06-11T14:39:35Z</time>
      </trkpt>
      <trkpt lat="45.44951" lon="5.92972">
        <ele>1785.29095471</ele>
        <time>2015-06-11T14:39:40Z</time>
      </trkpt>
      <trkpt lat="45.44952" lon="5.92972">
        <ele>1785.29095471</ele>
        <time>2015-06-11T14:39:45Z</time>
      </trkpt>
      <trkpt lat="45.44955" lon="5.9297">
        <ele>1788.719307184</ele>
        <time>2015-06-11T14:39:50Z</time>
      </trkpt>
      <trkpt lat="45.44959" lon="5.92967">
        <ele>1788.719307184</ele>
        <time>2015-06-11T14:39:55Z</time>
      </trkpt>
      <trkpt lat="45.44965" lon="5.92967">
        <ele>1792.291497788</ele>
        <time>2015-06-11T14:40:00Z</time>
      </trkpt>
      <trkpt lat="45.44969" lon="5.92969">
        <ele>1792.291497788</ele>
        <time>2015-06-11T14:40:05Z</time>
      </trkpt>
      <trkpt lat="45.44968" lon="5.9297">
        <ele>1792.291497788</ele>
        <time>2015-06-11T14:40:10Z</time>
      </trkpt>
      <trkpt lat="45.4497" lon="5.92968">
        <ele>1792.291497788</ele>
        <time>2015-06-11T14:40:16Z</time>
      </trkpt>
      <trkpt lat="45.44976" lon="5.92964">
        <ele>1795.564357264</ele>
        <time>2015-06-11T14:40:20Z</time>
      </trkpt>
      <trkpt lat="45.4498" lon="5.92964">
        <ele>1795.564357264</ele>
        <time>2015-06-11T14:40:25Z</time>
      </trkpt>
      <trkpt lat="45.44986" lon="5.92963">
        <ele>1798.128349278</ele>
        <time>2015-06-11T14:40:30Z</time>
      </trkpt>
      <trkpt lat="45.4499" lon="5.92964">
        <ele>1798.128349278</ele>
        <time>2015-06-11T14:40:35Z</time>
      </trkpt>
      <trkpt lat="45.44996" lon="5.92965">
        <ele>1800.470893258</ele>
        <time>2015-06-11T14:40:40Z</time>
      </trkpt>
      <trkpt lat="45.44997" lon="5.92965">
        <ele>1800.470893258</ele>
        <time>2015-06-11T14:40:45Z</time>
      </trkpt>
      <trkpt lat="45.45" lon="5.92965">
        <ele>1800.470893258</ele>
        <time>2015-06-11T14:40:50Z</time>
      </trkpt>
      <trkpt lat="45.45008" lon="5.92969">
        <ele>1802.61208287</ele>
        <time>2015-06-11T14:40:55Z</time>
      </trkpt>
      <trkpt lat="45.45008" lon="5.92972">
        <ele>1802.61208287</ele>
        <time>2015-06-11T14:41:00Z</time>
      </trkpt>
      <trkpt lat="45.45007" lon="5.92973">
        <ele>1802.61208287</ele>
        <time>2015-06-11T14:41:05Z</time>
      </trkpt>
      <trkpt lat="45.45011" lon="5.92971">
        <ele>1802.61208287</ele>
        <time>2015-06-11T14:41:10Z</time>
      </trkpt>
      <trkpt lat="45.45016" lon="5.92966">
        <ele>1804.571267165</ele>
        <time>2015-06-11T14:41:15Z</time>
      </trkpt>
      <trkpt lat="45.45019" lon="5.92969">
        <ele>1804.571267165</ele>
        <time>2015-06-11T14:41:20Z</time>
      </trkpt>
      <trkpt lat="45.45023" lon="5.92972">
        <ele>1804.571267165</ele>
        <time>2015-06-11T14:41:25Z</time>
      </trkpt>
      <trkpt lat="45.45026" lon="5.92974">
        <ele>1806.222913222</ele>
        <time>2015-06-11T14:41:31Z</time>
      </trkpt>
      <trkpt lat="45.45028" lon="5.92976">
        <ele>1806.222913222</ele>
        <time>2015-06-11T14:41:35Z</time>
      </trkpt>
      <trkpt lat="45.45035" lon="5.92979">
        <ele>1807.30757376</ele>
        <time>2015-06-11T14:41:40Z</time>
      </trkpt>
      <trkpt lat="45.45042" lon="5.9298">
        <ele>1807.30757376</ele>
        <time>2015-06-11T14:41:45Z</time>
      </trkpt>
      <trkpt lat="45.45048" lon="5.9298">
        <ele>1808.018868494</ele>
        <time>2015-06-11T14:41:50Z</time>
      </trkpt>
      <trkpt lat="45.4505" lon="5.92978">
        <ele>1808.018868494</ele>
        <time>2015-06-11T14:41:55Z</time>
      </trkpt>
      <trkpt lat="45.45052" lon="5.92976">
        <ele>1808.018868494</ele>
        <time>2015-06-11T14:42:01Z</time>
      </trkpt>
      <trkpt lat="45.45058" lon="5.9298">
        <ele>1808.104961829</ele>
        <time>2015-06-11T14:42:06Z</time>
      </trkpt>
      <trkpt lat="45.45066" lon="5.9298">
        <ele>1808.104961829</ele>
        <time>2015-06-11T14:42:10Z</time>
      </trkpt>
      <trkpt lat="45.45068" lon="5.92977">
        <ele>1808.487184429</ele>
        <time>2015-06-11T14:42:15Z</time>
      </trkpt>
      <trkpt lat="45.4507" lon="5.92978">
        <ele>1808.487184429</ele>
        <time>2015-06-11T14:42:20Z</time>
      </trkpt>
      <trkpt lat="45.45078" lon="5.92975">
        <ele>1808.144902</ele>
        <time>2015-06-11T14:42:25Z</time>
      </trkpt>
      <trkpt lat="45.45088" lon="5.92974">
        <ele>1806.566778918</ele>
        <time>2015-06-11T14:42:30Z</time>
      </trkpt>
      <trkpt lat="45.4509" lon="5.92973">
        <ele>1806.566778918</ele>
        <time>2015-06-11T14:42:35Z</time>
      </trkpt>
      <trkpt lat="45.45094" lon="5.9297">
        <ele>1806.566778918</ele>
        <time>2015-06-11T14:42:41Z</time>
      </trkpt>
      <trkpt lat="45.45096" lon="5.92964">
        <ele>1805.299988757</ele>
        <time>2015-06-11T14:42:45Z</time>
      </trkpt>
      <trkpt lat="45.451" lon="5.92959">
        <ele>1805.299988757</ele>
        <time>2015-06-11T14:42:50Z</time>
      </trkpt>
      <trkpt lat="45.45104" lon="5.92948">
        <ele>1803.759509678</ele>
        <time>2015-06-11T14:42:55Z</time>
      </trkpt>
      <trkpt lat="45.45108" lon="5.92944">
        <ele>1803.759509678</ele>
        <time>2015-06-11T14:43:00Z</time>
      </trkpt>
      <trkpt lat="45.45112" lon="5.92939">
        <ele>1802.124472427</ele>
        <time>2015-06-11T14:43:05Z</time>
      </trkpt>
      <trkpt lat="45.45117" lon="5.92928">
        <ele>1800.272711313</ele>
        <time>2015-06-11T14:43:10Z</time>
      </trkpt>
      <trkpt lat="45.45122" lon="5.92927">
        <ele>1800.272711313</ele>
        <time>2015-06-11T14:43:15Z</time>
      </trkpt>
      <trkpt lat="45.45128" lon="5.92922">
        <ele>1798.379652968</ele>
        <time>2015-06-11T14:43:20Z</time>
      </trkpt>
      <trkpt lat="45.45128" lon="5.92917">
        <ele>1798.379652968</ele>
        <time>2015-06-11T14:43:25Z</time>
      </trkpt>
      <trkpt lat="45.45128" lon="5.92916">
        <ele>1798.379652968</ele>
        <time>2015-06-11T14:43:30Z</time>
      </trkpt>
      <trkpt lat="45.45134" lon="5.9291">
        <ele>1796.895934295</ele>
        <time>2015-06-11T14:43:36Z</time>
      </trkpt>
      <trkpt lat="45.45136" lon="5.92904">
        <ele>1796.895934295</ele>
        <time>2015-06-11T14:43:40Z</time>
      </trkpt>
      <trkpt lat="45.45139" lon="5.92895">
        <ele>1795.084783162</ele>
        <time>2015-06-11T14:43:45Z</time>
      </trkpt>
      <trkpt lat="45.45143" lon="5.92894">
        <ele>1795.084783162</ele>
        <time>2015-06-11T14:43:50Z</time>
      </trkpt>
      <trkpt lat="45.45148" lon="5.92893">
        <ele>1795.084783162</ele>
        <time>2015-06-11T14:43:55Z</time>
      </trkpt>
      <trkpt lat="45.45151" lon="5.92888">
        <ele>1793.417066718</ele>
        <time>2015-06-11T14:44:00Z</time>
      </trkpt>
      <trkpt lat="45.45156" lon="5.92883">
        <ele>1793.417066718</ele>
        <time>2015-06-11T14:44:05Z</time>
      </trkpt>
      <trkpt lat="45.4516" lon="5.92883">
        <ele>1791.60779198</ele>
        <time>2015-06-11T14:44:10Z</time>
      </trkpt>
      <trkpt lat="45.45163" lon="5.92874">
        <ele>1791.60779198</ele>
        <time>2015-06-11T14:44:16Z</time>
      </trkpt>
      <trkpt lat="45.45163" lon="5.9287">
        <ele>1789.392967176</ele>
        <time>2015-06-11T14:44:20Z</time>
      </trkpt>
      <trkpt lat="45.45165" lon="5.92863">
        <ele>1789.392967176</ele>
        <time>2015-06-11T14:44:25Z</time>
      </trkpt>
      <trkpt lat="45.4517" lon="5.92859">
        <ele>1787.105226552</ele>
        <time>2015-06-11T14:44:30Z</time>
      </trkpt>
      <trkpt lat="45.45177" lon="5.9285">
        <ele>1785.196720303</ele>
        <time>2015-06-11T14:44:36Z</time>
      </trkpt>
      <trkpt lat="45.45182" lon="5.92843">
        <ele>1785.196720303</ele>
        <time>2015-06-11T14:44:40Z</time>
      </trkpt>
      <trkpt lat="45.45185" lon="5.92839">
        <ele>1783.220274307</ele>
        <time>2015-06-11T14:44:45Z</time>
      </trkpt>
      <trkpt lat="45.45185" lon="5.92839">
        <ele>1783.220274307</ele>
        <time>2015-06-11T14:44:50Z</time>
      </trkpt>
      <trkpt lat="45.45188" lon="5.92837">
        <ele>1783.220274307</ele>
        <time>2015-06-11T14:44:55Z</time>
      </trkpt>
      <trkpt lat="45.45193" lon="5.92833">
        <ele>1781.19369694</ele>
        <time>2015-06-11T14:45:00Z</time>
      </trkpt>
      <trkpt lat="45.45196" lon="5.92829">
        <ele>1781.19369694</ele>
        <time>2015-06-11T14:45:05Z</time>
      </trkpt>
      <trkpt lat="45.45198" lon="5.92824">
        <ele>1781.19369694</ele>
        <time>2015-06-11T14:45:10Z</time>
      </trkpt>
      <trkpt lat="45.45202" lon="5.92824">
        <ele>1778.556783111</ele>
        <time>2015-06-11T14:45:15Z</time>
      </trkpt>
      <trkpt lat="45.45206" lon="5.92826">
        <ele>1778.556783111</ele>
        <time>2015-06-11T14:45:20Z</time>
      </trkpt>
      <trkpt lat="45.45208" lon="5.92831">
        <ele>1778.556783111</ele>
        <time>2015-06-11T14:45:25Z</time>
      </trkpt>
      <trkpt lat="45.4521" lon="5.9283">
        <ele>1775.080002848</ele>
        <time>2015-06-11T14:45:29Z</time>
      </trkpt>
      <trkpt lat="45.4521" lon="5.9283">
        <ele>1775.080002848</ele>
        <time>2015-06-11T14:45:35Z</time>
      </trkpt>
      <trkpt lat="45.4521" lon="5.9283">
        <ele>1775.080002848</ele>
        <time>2015-06-11T14:45:40Z</time>
      </trkpt>
      <trkpt lat="45.45214" lon="5.92837">
        <ele>1775.080002848</ele>
        <time>2015-06-11T14:45:45Z</time>
      </trkpt>
      <trkpt lat="45.45217" lon="5.92836">
        <ele>1772.858401502</ele>
        <time>2015-06-11T14:45:50Z</time>
      </trkpt>
      <trkpt lat="45.45219" lon="5.92836">
        <ele>1772.858401502</ele>
        <time>2015-06-11T14:45:55Z</time>
      </trkpt>
      <trkpt lat="45.45219" lon="5.92832">
        <ele>1772.858401502</ele>
        <time>2015-06-11T14:46:00Z</time>
      </trkpt>
      <trkpt lat="45.45219" lon="5.92826">
        <ele>1772.858401502</ele>
        <time>2015-06-11T14:46:05Z</time>
      </trkpt>
      <trkpt lat="45.45218" lon="5.92826">
        <ele>1772.858401502</ele>
        <time>2015-06-11T14:46:10Z</time>
      </trkpt>
      <trkpt lat="45.45219" lon="5.92826">
        <ele>1769.938170999</ele>
        <time>2015-06-11T14:46:15Z</time>
      </trkpt>
      <trkpt lat="45.45219" lon="5.92827">
        <ele>1769.938170999</ele>
        <time>2015-06-11T14:46:20Z</time>
      </trkpt>
      <trkpt lat="45.45218" lon="5.92825">
        <ele>1769.938170999</ele>
        <time>2015-06-11T14:46:25Z</time>
      </trkpt>
      <trkpt lat="45.45219" lon="5.92822">
        <ele>1769.938170999</ele>
        <time>2015-06-11T14:46:30Z</time>
      </trkpt>
      <trkpt lat="45.45219" lon="5.92822">
        <ele>1769.938170999</ele>
        <time>2015-06-11T14:46:35Z</time>
      </trkpt>
      <trkpt lat="45.45218" lon="5.92822">
        <ele>1769.938170999</ele>
        <time>2015-06-11T14:46:40Z</time>
      </trkpt>
      <trkpt lat="45.45219" lon="5.92822">
        <ele>1769.938170999</ele>
        <time>2015-06-11T14:46:45Z</time>
      </trkpt>
      <trkpt lat="45.45219" lon="5.92822">
        <ele>1769.938170999</ele>
        <time>2015-06-11T14:46:50Z</time>
      </trkpt>
      <trkpt lat="45.45219" lon="5.92821">
        <ele>1769.938170999</ele>
        <time>2015-06-11T14:46:54Z</time>
      </trkpt>
      <trkpt lat="45.45219" lon="5.92821">
        <ele>1769.938170999</ele>
        <time>2015-06-11T14:47:00Z</time>
      </trkpt>
      <trkpt lat="45.45219" lon="5.92822">
        <ele>1769.938170999</ele>
        <time>2015-06-11T14:47:06Z</time>
      </trkpt>
      <trkpt lat="45.45219" lon="5.92822">
        <ele>1769.938170999</ele>
        <time>2015-06-11T14:47:10Z</time>
      </trkpt>
      <trkpt lat="45.45219" lon="5.92822">
        <ele>1769.938170999</ele>
        <time>2015-06-11T14:47:15Z</time>
      </trkpt>
      <trkpt lat="45.45219" lon="5.92822">
        <ele>1769.938170999</ele>
        <time>2015-06-11T14:47:20Z</time>
      </trkpt>
      <trkpt lat="45.45219" lon="5.92822">
        <ele>1769.938170999</ele>
        <time>2015-06-11T14:47:25Z</time>
      </trkpt>
      <trkpt lat="45.45219" lon="5.92822">
        <ele>1769.938170999</ele>
        <time>2015-06-11T14:47:30Z</time>
      </trkpt>
      <trkpt lat="45.45219" lon="5.92822">
        <ele>1769.938170999</ele>
        <time>2015-06-11T14:47:36Z</time>
      </trkpt>
      <trkpt lat="45.45219" lon="5.92822">
        <ele>1769.938170999</ele>
        <time>2015-06-11T14:47:41Z</time>
      </trkpt>
      <trkpt lat="45.45219" lon="5.92822">
        <ele>1769.938170999</ele>
        <time>2015-06-11T14:47:45Z</time>
      </trkpt>
      <trkpt lat="45.45217" lon="5.92823">
        <ele>1769.938170999</ele>
        <time>2015-06-11T14:47:50Z</time>
      </trkpt>
      <trkpt lat="45.45217" lon="5.92822">
        <ele>1769.938170999</ele>
        <time>2015-06-11T14:47:55Z</time>
      </trkpt>
      <trkpt lat="45.45217" lon="5.92823">
        <ele>1769.938170999</ele>
        <time>2015-06-11T14:48:01Z</time>
      </trkpt>
      <trkpt lat="45.45217" lon="5.92823">
        <ele>1769.938170999</ele>
        <time>2015-06-11T14:48:05Z</time>
      </trkpt>
      <trkpt lat="45.45218" lon="5.92823">
        <ele>1769.938170999</ele>
        <time>2015-06-11T14:48:11Z</time>
      </trkpt>
      <trkpt lat="45.45217" lon="5.92825">
        <ele>1766.095771697</ele>
        <time>2015-06-11T14:48:15Z</time>
      </trkpt>
      <trkpt lat="45.45218" lon="5.92825">
        <ele>1766.095771697</ele>
        <time>2015-06-11T14:48:21Z</time>
      </trkpt>
      <trkpt lat="45.45218" lon="5.92825">
        <ele>1766.095771697</ele>
        <time>2015-06-11T14:48:25Z</time>
      </trkpt>
      <trkpt lat="45.45219" lon="5.92825">
        <ele>1766.095771697</ele>
        <time>2015-06-11T14:48:29Z</time>
      </trkpt>
      <trkpt lat="45.45219" lon="5.92825">
        <ele>1766.095771697</ele>
        <time>2015-06-11T14:48:35Z</time>
      </trkpt>
      <trkpt lat="45.45219" lon="5.92825">
        <ele>1766.095771697</ele>
        <time>2015-06-11T14:48:40Z</time>
      </trkpt>
      <trkpt lat="45.45219" lon="5.92825">
        <ele>1766.095771697</ele>
        <time>2015-06-11T14:48:45Z</time>
      </trkpt>
      <trkpt lat="45.45219" lon="5.92825">
        <ele>1766.095771697</ele>
        <time>2015-06-11T14:48:50Z</time>
      </trkpt>
      <trkpt lat="45.45219" lon="5.92825">
        <ele>1766.095771697</ele>
        <time>2015-06-11T14:48:54Z</time>
      </trkpt>
      <trkpt lat="45.45224" lon="5.9283">
        <ele>1766.095771697</ele>
        <time>2015-06-11T14:49:01Z</time>
      </trkpt>
      <trkpt lat="45.4523" lon="5.92836">
        <ele>1763.864338018</ele>
        <time>2015-06-11T14:49:05Z</time>
      </trkpt>
      <trkpt lat="45.45235" lon="5.92841">
        <ele>1763.864338018</ele>
        <time>2015-06-11T14:49:10Z</time>
      </trkpt>
      <trkpt lat="45.45238" lon="5.92848">
        <ele>1761.406728322</ele>
        <time>2015-06-11T14:49:15Z</time>
      </trkpt>
      <trkpt lat="45.45242" lon="5.92853">
        <ele>1761.406728322</ele>
        <time>2015-06-11T14:49:20Z</time>
      </trkpt>
      <trkpt lat="45.45253" lon="5.92855">
        <ele>1758.750271651</ele>
        <time>2015-06-11T14:49:25Z</time>
      </trkpt>
      <trkpt lat="45.45256" lon="5.92863">
        <ele>1758.750271651</ele>
        <time>2015-06-11T14:49:30Z</time>
      </trkpt>
      <trkpt lat="45.45261" lon="5.92868">
        <ele>1756.496839603</ele>
        <time>2015-06-11T14:49:35Z</time>
      </trkpt>
      <trkpt lat="45.45262" lon="5.92865">
        <ele>1756.496839603</ele>
        <time>2015-06-11T14:49:41Z</time>
      </trkpt>
      <trkpt lat="45.45264" lon="5.92861">
        <ele>1756.496839603</ele>
        <time>2015-06-11T14:49:45Z</time>
      </trkpt>
      <trkpt lat="45.4527" lon="5.9286">
        <ele>1753.905510557</ele>
        <time>2015-06-11T14:49:51Z</time>
      </trkpt>
      <trkpt lat="45.45268" lon="5.92858">
        <ele>1753.905510557</ele>
        <time>2015-06-11T14:49:55Z</time>
      </trkpt>
      <trkpt lat="45.45269" lon="5.92858">
        <ele>1753.905510557</ele>
        <time>2015-06-11T14:50:00Z</time>
      </trkpt>
      <trkpt lat="45.4527" lon="5.92858">
        <ele>1753.905510557</ele>
        <time>2015-06-11T14:50:05Z</time>
      </trkpt>
      <trkpt lat="45.45274" lon="5.9286">
        <ele>1753.905510557</ele>
        <time>2015-06-11T14:50:10Z</time>
      </trkpt>
      <trkpt lat="45.45279" lon="5.92858">
        <ele>1750.86673752</ele>
        <time>2015-06-11T14:50:15Z</time>
      </trkpt>
      <trkpt lat="45.45285" lon="5.92859">
        <ele>1750.86673752</ele>
        <time>2015-06-11T14:50:20Z</time>
      </trkpt>
      <trkpt lat="45.45291" lon="5.92862">
        <ele>1748.144501614</ele>
        <time>2015-06-11T14:50:25Z</time>
      </trkpt>
      <trkpt lat="45.45296" lon="5.92856">
        <ele>1748.144501614</ele>
        <time>2015-06-11T14:50:30Z</time>
      </trkpt>
      <trkpt lat="45.45302" lon="5.92854">
        <ele>1745.148336692</ele>
        <time>2015-06-11T14:50:35Z</time>
      </trkpt>
      <trkpt lat="45.45308" lon="5.92854">
        <ele>1745.148336692</ele>
        <time>2015-06-11T14:50:40Z</time>
      </trkpt>
      <trkpt lat="45.45312" lon="5.92858">
        <ele>1741.763820098</ele>
        <time>2015-06-11T14:50:45Z</time>
      </trkpt>
      <trkpt lat="45.45316" lon="5.9286">
        <ele>1741.763820098</ele>
        <time>2015-06-11T14:50:50Z</time>
      </trkpt>
      <trkpt lat="45.45321" lon="5.9286">
        <ele>1739.182595595</ele>
        <time>2015-06-11T14:50:55Z</time>
      </trkpt>
      <trkpt lat="45.45326" lon="5.9286">
        <ele>1739.182595595</ele>
        <time>2015-06-11T14:51:00Z</time>
      </trkpt>
      <trkpt lat="45.45331" lon="5.92853">
        <ele>1736.200313633</ele>
        <time>2015-06-11T14:51:05Z</time>
      </trkpt>
      <trkpt lat="45.45335" lon="5.9285">
        <ele>1736.200313633</ele>
        <time>2015-06-11T14:51:10Z</time>
      </trkpt>
      <trkpt lat="45.4534" lon="5.92853">
        <ele>1732.998803012</ele>
        <time>2015-06-11T14:51:15Z</time>
      </trkpt>
      <trkpt lat="45.45343" lon="5.9285">
        <ele>1732.998803012</ele>
        <time>2015-06-11T14:51:20Z</time>
      </trkpt>
      <trkpt lat="45.45347" lon="5.92847">
        <ele>1732.998803012</ele>
        <time>2015-06-11T14:51:25Z</time>
      </trkpt>
      <trkpt lat="45.45356" lon="5.92841">
        <ele>1730.034961667</ele>
        <time>2015-06-11T14:51:30Z</time>
      </trkpt>
      <trkpt lat="45.45358" lon="5.92841">
        <ele>1730.034961667</ele>
        <time>2015-06-11T14:51:35Z</time>
      </trkpt>
      <trkpt lat="45.45364" lon="5.92838">
        <ele>1730.034961667</ele>
        <time>2015-06-11T14:51:40Z</time>
      </trkpt>
      <trkpt lat="45.45371" lon="5.92837">
        <ele>1727.298720846</ele>
        <time>2015-06-11T14:51:45Z</time>
      </trkpt>
      <trkpt lat="45.45377" lon="5.92835">
        <ele>1727.298720846</ele>
        <time>2015-06-11T14:51:50Z</time>
      </trkpt>
      <trkpt lat="45.45383" lon="5.92832">
        <ele>1725.212053152</ele>
        <time>2015-06-11T14:51:56Z</time>
      </trkpt>
      <trkpt lat="45.45386" lon="5.92833">
        <ele>1725.212053152</ele>
        <time>2015-06-11T14:52:00Z</time>
      </trkpt>
      <trkpt lat="45.45389" lon="5.92835">
        <ele>1725.212053152</ele>
        <time>2015-06-11T14:52:05Z</time>
      </trkpt>
      <trkpt lat="45.45396" lon="5.92833">
        <ele>1723.154951328</ele>
        <time>2015-06-11T14:52:09Z</time>
      </trkpt>
      <trkpt lat="45.45403" lon="5.92831">
        <ele>1723.154951328</ele>
        <time>2015-06-11T14:52:14Z</time>
      </trkpt>
      <trkpt lat="45.45408" lon="5.9283">
        <ele>1721.993616308</ele>
        <time>2015-06-11T14:52:20Z</time>
      </trkpt>
      <trkpt lat="45.45413" lon="5.92826">
        <ele>1721.993616308</ele>
        <time>2015-06-11T14:52:25Z</time>
      </trkpt>
      <trkpt lat="45.4542" lon="5.92828">
        <ele>1720.221978362</ele>
        <time>2015-06-11T14:52:31Z</time>
      </trkpt>
      <trkpt lat="45.45431" lon="5.92836">
        <ele>1718.607653206</ele>
        <time>2015-06-11T14:52:35Z</time>
      </trkpt>
      <trkpt lat="45.45434" lon="5.92838">
        <ele>1718.607653206</ele>
        <time>2015-06-11T14:52:40Z</time>
      </trkpt>
      <trkpt lat="45.45435" lon="5.92844">
        <ele>1718.607653206</ele>
        <time>2015-06-11T14:52:45Z</time>
      </trkpt>
      <trkpt lat="45.45441" lon="5.9285">
        <ele>1717.284673031</ele>
        <time>2015-06-11T14:52:50Z</time>
      </trkpt>
      <trkpt lat="45.45448" lon="5.9285">
        <ele>1717.284673031</ele>
        <time>2015-06-11T14:52:55Z</time>
      </trkpt>
      <trkpt lat="45.45455" lon="5.9285">
        <ele>1716.232007431</ele>
        <time>2015-06-11T14:53:00Z</time>
      </trkpt>
      <trkpt lat="45.4546" lon="5.92861">
        <ele>1716.232007431</ele>
        <time>2015-06-11T14:53:05Z</time>
      </trkpt>
      <trkpt lat="45.45466" lon="5.92868">
        <ele>1715.140922471</ele>
        <time>2015-06-11T14:53:10Z</time>
      </trkpt>
      <trkpt lat="45.45473" lon="5.92867">
        <ele>1715.140922471</ele>
        <time>2015-06-11T14:53:15Z</time>
      </trkpt>
      <trkpt lat="45.45475" lon="5.92876">
        <ele>1713.869335468</ele>
        <time>2015-06-11T14:53:20Z</time>
      </trkpt>
      <trkpt lat="45.45482" lon="5.9288">
        <ele>1713.869335468</ele>
        <time>2015-06-11T14:53:25Z</time>
      </trkpt>
      <trkpt lat="45.45487" lon="5.92879">
        <ele>1713.29466014</ele>
        <time>2015-06-11T14:53:30Z</time>
      </trkpt>
      <trkpt lat="45.45495" lon="5.92883">
        <ele>1713.29466014</ele>
        <time>2015-06-11T14:53:35Z</time>
      </trkpt>
      <trkpt lat="45.455" lon="5.92889">
        <ele>1712.642474002</ele>
        <time>2015-06-11T14:53:40Z</time>
      </trkpt>
      <trkpt lat="45.45504" lon="5.92892">
        <ele>1712.642474002</ele>
        <time>2015-06-11T14:53:45Z</time>
      </trkpt>
      <trkpt lat="45.45509" lon="5.92894">
        <ele>1711.627610788</ele>
        <time>2015-06-11T14:53:50Z</time>
      </trkpt>
      <trkpt lat="45.45515" lon="5.92895">
        <ele>1711.627610788</ele>
        <time>2015-06-11T14:53:55Z</time>
      </trkpt>
      <trkpt lat="45.45522" lon="5.92898">
        <ele>1710.707262603</ele>
        <time>2015-06-11T14:54:00Z</time>
      </trkpt>
      <trkpt lat="45.45527" lon="5.92901">
        <ele>1710.707262603</ele>
        <time>2015-06-11T14:54:05Z</time>
      </trkpt>
      <trkpt lat="45.45534" lon="5.92904">
        <ele>1709.584071581</ele>
        <time>2015-06-11T14:54:10Z</time>
      </trkpt>
      <trkpt lat="45.45543" lon="5.92906">
        <ele>1708.559410688</ele>
        <time>2015-06-11T14:54:15Z</time>
      </trkpt>
      <trkpt lat="45.45547" lon="5.92915">
        <ele>1708.559410688</ele>
        <time>2015-06-11T14:54:20Z</time>
      </trkpt>
      <trkpt lat="45.45551" lon="5.92919">
        <ele>1707.479793412</ele>
        <time>2015-06-11T14:54:25Z</time>
      </trkpt>
      <trkpt lat="45.45557" lon="5.92923">
        <ele>1707.479793412</ele>
        <time>2015-06-11T14:54:30Z</time>
      </trkpt>
      <trkpt lat="45.45559" lon="5.92928">
        <ele>1706.635400155</ele>
        <time>2015-06-11T14:54:35Z</time>
      </trkpt>
      <trkpt lat="45.45562" lon="5.92936">
        <ele>1706.635400155</ele>
        <time>2015-06-11T14:54:41Z</time>
      </trkpt>
      <trkpt lat="45.45564" lon="5.92941">
        <ele>1706.006131592</ele>
        <time>2015-06-11T14:54:45Z</time>
      </trkpt>
      <trkpt lat="45.45569" lon="5.92946">
        <ele>1706.006131592</ele>
        <time>2015-06-11T14:54:50Z</time>
      </trkpt>
      <trkpt lat="45.45571" lon="5.92949">
        <ele>1704.852138276</ele>
        <time>2015-06-11T14:54:55Z</time>
      </trkpt>
      <trkpt lat="45.4558" lon="5.92955">
        <ele>1703.642226652</ele>
        <time>2015-06-11T14:55:00Z</time>
      </trkpt>
      <trkpt lat="45.45584" lon="5.92963">
        <ele>1703.642226652</ele>
        <time>2015-06-11T14:55:05Z</time>
      </trkpt>
      <trkpt lat="45.45587" lon="5.92968">
        <ele>1702.522656976</ele>
        <time>2015-06-11T14:55:10Z</time>
      </trkpt>
      <trkpt lat="45.45589" lon="5.92975">
        <ele>1702.522656976</ele>
        <time>2015-06-11T14:55:14Z</time>
      </trkpt>
      <trkpt lat="45.45589" lon="5.92984">
        <ele>1701.484548716</ele>
        <time>2015-06-11T14:55:20Z</time>
      </trkpt>
      <trkpt lat="45.45593" lon="5.92992">
        <ele>1701.484548716</ele>
        <time>2015-06-11T14:55:25Z</time>
      </trkpt>
      <trkpt lat="45.45594" lon="5.93002">
        <ele>1700.519422564</ele>
        <time>2015-06-11T14:55:30Z</time>
      </trkpt>
      <trkpt lat="45.45596" lon="5.93012">
        <ele>1700.519422564</ele>
        <time>2015-06-11T14:55:35Z</time>
      </trkpt>
      <trkpt lat="45.45599" lon="5.9302">
        <ele>1699.619203966</ele>
        <time>2015-06-11T14:55:40Z</time>
      </trkpt>
      <trkpt lat="45.45601" lon="5.93026">
        <ele>1699.619203966</ele>
        <time>2015-06-11T14:55:45Z</time>
      </trkpt>
      <trkpt lat="45.4561" lon="5.93032">
        <ele>1699.208559466</ele>
        <time>2015-06-11T14:55:50Z</time>
      </trkpt>
      <trkpt lat="45.45611" lon="5.93039">
        <ele>1699.208559466</ele>
        <time>2015-06-11T14:55:55Z</time>
      </trkpt>
      <trkpt lat="45.45615" lon="5.93041">
        <ele>1697.950257748</ele>
        <time>2015-06-11T14:56:00Z</time>
      </trkpt>
      <trkpt lat="45.45622" lon="5.93048">
        <ele>1697.950257748</ele>
        <time>2015-06-11T14:56:05Z</time>
      </trkpt>
      <trkpt lat="45.45629" lon="5.93051">
        <ele>1696.769358736</ele>
        <time>2015-06-11T14:56:10Z</time>
      </trkpt>
      <trkpt lat="45.45633" lon="5.93052">
        <ele>1696.769358736</ele>
        <time>2015-06-11T14:56:15Z</time>
      </trkpt>
      <trkpt lat="45.45642" lon="5.93059">
        <ele>1695.658104629</ele>
        <time>2015-06-11T14:56:20Z</time>
      </trkpt>
      <trkpt lat="45.45645" lon="5.93061">
        <ele>1695.658104629</ele>
        <time>2015-06-11T14:56:25Z</time>
      </trkpt>
      <trkpt lat="45.45649" lon="5.93063">
        <ele>1695.658104629</ele>
        <time>2015-06-11T14:56:30Z</time>
      </trkpt>
      <trkpt lat="45.45656" lon="5.93065">
        <ele>1694.320915969</ele>
        <time>2015-06-11T14:56:35Z</time>
      </trkpt>
      <trkpt lat="45.45662" lon="5.93069">
        <ele>1694.320915969</ele>
        <time>2015-06-11T14:56:40Z</time>
      </trkpt>
      <trkpt lat="45.45666" lon="5.93072">
        <ele>1693.205146337</ele>
        <time>2015-06-11T14:56:45Z</time>
      </trkpt>
      <trkpt lat="45.45671" lon="5.93082">
        <ele>1693.205146337</ele>
        <time>2015-06-11T14:56:50Z</time>
      </trkpt>
      <trkpt lat="45.45677" lon="5.93079">
        <ele>1691.715921135</ele>
        <time>2015-06-11T14:56:55Z</time>
      </trkpt>
      <trkpt lat="45.45677" lon="5.93075">
        <ele>1691.715921135</ele>
        <time>2015-06-11T14:57:00Z</time>
      </trkpt>
      <trkpt lat="45.45691" lon="5.93072">
        <ele>1689.59136966</ele>
        <time>2015-06-11T14:57:05Z</time>
      </trkpt>
      <trkpt lat="45.45697" lon="5.93073">
        <ele>1689.59136966</ele>
        <time>2015-06-11T14:57:10Z</time>
      </trkpt>
      <trkpt lat="45.45702" lon="5.9308">
        <ele>1688.175898801</ele>
        <time>2015-06-11T14:57:15Z</time>
      </trkpt>
      <trkpt lat="45.4571" lon="5.93085">
        <ele>1688.175898801</ele>
        <time>2015-06-11T14:57:20Z</time>
      </trkpt>
      <trkpt lat="45.45715" lon="5.93094">
        <ele>1687.127980237</ele>
        <time>2015-06-11T14:57:25Z</time>
      </trkpt>
      <trkpt lat="45.45713" lon="5.93102">
        <ele>1687.127980237</ele>
        <time>2015-06-11T14:57:30Z</time>
      </trkpt>
      <trkpt lat="45.45715" lon="5.93113">
        <ele>1685.409622708</ele>
        <time>2015-06-11T14:57:35Z</time>
      </trkpt>
      <trkpt lat="45.45718" lon="5.93122">
        <ele>1685.409622708</ele>
        <time>2015-06-11T14:57:40Z</time>
      </trkpt>
      <trkpt lat="45.45721" lon="5.93132">
        <ele>1684.078558212</ele>
        <time>2015-06-11T14:57:45Z</time>
      </trkpt>
      <trkpt lat="45.45723" lon="5.93142">
        <ele>1684.078558212</ele>
        <time>2015-06-11T14:57:50Z</time>
      </trkpt>
      <trkpt lat="45.45726" lon="5.93148">
        <ele>1682.816768545</ele>
        <time>2015-06-11T14:57:55Z</time>
      </trkpt>
      <trkpt lat="45.45729" lon="5.93153">
        <ele>1682.816768545</ele>
        <time>2015-06-11T14:58:00Z</time>
      </trkpt>
      <trkpt lat="45.45731" lon="5.9316">
        <ele>1681.185328993</ele>
        <time>2015-06-11T14:58:05Z</time>
      </trkpt>
      <trkpt lat="45.45735" lon="5.93165">
        <ele>1681.185328993</ele>
        <time>2015-06-11T14:58:10Z</time>
      </trkpt>
      <trkpt lat="45.45737" lon="5.93171">
        <ele>1679.787410886</ele>
        <time>2015-06-11T14:58:14Z</time>
      </trkpt>
      <trkpt lat="45.45737" lon="5.9318">
        <ele>1679.787410886</ele>
        <time>2015-06-11T14:58:21Z</time>
      </trkpt>
      <trkpt lat="45.45742" lon="5.93182">
        <ele>1678.748927007</ele>
        <time>2015-06-11T14:58:25Z</time>
      </trkpt>
      <trkpt lat="45.45744" lon="5.93185">
        <ele>1678.748927007</ele>
        <time>2015-06-11T14:58:30Z</time>
      </trkpt>
      <trkpt lat="45.45753" lon="5.9319">
        <ele>1677.176792941</ele>
        <time>2015-06-11T14:58:35Z</time>
      </trkpt>
      <trkpt lat="45.45761" lon="5.93184">
        <ele>1677.176792941</ele>
        <time>2015-06-11T14:58:40Z</time>
      </trkpt>
      <trkpt lat="45.45763" lon="5.93188">
        <ele>1674.677397404</ele>
        <time>2015-06-11T14:58:45Z</time>
      </trkpt>
      <trkpt lat="45.45763" lon="5.93196">
        <ele>1674.677397404</ele>
        <time>2015-06-11T14:58:50Z</time>
      </trkpt>
      <trkpt lat="45.45765" lon="5.93206">
        <ele>1672.762125176</ele>
        <time>2015-06-11T14:58:55Z</time>
      </trkpt>
      <trkpt lat="45.45769" lon="5.93215">
        <ele>1672.762125176</ele>
        <time>2015-06-11T14:59:00Z</time>
      </trkpt>
      <trkpt lat="45.45775" lon="5.9322">
        <ele>1671.532729283</ele>
        <time>2015-06-11T14:59:05Z</time>
      </trkpt>
      <trkpt lat="45.45783" lon="5.93223">
        <ele>1671.532729283</ele>
        <time>2015-06-11T14:59:10Z</time>
      </trkpt>
      <trkpt lat="45.45785" lon="5.93224">
        <ele>1669.640481195</ele>
        <time>2015-06-11T14:59:15Z</time>
      </trkpt>
      <trkpt lat="45.45787" lon="5.93233">
        <ele>1669.640481195</ele>
        <time>2015-06-11T14:59:20Z</time>
      </trkpt>
      <trkpt lat="45.45791" lon="5.9324">
        <ele>1667.711059417</ele>
        <time>2015-06-11T14:59:25Z</time>
      </trkpt>
      <trkpt lat="45.45797" lon="5.93243">
        <ele>1667.711059417</ele>
        <time>2015-06-11T14:59:30Z</time>
      </trkpt>
      <trkpt lat="45.458" lon="5.93245">
        <ele>1666.036086038</ele>
        <time>2015-06-11T14:59:35Z</time>
      </trkpt>
      <trkpt lat="45.45799" lon="5.93246">
        <ele>1666.036086038</ele>
        <time>2015-06-11T14:59:40Z</time>
      </trkpt>
      <trkpt lat="45.45806" lon="5.93258">
        <ele>1665.173292289</ele>
        <time>2015-06-11T14:59:45Z</time>
      </trkpt>
      <trkpt lat="45.45811" lon="5.93264">
        <ele>1665.173292289</ele>
        <time>2015-06-11T14:59:50Z</time>
      </trkpt>
      <trkpt lat="45.45816" lon="5.93272">
        <ele>1663.907848702</ele>
        <time>2015-06-11T14:59:55Z</time>
      </trkpt>
      <trkpt lat="45.45814" lon="5.93281">
        <ele>1663.907848702</ele>
        <time>2015-06-11T15:00:00Z</time>
      </trkpt>
      <trkpt lat="45.45812" lon="5.93292">
        <ele>1662.700542151</ele>
        <time>2015-06-11T15:00:05Z</time>
      </trkpt>
      <trkpt lat="45.45814" lon="5.93298">
        <ele>1662.700542151</ele>
        <time>2015-06-11T15:00:10Z</time>
      </trkpt>
      <trkpt lat="45.45817" lon="5.93305">
        <ele>1661.401727808</ele>
        <time>2015-06-11T15:00:16Z</time>
      </trkpt>
      <trkpt lat="45.45814" lon="5.9331">
        <ele>1661.401727808</ele>
        <time>2015-06-11T15:00:20Z</time>
      </trkpt>
      <trkpt lat="45.45817" lon="5.93312">
        <ele>1661.401727808</ele>
        <time>2015-06-11T15:00:25Z</time>
      </trkpt>
      <trkpt lat="45.45819" lon="5.93319">
        <ele>1659.584814302</ele>
        <time>2015-06-11T15:00:31Z</time>
      </trkpt>
      <trkpt lat="45.45821" lon="5.93322">
        <ele>1659.584814302</ele>
        <time>2015-06-11T15:00:35Z</time>
      </trkpt>
      <trkpt lat="45.45822" lon="5.93323">
        <ele>1659.584814302</ele>
        <time>2015-06-11T15:00:40Z</time>
      </trkpt>
      <trkpt lat="45.45819" lon="5.93336">
        <ele>1658.297139278</ele>
        <time>2015-06-11T15:00:46Z</time>
      </trkpt>
      <trkpt lat="45.45824" lon="5.93341">
        <ele>1658.297139278</ele>
        <time>2015-06-11T15:00:50Z</time>
      </trkpt>
      <trkpt lat="45.4583" lon="5.93345">
        <ele>1656.778311215</ele>
        <time>2015-06-11T15:00:55Z</time>
      </trkpt>
      <trkpt lat="45.45834" lon="5.93357">
        <ele>1655.47736009</ele>
        <time>2015-06-11T15:01:01Z</time>
      </trkpt>
      <trkpt lat="45.45836" lon="5.93361">
        <ele>1655.47736009</ele>
        <time>2015-06-11T15:01:05Z</time>
      </trkpt>
      <trkpt lat="45.45837" lon="5.93364">
        <ele>1655.47736009</ele>
        <time>2015-06-11T15:01:10Z</time>
      </trkpt>
      <trkpt lat="45.45837" lon="5.93363">
        <ele>1655.47736009</ele>
        <time>2015-06-11T15:01:15Z</time>
      </trkpt>
      <trkpt lat="45.45837" lon="5.93364">
        <ele>1655.47736009</ele>
        <time>2015-06-11T15:01:20Z</time>
      </trkpt>
      <trkpt lat="45.45837" lon="5.93364">
        <ele>1655.47736009</ele>
        <time>2015-06-11T15:01:24Z</time>
      </trkpt>
      <trkpt lat="45.45837" lon="5.93364">
        <ele>1655.47736009</ele>
        <time>2015-06-11T15:01:30Z</time>
      </trkpt>
      <trkpt lat="45.45837" lon="5.93364">
        <ele>1655.47736009</ele>
        <time>2015-06-11T15:01:36Z</time>
      </trkpt>
      <trkpt lat="45.45837" lon="5.93364">
        <ele>1655.47736009</ele>
        <time>2015-06-11T15:01:40Z</time>
      </trkpt>
      <trkpt lat="45.45837" lon="5.93364">
        <ele>1655.47736009</ele>
        <time>2015-06-11T15:01:45Z</time>
      </trkpt>
      <trkpt lat="45.45837" lon="5.93364">
        <ele>1655.47736009</ele>
        <time>2015-06-11T15:01:50Z</time>
      </trkpt>
      <trkpt lat="45.45837" lon="5.93364">
        <ele>1655.47736009</ele>
        <time>2015-06-11T15:01:55Z</time>
      </trkpt>
      <trkpt lat="45.45837" lon="5.93364">
        <ele>1655.47736009</ele>
        <time>2015-06-11T15:02:00Z</time>
      </trkpt>
      <trkpt lat="45.45838" lon="5.93367">
        <ele>1654.233300046</ele>
        <time>2015-06-11T15:02:05Z</time>
      </trkpt>
      <trkpt lat="45.45835" lon="5.93378">
        <ele>1654.233300046</ele>
        <time>2015-06-11T15:02:10Z</time>
      </trkpt>
      <trkpt lat="45.45838" lon="5.93374">
        <ele>1653.185060192</ele>
        <time>2015-06-11T15:02:16Z</time>
      </trkpt>
      <trkpt lat="45.4584" lon="5.93373">
        <ele>1653.185060192</ele>
        <time>2015-06-11T15:02:20Z</time>
      </trkpt>
      <trkpt lat="45.45841" lon="5.93374">
        <ele>1653.185060192</ele>
        <time>2015-06-11T15:02:25Z</time>
      </trkpt>
      <trkpt lat="45.45841" lon="5.93375">
        <ele>1653.185060192</ele>
        <time>2015-06-11T15:02:30Z</time>
      </trkpt>
      <trkpt lat="45.45847" lon="5.93385">
        <ele>1651.307951327</ele>
        <time>2015-06-11T15:02:35Z</time>
      </trkpt>
      <trkpt lat="45.45852" lon="5.93392">
        <ele>1651.307951327</ele>
        <time>2015-06-11T15:02:40Z</time>
      </trkpt>
      <trkpt lat="45.45857" lon="5.934">
        <ele>1650.104798901</ele>
        <time>2015-06-11T15:02:45Z</time>
      </trkpt>
      <trkpt lat="45.45859" lon="5.93411">
        <ele>1650.104798901</ele>
        <time>2015-06-11T15:02:50Z</time>
      </trkpt>
      <trkpt lat="45.4586" lon="5.93419">
        <ele>1649.380945637</ele>
        <time>2015-06-11T15:02:55Z</time>
      </trkpt>
      <trkpt lat="45.45859" lon="5.93426">
        <ele>1649.380945637</ele>
        <time>2015-06-11T15:03:00Z</time>
      </trkpt>
      <trkpt lat="45.4586" lon="5.93427">
        <ele>1649.380945637</ele>
        <time>2015-06-11T15:03:05Z</time>
      </trkpt>
      <trkpt lat="45.45861" lon="5.93428">
        <ele>1649.380945637</ele>
        <time>2015-06-11T15:03:10Z</time>
      </trkpt>
      <trkpt lat="45.45862" lon="5.93432">
        <ele>1648.666495595</ele>
        <time>2015-06-11T15:03:15Z</time>
      </trkpt>
      <trkpt lat="45.45867" lon="5.93444">
        <ele>1648.246632351</ele>
        <time>2015-06-11T15:03:20Z</time>
      </trkpt>
      <trkpt lat="45.45874" lon="5.9345">
        <ele>1648.246632351</ele>
        <time>2015-06-11T15:03:25Z</time>
      </trkpt>
      <trkpt lat="45.45873" lon="5.9345">
        <ele>1648.246632351</ele>
        <time>2015-06-11T15:03:30Z</time>
      </trkpt>
      <trkpt lat="45.45874" lon="5.93451">
        <ele>1647.520132809</ele>
        <time>2015-06-11T15:03:35Z</time>
      </trkpt>
      <trkpt lat="45.45876" lon="5.93453">
        <ele>1647.520132809</ele>
        <time>2015-06-11T15:03:40Z</time>
      </trkpt>
      <trkpt lat="45.4588" lon="5.93462">
        <ele>1646.651396111</ele>
        <time>2015-06-11T15:03:45Z</time>
      </trkpt>
      <trkpt lat="45.45882" lon="5.93469">
        <ele>1646.651396111</ele>
        <time>2015-06-11T15:03:50Z</time>
      </trkpt>
      <trkpt lat="45.45885" lon="5.93475">
        <ele>1646.225522578</ele>
        <time>2015-06-11T15:03:55Z</time>
      </trkpt>
      <trkpt lat="45.45887" lon="5.93482">
        <ele>1646.225522578</ele>
        <time>2015-06-11T15:04:01Z</time>
      </trkpt>
      <trkpt lat="45.45889" lon="5.93484">
        <ele>1646.225522578</ele>
        <time>2015-06-11T15:04:05Z</time>
      </trkpt>
      <trkpt lat="45.4589" lon="5.93485">
        <ele>1646.225522578</ele>
        <time>2015-06-11T15:04:10Z</time>
      </trkpt>
      <trkpt lat="45.45891" lon="5.93486">
        <ele>1645.774660387</ele>
        <time>2015-06-11T15:04:15Z</time>
      </trkpt>
      <trkpt lat="45.45892" lon="5.93486">
        <ele>1645.774660387</ele>
        <time>2015-06-11T15:04:20Z</time>
      </trkpt>
      <trkpt lat="45.45896" lon="5.93496">
        <ele>1645.774660387</ele>
        <time>2015-06-11T15:04:24Z</time>
      </trkpt>
      <trkpt lat="45.45898" lon="5.93509">
        <ele>1645.58600563</ele>
        <time>2015-06-11T15:04:30Z</time>
      </trkpt>
      <trkpt lat="45.45898" lon="5.93524">
        <ele>1644.772089855</ele>
        <time>2015-06-11T15:04:35Z</time>
      </trkpt>
      <trkpt lat="45.45899" lon="5.93533">
        <ele>1644.772089855</ele>
        <time>2015-06-11T15:04:40Z</time>
      </trkpt>
      <trkpt lat="45.45903" lon="5.93538">
        <ele>1644.530010052</ele>
        <time>2015-06-11T15:04:45Z</time>
      </trkpt>
      <trkpt lat="45.45907" lon="5.93545">
        <ele>1644.530010052</ele>
        <time>2015-06-11T15:04:50Z</time>
      </trkpt>
      <trkpt lat="45.45913" lon="5.93554">
        <ele>1643.949830217</ele>
        <time>2015-06-11T15:04:55Z</time>
      </trkpt>
      <trkpt lat="45.45918" lon="5.93561">
        <ele>1643.949830217</ele>
        <time>2015-06-11T15:05:00Z</time>
      </trkpt>
      <trkpt lat="45.45921" lon="5.93563">
        <ele>1643.77469803</ele>
        <time>2015-06-11T15:05:05Z</time>
      </trkpt>
      <trkpt lat="45.45925" lon="5.93567">
        <ele>1643.77469803</ele>
        <time>2015-06-11T15:05:10Z</time>
      </trkpt>
      <trkpt lat="45.45929" lon="5.93574">
        <ele>1644.403884917</ele>
        <time>2015-06-11T15:05:15Z</time>
      </trkpt>
      <trkpt lat="45.45933" lon="5.93575">
        <ele>1644.403884917</ele>
        <time>2015-06-11T15:05:21Z</time>
      </trkpt>
      <trkpt lat="45.45938" lon="5.93573">
        <ele>1644.764043102</ele>
        <time>2015-06-11T15:05:25Z</time>
      </trkpt>
      <trkpt lat="45.45945" lon="5.93568">
        <ele>1644.764043102</ele>
        <time>2015-06-11T15:05:30Z</time>
      </trkpt>
      <trkpt lat="45.45943" lon="5.93568">
        <ele>1645.158513128</ele>
        <time>2015-06-11T15:05:35Z</time>
      </trkpt>
      <trkpt lat="45.45943" lon="5.93565">
        <ele>1645.158513128</ele>
        <time>2015-06-11T15:05:40Z</time>
      </trkpt>
      <trkpt lat="45.45944" lon="5.93561">
        <ele>1645.158513128</ele>
        <time>2015-06-11T15:05:45Z</time>
      </trkpt>
      <trkpt lat="45.45944" lon="5.93562">
        <ele>1645.158513128</ele>
        <time>2015-06-11T15:05:50Z</time>
      </trkpt>
      <trkpt lat="45.45944" lon="5.93562">
        <ele>1645.158513128</ele>
        <time>2015-06-11T15:05:55Z</time>
      </trkpt>
      <trkpt lat="45.4595" lon="5.9355">
        <ele>1646.012461086</ele>
        <time>2015-06-11T15:06:00Z</time>
      </trkpt>
      <trkpt lat="45.45955" lon="5.93547">
        <ele>1646.012461086</ele>
        <time>2015-06-11T15:06:05Z</time>
      </trkpt>
      <trkpt lat="45.45963" lon="5.93544">
        <ele>1646.853967053</ele>
        <time>2015-06-11T15:06:10Z</time>
      </trkpt>
      <trkpt lat="45.45969" lon="5.9354">
        <ele>1646.853967053</ele>
        <time>2015-06-11T15:06:15Z</time>
      </trkpt>
      <trkpt lat="45.45976" lon="5.93538">
        <ele>1646.525365726</ele>
        <time>2015-06-11T15:06:20Z</time>
      </trkpt>
      <trkpt lat="45.45981" lon="5.93535">
        <ele>1646.525365726</ele>
        <time>2015-06-11T15:06:25Z</time>
      </trkpt>
      <trkpt lat="45.45984" lon="5.93531">
        <ele>1645.830873582</ele>
        <time>2015-06-11T15:06:30Z</time>
      </trkpt>
      <trkpt lat="45.4599" lon="5.93528">
        <ele>1645.830873582</ele>
        <time>2015-06-11T15:06:35Z</time>
      </trkpt>
      <trkpt lat="45.45997" lon="5.93524">
        <ele>1644.796213703</ele>
        <time>2015-06-11T15:06:40Z</time>
      </trkpt>
      <trkpt lat="45.46004" lon="5.93522">
        <ele>1644.796213703</ele>
        <time>2015-06-11T15:06:45Z</time>
      </trkpt>
      <trkpt lat="45.46012" lon="5.93526">
        <ele>1644.310951699</ele>
        <time>2015-06-11T15:06:50Z</time>
      </trkpt>
      <trkpt lat="45.46018" lon="5.93529">
        <ele>1644.310951699</ele>
        <time>2015-06-11T15:06:55Z</time>
      </trkpt>
      <trkpt lat="45.46023" lon="5.93531">
        <ele>1644.044982042</ele>
        <time>2015-06-11T15:07:00Z</time>
      </trkpt>
      <trkpt lat="45.46023" lon="5.93532">
        <ele>1644.044982042</ele>
        <time>2015-06-11T15:07:05Z</time>
      </trkpt>
      <trkpt lat="45.46029" lon="5.9353">
        <ele>1644.044982042</ele>
        <time>2015-06-11T15:07:10Z</time>
      </trkpt>
      <trkpt lat="45.4603" lon="5.93522">
        <ele>1644.700715335</ele>
        <time>2015-06-11T15:07:15Z</time>
      </trkpt>
      <trkpt lat="45.46031" lon="5.93514">
        <ele>1644.700715335</ele>
        <time>2015-06-11T15:07:20Z</time>
      </trkpt>
      <trkpt lat="45.46035" lon="5.93514">
        <ele>1645.485369816</ele>
        <time>2015-06-11T15:07:24Z</time>
      </trkpt>
      <trkpt lat="45.46042" lon="5.93515">
        <ele>1645.485369816</ele>
        <time>2015-06-11T15:07:31Z</time>
      </trkpt>
      <trkpt lat="45.46049" lon="5.93506">
        <ele>1646.528813191</ele>
        <time>2015-06-11T15:07:35Z</time>
      </trkpt>
      <trkpt lat="45.46056" lon="5.93525">
        <ele>1647.950760094</ele>
        <time>2015-06-11T15:07:40Z</time>
      </trkpt>
      <trkpt lat="45.46065" lon="5.93521">
        <ele>1649.140633675</ele>
        <time>2015-06-11T15:07:45Z</time>
      </trkpt>
      <trkpt lat="45.46071" lon="5.93517">
        <ele>1649.140633675</ele>
        <time>2015-06-11T15:07:50Z</time>
      </trkpt>
      <trkpt lat="45.46074" lon="5.93518">
        <ele>1649.389375891</ele>
        <time>2015-06-11T15:07:55Z</time>
      </trkpt>
      <trkpt lat="45.46077" lon="5.93518">
        <ele>1649.389375891</ele>
        <time>2015-06-11T15:08:00Z</time>
      </trkpt>
      <trkpt lat="45.46079" lon="5.93522">
        <ele>1649.389375891</ele>
        <time>2015-06-11T15:08:05Z</time>
      </trkpt>
      <trkpt lat="45.46083" lon="5.93521">
        <ele>1649.628009506</ele>
        <time>2015-06-11T15:08:10Z</time>
      </trkpt>
      <trkpt lat="45.46082" lon="5.93522">
        <ele>1649.628009506</ele>
        <time>2015-06-11T15:08:15Z</time>
      </trkpt>
      <trkpt lat="45.46086" lon="5.93527">
        <ele>1649.628009506</ele>
        <time>2015-06-11T15:08:20Z</time>
      </trkpt>
      <trkpt lat="45.46088" lon="5.93528">
        <ele>1649.628009506</ele>
        <time>2015-06-11T15:08:25Z</time>
      </trkpt>
      <trkpt lat="45.46087" lon="5.93528">
        <ele>1650.286993199</ele>
        <time>2015-06-11T15:08:30Z</time>
      </trkpt>
      <trkpt lat="45.46087" lon="5.93528">
        <ele>1650.286993199</ele>
        <time>2015-06-11T15:08:35Z</time>
      </trkpt>
      <trkpt lat="45.46086" lon="5.93528">
        <ele>1650.286993199</ele>
        <time>2015-06-11T15:08:40Z</time>
      </trkpt>
      <trkpt lat="45.46087" lon="5.93528">
        <ele>1650.286993199</ele>
        <time>2015-06-11T15:08:45Z</time>
      </trkpt>
      <trkpt lat="45.46087" lon="5.93528">
        <ele>1650.286993199</ele>
        <time>2015-06-11T15:08:50Z</time>
      </trkpt>
      <trkpt lat="45.46087" lon="5.93528">
        <ele>1650.286993199</ele>
        <time>2015-06-11T15:08:55Z</time>
      </trkpt>
      <trkpt lat="45.46087" lon="5.93528">
        <ele>1650.286993199</ele>
        <time>2015-06-11T15:09:00Z</time>
      </trkpt>
      <trkpt lat="45.46087" lon="5.93528">
        <ele>1650.286993199</ele>
        <time>2015-06-11T15:09:05Z</time>
      </trkpt>
      <trkpt lat="45.46087" lon="5.93528">
        <ele>1650.286993199</ele>
        <time>2015-06-11T15:09:10Z</time>
      </trkpt>
      <trkpt lat="45.46087" lon="5.93528">
        <ele>1650.286993199</ele>
        <time>2015-06-11T15:09:15Z</time>
      </trkpt>
      <trkpt lat="45.46087" lon="5.93528">
        <ele>1650.286993199</ele>
        <time>2015-06-11T15:09:20Z</time>
      </trkpt>
      <trkpt lat="45.46087" lon="5.93528">
        <ele>1650.286993199</ele>
        <time>2015-06-11T15:09:25Z</time>
      </trkpt>
      <trkpt lat="45.46087" lon="5.93528">
        <ele>1650.286993199</ele>
        <time>2015-06-11T15:09:30Z</time>
      </trkpt>
      <trkpt lat="45.46087" lon="5.93528">
        <ele>1650.286993199</ele>
        <time>2015-06-11T15:09:35Z</time>
      </trkpt>
      <trkpt lat="45.46087" lon="5.93528">
        <ele>1650.286993199</ele>
        <time>2015-06-11T15:09:40Z</time>
      </trkpt>
      <trkpt lat="45.46087" lon="5.93528">
        <ele>1650.286993199</ele>
        <time>2015-06-11T15:09:45Z</time>
      </trkpt>
      <trkpt lat="45.46087" lon="5.93528">
        <ele>1650.286993199</ele>
        <time>2015-06-11T15:09:50Z</time>
      </trkpt>
      <trkpt lat="45.46087" lon="5.93528">
        <ele>1650.286993199</ele>
        <time>2015-06-11T15:09:55Z</time>
      </trkpt>
      <trkpt lat="45.46087" lon="5.93528">
        <ele>1650.286993199</ele>
        <time>2015-06-11T15:10:00Z</time>
      </trkpt>
      <trkpt lat="45.46087" lon="5.93528">
        <ele>1650.286993199</ele>
        <time>2015-06-11T15:10:05Z</time>
      </trkpt>
      <trkpt lat="45.46087" lon="5.93528">
        <ele>1650.286993199</ele>
        <time>2015-06-11T15:10:10Z</time>
      </trkpt>
      <trkpt lat="45.46087" lon="5.93528">
        <ele>1650.286993199</ele>
        <time>2015-06-11T15:10:15Z</time>
      </trkpt>
      <trkpt lat="45.46087" lon="5.93528">
        <ele>1650.286993199</ele>
        <time>2015-06-11T15:10:20Z</time>
      </trkpt>
      <trkpt lat="45.46087" lon="5.93528">
        <ele>1650.286993199</ele>
        <time>2015-06-11T15:10:24Z</time>
      </trkpt>
      <trkpt lat="45.46087" lon="5.93528">
        <ele>1650.286993199</ele>
        <time>2015-06-11T15:10:30Z</time>
      </trkpt>
      <trkpt lat="45.46087" lon="5.93528">
        <ele>1650.286993199</ele>
        <time>2015-06-11T15:10:35Z</time>
      </trkpt>
      <trkpt lat="45.46087" lon="5.93528">
        <ele>1650.286993199</ele>
        <time>2015-06-11T15:10:39Z</time>
      </trkpt>
      <trkpt lat="45.46087" lon="5.93528">
        <ele>1650.286993199</ele>
        <time>2015-06-11T15:10:45Z</time>
      </trkpt>
      <trkpt lat="45.46087" lon="5.93528">
        <ele>1650.286993199</ele>
        <time>2015-06-11T15:10:49Z</time>
      </trkpt>
      <trkpt lat="45.46087" lon="5.93528">
        <ele>1650.286993199</ele>
        <time>2015-06-11T15:10:56Z</time>
      </trkpt>
      <trkpt lat="45.46087" lon="5.93528">
        <ele>1650.286993199</ele>
        <time>2015-06-11T15:11:00Z</time>
      </trkpt>
      <trkpt lat="45.46087" lon="5.93528">
        <ele>1650.286993199</ele>
        <time>2015-06-11T15:11:05Z</time>
      </trkpt>
      <trkpt lat="45.46087" lon="5.93528">
        <ele>1650.286993199</ele>
        <time>2015-06-11T15:11:10Z</time>
      </trkpt>
      <trkpt lat="45.46087" lon="5.93528">
        <ele>1650.286993199</ele>
        <time>2015-06-11T15:11:15Z</time>
      </trkpt>
      <trkpt lat="45.46087" lon="5.93528">
        <ele>1650.286993199</ele>
        <time>2015-06-11T15:11:20Z</time>
      </trkpt>
      <trkpt lat="45.46087" lon="5.93528">
        <ele>1650.286993199</ele>
        <time>2015-06-11T15:11:25Z</time>
      </trkpt>
      <trkpt lat="45.46087" lon="5.93528">
        <ele>1650.286993199</ele>
        <time>2015-06-11T15:11:30Z</time>
      </trkpt>
      <trkpt lat="45.46087" lon="5.93528">
        <ele>1650.286993199</ele>
        <time>2015-06-11T15:11:35Z</time>
      </trkpt>
      <trkpt lat="45.46087" lon="5.93528">
        <ele>1650.286993199</ele>
        <time>2015-06-11T15:11:40Z</time>
      </trkpt>
      <trkpt lat="45.46087" lon="5.93527">
        <ele>1650.286993199</ele>
        <time>2015-06-11T15:11:46Z</time>
      </trkpt>
      <trkpt lat="45.46087" lon="5.93527">
        <ele>1650.286993199</ele>
        <time>2015-06-11T15:11:50Z</time>
      </trkpt>
      <trkpt lat="45.46087" lon="5.93527">
        <ele>1650.286993199</ele>
        <time>2015-06-11T15:11:55Z</time>
      </trkpt>
      <trkpt lat="45.46087" lon="5.93527">
        <ele>1650.286993199</ele>
        <time>2015-06-11T15:12:01Z</time>
      </trkpt>
      <trkpt lat="45.46087" lon="5.93527">
        <ele>1650.286993199</ele>
        <time>2015-06-11T15:12:05Z</time>
      </trkpt>
      <trkpt lat="45.46087" lon="5.93527">
        <ele>1650.286993199</ele>
        <time>2015-06-11T15:12:10Z</time>
      </trkpt>
      <trkpt lat="45.46087" lon="5.93527">
        <ele>1650.286993199</ele>
        <time>2015-06-11T15:12:15Z</time>
      </trkpt>
      <trkpt lat="45.46087" lon="5.93527">
        <ele>1650.286993199</ele>
        <time>2015-06-11T15:12:20Z</time>
      </trkpt>
      <trkpt lat="45.46087" lon="5.93528">
        <ele>1650.286993199</ele>
        <time>2015-06-11T15:12:25Z</time>
      </trkpt>
      <trkpt lat="45.46087" lon="5.93528">
        <ele>1650.286993199</ele>
        <time>2015-06-11T15:12:30Z</time>
      </trkpt>
      <trkpt lat="45.46087" lon="5.93528">
        <ele>1650.286993199</ele>
        <time>2015-06-11T15:12:35Z</time>
      </trkpt>
      <trkpt lat="45.46087" lon="5.93528">
        <ele>1650.286993199</ele>
        <time>2015-06-11T15:12:40Z</time>
      </trkpt>
      <trkpt lat="45.46087" lon="5.93528">
        <ele>1650.286993199</ele>
        <time>2015-06-11T15:12:45Z</time>
      </trkpt>
      <trkpt lat="45.46087" lon="5.93528">
        <ele>1650.286993199</ele>
        <time>2015-06-11T15:12:50Z</time>
      </trkpt>
      <trkpt lat="45.46087" lon="5.93528">
        <ele>1650.286993199</ele>
        <time>2015-06-11T15:12:55Z</time>
      </trkpt>
      <trkpt lat="45.46087" lon="5.93528">
        <ele>1650.286993199</ele>
        <time>2015-06-11T15:13:00Z</time>
      </trkpt>
      <trkpt lat="45.46087" lon="5.93528">
        <ele>1650.286993199</ele>
        <time>2015-06-11T15:13:05Z</time>
      </trkpt>
      <trkpt lat="45.46087" lon="5.93528">
        <ele>1650.286993199</ele>
        <time>2015-06-11T15:13:10Z</time>
      </trkpt>
      <trkpt lat="45.46087" lon="5.93528">
        <ele>1650.286993199</ele>
        <time>2015-06-11T15:13:14Z</time>
      </trkpt>
      <trkpt lat="45.46087" lon="5.93528">
        <ele>1650.286993199</ele>
        <time>2015-06-11T15:13:19Z</time>
      </trkpt>
      <trkpt lat="45.46087" lon="5.93528">
        <ele>1650.286993199</ele>
        <time>2015-06-11T15:13:24Z</time>
      </trkpt>
      <trkpt lat="45.46087" lon="5.93528">
        <ele>1650.286993199</ele>
        <time>2015-06-11T15:13:29Z</time>
      </trkpt>
      <trkpt lat="45.46087" lon="5.93528">
        <ele>1650.286993199</ele>
        <time>2015-06-11T15:13:34Z</time>
      </trkpt>
      <trkpt lat="45.46087" lon="5.93526">
        <ele>1650.286993199</ele>
        <time>2015-06-11T15:13:39Z</time>
      </trkpt>
      <trkpt lat="45.46087" lon="5.93526">
        <ele>1650.286993199</ele>
        <time>2015-06-11T15:13:44Z</time>
      </trkpt>
      <trkpt lat="45.46087" lon="5.93526">
        <ele>1650.286993199</ele>
        <time>2015-06-11T15:13:50Z</time>
      </trkpt>
      <trkpt lat="45.46085" lon="5.93525">
        <ele>1650.286993199</ele>
        <time>2015-06-11T15:13:54Z</time>
      </trkpt>
      <trkpt lat="45.46087" lon="5.93523">
        <ele>1650.286993199</ele>
        <time>2015-06-11T15:13:59Z</time>
      </trkpt>
      <trkpt lat="45.46085" lon="5.93524">
        <ele>1650.89945191</ele>
        <time>2015-06-11T15:14:07Z</time>
      </trkpt>
      <trkpt lat="45.46087" lon="5.93527">
        <ele>1650.89945191</ele>
        <time>2015-06-11T15:14:09Z</time>
      </trkpt>
      <trkpt lat="45.46087" lon="5.93526">
        <ele>1650.89945191</ele>
        <time>2015-06-11T15:14:14Z</time>
      </trkpt>
      <trkpt lat="45.46086" lon="5.93527">
        <ele>1650.89945191</ele>
        <time>2015-06-11T15:14:19Z</time>
      </trkpt>
      <trkpt lat="45.46086" lon="5.93527">
        <ele>1650.89945191</ele>
        <time>2015-06-11T15:14:24Z</time>
      </trkpt>
      <trkpt lat="45.46086" lon="5.93527">
        <ele>1650.89945191</ele>
        <time>2015-06-11T15:14:29Z</time>
      </trkpt>
      <trkpt lat="45.46086" lon="5.93527">
        <ele>1650.89945191</ele>
        <time>2015-06-11T15:14:34Z</time>
      </trkpt>
      <trkpt lat="45.46086" lon="5.93527">
        <ele>1650.89945191</ele>
        <time>2015-06-11T15:14:39Z</time>
      </trkpt>
      <trkpt lat="45.46086" lon="5.93527">
        <ele>1650.89945191</ele>
        <time>2015-06-11T15:14:44Z</time>
      </trkpt>
      <trkpt lat="45.46086" lon="5.93527">
        <ele>1650.89945191</ele>
        <time>2015-06-11T15:14:50Z</time>
      </trkpt>
      <trkpt lat="45.46086" lon="5.93527">
        <ele>1650.89945191</ele>
        <time>2015-06-11T15:14:55Z</time>
      </trkpt>
      <trkpt lat="45.46086" lon="5.93527">
        <ele>1650.89945191</ele>
        <time>2015-06-11T15:15:00Z</time>
      </trkpt>
      <trkpt lat="45.46086" lon="5.93527">
        <ele>1650.89945191</ele>
        <time>2015-06-11T15:15:05Z</time>
      </trkpt>
      <trkpt lat="45.46086" lon="5.93527">
        <ele>1650.89945191</ele>
        <time>2015-06-11T15:15:10Z</time>
      </trkpt>
      <trkpt lat="45.46086" lon="5.93527">
        <ele>1650.89945191</ele>
        <time>2015-06-11T15:15:15Z</time>
      </trkpt>
      <trkpt lat="45.46086" lon="5.93527">
        <ele>1650.89945191</ele>
        <time>2015-06-11T15:15:19Z</time>
      </trkpt>
      <trkpt lat="45.46086" lon="5.93527">
        <ele>1650.89945191</ele>
        <time>2015-06-11T15:15:26Z</time>
      </trkpt>
      <trkpt lat="45.46086" lon="5.93527">
        <ele>1650.89945191</ele>
        <time>2015-06-11T15:15:30Z</time>
      </trkpt>
      <trkpt lat="45.46086" lon="5.93527">
        <ele>1650.89945191</ele>
        <time>2015-06-11T15:15:35Z</time>
      </trkpt>
      <trkpt lat="45.46086" lon="5.93527">
        <ele>1650.89945191</ele>
        <time>2015-06-11T15:15:41Z</time>
      </trkpt>
      <trkpt lat="45.46086" lon="5.93527">
        <ele>1650.89945191</ele>
        <time>2015-06-11T15:15:45Z</time>
      </trkpt>
      <trkpt lat="45.46086" lon="5.93527">
        <ele>1650.89945191</ele>
        <time>2015-06-11T15:15:50Z</time>
      </trkpt>
      <trkpt lat="45.46086" lon="5.93527">
        <ele>1650.89945191</ele>
        <time>2015-06-11T15:15:55Z</time>
      </trkpt>
      <trkpt lat="45.46086" lon="5.93527">
        <ele>1650.89945191</ele>
        <time>2015-06-11T15:16:00Z</time>
      </trkpt>
      <trkpt lat="45.46086" lon="5.93527">
        <ele>1650.89945191</ele>
        <time>2015-06-11T15:16:05Z</time>
      </trkpt>
      <trkpt lat="45.46086" lon="5.93527">
        <ele>1650.89945191</ele>
        <time>2015-06-11T15:16:10Z</time>
      </trkpt>
      <trkpt lat="45.46086" lon="5.93527">
        <ele>1650.89945191</ele>
        <time>2015-06-11T15:16:15Z</time>
      </trkpt>
      <trkpt lat="45.46086" lon="5.93527">
        <ele>1650.89945191</ele>
        <time>2015-06-11T15:16:20Z</time>
      </trkpt>
      <trkpt lat="45.46086" lon="5.93527">
        <ele>1650.89945191</ele>
        <time>2015-06-11T15:16:25Z</time>
      </trkpt>
      <trkpt lat="45.46086" lon="5.93527">
        <ele>1650.89945191</ele>
        <time>2015-06-11T15:16:30Z</time>
      </trkpt>
      <trkpt lat="45.46086" lon="5.93527">
        <ele>1650.89945191</ele>
        <time>2015-06-11T15:16:35Z</time>
      </trkpt>
      <trkpt lat="45.46086" lon="5.93527">
        <ele>1650.89945191</ele>
        <time>2015-06-11T15:16:39Z</time>
      </trkpt>
      <trkpt lat="45.46086" lon="5.93527">
        <ele>1650.89945191</ele>
        <time>2015-06-11T15:16:45Z</time>
      </trkpt>
      <trkpt lat="45.46086" lon="5.93527">
        <ele>1650.89945191</ele>
        <time>2015-06-11T15:16:49Z</time>
      </trkpt>
      <trkpt lat="45.46086" lon="5.93527">
        <ele>1650.89945191</ele>
        <time>2015-06-11T15:16:55Z</time>
      </trkpt>
      <trkpt lat="45.46086" lon="5.93527">
        <ele>1650.89945191</ele>
        <time>2015-06-11T15:16:59Z</time>
      </trkpt>
      <trkpt lat="45.46086" lon="5.93527">
        <ele>1650.89945191</ele>
        <time>2015-06-11T15:17:06Z</time>
      </trkpt>
      <trkpt lat="45.46086" lon="5.93527">
        <ele>1650.89945191</ele>
        <time>2015-06-11T15:17:10Z</time>
      </trkpt>
      <trkpt lat="45.46086" lon="5.93527">
        <ele>1650.89945191</ele>
        <time>2015-06-11T15:17:15Z</time>
      </trkpt>
      <trkpt lat="45.46086" lon="5.93527">
        <ele>1650.89945191</ele>
        <time>2015-06-11T15:17:21Z</time>
      </trkpt>
      <trkpt lat="45.46086" lon="5.93527">
        <ele>1650.89945191</ele>
        <time>2015-06-11T15:17:25Z</time>
      </trkpt>
      <trkpt lat="45.46086" lon="5.93527">
        <ele>1650.89945191</ele>
        <time>2015-06-11T15:17:30Z</time>
      </trkpt>
      <trkpt lat="45.46086" lon="5.93527">
        <ele>1650.89945191</ele>
        <time>2015-06-11T15:17:35Z</time>
      </trkpt>
      <trkpt lat="45.46086" lon="5.93527">
        <ele>1650.89945191</ele>
        <time>2015-06-11T15:17:41Z</time>
      </trkpt>
      <trkpt lat="45.46086" lon="5.93527">
        <ele>1650.89945191</ele>
        <time>2015-06-11T15:17:45Z</time>
      </trkpt>
      <trkpt lat="45.46086" lon="5.93527">
        <ele>1650.89945191</ele>
        <time>2015-06-11T15:17:50Z</time>
      </trkpt>
      <trkpt lat="45.46086" lon="5.93527">
        <ele>1650.89945191</ele>
        <time>2015-06-11T15:17:55Z</time>
      </trkpt>
      <trkpt lat="45.46086" lon="5.93527">
        <ele>1650.89945191</ele>
        <time>2015-06-11T15:18:00Z</time>
      </trkpt>
      <trkpt lat="45.46086" lon="5.93527">
        <ele>1650.89945191</ele>
        <time>2015-06-11T15:18:06Z</time>
      </trkpt>
      <trkpt lat="45.46086" lon="5.93527">
        <ele>1650.89945191</ele>
        <time>2015-06-11T15:18:10Z</time>
      </trkpt>
      <trkpt lat="45.46086" lon="5.93527">
        <ele>1650.89945191</ele>
        <time>2015-06-11T15:18:15Z</time>
      </trkpt>
      <trkpt lat="45.46086" lon="5.93527">
        <ele>1650.89945191</ele>
        <time>2015-06-11T15:18:21Z</time>
      </trkpt>
      <trkpt lat="45.46086" lon="5.93527">
        <ele>1650.89945191</ele>
        <time>2015-06-11T15:18:25Z</time>
      </trkpt>
      <trkpt lat="45.46086" lon="5.93527">
        <ele>1650.89945191</ele>
        <time>2015-06-11T15:18:30Z</time>
      </trkpt>
      <trkpt lat="45.46086" lon="5.93527">
        <ele>1650.89945191</ele>
        <time>2015-06-11T15:18:35Z</time>
      </trkpt>
      <trkpt lat="45.46086" lon="5.93527">
        <ele>1650.89945191</ele>
        <time>2015-06-11T15:18:40Z</time>
      </trkpt>
      <trkpt lat="45.46086" lon="5.93527">
        <ele>1650.89945191</ele>
        <time>2015-06-11T15:18:45Z</time>
      </trkpt>
      <trkpt lat="45.46086" lon="5.93527">
        <ele>1650.89945191</ele>
        <time>2015-06-11T15:18:50Z</time>
      </trkpt>
      <trkpt lat="45.46086" lon="5.93527">
        <ele>1650.89945191</ele>
        <time>2015-06-11T15:18:55Z</time>
      </trkpt>
      <trkpt lat="45.46086" lon="5.93527">
        <ele>1650.89945191</ele>
        <time>2015-06-11T15:19:00Z</time>
      </trkpt>
      <trkpt lat="45.46086" lon="5.93527">
        <ele>1650.89945191</ele>
        <time>2015-06-11T15:19:05Z</time>
      </trkpt>
      <trkpt lat="45.46086" lon="5.93527">
        <ele>1650.89945191</ele>
        <time>2015-06-11T15:19:09Z</time>
      </trkpt>
      <trkpt lat="45.46086" lon="5.93527">
        <ele>1650.89945191</ele>
        <time>2015-06-11T15:19:16Z</time>
      </trkpt>
      <trkpt lat="45.46086" lon="5.93527">
        <ele>1650.89945191</ele>
        <time>2015-06-11T15:19:20Z</time>
      </trkpt>
      <trkpt lat="45.46086" lon="5.93527">
        <ele>1650.89945191</ele>
        <time>2015-06-11T15:19:25Z</time>
      </trkpt>
      <trkpt lat="45.46086" lon="5.93527">
        <ele>1650.89945191</ele>
        <time>2015-06-11T15:19:30Z</time>
      </trkpt>
      <trkpt lat="45.46086" lon="5.93527">
        <ele>1650.89945191</ele>
        <time>2015-06-11T15:19:35Z</time>
      </trkpt>
      <trkpt lat="45.46086" lon="5.93528">
        <ele>1650.89945191</ele>
        <time>2015-06-11T15:19:40Z</time>
      </trkpt>
      <trkpt lat="45.46086" lon="5.93528">
        <ele>1650.89945191</ele>
        <time>2015-06-11T15:19:45Z</time>
      </trkpt>
      <trkpt lat="45.46087" lon="5.93529">
        <ele>1650.89945191</ele>
        <time>2015-06-11T15:19:50Z</time>
      </trkpt>
      <trkpt lat="45.46087" lon="5.9353">
        <ele>1650.89945191</ele>
        <time>2015-06-11T15:19:55Z</time>
      </trkpt>
      <trkpt lat="45.46086" lon="5.9353">
        <ele>1650.89945191</ele>
        <time>2015-06-11T15:20:00Z</time>
      </trkpt>
      <trkpt lat="45.46086" lon="5.9353">
        <ele>1650.89945191</ele>
        <time>2015-06-11T15:20:06Z</time>
      </trkpt>
      <trkpt lat="45.46086" lon="5.9353">
        <ele>1650.89945191</ele>
        <time>2015-06-11T15:20:10Z</time>
      </trkpt>
      <trkpt lat="45.46086" lon="5.9353">
        <ele>1650.89945191</ele>
        <time>2015-06-11T15:20:15Z</time>
      </trkpt>
      <trkpt lat="45.46086" lon="5.9353">
        <ele>1650.89945191</ele>
        <time>2015-06-11T15:20:20Z</time>
      </trkpt>
      <trkpt lat="45.46086" lon="5.9353">
        <ele>1650.89945191</ele>
        <time>2015-06-11T15:20:25Z</time>
      </trkpt>
      <trkpt lat="45.46086" lon="5.9353">
        <ele>1650.89945191</ele>
        <time>2015-06-11T15:20:30Z</time>
      </trkpt>
      <trkpt lat="45.46086" lon="5.9353">
        <ele>1650.89945191</ele>
        <time>2015-06-11T15:20:35Z</time>
      </trkpt>
      <trkpt lat="45.46086" lon="5.9353">
        <ele>1650.89945191</ele>
        <time>2015-06-11T15:20:40Z</time>
      </trkpt>
      <trkpt lat="45.46086" lon="5.9353">
        <ele>1650.89945191</ele>
        <time>2015-06-11T15:20:46Z</time>
      </trkpt>
      <trkpt lat="45.46086" lon="5.9353">
        <ele>1650.89945191</ele>
        <time>2015-06-11T15:20:50Z</time>
      </trkpt>
      <trkpt lat="45.46087" lon="5.93531">
        <ele>1650.89945191</ele>
        <time>2015-06-11T15:20:55Z</time>
      </trkpt>
      <trkpt lat="45.46086" lon="5.93533">
        <ele>1651.177181112</ele>
        <time>2015-06-11T15:21:00Z</time>
      </trkpt>
      <trkpt lat="45.46087" lon="5.93532">
        <ele>1651.177181112</ele>
        <time>2015-06-11T15:21:05Z</time>
      </trkpt>
      <trkpt lat="45.46087" lon="5.93532">
        <ele>1651.177181112</ele>
        <time>2015-06-11T15:21:09Z</time>
      </trkpt>
      <trkpt lat="45.46087" lon="5.93532">
        <ele>1651.177181112</ele>
        <time>2015-06-11T15:21:14Z</time>
      </trkpt>
      <trkpt lat="45.46087" lon="5.93532">
        <ele>1651.177181112</ele>
        <time>2015-06-11T15:21:20Z</time>
      </trkpt>
      <trkpt lat="45.46087" lon="5.93532">
        <ele>1651.177181112</ele>
        <time>2015-06-11T15:21:24Z</time>
      </trkpt>
      <trkpt lat="45.46096" lon="5.93533">
        <ele>1651.574773887</ele>
        <time>2015-06-11T15:21:30Z</time>
      </trkpt>
      <trkpt lat="45.46099" lon="5.93541">
        <ele>1651.574773887</ele>
        <time>2015-06-11T15:21:35Z</time>
      </trkpt>
      <trkpt lat="45.46101" lon="5.93544">
        <ele>1651.648555372</ele>
        <time>2015-06-11T15:21:40Z</time>
      </trkpt>
      <trkpt lat="45.46103" lon="5.93546">
        <ele>1651.648555372</ele>
        <time>2015-06-11T15:21:45Z</time>
      </trkpt>
      <trkpt lat="45.46109" lon="5.93556">
        <ele>1651.997256136</ele>
        <time>2015-06-11T15:21:50Z</time>
      </trkpt>
      <trkpt lat="45.46111" lon="5.93561">
        <ele>1651.997256136</ele>
        <time>2015-06-11T15:21:55Z</time>
      </trkpt>
      <trkpt lat="45.46115" lon="5.93565">
        <ele>1652.454420908</ele>
        <time>2015-06-11T15:22:00Z</time>
      </trkpt>
      <trkpt lat="45.46122" lon="5.93571">
        <ele>1652.454420908</ele>
        <time>2015-06-11T15:22:05Z</time>
      </trkpt>
      <trkpt lat="45.46126" lon="5.93578">
        <ele>1653.009749732</ele>
        <time>2015-06-11T15:22:10Z</time>
      </trkpt>
      <trkpt lat="45.46123" lon="5.93588">
        <ele>1653.009749732</ele>
        <time>2015-06-11T15:22:15Z</time>
      </trkpt>
      <trkpt lat="45.46123" lon="5.93595">
        <ele>1653.509430774</ele>
        <time>2015-06-11T15:22:20Z</time>
      </trkpt>
      <trkpt lat="45.46129" lon="5.93592">
        <ele>1653.509430774</ele>
        <time>2015-06-11T15:22:25Z</time>
      </trkpt>
      <trkpt lat="45.46135" lon="5.93593">
        <ele>1652.946554312</ele>
        <time>2015-06-11T15:22:30Z</time>
      </trkpt>
      <trkpt lat="45.46139" lon="5.93598">
        <ele>1652.946554312</ele>
        <time>2015-06-11T15:22:35Z</time>
      </trkpt>
      <trkpt lat="45.46146" lon="5.9359">
        <ele>1652.264712241</ele>
        <time>2015-06-11T15:22:40Z</time>
      </trkpt>
      <trkpt lat="45.46151" lon="5.93595">
        <ele>1652.264712241</ele>
        <time>2015-06-11T15:22:45Z</time>
      </trkpt>
      <trkpt lat="45.46159" lon="5.93592">
        <ele>1651.04161406</ele>
        <time>2015-06-11T15:22:50Z</time>
      </trkpt>
      <trkpt lat="45.4616" lon="5.93599">
        <ele>1651.04161406</ele>
        <time>2015-06-11T15:22:55Z</time>
      </trkpt>
      <trkpt lat="45.4616" lon="5.93601">
        <ele>1651.04161406</ele>
        <time>2015-06-11T15:23:00Z</time>
      </trkpt>
      <trkpt lat="45.46162" lon="5.93595">
        <ele>1649.896375841</ele>
        <time>2015-06-11T15:23:05Z</time>
      </trkpt>
      <trkpt lat="45.46163" lon="5.93597">
        <ele>1649.896375841</ele>
        <time>2015-06-11T15:23:09Z</time>
      </trkpt>
      <trkpt lat="45.46165" lon="5.93593">
        <ele>1649.896375841</ele>
        <time>2015-06-11T15:23:15Z</time>
      </trkpt>
      <trkpt lat="45.46169" lon="5.93592">
        <ele>1648.970157657</ele>
        <time>2015-06-11T15:23:20Z</time>
      </trkpt>
      <trkpt lat="45.46173" lon="5.93592">
        <ele>1648.970157657</ele>
        <time>2015-06-11T15:23:25Z</time>
      </trkpt>
      <trkpt lat="45.46177" lon="5.93589">
        <ele>1648.970157657</ele>
        <time>2015-06-11T15:23:30Z</time>
      </trkpt>
      <trkpt lat="45.46179" lon="5.93594">
        <ele>1647.528530552</ele>
        <time>2015-06-11T15:23:35Z</time>
      </trkpt>
      <trkpt lat="45.46186" lon="5.93591">
        <ele>1647.528530552</ele>
        <time>2015-06-11T15:23:40Z</time>
      </trkpt>
      <trkpt lat="45.46188" lon="5.93588">
        <ele>1647.342402238</ele>
        <time>2015-06-11T15:23:45Z</time>
      </trkpt>
      <trkpt lat="45.46189" lon="5.93591">
        <ele>1647.342402238</ele>
        <time>2015-06-11T15:23:50Z</time>
      </trkpt>
      <trkpt lat="45.46196" lon="5.93585">
        <ele>1646.878662878</ele>
        <time>2015-06-11T15:23:55Z</time>
      </trkpt>
      <trkpt lat="45.46202" lon="5.93579">
        <ele>1646.878662878</ele>
        <time>2015-06-11T15:24:00Z</time>
      </trkpt>
      <trkpt lat="45.46205" lon="5.9358">
        <ele>1647.311637204</ele>
        <time>2015-06-11T15:24:05Z</time>
      </trkpt>
      <trkpt lat="45.46209" lon="5.93577">
        <ele>1647.311637204</ele>
        <time>2015-06-11T15:24:10Z</time>
      </trkpt>
      <trkpt lat="45.46217" lon="5.93576">
        <ele>1646.988785452</ele>
        <time>2015-06-11T15:24:15Z</time>
      </trkpt>
      <trkpt lat="45.46219" lon="5.93574">
        <ele>1646.988785452</ele>
        <time>2015-06-11T15:24:20Z</time>
      </trkpt>
      <trkpt lat="45.46221" lon="5.93572">
        <ele>1646.988785452</ele>
        <time>2015-06-11T15:24:25Z</time>
      </trkpt>
      <trkpt lat="45.46225" lon="5.93571">
        <ele>1645.678107213</ele>
        <time>2015-06-11T15:24:30Z</time>
      </trkpt>
      <trkpt lat="45.46227" lon="5.93573">
        <ele>1645.678107213</ele>
        <time>2015-06-11T15:24:34Z</time>
      </trkpt>
      <trkpt lat="45.46235" lon="5.9357">
        <ele>1644.464434785</ele>
        <time>2015-06-11T15:24:40Z</time>
      </trkpt>
      <trkpt lat="45.46239" lon="5.93569">
        <ele>1644.464434785</ele>
        <time>2015-06-11T15:24:45Z</time>
      </trkpt>
      <trkpt lat="45.46237" lon="5.93579">
        <ele>1642.911536052</ele>
        <time>2015-06-11T15:24:50Z</time>
      </trkpt>
      <trkpt lat="45.46238" lon="5.93589">
        <ele>1642.911536052</ele>
        <time>2015-06-11T15:24:55Z</time>
      </trkpt>
      <trkpt lat="45.46241" lon="5.93592">
        <ele>1642.057288692</ele>
        <time>2015-06-11T15:25:01Z</time>
      </trkpt>
      <trkpt lat="45.46242" lon="5.93592">
        <ele>1642.057288692</ele>
        <time>2015-06-11T15:25:05Z</time>
      </trkpt>
      <trkpt lat="45.46241" lon="5.93592">
        <ele>1642.057288692</ele>
        <time>2015-06-11T15:25:10Z</time>
      </trkpt>
      <trkpt lat="45.46241" lon="5.93592">
        <ele>1642.057288692</ele>
        <time>2015-06-11T15:25:15Z</time>
      </trkpt>
      <trkpt lat="45.46241" lon="5.93592">
        <ele>1642.057288692</ele>
        <time>2015-06-11T15:25:21Z</time>
      </trkpt>
      <trkpt lat="45.46242" lon="5.93593">
        <ele>1642.057288692</ele>
        <time>2015-06-11T15:25:25Z</time>
      </trkpt>
      <trkpt lat="45.46254" lon="5.9359">
        <ele>1640.123246099</ele>
        <time>2015-06-11T15:25:30Z</time>
      </trkpt>
      <trkpt lat="45.46259" lon="5.93593">
        <ele>1640.123246099</ele>
        <time>2015-06-11T15:25:35Z</time>
      </trkpt>
      <trkpt lat="45.46266" lon="5.93602">
        <ele>1638.635059471</ele>
        <time>2015-06-11T15:25:40Z</time>
      </trkpt>
      <trkpt lat="45.46268" lon="5.93606">
        <ele>1638.635059471</ele>
        <time>2015-06-11T15:25:45Z</time>
      </trkpt>
      <trkpt lat="45.46272" lon="5.93611">
        <ele>1638.635059471</ele>
        <time>2015-06-11T15:25:50Z</time>
      </trkpt>
      <trkpt lat="45.46277" lon="5.93616">
        <ele>1637.419802632</ele>
        <time>2015-06-11T15:25:55Z</time>
      </trkpt>
      <trkpt lat="45.46281" lon="5.93616">
        <ele>1637.419802632</ele>
        <time>2015-06-11T15:26:00Z</time>
      </trkpt>
      <trkpt lat="45.46285" lon="5.93615">
        <ele>1637.419802632</ele>
        <time>2015-06-11T15:26:05Z</time>
      </trkpt>
      <trkpt lat="45.46287" lon="5.93621">
        <ele>1635.163556534</ele>
        <time>2015-06-11T15:26:10Z</time>
      </trkpt>
      <trkpt lat="45.46288" lon="5.93624">
        <ele>1635.163556534</ele>
        <time>2015-06-11T15:26:15Z</time>
      </trkpt>
      <trkpt lat="45.46292" lon="5.93626">
        <ele>1635.163556534</ele>
        <time>2015-06-11T15:26:20Z</time>
      </trkpt>
      <trkpt lat="45.46293" lon="5.93636">
        <ele>1632.525234614</ele>
        <time>2015-06-11T15:26:25Z</time>
      </trkpt>
      <trkpt lat="45.46296" lon="5.93636">
        <ele>1632.525234614</ele>
        <time>2015-06-11T15:26:30Z</time>
      </trkpt>
      <trkpt lat="45.46299" lon="5.93638">
        <ele>1632.525234614</ele>
        <time>2015-06-11T15:26:35Z</time>
      </trkpt>
      <trkpt lat="45.46302" lon="5.93636">
        <ele>1629.251685762</ele>
        <time>2015-06-11T15:26:40Z</time>
      </trkpt>
      <trkpt lat="45.46302" lon="5.93637">
        <ele>1629.251685762</ele>
        <time>2015-06-11T15:26:45Z</time>
      </trkpt>
      <trkpt lat="45.46303" lon="5.93637">
        <ele>1629.251685762</ele>
        <time>2015-06-11T15:26:50Z</time>
      </trkpt>
      <trkpt lat="45.46313" lon="5.93636">
        <ele>1625.974722787</ele>
        <time>2015-06-11T15:26:56Z</time>
      </trkpt>
      <trkpt lat="45.46314" lon="5.93638">
        <ele>1625.974722787</ele>
        <time>2015-06-11T15:27:00Z</time>
      </trkpt>
      <trkpt lat="45.46314" lon="5.93638">
        <ele>1625.974722787</ele>
        <time>2015-06-11T15:27:05Z</time>
      </trkpt>
      <trkpt lat="45.46315" lon="5.93639">
        <ele>1625.974722787</ele>
        <time>2015-06-11T15:27:10Z</time>
      </trkpt>
      <trkpt lat="45.46315" lon="5.93639">
        <ele>1625.974722787</ele>
        <time>2015-06-11T15:27:15Z</time>
      </trkpt>
      <trkpt lat="45.46315" lon="5.93639">
        <ele>1625.974722787</ele>
        <time>2015-06-11T15:27:20Z</time>
      </trkpt>
      <trkpt lat="45.46315" lon="5.93639">
        <ele>1625.974722787</ele>
        <time>2015-06-11T15:27:25Z</time>
      </trkpt>
      <trkpt lat="45.46315" lon="5.93638">
        <ele>1625.974722787</ele>
        <time>2015-06-11T15:27:30Z</time>
      </trkpt>
      <trkpt lat="45.46315" lon="5.93638">
        <ele>1625.974722787</ele>
        <time>2015-06-11T15:27:34Z</time>
      </trkpt>
      <trkpt lat="45.46317" lon="5.93634">
        <ele>1625.974722787</ele>
        <time>2015-06-11T15:27:41Z</time>
      </trkpt>
      <trkpt lat="45.46324" lon="5.93633">
        <ele>1622.559100487</ele>
        <time>2015-06-11T15:27:45Z</time>
      </trkpt>
      <trkpt lat="45.4633" lon="5.93629">
        <ele>1622.559100487</ele>
        <time>2015-06-11T15:27:50Z</time>
      </trkpt>
      <trkpt lat="45.46335" lon="5.93625">
        <ele>1620.609117005</ele>
        <time>2015-06-11T15:27:55Z</time>
      </trkpt>
      <trkpt lat="45.46338" lon="5.93623">
        <ele>1620.609117005</ele>
        <time>2015-06-11T15:28:00Z</time>
      </trkpt>
      <trkpt lat="45.46339" lon="5.9362">
        <ele>1620.609117005</ele>
        <time>2015-06-11T15:28:05Z</time>
      </trkpt>
      <trkpt lat="45.46345" lon="5.93621">
        <ele>1618.724757079</ele>
        <time>2015-06-11T15:28:10Z</time>
      </trkpt>
      <trkpt lat="45.46347" lon="5.9362">
        <ele>1618.724757079</ele>
        <time>2015-06-11T15:28:15Z</time>
      </trkpt>
      <trkpt lat="45.46346" lon="5.93616">
        <ele>1618.724757079</ele>
        <time>2015-06-11T15:28:20Z</time>
      </trkpt>
      <trkpt lat="45.46353" lon="5.93618">
        <ele>1616.617306845</ele>
        <time>2015-06-11T15:28:26Z</time>
      </trkpt>
      <trkpt lat="45.46355" lon="5.9361">
        <ele>1616.617306845</ele>
        <time>2015-06-11T15:28:30Z</time>
      </trkpt>
      <trkpt lat="45.46356" lon="5.93604">
        <ele>1614.4520779</ele>
        <time>2015-06-11T15:28:35Z</time>
      </trkpt>
      <trkpt lat="45.46359" lon="5.93596">
        <ele>1614.4520779</ele>
        <time>2015-06-11T15:28:40Z</time>
      </trkpt>
      <trkpt lat="45.46356" lon="5.93589">
        <ele>1612.094031734</ele>
        <time>2015-06-11T15:28:45Z</time>
      </trkpt>
      <trkpt lat="45.46356" lon="5.93586">
        <ele>1612.094031734</ele>
        <time>2015-06-11T15:28:50Z</time>
      </trkpt>
      <trkpt lat="45.46362" lon="5.93584">
        <ele>1612.094031734</ele>
        <time>2015-06-11T15:28:55Z</time>
      </trkpt>
      <trkpt lat="45.46367" lon="5.9358">
        <ele>1609.994885982</ele>
        <time>2015-06-11T15:29:00Z</time>
      </trkpt>
      <trkpt lat="45.46367" lon="5.93573">
        <ele>1609.994885982</ele>
        <time>2015-06-11T15:29:05Z</time>
      </trkpt>
      <trkpt lat="45.46369" lon="5.93566">
        <ele>1607.851740995</ele>
        <time>2015-06-11T15:29:10Z</time>
      </trkpt>
      <trkpt lat="45.46376" lon="5.93565">
        <ele>1607.851740995</ele>
        <time>2015-06-11T15:29:15Z</time>
      </trkpt>
      <trkpt lat="45.46383" lon="5.93561">
        <ele>1605.528027722</ele>
        <time>2015-06-11T15:29:20Z</time>
      </trkpt>
      <trkpt lat="45.46383" lon="5.93558">
        <ele>1605.528027722</ele>
        <time>2015-06-11T15:29:25Z</time>
      </trkpt>
      <trkpt lat="45.4639" lon="5.93559">
        <ele>1603.041669997</ele>
        <time>2015-06-11T15:29:30Z</time>
      </trkpt>
      <trkpt lat="45.46391" lon="5.9356">
        <ele>1603.041669997</ele>
        <time>2015-06-11T15:29:35Z</time>
      </trkpt>
      <trkpt lat="45.46391" lon="5.93559">
        <ele>1603.041669997</ele>
        <time>2015-06-11T15:29:40Z</time>
      </trkpt>
      <trkpt lat="45.46397" lon="5.93557">
        <ele>1603.041669997</ele>
        <time>2015-06-11T15:29:45Z</time>
      </trkpt>
      <trkpt lat="45.46402" lon="5.93555">
        <ele>1599.833126256</ele>
        <time>2015-06-11T15:29:50Z</time>
      </trkpt>
      <trkpt lat="45.46405" lon="5.93555">
        <ele>1599.833126256</ele>
        <time>2015-06-11T15:29:55Z</time>
      </trkpt>
      <trkpt lat="45.46405" lon="5.93555">
        <ele>1599.833126256</ele>
        <time>2015-06-11T15:30:00Z</time>
      </trkpt>
      <trkpt lat="45.46405" lon="5.93555">
        <ele>1599.833126256</ele>
        <time>2015-06-11T15:30:05Z</time>
      </trkpt>
      <trkpt lat="45.46405" lon="5.93555">
        <ele>1599.833126256</ele>
        <time>2015-06-11T15:30:10Z</time>
      </trkpt>
      <trkpt lat="45.46405" lon="5.93555">
        <ele>1599.833126256</ele>
        <time>2015-06-11T15:30:15Z</time>
      </trkpt>
      <trkpt lat="45.46405" lon="5.93555">
        <ele>1599.833126256</ele>
        <time>2015-06-11T15:30:20Z</time>
      </trkpt>
      <trkpt lat="45.46405" lon="5.93555">
        <ele>1599.833126256</ele>
        <time>2015-06-11T15:30:25Z</time>
      </trkpt>
      <trkpt lat="45.46405" lon="5.93555">
        <ele>1599.833126256</ele>
        <time>2015-06-11T15:30:30Z</time>
      </trkpt>
      <trkpt lat="45.46405" lon="5.93555">
        <ele>1599.833126256</ele>
        <time>2015-06-11T15:30:34Z</time>
      </trkpt>
      <trkpt lat="45.46405" lon="5.93555">
        <ele>1599.833126256</ele>
        <time>2015-06-11T15:30:40Z</time>
      </trkpt>
      <trkpt lat="45.46405" lon="5.93555">
        <ele>1599.833126256</ele>
        <time>2015-06-11T15:30:45Z</time>
      </trkpt>
      <trkpt lat="45.46405" lon="5.93555">
        <ele>1599.833126256</ele>
        <time>2015-06-11T15:30:49Z</time>
      </trkpt>
      <trkpt lat="45.46405" lon="5.93555">
        <ele>1599.833126256</ele>
        <time>2015-06-11T15:30:55Z</time>
      </trkpt>
      <trkpt lat="45.46405" lon="5.93555">
        <ele>1599.833126256</ele>
        <time>2015-06-11T15:31:00Z</time>
      </trkpt>
      <trkpt lat="45.46405" lon="5.93555">
        <ele>1599.833126256</ele>
        <time>2015-06-11T15:31:05Z</time>
      </trkpt>
      <trkpt lat="45.46405" lon="5.93555">
        <ele>1599.833126256</ele>
        <time>2015-06-11T15:31:10Z</time>
      </trkpt>
      <trkpt lat="45.46405" lon="5.93555">
        <ele>1599.833126256</ele>
        <time>2015-06-11T15:31:15Z</time>
      </trkpt>
      <trkpt lat="45.46418" lon="5.93546">
        <ele>1596.971043385</ele>
        <time>2015-06-11T15:31:20Z</time>
      </trkpt>
      <trkpt lat="45.46422" lon="5.93544">
        <ele>1596.971043385</ele>
        <time>2015-06-11T15:31:25Z</time>
      </trkpt>
      <trkpt lat="45.46425" lon="5.93544">
        <ele>1596.971043385</ele>
        <time>2015-06-11T15:31:31Z</time>
      </trkpt>
      <trkpt lat="45.4643" lon="5.93539">
        <ele>1593.570979722</ele>
        <time>2015-06-11T15:31:35Z</time>
      </trkpt>
      <trkpt lat="45.46434" lon="5.93538">
        <ele>1593.570979722</ele>
        <time>2015-06-11T15:31:40Z</time>
      </trkpt>
      <trkpt lat="45.46441" lon="5.93537">
        <ele>1590.255909795</ele>
        <time>2015-06-11T15:31:45Z</time>
      </trkpt>
      <trkpt lat="45.46443" lon="5.93538">
        <ele>1590.255909795</ele>
        <time>2015-06-11T15:31:50Z</time>
      </trkpt>
      <trkpt lat="45.46449" lon="5.93538">
        <ele>1590.255909795</ele>
        <time>2015-06-11T15:31:55Z</time>
      </trkpt>
      <trkpt lat="45.46456" lon="5.93527">
        <ele>1587.746737422</ele>
        <time>2015-06-11T15:32:00Z</time>
      </trkpt>
      <trkpt lat="45.46459" lon="5.93524">
        <ele>1587.746737422</ele>
        <time>2015-06-11T15:32:05Z</time>
      </trkpt>
      <trkpt lat="45.46463" lon="5.93521">
        <ele>1587.746737422</ele>
        <time>2015-06-11T15:32:10Z</time>
      </trkpt>
      <trkpt lat="45.46464" lon="5.93522">
        <ele>1584.979630647</ele>
        <time>2015-06-11T15:32:15Z</time>
      </trkpt>
      <trkpt lat="45.46466" lon="5.93526">
        <ele>1584.979630647</ele>
        <time>2015-06-11T15:32:20Z</time>
      </trkpt>
      <trkpt lat="45.4647" lon="5.93526">
        <ele>1584.979630647</ele>
        <time>2015-06-11T15:32:25Z</time>
      </trkpt>
      <trkpt lat="45.46472" lon="5.93525">
        <ele>1581.40177568</ele>
        <time>2015-06-11T15:32:30Z</time>
      </trkpt>
      <trkpt lat="45.46481" lon="5.93524">
        <ele>1581.40177568</ele>
        <time>2015-06-11T15:32:35Z</time>
      </trkpt>
      <trkpt lat="45.46485" lon="5.93526">
        <ele>1578.088275792</ele>
        <time>2015-06-11T15:32:40Z</time>
      </trkpt>
      <trkpt lat="45.4649" lon="5.93522">
        <ele>1578.088275792</ele>
        <time>2015-06-11T15:32:45Z</time>
      </trkpt>
      <trkpt lat="45.46492" lon="5.93519">
        <ele>1578.088275792</ele>
        <time>2015-06-11T15:32:50Z</time>
      </trkpt>
      <trkpt lat="45.46498" lon="5.93516">
        <ele>1574.881435381</ele>
        <time>2015-06-11T15:32:55Z</time>
      </trkpt>
      <trkpt lat="45.46499" lon="5.93521">
        <ele>1574.881435381</ele>
        <time>2015-06-11T15:33:00Z</time>
      </trkpt>
      <trkpt lat="45.46498" lon="5.93524">
        <ele>1574.881435381</ele>
        <time>2015-06-11T15:33:06Z</time>
      </trkpt>
      <trkpt lat="45.46498" lon="5.93527">
        <ele>1574.881435381</ele>
        <time>2015-06-11T15:33:10Z</time>
      </trkpt>
      <trkpt lat="45.46496" lon="5.93526">
        <ele>1571.634649781</ele>
        <time>2015-06-11T15:33:15Z</time>
      </trkpt>
      <trkpt lat="45.46498" lon="5.93529">
        <ele>1571.634649781</ele>
        <time>2015-06-11T15:33:20Z</time>
      </trkpt>
      <trkpt lat="45.465" lon="5.93525">
        <ele>1571.634649781</ele>
        <time>2015-06-11T15:33:25Z</time>
      </trkpt>
      <trkpt lat="45.46507" lon="5.9352">
        <ele>1568.500222125</ele>
        <time>2015-06-11T15:33:30Z</time>
      </trkpt>
      <trkpt lat="45.46508" lon="5.93517">
        <ele>1568.500222125</ele>
        <time>2015-06-11T15:33:35Z</time>
      </trkpt>
      <trkpt lat="45.46509" lon="5.93519">
        <ele>1568.500222125</ele>
        <time>2015-06-11T15:33:40Z</time>
      </trkpt>
      <trkpt lat="45.46511" lon="5.9352">
        <ele>1568.500222125</ele>
        <time>2015-06-11T15:33:45Z</time>
      </trkpt>
      <trkpt lat="45.46511" lon="5.9352">
        <ele>1568.500222125</ele>
        <time>2015-06-11T15:33:50Z</time>
      </trkpt>
      <trkpt lat="45.46511" lon="5.9352">
        <ele>1568.500222125</ele>
        <time>2015-06-11T15:33:55Z</time>
      </trkpt>
      <trkpt lat="45.46511" lon="5.9352">
        <ele>1568.500222125</ele>
        <time>2015-06-11T15:34:00Z</time>
      </trkpt>
      <trkpt lat="45.46511" lon="5.9352">
        <ele>1568.500222125</ele>
        <time>2015-06-11T15:34:05Z</time>
      </trkpt>
      <trkpt lat="45.46511" lon="5.9352">
        <ele>1568.500222125</ele>
        <time>2015-06-11T15:34:09Z</time>
      </trkpt>
      <trkpt lat="45.46515" lon="5.93516">
        <ele>1565.618755981</ele>
        <time>2015-06-11T15:34:14Z</time>
      </trkpt>
      <trkpt lat="45.46525" lon="5.93516">
        <ele>1562.254953582</ele>
        <time>2015-06-11T15:34:20Z</time>
      </trkpt>
      <trkpt lat="45.46535" lon="5.93501">
        <ele>1559.025690324</ele>
        <time>2015-06-11T15:34:25Z</time>
      </trkpt>
      <trkpt lat="45.46542" lon="5.93498">
        <ele>1559.025690324</ele>
        <time>2015-06-11T15:34:30Z</time>
      </trkpt>
      <trkpt lat="45.46547" lon="5.93497">
        <ele>1555.06084239</ele>
        <time>2015-06-11T15:34:35Z</time>
      </trkpt>
      <trkpt lat="45.46548" lon="5.93494">
        <ele>1555.06084239</ele>
        <time>2015-06-11T15:34:40Z</time>
      </trkpt>
      <trkpt lat="45.46553" lon="5.93489">
        <ele>1550.564850095</ele>
        <time>2015-06-11T15:34:45Z</time>
      </trkpt>
      <trkpt lat="45.46552" lon="5.93484">
        <ele>1550.564850095</ele>
        <time>2015-06-11T15:34:50Z</time>
      </trkpt>
      <trkpt lat="45.46553" lon="5.93482">
        <ele>1550.564850095</ele>
        <time>2015-06-11T15:34:55Z</time>
      </trkpt>
      <trkpt lat="45.46554" lon="5.9348">
        <ele>1550.564850095</ele>
        <time>2015-06-11T15:35:00Z</time>
      </trkpt>
      <trkpt lat="45.46554" lon="5.9348">
        <ele>1550.564850095</ele>
        <time>2015-06-11T15:35:05Z</time>
      </trkpt>
      <trkpt lat="45.46554" lon="5.9348">
        <ele>1550.564850095</ele>
        <time>2015-06-11T15:35:11Z</time>
      </trkpt>
      <trkpt lat="45.46554" lon="5.9348">
        <ele>1550.564850095</ele>
        <time>2015-06-11T15:35:15Z</time>
      </trkpt>
      <trkpt lat="45.46554" lon="5.9348">
        <ele>1550.564850095</ele>
        <time>2015-06-11T15:35:20Z</time>
      </trkpt>
      <trkpt lat="45.46556" lon="5.93478">
        <ele>1545.728425342</ele>
        <time>2015-06-11T15:35:25Z</time>
      </trkpt>
      <trkpt lat="45.46562" lon="5.93469">
        <ele>1541.305464542</ele>
        <time>2015-06-11T15:35:30Z</time>
      </trkpt>
      <trkpt lat="45.46564" lon="5.93464">
        <ele>1541.305464542</ele>
        <time>2015-06-11T15:35:35Z</time>
      </trkpt>
      <trkpt lat="45.46566" lon="5.93463">
        <ele>1541.305464542</ele>
        <time>2015-06-11T15:35:40Z</time>
      </trkpt>
      <trkpt lat="45.46566" lon="5.93462">
        <ele>1541.305464542</ele>
        <time>2015-06-11T15:35:45Z</time>
      </trkpt>
      <trkpt lat="45.46566" lon="5.93462">
        <ele>1541.305464542</ele>
        <time>2015-06-11T15:35:50Z</time>
      </trkpt>
      <trkpt lat="45.46566" lon="5.93462">
        <ele>1541.305464542</ele>
        <time>2015-06-11T15:35:55Z</time>
      </trkpt>
      <trkpt lat="45.46566" lon="5.93462">
        <ele>1541.305464542</ele>
        <time>2015-06-11T15:36:00Z</time>
      </trkpt>
      <trkpt lat="45.46566" lon="5.93462">
        <ele>1541.305464542</ele>
        <time>2015-06-11T15:36:05Z</time>
      </trkpt>
      <trkpt lat="45.46566" lon="5.93462">
        <ele>1541.305464542</ele>
        <time>2015-06-11T15:36:10Z</time>
      </trkpt>
      <trkpt lat="45.46566" lon="5.93462">
        <ele>1541.305464542</ele>
        <time>2015-06-11T15:36:15Z</time>
      </trkpt>
      <trkpt lat="45.46566" lon="5.93462">
        <ele>1541.305464542</ele>
        <time>2015-06-11T15:36:20Z</time>
      </trkpt>
      <trkpt lat="45.46565" lon="5.93464">
        <ele>1541.305464542</ele>
        <time>2015-06-11T15:36:26Z</time>
      </trkpt>
      <trkpt lat="45.46563" lon="5.93466">
        <ele>1536.551999201</ele>
        <time>2015-06-11T15:36:30Z</time>
      </trkpt>
      <trkpt lat="45.4656" lon="5.93466">
        <ele>1536.551999201</ele>
        <time>2015-06-11T15:36:35Z</time>
      </trkpt>
      <trkpt lat="45.46561" lon="5.93469">
        <ele>1536.551999201</ele>
        <time>2015-06-11T15:36:40Z</time>
      </trkpt>
      <trkpt lat="45.46561" lon="5.93471">
        <ele>1536.551999201</ele>
        <time>2015-06-11T15:36:45Z</time>
      </trkpt>
      <trkpt lat="45.46562" lon="5.93473">
        <ele>1536.551999201</ele>
        <time>2015-06-11T15:36:50Z</time>
      </trkpt>
      <trkpt lat="45.46561" lon="5.93473">
        <ele>1536.551999201</ele>
        <time>2015-06-11T15:36:55Z</time>
      </trkpt>
      <trkpt lat="45.46562" lon="5.93475">
        <ele>1532.076421101</ele>
        <time>2015-06-11T15:37:00Z</time>
      </trkpt>
      <trkpt lat="45.46561" lon="5.93475">
        <ele>1532.076421101</ele>
        <time>2015-06-11T15:37:05Z</time>
      </trkpt>
      <trkpt lat="45.46561" lon="5.93475">
        <ele>1532.076421101</ele>
        <time>2015-06-11T15:37:10Z</time>
      </trkpt>
      <trkpt lat="45.46561" lon="5.93475">
        <ele>1532.076421101</ele>
        <time>2015-06-11T15:37:14Z</time>
      </trkpt>
      <trkpt lat="45.46561" lon="5.93477">
        <ele>1532.076421101</ele>
        <time>2015-06-11T15:37:21Z</time>
      </trkpt>
      <trkpt lat="45.46561" lon="5.93479">
        <ele>1532.076421101</ele>
        <time>2015-06-11T15:37:25Z</time>
      </trkpt>
      <trkpt lat="45.46561" lon="5.9348">
        <ele>1532.076421101</ele>
        <time>2015-06-11T15:37:30Z</time>
      </trkpt>
      <trkpt lat="45.46562" lon="5.93481">
        <ele>1532.076421101</ele>
        <time>2015-06-11T15:37:35Z</time>
      </trkpt>
      <trkpt lat="45.4656" lon="5.93482">
        <ele>1532.076421101</ele>
        <time>2015-06-11T15:37:40Z</time>
      </trkpt>
      <trkpt lat="45.4656" lon="5.93482">
        <ele>1532.076421101</ele>
        <time>2015-06-11T15:37:45Z</time>
      </trkpt>
      <trkpt lat="45.4656" lon="5.93482">
        <ele>1532.076421101</ele>
        <time>2015-06-11T15:37:50Z</time>
      </trkpt>
      <trkpt lat="45.46562" lon="5.93487">
        <ele>1526.423867999</ele>
        <time>2015-06-11T15:37:55Z</time>
      </trkpt>
      <trkpt lat="45.4656" lon="5.93499">
        <ele>1526.423867999</ele>
        <time>2015-06-11T15:38:00Z</time>
      </trkpt>
      <trkpt lat="45.46557" lon="5.93508">
        <ele>1520.987532204</ele>
        <time>2015-06-11T15:38:05Z</time>
      </trkpt>
      <trkpt lat="45.46556" lon="5.93512">
        <ele>1520.987532204</ele>
        <time>2015-06-11T15:38:10Z</time>
      </trkpt>
      <trkpt lat="45.46556" lon="5.93515">
        <ele>1520.987532204</ele>
        <time>2015-06-11T15:38:15Z</time>
      </trkpt>
      <trkpt lat="45.46554" lon="5.93517">
        <ele>1520.987532204</ele>
        <time>2015-06-11T15:38:20Z</time>
      </trkpt>
      <trkpt lat="45.46554" lon="5.93517">
        <ele>1520.987532204</ele>
        <time>2015-06-11T15:38:25Z</time>
      </trkpt>
      <trkpt lat="45.46554" lon="5.93518">
        <ele>1520.987532204</ele>
        <time>2015-06-11T15:38:30Z</time>
      </trkpt>
      <trkpt lat="45.46554" lon="5.93523">
        <ele>1515.760416084</ele>
        <time>2015-06-11T15:38:35Z</time>
      </trkpt>
      <trkpt lat="45.46554" lon="5.93525">
        <ele>1515.760416084</ele>
        <time>2015-06-11T15:38:40Z</time>
      </trkpt>
      <trkpt lat="45.46551" lon="5.93529">
        <ele>1515.760416084</ele>
        <time>2015-06-11T15:38:45Z</time>
      </trkpt>
      <trkpt lat="45.46552" lon="5.93531">
        <ele>1515.760416084</ele>
        <time>2015-06-11T15:38:50Z</time>
      </trkpt>
      <trkpt lat="45.46548" lon="5.93539">
        <ele>1510.591091171</ele>
        <time>2015-06-11T15:38:55Z</time>
      </trkpt>
      <trkpt lat="45.4655" lon="5.93547">
        <ele>1510.591091171</ele>
        <time>2015-06-11T15:39:00Z</time>
      </trkpt>
      <trkpt lat="45.46553" lon="5.93552">
        <ele>1506.059394507</ele>
        <time>2015-06-11T15:39:05Z</time>
      </trkpt>
      <trkpt lat="45.46553" lon="5.93553">
        <ele>1506.059394507</ele>
        <time>2015-06-11T15:39:10Z</time>
      </trkpt>
      <trkpt lat="45.46553" lon="5.93554">
        <ele>1506.059394507</ele>
        <time>2015-06-11T15:39:15Z</time>
      </trkpt>
      <trkpt lat="45.46552" lon="5.93554">
        <ele>1506.059394507</ele>
        <time>2015-06-11T15:39:21Z</time>
      </trkpt>
      <trkpt lat="45.46552" lon="5.93554">
        <ele>1506.059394507</ele>
        <time>2015-06-11T15:39:25Z</time>
      </trkpt>
      <trkpt lat="45.4655" lon="5.93562">
        <ele>1506.059394507</ele>
        <time>2015-06-11T15:39:30Z</time>
      </trkpt>
      <trkpt lat="45.46554" lon="5.93561">
        <ele>1501.835858996</ele>
        <time>2015-06-11T15:39:35Z</time>
      </trkpt>
      <trkpt lat="45.46558" lon="5.93565">
        <ele>1501.835858996</ele>
        <time>2015-06-11T15:39:41Z</time>
      </trkpt>
      <trkpt lat="45.46559" lon="5.93568">
        <ele>1501.835858996</ele>
        <time>2015-06-11T15:39:45Z</time>
      </trkpt>
      <trkpt lat="45.46551" lon="5.93573">
        <ele>1496.317100016</ele>
        <time>2015-06-11T15:39:50Z</time>
      </trkpt>
      <trkpt lat="45.46545" lon="5.9358">
        <ele>1496.317100016</ele>
        <time>2015-06-11T15:39:55Z</time>
      </trkpt>
      <trkpt lat="45.46543" lon="5.93593">
        <ele>1490.614895805</ele>
        <time>2015-06-11T15:40:00Z</time>
      </trkpt>
      <trkpt lat="45.4654" lon="5.93596">
        <ele>1490.614895805</ele>
        <time>2015-06-11T15:40:05Z</time>
      </trkpt>
      <trkpt lat="45.46542" lon="5.93602">
        <ele>1490.614895805</ele>
        <time>2015-06-11T15:40:10Z</time>
      </trkpt>
      <trkpt lat="45.46541" lon="5.93606">
        <ele>1485.183168197</ele>
        <time>2015-06-11T15:40:14Z</time>
      </trkpt>
      <trkpt lat="45.4654" lon="5.93604">
        <ele>1485.183168197</ele>
        <time>2015-06-11T15:40:19Z</time>
      </trkpt>
      <trkpt lat="45.46541" lon="5.93597">
        <ele>1485.183168197</ele>
        <time>2015-06-11T15:40:26Z</time>
      </trkpt>
      <trkpt lat="45.46541" lon="5.93597">
        <ele>1485.183168197</ele>
        <time>2015-06-11T15:40:30Z</time>
      </trkpt>
      <trkpt lat="45.46542" lon="5.93598">
        <ele>1485.183168197</ele>
        <time>2015-06-11T15:40:36Z</time>
      </trkpt>
      <trkpt lat="45.46542" lon="5.93598">
        <ele>1485.183168197</ele>
        <time>2015-06-11T15:40:40Z</time>
      </trkpt>
      <trkpt lat="45.46542" lon="5.93598">
        <ele>1485.183168197</ele>
        <time>2015-06-11T15:40:45Z</time>
      </trkpt>
      <trkpt lat="45.46542" lon="5.93598">
        <ele>1485.183168197</ele>
        <time>2015-06-11T15:40:50Z</time>
      </trkpt>
      <trkpt lat="45.46546" lon="5.93597">
        <ele>1479.28858767</ele>
        <time>2015-06-11T15:40:55Z</time>
      </trkpt>
      <trkpt lat="45.46556" lon="5.93601">
        <ele>1473.549731594</ele>
        <time>2015-06-11T15:41:00Z</time>
      </trkpt>
      <trkpt lat="45.4656" lon="5.93601">
        <ele>1473.549731594</ele>
        <time>2015-06-11T15:41:05Z</time>
      </trkpt>
      <trkpt lat="45.4656" lon="5.93603">
        <ele>1473.549731594</ele>
        <time>2015-06-11T15:41:10Z</time>
      </trkpt>
      <trkpt lat="45.46561" lon="5.93603">
        <ele>1473.549731594</ele>
        <time>2015-06-11T15:41:16Z</time>
      </trkpt>
      <trkpt lat="45.46562" lon="5.93606">
        <ele>1473.549731594</ele>
        <time>2015-06-11T15:41:20Z</time>
      </trkpt>
      <trkpt lat="45.46564" lon="5.93606">
        <ele>1466.665588029</ele>
        <time>2015-06-11T15:41:25Z</time>
      </trkpt>
      <trkpt lat="45.46567" lon="5.93605">
        <ele>1466.665588029</ele>
        <time>2015-06-11T15:41:30Z</time>
      </trkpt>
      <trkpt lat="45.46567" lon="5.93606">
        <ele>1466.665588029</ele>
        <time>2015-06-11T15:41:36Z</time>
      </trkpt>
      <trkpt lat="45.46571" lon="5.93614">
        <ele>1460.45999265</ele>
        <time>2015-06-11T15:41:40Z</time>
      </trkpt>
      <trkpt lat="45.46574" lon="5.93611">
        <ele>1460.45999265</ele>
        <time>2015-06-11T15:41:46Z</time>
      </trkpt>
      <trkpt lat="45.46576" lon="5.93613">
        <ele>1460.45999265</ele>
        <time>2015-06-11T15:41:50Z</time>
      </trkpt>
      <trkpt lat="45.46577" lon="5.93616">
        <ele>1460.45999265</ele>
        <time>2015-06-11T15:41:55Z</time>
      </trkpt>
      <trkpt lat="45.46578" lon="5.93625">
        <ele>1454.314844855</ele>
        <time>2015-06-11T15:42:00Z</time>
      </trkpt>
      <trkpt lat="45.46578" lon="5.93638">
        <ele>1448.954001186</ele>
        <time>2015-06-11T15:42:05Z</time>
      </trkpt>
      <trkpt lat="45.46582" lon="5.9364">
        <ele>1448.954001186</ele>
        <time>2015-06-11T15:42:10Z</time>
      </trkpt>
      <trkpt lat="45.46581" lon="5.9364">
        <ele>1448.954001186</ele>
        <time>2015-06-11T15:42:15Z</time>
      </trkpt>
      <trkpt lat="45.46581" lon="5.93642">
        <ele>1448.954001186</ele>
        <time>2015-06-11T15:42:20Z</time>
      </trkpt>
      <trkpt lat="45.46577" lon="5.93642">
        <ele>1443.316329491</ele>
        <time>2015-06-11T15:42:26Z</time>
      </trkpt>
      <trkpt lat="45.46577" lon="5.93642">
        <ele>1443.316329491</ele>
        <time>2015-06-11T15:42:30Z</time>
      </trkpt>
      <trkpt lat="45.46577" lon="5.93642">
        <ele>1443.316329491</ele>
        <time>2015-06-11T15:42:35Z</time>
      </trkpt>
      <trkpt lat="45.46577" lon="5.93642">
        <ele>1443.316329491</ele>
        <time>2015-06-11T15:42:40Z</time>
      </trkpt>
      <trkpt lat="45.46577" lon="5.93642">
        <ele>1443.316329491</ele>
        <time>2015-06-11T15:42:45Z</time>
      </trkpt>
      <trkpt lat="45.46577" lon="5.93642">
        <ele>1443.316329491</ele>
        <time>2015-06-11T15:42:50Z</time>
      </trkpt>
      <trkpt lat="45.46577" lon="5.93642">
        <ele>1443.316329491</ele>
        <time>2015-06-11T15:42:55Z</time>
      </trkpt>
      <trkpt lat="45.46577" lon="5.93642">
        <ele>1443.316329491</ele>
        <time>2015-06-11T15:43:00Z</time>
      </trkpt>
      <trkpt lat="45.46577" lon="5.93642">
        <ele>1443.316329491</ele>
        <time>2015-06-11T15:43:05Z</time>
      </trkpt>
      <trkpt lat="45.46577" lon="5.93642">
        <ele>1443.316329491</ele>
        <time>2015-06-11T15:43:10Z</time>
      </trkpt>
      <trkpt lat="45.46577" lon="5.93642">
        <ele>1443.316329491</ele>
        <time>2015-06-11T15:43:14Z</time>
      </trkpt>
      <trkpt lat="45.46577" lon="5.93642">
        <ele>1443.316329491</ele>
        <time>2015-06-11T15:43:20Z</time>
      </trkpt>
      <trkpt lat="45.46577" lon="5.93642">
        <ele>1443.316329491</ele>
        <time>2015-06-11T15:43:25Z</time>
      </trkpt>
      <trkpt lat="45.46577" lon="5.93642">
        <ele>1443.316329491</ele>
        <time>2015-06-11T15:43:30Z</time>
      </trkpt>
      <trkpt lat="45.46577" lon="5.93642">
        <ele>1443.316329491</ele>
        <time>2015-06-11T15:43:35Z</time>
      </trkpt>
      <trkpt lat="45.46577" lon="5.93642">
        <ele>1443.316329491</ele>
        <time>2015-06-11T15:43:39Z</time>
      </trkpt>
      <trkpt lat="45.46577" lon="5.93642">
        <ele>1443.316329491</ele>
        <time>2015-06-11T15:43:46Z</time>
      </trkpt>
      <trkpt lat="45.46577" lon="5.93642">
        <ele>1443.316329491</ele>
        <time>2015-06-11T15:43:50Z</time>
      </trkpt>
      <trkpt lat="45.46577" lon="5.93642">
        <ele>1443.316329491</ele>
        <time>2015-06-11T15:43:55Z</time>
      </trkpt>
      <trkpt lat="45.46577" lon="5.93642">
        <ele>1443.316329491</ele>
        <time>2015-06-11T15:44:00Z</time>
      </trkpt>
      <trkpt lat="45.46577" lon="5.93642">
        <ele>1443.316329491</ele>
        <time>2015-06-11T15:44:05Z</time>
      </trkpt>
      <trkpt lat="45.46577" lon="5.93642">
        <ele>1443.316329491</ele>
        <time>2015-06-11T15:44:10Z</time>
      </trkpt>
      <trkpt lat="45.46577" lon="5.93642">
        <ele>1443.316329491</ele>
        <time>2015-06-11T15:44:15Z</time>
      </trkpt>
      <trkpt lat="45.46577" lon="5.93642">
        <ele>1443.316329491</ele>
        <time>2015-06-11T15:44:19Z</time>
      </trkpt>
      <trkpt lat="45.46577" lon="5.93642">
        <ele>1443.316329491</ele>
        <time>2015-06-11T15:44:25Z</time>
      </trkpt>
      <trkpt lat="45.46577" lon="5.93643">
        <ele>1443.316329491</ele>
        <time>2015-06-11T15:44:30Z</time>
      </trkpt>
      <trkpt lat="45.46577" lon="5.93643">
        <ele>1443.316329491</ele>
        <time>2015-06-11T15:44:36Z</time>
      </trkpt>
      <trkpt lat="45.46577" lon="5.93643">
        <ele>1443.316329491</ele>
        <time>2015-06-11T15:44:40Z</time>
      </trkpt>
      <trkpt lat="45.46577" lon="5.93643">
        <ele>1443.316329491</ele>
        <time>2015-06-11T15:44:45Z</time>
      </trkpt>
      <trkpt lat="45.46577" lon="5.93643">
        <ele>1443.316329491</ele>
        <time>2015-06-11T15:44:51Z</time>
      </trkpt>
      <trkpt lat="45.46577" lon="5.93643">
        <ele>1443.316329491</ele>
        <time>2015-06-11T15:44:55Z</time>
      </trkpt>
      <trkpt lat="45.46577" lon="5.93643">
        <ele>1443.316329491</ele>
        <time>2015-06-11T15:45:00Z</time>
      </trkpt>
      <trkpt lat="45.46577" lon="5.93643">
        <ele>1443.316329491</ele>
        <time>2015-06-11T15:45:05Z</time>
      </trkpt>
      <trkpt lat="45.46577" lon="5.93643">
        <ele>1443.316329491</ele>
        <time>2015-06-11T15:45:11Z</time>
      </trkpt>
      <trkpt lat="45.46577" lon="5.93643">
        <ele>1443.316329491</ele>
        <time>2015-06-11T15:45:15Z</time>
      </trkpt>
      <trkpt lat="45.46577" lon="5.93643">
        <ele>1443.316329491</ele>
        <time>2015-06-11T15:45:20Z</time>
      </trkpt>
      <trkpt lat="45.46577" lon="5.93643">
        <ele>1443.316329491</ele>
        <time>2015-06-11T15:45:25Z</time>
      </trkpt>
      <trkpt lat="45.46577" lon="5.93643">
        <ele>1443.316329491</ele>
        <time>2015-06-11T15:45:30Z</time>
      </trkpt>
      <trkpt lat="45.46577" lon="5.93643">
        <ele>1443.316329491</ele>
        <time>2015-06-11T15:45:35Z</time>
      </trkpt>
      <trkpt lat="45.46577" lon="5.93643">
        <ele>1443.316329491</ele>
        <time>2015-06-11T15:45:40Z</time>
      </trkpt>
      <trkpt lat="45.46577" lon="5.93643">
        <ele>1443.316329491</ele>
        <time>2015-06-11T15:45:45Z</time>
      </trkpt>
      <trkpt lat="45.46577" lon="5.93643">
        <ele>1443.316329491</ele>
        <time>2015-06-11T15:45:51Z</time>
      </trkpt>
      <trkpt lat="45.46577" lon="5.93643">
        <ele>1443.316329491</ele>
        <time>2015-06-11T15:45:55Z</time>
      </trkpt>
      <trkpt lat="45.46577" lon="5.93643">
        <ele>1443.316329491</ele>
        <time>2015-06-11T15:46:00Z</time>
      </trkpt>
      <trkpt lat="45.46577" lon="5.93643">
        <ele>1443.316329491</ele>
        <time>2015-06-11T15:46:06Z</time>
      </trkpt>
      <trkpt lat="45.46577" lon="5.93643">
        <ele>1443.316329491</ele>
        <time>2015-06-11T15:46:10Z</time>
      </trkpt>
      <trkpt lat="45.46577" lon="5.93643">
        <ele>1443.316329491</ele>
        <time>2015-06-11T15:46:15Z</time>
      </trkpt>
      <trkpt lat="45.46577" lon="5.93643">
        <ele>1443.316329491</ele>
        <time>2015-06-11T15:46:20Z</time>
      </trkpt>
      <trkpt lat="45.46577" lon="5.93643">
        <ele>1443.316329491</ele>
        <time>2015-06-11T15:46:25Z</time>
      </trkpt>
      <trkpt lat="45.46577" lon="5.93643">
        <ele>1443.316329491</ele>
        <time>2015-06-11T15:46:30Z</time>
      </trkpt>
      <trkpt lat="45.46574" lon="5.93631">
        <ele>1438.436703475</ele>
        <time>2015-06-11T15:46:35Z</time>
      </trkpt>
      <trkpt lat="45.46581" lon="5.93622">
        <ele>1433.686355188</ele>
        <time>2015-06-11T15:46:39Z</time>
      </trkpt>
      <trkpt lat="45.46574" lon="5.93624">
        <ele>1433.686355188</ele>
        <time>2015-06-11T15:46:45Z</time>
      </trkpt>
      <trkpt lat="45.46575" lon="5.93623">
        <ele>1433.686355188</ele>
        <time>2015-06-11T15:46:49Z</time>
      </trkpt>
      <trkpt lat="45.46576" lon="5.93622">
        <ele>1433.686355188</ele>
        <time>2015-06-11T15:46:54Z</time>
      </trkpt>
      <trkpt lat="45.46576" lon="5.93622">
        <ele>1433.686355188</ele>
        <time>2015-06-11T15:47:00Z</time>
      </trkpt>
      <trkpt lat="45.46576" lon="5.93622">
        <ele>1433.686355188</ele>
        <time>2015-06-11T15:47:05Z</time>
      </trkpt>
      <trkpt lat="45.46576" lon="5.93619">
        <ele>1429.058525473</ele>
        <time>2015-06-11T15:47:11Z</time>
      </trkpt>
      <trkpt lat="45.46571" lon="5.93607">
        <ele>1424.402245274</ele>
        <time>2015-06-11T15:47:15Z</time>
      </trkpt>
      <trkpt lat="45.46572" lon="5.93606">
        <ele>1424.402245274</ele>
        <time>2015-06-11T15:47:20Z</time>
      </trkpt>
      <trkpt lat="45.46572" lon="5.93606">
        <ele>1424.402245274</ele>
        <time>2015-06-11T15:47:25Z</time>
      </trkpt>
      <trkpt lat="45.46572" lon="5.93606">
        <ele>1424.402245274</ele>
        <time>2015-06-11T15:47:30Z</time>
      </trkpt>
      <trkpt lat="45.46572" lon="5.93606">
        <ele>1424.402245274</ele>
        <time>2015-06-11T15:47:35Z</time>
      </trkpt>
      <trkpt lat="45.46572" lon="5.93606">
        <ele>1424.402245274</ele>
        <time>2015-06-11T15:47:40Z</time>
      </trkpt>
      <trkpt lat="45.46572" lon="5.93606">
        <ele>1424.402245274</ele>
        <time>2015-06-11T15:47:45Z</time>
      </trkpt>
      <trkpt lat="45.46572" lon="5.93606">
        <ele>1424.402245274</ele>
        <time>2015-06-11T15:47:50Z</time>
      </trkpt>
      <trkpt lat="45.46572" lon="5.93606">
        <ele>1424.402245274</ele>
        <time>2015-06-11T15:47:55Z</time>
      </trkpt>
      <trkpt lat="45.46572" lon="5.93606">
        <ele>1424.402245274</ele>
        <time>2015-06-11T15:48:00Z</time>
      </trkpt>
      <trkpt lat="45.46572" lon="5.93606">
        <ele>1424.402245274</ele>
        <time>2015-06-11T15:48:05Z</time>
      </trkpt>
      <trkpt lat="45.46572" lon="5.93607">
        <ele>1424.402245274</ele>
        <time>2015-06-11T15:48:10Z</time>
      </trkpt>
      <trkpt lat="45.46567" lon="5.93604">
        <ele>1424.402245274</ele>
        <time>2015-06-11T15:48:15Z</time>
      </trkpt>
      <trkpt lat="45.46559" lon="5.93598">
        <ele>1421.450924037</ele>
        <time>2015-06-11T15:48:20Z</time>
      </trkpt>
      <trkpt lat="45.46554" lon="5.936">
        <ele>1421.450924037</ele>
        <time>2015-06-11T15:48:25Z</time>
      </trkpt>
      <trkpt lat="45.46553" lon="5.936">
        <ele>1421.450924037</ele>
        <time>2015-06-11T15:48:31Z</time>
      </trkpt>
      <trkpt lat="45.46551" lon="5.93601">
        <ele>1421.450924037</ele>
        <time>2015-06-11T15:48:35Z</time>
      </trkpt>
      <trkpt lat="45.4655" lon="5.93601">
        <ele>1420.652748108</ele>
        <time>2015-06-11T15:48:40Z</time>
      </trkpt>
      <trkpt lat="45.46551" lon="5.93601">
        <ele>1420.652748108</ele>
        <time>2015-06-11T15:48:45Z</time>
      </trkpt>
      <trkpt lat="45.46551" lon="5.93601">
        <ele>1420.652748108</ele>
        <time>2015-06-11T15:48:50Z</time>
      </trkpt>
      <trkpt lat="45.46551" lon="5.93601">
        <ele>1420.652748108</ele>
        <time>2015-06-11T15:48:55Z</time>
      </trkpt>
      <trkpt lat="45.46551" lon="5.93601">
        <ele>1420.652748108</ele>
        <time>2015-06-11T15:49:00Z</time>
      </trkpt>
      <trkpt lat="45.46557" lon="5.93591">
        <ele>1421.26386414</ele>
        <time>2015-06-11T15:49:05Z</time>
      </trkpt>
      <trkpt lat="45.46552" lon="5.93586">
        <ele>1421.26386414</ele>
        <time>2015-06-11T15:49:11Z</time>
      </trkpt>
      <trkpt lat="45.46546" lon="5.93584">
        <ele>1423.599739854</ele>
        <time>2015-06-11T15:49:15Z</time>
      </trkpt>
      <trkpt lat="45.46541" lon="5.9357">
        <ele>1426.074288082</ele>
        <time>2015-06-11T15:49:20Z</time>
      </trkpt>
      <trkpt lat="45.46538" lon="5.93568">
        <ele>1426.074288082</ele>
        <time>2015-06-11T15:49:25Z</time>
      </trkpt>
      <trkpt lat="45.46536" lon="5.93562">
        <ele>1426.074288082</ele>
        <time>2015-06-11T15:49:30Z</time>
      </trkpt>
      <trkpt lat="45.46541" lon="5.93546">
        <ele>1429.667395704</ele>
        <time>2015-06-11T15:49:35Z</time>
      </trkpt>
      <trkpt lat="45.46541" lon="5.93549">
        <ele>1429.667395704</ele>
        <time>2015-06-11T15:49:40Z</time>
      </trkpt>
      <trkpt lat="45.46544" lon="5.93543">
        <ele>1429.667395704</ele>
        <time>2015-06-11T15:49:46Z</time>
      </trkpt>
      <trkpt lat="45.46545" lon="5.93537">
        <ele>1433.842739622</ele>
        <time>2015-06-11T15:49:50Z</time>
      </trkpt>
      <trkpt lat="45.46545" lon="5.93534">
        <ele>1433.842739622</ele>
        <time>2015-06-11T15:49:55Z</time>
      </trkpt>
      <trkpt lat="45.46548" lon="5.93528">
        <ele>1433.842739622</ele>
        <time>2015-06-11T15:50:00Z</time>
      </trkpt>
      <trkpt lat="45.46548" lon="5.93527">
        <ele>1433.842739622</ele>
        <time>2015-06-11T15:50:04Z</time>
      </trkpt>
      <trkpt lat="45.46543" lon="5.93523">
        <ele>1439.110625179</ele>
        <time>2015-06-11T15:50:10Z</time>
      </trkpt>
      <trkpt lat="45.46544" lon="5.93522">
        <ele>1439.110625179</ele>
        <time>2015-06-11T15:50:14Z</time>
      </trkpt>
      <trkpt lat="45.46544" lon="5.93518">
        <ele>1439.110625179</ele>
        <time>2015-06-11T15:50:20Z</time>
      </trkpt>
      <trkpt lat="45.46545" lon="5.93518">
        <ele>1439.110625179</ele>
        <time>2015-06-11T15:50:24Z</time>
      </trkpt>
      <trkpt lat="45.46552" lon="5.9351">
        <ele>1444.499844357</ele>
        <time>2015-06-11T15:50:31Z</time>
      </trkpt>
      <trkpt lat="45.46553" lon="5.93507">
        <ele>1444.499844357</ele>
        <time>2015-06-11T15:50:36Z</time>
      </trkpt>
      <trkpt lat="45.46552" lon="5.93502">
        <ele>1444.499844357</ele>
        <time>2015-06-11T15:50:40Z</time>
      </trkpt>
      <trkpt lat="45.4656" lon="5.93501">
        <ele>1450.551519907</ele>
        <time>2015-06-11T15:50:45Z</time>
      </trkpt>
      <trkpt lat="45.46558" lon="5.935">
        <ele>1450.551519907</ele>
        <time>2015-06-11T15:50:50Z</time>
      </trkpt>
      <trkpt lat="45.46564" lon="5.93494">
        <ele>1457.189000767</ele>
        <time>2015-06-11T15:50:55Z</time>
      </trkpt>
      <trkpt lat="45.4657" lon="5.93489">
        <ele>1457.189000767</ele>
        <time>2015-06-11T15:51:00Z</time>
      </trkpt>
      <trkpt lat="45.46571" lon="5.93488">
        <ele>1457.189000767</ele>
        <time>2015-06-11T15:51:05Z</time>
      </trkpt>
      <trkpt lat="45.46568" lon="5.93491">
        <ele>1464.339966727</ele>
        <time>2015-06-11T15:51:10Z</time>
      </trkpt>
      <trkpt lat="45.46569" lon="5.93491">
        <ele>1464.339966727</ele>
        <time>2015-06-11T15:51:15Z</time>
      </trkpt>
      <trkpt lat="45.46569" lon="5.93492">
        <ele>1464.339966727</ele>
        <time>2015-06-11T15:51:20Z</time>
      </trkpt>
      <trkpt lat="45.46569" lon="5.93492">
        <ele>1464.339966727</ele>
        <time>2015-06-11T15:51:25Z</time>
      </trkpt>
      <trkpt lat="45.46569" lon="5.93492">
        <ele>1464.339966727</ele>
        <time>2015-06-11T15:51:30Z</time>
      </trkpt>
      <trkpt lat="45.46569" lon="5.93492">
        <ele>1464.339966727</ele>
        <time>2015-06-11T15:51:35Z</time>
      </trkpt>
      <trkpt lat="45.46569" lon="5.93492">
        <ele>1464.339966727</ele>
        <time>2015-06-11T15:51:40Z</time>
      </trkpt>
      <trkpt lat="45.46569" lon="5.93492">
        <ele>1464.339966727</ele>
        <time>2015-06-11T15:51:45Z</time>
      </trkpt>
      <trkpt lat="45.46569" lon="5.93492">
        <ele>1464.339966727</ele>
        <time>2015-06-11T15:51:50Z</time>
      </trkpt>
      <trkpt lat="45.46569" lon="5.93492">
        <ele>1464.339966727</ele>
        <time>2015-06-11T15:51:55Z</time>
      </trkpt>
      <trkpt lat="45.46569" lon="5.93491">
        <ele>1464.339966727</ele>
        <time>2015-06-11T15:52:00Z</time>
      </trkpt>
      <trkpt lat="45.46568" lon="5.93483">
        <ele>1464.339966727</ele>
        <time>2015-06-11T15:52:06Z</time>
      </trkpt>
      <trkpt lat="45.46565" lon="5.93464">
        <ele>1471.79226368</ele>
        <time>2015-06-11T15:52:10Z</time>
      </trkpt>
      <trkpt lat="45.46563" lon="5.93463">
        <ele>1471.79226368</ele>
        <time>2015-06-11T15:52:15Z</time>
      </trkpt>
      <trkpt lat="45.46564" lon="5.93453">
        <ele>1479.060718689</ele>
        <time>2015-06-11T15:52:20Z</time>
      </trkpt>
      <trkpt lat="45.46564" lon="5.93454">
        <ele>1479.060718689</ele>
        <time>2015-06-11T15:52:25Z</time>
      </trkpt>
      <trkpt lat="45.46574" lon="5.93453">
        <ele>1486.993836079</ele>
        <time>2015-06-11T15:52:30Z</time>
      </trkpt>
      <trkpt lat="45.46574" lon="5.93451">
        <ele>1486.993836079</ele>
        <time>2015-06-11T15:52:35Z</time>
      </trkpt>
      <trkpt lat="45.46575" lon="5.93455">
        <ele>1490.604332587</ele>
        <time>2015-06-11T15:52:40Z</time>
      </trkpt>
      <trkpt lat="45.46565" lon="5.9345">
        <ele>1494.214829094</ele>
        <time>2015-06-11T15:52:45Z</time>
      </trkpt>
      <trkpt lat="45.46569" lon="5.93446">
        <ele>1494.214829094</ele>
        <time>2015-06-11T15:52:50Z</time>
      </trkpt>
      <trkpt lat="45.46571" lon="5.93445">
        <ele>1494.214829094</ele>
        <time>2015-06-11T15:52:55Z</time>
      </trkpt>
      <trkpt lat="45.4657" lon="5.93444">
        <ele>1494.214829094</ele>
        <time>2015-06-11T15:53:00Z</time>
      </trkpt>
      <trkpt lat="45.46572" lon="5.93445">
        <ele>1501.612331998</ele>
        <time>2015-06-11T15:53:05Z</time>
      </trkpt>
      <trkpt lat="45.46571" lon="5.93447">
        <ele>1501.612331998</ele>
        <time>2015-06-11T15:53:10Z</time>
      </trkpt>
      <trkpt lat="45.46571" lon="5.93446">
        <ele>1501.612331998</ele>
        <time>2015-06-11T15:53:15Z</time>
      </trkpt>
      <trkpt lat="45.46571" lon="5.93448">
        <ele>1501.612331998</ele>
        <time>2015-06-11T15:53:20Z</time>
      </trkpt>
      <trkpt lat="45.4657" lon="5.9345">
        <ele>1501.612331998</ele>
        <time>2015-06-11T15:53:24Z</time>
      </trkpt>
      <trkpt lat="45.46564" lon="5.93457">
        <ele>1509.14519713</ele>
        <time>2015-06-11T15:53:31Z</time>
      </trkpt>
      <trkpt lat="45.46558" lon="5.9346">
        <ele>1509.14519713</ele>
        <time>2015-06-11T15:53:35Z</time>
      </trkpt>
      <trkpt lat="45.46557" lon="5.93469">
        <ele>1515.910946072</ele>
        <time>2015-06-11T15:53:41Z</time>
      </trkpt>
      <trkpt lat="45.46554" lon="5.93478">
        <ele>1515.910946072</ele>
        <time>2015-06-11T15:53:45Z</time>
      </trkpt>
      <trkpt lat="45.4655" lon="5.93486">
        <ele>1522.80560385</ele>
        <time>2015-06-11T15:53:50Z</time>
      </trkpt>
      <trkpt lat="45.46548" lon="5.93488">
        <ele>1522.80560385</ele>
        <time>2015-06-11T15:53:55Z</time>
      </trkpt>
      <trkpt lat="45.46543" lon="5.93491">
        <ele>1522.80560385</ele>
        <time>2015-06-11T15:54:00Z</time>
      </trkpt>
      <trkpt lat="45.46534" lon="5.93499">
        <ele>1529.795090856</ele>
        <time>2015-06-11T15:54:05Z</time>
      </trkpt>
      <trkpt lat="45.46527" lon="5.93502">
        <ele>1529.795090856</ele>
        <time>2015-06-11T15:54:10Z</time>
      </trkpt>
      <trkpt lat="45.46521" lon="5.93507">
        <ele>1536.415994778</ele>
        <time>2015-06-11T15:54:15Z</time>
      </trkpt>
      <trkpt lat="45.46516" lon="5.93516">
        <ele>1536.415994778</ele>
        <time>2015-06-11T15:54:20Z</time>
      </trkpt>
      <trkpt lat="45.46515" lon="5.93523">
        <ele>1543.393645725</ele>
        <time>2015-06-11T15:54:25Z</time>
      </trkpt>
      <trkpt lat="45.46512" lon="5.93532">
        <ele>1543.393645725</ele>
        <time>2015-06-11T15:54:30Z</time>
      </trkpt>
      <trkpt lat="45.46514" lon="5.93533">
        <ele>1543.393645725</ele>
        <time>2015-06-11T15:54:35Z</time>
      </trkpt>
      <trkpt lat="45.46509" lon="5.93532">
        <ele>1550.391100111</ele>
        <time>2015-06-11T15:54:40Z</time>
      </trkpt>
      <trkpt lat="45.46501" lon="5.93522">
        <ele>1555.367567986</ele>
        <time>2015-06-11T15:54:45Z</time>
      </trkpt>
      <trkpt lat="45.46495" lon="5.93524">
        <ele>1555.367567986</ele>
        <time>2015-06-11T15:54:50Z</time>
      </trkpt>
      <trkpt lat="45.46499" lon="5.93522">
        <ele>1560.041413012</ele>
        <time>2015-06-11T15:54:55Z</time>
      </trkpt>
      <trkpt lat="45.46499" lon="5.93523">
        <ele>1560.041413012</ele>
        <time>2015-06-11T15:55:00Z</time>
      </trkpt>
      <trkpt lat="45.46498" lon="5.93524">
        <ele>1560.041413012</ele>
        <time>2015-06-11T15:55:05Z</time>
      </trkpt>
      <trkpt lat="45.46498" lon="5.93524">
        <ele>1560.041413012</ele>
        <time>2015-06-11T15:55:10Z</time>
      </trkpt>
      <trkpt lat="45.46498" lon="5.93524">
        <ele>1560.041413012</ele>
        <time>2015-06-11T15:55:15Z</time>
      </trkpt>
      <trkpt lat="45.46498" lon="5.93523">
        <ele>1560.041413012</ele>
        <time>2015-06-11T15:55:20Z</time>
      </trkpt>
      <trkpt lat="45.46496" lon="5.93522">
        <ele>1560.041413012</ele>
        <time>2015-06-11T15:55:25Z</time>
      </trkpt>
      <trkpt lat="45.46489" lon="5.93512">
        <ele>1564.565287598</ele>
        <time>2015-06-11T15:55:30Z</time>
      </trkpt>
      <trkpt lat="45.46489" lon="5.93512">
        <ele>1564.565287598</ele>
        <time>2015-06-11T15:55:35Z</time>
      </trkpt>
      <trkpt lat="45.46489" lon="5.93514">
        <ele>1564.565287598</ele>
        <time>2015-06-11T15:55:40Z</time>
      </trkpt>
      <trkpt lat="45.46487" lon="5.93516">
        <ele>1564.565287598</ele>
        <time>2015-06-11T15:55:45Z</time>
      </trkpt>
      <trkpt lat="45.46484" lon="5.9352">
        <ele>1564.565287598</ele>
        <time>2015-06-11T15:55:50Z</time>
      </trkpt>
      <trkpt lat="45.46484" lon="5.93522">
        <ele>1570.090597599</ele>
        <time>2015-06-11T15:55:55Z</time>
      </trkpt>
      <trkpt lat="45.46483" lon="5.93522">
        <ele>1570.090597599</ele>
        <time>2015-06-11T15:56:00Z</time>
      </trkpt>
      <trkpt lat="45.46483" lon="5.93522">
        <ele>1570.090597599</ele>
        <time>2015-06-11T15:56:06Z</time>
      </trkpt>
      <trkpt lat="45.46482" lon="5.93523">
        <ele>1570.090597599</ele>
        <time>2015-06-11T15:56:10Z</time>
      </trkpt>
      <trkpt lat="45.4647" lon="5.93521">
        <ele>1574.511661933</ele>
        <time>2015-06-11T15:56:15Z</time>
      </trkpt>
      <trkpt lat="45.46461" lon="5.93526">
        <ele>1578.763532374</ele>
        <time>2015-06-11T15:56:20Z</time>
      </trkpt>
      <trkpt lat="45.46457" lon="5.93532">
        <ele>1578.763532374</ele>
        <time>2015-06-11T15:56:25Z</time>
      </trkpt>
      <trkpt lat="45.4645" lon="5.93529">
        <ele>1582.84908804</ele>
        <time>2015-06-11T15:56:30Z</time>
      </trkpt>
      <trkpt lat="45.46444" lon="5.93533">
        <ele>1582.84908804</ele>
        <time>2015-06-11T15:56:35Z</time>
      </trkpt>
      <trkpt lat="45.46443" lon="5.93537">
        <ele>1586.916258772</ele>
        <time>2015-06-11T15:56:40Z</time>
      </trkpt>
      <trkpt lat="45.4644" lon="5.93533">
        <ele>1586.916258772</ele>
        <time>2015-06-11T15:56:45Z</time>
      </trkpt>
      <trkpt lat="45.46439" lon="5.93528">
        <ele>1586.916258772</ele>
        <time>2015-06-11T15:56:50Z</time>
      </trkpt>
      <trkpt lat="45.46431" lon="5.93535">
        <ele>1590.670483546</ele>
        <time>2015-06-11T15:56:55Z</time>
      </trkpt>
      <trkpt lat="45.46429" lon="5.93534">
        <ele>1590.670483546</ele>
        <time>2015-06-11T15:57:00Z</time>
      </trkpt>
      <trkpt lat="45.46429" lon="5.93532">
        <ele>1590.670483546</ele>
        <time>2015-06-11T15:57:05Z</time>
      </trkpt>
      <trkpt lat="45.46428" lon="5.93531">
        <ele>1590.670483546</ele>
        <time>2015-06-11T15:57:10Z</time>
      </trkpt>
      <trkpt lat="45.46425" lon="5.9353">
        <ele>1590.670483546</ele>
        <time>2015-06-11T15:57:16Z</time>
      </trkpt>
      <trkpt lat="45.46422" lon="5.93534">
        <ele>1594.416792501</ele>
        <time>2015-06-11T15:57:20Z</time>
      </trkpt>
      <trkpt lat="45.46414" lon="5.93545">
        <ele>1598.726655961</ele>
        <time>2015-06-11T15:57:25Z</time>
      </trkpt>
      <trkpt lat="45.4641" lon="5.93546">
        <ele>1598.726655961</ele>
        <time>2015-06-11T15:57:30Z</time>
      </trkpt>
      <trkpt lat="45.46406" lon="5.93547">
        <ele>1598.726655961</ele>
        <time>2015-06-11T15:57:35Z</time>
      </trkpt>
      <trkpt lat="45.46403" lon="5.93546">
        <ele>1602.831558586</ele>
        <time>2015-06-11T15:57:40Z</time>
      </trkpt>
      <trkpt lat="45.46401" lon="5.93549">
        <ele>1602.831558586</ele>
        <time>2015-06-11T15:57:45Z</time>
      </trkpt>
      <trkpt lat="45.46401" lon="5.93553">
        <ele>1602.831558586</ele>
        <time>2015-06-11T15:57:50Z</time>
      </trkpt>
      <trkpt lat="45.464" lon="5.93555">
        <ele>1602.831558586</ele>
        <time>2015-06-11T15:57:55Z</time>
      </trkpt>
      <trkpt lat="45.46399" lon="5.93555">
        <ele>1602.831558586</ele>
        <time>2015-06-11T15:58:00Z</time>
      </trkpt>
      <trkpt lat="45.46397" lon="5.93556">
        <ele>1606.597007869</ele>
        <time>2015-06-11T15:58:05Z</time>
      </trkpt>
      <trkpt lat="45.46387" lon="5.93562">
        <ele>1610.476310188</ele>
        <time>2015-06-11T15:58:10Z</time>
      </trkpt>
      <trkpt lat="45.4638" lon="5.93569">
        <ele>1610.476310188</ele>
        <time>2015-06-11T15:58:15Z</time>
      </trkpt>
      <trkpt lat="45.46376" lon="5.93573">
        <ele>1615.033761401</ele>
        <time>2015-06-11T15:58:20Z</time>
      </trkpt>
      <trkpt lat="45.46374" lon="5.93578">
        <ele>1615.033761401</ele>
        <time>2015-06-11T15:58:25Z</time>
      </trkpt>
      <trkpt lat="45.46372" lon="5.93579">
        <ele>1615.033761401</ele>
        <time>2015-06-11T15:58:30Z</time>
      </trkpt>
      <trkpt lat="45.46372" lon="5.93578">
        <ele>1615.033761401</ele>
        <time>2015-06-11T15:58:35Z</time>
      </trkpt>
      <trkpt lat="45.46368" lon="5.93581">
        <ele>1619.493774482</ele>
        <time>2015-06-11T15:58:40Z</time>
      </trkpt>
      <trkpt lat="45.46365" lon="5.93586">
        <ele>1619.493774482</ele>
        <time>2015-06-11T15:58:45Z</time>
      </trkpt>
      <trkpt lat="45.46361" lon="5.93588">
        <ele>1619.493774482</ele>
        <time>2015-06-11T15:58:50Z</time>
      </trkpt>
      <trkpt lat="45.46359" lon="5.93595">
        <ele>1622.706124096</ele>
        <time>2015-06-11T15:58:55Z</time>
      </trkpt>
      <trkpt lat="45.46359" lon="5.936">
        <ele>1622.706124096</ele>
        <time>2015-06-11T15:59:00Z</time>
      </trkpt>
      <trkpt lat="45.46358" lon="5.93606">
        <ele>1622.706124096</ele>
        <time>2015-06-11T15:59:06Z</time>
      </trkpt>
      <trkpt lat="45.46354" lon="5.93608">
        <ele>1625.914781218</ele>
        <time>2015-06-11T15:59:10Z</time>
      </trkpt>
      <trkpt lat="45.46353" lon="5.93608">
        <ele>1625.914781218</ele>
        <time>2015-06-11T15:59:15Z</time>
      </trkpt>
      <trkpt lat="45.46351" lon="5.93616">
        <ele>1625.914781218</ele>
        <time>2015-06-11T15:59:19Z</time>
      </trkpt>
      <trkpt lat="45.4635" lon="5.93617">
        <ele>1625.914781218</ele>
        <time>2015-06-11T15:59:26Z</time>
      </trkpt>
      <trkpt lat="45.46348" lon="5.93614">
        <ele>1627.966961632</ele>
        <time>2015-06-11T15:59:30Z</time>
      </trkpt>
      <trkpt lat="45.46347" lon="5.93618">
        <ele>1627.966961632</ele>
        <time>2015-06-11T15:59:35Z</time>
      </trkpt>
      <trkpt lat="45.46346" lon="5.93618">
        <ele>1627.966961632</ele>
        <time>2015-06-11T15:59:41Z</time>
      </trkpt>
      <trkpt lat="45.46341" lon="5.9362">
        <ele>1627.966961632</ele>
        <time>2015-06-11T15:59:45Z</time>
      </trkpt>
      <trkpt lat="45.46338" lon="5.93622">
        <ele>1630.103950098</ele>
        <time>2015-06-11T15:59:50Z</time>
      </trkpt>
      <trkpt lat="45.46333" lon="5.93626">
        <ele>1630.103950098</ele>
        <time>2015-06-11T15:59:55Z</time>
      </trkpt>
      <trkpt lat="45.46334" lon="5.93628">
        <ele>1630.103950098</ele>
        <time>2015-06-11T15:59:59Z</time>
      </trkpt>
      <trkpt lat="45.46332" lon="5.93625">
        <ele>1632.178938045</ele>
        <time>2015-06-11T16:00:04Z</time>
      </trkpt>
      <trkpt lat="45.46332" lon="5.93623">
        <ele>1632.178938045</ele>
        <time>2015-06-11T16:00:09Z</time>
      </trkpt>
      <trkpt lat="45.46331" lon="5.93623">
        <ele>1632.178938045</ele>
        <time>2015-06-11T16:00:15Z</time>
      </trkpt>
      <trkpt lat="45.46332" lon="5.93623">
        <ele>1632.178938045</ele>
        <time>2015-06-11T16:00:19Z</time>
      </trkpt>
      <trkpt lat="45.46332" lon="5.93623">
        <ele>1632.178938045</ele>
        <time>2015-06-11T16:00:24Z</time>
      </trkpt>
      <trkpt lat="45.46331" lon="5.93622">
        <ele>1632.178938045</ele>
        <time>2015-06-11T16:00:29Z</time>
      </trkpt>
      <trkpt lat="45.46331" lon="5.93622">
        <ele>1632.178938045</ele>
        <time>2015-06-11T16:00:34Z</time>
      </trkpt>
      <trkpt lat="45.46331" lon="5.93622">
        <ele>1632.178938045</ele>
        <time>2015-06-11T16:00:41Z</time>
      </trkpt>
      <trkpt lat="45.46331" lon="5.93622">
        <ele>1632.178938045</ele>
        <time>2015-06-11T16:00:44Z</time>
      </trkpt>
      <trkpt lat="45.46331" lon="5.93622">
        <ele>1632.178938045</ele>
        <time>2015-06-11T16:00:49Z</time>
      </trkpt>
      <trkpt lat="45.46331" lon="5.93621">
        <ele>1632.178938045</ele>
        <time>2015-06-11T16:00:54Z</time>
      </trkpt>
      <trkpt lat="45.46331" lon="5.93613">
        <ele>1633.335812313</ele>
        <time>2015-06-11T16:00:59Z</time>
      </trkpt>
      <trkpt lat="45.46329" lon="5.93589">
        <ele>1634.36940318</ele>
        <time>2015-06-11T16:01:06Z</time>
      </trkpt>
      <trkpt lat="45.46329" lon="5.93584">
        <ele>1634.36940318</ele>
        <time>2015-06-11T16:01:10Z</time>
      </trkpt>
      <trkpt lat="45.46331" lon="5.93583">
        <ele>1634.36940318</ele>
        <time>2015-06-11T16:01:14Z</time>
      </trkpt>
      <trkpt lat="45.46333" lon="5.93581">
        <ele>1634.36940318</ele>
        <time>2015-06-11T16:01:19Z</time>
      </trkpt>
      <trkpt lat="45.46333" lon="5.93581">
        <ele>1634.36940318</ele>
        <time>2015-06-11T16:01:24Z</time>
      </trkpt>
      <trkpt lat="45.46333" lon="5.93581">
        <ele>1634.36940318</ele>
        <time>2015-06-11T16:01:30Z</time>
      </trkpt>
      <trkpt lat="45.46333" lon="5.93581">
        <ele>1634.36940318</ele>
        <time>2015-06-11T16:01:34Z</time>
      </trkpt>
      <trkpt lat="45.46333" lon="5.93581">
        <ele>1634.36940318</ele>
        <time>2015-06-11T16:01:39Z</time>
      </trkpt>
      <trkpt lat="45.46333" lon="5.9358">
        <ele>1634.36940318</ele>
        <time>2015-06-11T16:01:44Z</time>
      </trkpt>
      <trkpt lat="45.46338" lon="5.93559">
        <ele>1635.584383913</ele>
        <time>2015-06-11T16:01:49Z</time>
      </trkpt>
      <trkpt lat="45.46348" lon="5.93547">
        <ele>1636.109828868</ele>
        <time>2015-06-11T16:01:55Z</time>
      </trkpt>
      <trkpt lat="45.46353" lon="5.93541">
        <ele>1636.109828868</ele>
        <time>2015-06-11T16:01:59Z</time>
      </trkpt>
      <trkpt lat="45.46358" lon="5.93539">
        <ele>1637.014312954</ele>
        <time>2015-06-11T16:02:04Z</time>
      </trkpt>
      <trkpt lat="45.46361" lon="5.93541">
        <ele>1637.014312954</ele>
        <time>2015-06-11T16:02:09Z</time>
      </trkpt>
      <trkpt lat="45.46362" lon="5.9354">
        <ele>1637.014312954</ele>
        <time>2015-06-11T16:02:14Z</time>
      </trkpt>
      <trkpt lat="45.46362" lon="5.93538">
        <ele>1637.014312954</ele>
        <time>2015-06-11T16:02:19Z</time>
      </trkpt>
      <trkpt lat="45.46362" lon="5.93538">
        <ele>1637.014312954</ele>
        <time>2015-06-11T16:02:24Z</time>
      </trkpt>
      <trkpt lat="45.46362" lon="5.93539">
        <ele>1637.014312954</ele>
        <time>2015-06-11T16:02:29Z</time>
      </trkpt>
      <trkpt lat="45.46362" lon="5.93538">
        <ele>1637.014312954</ele>
        <time>2015-06-11T16:02:34Z</time>
      </trkpt>
      <trkpt lat="45.46362" lon="5.93538">
        <ele>1637.014312954</ele>
        <time>2015-06-11T16:02:39Z</time>
      </trkpt>
      <trkpt lat="45.46362" lon="5.93538">
        <ele>1637.014312954</ele>
        <time>2015-06-11T16:02:44Z</time>
      </trkpt>
      <trkpt lat="45.46362" lon="5.93538">
        <ele>1637.014312954</ele>
        <time>2015-06-11T16:02:49Z</time>
      </trkpt>
      <trkpt lat="45.46362" lon="5.93538">
        <ele>1637.014312954</ele>
        <time>2015-06-11T16:02:54Z</time>
      </trkpt>
      <trkpt lat="45.46362" lon="5.93538">
        <ele>1637.014312954</ele>
        <time>2015-06-11T16:02:59Z</time>
      </trkpt>
      <trkpt lat="45.46362" lon="5.93538">
        <ele>1637.014312954</ele>
        <time>2015-06-11T16:03:04Z</time>
      </trkpt>
      <trkpt lat="45.46362" lon="5.93538">
        <ele>1637.014312954</ele>
        <time>2015-06-11T16:03:09Z</time>
      </trkpt>
      <trkpt lat="45.46362" lon="5.93538">
        <ele>1637.014312954</ele>
        <time>2015-06-11T16:03:14Z</time>
      </trkpt>
      <trkpt lat="45.46362" lon="5.93538">
        <ele>1637.014312954</ele>
        <time>2015-06-11T16:03:19Z</time>
      </trkpt>
      <trkpt lat="45.46372" lon="5.93528">
        <ele>1637.845847066</ele>
        <time>2015-06-11T16:03:24Z</time>
      </trkpt>
      <trkpt lat="45.46376" lon="5.93523">
        <ele>1637.845847066</ele>
        <time>2015-06-11T16:03:29Z</time>
      </trkpt>
      <trkpt lat="45.46382" lon="5.9351">
        <ele>1638.618257288</ele>
        <time>2015-06-11T16:03:34Z</time>
      </trkpt>
      <trkpt lat="45.46388" lon="5.93504">
        <ele>1638.618257288</ele>
        <time>2015-06-11T16:03:39Z</time>
      </trkpt>
      <trkpt lat="45.46401" lon="5.93499">
        <ele>1639.921007949</ele>
        <time>2015-06-11T16:03:44Z</time>
      </trkpt>
      <trkpt lat="45.46403" lon="5.93498">
        <ele>1639.921007949</ele>
        <time>2015-06-11T16:03:49Z</time>
      </trkpt>
      <trkpt lat="45.46401" lon="5.93495">
        <ele>1639.921007949</ele>
        <time>2015-06-11T16:03:54Z</time>
      </trkpt>
      <trkpt lat="45.46402" lon="5.93494">
        <ele>1639.921007949</ele>
        <time>2015-06-11T16:03:59Z</time>
      </trkpt>
      <trkpt lat="45.46402" lon="5.93494">
        <ele>1639.921007949</ele>
        <time>2015-06-11T16:04:04Z</time>
      </trkpt>
      <trkpt lat="45.46402" lon="5.93494">
        <ele>1639.921007949</ele>
        <time>2015-06-11T16:04:09Z</time>
      </trkpt>
      <trkpt lat="45.46402" lon="5.93494">
        <ele>1639.921007949</ele>
        <time>2015-06-11T16:04:14Z</time>
      </trkpt>
      <trkpt lat="45.46402" lon="5.93494">
        <ele>1639.921007949</ele>
        <time>2015-06-11T16:04:19Z</time>
      </trkpt>
      <trkpt lat="45.46402" lon="5.93494">
        <ele>1639.921007949</ele>
        <time>2015-06-11T16:04:24Z</time>
      </trkpt>
      <trkpt lat="45.46402" lon="5.93494">
        <ele>1639.921007949</ele>
        <time>2015-06-11T16:04:29Z</time>
      </trkpt>
      <trkpt lat="45.46402" lon="5.93494">
        <ele>1639.921007949</ele>
        <time>2015-06-11T16:04:34Z</time>
      </trkpt>
      <trkpt lat="45.46402" lon="5.93494">
        <ele>1639.921007949</ele>
        <time>2015-06-11T16:04:39Z</time>
      </trkpt>
      <trkpt lat="45.46402" lon="5.93494">
        <ele>1639.921007949</ele>
        <time>2015-06-11T16:04:44Z</time>
      </trkpt>
      <trkpt lat="45.46403" lon="5.93492">
        <ele>1641.145900193</ele>
        <time>2015-06-11T16:04:49Z</time>
      </trkpt>
      <trkpt lat="45.46405" lon="5.93482">
        <ele>1641.145900193</ele>
        <time>2015-06-11T16:04:54Z</time>
      </trkpt>
      <trkpt lat="45.46403" lon="5.93478">
        <ele>1642.306066741</ele>
        <time>2015-06-11T16:04:59Z</time>
      </trkpt>
      <trkpt lat="45.46403" lon="5.93477">
        <ele>1642.306066741</ele>
        <time>2015-06-11T16:05:04Z</time>
      </trkpt>
      <trkpt lat="45.46403" lon="5.93477">
        <ele>1642.306066741</ele>
        <time>2015-06-11T16:05:09Z</time>
      </trkpt>
      <trkpt lat="45.46403" lon="5.93477">
        <ele>1642.306066741</ele>
        <time>2015-06-11T16:05:14Z</time>
      </trkpt>
      <trkpt lat="45.46403" lon="5.93477">
        <ele>1642.306066741</ele>
        <time>2015-06-11T16:05:19Z</time>
      </trkpt>
      <trkpt lat="45.46404" lon="5.93477">
        <ele>1642.306066741</ele>
        <time>2015-06-11T16:05:24Z</time>
      </trkpt>
      <trkpt lat="45.4641" lon="5.93469">
        <ele>1643.702048104</ele>
        <time>2015-06-11T16:05:29Z</time>
      </trkpt>
      <trkpt lat="45.46408" lon="5.93454">
        <ele>1644.458704449</ele>
        <time>2015-06-11T16:05:34Z</time>
      </trkpt>
      <trkpt lat="45.46416" lon="5.93439">
        <ele>1644.487459869</ele>
        <time>2015-06-11T16:05:39Z</time>
      </trkpt>
      <trkpt lat="45.46421" lon="5.9343">
        <ele>1644.487459869</ele>
        <time>2015-06-11T16:05:44Z</time>
      </trkpt>
      <trkpt lat="45.46424" lon="5.93429">
        <ele>1645.005195044</ele>
        <time>2015-06-11T16:05:49Z</time>
      </trkpt>
      <trkpt lat="45.46427" lon="5.93429">
        <ele>1645.005195044</ele>
        <time>2015-06-11T16:05:54Z</time>
      </trkpt>
      <trkpt lat="45.46426" lon="5.93426">
        <ele>1645.005195044</ele>
        <time>2015-06-11T16:05:59Z</time>
      </trkpt>
      <trkpt lat="45.46426" lon="5.93425">
        <ele>1645.005195044</ele>
        <time>2015-06-11T16:06:04Z</time>
      </trkpt>
      <trkpt lat="45.46426" lon="5.93425">
        <ele>1645.005195044</ele>
        <time>2015-06-11T16:06:09Z</time>
      </trkpt>
      <trkpt lat="45.46426" lon="5.93425">
        <ele>1645.005195044</ele>
        <time>2015-06-11T16:06:14Z</time>
      </trkpt>
      <trkpt lat="45.46426" lon="5.93425">
        <ele>1645.005195044</ele>
        <time>2015-06-11T16:06:19Z</time>
      </trkpt>
      <trkpt lat="45.46426" lon="5.93425">
        <ele>1645.005195044</ele>
        <time>2015-06-11T16:06:24Z</time>
      </trkpt>
      <trkpt lat="45.46426" lon="5.93425">
        <ele>1645.005195044</ele>
        <time>2015-06-11T16:06:29Z</time>
      </trkpt>
      <trkpt lat="45.46426" lon="5.93425">
        <ele>1645.005195044</ele>
        <time>2015-06-11T16:06:34Z</time>
      </trkpt>
      <trkpt lat="45.46426" lon="5.93425">
        <ele>1645.005195044</ele>
        <time>2015-06-11T16:06:39Z</time>
      </trkpt>
      <trkpt lat="45.46426" lon="5.93425">
        <ele>1645.005195044</ele>
        <time>2015-06-11T16:06:44Z</time>
      </trkpt>
      <trkpt lat="45.46433" lon="5.93405">
        <ele>1643.823355213</ele>
        <time>2015-06-11T16:06:49Z</time>
      </trkpt>
      <trkpt lat="45.46436" lon="5.9339">
        <ele>1642.089228126</ele>
        <time>2015-06-11T16:06:54Z</time>
      </trkpt>
      <trkpt lat="45.46441" lon="5.93386">
        <ele>1642.089228126</ele>
        <time>2015-06-11T16:06:59Z</time>
      </trkpt>
      <trkpt lat="45.46446" lon="5.93386">
        <ele>1641.587761583</ele>
        <time>2015-06-11T16:07:04Z</time>
      </trkpt>
      <trkpt lat="45.46447" lon="5.93382">
        <ele>1641.587761583</ele>
        <time>2015-06-11T16:07:09Z</time>
      </trkpt>
      <trkpt lat="45.46447" lon="5.93382">
        <ele>1641.587761583</ele>
        <time>2015-06-11T16:07:14Z</time>
      </trkpt>
      <trkpt lat="45.46447" lon="5.93382">
        <ele>1641.587761583</ele>
        <time>2015-06-11T16:07:19Z</time>
      </trkpt>
      <trkpt lat="45.46447" lon="5.93382">
        <ele>1641.587761583</ele>
        <time>2015-06-11T16:07:24Z</time>
      </trkpt>
      <trkpt lat="45.46447" lon="5.93382">
        <ele>1641.587761583</ele>
        <time>2015-06-11T16:07:29Z</time>
      </trkpt>
      <trkpt lat="45.46448" lon="5.93382">
        <ele>1641.587761583</ele>
        <time>2015-06-11T16:07:34Z</time>
      </trkpt>
      <trkpt lat="45.46455" lon="5.93373">
        <ele>1640.510464264</ele>
        <time>2015-06-11T16:07:39Z</time>
      </trkpt>
      <trkpt lat="45.46462" lon="5.9337">
        <ele>1640.510464264</ele>
        <time>2015-06-11T16:07:44Z</time>
      </trkpt>
      <trkpt lat="45.46461" lon="5.93369">
        <ele>1640.510464264</ele>
        <time>2015-06-11T16:07:49Z</time>
      </trkpt>
      <trkpt lat="45.46464" lon="5.93373">
        <ele>1638.768315674</ele>
        <time>2015-06-11T16:07:54Z</time>
      </trkpt>
      <trkpt lat="45.46468" lon="5.9338">
        <ele>1638.768315674</ele>
        <time>2015-06-11T16:07:59Z</time>
      </trkpt>
      <trkpt lat="45.46468" lon="5.93379">
        <ele>1638.768315674</ele>
        <time>2015-06-11T16:08:04Z</time>
      </trkpt>
      <trkpt lat="45.46468" lon="5.93377">
        <ele>1638.768315674</ele>
        <time>2015-06-11T16:08:09Z</time>
      </trkpt>
      <trkpt lat="45.46468" lon="5.93377">
        <ele>1636.712790818</ele>
        <time>2015-06-11T16:08:14Z</time>
      </trkpt>
      <trkpt lat="45.46469" lon="5.93377">
        <ele>1636.712790818</ele>
        <time>2015-06-11T16:08:19Z</time>
      </trkpt>
      <trkpt lat="45.46469" lon="5.93377">
        <ele>1636.712790818</ele>
        <time>2015-06-11T16:08:24Z</time>
      </trkpt>
      <trkpt lat="45.46469" lon="5.93377">
        <ele>1636.712790818</ele>
        <time>2015-06-11T16:08:29Z</time>
      </trkpt>
      <trkpt lat="45.46469" lon="5.93377">
        <ele>1636.712790818</ele>
        <time>2015-06-11T16:08:34Z</time>
      </trkpt>
      <trkpt lat="45.46469" lon="5.93377">
        <ele>1636.712790818</ele>
        <time>2015-06-11T16:08:39Z</time>
      </trkpt>
      <trkpt lat="45.46469" lon="5.93377">
        <ele>1636.712790818</ele>
        <time>2015-06-11T16:08:44Z</time>
      </trkpt>
      <trkpt lat="45.46469" lon="5.93377">
        <ele>1636.712790818</ele>
        <time>2015-06-11T16:08:49Z</time>
      </trkpt>
      <trkpt lat="45.46469" lon="5.93376">
        <ele>1636.712790818</ele>
        <time>2015-06-11T16:08:54Z</time>
      </trkpt>
      <trkpt lat="45.46469" lon="5.93376">
        <ele>1636.712790818</ele>
        <time>2015-06-11T16:08:59Z</time>
      </trkpt>
      <trkpt lat="45.46469" lon="5.93376">
        <ele>1636.712790818</ele>
        <time>2015-06-11T16:09:04Z</time>
      </trkpt>
      <trkpt lat="45.46469" lon="5.93376">
        <ele>1636.712790818</ele>
        <time>2015-06-11T16:09:09Z</time>
      </trkpt>
      <trkpt lat="45.46475" lon="5.93375">
        <ele>1636.712790818</ele>
        <time>2015-06-11T16:09:14Z</time>
      </trkpt>
      <trkpt lat="45.46486" lon="5.93368">
        <ele>1634.670159104</ele>
        <time>2015-06-11T16:09:19Z</time>
      </trkpt>
      <trkpt lat="45.46494" lon="5.93365">
        <ele>1634.670159104</ele>
        <time>2015-06-11T16:09:24Z</time>
      </trkpt>
      <trkpt lat="45.46502" lon="5.93362">
        <ele>1632.365952307</ele>
        <time>2015-06-11T16:09:29Z</time>
      </trkpt>
      <trkpt lat="45.46508" lon="5.93358">
        <ele>1632.365952307</ele>
        <time>2015-06-11T16:09:34Z</time>
      </trkpt>
      <trkpt lat="45.46511" lon="5.93359">
        <ele>1629.978619524</ele>
        <time>2015-06-11T16:09:39Z</time>
      </trkpt>
      <trkpt lat="45.46512" lon="5.93358">
        <ele>1629.978619524</ele>
        <time>2015-06-11T16:09:44Z</time>
      </trkpt>
      <trkpt lat="45.46513" lon="5.93359">
        <ele>1629.978619524</ele>
        <time>2015-06-11T16:09:49Z</time>
      </trkpt>
      <trkpt lat="45.46514" lon="5.93359">
        <ele>1629.978619524</ele>
        <time>2015-06-11T16:09:54Z</time>
      </trkpt>
      <trkpt lat="45.46514" lon="5.93359">
        <ele>1629.978619524</ele>
        <time>2015-06-11T16:09:59Z</time>
      </trkpt>
      <trkpt lat="45.46519" lon="5.93357">
        <ele>1629.978619524</ele>
        <time>2015-06-11T16:10:04Z</time>
      </trkpt>
      <trkpt lat="45.46523" lon="5.93355">
        <ele>1627.817512245</ele>
        <time>2015-06-11T16:10:09Z</time>
      </trkpt>
      <trkpt lat="45.46532" lon="5.93351">
        <ele>1625.880048685</ele>
        <time>2015-06-11T16:10:14Z</time>
      </trkpt>
      <trkpt lat="45.46537" lon="5.93351">
        <ele>1625.880048685</ele>
        <time>2015-06-11T16:10:19Z</time>
      </trkpt>
      <trkpt lat="45.46541" lon="5.93346">
        <ele>1623.730508292</ele>
        <time>2015-06-11T16:10:24Z</time>
      </trkpt>
      <trkpt lat="45.46542" lon="5.93347">
        <ele>1623.730508292</ele>
        <time>2015-06-11T16:10:29Z</time>
      </trkpt>
      <trkpt lat="45.46542" lon="5.93347">
        <ele>1623.730508292</ele>
        <time>2015-06-11T16:10:34Z</time>
      </trkpt>
      <trkpt lat="45.46542" lon="5.93347">
        <ele>1623.730508292</ele>
        <time>2015-06-11T16:10:39Z</time>
      </trkpt>
      <trkpt lat="45.46542" lon="5.93347">
        <ele>1623.730508292</ele>
        <time>2015-06-11T16:10:44Z</time>
      </trkpt>
      <trkpt lat="45.46542" lon="5.93347">
        <ele>1623.730508292</ele>
        <time>2015-06-11T16:10:49Z</time>
      </trkpt>
      <trkpt lat="45.46542" lon="5.93348">
        <ele>1623.730508292</ele>
        <time>2015-06-11T16:10:54Z</time>
      </trkpt>
      <trkpt lat="45.46542" lon="5.93348">
        <ele>1623.730508292</ele>
        <time>2015-06-11T16:10:59Z</time>
      </trkpt>
      <trkpt lat="45.46542" lon="5.93348">
        <ele>1623.730508292</ele>
        <time>2015-06-11T16:11:04Z</time>
      </trkpt>
      <trkpt lat="45.46542" lon="5.93348">
        <ele>1623.730508292</ele>
        <time>2015-06-11T16:11:09Z</time>
      </trkpt>
      <trkpt lat="45.46543" lon="5.93347">
        <ele>1623.730508292</ele>
        <time>2015-06-11T16:11:14Z</time>
      </trkpt>
      <trkpt lat="45.46543" lon="5.93346">
        <ele>1625.11328125</ele>
      </trkpt>
      <trkpt lat="45.46561" lon="5.93348">
        <ele>1615.33984375</ele>
      </trkpt>
      <trkpt lat="45.46581" lon="5.93347">
        <ele>1612.66015625</ele>
      </trkpt>
      <trkpt lat="45.46596" lon="5.93352">
        <ele>1606.4296875</ele>
      </trkpt>
      <trkpt lat="45.4661" lon="5.93344">
        <ele>1611.6796875</ele>
      </trkpt>
      <trkpt lat="45.46622" lon="5.93332">
        <ele>1620.265625</ele>
      </trkpt>
      <trkpt lat="45.46632" lon="5.93331">
        <ele>1617.1171875</ele>
      </trkpt>
      <trkpt lat="45.46638" lon="5.93337">
        <ele>1610.234375</ele>
      </trkpt>
      <trkpt lat="45.46644" lon="5.93314">
        <ele>1627.9140625</ele>
      </trkpt>
      <trkpt lat="45.46649" lon="5.93305">
        <ele>1632.66796875</ele>
      </trkpt>
      <trkpt lat="45.46657" lon="5.93306">
        <ele>1628.85546875</ele>
      </trkpt>
      <trkpt lat="45.46662" lon="5.9331">
        <ele>1623.32421875</ele>
      </trkpt>
      <trkpt lat="45.46674" lon="5.93309">
        <ele>1619.41796875</ele>
      </trkpt>
      <trkpt lat="45.46692" lon="5.9329">
        <ele>1628.20703125</ele>
      </trkpt>
      <trkpt lat="45.46704" lon="5.93277">
        <ele>1633.8828125</ele>
      </trkpt>
      <trkpt lat="45.46711" lon="5.93261">
        <ele>1643.47265625</ele>
      </trkpt>
      <trkpt lat="45.4672" lon="5.9326">
        <ele>1639.27734375</ele>
      </trkpt>
      <trkpt lat="45.4673" lon="5.93239">
        <ele>1651.390625</ele>
      </trkpt>
      <trkpt lat="45.46744" lon="5.93228">
        <ele>1650.20703125</ele>
      </trkpt>
      <trkpt lat="45.4675" lon="5.9322">
        <ele>1651.47265625</ele>
      </trkpt>
      <trkpt lat="45.4676" lon="5.93209">
        <ele>1651.375</ele>
      </trkpt>
      <trkpt lat="45.46767" lon="5.93196">
        <ele>1655.0234375</ele>
      </trkpt>
      <trkpt lat="45.46775" lon="5.93192">
        <ele>1650.98046875</ele>
      </trkpt>
      <trkpt lat="45.4676" lon="5.93205">
        <ele>1654.9453125</ele>
      </trkpt>
      <trkpt lat="45.46744" lon="5.93216">
        <ele>1659.99609375</ele>
      </trkpt>
      <trkpt lat="45.4673" lon="5.93231">
        <ele>1658.2578125</ele>
      </trkpt>
      <trkpt lat="45.46725" lon="5.93242">
        <ele>1651.48828125</ele>
      </trkpt>
      <trkpt lat="45.46717" lon="5.93256">
        <ele>1643.96484375</ele>
      </trkpt>
      <trkpt lat="45.46709" lon="5.93272">
        <ele>1635.75</ele>
      </trkpt>
      <trkpt lat="45.46695" lon="5.93284">
        <ele>1632.23046875</ele>
      </trkpt>
      <trkpt lat="45.46687" lon="5.93294">
        <ele>1626.71875</ele>
      </trkpt>
      <trkpt lat="45.46682" lon="5.93307">
        <ele>1617.8125</ele>
      </trkpt>
      <trkpt lat="45.46667" lon="5.93312">
        <ele>1619.97265625</ele>
      </trkpt>
      <trkpt lat="45.46653" lon="5.93314">
        <ele>1624.2890625</ele>
      </trkpt>
      <trkpt lat="45.46646" lon="5.93331">
        <ele>1612.2890625</ele>
      </trkpt>
      <trkpt lat="45.46639" lon="5.93347">
        <ele>1601.6171875</ele>
      </trkpt>
      <trkpt lat="45.46628" lon="5.93344">
        <ele>1607.12890625</ele>
      </trkpt>
      <trkpt lat="45.46606" lon="5.93359">
        <ele>1598.03125</ele>
      </trkpt>
      <trkpt lat="45.46596" lon="5.93354">
        <ele>1604.6640625</ele>
      </trkpt>
      <trkpt lat="45.46588" lon="5.93354">
        <ele>1605.2109375</ele>
      </trkpt>
      <trkpt lat="45.46584" lon="5.93351">
        <ele>1608.74609375</ele>
      </trkpt>
      <trkpt lat="45.46551" lon="5.93346">
        <ele>1622.21484375</ele>
      </trkpt>
      <trkpt lat="45.46547" lon="5.93352">
        <ele>1618.27734375</ele>
      </trkpt>
      <trkpt lat="45.46537" lon="5.93352">
        <ele>1623.640625</ele>
      </trkpt>
      <trkpt lat="45.46531" lon="5.93353">
        <ele>1625.8125</ele>
      </trkpt>
      <trkpt lat="45.46515" lon="5.93359">
        <ele>1629.55078125</ele>
      </trkpt>
      <trkpt lat="45.46516" lon="5.93359">
        <ele>1629.31640625</ele>
      </trkpt>
      <trkpt lat="45.46492" lon="5.93365">
        <ele>1643.3046875</ele>
      </trkpt>
      <trkpt lat="45.46476" lon="5.93373">
        <ele>1652.33203125</ele>
      </trkpt>
      <trkpt lat="45.46463" lon="5.93371">
        <ele>1663.96875</ele>
      </trkpt>
      <trkpt lat="45.46452" lon="5.93378">
        <ele>1668.7421875</ele>
      </trkpt>
      <trkpt lat="45.46442" lon="5.93387">
        <ele>1674.8828125</ele>
      </trkpt>
      <trkpt lat="45.46435" lon="5.93406">
        <ele>1671.80078125</ele>
      </trkpt>
      <trkpt lat="45.46431" lon="5.93423">
        <ele>1668.3359375</ele>
      </trkpt>
      <trkpt lat="45.46418" lon="5.93434">
        <ele>1677.140625</ele>
      </trkpt>
      <trkpt lat="45.46412" lon="5.93452">
        <ele>1674.6484375</ele>
      </trkpt>
      <trkpt lat="45.4641" lon="5.93469">
        <ele>1667.828125</ele>
      </trkpt>
      <trkpt lat="45.46399" lon="5.93493">
        <ele>1666.4140625</ele>
      </trkpt>
      <trkpt lat="45.46397" lon="5.93501">
        <ele>1663.39453125</ele>
      </trkpt>
      <trkpt lat="45.46381" lon="5.93512">
        <ele>1667.4765625</ele>
      </trkpt>
      <trkpt lat="45.46368" lon="5.93525">
        <ele>1668.65234375</ele>
      </trkpt>
      <trkpt lat="45.46364" lon="5.93528">
        <ele>1669.5546875</ele>
      </trkpt>
      <trkpt lat="45.4636" lon="5.93529">
        <ele>1672.109375</ele>
      </trkpt>
      <trkpt lat="45.46351" lon="5.93554">
        <ele>1660.19921875</ele>
      </trkpt>
      <trkpt lat="45.46347" lon="5.93558">
        <ele>1660.2109375</ele>
      </trkpt>
      <trkpt lat="45.4634" lon="5.93561">
        <ele>1661.40625</ele>
      </trkpt>
      <trkpt lat="45.46332" lon="5.9358">
        <ele>1644.18359375</ele>
      </trkpt>
      <trkpt lat="45.46329" lon="5.93586">
        <ele>1638.6796875</ele>
      </trkpt>
      <trkpt lat="45.46327" lon="5.93616">
        <ele>1613.88671875</ele>
      </trkpt>
      <trkpt lat="45.46329" lon="5.93634">
        <ele>1599.66015625</ele>
      </trkpt>
      <trkpt lat="45.46335" lon="5.93642">
        <ele>1591.57421875</ele>
      </trkpt>
      <trkpt lat="45.46335" lon="5.93642">
        <ele>1592.21875</ele>
      </trkpt>
      <trkpt lat="45.46336" lon="5.93646">
        <ele>1587.73046875</ele>
      </trkpt>
      <trkpt lat="45.4633" lon="5.9365">
        <ele>1585.8359375</ele>
      </trkpt>
      <trkpt lat="45.46314" lon="5.93647">
        <ele>1592.3984375</ele>
      </trkpt>
      <trkpt lat="45.46288" lon="5.93625">
        <ele>1608.41796875</ele>
      </trkpt>
      <trkpt lat="45.46258" lon="5.93596">
        <ele>1629.34765625</ele>
      </trkpt>
      <trkpt lat="45.46252" lon="5.93585">
        <ele>1633.84375</ele>
      </trkpt>
      <trkpt lat="45.46254" lon="5.93575">
        <ele>1635.76171875</ele>
      </trkpt>
      <trkpt lat="45.46243" lon="5.93574">
        <ele>1637.70703125</ele>
      </trkpt>
      <trkpt lat="45.46239" lon="5.93566">
        <ele>1639.51953125</ele>
      </trkpt>
      <trkpt lat="45.4621" lon="5.93508">
        <ele>1649.390625</ele>
      </trkpt>
      <trkpt lat="45.46208" lon="5.93492">
        <ele>1652.9921875</ele>
      </trkpt>
      <trkpt lat="45.46208" lon="5.93474">
        <ele>1656.86328125</ele>
      </trkpt>
      <trkpt lat="45.46206" lon="5.93459">
        <ele>1661.26953125</ele>
      </trkpt>
      <trkpt lat="45.46192" lon="5.93437">
        <ele>1669.0078125</ele>
      </trkpt>
      <trkpt lat="45.46185" lon="5.93425">
        <ele>1672.828125</ele>
      </trkpt>
      <trkpt lat="45.46179" lon="5.93412">
        <ele>1676.81640625</ele>
      </trkpt>
      <trkpt lat="45.46179" lon="5.93399">
        <ele>1680.25390625</ele>
      </trkpt>
      <trkpt lat="45.4618" lon="5.93385">
        <ele>1684.0078125</ele>
      </trkpt>
      <trkpt lat="45.46185" lon="5.93361">
        <ele>1690.95703125</ele>
      </trkpt>
      <trkpt lat="45.46188" lon="5.93355">
        <ele>1693.00390625</ele>
      </trkpt>
      <trkpt lat="45.46189" lon="5.93321">
        <ele>1702.921875</ele>
      </trkpt>
      <trkpt lat="45.4619" lon="5.93311">
        <ele>1705.9765625</ele>
      </trkpt>
      <trkpt lat="45.46202" lon="5.93302">
        <ele>1711.96484375</ele>
      </trkpt>
      <trkpt lat="45.46208" lon="5.93308">
        <ele>1712.31640625</ele>
      </trkpt>
      <trkpt lat="45.46214" lon="5.93314">
        <ele>1711.80078125</ele>
      </trkpt>
      <trkpt lat="45.46221" lon="5.93313">
        <ele>1713.9921875</ele>
      </trkpt>
      <trkpt lat="45.46227" lon="5.93314">
        <ele>1715.32421875</ele>
      </trkpt>
      <trkpt lat="45.46235" lon="5.93311">
        <ele>1719.46875</ele>
      </trkpt>
      <trkpt lat="45.46238" lon="5.93307">
        <ele>1722.64453125</ele>
      </trkpt>
      <trkpt lat="45.46241" lon="5.933">
        <ele>1726.1796875</ele>
      </trkpt>
      <trkpt lat="45.46245" lon="5.93289">
        <ele>1731.15625</ele>
      </trkpt>
      <trkpt lat="45.46246" lon="5.9328">
        <ele>1734.23828125</ele>
      </trkpt>
      <trkpt lat="45.46251" lon="5.9325">
        <ele>1745.453125</ele>
      </trkpt>
      <trkpt lat="45.46253" lon="5.93242">
        <ele>1748.27734375</ele>
      </trkpt>
      <trkpt lat="45.46257" lon="5.93237">
        <ele>1751.16015625</ele>
      </trkpt>
      <trkpt lat="45.46263" lon="5.93235">
        <ele>1753.47265625</ele>
      </trkpt>
      <trkpt lat="45.46269" lon="5.93235">
        <ele>1755.578125</ele>
      </trkpt>
      <trkpt lat="45.46284" lon="5.93246">
        <ele>1758.328125</ele>
      </trkpt>
      <trkpt lat="45.46316" lon="5.93272">
        <ele>1759.3203125</ele>
      </trkpt>
      <trkpt lat="45.46336" lon="5.93285">
        <ele>1761.78125</ele>
      </trkpt>
      <trkpt lat="45.46343" lon="5.93289">
        <ele>1762.66015625</ele>
      </trkpt>
      <trkpt lat="45.46352" lon="5.93295">
        <ele>1761.3203125</ele>
      </trkpt>
      <trkpt lat="45.46357" lon="5.93304">
        <ele>1759.44921875</ele>
      </trkpt>
      <trkpt lat="45.46366" lon="5.93305">
        <ele>1758.78515625</ele>
      </trkpt>
      <trkpt lat="45.46369" lon="5.93295">
        <ele>1760.7890625</ele>
      </trkpt>
      <trkpt lat="45.46372" lon="5.93281">
        <ele>1763.9375</ele>
      </trkpt>
      <trkpt lat="45.46379" lon="5.93271">
        <ele>1766.33203125</ele>
      </trkpt>
      <trkpt lat="45.46382" lon="5.93265">
        <ele>1768.04296875</ele>
      </trkpt>
      <trkpt lat="45.46388" lon="5.93243">
        <ele>1773.76171875</ele>
      </trkpt>
      <trkpt lat="45.46391" lon="5.93239">
        <ele>1774.99609375</ele>
      </trkpt>
      <trkpt lat="45.464" lon="5.9323">
        <ele>1776.171875</ele>
      </trkpt>
      <trkpt lat="45.46408" lon="5.93223">
        <ele>1774.78125</ele>
      </trkpt>
      <trkpt lat="45.46412" lon="5.93211">
        <ele>1776.8671875</ele>
      </trkpt>
      <trkpt lat="45.46418" lon="5.93202">
        <ele>1778.203125</ele>
      </trkpt>
      <trkpt lat="45.4643" lon="5.93189">
        <ele>1779.19921875</ele>
      </trkpt>
      <trkpt lat="45.46437" lon="5.93183">
        <ele>1779.03125</ele>
      </trkpt>
      <trkpt lat="45.46444" lon="5.93172">
        <ele>1780.61328125</ele>
      </trkpt>
      <trkpt lat="45.46449" lon="5.93163">
        <ele>1782.2421875</ele>
      </trkpt>
      <trkpt lat="45.46462" lon="5.9315">
        <ele>1784.73828125</ele>
      </trkpt>
      <trkpt lat="45.46474" lon="5.93137">
        <ele>1788.46484375</ele>
      </trkpt>
      <trkpt lat="45.46489" lon="5.93135">
        <ele>1788.3984375</ele>
      </trkpt>
      <trkpt lat="45.46498" lon="5.93136">
        <ele>1787.890625</ele>
      </trkpt>
      <trkpt lat="45.46508" lon="5.93139">
        <ele>1786.4921875</ele>
      </trkpt>
      <trkpt lat="45.46522" lon="5.9313">
        <ele>1788.22265625</ele>
      </trkpt>
      <trkpt lat="45.46531" lon="5.93127">
        <ele>1788.6015625</ele>
      </trkpt>
      <trkpt lat="45.46536" lon="5.93117">
        <ele>1791.03125</ele>
      </trkpt>
      <trkpt lat="45.46541" lon="5.93107">
        <ele>1793.65234375</ele>
      </trkpt>
      <trkpt lat="45.46552" lon="5.93102">
        <ele>1795.046875</ele>
      </trkpt>
      <trkpt lat="45.4656" lon="5.93103">
        <ele>1794.609375</ele>
      </trkpt>
      <trkpt lat="45.46567" lon="5.93103">
        <ele>1794.79296875</ele>
      </trkpt>
      <trkpt lat="45.46576" lon="5.93101">
        <ele>1795.96484375</ele>
      </trkpt>
      <trkpt lat="45.46596" lon="5.93113">
        <ele>1792.875</ele>
      </trkpt>
      <trkpt lat="45.46603" lon="5.93112">
        <ele>1793.54296875</ele>
      </trkpt>
      <trkpt lat="45.46611" lon="5.93109">
        <ele>1794.72265625</ele>
      </trkpt>
      <trkpt lat="45.46624" lon="5.93095">
        <ele>1800.05078125</ele>
      </trkpt>
      <trkpt lat="45.46638" lon="5.93085">
        <ele>1803.95703125</ele>
      </trkpt>
      <trkpt lat="45.46647" lon="5.93084">
        <ele>1804.25</ele>
      </trkpt>
      <trkpt lat="45.46653" lon="5.9308">
        <ele>1805.046875</ele>
      </trkpt>
      <trkpt lat="45.46669" lon="5.93086">
        <ele>1802.71875</ele>
      </trkpt>
      <trkpt lat="45.46676" lon="5.9308">
        <ele>1804.58984375</ele>
      </trkpt>
      <trkpt lat="45.46684" lon="5.93077">
        <ele>1804.8125</ele>
      </trkpt>
      <trkpt lat="45.4669" lon="5.93076">
        <ele>1804.73046875</ele>
      </trkpt>
      <trkpt lat="45.46696" lon="5.93068">
        <ele>1807</ele>
      </trkpt>
      <trkpt lat="45.467" lon="5.93062">
        <ele>1808.53515625</ele>
      </trkpt>
      <trkpt lat="45.46705" lon="5.93064">
        <ele>1807.62109375</ele>
      </trkpt>
      <trkpt lat="45.46713" lon="5.93064">
        <ele>1807.21484375</ele>
      </trkpt>
      <trkpt lat="45.46718" lon="5.93058">
        <ele>1809.38671875</ele>
      </trkpt>
      <trkpt lat="45.46722" lon="5.9306">
        <ele>1808.43359375</ele>
      </trkpt>
      <trkpt lat="45.46726" lon="5.93063">
        <ele>1807.0234375</ele>
      </trkpt>
      <trkpt lat="45.46733" lon="5.93063">
        <ele>1805.83984375</ele>
      </trkpt>
      <trkpt lat="45.46738" lon="5.93059">
        <ele>1805.86328125</ele>
      </trkpt>
      <trkpt lat="45.46742" lon="5.93051">
        <ele>1807.9375</ele>
      </trkpt>
      <trkpt lat="45.4675" lon="5.93039">
        <ele>1812.234375</ele>
      </trkpt>
      <trkpt lat="45.46752" lon="5.93026">
        <ele>1817.81640625</ele>
      </trkpt>
      <trkpt lat="45.46756" lon="5.93015">
        <ele>1819.71484375</ele>
      </trkpt>
      <trkpt lat="45.46759" lon="5.93004">
        <ele>1821.984375</ele>
      </trkpt>
      <trkpt lat="45.46766" lon="5.92998">
        <ele>1823.10546875</ele>
      </trkpt>
      <trkpt lat="45.46771" lon="5.92991">
        <ele>1824.52734375</ele>
      </trkpt>
      <trkpt lat="45.46776" lon="5.92981">
        <ele>1827.4609375</ele>
      </trkpt>
      <trkpt lat="45.46781" lon="5.92977">
        <ele>1828.328125</ele>
      </trkpt>
      <trkpt lat="45.46782" lon="5.92968">
        <ele>1830.765625</ele>
      </trkpt>
      <trkpt lat="45.46785" lon="5.92961">
        <ele>1831.93359375</ele>
      </trkpt>
      <trkpt lat="45.46793" lon="5.92958">
        <ele>1831.5</ele>
      </trkpt>
      <trkpt lat="45.46796" lon="5.92951">
        <ele>1832.57421875</ele>
      </trkpt>
      <trkpt lat="45.46802" lon="5.9294">
        <ele>1834.08984375</ele>
      </trkpt>
      <trkpt lat="45.46807" lon="5.92928">
        <ele>1836.28125</ele>
      </trkpt>
      <trkpt lat="45.46805" lon="5.92923">
        <ele>1837.61328125</ele>
      </trkpt>
      <trkpt lat="45.468" lon="5.92914">
        <ele>1838.66015625</ele>
      </trkpt>
      <trkpt lat="45.46796" lon="5.92909">
        <ele>1838.6015625</ele>
      </trkpt>
      <trkpt lat="45.46795" lon="5.929">
        <ele>1838.22265625</ele>
      </trkpt>
      <trkpt lat="45.46793" lon="5.92886">
        <ele>1838.99609375</ele>
      </trkpt>
      <trkpt lat="45.46788" lon="5.9288">
        <ele>1843.296875</ele>
      </trkpt>
      <trkpt lat="45.46788" lon="5.92866">
        <ele>1844.6171875</ele>
      </trkpt>
      <trkpt lat="45.46786" lon="5.92851">
        <ele>1849.015625</ele>
      </trkpt>
      <trkpt lat="45.46785" lon="5.92839">
        <ele>1851.98046875</ele>
      </trkpt>
      <trkpt lat="45.46781" lon="5.92828">
        <ele>1852.8671875</ele>
      </trkpt>
      <trkpt lat="45.46773" lon="5.92823">
        <ele>1853.30859375</ele>
      </trkpt>
      <trkpt lat="45.46769" lon="5.9281">
        <ele>1854.76171875</ele>
      </trkpt>
      <trkpt lat="45.46768" lon="5.92794">
        <ele>1855.15625</ele>
      </trkpt>
      <trkpt lat="45.46764" lon="5.92781">
        <ele>1855.63671875</ele>
      </trkpt>
      <trkpt lat="45.46757" lon="5.92778">
        <ele>1856.765625</ele>
      </trkpt>
      <trkpt lat="45.46758" lon="5.92767">
        <ele>1857.01171875</ele>
      </trkpt>
      <trkpt lat="45.46759" lon="5.92759">
        <ele>1857.0546875</ele>
      </trkpt>
      <trkpt lat="45.46759" lon="5.92748">
        <ele>1857.44921875</ele>
      </trkpt>
      <trkpt lat="45.46763" lon="5.92744">
        <ele>1856.45703125</ele>
      </trkpt>
      <trkpt lat="45.46761" lon="5.92738">
        <ele>1857.47265625</ele>
      </trkpt>
      <trkpt lat="45.46762" lon="5.92725">
        <ele>1857.44140625</ele>
      </trkpt>
      <trkpt lat="45.46761" lon="5.92717">
        <ele>1858.33203125</ele>
      </trkpt>
      <trkpt lat="45.46762" lon="5.92698">
        <ele>1858.30078125</ele>
      </trkpt>
      <trkpt lat="45.46764" lon="5.92689">
        <ele>1856.98046875</ele>
      </trkpt>
      <trkpt lat="45.46761" lon="5.92683">
        <ele>1859.70703125</ele>
      </trkpt>
      <trkpt lat="45.46763" lon="5.92676">
        <ele>1858.20703125</ele>
      </trkpt>
      <trkpt lat="45.46764" lon="5.92662">
        <ele>1857.62890625</ele>
      </trkpt>
      <trkpt lat="45.46763" lon="5.92648">
        <ele>1859.06640625</ele>
      </trkpt>
      <trkpt lat="45.46762" lon="5.92636">
        <ele>1859.90625</ele>
      </trkpt>
      <trkpt lat="45.46762" lon="5.92624">
        <ele>1857.2734375</ele>
      </trkpt>
      <trkpt lat="45.46762" lon="5.92616">
        <ele>1855.35546875</ele>
      </trkpt>
      <trkpt lat="45.46754" lon="5.92604">
        <ele>1863.5546875</ele>
      </trkpt>
      <trkpt lat="45.46748" lon="5.92591">
        <ele>1871.83203125</ele>
      </trkpt>
      <trkpt lat="45.46744" lon="5.92578">
        <ele>1875.48828125</ele>
      </trkpt>
      <trkpt lat="45.46732" lon="5.92547">
        <ele>1894.07421875</ele>
      </trkpt>
      <trkpt lat="45.46726" lon="5.92529">
        <ele>1896.58984375</ele>
      </trkpt>
      <trkpt lat="45.46724" lon="5.92514">
        <ele>1895.203125</ele>
      </trkpt>
      <trkpt lat="45.46723" lon="5.92501">
        <ele>1893.8359375</ele>
      </trkpt>
      <trkpt lat="45.46727" lon="5.92483">
        <ele>1891.3359375</ele>
      </trkpt>
      <trkpt lat="45.46722" lon="5.92486">
        <ele>1892.17578125</ele>
      </trkpt>
      <trkpt lat="45.46714" lon="5.92489">
        <ele>1893.26171875</ele>
      </trkpt>
      <trkpt lat="45.46706" lon="5.92498">
        <ele>1895.26171875</ele>
      </trkpt>
      <trkpt lat="45.467" lon="5.92499">
        <ele>1895.984375</ele>
      </trkpt>
      <trkpt lat="45.46691" lon="5.92499">
        <ele>1897.01171875</ele>
      </trkpt>
      <trkpt lat="45.46682" lon="5.92503">
        <ele>1898.65234375</ele>
      </trkpt>
      <trkpt lat="45.46668" lon="5.925">
        <ele>1899.55859375</ele>
      </trkpt>
      <trkpt lat="45.46662" lon="5.92501">
        <ele>1900.39453125</ele>
      </trkpt>
      <trkpt lat="45.4666" lon="5.92504">
        <ele>1901.203125</ele>
      </trkpt>
      <trkpt lat="45.46651" lon="5.92509">
        <ele>1902.87109375</ele>
      </trkpt>
      <trkpt lat="45.46639" lon="5.92527">
        <ele>1907.5625</ele>
      </trkpt>
      <trkpt lat="45.4663" lon="5.92538">
        <ele>1907.87109375</ele>
      </trkpt>
      <trkpt lat="45.46624" lon="5.92542">
        <ele>1907.9609375</ele>
      </trkpt>
      <trkpt lat="45.46621" lon="5.92548">
        <ele>1907.5859375</ele>
      </trkpt>
      <trkpt lat="45.46615" lon="5.92556">
        <ele>1907.1640625</ele>
      </trkpt>
      <trkpt lat="45.46607" lon="5.92559">
        <ele>1907.09375</ele>
      </trkpt>
      <trkpt lat="45.466" lon="5.92568">
        <ele>1906.19921875</ele>
      </trkpt>
      <trkpt lat="45.46594" lon="5.92571">
        <ele>1905.86328125</ele>
      </trkpt>
      <trkpt lat="45.46588" lon="5.92574">
        <ele>1905.484375</ele>
      </trkpt>
      <trkpt lat="45.46576" lon="5.92575">
        <ele>1905.47265625</ele>
      </trkpt>
      <trkpt lat="45.46571" lon="5.92575">
        <ele>1905.546875</ele>
      </trkpt>
      <trkpt lat="45.46564" lon="5.92577">
        <ele>1905.2109375</ele>
      </trkpt>
      <trkpt lat="45.46559" lon="5.92579">
        <ele>1904.87890625</ele>
      </trkpt>
      <trkpt lat="45.46542" lon="5.92591">
        <ele>1902.17578125</ele>
      </trkpt>
      <trkpt lat="45.46533" lon="5.92597">
        <ele>1900.734375</ele>
      </trkpt>
      <trkpt lat="45.4652" lon="5.92597">
        <ele>1900.85546875</ele>
      </trkpt>
      <trkpt lat="45.46506" lon="5.92598">
        <ele>1900.59765625</ele>
      </trkpt>
      <trkpt lat="45.46498" lon="5.92597">
        <ele>1900.6171875</ele>
      </trkpt>
      <trkpt lat="45.46491" lon="5.92592">
        <ele>1901.69921875</ele>
      </trkpt>
      <trkpt lat="45.46486" lon="5.92593">
        <ele>1901.1796875</ele>
      </trkpt>
      <trkpt lat="45.46484" lon="5.92598">
        <ele>1899.7890625</ele>
      </trkpt>
      <trkpt lat="45.46473" lon="5.92595">
        <ele>1900.05859375</ele>
      </trkpt>
      <trkpt lat="45.4646" lon="5.92594">
        <ele>1899.921875</ele>
      </trkpt>
      <trkpt lat="45.46456" lon="5.92591">
        <ele>1900.75390625</ele>
      </trkpt>
      <trkpt lat="45.46452" lon="5.92593">
        <ele>1899.890625</ele>
      </trkpt>
      <trkpt lat="45.46447" lon="5.92597">
        <ele>1898.36328125</ele>
      </trkpt>
      <trkpt lat="45.46433" lon="5.92593">
        <ele>1897.49609375</ele>
      </trkpt>
      <trkpt lat="45.46417" lon="5.9259">
        <ele>1896.2265625</ele>
      </trkpt>
      <trkpt lat="45.46404" lon="5.92587">
        <ele>1895.26953125</ele>
      </trkpt>
      <trkpt lat="45.46399" lon="5.92583">
        <ele>1895.3359375</ele>
      </trkpt>
      <trkpt lat="45.46394" lon="5.9258">
        <ele>1894.37890625</ele>
      </trkpt>
      <trkpt lat="45.46389" lon="5.92576">
        <ele>1893.53515625</ele>
      </trkpt>
      <trkpt lat="45.46381" lon="5.92573">
        <ele>1892</ele>
      </trkpt>
      <trkpt lat="45.46373" lon="5.92571">
        <ele>1890.72265625</ele>
      </trkpt>
      <trkpt lat="45.4637" lon="5.92568">
        <ele>1890.2734375</ele>
      </trkpt>
      <trkpt lat="45.46355" lon="5.92547">
        <ele>1889.04296875</ele>
      </trkpt>
      <trkpt lat="45.46342" lon="5.92534">
        <ele>1888.53125</ele>
      </trkpt>
      <trkpt lat="45.46336" lon="5.92524">
        <ele>1888.4921875</ele>
      </trkpt>
      <trkpt lat="45.46331" lon="5.92521">
        <ele>1888.15625</ele>
      </trkpt>
      <trkpt lat="45.4632" lon="5.92518">
        <ele>1887.36328125</ele>
      </trkpt>
      <trkpt lat="45.46315" lon="5.92516">
        <ele>1887.16015625</ele>
      </trkpt>
      <trkpt lat="45.46312" lon="5.92513">
        <ele>1887.109375</ele>
      </trkpt>
      <trkpt lat="45.46296" lon="5.92507">
        <ele>1886.66015625</ele>
      </trkpt>
      <trkpt lat="45.46281" lon="5.925">
        <ele>1886.64453125</ele>
      </trkpt>
      <trkpt lat="45.46242" lon="5.92483">
        <ele>1885.12890625</ele>
      </trkpt>
      <trkpt lat="45.46221" lon="5.92479">
        <ele>1885.01171875</ele>
      </trkpt>
      <trkpt lat="45.46205" lon="5.92477">
        <ele>1886.1484375</ele>
      </trkpt>
      <trkpt lat="45.46198" lon="5.92476">
        <ele>1886.7109375</ele>
      </trkpt>
      <trkpt lat="45.46189" lon="5.92472">
        <ele>1887.96875</ele>
      </trkpt>
      <trkpt lat="45.4617" lon="5.92472">
        <ele>1888.79296875</ele>
      </trkpt>
      <trkpt lat="45.46158" lon="5.92469">
        <ele>1888.15625</ele>
      </trkpt>
      <trkpt lat="45.46146" lon="5.92466">
        <ele>1887.50390625</ele>
      </trkpt>
      <trkpt lat="45.46122" lon="5.92456">
        <ele>1885.9296875</ele>
      </trkpt>
      <trkpt lat="45.46119" lon="5.92456">
        <ele>1885.70703125</ele>
      </trkpt>
      <trkpt lat="45.46108" lon="5.92454">
        <ele>1885.796875</ele>
      </trkpt>
      <trkpt lat="45.461" lon="5.92448">
        <ele>1885.8671875</ele>
      </trkpt>
      <trkpt lat="45.46093" lon="5.92445">
        <ele>1885.96484375</ele>
      </trkpt>
      <trkpt lat="45.46089" lon="5.92443">
        <ele>1886.04296875</ele>
      </trkpt>
      <trkpt lat="45.46086" lon="5.92443">
        <ele>1886.10546875</ele>
      </trkpt>
      <trkpt lat="45.46081" lon="5.92439">
        <ele>1886.21484375</ele>
      </trkpt>
      <trkpt lat="45.46063" lon="5.92438">
        <ele>1886.5859375</ele>
      </trkpt>
      <trkpt lat="45.46058" lon="5.92435">
        <ele>1885.89453125</ele>
      </trkpt>
      <trkpt lat="45.46055" lon="5.92436">
        <ele>1885.4453125</ele>
      </trkpt>
      <trkpt lat="45.46046" lon="5.92436">
        <ele>1884.265625</ele>
      </trkpt>
      <trkpt lat="45.46037" lon="5.92438">
        <ele>1883.171875</ele>
      </trkpt>
      <trkpt lat="45.46031" lon="5.92439">
        <ele>1882.37890625</ele>
      </trkpt>
      <trkpt lat="45.46018" lon="5.92446">
        <ele>1881.33984375</ele>
      </trkpt>
      <trkpt lat="45.46008" lon="5.92456">
        <ele>1881.28125</ele>
      </trkpt>
      <trkpt lat="45.46003" lon="5.9246">
        <ele>1881.19921875</ele>
      </trkpt>
      <trkpt lat="45.46" lon="5.92463">
        <ele>1881.16796875</ele>
      </trkpt>
      <trkpt lat="45.45993" lon="5.92468">
        <ele>1880.80859375</ele>
      </trkpt>
      <trkpt lat="45.45981" lon="5.92469">
        <ele>1879.359375</ele>
      </trkpt>
      <trkpt lat="45.45954" lon="5.92473">
        <ele>1875.9375</ele>
      </trkpt>
      <trkpt lat="45.45951" lon="5.92467">
        <ele>1875.44140625</ele>
      </trkpt>
      <trkpt lat="45.45932" lon="5.92459">
        <ele>1870.765625</ele>
      </trkpt>
      <trkpt lat="45.45927" lon="5.92458">
        <ele>1869.5</ele>
      </trkpt>
      <trkpt lat="45.45925" lon="5.92452">
        <ele>1869.8203125</ele>
      </trkpt>
      <trkpt lat="45.45922" lon="5.92445">
        <ele>1870.06640625</ele>
      </trkpt>
      <trkpt lat="45.45916" lon="5.92444">
        <ele>1869.22265625</ele>
      </trkpt>
      <trkpt lat="45.45912" lon="5.9244">
        <ele>1869.265625</ele>
      </trkpt>
      <trkpt lat="45.45909" lon="5.92438">
        <ele>1869.1875</ele>
      </trkpt>
      <trkpt lat="45.45897" lon="5.92433">
        <ele>1868.5078125</ele>
      </trkpt>
      <trkpt lat="45.4589" lon="5.92429">
        <ele>1867.23046875</ele>
      </trkpt>
      <trkpt lat="45.45882" lon="5.92427">
        <ele>1864.66015625</ele>
      </trkpt>
      <trkpt lat="45.45863" lon="5.92421">
        <ele>1859.859375</ele>
      </trkpt>
      <trkpt lat="45.45834" lon="5.92399">
        <ele>1856.16015625</ele>
      </trkpt>
      <trkpt lat="45.45827" lon="5.92394">
        <ele>1856.3359375</ele>
      </trkpt>
      <trkpt lat="45.45822" lon="5.92387">
        <ele>1857.37890625</ele>
      </trkpt>
      <trkpt lat="45.45813" lon="5.92376">
        <ele>1860.34375</ele>
      </trkpt>
      <trkpt lat="45.4581" lon="5.92371">
        <ele>1861.671875</ele>
      </trkpt>
      <trkpt lat="45.45804" lon="5.92362">
        <ele>1865.20703125</ele>
      </trkpt>
      <trkpt lat="45.45794" lon="5.92359">
        <ele>1865.1015625</ele>
      </trkpt>
      <trkpt lat="45.45762" lon="5.92356">
        <ele>1862.6171875</ele>
      </trkpt>
      <trkpt lat="45.45758" lon="5.92355">
        <ele>1862.4296875</ele>
      </trkpt>
      <trkpt lat="45.45754" lon="5.92353">
        <ele>1862.33203125</ele>
      </trkpt>
      <trkpt lat="45.45749" lon="5.92352">
        <ele>1862.0234375</ele>
      </trkpt>
      <trkpt lat="45.45745" lon="5.9235">
        <ele>1862.0625</ele>
      </trkpt>
      <trkpt lat="45.45741" lon="5.92353">
        <ele>1861.12890625</ele>
      </trkpt>
      <trkpt lat="45.45739" lon="5.92356">
        <ele>1860.2265625</ele>
      </trkpt>
      <trkpt lat="45.45726" lon="5.92353">
        <ele>1859.859375</ele>
      </trkpt>
      <trkpt lat="45.45718" lon="5.92357">
        <ele>1858.1875</ele>
      </trkpt>
      <trkpt lat="45.45708" lon="5.92359">
        <ele>1856.9375</ele>
      </trkpt>
      <trkpt lat="45.45689" lon="5.92376">
        <ele>1848.73046875</ele>
      </trkpt>
      <trkpt lat="45.45686" lon="5.92378">
        <ele>1847.5859375</ele>
      </trkpt>
      <trkpt lat="45.45679" lon="5.92379">
        <ele>1846.7265625</ele>
      </trkpt>
      <trkpt lat="45.45664" lon="5.92386">
        <ele>1841.546875</ele>
      </trkpt>
      <trkpt lat="45.45651" lon="5.92387">
        <ele>1839.1015625</ele>
      </trkpt>
      <trkpt lat="45.45647" lon="5.92385">
        <ele>1839.3046875</ele>
      </trkpt>
      <trkpt lat="45.45642" lon="5.92386">
        <ele>1838.03515625</ele>
      </trkpt>
      <trkpt lat="45.45637" lon="5.92386">
        <ele>1837.3671875</ele>
      </trkpt>
      <trkpt lat="45.45627" lon="5.92379">
        <ele>1838.5859375</ele>
      </trkpt>
      <trkpt lat="45.45621" lon="5.92374">
        <ele>1839.34375</ele>
      </trkpt>
      <trkpt lat="45.45616" lon="5.92372">
        <ele>1839.07421875</ele>
      </trkpt>
      <trkpt lat="45.45605" lon="5.92373">
        <ele>1836.328125</ele>
      </trkpt>
      <trkpt lat="45.45602" lon="5.92376">
        <ele>1834.86328125</ele>
      </trkpt>
      <trkpt lat="45.45596" lon="5.92376">
        <ele>1833.70703125</ele>
      </trkpt>
      <trkpt lat="45.45593" lon="5.92375">
        <ele>1833.19921875</ele>
      </trkpt>
      <trkpt lat="45.45583" lon="5.92377">
        <ele>1830.34375</ele>
      </trkpt>
      <trkpt lat="45.45577" lon="5.92376">
        <ele>1829.5390625</ele>
      </trkpt>
      <trkpt lat="45.45572" lon="5.92373">
        <ele>1829.0625</ele>
      </trkpt>
      <trkpt lat="45.45563" lon="5.92365">
        <ele>1829.828125</ele>
      </trkpt>
      <trkpt lat="45.45552" lon="5.92356">
        <ele>1830.0703125</ele>
      </trkpt>
      <trkpt lat="45.45535" lon="5.92349">
        <ele>1828.6640625</ele>
      </trkpt>
      <trkpt lat="45.4553" lon="5.92345">
        <ele>1828.46875</ele>
      </trkpt>
      <trkpt lat="45.45524" lon="5.92337">
        <ele>1829.50390625</ele>
      </trkpt>
      <trkpt lat="45.45519" lon="5.92334">
        <ele>1829.54296875</ele>
      </trkpt>
      <trkpt lat="45.45509" lon="5.92328">
        <ele>1828.96484375</ele>
      </trkpt>
      <trkpt lat="45.45502" lon="5.9232">
        <ele>1831.03515625</ele>
      </trkpt>
      <trkpt lat="45.45484" lon="5.92305">
        <ele>1834.8984375</ele>
      </trkpt>
      <trkpt lat="45.45481" lon="5.923">
        <ele>1836.19140625</ele>
      </trkpt>
      <trkpt lat="45.45474" lon="5.92298">
        <ele>1836.76953125</ele>
      </trkpt>
      <trkpt lat="45.45473" lon="5.92292">
        <ele>1838.796875</ele>
      </trkpt>
      <trkpt lat="45.45475" lon="5.92286">
        <ele>1840.52734375</ele>
      </trkpt>
      <trkpt lat="45.45473" lon="5.92266">
        <ele>1846.97265625</ele>
      </trkpt>
      <trkpt lat="45.4547" lon="5.92259">
        <ele>1849.3515625</ele>
      </trkpt>
      <trkpt lat="45.45465" lon="5.92255">
        <ele>1850.3671875</ele>
      </trkpt>
      <trkpt lat="45.45449" lon="5.92263">
        <ele>1848.0546875</ele>
      </trkpt>
      <trkpt lat="45.45443" lon="5.92262">
        <ele>1848.6796875</ele>
      </trkpt>
      <trkpt lat="45.4544" lon="5.92261">
        <ele>1849.16015625</ele>
      </trkpt>
      <trkpt lat="45.45438" lon="5.92253">
        <ele>1851.61328125</ele>
      </trkpt>
      <trkpt lat="45.45425" lon="5.92242">
        <ele>1852.3046875</ele>
      </trkpt>
      <trkpt lat="45.45421" lon="5.9224">
        <ele>1852.265625</ele>
      </trkpt>
      <trkpt lat="45.45408" lon="5.92247">
        <ele>1853.30859375</ele>
      </trkpt>
      <trkpt lat="45.45403" lon="5.9225">
        <ele>1853.75390625</ele>
      </trkpt>
      <trkpt lat="45.45398" lon="5.92245">
        <ele>1853.46484375</ele>
      </trkpt>
      <trkpt lat="45.45395" lon="5.92241">
        <ele>1853.5078125</ele>
      </trkpt>
      <trkpt lat="45.45387" lon="5.92232">
        <ele>1853.5859375</ele>
      </trkpt>
      <trkpt lat="45.45384" lon="5.92229">
        <ele>1853.69921875</ele>
      </trkpt>
      <trkpt lat="45.45379" lon="5.92227">
        <ele>1854.28125</ele>
      </trkpt>
      <trkpt lat="45.45375" lon="5.92227">
        <ele>1854.6875</ele>
      </trkpt>
      <trkpt lat="45.45372" lon="5.92229">
        <ele>1855.1875</ele>
      </trkpt>
      <trkpt lat="45.45367" lon="5.92229">
        <ele>1855.86328125</ele>
      </trkpt>
      <trkpt lat="45.45356" lon="5.92226">
        <ele>1857.0234375</ele>
      </trkpt>
      <trkpt lat="45.45348" lon="5.92224">
        <ele>1857.9140625</ele>
      </trkpt>
      <trkpt lat="45.4534" lon="5.92222">
        <ele>1858.69921875</ele>
      </trkpt>
      <trkpt lat="45.45337" lon="5.9222">
        <ele>1859.015625</ele>
      </trkpt>
      <trkpt lat="45.45334" lon="5.92218">
        <ele>1859.3828125</ele>
      </trkpt>
      <trkpt lat="45.45331" lon="5.92215">
        <ele>1859.5703125</ele>
      </trkpt>
      <trkpt lat="45.45326" lon="5.92207">
        <ele>1860.28515625</ele>
      </trkpt>
      <trkpt lat="45.45312" lon="5.92195">
        <ele>1863.42578125</ele>
      </trkpt>
      <trkpt lat="45.45306" lon="5.92192">
        <ele>1864.0078125</ele>
      </trkpt>
      <trkpt lat="45.453" lon="5.92189">
        <ele>1864.1796875</ele>
      </trkpt>
      <trkpt lat="45.45295" lon="5.92185">
        <ele>1864.046875</ele>
      </trkpt>
      <trkpt lat="45.45292" lon="5.9218">
        <ele>1863.41015625</ele>
      </trkpt>
      <trkpt lat="45.4529" lon="5.92174">
        <ele>1861.7734375</ele>
      </trkpt>
      <trkpt lat="45.45272" lon="5.92167">
        <ele>1865.77734375</ele>
      </trkpt>
      <trkpt lat="45.45266" lon="5.92165">
        <ele>1867.73828125</ele>
      </trkpt>
      <trkpt lat="45.45261" lon="5.92161">
        <ele>1869.0703125</ele>
      </trkpt>
      <trkpt lat="45.45259" lon="5.92157">
        <ele>1869.265625</ele>
      </trkpt>
      <trkpt lat="45.45254" lon="5.92153">
        <ele>1870.7421875</ele>
      </trkpt>
      <trkpt lat="45.45251" lon="5.92153">
        <ele>1872.2421875</ele>
      </trkpt>
      <trkpt lat="45.45246" lon="5.9215">
        <ele>1874.48828125</ele>
      </trkpt>
      <trkpt lat="45.45236" lon="5.92141">
        <ele>1879.02734375</ele>
      </trkpt>
      <trkpt lat="45.45233" lon="5.92135">
        <ele>1879.0390625</ele>
      </trkpt>
      <trkpt lat="45.45226" lon="5.92118">
        <ele>1873.56640625</ele>
      </trkpt>
      <trkpt lat="45.45225" lon="5.92113">
        <ele>1871.4375</ele>
      </trkpt>
      <trkpt lat="45.45224" lon="5.92106">
        <ele>1868.8515625</ele>
      </trkpt>
      <trkpt lat="45.45224" lon="5.92101">
        <ele>1866.54296875</ele>
      </trkpt>
      <trkpt lat="45.45222" lon="5.92097">
        <ele>1865.07421875</ele>
      </trkpt>
      <trkpt lat="45.45209" lon="5.92069">
        <ele>1855.12109375</ele>
      </trkpt>
      <trkpt lat="45.45206" lon="5.92056">
        <ele>1849.7734375</ele>
      </trkpt>
      <trkpt lat="45.45204" lon="5.92049">
        <ele>1847.11328125</ele>
      </trkpt>
      <trkpt lat="45.452" lon="5.92048">
        <ele>1847.1484375</ele>
      </trkpt>
      <trkpt lat="45.45196" lon="5.92052">
        <ele>1849.05859375</ele>
      </trkpt>
      <trkpt lat="45.4519" lon="5.92057">
        <ele>1852.45703125</ele>
      </trkpt>
      <trkpt lat="45.45184" lon="5.92059">
        <ele>1854.23828125</ele>
      </trkpt>
      <trkpt lat="45.45182" lon="5.92062">
        <ele>1856.125</ele>
      </trkpt>
      <trkpt lat="45.45179" lon="5.92067">
        <ele>1858.73046875</ele>
      </trkpt>
      <trkpt lat="45.45168" lon="5.92073">
        <ele>1863.19140625</ele>
      </trkpt>
      <trkpt lat="45.45163" lon="5.92073">
        <ele>1863.67578125</ele>
      </trkpt>
      <trkpt lat="45.4516" lon="5.92074">
        <ele>1864.5078125</ele>
      </trkpt>
      <trkpt lat="45.45161" lon="5.9207">
        <ele>1862.24609375</ele>
      </trkpt>
      <trkpt lat="45.45162" lon="5.92067">
        <ele>1860.52734375</ele>
      </trkpt>
      <trkpt lat="45.45157" lon="5.92064">
        <ele>1859.92578125</ele>
      </trkpt>
      <trkpt lat="45.4515" lon="5.92063">
        <ele>1859.96484375</ele>
      </trkpt>
      <trkpt lat="45.45147" lon="5.92062">
        <ele>1859.71484375</ele>
      </trkpt>
      <trkpt lat="45.45152" lon="5.92054">
        <ele>1854.90234375</ele>
      </trkpt>
      <trkpt lat="45.45145" lon="5.92046">
        <ele>1851.79296875</ele>
      </trkpt>
      <trkpt lat="45.45142" lon="5.92046">
        <ele>1852.08203125</ele>
      </trkpt>
      <trkpt lat="45.45138" lon="5.92043">
        <ele>1850.75</ele>
      </trkpt>
      <trkpt lat="45.45128" lon="5.92033">
        <ele>1846.84375</ele>
      </trkpt>
      <trkpt lat="45.45127" lon="5.92029">
        <ele>1844.77734375</ele>
      </trkpt>
      <trkpt lat="45.45121" lon="5.92027">
        <ele>1844.19921875</ele>
      </trkpt>
      <trkpt lat="45.45119" lon="5.92024">
        <ele>1843.0625</ele>
      </trkpt>
      <trkpt lat="45.45115" lon="5.92019">
        <ele>1843.24609375</ele>
      </trkpt>
      <trkpt lat="45.45115" lon="5.92015">
        <ele>1841.171875</ele>
      </trkpt>
      <trkpt lat="45.45115" lon="5.9201">
        <ele>1838.578125</ele>
      </trkpt>
      <trkpt lat="45.45113" lon="5.92003">
        <ele>1836.625</ele>
      </trkpt>
      <trkpt lat="45.45112" lon="5.91998">
        <ele>1834.62109375</ele>
      </trkpt>
      <trkpt lat="45.45108" lon="5.91992">
        <ele>1833.796875</ele>
      </trkpt>
      <trkpt lat="45.45106" lon="5.91988">
        <ele>1832.91796875</ele>
      </trkpt>
      <trkpt lat="45.45107" lon="5.91984">
        <ele>1830.27734375</ele>
      </trkpt>
      <trkpt lat="45.45112" lon="5.91986">
        <ele>1828.9453125</ele>
      </trkpt>
      <trkpt lat="45.45114" lon="5.91989">
        <ele>1829.31640625</ele>
      </trkpt>
      <trkpt lat="45.45114" lon="5.91985">
        <ele>1827.24609375</ele>
      </trkpt>
      <trkpt lat="45.45114" lon="5.91981">
        <ele>1825.17578125</ele>
      </trkpt>
      <trkpt lat="45.45117" lon="5.91983">
        <ele>1824.4375</ele>
      </trkpt>
      <trkpt lat="45.45121" lon="5.91982">
        <ele>1822.16796875</ele>
      </trkpt>
      <trkpt lat="45.45121" lon="5.91977">
        <ele>1820.0703125</ele>
      </trkpt>
      <trkpt lat="45.45119" lon="5.91971">
        <ele>1817.71875</ele>
      </trkpt>
      <trkpt lat="45.45116" lon="5.9197">
        <ele>1819.125</ele>
      </trkpt>
      <trkpt lat="45.45115" lon="5.91966">
        <ele>1818.16015625</ele>
      </trkpt>
      <trkpt lat="45.45117" lon="5.91964">
        <ele>1816.1953125</ele>
      </trkpt>
      <trkpt lat="45.45122" lon="5.91964">
        <ele>1814.16015625</ele>
      </trkpt>
      <trkpt lat="45.45124" lon="5.91959">
        <ele>1812.109375</ele>
      </trkpt>
      <trkpt lat="45.45128" lon="5.9196">
        <ele>1811.81640625</ele>
      </trkpt>
      <trkpt lat="45.45131" lon="5.91958">
        <ele>1810.27734375</ele>
      </trkpt>
      <trkpt lat="45.45132" lon="5.91955">
        <ele>1808.76171875</ele>
      </trkpt>
      <trkpt lat="45.45135" lon="5.91958">
        <ele>1809.32421875</ele>
      </trkpt>
      <trkpt lat="45.45137" lon="5.91959">
        <ele>1809.2890625</ele>
      </trkpt>
      <trkpt lat="45.45138" lon="5.91955">
        <ele>1807.26953125</ele>
      </trkpt>
      <trkpt lat="45.45138" lon="5.91943">
        <ele>1802.37109375</ele>
      </trkpt>
      <trkpt lat="45.45138" lon="5.91939">
        <ele>1800.58984375</ele>
      </trkpt>
      <trkpt lat="45.45137" lon="5.91933">
        <ele>1798.6796875</ele>
      </trkpt>
      <trkpt lat="45.45135" lon="5.9193">
        <ele>1798.0078125</ele>
      </trkpt>
      <trkpt lat="45.45133" lon="5.91927">
        <ele>1797.375</ele>
      </trkpt>
      <trkpt lat="45.45133" lon="5.91923">
        <ele>1795.66015625</ele>
      </trkpt>
      <trkpt lat="45.45134" lon="5.9192">
        <ele>1794.015625</ele>
      </trkpt>
      <trkpt lat="45.45133" lon="5.91916">
        <ele>1792.97265625</ele>
      </trkpt>
      <trkpt lat="45.4513" lon="5.91914">
        <ele>1792.94921875</ele>
      </trkpt>
      <trkpt lat="45.45131" lon="5.9191">
        <ele>1790.27734375</ele>
      </trkpt>
      <trkpt lat="45.4513" lon="5.91906">
        <ele>1788.40625</ele>
      </trkpt>
      <trkpt lat="45.45129" lon="5.91901">
        <ele>1786.57421875</ele>
      </trkpt>
      <trkpt lat="45.45132" lon="5.91902">
        <ele>1785.8359375</ele>
      </trkpt>
      <trkpt lat="45.45135" lon="5.91905">
        <ele>1785.71875</ele>
      </trkpt>
      <trkpt lat="45.45139" lon="5.91903">
        <ele>1783.41015625</ele>
      </trkpt>
      <trkpt lat="45.45142" lon="5.91899">
        <ele>1780.06640625</ele>
      </trkpt>
      <trkpt lat="45.45139" lon="5.91894">
        <ele>1777.90625</ele>
      </trkpt>
      <trkpt lat="45.45137" lon="5.9189">
        <ele>1776.4453125</ele>
      </trkpt>
      <trkpt lat="45.45137" lon="5.91885">
        <ele>1774.03515625</ele>
      </trkpt>
      <trkpt lat="45.45137" lon="5.91877">
        <ele>1769.22265625</ele>
      </trkpt>
      <trkpt lat="45.45133" lon="5.91872">
        <ele>1769.09375</ele>
      </trkpt>
      <trkpt lat="45.4513" lon="5.91872">
        <ele>1770.8046875</ele>
      </trkpt>
      <trkpt lat="45.45127" lon="5.9187">
        <ele>1771.40625</ele>
      </trkpt>
      <trkpt lat="45.45122" lon="5.91867">
        <ele>1772.125</ele>
      </trkpt>
      <trkpt lat="45.4512" lon="5.91864">
        <ele>1771.73828125</ele>
      </trkpt>
      <trkpt lat="45.45116" lon="5.91861">
        <ele>1772.6640625</ele>
      </trkpt>
      <trkpt lat="45.4511" lon="5.91855">
        <ele>1772.1484375</ele>
      </trkpt>
      <trkpt lat="45.45106" lon="5.91852">
        <ele>1772.6640625</ele>
      </trkpt>
      <trkpt lat="45.45103" lon="5.91852">
        <ele>1774.8984375</ele>
      </trkpt>
      <trkpt lat="45.45099" lon="5.91849">
        <ele>1775.5234375</ele>
      </trkpt>
      <trkpt lat="45.45095" lon="5.91846">
        <ele>1775.46875</ele>
      </trkpt>
      <trkpt lat="45.45091" lon="5.91841">
        <ele>1775.484375</ele>
      </trkpt>
      <trkpt lat="45.45087" lon="5.91838">
        <ele>1776.35546875</ele>
      </trkpt>
      <trkpt lat="45.45084" lon="5.91837">
        <ele>1777.984375</ele>
      </trkpt>
      <trkpt lat="45.45077" lon="5.91838">
        <ele>1783.45703125</ele>
      </trkpt>
      <trkpt lat="45.45074" lon="5.91837">
        <ele>1785.11328125</ele>
      </trkpt>
      <trkpt lat="45.45071" lon="5.91834">
        <ele>1785.3984375</ele>
      </trkpt>
      <trkpt lat="45.45065" lon="5.9183">
        <ele>1787.37109375</ele>
      </trkpt>
      <trkpt lat="45.45062" lon="5.91828">
        <ele>1787.79296875</ele>
      </trkpt>
      <trkpt lat="45.45057" lon="5.91828">
        <ele>1789.95703125</ele>
      </trkpt>
      <trkpt lat="45.45054" lon="5.91828">
        <ele>1791.25390625</ele>
      </trkpt>
      <trkpt lat="45.4505" lon="5.91828">
        <ele>1792.5546875</ele>
      </trkpt>
      <trkpt lat="45.45047" lon="5.91827">
        <ele>1793.140625</ele>
      </trkpt>
      <trkpt lat="45.4504" lon="5.91819">
        <ele>1790.3359375</ele>
      </trkpt>
      <trkpt lat="45.45036" lon="5.91817">
        <ele>1790.109375</ele>
      </trkpt>
      <trkpt lat="45.45031" lon="5.91813">
        <ele>1789.9140625</ele>
      </trkpt>
      <trkpt lat="45.45025" lon="5.91807">
        <ele>1787.76953125</ele>
      </trkpt>
      <trkpt lat="45.4502" lon="5.918">
        <ele>1781.4765625</ele>
      </trkpt>
      <trkpt lat="45.45018" lon="5.91795">
        <ele>1775.2421875</ele>
      </trkpt>
      <trkpt lat="45.45016" lon="5.91784">
        <ele>1761.91796875</ele>
      </trkpt>
      <trkpt lat="45.45018" lon="5.91793">
        <ele>1772.45703125</ele>
      </trkpt>
      <trkpt lat="45.45019" lon="5.91797">
        <ele>1777.67578125</ele>
      </trkpt>
      <trkpt lat="45.45025" lon="5.91807">
        <ele>1787.76953125</ele>
      </trkpt>
      <trkpt lat="45.45031" lon="5.91813">
        <ele>1789.9140625</ele>
      </trkpt>
      <trkpt lat="45.45034" lon="5.91815">
        <ele>1790.1875</ele>
      </trkpt>
      <trkpt lat="45.4504" lon="5.91819">
        <ele>1790.3359375</ele>
      </trkpt>
      <trkpt lat="45.45045" lon="5.91825">
        <ele>1792.5703125</ele>
      </trkpt>
      <trkpt lat="45.4505" lon="5.91828">
        <ele>1792.5546875</ele>
      </trkpt>
      <trkpt lat="45.45054" lon="5.91828">
        <ele>1791.25390625</ele>
      </trkpt>
      <trkpt lat="45.45057" lon="5.91828">
        <ele>1789.95703125</ele>
      </trkpt>
      <trkpt lat="45.4506" lon="5.91827">
        <ele>1787.97265625</ele>
      </trkpt>
      <trkpt lat="45.45065" lon="5.9183">
        <ele>1787.37109375</ele>
      </trkpt>
      <trkpt lat="45.45071" lon="5.91834">
        <ele>1785.3984375</ele>
      </trkpt>
      <trkpt lat="45.45074" lon="5.91837">
        <ele>1785.11328125</ele>
      </trkpt>
      <trkpt lat="45.45077" lon="5.91838">
        <ele>1783.45703125</ele>
      </trkpt>
      <trkpt lat="45.45084" lon="5.91837">
        <ele>1777.984375</ele>
      </trkpt>
      <trkpt lat="45.45087" lon="5.91838">
        <ele>1776.35546875</ele>
      </trkpt>
      <trkpt lat="45.45091" lon="5.91841">
        <ele>1775.484375</ele>
      </trkpt>
      <trkpt lat="45.45095" lon="5.91846">
        <ele>1775.46875</ele>
      </trkpt>
      <trkpt lat="45.45099" lon="5.91849">
        <ele>1775.5234375</ele>
      </trkpt>
      <trkpt lat="45.45103" lon="5.91852">
        <ele>1774.8984375</ele>
      </trkpt>
      <trkpt lat="45.45106" lon="5.91852">
        <ele>1772.6640625</ele>
      </trkpt>
      <trkpt lat="45.4511" lon="5.91855">
        <ele>1772.1484375</ele>
      </trkpt>
      <trkpt lat="45.45116" lon="5.91861">
        <ele>1772.6640625</ele>
      </trkpt>
      <trkpt lat="45.4511" lon="5.91855">
        <ele>1772.1484375</ele>
      </trkpt>
      <trkpt lat="45.45106" lon="5.91852">
        <ele>1772.6640625</ele>
      </trkpt>
      <trkpt lat="45.45103" lon="5.91852">
        <ele>1774.8984375</ele>
      </trkpt>
      <trkpt lat="45.45099" lon="5.91849">
        <ele>1775.5234375</ele>
      </trkpt>
      <trkpt lat="45.45095" lon="5.91846">
        <ele>1775.46875</ele>
      </trkpt>
      <trkpt lat="45.45091" lon="5.91841">
        <ele>1775.484375</ele>
      </trkpt>
      <trkpt lat="45.45087" lon="5.91838">
        <ele>1776.35546875</ele>
      </trkpt>
      <trkpt lat="45.45084" lon="5.91837">
        <ele>1777.984375</ele>
      </trkpt>
      <trkpt lat="45.45077" lon="5.91838">
        <ele>1783.45703125</ele>
      </trkpt>
      <trkpt lat="45.45074" lon="5.91837">
        <ele>1785.11328125</ele>
      </trkpt>
      <trkpt lat="45.45071" lon="5.91834">
        <ele>1785.3984375</ele>
      </trkpt>
      <trkpt lat="45.45065" lon="5.9183">
        <ele>1787.37109375</ele>
      </trkpt>
      <trkpt lat="45.45062" lon="5.91828">
        <ele>1787.79296875</ele>
      </trkpt>
      <trkpt lat="45.45057" lon="5.91828">
        <ele>1789.95703125</ele>
      </trkpt>
      <trkpt lat="45.45054" lon="5.91828">
        <ele>1791.25390625</ele>
      </trkpt>
      <trkpt lat="45.4505" lon="5.91828">
        <ele>1792.5546875</ele>
      </trkpt>
      <trkpt lat="45.45047" lon="5.91827">
        <ele>1793.140625</ele>
      </trkpt>
      <trkpt lat="45.4504" lon="5.91819">
        <ele>1790.3359375</ele>
      </trkpt>
      <trkpt lat="45.45036" lon="5.91817">
        <ele>1790.109375</ele>
      </trkpt>
      <trkpt lat="45.45031" lon="5.91813">
        <ele>1789.9140625</ele>
      </trkpt>
      <trkpt lat="45.45025" lon="5.91807">
        <ele>1787.76953125</ele>
      </trkpt>
      <trkpt lat="45.4502" lon="5.918">
        <ele>1781.4765625</ele>
      </trkpt>
      <trkpt lat="45.45018" lon="5.91795">
        <ele>1775.2421875</ele>
      </trkpt>
      <trkpt lat="45.45016" lon="5.91784">
        <ele>1761.91796875</ele>
      </trkpt>
      <trkpt lat="45.45007" lon="5.91773">
        <ele>1747.94140625</ele>
      </trkpt>
      <trkpt lat="45.44998" lon="5.91765">
        <ele>1734.984375</ele>
      </trkpt>
      <trkpt lat="45.4499" lon="5.91765">
        <ele>1732.6640625</ele>
      </trkpt>
      <trkpt lat="45.44986" lon="5.91767">
        <ele>1733.9453125</ele>
      </trkpt>
      <trkpt lat="45.44982" lon="5.91771">
        <ele>1737.69140625</ele>
      </trkpt>
      <trkpt lat="45.4498" lon="5.91783">
        <ele>1750.91015625</ele>
      </trkpt>
      <trkpt lat="45.44976" lon="5.9179">
        <ele>1757.11328125</ele>
      </trkpt>
      <trkpt lat="45.44973" lon="5.91793">
        <ele>1759.40625</ele>
      </trkpt>
      <trkpt lat="45.4497" lon="5.91796">
        <ele>1761.5859375</ele>
      </trkpt>
      <trkpt lat="45.44967" lon="5.91792">
        <ele>1755.28515625</ele>
      </trkpt>
      <trkpt lat="45.4497" lon="5.91771">
        <ele>1733.64453125</ele>
      </trkpt>
      <trkpt lat="45.44975" lon="5.9176">
        <ele>1721.79296875</ele>
      </trkpt>
      <trkpt lat="45.44984" lon="5.91736">
        <ele>1701.6875</ele>
      </trkpt>
      <trkpt lat="45.44987" lon="5.91735">
        <ele>1701.51953125</ele>
      </trkpt>
      <trkpt lat="45.44992" lon="5.91738">
        <ele>1705.265625</ele>
      </trkpt>
      <trkpt lat="45.44999" lon="5.91737">
        <ele>1705.796875</ele>
      </trkpt>
      <trkpt lat="45.45003" lon="5.91734">
        <ele>1704.08203125</ele>
      </trkpt>
      <trkpt lat="45.45007" lon="5.91732">
        <ele>1703.21875</ele>
      </trkpt>
      <trkpt lat="45.44999" lon="5.91726">
        <ele>1697.04296875</ele>
      </trkpt>
      <trkpt lat="45.44997" lon="5.91722">
        <ele>1693.1171875</ele>
      </trkpt>
      <trkpt lat="45.44994" lon="5.91719">
        <ele>1689.87890625</ele>
      </trkpt>
      <trkpt lat="45.44988" lon="5.91717">
        <ele>1687.12109375</ele>
      </trkpt>
      <trkpt lat="45.44976" lon="5.91708">
        <ele>1678.12109375</ele>
      </trkpt>
      <trkpt lat="45.4497" lon="5.91701">
        <ele>1671.125</ele>
      </trkpt>
      <trkpt lat="45.44968" lon="5.91694">
        <ele>1665.9453125</ele>
      </trkpt>
      <trkpt lat="45.44966" lon="5.91687">
        <ele>1661.44921875</ele>
      </trkpt>
      <trkpt lat="45.44967" lon="5.91679">
        <ele>1657.45703125</ele>
      </trkpt>
      <trkpt lat="45.44974" lon="5.91656">
        <ele>1645.31640625</ele>
      </trkpt>
      <trkpt lat="45.44977" lon="5.91649">
        <ele>1642.0859375</ele>
      </trkpt>
      <trkpt lat="45.4498" lon="5.91623">
        <ele>1628.890625</ele>
      </trkpt>
      <trkpt lat="45.44982" lon="5.91609">
        <ele>1622.23046875</ele>
      </trkpt>
      <trkpt lat="45.44985" lon="5.916">
        <ele>1617.83984375</ele>
      </trkpt>
      <trkpt lat="45.4499" lon="5.9159">
        <ele>1613.73828125</ele>
      </trkpt>
      <trkpt lat="45.44995" lon="5.91579">
        <ele>1609.26953125</ele>
      </trkpt>
      <trkpt lat="45.44995" lon="5.91569">
        <ele>1604.6328125</ele>
      </trkpt>
      <trkpt lat="45.44992" lon="5.9156">
        <ele>1600.58203125</ele>
      </trkpt>
      <trkpt lat="45.44992" lon="5.91543">
        <ele>1593.11328125</ele>
      </trkpt>
      <trkpt lat="45.44996" lon="5.91531">
        <ele>1588.60546875</ele>
      </trkpt>
      <trkpt lat="45.45" lon="5.91522">
        <ele>1585.546875</ele>
      </trkpt>
      <trkpt lat="45.45017" lon="5.91473">
        <ele>1567.2421875</ele>
      </trkpt>
      <trkpt lat="45.45029" lon="5.91452">
        <ele>1557.359375</ele>
      </trkpt>
      <trkpt lat="45.45035" lon="5.9145">
        <ele>1555.76953125</ele>
      </trkpt>
      <trkpt lat="45.45042" lon="5.9145">
        <ele>1554.9140625</ele>
      </trkpt>
      <trkpt lat="45.45058" lon="5.91461">
        <ele>1555.5859375</ele>
      </trkpt>
      <trkpt lat="45.45072" lon="5.91459">
        <ele>1549.27734375</ele>
      </trkpt>
      <trkpt lat="45.45081" lon="5.91461">
        <ele>1543.77734375</ele>
      </trkpt>
      <trkpt lat="45.45091" lon="5.91458">
        <ele>1537.25390625</ele>
      </trkpt>
      <trkpt lat="45.45099" lon="5.91457">
        <ele>1532.4765625</ele>
      </trkpt>
      <trkpt lat="45.45108" lon="5.91459">
        <ele>1526.9296875</ele>
      </trkpt>
      <trkpt lat="45.4512" lon="5.91459">
        <ele>1519.71875</ele>
      </trkpt>
      <trkpt lat="45.45131" lon="5.91462">
        <ele>1514.01171875</ele>
      </trkpt>
      <trkpt lat="45.45161" lon="5.91469">
        <ele>1498.0859375</ele>
      </trkpt>
      <trkpt lat="45.45184" lon="5.91469">
        <ele>1486.96484375</ele>
      </trkpt>
      <trkpt lat="45.4519" lon="5.91469">
        <ele>1485.19921875</ele>
      </trkpt>
      <trkpt lat="45.45194" lon="5.91467">
        <ele>1483.23046875</ele>
      </trkpt>
      <trkpt lat="45.45197" lon="5.91465">
        <ele>1481.59375</ele>
      </trkpt>
      <trkpt lat="45.45202" lon="5.91457">
        <ele>1478.140625</ele>
      </trkpt>
      <trkpt lat="45.45203" lon="5.91453">
        <ele>1476.61328125</ele>
      </trkpt>
      <trkpt lat="45.45202" lon="5.91449">
        <ele>1475.8359375</ele>
      </trkpt>
      <trkpt lat="45.452" lon="5.91437">
        <ele>1473.4609375</ele>
      </trkpt>
      <trkpt lat="45.45198" lon="5.91427">
        <ele>1471.3046875</ele>
      </trkpt>
      <trkpt lat="45.45197" lon="5.91413">
        <ele>1468.52734375</ele>
      </trkpt>
      <trkpt lat="45.45194" lon="5.91378">
        <ele>1464.69140625</ele>
      </trkpt>
      <trkpt lat="45.45194" lon="5.91367">
        <ele>1463.13671875</ele>
      </trkpt>
      <trkpt lat="45.45196" lon="5.91357">
        <ele>1460.97265625</ele>
      </trkpt>
      <trkpt lat="45.452" lon="5.9135">
        <ele>1458.75</ele>
      </trkpt>
      <trkpt lat="45.45203" lon="5.91343">
        <ele>1456.5703125</ele>
      </trkpt>
      <trkpt lat="45.45209" lon="5.91324">
        <ele>1451.5234375</ele>
      </trkpt>
      <trkpt lat="45.45216" lon="5.913">
        <ele>1446.15625</ele>
      </trkpt>
      <trkpt lat="45.45218" lon="5.91289">
        <ele>1444.59765625</ele>
      </trkpt>
      <trkpt lat="45.45212" lon="5.91248">
        <ele>1444.7578125</ele>
      </trkpt>
      <trkpt lat="45.45208" lon="5.91235">
        <ele>1442.93359375</ele>
      </trkpt>
      <trkpt lat="45.452" lon="5.91214">
        <ele>1439.90234375</ele>
      </trkpt>
      <trkpt lat="45.45191" lon="5.91196">
        <ele>1437.48828125</ele>
      </trkpt>
      <trkpt lat="45.45162" lon="5.91136">
        <ele>1422.3671875</ele>
      </trkpt>
      <trkpt lat="45.45151" lon="5.91107">
        <ele>1413.8671875</ele>
      </trkpt>
      <trkpt lat="45.45136" lon="5.91076">
        <ele>1404.99609375</ele>
      </trkpt>
      <trkpt lat="45.45124" lon="5.91046">
        <ele>1396.95703125</ele>
      </trkpt>
      <trkpt lat="45.45121" lon="5.91038">
        <ele>1394.63671875</ele>
      </trkpt>
      <trkpt lat="45.45114" lon="5.9102">
        <ele>1388.82421875</ele>
      </trkpt>
      <trkpt lat="45.4511" lon="5.91014">
        <ele>1386.33203125</ele>
      </trkpt>
      <trkpt lat="45.45106" lon="5.91007">
        <ele>1383.38671875</ele>
      </trkpt>
      <trkpt lat="45.45098" lon="5.90998">
        <ele>1379.89453125</ele>
      </trkpt>
      <trkpt lat="45.45095" lon="5.90995">
        <ele>1378.58203125</ele>
      </trkpt>
      <trkpt lat="45.45091" lon="5.90981">
        <ele>1372.953125</ele>
      </trkpt>
      <trkpt lat="45.45088" lon="5.90976">
        <ele>1371.14453125</ele>
      </trkpt>
      <trkpt lat="45.45084" lon="5.90972">
        <ele>1369.22265625</ele>
      </trkpt>
      <trkpt lat="45.45077" lon="5.9097">
        <ele>1368.0078125</ele>
      </trkpt>
      <trkpt lat="45.45054" lon="5.90956">
        <ele>1357.81640625</ele>
      </trkpt>
      <trkpt lat="45.45047" lon="5.90954">
        <ele>1354.88671875</ele>
      </trkpt>
      <trkpt lat="45.45036" lon="5.9095">
        <ele>1349.69921875</ele>
      </trkpt>
      <trkpt lat="45.45018" lon="5.90948">
        <ele>1343.28125</ele>
      </trkpt>
      <trkpt lat="45.44999" lon="5.90946">
        <ele>1337.48046875</ele>
      </trkpt>
      <trkpt lat="45.44991" lon="5.90945">
        <ele>1335.11328125</ele>
      </trkpt>
      <trkpt lat="45.44983" lon="5.90945">
        <ele>1332.94921875</ele>
      </trkpt>
      <trkpt lat="45.44947" lon="5.9094">
        <ele>1322.20703125</ele>
      </trkpt>
      <trkpt lat="45.4494" lon="5.90938">
        <ele>1319.96484375</ele>
      </trkpt>
      <trkpt lat="45.44927" lon="5.90934">
        <ele>1315.87109375</ele>
      </trkpt>
      <trkpt lat="45.44921" lon="5.90932">
        <ele>1314.265625</ele>
      </trkpt>
      <trkpt lat="45.44912" lon="5.90925">
        <ele>1309.609375</ele>
      </trkpt>
      <trkpt lat="45.44894" lon="5.90916">
        <ele>1303.13671875</ele>
      </trkpt>
      <trkpt lat="45.44888" lon="5.90912">
        <ele>1301.12109375</ele>
      </trkpt>
      <trkpt lat="45.44868" lon="5.909">
        <ele>1295.1796875</ele>
      </trkpt>
      <trkpt lat="45.44834" lon="5.90891">
        <ele>1288.8828125</ele>
      </trkpt>
      <trkpt lat="45.44803" lon="5.90878">
        <ele>1281.703125</ele>
      </trkpt>
      <trkpt lat="45.44793" lon="5.90872">
        <ele>1278.98046875</ele>
      </trkpt>
      <trkpt lat="45.44783" lon="5.90866">
        <ele>1275.64453125</ele>
      </trkpt>
      <trkpt lat="45.44774" lon="5.9086">
        <ele>1271.828125</ele>
      </trkpt>
      <trkpt lat="45.44757" lon="5.90847">
        <ele>1264.58203125</ele>
      </trkpt>
      <trkpt lat="45.44753" lon="5.90836">
        <ele>1260.109375</ele>
      </trkpt>
      <trkpt lat="45.44753" lon="5.9082">
        <ele>1254.66015625</ele>
      </trkpt>
      <trkpt lat="45.44748" lon="5.9079">
        <ele>1245.3046875</ele>
      </trkpt>
      <trkpt lat="45.44744" lon="5.90777">
        <ele>1241.515625</ele>
      </trkpt>
      <trkpt lat="45.44739" lon="5.90763">
        <ele>1237.49609375</ele>
      </trkpt>
      <trkpt lat="45.44737" lon="5.90748">
        <ele>1234.02734375</ele>
      </trkpt>
      <trkpt lat="45.44735" lon="5.9072">
        <ele>1229.9375</ele>
      </trkpt>
      <trkpt lat="45.44739" lon="5.9069">
        <ele>1226.9375</ele>
      </trkpt>
      <trkpt lat="45.44739" lon="5.90676">
        <ele>1225.1796875</ele>
      </trkpt>
      <trkpt lat="45.44742" lon="5.90661">
        <ele>1223.921875</ele>
      </trkpt>
      <trkpt lat="45.44749" lon="5.90589">
        <ele>1216.43359375</ele>
      </trkpt>
      <trkpt lat="45.44755" lon="5.90549">
        <ele>1212.84375</ele>
      </trkpt>
      <trkpt lat="45.44764" lon="5.90523">
        <ele>1211.1328125</ele>
      </trkpt>
      <trkpt lat="45.44768" lon="5.90512">
        <ele>1210.37890625</ele>
      </trkpt>
      <trkpt lat="45.44771" lon="5.90509">
        <ele>1210.546875</ele>
      </trkpt>
      <trkpt lat="45.44784" lon="5.90489">
        <ele>1210.12890625</ele>
      </trkpt>
      <trkpt lat="45.44782" lon="5.90481">
        <ele>1208.3125</ele>
      </trkpt>
      <trkpt lat="45.44775" lon="5.90481">
        <ele>1206.80859375</ele>
      </trkpt>
      <trkpt lat="45.44764" lon="5.90484">
        <ele>1205.15625</ele>
      </trkpt>
      <trkpt lat="45.4474" lon="5.90487">
        <ele>1200.87109375</ele>
      </trkpt>
      <trkpt lat="45.44731" lon="5.90487">
        <ele>1198.8515625</ele>
      </trkpt>
      <trkpt lat="45.44724" lon="5.90485">
        <ele>1195.6875</ele>
      </trkpt>
      <trkpt lat="45.44718" lon="5.90487">
        <ele>1193.11328125</ele>
      </trkpt>
      <trkpt lat="45.44704" lon="5.90488">
        <ele>1187.02734375</ele>
      </trkpt>
      <trkpt lat="45.44689" lon="5.90493">
        <ele>1180.76171875</ele>
      </trkpt>
      <trkpt lat="45.44676" lon="5.90498">
        <ele>1175.44140625</ele>
      </trkpt>
      <trkpt lat="45.44668" lon="5.9051">
        <ele>1172.6953125</ele>
      </trkpt>
      <trkpt lat="45.44662" lon="5.90541">
        <ele>1172.53515625</ele>
      </trkpt>
      <trkpt lat="45.44652" lon="5.90582">
        <ele>1172.14453125</ele>
      </trkpt>
      <trkpt lat="45.4465" lon="5.90588">
        <ele>1172.05859375</ele>
      </trkpt>
      <trkpt lat="45.44648" lon="5.90593">
        <ele>1171.94140625</ele>
      </trkpt>
      <trkpt lat="45.44643" lon="5.90605">
        <ele>1171.421875</ele>
      </trkpt>
      <trkpt lat="45.44635" lon="5.90613">
        <ele>1169.390625</ele>
      </trkpt>
      <trkpt lat="45.44626" lon="5.9062">
        <ele>1166.47265625</ele>
      </trkpt>
      <trkpt lat="45.44604" lon="5.90637">
        <ele>1160.0703125</ele>
      </trkpt>
      <trkpt lat="45.446" lon="5.90641">
        <ele>1158.76171875</ele>
      </trkpt>
      <trkpt lat="45.44593" lon="5.90645">
        <ele>1156.83203125</ele>
      </trkpt>
      <trkpt lat="45.44588" lon="5.90643">
        <ele>1154.2265625</ele>
      </trkpt>
      <trkpt lat="45.44586" lon="5.90632">
        <ele>1151.8203125</ele>
      </trkpt>
      <trkpt lat="45.44585" lon="5.90619">
        <ele>1149.66796875</ele>
      </trkpt>
      <trkpt lat="45.44583" lon="5.90612">
        <ele>1147.8046875</ele>
      </trkpt>
      <trkpt lat="45.44577" lon="5.90611">
        <ele>1145.4921875</ele>
      </trkpt>
      <trkpt lat="45.44572" lon="5.90616">
        <ele>1144.0078125</ele>
      </trkpt>
      <trkpt lat="45.44562" lon="5.90635">
        <ele>1142.42578125</ele>
      </trkpt>
      <trkpt lat="45.44557" lon="5.90645">
        <ele>1141.3359375</ele>
      </trkpt>
      <trkpt lat="45.44549" lon="5.90661">
        <ele>1140.45703125</ele>
      </trkpt>
      <trkpt lat="45.44533" lon="5.90685">
        <ele>1137.3046875</ele>
      </trkpt>
      <trkpt lat="45.44512" lon="5.90701">
        <ele>1131.32421875</ele>
      </trkpt>
      <trkpt lat="45.44503" lon="5.90709">
        <ele>1130.359375</ele>
      </trkpt>
      <trkpt lat="45.44495" lon="5.90719">
        <ele>1129.87890625</ele>
      </trkpt>
      <trkpt lat="45.44488" lon="5.90728">
        <ele>1129.67578125</ele>
      </trkpt>
      <trkpt lat="45.44482" lon="5.90737">
        <ele>1129.5703125</ele>
      </trkpt>
      <trkpt lat="45.44475" lon="5.90745">
        <ele>1128.94921875</ele>
      </trkpt>
      <trkpt lat="45.44468" lon="5.90751">
        <ele>1127.6953125</ele>
      </trkpt>
      <trkpt lat="45.44457" lon="5.90758">
        <ele>1125.39453125</ele>
      </trkpt>
      <trkpt lat="45.44439" lon="5.90767">
        <ele>1124.96484375</ele>
      </trkpt>
      <trkpt lat="45.44425" lon="5.90775">
        <ele>1125.28125</ele>
      </trkpt>
      <trkpt lat="45.44415" lon="5.90777">
        <ele>1124.9453125</ele>
      </trkpt>
      <trkpt lat="45.44416" lon="5.90763">
        <ele>1122.84375</ele>
      </trkpt>
      <trkpt lat="45.44417" lon="5.90742">
        <ele>1119.60546875</ele>
      </trkpt>
      <trkpt lat="45.44416" lon="5.90733">
        <ele>1118.26171875</ele>
      </trkpt>
      <trkpt lat="45.44417" lon="5.90728">
        <ele>1117.5078125</ele>
      </trkpt>
      <trkpt lat="45.44418" lon="5.90721">
        <ele>1116.5859375</ele>
      </trkpt>
      <trkpt lat="45.44416" lon="5.90716">
        <ele>1115.6875</ele>
      </trkpt>
      <trkpt lat="45.44412" lon="5.90711">
        <ele>1114.86328125</ele>
      </trkpt>
      <trkpt lat="45.44398" lon="5.90698">
        <ele>1112.28125</ele>
      </trkpt>
      <trkpt lat="45.44386" lon="5.9069">
        <ele>1111.39453125</ele>
      </trkpt>
      <trkpt lat="45.44376" lon="5.9069">
        <ele>1111.58984375</ele>
      </trkpt>
      <trkpt lat="45.44371" lon="5.90686">
        <ele>1111.046875</ele>
      </trkpt>
      <trkpt lat="45.44364" lon="5.9067">
        <ele>1108.86328125</ele>
      </trkpt>
      <trkpt lat="45.44354" lon="5.90662">
        <ele>1107.95703125</ele>
      </trkpt>
      <trkpt lat="45.44347" lon="5.90657">
        <ele>1107.35546875</ele>
      </trkpt>
      <trkpt lat="45.44342" lon="5.90654">
        <ele>1106.93359375</ele>
      </trkpt>
      <trkpt lat="45.44304" lon="5.90623">
        <ele>1103.5078125</ele>
      </trkpt>
      <trkpt lat="45.4428" lon="5.90606">
        <ele>1101.859375</ele>
      </trkpt>
      <trkpt lat="45.44265" lon="5.90597">
        <ele>1100.9140625</ele>
      </trkpt>
      <trkpt lat="45.44253" lon="5.90591">
        <ele>1100.44921875</ele>
      </trkpt>
      <trkpt lat="45.44247" lon="5.90585">
        <ele>1099.75390625</ele>
      </trkpt>
      <trkpt lat="45.44243" lon="5.90577">
        <ele>1098.98828125</ele>
      </trkpt>
      <trkpt lat="45.4424" lon="5.90569">
        <ele>1098.078125</ele>
      </trkpt>
      <trkpt lat="45.44233" lon="5.90571">
        <ele>1098.484375</ele>
      </trkpt>
      <trkpt lat="45.44223" lon="5.90572">
        <ele>1099.31640625</ele>
      </trkpt>
      <trkpt lat="45.44214" lon="5.90569">
        <ele>1099.8359375</ele>
      </trkpt>
      <trkpt lat="45.44204" lon="5.90564">
        <ele>1100.33203125</ele>
      </trkpt>
      <trkpt lat="45.44195" lon="5.90562">
        <ele>1100.9609375</ele>
      </trkpt>
      <trkpt lat="45.44186" lon="5.9056">
        <ele>1101.73046875</ele>
      </trkpt>
      <trkpt lat="45.44174" lon="5.90561">
        <ele>1103.12109375</ele>
      </trkpt>
      <trkpt lat="45.44162" lon="5.90566">
        <ele>1105.6875</ele>
      </trkpt>
      <trkpt lat="45.44155" lon="5.90569">
        <ele>1107.25390625</ele>
      </trkpt>
      <trkpt lat="45.44155" lon="5.90569">
        <ele>1107.25</ele>
      </trkpt>
    </trkseg>
  </trk>
</gpx>